<?xml version="1.0" encoding="UTF-8" standalone="no" ?>
<gpx xmlns="http://www.topografix.com/GPX/1/1" xmlns:xsi="http://www.w3.org/2001/XMLSchema-instance" xsi:schemaLocation="http://www.topografix.com/GPX/1/1 http://www.topografix.com/GPX/1/1/gpx.xsd" version="1.1" creator="VisuGPX - https://www.visugpx.com">
  <metadata>
    <name>26-05-12</name>
    <desc><![CDATA[VVGG
Avec Éric]]></desc>
  </metadata>
  <trk>
    <name><![CDATA[26-05-12_1]]></name>
    <trkseg>
      <trkpt lat="45.61819" lon="6.27689">
        <ele>432.2</ele>
        <time>2026-05-12T20:00:12Z</time>
      </trkpt>
      <trkpt lat="45.61814" lon="6.27689">
        <ele>431.6</ele>
        <time>2026-05-12T20:00:13Z</time>
      </trkpt>
      <trkpt lat="45.61811" lon="6.27691">
        <ele>431.4</ele>
        <time>2026-05-12T20:00:14Z</time>
      </trkpt>
      <trkpt lat="45.61804" lon="6.2769">
        <ele>430.4</ele>
        <time>2026-05-12T20:00:16Z</time>
      </trkpt>
      <trkpt lat="45.61786" lon="6.27696">
        <ele>429.4</ele>
        <time>2026-05-12T20:00:20Z</time>
      </trkpt>
      <trkpt lat="45.61778" lon="6.27699">
        <ele>428</ele>
        <time>2026-05-12T20:00:22Z</time>
      </trkpt>
      <trkpt lat="45.61773" lon="6.27706">
        <ele>429</ele>
        <time>2026-05-12T20:00:24Z</time>
      </trkpt>
      <trkpt lat="45.61771" lon="6.27712">
        <ele>429.2</ele>
        <time>2026-05-12T20:00:25Z</time>
      </trkpt>
      <trkpt lat="45.61764" lon="6.27732">
        <ele>428</ele>
        <time>2026-05-12T20:00:28Z</time>
      </trkpt>
      <trkpt lat="45.61758" lon="6.27751">
        <ele>426.8</ele>
        <time>2026-05-12T20:00:31Z</time>
      </trkpt>
      <trkpt lat="45.61756" lon="6.27758">
        <ele>426.2</ele>
        <time>2026-05-12T20:00:32Z</time>
      </trkpt>
      <trkpt lat="45.61754" lon="6.27765">
        <ele>425.6</ele>
        <time>2026-05-12T20:00:33Z</time>
      </trkpt>
      <trkpt lat="45.61747" lon="6.27787">
        <ele>424.4</ele>
        <time>2026-05-12T20:00:36Z</time>
      </trkpt>
      <trkpt lat="45.61739" lon="6.27808">
        <ele>423</ele>
        <time>2026-05-12T20:00:39Z</time>
      </trkpt>
      <trkpt lat="45.61731" lon="6.27823">
        <ele>422</ele>
        <time>2026-05-12T20:00:41Z</time>
      </trkpt>
      <trkpt lat="45.61727" lon="6.27828">
        <ele>421.6</ele>
        <time>2026-05-12T20:00:42Z</time>
      </trkpt>
      <trkpt lat="45.61722" lon="6.27833">
        <ele>421.4</ele>
        <time>2026-05-12T20:00:43Z</time>
      </trkpt>
      <trkpt lat="45.61712" lon="6.27842">
        <ele>420.6</ele>
        <time>2026-05-12T20:00:45Z</time>
      </trkpt>
      <trkpt lat="45.61706" lon="6.27846">
        <ele>420.4</ele>
        <time>2026-05-12T20:00:46Z</time>
      </trkpt>
      <trkpt lat="45.61692" lon="6.27854">
        <ele>420</ele>
        <time>2026-05-12T20:00:49Z</time>
      </trkpt>
      <trkpt lat="45.61687" lon="6.27857">
        <ele>420</ele>
        <time>2026-05-12T20:00:50Z</time>
      </trkpt>
      <trkpt lat="45.61679" lon="6.27854">
        <ele>419.6</ele>
        <time>2026-05-12T20:00:52Z</time>
      </trkpt>
      <trkpt lat="45.61674" lon="6.27844">
        <ele>419.4</ele>
        <time>2026-05-12T20:00:54Z</time>
      </trkpt>
      <trkpt lat="45.61674" lon="6.27836">
        <ele>419.2</ele>
        <time>2026-05-12T20:00:55Z</time>
      </trkpt>
      <trkpt lat="45.61674" lon="6.27829">
        <ele>419</ele>
        <time>2026-05-12T20:00:56Z</time>
      </trkpt>
      <trkpt lat="45.61672" lon="6.27814">
        <ele>419</ele>
        <time>2026-05-12T20:00:58Z</time>
      </trkpt>
      <trkpt lat="45.61668" lon="6.27806">
        <ele>418.8</ele>
        <time>2026-05-12T20:00:59Z</time>
      </trkpt>
      <trkpt lat="45.61664" lon="6.27801">
        <ele>418.6</ele>
        <time>2026-05-12T20:01:00Z</time>
      </trkpt>
      <trkpt lat="45.6166" lon="6.27797">
        <ele>418.2</ele>
        <time>2026-05-12T20:01:02Z</time>
      </trkpt>
      <trkpt lat="45.61655" lon="6.27793">
        <ele>418</ele>
        <time>2026-05-12T20:01:04Z</time>
      </trkpt>
      <trkpt lat="45.6163" lon="6.27775">
        <ele>416.8</ele>
        <time>2026-05-12T20:01:08Z</time>
      </trkpt>
      <trkpt lat="45.61623" lon="6.2777">
        <ele>416.6</ele>
        <time>2026-05-12T20:01:09Z</time>
      </trkpt>
      <trkpt lat="45.61603" lon="6.27757">
        <ele>415.6</ele>
        <time>2026-05-12T20:01:12Z</time>
      </trkpt>
      <trkpt lat="45.61582" lon="6.27742">
        <ele>414.2</ele>
        <time>2026-05-12T20:01:15Z</time>
      </trkpt>
      <trkpt lat="45.61574" lon="6.27737">
        <ele>414</ele>
        <time>2026-05-12T20:01:16Z</time>
      </trkpt>
      <trkpt lat="45.61558" lon="6.27728">
        <ele>413</ele>
        <time>2026-05-12T20:01:18Z</time>
      </trkpt>
      <trkpt lat="45.61536" lon="6.27713">
        <ele>411.8</ele>
        <time>2026-05-12T20:01:21Z</time>
      </trkpt>
      <trkpt lat="45.61511" lon="6.27695">
        <ele>410.6</ele>
        <time>2026-05-12T20:01:24Z</time>
      </trkpt>
      <trkpt lat="45.61487" lon="6.2768">
        <ele>409</ele>
        <time>2026-05-12T20:01:27Z</time>
      </trkpt>
      <trkpt lat="45.6148" lon="6.27675">
        <ele>408.6</ele>
        <time>2026-05-12T20:01:28Z</time>
      </trkpt>
      <trkpt lat="45.61466" lon="6.27666">
        <ele>407.6</ele>
        <time>2026-05-12T20:01:30Z</time>
      </trkpt>
      <trkpt lat="45.61441" lon="6.2765">
        <ele>406.4</ele>
        <time>2026-05-12T20:01:33Z</time>
      </trkpt>
      <trkpt lat="45.61428" lon="6.2764">
        <ele>405.6</ele>
        <time>2026-05-12T20:01:35Z</time>
      </trkpt>
      <trkpt lat="45.61421" lon="6.27635">
        <ele>405.4</ele>
        <time>2026-05-12T20:01:36Z</time>
      </trkpt>
      <trkpt lat="45.61399" lon="6.27619">
        <ele>404.4</ele>
        <time>2026-05-12T20:01:39Z</time>
      </trkpt>
      <trkpt lat="45.61383" lon="6.27609">
        <ele>403.8</ele>
        <time>2026-05-12T20:01:41Z</time>
      </trkpt>
      <trkpt lat="45.61376" lon="6.27604">
        <ele>403.2</ele>
        <time>2026-05-12T20:01:42Z</time>
      </trkpt>
      <trkpt lat="45.61356" lon="6.2759">
        <ele>401.8</ele>
        <time>2026-05-12T20:01:45Z</time>
      </trkpt>
      <trkpt lat="45.61334" lon="6.27573">
        <ele>400.4</ele>
        <time>2026-05-12T20:01:48Z</time>
      </trkpt>
      <trkpt lat="45.61329" lon="6.27568">
        <ele>400.2</ele>
        <time>2026-05-12T20:01:49Z</time>
      </trkpt>
      <trkpt lat="45.61307" lon="6.27549">
        <ele>399.4</ele>
        <time>2026-05-12T20:01:52Z</time>
      </trkpt>
      <trkpt lat="45.61291" lon="6.27527">
        <ele>398</ele>
        <time>2026-05-12T20:01:55Z</time>
      </trkpt>
      <trkpt lat="45.61248" lon="6.27479">
        <ele>397</ele>
        <time>2026-05-12T20:02:02Z</time>
      </trkpt>
      <trkpt lat="45.61208" lon="6.27443">
        <ele>396.8</ele>
        <time>2026-05-12T20:02:09Z</time>
      </trkpt>
      <trkpt lat="45.61186" lon="6.27419">
        <ele>397.4</ele>
        <time>2026-05-12T20:02:14Z</time>
      </trkpt>
      <trkpt lat="45.61177" lon="6.27408">
        <ele>397.6</ele>
        <time>2026-05-12T20:02:16Z</time>
      </trkpt>
      <trkpt lat="45.61165" lon="6.27388">
        <ele>398.4</ele>
        <time>2026-05-12T20:02:20Z</time>
      </trkpt>
      <trkpt lat="45.61148" lon="6.27366">
        <ele>399.4</ele>
        <time>2026-05-12T20:02:25Z</time>
      </trkpt>
      <trkpt lat="45.61142" lon="6.27356">
        <ele>400</ele>
        <time>2026-05-12T20:02:27Z</time>
      </trkpt>
      <trkpt lat="45.61134" lon="6.27346">
        <ele>400.4</ele>
        <time>2026-05-12T20:02:29Z</time>
      </trkpt>
      <trkpt lat="45.6112" lon="6.2732">
        <ele>401.2</ele>
        <time>2026-05-12T20:02:34Z</time>
      </trkpt>
      <trkpt lat="45.61117" lon="6.27313">
        <ele>401.2</ele>
        <time>2026-05-12T20:02:35Z</time>
      </trkpt>
      <trkpt lat="45.61112" lon="6.27301">
        <ele>401.8</ele>
        <time>2026-05-12T20:02:37Z</time>
      </trkpt>
      <trkpt lat="45.61101" lon="6.27271">
        <ele>402.2</ele>
        <time>2026-05-12T20:02:42Z</time>
      </trkpt>
      <trkpt lat="45.61081" lon="6.27217">
        <ele>402.8</ele>
        <time>2026-05-12T20:02:51Z</time>
      </trkpt>
      <trkpt lat="45.61078" lon="6.27206">
        <ele>403</ele>
        <time>2026-05-12T20:02:53Z</time>
      </trkpt>
      <trkpt lat="45.61063" lon="6.27164">
        <ele>403.8</ele>
        <time>2026-05-12T20:03:00Z</time>
      </trkpt>
      <trkpt lat="45.61056" lon="6.27141">
        <ele>404.4</ele>
        <time>2026-05-12T20:03:04Z</time>
      </trkpt>
      <trkpt lat="45.61052" lon="6.27131">
        <ele>405</ele>
        <time>2026-05-12T20:03:06Z</time>
      </trkpt>
      <trkpt lat="45.61045" lon="6.27107">
        <ele>406</ele>
        <time>2026-05-12T20:03:11Z</time>
      </trkpt>
      <trkpt lat="45.61043" lon="6.27101">
        <ele>406</ele>
        <time>2026-05-12T20:03:12Z</time>
      </trkpt>
      <trkpt lat="45.6104" lon="6.27087">
        <ele>407</ele>
        <time>2026-05-12T20:03:15Z</time>
      </trkpt>
      <trkpt lat="45.61037" lon="6.27078">
        <ele>407.4</ele>
        <time>2026-05-12T20:03:17Z</time>
      </trkpt>
      <trkpt lat="45.6103" lon="6.2706">
        <ele>408.2</ele>
        <time>2026-05-12T20:03:20Z</time>
      </trkpt>
      <trkpt lat="45.61021" lon="6.27042">
        <ele>408.6</ele>
        <time>2026-05-12T20:03:23Z</time>
      </trkpt>
      <trkpt lat="45.61001" lon="6.27002">
        <ele>408.6</ele>
        <time>2026-05-12T20:03:30Z</time>
      </trkpt>
      <trkpt lat="45.60979" lon="6.26949">
        <ele>408.4</ele>
        <time>2026-05-12T20:03:38Z</time>
      </trkpt>
      <trkpt lat="45.6096" lon="6.26893">
        <ele>408.6</ele>
        <time>2026-05-12T20:03:47Z</time>
      </trkpt>
      <trkpt lat="45.60947" lon="6.26858">
        <ele>409.2</ele>
        <time>2026-05-12T20:03:53Z</time>
      </trkpt>
      <trkpt lat="45.60943" lon="6.26848">
        <ele>409.4</ele>
        <time>2026-05-12T20:03:55Z</time>
      </trkpt>
      <trkpt lat="45.60931" lon="6.26823">
        <ele>410.6</ele>
        <time>2026-05-12T20:04:00Z</time>
      </trkpt>
      <trkpt lat="45.60918" lon="6.26799">
        <ele>411.4</ele>
        <time>2026-05-12T20:04:05Z</time>
      </trkpt>
      <trkpt lat="45.60912" lon="6.2679">
        <ele>411.6</ele>
        <time>2026-05-12T20:04:07Z</time>
      </trkpt>
      <trkpt lat="45.60894" lon="6.26757">
        <ele>412.6</ele>
        <time>2026-05-12T20:04:14Z</time>
      </trkpt>
      <trkpt lat="45.60891" lon="6.26752">
        <ele>412.8</ele>
        <time>2026-05-12T20:04:15Z</time>
      </trkpt>
      <trkpt lat="45.60873" lon="6.26718">
        <ele>413.8</ele>
        <time>2026-05-12T20:04:22Z</time>
      </trkpt>
      <trkpt lat="45.60871" lon="6.26713">
        <ele>414.2</ele>
        <time>2026-05-12T20:04:23Z</time>
      </trkpt>
      <trkpt lat="45.60863" lon="6.26699">
        <ele>415</ele>
        <time>2026-05-12T20:04:26Z</time>
      </trkpt>
      <trkpt lat="45.60849" lon="6.2667">
        <ele>415.8</ele>
        <time>2026-05-12T20:04:32Z</time>
      </trkpt>
      <trkpt lat="45.60846" lon="6.26664">
        <ele>416.2</ele>
        <time>2026-05-12T20:04:33Z</time>
      </trkpt>
      <trkpt lat="45.6084" lon="6.26648">
        <ele>416.8</ele>
        <time>2026-05-12T20:04:36Z</time>
      </trkpt>
      <trkpt lat="45.60832" lon="6.2663">
        <ele>417.6</ele>
        <time>2026-05-12T20:04:40Z</time>
      </trkpt>
      <trkpt lat="45.60824" lon="6.26607">
        <ele>418.8</ele>
        <time>2026-05-12T20:04:45Z</time>
      </trkpt>
      <trkpt lat="45.6082" lon="6.26595">
        <ele>419</ele>
        <time>2026-05-12T20:04:47Z</time>
      </trkpt>
      <trkpt lat="45.60809" lon="6.26565">
        <ele>419.8</ele>
        <time>2026-05-12T20:04:53Z</time>
      </trkpt>
      <trkpt lat="45.60806" lon="6.26558">
        <ele>420.2</ele>
        <time>2026-05-12T20:04:55Z</time>
      </trkpt>
      <trkpt lat="45.60798" lon="6.26541">
        <ele>420.8</ele>
        <time>2026-05-12T20:04:59Z</time>
      </trkpt>
      <trkpt lat="45.60794" lon="6.26533">
        <ele>421.2</ele>
        <time>2026-05-12T20:05:01Z</time>
      </trkpt>
      <trkpt lat="45.60787" lon="6.26521">
        <ele>422</ele>
        <time>2026-05-12T20:05:04Z</time>
      </trkpt>
      <trkpt lat="45.60777" lon="6.26506">
        <ele>423.4</ele>
        <time>2026-05-12T20:05:08Z</time>
      </trkpt>
      <trkpt lat="45.60766" lon="6.26489">
        <ele>424.6</ele>
        <time>2026-05-12T20:05:13Z</time>
      </trkpt>
      <trkpt lat="45.60761" lon="6.2648">
        <ele>424.8</ele>
        <time>2026-05-12T20:05:15Z</time>
      </trkpt>
      <trkpt lat="45.60751" lon="6.26465">
        <ele>425.6</ele>
        <time>2026-05-12T20:05:19Z</time>
      </trkpt>
      <trkpt lat="45.60743" lon="6.26451">
        <ele>426</ele>
        <time>2026-05-12T20:05:22Z</time>
      </trkpt>
      <trkpt lat="45.6072" lon="6.26412">
        <ele>426.4</ele>
        <time>2026-05-12T20:05:29Z</time>
      </trkpt>
      <trkpt lat="45.60695" lon="6.26367">
        <ele>425.6</ele>
        <time>2026-05-12T20:05:36Z</time>
      </trkpt>
      <trkpt lat="45.60676" lon="6.2632">
        <ele>424.6</ele>
        <time>2026-05-12T20:05:42Z</time>
      </trkpt>
      <trkpt lat="45.60672" lon="6.26311">
        <ele>424.6</ele>
        <time>2026-05-12T20:05:43Z</time>
      </trkpt>
      <trkpt lat="45.60656" lon="6.26272">
        <ele>423.4</ele>
        <time>2026-05-12T20:05:47Z</time>
      </trkpt>
      <trkpt lat="45.60648" lon="6.26255">
        <ele>422.6</ele>
        <time>2026-05-12T20:05:49Z</time>
      </trkpt>
      <trkpt lat="45.60644" lon="6.26245">
        <ele>422.2</ele>
        <time>2026-05-12T20:05:50Z</time>
      </trkpt>
      <trkpt lat="45.60632" lon="6.26214">
        <ele>421.2</ele>
        <time>2026-05-12T20:05:53Z</time>
      </trkpt>
      <trkpt lat="45.60627" lon="6.26203">
        <ele>420.6</ele>
        <time>2026-05-12T20:05:54Z</time>
      </trkpt>
      <trkpt lat="45.60618" lon="6.2618">
        <ele>419.8</ele>
        <time>2026-05-12T20:05:56Z</time>
      </trkpt>
      <trkpt lat="45.60603" lon="6.26151">
        <ele>418</ele>
        <time>2026-05-12T20:05:59Z</time>
      </trkpt>
      <trkpt lat="45.60592" lon="6.2613">
        <ele>416.6</ele>
        <time>2026-05-12T20:06:01Z</time>
      </trkpt>
      <trkpt lat="45.60581" lon="6.26108">
        <ele>415.6</ele>
        <time>2026-05-12T20:06:03Z</time>
      </trkpt>
      <trkpt lat="45.60576" lon="6.26098">
        <ele>414.4</ele>
        <time>2026-05-12T20:06:04Z</time>
      </trkpt>
      <trkpt lat="45.60562" lon="6.26076">
        <ele>413.4</ele>
        <time>2026-05-12T20:06:06Z</time>
      </trkpt>
      <trkpt lat="45.60556" lon="6.26067">
        <ele>412.8</ele>
        <time>2026-05-12T20:06:07Z</time>
      </trkpt>
      <trkpt lat="45.60545" lon="6.26051">
        <ele>411</ele>
        <time>2026-05-12T20:06:09Z</time>
      </trkpt>
      <trkpt lat="45.60534" lon="6.26033">
        <ele>409.8</ele>
        <time>2026-05-12T20:06:11Z</time>
      </trkpt>
      <trkpt lat="45.60528" lon="6.26021">
        <ele>408.8</ele>
        <time>2026-05-12T20:06:12Z</time>
      </trkpt>
      <trkpt lat="45.60524" lon="6.26014">
        <ele>408.4</ele>
        <time>2026-05-12T20:06:13Z</time>
      </trkpt>
      <trkpt lat="45.60514" lon="6.25992">
        <ele>407</ele>
        <time>2026-05-12T20:06:15Z</time>
      </trkpt>
      <trkpt lat="45.60506" lon="6.25975">
        <ele>405.2</ele>
        <time>2026-05-12T20:06:17Z</time>
      </trkpt>
      <trkpt lat="45.60504" lon="6.25968">
        <ele>404.6</ele>
        <time>2026-05-12T20:06:18Z</time>
      </trkpt>
      <trkpt lat="45.60503" lon="6.25958">
        <ele>403.6</ele>
        <time>2026-05-12T20:06:19Z</time>
      </trkpt>
      <trkpt lat="45.60504" lon="6.25938">
        <ele>402.6</ele>
        <time>2026-05-12T20:06:21Z</time>
      </trkpt>
      <trkpt lat="45.60507" lon="6.25918">
        <ele>401.6</ele>
        <time>2026-05-12T20:06:23Z</time>
      </trkpt>
      <trkpt lat="45.60506" lon="6.25908">
        <ele>401.2</ele>
        <time>2026-05-12T20:06:24Z</time>
      </trkpt>
      <trkpt lat="45.60503" lon="6.25897">
        <ele>400.8</ele>
        <time>2026-05-12T20:06:25Z</time>
      </trkpt>
      <trkpt lat="45.60494" lon="6.25879">
        <ele>400.2</ele>
        <time>2026-05-12T20:06:27Z</time>
      </trkpt>
      <trkpt lat="45.60485" lon="6.25861">
        <ele>399.4</ele>
        <time>2026-05-12T20:06:29Z</time>
      </trkpt>
      <trkpt lat="45.60477" lon="6.25841">
        <ele>398.6</ele>
        <time>2026-05-12T20:06:31Z</time>
      </trkpt>
      <trkpt lat="45.60464" lon="6.25808">
        <ele>397</ele>
        <time>2026-05-12T20:06:34Z</time>
      </trkpt>
      <trkpt lat="45.60453" lon="6.2579">
        <ele>395.6</ele>
        <time>2026-05-12T20:06:36Z</time>
      </trkpt>
      <trkpt lat="45.60442" lon="6.25778">
        <ele>394.6</ele>
        <time>2026-05-12T20:06:38Z</time>
      </trkpt>
      <trkpt lat="45.60434" lon="6.25773">
        <ele>393.6</ele>
        <time>2026-05-12T20:06:39Z</time>
      </trkpt>
      <trkpt lat="45.60417" lon="6.25764">
        <ele>392</ele>
        <time>2026-05-12T20:06:41Z</time>
      </trkpt>
      <trkpt lat="45.60411" lon="6.25761">
        <ele>391.6</ele>
        <time>2026-05-12T20:06:42Z</time>
      </trkpt>
      <trkpt lat="45.60403" lon="6.25757">
        <ele>390.4</ele>
        <time>2026-05-12T20:06:43Z</time>
      </trkpt>
      <trkpt lat="45.60385" lon="6.25748">
        <ele>389</ele>
        <time>2026-05-12T20:06:45Z</time>
      </trkpt>
      <trkpt lat="45.60369" lon="6.25737">
        <ele>387.6</ele>
        <time>2026-05-12T20:06:47Z</time>
      </trkpt>
      <trkpt lat="45.60361" lon="6.25731">
        <ele>386.4</ele>
        <time>2026-05-12T20:06:48Z</time>
      </trkpt>
      <trkpt lat="45.60348" lon="6.2572">
        <ele>385.2</ele>
        <time>2026-05-12T20:06:50Z</time>
      </trkpt>
      <trkpt lat="45.60342" lon="6.25713">
        <ele>384.2</ele>
        <time>2026-05-12T20:06:51Z</time>
      </trkpt>
      <trkpt lat="45.60336" lon="6.25706">
        <ele>383.6</ele>
        <time>2026-05-12T20:06:52Z</time>
      </trkpt>
      <trkpt lat="45.60332" lon="6.25698">
        <ele>382.6</ele>
        <time>2026-05-12T20:06:53Z</time>
      </trkpt>
      <trkpt lat="45.60328" lon="6.25689">
        <ele>381.8</ele>
        <time>2026-05-12T20:06:54Z</time>
      </trkpt>
      <trkpt lat="45.60329" lon="6.25679">
        <ele>381.2</ele>
        <time>2026-05-12T20:06:55Z</time>
      </trkpt>
      <trkpt lat="45.6033" lon="6.25668">
        <ele>380.4</ele>
        <time>2026-05-12T20:06:56Z</time>
      </trkpt>
      <trkpt lat="45.6033" lon="6.2566">
        <ele>380.2</ele>
        <time>2026-05-12T20:06:57Z</time>
      </trkpt>
      <trkpt lat="45.60328" lon="6.25636">
        <ele>378.8</ele>
        <time>2026-05-12T20:06:59Z</time>
      </trkpt>
      <trkpt lat="45.60319" lon="6.25605">
        <ele>377.6</ele>
        <time>2026-05-12T20:07:02Z</time>
      </trkpt>
      <trkpt lat="45.60312" lon="6.25581">
        <ele>376.2</ele>
        <time>2026-05-12T20:07:04Z</time>
      </trkpt>
      <trkpt lat="45.60304" lon="6.2556">
        <ele>374.8</ele>
        <time>2026-05-12T20:07:06Z</time>
      </trkpt>
      <trkpt lat="45.60295" lon="6.2554">
        <ele>373.4</ele>
        <time>2026-05-12T20:07:08Z</time>
      </trkpt>
      <trkpt lat="45.6029" lon="6.25532">
        <ele>373.2</ele>
        <time>2026-05-12T20:07:09Z</time>
      </trkpt>
      <trkpt lat="45.60285" lon="6.25524">
        <ele>372.2</ele>
        <time>2026-05-12T20:07:10Z</time>
      </trkpt>
      <trkpt lat="45.6028" lon="6.25517">
        <ele>371.2</ele>
        <time>2026-05-12T20:07:11Z</time>
      </trkpt>
      <trkpt lat="45.60275" lon="6.2551">
        <ele>370.8</ele>
        <time>2026-05-12T20:07:12Z</time>
      </trkpt>
      <trkpt lat="45.60268" lon="6.25504">
        <ele>369.8</ele>
        <time>2026-05-12T20:07:13Z</time>
      </trkpt>
      <trkpt lat="45.60261" lon="6.25499">
        <ele>369.4</ele>
        <time>2026-05-12T20:07:14Z</time>
      </trkpt>
      <trkpt lat="45.60254" lon="6.25496">
        <ele>368.2</ele>
        <time>2026-05-12T20:07:15Z</time>
      </trkpt>
      <trkpt lat="45.60246" lon="6.25493">
        <ele>367.4</ele>
        <time>2026-05-12T20:07:16Z</time>
      </trkpt>
      <trkpt lat="45.60239" lon="6.25488">
        <ele>366.8</ele>
        <time>2026-05-12T20:07:17Z</time>
      </trkpt>
      <trkpt lat="45.60225" lon="6.25475">
        <ele>366</ele>
        <time>2026-05-12T20:07:19Z</time>
      </trkpt>
      <trkpt lat="45.60219" lon="6.25467">
        <ele>365.2</ele>
        <time>2026-05-12T20:07:20Z</time>
      </trkpt>
      <trkpt lat="45.60213" lon="6.25459">
        <ele>364.2</ele>
        <time>2026-05-12T20:07:21Z</time>
      </trkpt>
      <trkpt lat="45.60201" lon="6.25441">
        <ele>363</ele>
        <time>2026-05-12T20:07:23Z</time>
      </trkpt>
      <trkpt lat="45.60195" lon="6.25433">
        <ele>362.8</ele>
        <time>2026-05-12T20:07:24Z</time>
      </trkpt>
      <trkpt lat="45.60183" lon="6.25416">
        <ele>361</ele>
        <time>2026-05-12T20:07:26Z</time>
      </trkpt>
      <trkpt lat="45.60173" lon="6.25399">
        <ele>359.4</ele>
        <time>2026-05-12T20:07:28Z</time>
      </trkpt>
      <trkpt lat="45.60167" lon="6.25393">
        <ele>359</ele>
        <time>2026-05-12T20:07:29Z</time>
      </trkpt>
      <trkpt lat="45.60161" lon="6.25388">
        <ele>358.2</ele>
        <time>2026-05-12T20:07:30Z</time>
      </trkpt>
      <trkpt lat="45.60147" lon="6.25382">
        <ele>357</ele>
        <time>2026-05-12T20:07:32Z</time>
      </trkpt>
      <trkpt lat="45.60142" lon="6.2538">
        <ele>356.2</ele>
        <time>2026-05-12T20:07:33Z</time>
      </trkpt>
      <trkpt lat="45.6013" lon="6.25373">
        <ele>355.4</ele>
        <time>2026-05-12T20:07:35Z</time>
      </trkpt>
      <trkpt lat="45.60126" lon="6.25368">
        <ele>354.6</ele>
        <time>2026-05-12T20:07:36Z</time>
      </trkpt>
      <trkpt lat="45.60123" lon="6.25361">
        <ele>354</ele>
        <time>2026-05-12T20:07:37Z</time>
      </trkpt>
      <trkpt lat="45.60116" lon="6.25344">
        <ele>353.2</ele>
        <time>2026-05-12T20:07:39Z</time>
      </trkpt>
      <trkpt lat="45.60111" lon="6.25336">
        <ele>352.6</ele>
        <time>2026-05-12T20:07:40Z</time>
      </trkpt>
      <trkpt lat="45.60106" lon="6.2533">
        <ele>352.4</ele>
        <time>2026-05-12T20:07:41Z</time>
      </trkpt>
      <trkpt lat="45.60093" lon="6.25317">
        <ele>351.2</ele>
        <time>2026-05-12T20:07:43Z</time>
      </trkpt>
      <trkpt lat="45.60083" lon="6.25306">
        <ele>350.2</ele>
        <time>2026-05-12T20:07:45Z</time>
      </trkpt>
      <trkpt lat="45.6008" lon="6.25299">
        <ele>350</ele>
        <time>2026-05-12T20:07:46Z</time>
      </trkpt>
      <trkpt lat="45.60077" lon="6.25292">
        <ele>349.2</ele>
        <time>2026-05-12T20:07:47Z</time>
      </trkpt>
      <trkpt lat="45.60074" lon="6.2528">
        <ele>348.6</ele>
        <time>2026-05-12T20:07:48Z</time>
      </trkpt>
      <trkpt lat="45.60071" lon="6.25262">
        <ele>348</ele>
        <time>2026-05-12T20:07:50Z</time>
      </trkpt>
      <trkpt lat="45.60068" lon="6.25241">
        <ele>347.2</ele>
        <time>2026-05-12T20:07:52Z</time>
      </trkpt>
      <trkpt lat="45.60063" lon="6.25206">
        <ele>346.2</ele>
        <time>2026-05-12T20:07:56Z</time>
      </trkpt>
      <trkpt lat="45.60061" lon="6.25194">
        <ele>345.8</ele>
        <time>2026-05-12T20:07:57Z</time>
      </trkpt>
      <trkpt lat="45.60058" lon="6.25175">
        <ele>345.2</ele>
        <time>2026-05-12T20:07:59Z</time>
      </trkpt>
      <trkpt lat="45.60048" lon="6.25132">
        <ele>344</ele>
        <time>2026-05-12T20:08:03Z</time>
      </trkpt>
      <trkpt lat="45.60041" lon="6.25105">
        <ele>342.8</ele>
        <time>2026-05-12T20:08:06Z</time>
      </trkpt>
      <trkpt lat="45.60038" lon="6.25094">
        <ele>342.4</ele>
        <time>2026-05-12T20:08:07Z</time>
      </trkpt>
      <trkpt lat="45.60034" lon="6.25074">
        <ele>341.8</ele>
        <time>2026-05-12T20:08:09Z</time>
      </trkpt>
      <trkpt lat="45.60024" lon="6.25026">
        <ele>340.4</ele>
        <time>2026-05-12T20:08:13Z</time>
      </trkpt>
      <trkpt lat="45.60021" lon="6.25019">
        <ele>340.2</ele>
        <time>2026-05-12T20:08:15Z</time>
      </trkpt>
      <trkpt lat="45.59993" lon="6.24948">
        <ele>339.8</ele>
        <time>2026-05-12T20:08:22Z</time>
      </trkpt>
      <trkpt lat="45.59963" lon="6.2487">
        <ele>339.8</ele>
        <time>2026-05-12T20:08:31Z</time>
      </trkpt>
      <trkpt lat="45.59963" lon="6.2487">
        <ele>339.8</ele>
        <time>2026-05-12T20:08:32Z</time>
      </trkpt>
      <trkpt lat="45.59934" lon="6.24799">
        <ele>339.6</ele>
        <time>2026-05-12T20:08:39Z</time>
      </trkpt>
      <trkpt lat="45.59934" lon="6.24799">
        <ele>339.6</ele>
        <time>2026-05-12T20:08:40Z</time>
      </trkpt>
      <trkpt lat="45.5991" lon="6.24749">
        <ele>339.4</ele>
        <time>2026-05-12T20:08:46Z</time>
      </trkpt>
      <trkpt lat="45.59902" lon="6.24734">
        <ele>339.4</ele>
        <time>2026-05-12T20:08:47Z</time>
      </trkpt>
      <trkpt lat="45.59897" lon="6.24726">
        <ele>339.4</ele>
        <time>2026-05-12T20:08:49Z</time>
      </trkpt>
      <trkpt lat="45.5986" lon="6.24663">
        <ele>338.8</ele>
        <time>2026-05-12T20:08:56Z</time>
      </trkpt>
      <trkpt lat="45.59856" lon="6.24653">
        <ele>338.4</ele>
        <time>2026-05-12T20:08:58Z</time>
      </trkpt>
      <trkpt lat="45.5984" lon="6.24614">
        <ele>337.4</ele>
        <time>2026-05-12T20:09:02Z</time>
      </trkpt>
      <trkpt lat="45.59834" lon="6.24595">
        <ele>336.6</ele>
        <time>2026-05-12T20:09:04Z</time>
      </trkpt>
      <trkpt lat="45.59826" lon="6.24571">
        <ele>336.2</ele>
        <time>2026-05-12T20:09:06Z</time>
      </trkpt>
      <trkpt lat="45.59809" lon="6.24527">
        <ele>335.2</ele>
        <time>2026-05-12T20:09:09Z</time>
      </trkpt>
      <trkpt lat="45.59804" lon="6.24517">
        <ele>335</ele>
        <time>2026-05-12T20:09:10Z</time>
      </trkpt>
      <trkpt lat="45.59787" lon="6.24486">
        <ele>334</ele>
        <time>2026-05-12T20:09:13Z</time>
      </trkpt>
      <trkpt lat="45.59767" lon="6.24457">
        <ele>332.6</ele>
        <time>2026-05-12T20:09:16Z</time>
      </trkpt>
      <trkpt lat="45.59747" lon="6.2443">
        <ele>331.4</ele>
        <time>2026-05-12T20:09:19Z</time>
      </trkpt>
      <trkpt lat="45.59734" lon="6.24413">
        <ele>330.4</ele>
        <time>2026-05-12T20:09:21Z</time>
      </trkpt>
      <trkpt lat="45.59715" lon="6.24386">
        <ele>329.2</ele>
        <time>2026-05-12T20:09:24Z</time>
      </trkpt>
      <trkpt lat="45.59702" lon="6.24364">
        <ele>328.2</ele>
        <time>2026-05-12T20:09:27Z</time>
      </trkpt>
      <trkpt lat="45.59692" lon="6.24345">
        <ele>328</ele>
        <time>2026-05-12T20:09:29Z</time>
      </trkpt>
      <trkpt lat="45.59688" lon="6.24335">
        <ele>328</ele>
        <time>2026-05-12T20:09:30Z</time>
      </trkpt>
      <trkpt lat="45.59684" lon="6.24324">
        <ele>327.6</ele>
        <time>2026-05-12T20:09:32Z</time>
      </trkpt>
      <trkpt lat="45.59668" lon="6.24277">
        <ele>327</ele>
        <time>2026-05-12T20:09:36Z</time>
      </trkpt>
      <trkpt lat="45.59662" lon="6.24254">
        <ele>326.8</ele>
        <time>2026-05-12T20:09:37Z</time>
      </trkpt>
      <trkpt lat="45.59654" lon="6.24227">
        <ele>325.4</ele>
        <time>2026-05-12T20:09:39Z</time>
      </trkpt>
      <trkpt lat="45.59647" lon="6.24204">
        <ele>324.2</ele>
        <time>2026-05-12T20:09:41Z</time>
      </trkpt>
      <trkpt lat="45.59636" lon="6.24162">
        <ele>322.6</ele>
        <time>2026-05-12T20:09:44Z</time>
      </trkpt>
      <trkpt lat="45.59633" lon="6.2415">
        <ele>322.2</ele>
        <time>2026-05-12T20:09:45Z</time>
      </trkpt>
      <trkpt lat="45.59633" lon="6.2415">
        <ele>321.2</ele>
        <time>2026-05-12T20:09:46Z</time>
      </trkpt>
      <trkpt lat="45.59619" lon="6.24101">
        <ele>319.8</ele>
        <time>2026-05-12T20:09:49Z</time>
      </trkpt>
      <trkpt lat="45.59613" lon="6.24076">
        <ele>319</ele>
        <time>2026-05-12T20:09:51Z</time>
      </trkpt>
      <trkpt lat="45.59609" lon="6.24064">
        <ele>318.8</ele>
        <time>2026-05-12T20:09:52Z</time>
      </trkpt>
      <trkpt lat="45.59598" lon="6.24029">
        <ele>317.4</ele>
        <time>2026-05-12T20:09:55Z</time>
      </trkpt>
      <trkpt lat="45.59586" lon="6.23998">
        <ele>316.2</ele>
        <time>2026-05-12T20:09:58Z</time>
      </trkpt>
      <trkpt lat="45.59575" lon="6.23968">
        <ele>315.2</ele>
        <time>2026-05-12T20:10:02Z</time>
      </trkpt>
      <trkpt lat="45.59567" lon="6.2395">
        <ele>314.8</ele>
        <time>2026-05-12T20:10:03Z</time>
      </trkpt>
      <trkpt lat="45.59567" lon="6.2395">
        <ele>314.6</ele>
        <time>2026-05-12T20:10:04Z</time>
      </trkpt>
      <trkpt lat="45.59557" lon="6.23931">
        <ele>314</ele>
        <time>2026-05-12T20:10:05Z</time>
      </trkpt>
      <trkpt lat="45.59542" lon="6.23904">
        <ele>313</ele>
        <time>2026-05-12T20:10:08Z</time>
      </trkpt>
      <trkpt lat="45.59538" lon="6.23894">
        <ele>312.8</ele>
        <time>2026-05-12T20:10:09Z</time>
      </trkpt>
      <trkpt lat="45.59521" lon="6.23853">
        <ele>311.8</ele>
        <time>2026-05-12T20:10:13Z</time>
      </trkpt>
      <trkpt lat="45.59511" lon="6.23834">
        <ele>311</ele>
        <time>2026-05-12T20:10:16Z</time>
      </trkpt>
      <trkpt lat="45.59498" lon="6.23804">
        <ele>310.6</ele>
        <time>2026-05-12T20:10:18Z</time>
      </trkpt>
      <trkpt lat="45.59477" lon="6.23757">
        <ele>309.6</ele>
        <time>2026-05-12T20:10:23Z</time>
      </trkpt>
      <trkpt lat="45.59462" lon="6.23721">
        <ele>309.6</ele>
        <time>2026-05-12T20:10:28Z</time>
      </trkpt>
      <trkpt lat="45.59439" lon="6.23666">
        <ele>310</ele>
        <time>2026-05-12T20:10:34Z</time>
      </trkpt>
      <trkpt lat="45.5942" lon="6.2362">
        <ele>310.8</ele>
        <time>2026-05-12T20:10:41Z</time>
      </trkpt>
      <trkpt lat="45.59401" lon="6.23575">
        <ele>311.6</ele>
        <time>2026-05-12T20:10:46Z</time>
      </trkpt>
      <trkpt lat="45.59392" lon="6.23555">
        <ele>312</ele>
        <time>2026-05-12T20:10:50Z</time>
      </trkpt>
      <trkpt lat="45.59366" lon="6.23502">
        <ele>312.4</ele>
        <time>2026-05-12T20:10:57Z</time>
      </trkpt>
      <trkpt lat="45.59363" lon="6.23496">
        <ele>312.8</ele>
        <time>2026-05-12T20:10:58Z</time>
      </trkpt>
      <trkpt lat="45.59343" lon="6.23456">
        <ele>313.8</ele>
        <time>2026-05-12T20:11:04Z</time>
      </trkpt>
      <trkpt lat="45.59316" lon="6.23395">
        <ele>314.6</ele>
        <time>2026-05-12T20:11:13Z</time>
      </trkpt>
      <trkpt lat="45.59308" lon="6.23374">
        <ele>315</ele>
        <time>2026-05-12T20:11:16Z</time>
      </trkpt>
      <trkpt lat="45.59295" lon="6.23343">
        <ele>316</ele>
        <time>2026-05-12T20:11:21Z</time>
      </trkpt>
      <trkpt lat="45.59293" lon="6.23337">
        <ele>316.2</ele>
        <time>2026-05-12T20:11:22Z</time>
      </trkpt>
      <trkpt lat="45.59277" lon="6.23298">
        <ele>317</ele>
        <time>2026-05-12T20:11:28Z</time>
      </trkpt>
      <trkpt lat="45.59274" lon="6.2329">
        <ele>317.2</ele>
        <time>2026-05-12T20:11:29Z</time>
      </trkpt>
      <trkpt lat="45.59253" lon="6.23242">
        <ele>317.2</ele>
        <time>2026-05-12T20:11:35Z</time>
      </trkpt>
      <trkpt lat="45.59242" lon="6.23218">
        <ele>316.2</ele>
        <time>2026-05-12T20:11:39Z</time>
      </trkpt>
      <trkpt lat="45.59226" lon="6.2318">
        <ele>315.6</ele>
        <time>2026-05-12T20:11:44Z</time>
      </trkpt>
      <trkpt lat="45.59197" lon="6.23108">
        <ele>315.6</ele>
        <time>2026-05-12T20:11:52Z</time>
      </trkpt>
      <trkpt lat="45.59169" lon="6.2304">
        <ele>315.4</ele>
        <time>2026-05-12T20:12:00Z</time>
      </trkpt>
      <trkpt lat="45.59165" lon="6.23031">
        <ele>315.2</ele>
        <time>2026-05-12T20:12:01Z</time>
      </trkpt>
      <trkpt lat="45.59162" lon="6.23021">
        <ele>315</ele>
        <time>2026-05-12T20:12:02Z</time>
      </trkpt>
      <trkpt lat="45.5914" lon="6.22966">
        <ele>313.6</ele>
        <time>2026-05-12T20:12:08Z</time>
      </trkpt>
      <trkpt lat="45.59131" lon="6.22945">
        <ele>313.2</ele>
        <time>2026-05-12T20:12:10Z</time>
      </trkpt>
      <trkpt lat="45.59127" lon="6.22935">
        <ele>312.6</ele>
        <time>2026-05-12T20:12:12Z</time>
      </trkpt>
      <trkpt lat="45.59108" lon="6.22896">
        <ele>311.4</ele>
        <time>2026-05-12T20:12:15Z</time>
      </trkpt>
      <trkpt lat="45.59093" lon="6.22868">
        <ele>310.2</ele>
        <time>2026-05-12T20:12:19Z</time>
      </trkpt>
      <trkpt lat="45.59068" lon="6.22816">
        <ele>309</ele>
        <time>2026-05-12T20:12:23Z</time>
      </trkpt>
      <trkpt lat="45.59059" lon="6.22793">
        <ele>308.2</ele>
        <time>2026-05-12T20:12:25Z</time>
      </trkpt>
      <trkpt lat="45.59055" lon="6.22782">
        <ele>307.4</ele>
        <time>2026-05-12T20:12:26Z</time>
      </trkpt>
      <trkpt lat="45.59042" lon="6.2275">
        <ele>306</ele>
        <time>2026-05-12T20:12:29Z</time>
      </trkpt>
      <trkpt lat="45.5903" lon="6.22721">
        <ele>305</ele>
        <time>2026-05-12T20:12:33Z</time>
      </trkpt>
      <trkpt lat="45.59007" lon="6.2267">
        <ele>304</ele>
        <time>2026-05-12T20:12:37Z</time>
      </trkpt>
      <trkpt lat="45.58984" lon="6.2263">
        <ele>302.4</ele>
        <time>2026-05-12T20:12:41Z</time>
      </trkpt>
      <trkpt lat="45.58974" lon="6.22611">
        <ele>302</ele>
        <time>2026-05-12T20:12:43Z</time>
      </trkpt>
      <trkpt lat="45.58969" lon="6.22601">
        <ele>301.4</ele>
        <time>2026-05-12T20:12:45Z</time>
      </trkpt>
      <trkpt lat="45.58951" lon="6.2255">
        <ele>300.6</ele>
        <time>2026-05-12T20:12:49Z</time>
      </trkpt>
      <trkpt lat="45.58944" lon="6.22521">
        <ele>300.4</ele>
        <time>2026-05-12T20:12:52Z</time>
      </trkpt>
      <trkpt lat="45.58931" lon="6.22465">
        <ele>299.8</ele>
        <time>2026-05-12T20:12:57Z</time>
      </trkpt>
      <trkpt lat="45.58927" lon="6.22441">
        <ele>299.2</ele>
        <time>2026-05-12T20:12:59Z</time>
      </trkpt>
      <trkpt lat="45.5892" lon="6.22402">
        <ele>298</ele>
        <time>2026-05-12T20:13:03Z</time>
      </trkpt>
      <trkpt lat="45.58912" lon="6.22364">
        <ele>297</ele>
        <time>2026-05-12T20:13:08Z</time>
      </trkpt>
      <trkpt lat="45.58906" lon="6.22336">
        <ele>296.6</ele>
        <time>2026-05-12T20:13:10Z</time>
      </trkpt>
      <trkpt lat="45.58899" lon="6.22324">
        <ele>296.2</ele>
        <time>2026-05-12T20:13:12Z</time>
      </trkpt>
      <trkpt lat="45.58899" lon="6.22324">
        <ele>295.8</ele>
        <time>2026-05-12T20:13:13Z</time>
      </trkpt>
      <trkpt lat="45.58889" lon="6.22316">
        <ele>295.6</ele>
        <time>2026-05-12T20:13:14Z</time>
      </trkpt>
      <trkpt lat="45.58876" lon="6.2231">
        <ele>295.2</ele>
        <time>2026-05-12T20:13:16Z</time>
      </trkpt>
      <trkpt lat="45.5887" lon="6.22307">
        <ele>294.8</ele>
        <time>2026-05-12T20:13:18Z</time>
      </trkpt>
      <trkpt lat="45.58837" lon="6.2229">
        <ele>293.4</ele>
        <time>2026-05-12T20:13:22Z</time>
      </trkpt>
      <trkpt lat="45.58823" lon="6.2228">
        <ele>293</ele>
        <time>2026-05-12T20:13:24Z</time>
      </trkpt>
      <trkpt lat="45.58815" lon="6.22269">
        <ele>292.2</ele>
        <time>2026-05-12T20:13:26Z</time>
      </trkpt>
      <trkpt lat="45.588" lon="6.22239">
        <ele>291.2</ele>
        <time>2026-05-12T20:13:30Z</time>
      </trkpt>
      <trkpt lat="45.58797" lon="6.22233">
        <ele>291</ele>
        <time>2026-05-12T20:13:31Z</time>
      </trkpt>
      <trkpt lat="45.58784" lon="6.22227">
        <ele>290.4</ele>
        <time>2026-05-12T20:13:34Z</time>
      </trkpt>
      <trkpt lat="45.58776" lon="6.22233">
        <ele>290.2</ele>
        <time>2026-05-12T20:13:36Z</time>
      </trkpt>
      <trkpt lat="45.58771" lon="6.22234">
        <ele>290.2</ele>
        <time>2026-05-12T20:13:37Z</time>
      </trkpt>
      <trkpt lat="45.58771" lon="6.22234">
        <ele>290</ele>
        <time>2026-05-12T20:13:38Z</time>
      </trkpt>
      <trkpt lat="45.58761" lon="6.22227">
        <ele>290</ele>
        <time>2026-05-12T20:13:39Z</time>
      </trkpt>
      <trkpt lat="45.58758" lon="6.22222">
        <ele>289.8</ele>
        <time>2026-05-12T20:13:40Z</time>
      </trkpt>
      <trkpt lat="45.58729" lon="6.22178">
        <ele>289.8</ele>
        <time>2026-05-12T20:13:47Z</time>
      </trkpt>
      <trkpt lat="45.58729" lon="6.22178">
        <ele>289.8</ele>
        <time>2026-05-12T20:13:48Z</time>
      </trkpt>
      <trkpt lat="45.58718" lon="6.2217">
        <ele>289.8</ele>
        <time>2026-05-12T20:13:49Z</time>
      </trkpt>
      <trkpt lat="45.58702" lon="6.2216">
        <ele>290</ele>
        <time>2026-05-12T20:13:52Z</time>
      </trkpt>
      <trkpt lat="45.58662" lon="6.22137">
        <ele>290</ele>
        <time>2026-05-12T20:13:59Z</time>
      </trkpt>
      <trkpt lat="45.5865" lon="6.22133">
        <ele>290</ele>
        <time>2026-05-12T20:14:01Z</time>
      </trkpt>
      <trkpt lat="45.58639" lon="6.22135">
        <ele>290</ele>
        <time>2026-05-12T20:14:03Z</time>
      </trkpt>
      <trkpt lat="45.5863" lon="6.22148">
        <ele>290</ele>
        <time>2026-05-12T20:14:05Z</time>
      </trkpt>
      <trkpt lat="45.58627" lon="6.22153">
        <ele>290</ele>
        <time>2026-05-12T20:14:06Z</time>
      </trkpt>
      <trkpt lat="45.58623" lon="6.22159">
        <ele>289.8</ele>
        <time>2026-05-12T20:14:07Z</time>
      </trkpt>
      <trkpt lat="45.58613" lon="6.22162">
        <ele>289.6</ele>
        <time>2026-05-12T20:14:09Z</time>
      </trkpt>
      <trkpt lat="45.58592" lon="6.22151">
        <ele>289.6</ele>
        <time>2026-05-12T20:14:13Z</time>
      </trkpt>
      <trkpt lat="45.5858" lon="6.22141">
        <ele>289.4</ele>
        <time>2026-05-12T20:14:15Z</time>
      </trkpt>
      <trkpt lat="45.58563" lon="6.22125">
        <ele>289.4</ele>
        <time>2026-05-12T20:14:19Z</time>
      </trkpt>
      <trkpt lat="45.5855" lon="6.22113">
        <ele>289.6</ele>
        <time>2026-05-12T20:14:22Z</time>
      </trkpt>
      <trkpt lat="45.58535" lon="6.22092">
        <ele>289.6</ele>
        <time>2026-05-12T20:14:25Z</time>
      </trkpt>
      <trkpt lat="45.585" lon="6.22049">
        <ele>289.6</ele>
        <time>2026-05-12T20:14:32Z</time>
      </trkpt>
      <trkpt lat="45.58476" lon="6.22032">
        <ele>289.2</ele>
        <time>2026-05-12T20:14:36Z</time>
      </trkpt>
      <trkpt lat="45.58465" lon="6.2202">
        <ele>289.2</ele>
        <time>2026-05-12T20:14:38Z</time>
      </trkpt>
      <trkpt lat="45.58454" lon="6.22006">
        <ele>289.2</ele>
        <time>2026-05-12T20:14:40Z</time>
      </trkpt>
      <trkpt lat="45.58441" lon="6.21986">
        <ele>289.2</ele>
        <time>2026-05-12T20:14:43Z</time>
      </trkpt>
      <trkpt lat="45.58416" lon="6.21955">
        <ele>289</ele>
        <time>2026-05-12T20:14:48Z</time>
      </trkpt>
      <trkpt lat="45.58405" lon="6.21943">
        <ele>289</ele>
        <time>2026-05-12T20:14:50Z</time>
      </trkpt>
      <trkpt lat="45.58396" lon="6.21928">
        <ele>289</ele>
        <time>2026-05-12T20:14:52Z</time>
      </trkpt>
      <trkpt lat="45.58392" lon="6.21921">
        <ele>289</ele>
        <time>2026-05-12T20:14:53Z</time>
      </trkpt>
      <trkpt lat="45.58364" lon="6.21875">
        <ele>289</ele>
        <time>2026-05-12T20:14:59Z</time>
      </trkpt>
      <trkpt lat="45.58359" lon="6.21869">
        <ele>289</ele>
        <time>2026-05-12T20:15:00Z</time>
      </trkpt>
      <trkpt lat="45.58354" lon="6.21862">
        <ele>289</ele>
        <time>2026-05-12T20:15:01Z</time>
      </trkpt>
      <trkpt lat="45.58319" lon="6.21801">
        <ele>288.6</ele>
        <time>2026-05-12T20:15:09Z</time>
      </trkpt>
      <trkpt lat="45.5829" lon="6.21735">
        <ele>288.4</ele>
        <time>2026-05-12T20:15:17Z</time>
      </trkpt>
      <trkpt lat="45.5826" lon="6.2166">
        <ele>288.6</ele>
        <time>2026-05-12T20:15:26Z</time>
      </trkpt>
      <trkpt lat="45.58258" lon="6.21651">
        <ele>288.6</ele>
        <time>2026-05-12T20:15:27Z</time>
      </trkpt>
      <trkpt lat="45.58253" lon="6.21634">
        <ele>288.6</ele>
        <time>2026-05-12T20:15:29Z</time>
      </trkpt>
      <trkpt lat="45.58252" lon="6.21616">
        <ele>288.6</ele>
        <time>2026-05-12T20:15:31Z</time>
      </trkpt>
      <trkpt lat="45.58255" lon="6.21598">
        <ele>288.6</ele>
        <time>2026-05-12T20:15:33Z</time>
      </trkpt>
      <trkpt lat="45.58258" lon="6.2159">
        <ele>288.6</ele>
        <time>2026-05-12T20:15:34Z</time>
      </trkpt>
      <trkpt lat="45.58269" lon="6.21556">
        <ele>288.8</ele>
        <time>2026-05-12T20:15:38Z</time>
      </trkpt>
      <trkpt lat="45.58273" lon="6.21536">
        <ele>288.8</ele>
        <time>2026-05-12T20:15:40Z</time>
      </trkpt>
      <trkpt lat="45.58274" lon="6.21528">
        <ele>288.8</ele>
        <time>2026-05-12T20:15:41Z</time>
      </trkpt>
      <trkpt lat="45.58276" lon="6.21453">
        <ele>288.8</ele>
        <time>2026-05-12T20:15:49Z</time>
      </trkpt>
      <trkpt lat="45.58274" lon="6.21371">
        <ele>288.4</ele>
        <time>2026-05-12T20:15:58Z</time>
      </trkpt>
      <trkpt lat="45.58274" lon="6.21343">
        <ele>288.4</ele>
        <time>2026-05-12T20:16:01Z</time>
      </trkpt>
      <trkpt lat="45.58276" lon="6.21284">
        <ele>288.4</ele>
        <time>2026-05-12T20:16:08Z</time>
      </trkpt>
      <trkpt lat="45.58276" lon="6.21277">
        <ele>288.4</ele>
        <time>2026-05-12T20:16:09Z</time>
      </trkpt>
      <trkpt lat="45.58275" lon="6.21267">
        <ele>288.4</ele>
        <time>2026-05-12T20:16:12Z</time>
      </trkpt>
      <trkpt lat="45.58271" lon="6.21262">
        <ele>288.4</ele>
        <time>2026-05-12T20:16:13Z</time>
      </trkpt>
      <trkpt lat="45.58268" lon="6.21263">
        <ele>288.6</ele>
        <time>2026-05-12T20:16:14Z</time>
      </trkpt>
      <trkpt lat="45.5826" lon="6.21267">
        <ele>288.6</ele>
        <time>2026-05-12T20:16:16Z</time>
      </trkpt>
      <trkpt lat="45.58246" lon="6.21275">
        <ele>288.6</ele>
        <time>2026-05-12T20:16:19Z</time>
      </trkpt>
      <trkpt lat="45.58214" lon="6.21299">
        <ele>288.6</ele>
        <time>2026-05-12T20:16:25Z</time>
      </trkpt>
      <trkpt lat="45.58174" lon="6.21329">
        <ele>288.4</ele>
        <time>2026-05-12T20:16:33Z</time>
      </trkpt>
      <trkpt lat="45.58171" lon="6.21331">
        <ele>288.6</ele>
        <time>2026-05-12T20:16:34Z</time>
      </trkpt>
      <trkpt lat="45.58168" lon="6.2133">
        <ele>288.6</ele>
        <time>2026-05-12T20:16:35Z</time>
      </trkpt>
      <trkpt lat="45.5816" lon="6.21322">
        <ele>288.4</ele>
        <time>2026-05-12T20:16:37Z</time>
      </trkpt>
      <trkpt lat="45.58144" lon="6.21294">
        <ele>288.2</ele>
        <time>2026-05-12T20:16:41Z</time>
      </trkpt>
      <trkpt lat="45.58136" lon="6.21279">
        <ele>287.8</ele>
        <time>2026-05-12T20:16:43Z</time>
      </trkpt>
      <trkpt lat="45.58113" lon="6.21234">
        <ele>287.2</ele>
        <time>2026-05-12T20:16:49Z</time>
      </trkpt>
      <trkpt lat="45.58102" lon="6.21211">
        <ele>287.2</ele>
        <time>2026-05-12T20:16:52Z</time>
      </trkpt>
      <trkpt lat="45.58098" lon="6.21193">
        <ele>287.2</ele>
        <time>2026-05-12T20:16:54Z</time>
      </trkpt>
      <trkpt lat="45.58097" lon="6.21184">
        <ele>287.2</ele>
        <time>2026-05-12T20:16:55Z</time>
      </trkpt>
      <trkpt lat="45.58097" lon="6.21166">
        <ele>287</ele>
        <time>2026-05-12T20:16:57Z</time>
      </trkpt>
      <trkpt lat="45.58097" lon="6.21141">
        <ele>287.2</ele>
        <time>2026-05-12T20:17:00Z</time>
      </trkpt>
      <trkpt lat="45.58097" lon="6.21124">
        <ele>287</ele>
        <time>2026-05-12T20:17:02Z</time>
      </trkpt>
      <trkpt lat="45.58098" lon="6.2109">
        <ele>287</ele>
        <time>2026-05-12T20:17:06Z</time>
      </trkpt>
      <trkpt lat="45.58099" lon="6.21047">
        <ele>287.2</ele>
        <time>2026-05-12T20:17:11Z</time>
      </trkpt>
      <trkpt lat="45.58097" lon="6.21008">
        <ele>287</ele>
        <time>2026-05-12T20:17:15Z</time>
      </trkpt>
      <trkpt lat="45.58098" lon="6.20989">
        <ele>287</ele>
        <time>2026-05-12T20:17:17Z</time>
      </trkpt>
      <trkpt lat="45.58098" lon="6.20924">
        <ele>287.2</ele>
        <time>2026-05-12T20:17:24Z</time>
      </trkpt>
      <trkpt lat="45.58094" lon="6.20838">
        <ele>287.6</ele>
        <time>2026-05-12T20:17:33Z</time>
      </trkpt>
      <trkpt lat="45.58088" lon="6.20771">
        <ele>287.6</ele>
        <time>2026-05-12T20:17:40Z</time>
      </trkpt>
      <trkpt lat="45.58076" lon="6.20686">
        <ele>287.6</ele>
        <time>2026-05-12T20:17:49Z</time>
      </trkpt>
      <trkpt lat="45.58066" lon="6.2062">
        <ele>287.6</ele>
        <time>2026-05-12T20:17:56Z</time>
      </trkpt>
      <trkpt lat="45.58064" lon="6.20611">
        <ele>287.6</ele>
        <time>2026-05-12T20:17:57Z</time>
      </trkpt>
      <trkpt lat="45.5806" lon="6.20603">
        <ele>287.6</ele>
        <time>2026-05-12T20:17:58Z</time>
      </trkpt>
      <trkpt lat="45.58047" lon="6.20581">
        <ele>287.6</ele>
        <time>2026-05-12T20:18:01Z</time>
      </trkpt>
      <trkpt lat="45.58003" lon="6.20523">
        <ele>287.2</ele>
        <time>2026-05-12T20:18:10Z</time>
      </trkpt>
      <trkpt lat="45.57991" lon="6.20515">
        <ele>287.2</ele>
        <time>2026-05-12T20:18:12Z</time>
      </trkpt>
      <trkpt lat="45.57985" lon="6.20515">
        <ele>287.2</ele>
        <time>2026-05-12T20:18:13Z</time>
      </trkpt>
      <trkpt lat="45.57979" lon="6.20517">
        <ele>287.2</ele>
        <time>2026-05-12T20:18:14Z</time>
      </trkpt>
      <trkpt lat="45.57967" lon="6.20526">
        <ele>287.2</ele>
        <time>2026-05-12T20:18:16Z</time>
      </trkpt>
      <trkpt lat="45.57952" lon="6.20542">
        <ele>286.8</ele>
        <time>2026-05-12T20:18:19Z</time>
      </trkpt>
      <trkpt lat="45.57941" lon="6.20546">
        <ele>286.8</ele>
        <time>2026-05-12T20:18:21Z</time>
      </trkpt>
      <trkpt lat="45.57936" lon="6.20544">
        <ele>286.6</ele>
        <time>2026-05-12T20:18:22Z</time>
      </trkpt>
      <trkpt lat="45.57932" lon="6.20541">
        <ele>286.4</ele>
        <time>2026-05-12T20:18:23Z</time>
      </trkpt>
      <trkpt lat="45.57929" lon="6.20536">
        <ele>286.4</ele>
        <time>2026-05-12T20:18:24Z</time>
      </trkpt>
      <trkpt lat="45.57909" lon="6.20499">
        <ele>286.4</ele>
        <time>2026-05-12T20:18:30Z</time>
      </trkpt>
      <trkpt lat="45.57876" lon="6.20431">
        <ele>286.2</ele>
        <time>2026-05-12T20:18:39Z</time>
      </trkpt>
      <trkpt lat="45.57851" lon="6.20379">
        <ele>286.2</ele>
        <time>2026-05-12T20:18:46Z</time>
      </trkpt>
      <trkpt lat="45.57843" lon="6.20364">
        <ele>286.2</ele>
        <time>2026-05-12T20:18:48Z</time>
      </trkpt>
      <trkpt lat="45.5784" lon="6.20356">
        <ele>286.2</ele>
        <time>2026-05-12T20:18:49Z</time>
      </trkpt>
      <trkpt lat="45.57825" lon="6.20327">
        <ele>286.4</ele>
        <time>2026-05-12T20:18:53Z</time>
      </trkpt>
      <trkpt lat="45.57793" lon="6.20265">
        <ele>286.2</ele>
        <time>2026-05-12T20:19:01Z</time>
      </trkpt>
      <trkpt lat="45.57762" lon="6.20213">
        <ele>285.8</ele>
        <time>2026-05-12T20:19:08Z</time>
      </trkpt>
      <trkpt lat="45.57719" lon="6.20154">
        <ele>285.8</ele>
        <time>2026-05-12T20:19:17Z</time>
      </trkpt>
      <trkpt lat="45.57709" lon="6.20141">
        <ele>285.8</ele>
        <time>2026-05-12T20:19:19Z</time>
      </trkpt>
      <trkpt lat="45.5769" lon="6.20116">
        <ele>286</ele>
        <time>2026-05-12T20:19:23Z</time>
      </trkpt>
      <trkpt lat="45.57677" lon="6.20098">
        <ele>286</ele>
        <time>2026-05-12T20:19:26Z</time>
      </trkpt>
      <trkpt lat="45.57673" lon="6.20087">
        <ele>286</ele>
        <time>2026-05-12T20:19:28Z</time>
      </trkpt>
      <trkpt lat="45.57677" lon="6.20071">
        <ele>286.2</ele>
        <time>2026-05-12T20:19:31Z</time>
      </trkpt>
      <trkpt lat="45.5768" lon="6.2006">
        <ele>286.2</ele>
        <time>2026-05-12T20:19:33Z</time>
      </trkpt>
      <trkpt lat="45.57679" lon="6.20054">
        <ele>286.4</ele>
        <time>2026-05-12T20:19:34Z</time>
      </trkpt>
      <trkpt lat="45.57676" lon="6.20049">
        <ele>286.6</ele>
        <time>2026-05-12T20:19:35Z</time>
      </trkpt>
      <trkpt lat="45.57667" lon="6.20043">
        <ele>286.8</ele>
        <time>2026-05-12T20:19:37Z</time>
      </trkpt>
      <trkpt lat="45.57661" lon="6.20039">
        <ele>286.8</ele>
        <time>2026-05-12T20:19:38Z</time>
      </trkpt>
      <trkpt lat="45.5765" lon="6.20029">
        <ele>286.8</ele>
        <time>2026-05-12T20:19:40Z</time>
      </trkpt>
      <trkpt lat="45.57639" lon="6.20008">
        <ele>286.4</ele>
        <time>2026-05-12T20:19:43Z</time>
      </trkpt>
      <trkpt lat="45.57636" lon="6.20001">
        <ele>286.2</ele>
        <time>2026-05-12T20:19:44Z</time>
      </trkpt>
      <trkpt lat="45.5762" lon="6.19961">
        <ele>285.8</ele>
        <time>2026-05-12T20:19:49Z</time>
      </trkpt>
      <trkpt lat="45.57616" lon="6.19953">
        <ele>285.8</ele>
        <time>2026-05-12T20:19:50Z</time>
      </trkpt>
      <trkpt lat="45.57613" lon="6.19946">
        <ele>285.8</ele>
        <time>2026-05-12T20:19:51Z</time>
      </trkpt>
      <trkpt lat="45.57608" lon="6.1993">
        <ele>285.8</ele>
        <time>2026-05-12T20:19:53Z</time>
      </trkpt>
      <trkpt lat="45.57607" lon="6.19921">
        <ele>285.8</ele>
        <time>2026-05-12T20:19:54Z</time>
      </trkpt>
      <trkpt lat="45.57608" lon="6.19912">
        <ele>285.8</ele>
        <time>2026-05-12T20:19:55Z</time>
      </trkpt>
      <trkpt lat="45.57608" lon="6.19894">
        <ele>285.8</ele>
        <time>2026-05-12T20:19:57Z</time>
      </trkpt>
      <trkpt lat="45.57604" lon="6.19879">
        <ele>285.8</ele>
        <time>2026-05-12T20:19:59Z</time>
      </trkpt>
      <trkpt lat="45.576" lon="6.19872">
        <ele>285.8</ele>
        <time>2026-05-12T20:20:00Z</time>
      </trkpt>
      <trkpt lat="45.57574" lon="6.19831">
        <ele>286</ele>
        <time>2026-05-12T20:20:06Z</time>
      </trkpt>
      <trkpt lat="45.57537" lon="6.1977">
        <ele>286.6</ele>
        <time>2026-05-12T20:20:15Z</time>
      </trkpt>
      <trkpt lat="45.57509" lon="6.19719">
        <ele>286.6</ele>
        <time>2026-05-12T20:20:23Z</time>
      </trkpt>
      <trkpt lat="45.57486" lon="6.19665">
        <ele>286.6</ele>
        <time>2026-05-12T20:20:29Z</time>
      </trkpt>
      <trkpt lat="45.57463" lon="6.19595">
        <ele>286.4</ele>
        <time>2026-05-12T20:20:37Z</time>
      </trkpt>
      <trkpt lat="45.57463" lon="6.19595">
        <ele>286.4</ele>
        <time>2026-05-12T20:20:38Z</time>
      </trkpt>
      <trkpt lat="45.5746" lon="6.19577">
        <ele>286.4</ele>
        <time>2026-05-12T20:20:39Z</time>
      </trkpt>
      <trkpt lat="45.57459" lon="6.19557">
        <ele>286.4</ele>
        <time>2026-05-12T20:20:41Z</time>
      </trkpt>
      <trkpt lat="45.57457" lon="6.19488">
        <ele>286.2</ele>
        <time>2026-05-12T20:20:48Z</time>
      </trkpt>
      <trkpt lat="45.57453" lon="6.19473">
        <ele>286.2</ele>
        <time>2026-05-12T20:20:50Z</time>
      </trkpt>
      <trkpt lat="45.57448" lon="6.19458">
        <ele>286.2</ele>
        <time>2026-05-12T20:20:52Z</time>
      </trkpt>
      <trkpt lat="45.57435" lon="6.19403">
        <ele>286.4</ele>
        <time>2026-05-12T20:20:58Z</time>
      </trkpt>
      <trkpt lat="45.57422" lon="6.19361">
        <ele>286.6</ele>
        <time>2026-05-12T20:21:03Z</time>
      </trkpt>
      <trkpt lat="45.57418" lon="6.19353">
        <ele>286.6</ele>
        <time>2026-05-12T20:21:04Z</time>
      </trkpt>
      <trkpt lat="45.57391" lon="6.1931">
        <ele>286.6</ele>
        <time>2026-05-12T20:21:10Z</time>
      </trkpt>
      <trkpt lat="45.57364" lon="6.19253">
        <ele>286.2</ele>
        <time>2026-05-12T20:21:17Z</time>
      </trkpt>
      <trkpt lat="45.57337" lon="6.19185">
        <ele>285.8</ele>
        <time>2026-05-12T20:21:25Z</time>
      </trkpt>
      <trkpt lat="45.57334" lon="6.19176">
        <ele>285.8</ele>
        <time>2026-05-12T20:21:26Z</time>
      </trkpt>
      <trkpt lat="45.5732" lon="6.19132">
        <ele>285.4</ele>
        <time>2026-05-12T20:21:31Z</time>
      </trkpt>
      <trkpt lat="45.57307" lon="6.19099">
        <ele>285</ele>
        <time>2026-05-12T20:21:35Z</time>
      </trkpt>
      <trkpt lat="45.57277" lon="6.19027">
        <ele>284.8</ele>
        <time>2026-05-12T20:21:44Z</time>
      </trkpt>
      <trkpt lat="45.57274" lon="6.1902">
        <ele>284.8</ele>
        <time>2026-05-12T20:21:45Z</time>
      </trkpt>
      <trkpt lat="45.57268" lon="6.19002">
        <ele>284.8</ele>
        <time>2026-05-12T20:21:48Z</time>
      </trkpt>
      <trkpt lat="45.57269" lon="6.18997">
        <ele>284.8</ele>
        <time>2026-05-12T20:21:49Z</time>
      </trkpt>
      <trkpt lat="45.57273" lon="6.1899">
        <ele>284.8</ele>
        <time>2026-05-12T20:21:51Z</time>
      </trkpt>
      <trkpt lat="45.57279" lon="6.18983">
        <ele>284.8</ele>
        <time>2026-05-12T20:21:53Z</time>
      </trkpt>
      <trkpt lat="45.57282" lon="6.18972">
        <ele>284.8</ele>
        <time>2026-05-12T20:21:55Z</time>
      </trkpt>
      <trkpt lat="45.57282" lon="6.18966">
        <ele>284.8</ele>
        <time>2026-05-12T20:21:56Z</time>
      </trkpt>
      <trkpt lat="45.57273" lon="6.18942">
        <ele>285.2</ele>
        <time>2026-05-12T20:22:00Z</time>
      </trkpt>
      <trkpt lat="45.57265" lon="6.18921">
        <ele>285.6</ele>
        <time>2026-05-12T20:22:03Z</time>
      </trkpt>
      <trkpt lat="45.57257" lon="6.18897">
        <ele>285.6</ele>
        <time>2026-05-12T20:22:06Z</time>
      </trkpt>
      <trkpt lat="45.57237" lon="6.18839">
        <ele>285.6</ele>
        <time>2026-05-12T20:22:13Z</time>
      </trkpt>
      <trkpt lat="45.57209" lon="6.18775">
        <ele>285.8</ele>
        <time>2026-05-12T20:22:21Z</time>
      </trkpt>
      <trkpt lat="45.57179" lon="6.1871">
        <ele>285.4</ele>
        <time>2026-05-12T20:22:29Z</time>
      </trkpt>
      <trkpt lat="45.57172" lon="6.18694">
        <ele>285.2</ele>
        <time>2026-05-12T20:22:31Z</time>
      </trkpt>
      <trkpt lat="45.57144" lon="6.18627">
        <ele>285.2</ele>
        <time>2026-05-12T20:22:39Z</time>
      </trkpt>
      <trkpt lat="45.5714" lon="6.18619">
        <ele>285.2</ele>
        <time>2026-05-12T20:22:40Z</time>
      </trkpt>
      <trkpt lat="45.57112" lon="6.18553">
        <ele>285</ele>
        <time>2026-05-12T20:22:48Z</time>
      </trkpt>
      <trkpt lat="45.57097" lon="6.18519">
        <ele>285</ele>
        <time>2026-05-12T20:22:52Z</time>
      </trkpt>
      <trkpt lat="45.57069" lon="6.18454">
        <ele>285</ele>
        <time>2026-05-12T20:23:00Z</time>
      </trkpt>
      <trkpt lat="45.57054" lon="6.1842">
        <ele>284.8</ele>
        <time>2026-05-12T20:23:05Z</time>
      </trkpt>
      <trkpt lat="45.57022" lon="6.18347">
        <ele>284.4</ele>
        <time>2026-05-12T20:23:13Z</time>
      </trkpt>
      <trkpt lat="45.57018" lon="6.18339">
        <ele>284.4</ele>
        <time>2026-05-12T20:23:14Z</time>
      </trkpt>
      <trkpt lat="45.57001" lon="6.18297">
        <ele>284.4</ele>
        <time>2026-05-12T20:23:19Z</time>
      </trkpt>
      <trkpt lat="45.56977" lon="6.18239">
        <ele>284.4</ele>
        <time>2026-05-12T20:23:26Z</time>
      </trkpt>
      <trkpt lat="45.56947" lon="6.18172">
        <ele>284.4</ele>
        <time>2026-05-12T20:23:34Z</time>
      </trkpt>
      <trkpt lat="45.56944" lon="6.18164">
        <ele>284.2</ele>
        <time>2026-05-12T20:23:35Z</time>
      </trkpt>
      <trkpt lat="45.56915" lon="6.18098">
        <ele>284.2</ele>
        <time>2026-05-12T20:23:43Z</time>
      </trkpt>
      <trkpt lat="45.56912" lon="6.1809">
        <ele>284</ele>
        <time>2026-05-12T20:23:44Z</time>
      </trkpt>
      <trkpt lat="45.56881" lon="6.18016">
        <ele>284</ele>
        <time>2026-05-12T20:23:53Z</time>
      </trkpt>
      <trkpt lat="45.56867" lon="6.17984">
        <ele>284</ele>
        <time>2026-05-12T20:23:57Z</time>
      </trkpt>
      <trkpt lat="45.56859" lon="6.17968">
        <ele>284</ele>
        <time>2026-05-12T20:23:59Z</time>
      </trkpt>
      <trkpt lat="45.56849" lon="6.17956">
        <ele>284</ele>
        <time>2026-05-12T20:24:01Z</time>
      </trkpt>
      <trkpt lat="45.56837" lon="6.17947">
        <ele>284</ele>
        <time>2026-05-12T20:24:03Z</time>
      </trkpt>
      <trkpt lat="45.56824" lon="6.17943">
        <ele>284</ele>
        <time>2026-05-12T20:24:05Z</time>
      </trkpt>
      <trkpt lat="45.56803" lon="6.17943">
        <ele>284</ele>
        <time>2026-05-12T20:24:08Z</time>
      </trkpt>
      <trkpt lat="45.5679" lon="6.17947">
        <ele>284</ele>
        <time>2026-05-12T20:24:10Z</time>
      </trkpt>
      <trkpt lat="45.56737" lon="6.17967">
        <ele>283.6</ele>
        <time>2026-05-12T20:24:18Z</time>
      </trkpt>
      <trkpt lat="45.5673" lon="6.1797">
        <ele>283.6</ele>
        <time>2026-05-12T20:24:19Z</time>
      </trkpt>
      <trkpt lat="45.56685" lon="6.17988">
        <ele>283.4</ele>
        <time>2026-05-12T20:24:26Z</time>
      </trkpt>
      <trkpt lat="45.56679" lon="6.17991">
        <ele>283.4</ele>
        <time>2026-05-12T20:24:27Z</time>
      </trkpt>
      <trkpt lat="45.56673" lon="6.17996">
        <ele>283.4</ele>
        <time>2026-05-12T20:24:28Z</time>
      </trkpt>
      <trkpt lat="45.56668" lon="6.18002">
        <ele>283.4</ele>
        <time>2026-05-12T20:24:29Z</time>
      </trkpt>
      <trkpt lat="45.56658" lon="6.18012">
        <ele>283.4</ele>
        <time>2026-05-12T20:24:31Z</time>
      </trkpt>
      <trkpt lat="45.56652" lon="6.18014">
        <ele>283.4</ele>
        <time>2026-05-12T20:24:32Z</time>
      </trkpt>
      <trkpt lat="45.56646" lon="6.18014">
        <ele>283.2</ele>
        <time>2026-05-12T20:24:33Z</time>
      </trkpt>
      <trkpt lat="45.56634" lon="6.18009">
        <ele>283.4</ele>
        <time>2026-05-12T20:24:35Z</time>
      </trkpt>
      <trkpt lat="45.56597" lon="6.17991">
        <ele>283.4</ele>
        <time>2026-05-12T20:24:41Z</time>
      </trkpt>
      <trkpt lat="45.5654" lon="6.17968">
        <ele>283.4</ele>
        <time>2026-05-12T20:24:50Z</time>
      </trkpt>
      <trkpt lat="45.56515" lon="6.17958">
        <ele>283.2</ele>
        <time>2026-05-12T20:24:54Z</time>
      </trkpt>
      <trkpt lat="45.56466" lon="6.17936">
        <ele>283.2</ele>
        <time>2026-05-12T20:25:02Z</time>
      </trkpt>
      <trkpt lat="45.56421" lon="6.17929">
        <ele>283.4</ele>
        <time>2026-05-12T20:25:09Z</time>
      </trkpt>
      <trkpt lat="45.56387" lon="6.17928">
        <ele>283.2</ele>
        <time>2026-05-12T20:25:14Z</time>
      </trkpt>
      <trkpt lat="45.56374" lon="6.17923">
        <ele>283.2</ele>
        <time>2026-05-12T20:25:16Z</time>
      </trkpt>
      <trkpt lat="45.56365" lon="6.17912">
        <ele>283.2</ele>
        <time>2026-05-12T20:25:18Z</time>
      </trkpt>
      <trkpt lat="45.56363" lon="6.17903">
        <ele>283</ele>
        <time>2026-05-12T20:25:19Z</time>
      </trkpt>
      <trkpt lat="45.56361" lon="6.17895">
        <ele>283</ele>
        <time>2026-05-12T20:25:20Z</time>
      </trkpt>
      <trkpt lat="45.56354" lon="6.17881">
        <ele>283</ele>
        <time>2026-05-12T20:25:22Z</time>
      </trkpt>
      <trkpt lat="45.56341" lon="6.17863">
        <ele>283</ele>
        <time>2026-05-12T20:25:25Z</time>
      </trkpt>
      <trkpt lat="45.56329" lon="6.17846">
        <ele>283.2</ele>
        <time>2026-05-12T20:25:28Z</time>
      </trkpt>
      <trkpt lat="45.56309" lon="6.17809">
        <ele>283.2</ele>
        <time>2026-05-12T20:25:33Z</time>
      </trkpt>
      <trkpt lat="45.56277" lon="6.17752">
        <ele>283</ele>
        <time>2026-05-12T20:25:40Z</time>
      </trkpt>
      <trkpt lat="45.56248" lon="6.17699">
        <ele>283</ele>
        <time>2026-05-12T20:25:47Z</time>
      </trkpt>
      <trkpt lat="45.56215" lon="6.17638">
        <ele>282.8</ele>
        <time>2026-05-12T20:25:55Z</time>
      </trkpt>
      <trkpt lat="45.56182" lon="6.17574">
        <ele>282.8</ele>
        <time>2026-05-12T20:26:03Z</time>
      </trkpt>
      <trkpt lat="45.56151" lon="6.17514">
        <ele>282.6</ele>
        <time>2026-05-12T20:26:11Z</time>
      </trkpt>
      <trkpt lat="45.56128" lon="6.17468">
        <ele>282.4</ele>
        <time>2026-05-12T20:26:17Z</time>
      </trkpt>
      <trkpt lat="45.56114" lon="6.17437">
        <ele>282.4</ele>
        <time>2026-05-12T20:26:21Z</time>
      </trkpt>
      <trkpt lat="45.56105" lon="6.17425">
        <ele>282.4</ele>
        <time>2026-05-12T20:26:23Z</time>
      </trkpt>
      <trkpt lat="45.56082" lon="6.1739">
        <ele>282.4</ele>
        <time>2026-05-12T20:26:28Z</time>
      </trkpt>
      <trkpt lat="45.56058" lon="6.17345">
        <ele>282.2</ele>
        <time>2026-05-12T20:26:34Z</time>
      </trkpt>
      <trkpt lat="45.56054" lon="6.17337">
        <ele>282</ele>
        <time>2026-05-12T20:26:35Z</time>
      </trkpt>
      <trkpt lat="45.56019" lon="6.17268">
        <ele>281.6</ele>
        <time>2026-05-12T20:26:44Z</time>
      </trkpt>
      <trkpt lat="45.56006" lon="6.17245">
        <ele>281.6</ele>
        <time>2026-05-12T20:26:47Z</time>
      </trkpt>
      <trkpt lat="45.55971" lon="6.17177">
        <ele>281.4</ele>
        <time>2026-05-12T20:26:56Z</time>
      </trkpt>
      <trkpt lat="45.55967" lon="6.17169">
        <ele>281.4</ele>
        <time>2026-05-12T20:26:57Z</time>
      </trkpt>
      <trkpt lat="45.55936" lon="6.17113">
        <ele>281.6</ele>
        <time>2026-05-12T20:27:05Z</time>
      </trkpt>
      <trkpt lat="45.55929" lon="6.17101">
        <ele>281.6</ele>
        <time>2026-05-12T20:27:07Z</time>
      </trkpt>
      <trkpt lat="45.55927" lon="6.17089">
        <ele>281.8</ele>
        <time>2026-05-12T20:27:09Z</time>
      </trkpt>
      <trkpt lat="45.5593" lon="6.17077">
        <ele>282</ele>
        <time>2026-05-12T20:27:11Z</time>
      </trkpt>
      <trkpt lat="45.55934" lon="6.17072">
        <ele>282</ele>
        <time>2026-05-12T20:27:12Z</time>
      </trkpt>
      <trkpt lat="45.55961" lon="6.17043">
        <ele>282</ele>
        <time>2026-05-12T20:27:18Z</time>
      </trkpt>
      <trkpt lat="45.55962" lon="6.17036">
        <ele>281.8</ele>
        <time>2026-05-12T20:27:20Z</time>
      </trkpt>
      <trkpt lat="45.55958" lon="6.1703">
        <ele>281.8</ele>
        <time>2026-05-12T20:27:22Z</time>
      </trkpt>
      <trkpt lat="45.55954" lon="6.17023">
        <ele>281.8</ele>
        <time>2026-05-12T20:27:24Z</time>
      </trkpt>
      <trkpt lat="45.55939" lon="6.16998">
        <ele>281.8</ele>
        <time>2026-05-12T20:27:29Z</time>
      </trkpt>
      <trkpt lat="45.55927" lon="6.16976">
        <ele>282</ele>
        <time>2026-05-12T20:27:32Z</time>
      </trkpt>
      <trkpt lat="45.55921" lon="6.16961">
        <ele>282</ele>
        <time>2026-05-12T20:27:34Z</time>
      </trkpt>
      <trkpt lat="45.55911" lon="6.1694">
        <ele>281.8</ele>
        <time>2026-05-12T20:27:37Z</time>
      </trkpt>
      <trkpt lat="45.55903" lon="6.16927">
        <ele>281.8</ele>
        <time>2026-05-12T20:27:39Z</time>
      </trkpt>
      <trkpt lat="45.55899" lon="6.16911">
        <ele>281.6</ele>
        <time>2026-05-12T20:27:41Z</time>
      </trkpt>
      <trkpt lat="45.55898" lon="6.16901">
        <ele>281.6</ele>
        <time>2026-05-12T20:27:42Z</time>
      </trkpt>
      <trkpt lat="45.55893" lon="6.16836">
        <ele>281.2</ele>
        <time>2026-05-12T20:27:49Z</time>
      </trkpt>
      <trkpt lat="45.55886" lon="6.168">
        <ele>281</ele>
        <time>2026-05-12T20:27:53Z</time>
      </trkpt>
      <trkpt lat="45.55881" lon="6.16783">
        <ele>280.8</ele>
        <time>2026-05-12T20:27:55Z</time>
      </trkpt>
      <trkpt lat="45.55871" lon="6.16729">
        <ele>280.8</ele>
        <time>2026-05-12T20:28:01Z</time>
      </trkpt>
      <trkpt lat="45.55866" lon="6.16693">
        <ele>280.8</ele>
        <time>2026-05-12T20:28:05Z</time>
      </trkpt>
      <trkpt lat="45.55866" lon="6.16665">
        <ele>280.8</ele>
        <time>2026-05-12T20:28:08Z</time>
      </trkpt>
      <trkpt lat="45.55866" lon="6.16656">
        <ele>280.8</ele>
        <time>2026-05-12T20:28:09Z</time>
      </trkpt>
      <trkpt lat="45.55864" lon="6.16619">
        <ele>280.6</ele>
        <time>2026-05-12T20:28:13Z</time>
      </trkpt>
      <trkpt lat="45.55864" lon="6.16602">
        <ele>280.6</ele>
        <time>2026-05-12T20:28:15Z</time>
      </trkpt>
      <trkpt lat="45.55861" lon="6.16575">
        <ele>280.6</ele>
        <time>2026-05-12T20:28:18Z</time>
      </trkpt>
      <trkpt lat="45.5586" lon="6.16566">
        <ele>280.6</ele>
        <time>2026-05-12T20:28:19Z</time>
      </trkpt>
      <trkpt lat="45.55852" lon="6.16541">
        <ele>280.6</ele>
        <time>2026-05-12T20:28:22Z</time>
      </trkpt>
      <trkpt lat="45.55844" lon="6.16528">
        <ele>280.6</ele>
        <time>2026-05-12T20:28:24Z</time>
      </trkpt>
      <trkpt lat="45.55832" lon="6.16519">
        <ele>280.6</ele>
        <time>2026-05-12T20:28:26Z</time>
      </trkpt>
      <trkpt lat="45.55788" lon="6.16501">
        <ele>280.4</ele>
        <time>2026-05-12T20:28:33Z</time>
      </trkpt>
      <trkpt lat="45.55761" lon="6.16486">
        <ele>280.2</ele>
        <time>2026-05-12T20:28:38Z</time>
      </trkpt>
      <trkpt lat="45.55755" lon="6.16484">
        <ele>280.2</ele>
        <time>2026-05-12T20:28:39Z</time>
      </trkpt>
      <trkpt lat="45.55749" lon="6.16484">
        <ele>280.2</ele>
        <time>2026-05-12T20:28:40Z</time>
      </trkpt>
      <trkpt lat="45.55744" lon="6.16485">
        <ele>280.2</ele>
        <time>2026-05-12T20:28:42Z</time>
      </trkpt>
      <trkpt lat="45.55733" lon="6.1649">
        <ele>280.2</ele>
        <time>2026-05-12T20:28:43Z</time>
      </trkpt>
      <trkpt lat="45.55722" lon="6.16498">
        <ele>280.4</ele>
        <time>2026-05-12T20:28:45Z</time>
      </trkpt>
      <trkpt lat="45.55717" lon="6.16502">
        <ele>280.4</ele>
        <time>2026-05-12T20:28:46Z</time>
      </trkpt>
      <trkpt lat="45.55712" lon="6.16508">
        <ele>280.4</ele>
        <time>2026-05-12T20:28:47Z</time>
      </trkpt>
      <trkpt lat="45.55699" lon="6.16527">
        <ele>280.6</ele>
        <time>2026-05-12T20:28:50Z</time>
      </trkpt>
      <trkpt lat="45.55695" lon="6.16534">
        <ele>280.6</ele>
        <time>2026-05-12T20:28:51Z</time>
      </trkpt>
      <trkpt lat="45.55664" lon="6.16592">
        <ele>280.4</ele>
        <time>2026-05-12T20:29:00Z</time>
      </trkpt>
      <trkpt lat="45.55657" lon="6.16594">
        <ele>280.4</ele>
        <time>2026-05-12T20:29:02Z</time>
      </trkpt>
      <trkpt lat="45.55655" lon="6.16592">
        <ele>280.4</ele>
        <time>2026-05-12T20:29:03Z</time>
      </trkpt>
      <trkpt lat="45.5564" lon="6.16578">
        <ele>280.4</ele>
        <time>2026-05-12T20:29:08Z</time>
      </trkpt>
      <trkpt lat="45.55619" lon="6.16573">
        <ele>280.4</ele>
        <time>2026-05-12T20:29:12Z</time>
      </trkpt>
      <trkpt lat="45.55609" lon="6.16565">
        <ele>280.4</ele>
        <time>2026-05-12T20:29:14Z</time>
      </trkpt>
      <trkpt lat="45.55605" lon="6.16559">
        <ele>280.4</ele>
        <time>2026-05-12T20:29:15Z</time>
      </trkpt>
      <trkpt lat="45.5559" lon="6.16521">
        <ele>280.6</ele>
        <time>2026-05-12T20:29:21Z</time>
      </trkpt>
      <trkpt lat="45.55563" lon="6.16462">
        <ele>280.8</ele>
        <time>2026-05-12T20:29:28Z</time>
      </trkpt>
      <trkpt lat="45.55531" lon="6.16392">
        <ele>281</ele>
        <time>2026-05-12T20:29:37Z</time>
      </trkpt>
      <trkpt lat="45.55502" lon="6.16326">
        <ele>280.8</ele>
        <time>2026-05-12T20:29:45Z</time>
      </trkpt>
      <trkpt lat="45.55497" lon="6.16308">
        <ele>280.8</ele>
        <time>2026-05-12T20:29:47Z</time>
      </trkpt>
      <trkpt lat="45.55495" lon="6.1629">
        <ele>280.6</ele>
        <time>2026-05-12T20:29:49Z</time>
      </trkpt>
      <trkpt lat="45.55492" lon="6.16233">
        <ele>280.6</ele>
        <time>2026-05-12T20:29:55Z</time>
      </trkpt>
      <trkpt lat="45.55486" lon="6.16185">
        <ele>280.4</ele>
        <time>2026-05-12T20:30:00Z</time>
      </trkpt>
      <trkpt lat="45.55475" lon="6.161">
        <ele>280.4</ele>
        <time>2026-05-12T20:30:09Z</time>
      </trkpt>
      <trkpt lat="45.55468" lon="6.16043">
        <ele>281.6</ele>
        <time>2026-05-12T20:30:15Z</time>
      </trkpt>
      <trkpt lat="45.55463" lon="6.15997">
        <ele>279.8</ele>
        <time>2026-05-12T20:30:20Z</time>
      </trkpt>
      <trkpt lat="45.55462" lon="6.15979">
        <ele>279.8</ele>
        <time>2026-05-12T20:30:22Z</time>
      </trkpt>
      <trkpt lat="45.5546" lon="6.15954">
        <ele>279.8</ele>
        <time>2026-05-12T20:30:25Z</time>
      </trkpt>
      <trkpt lat="45.55457" lon="6.15936">
        <ele>279.8</ele>
        <time>2026-05-12T20:30:27Z</time>
      </trkpt>
      <trkpt lat="45.55449" lon="6.15877">
        <ele>279.8</ele>
        <time>2026-05-12T20:30:34Z</time>
      </trkpt>
      <trkpt lat="45.55447" lon="6.15869">
        <ele>280</ele>
        <time>2026-05-12T20:30:35Z</time>
      </trkpt>
      <trkpt lat="45.55445" lon="6.15855">
        <ele>280</ele>
        <time>2026-05-12T20:30:38Z</time>
      </trkpt>
      <trkpt lat="45.55433" lon="6.15848">
        <ele>280</ele>
        <time>2026-05-12T20:30:42Z</time>
      </trkpt>
      <trkpt lat="45.55428" lon="6.15849">
        <ele>280</ele>
        <time>2026-05-12T20:30:43Z</time>
      </trkpt>
      <trkpt lat="45.55413" lon="6.15856">
        <ele>280</ele>
        <time>2026-05-12T20:30:46Z</time>
      </trkpt>
      <trkpt lat="45.55368" lon="6.15882">
        <ele>279.8</ele>
        <time>2026-05-12T20:30:54Z</time>
      </trkpt>
      <trkpt lat="45.55354" lon="6.15894">
        <ele>280</ele>
        <time>2026-05-12T20:30:57Z</time>
      </trkpt>
      <trkpt lat="45.55343" lon="6.15895">
        <ele>280</ele>
        <time>2026-05-12T20:30:59Z</time>
      </trkpt>
      <trkpt lat="45.55333" lon="6.15888">
        <ele>280.2</ele>
        <time>2026-05-12T20:31:01Z</time>
      </trkpt>
      <trkpt lat="45.55323" lon="6.1588">
        <ele>280.6</ele>
        <time>2026-05-12T20:31:03Z</time>
      </trkpt>
      <trkpt lat="45.55306" lon="6.15872">
        <ele>280.6</ele>
        <time>2026-05-12T20:31:06Z</time>
      </trkpt>
      <trkpt lat="45.553" lon="6.15868">
        <ele>280.6</ele>
        <time>2026-05-12T20:31:07Z</time>
      </trkpt>
      <trkpt lat="45.55295" lon="6.15863">
        <ele>280.6</ele>
        <time>2026-05-12T20:31:08Z</time>
      </trkpt>
      <trkpt lat="45.55287" lon="6.15849">
        <ele>280.6</ele>
        <time>2026-05-12T20:31:10Z</time>
      </trkpt>
      <trkpt lat="45.55257" lon="6.15786">
        <ele>280</ele>
        <time>2026-05-12T20:31:18Z</time>
      </trkpt>
      <trkpt lat="45.55234" lon="6.15736">
        <ele>280</ele>
        <time>2026-05-12T20:31:24Z</time>
      </trkpt>
      <trkpt lat="45.55203" lon="6.15666">
        <ele>279.8</ele>
        <time>2026-05-12T20:31:33Z</time>
      </trkpt>
      <trkpt lat="45.55196" lon="6.1565">
        <ele>279.6</ele>
        <time>2026-05-12T20:31:35Z</time>
      </trkpt>
      <trkpt lat="45.55164" lon="6.15578">
        <ele>279.6</ele>
        <time>2026-05-12T20:31:44Z</time>
      </trkpt>
      <trkpt lat="45.5516" lon="6.15569">
        <ele>279.6</ele>
        <time>2026-05-12T20:31:45Z</time>
      </trkpt>
      <trkpt lat="45.55132" lon="6.15498">
        <ele>279.4</ele>
        <time>2026-05-12T20:31:54Z</time>
      </trkpt>
      <trkpt lat="45.55126" lon="6.15483">
        <ele>279.6</ele>
        <time>2026-05-12T20:31:56Z</time>
      </trkpt>
      <trkpt lat="45.55117" lon="6.15461">
        <ele>279.6</ele>
        <time>2026-05-12T20:31:59Z</time>
      </trkpt>
      <trkpt lat="45.55096" lon="6.15418">
        <ele>279.6</ele>
        <time>2026-05-12T20:32:05Z</time>
      </trkpt>
      <trkpt lat="45.5507" lon="6.15359">
        <ele>279.6</ele>
        <time>2026-05-12T20:32:12Z</time>
      </trkpt>
      <trkpt lat="45.55039" lon="6.15294">
        <ele>279.8</ele>
        <time>2026-05-12T20:32:20Z</time>
      </trkpt>
      <trkpt lat="45.55036" lon="6.15286">
        <ele>279.8</ele>
        <time>2026-05-12T20:32:21Z</time>
      </trkpt>
      <trkpt lat="45.55022" lon="6.15251">
        <ele>279.8</ele>
        <time>2026-05-12T20:32:25Z</time>
      </trkpt>
      <trkpt lat="45.54989" lon="6.1518">
        <ele>279.6</ele>
        <time>2026-05-12T20:32:34Z</time>
      </trkpt>
      <trkpt lat="45.54985" lon="6.15172">
        <ele>279.6</ele>
        <time>2026-05-12T20:32:35Z</time>
      </trkpt>
      <trkpt lat="45.54952" lon="6.15103">
        <ele>279.8</ele>
        <time>2026-05-12T20:32:44Z</time>
      </trkpt>
      <trkpt lat="45.54923" lon="6.15036">
        <ele>279.8</ele>
        <time>2026-05-12T20:32:52Z</time>
      </trkpt>
      <trkpt lat="45.54892" lon="6.14966">
        <ele>279.6</ele>
        <time>2026-05-12T20:33:01Z</time>
      </trkpt>
      <trkpt lat="45.54872" lon="6.14918">
        <ele>279.6</ele>
        <time>2026-05-12T20:33:07Z</time>
      </trkpt>
      <trkpt lat="45.54844" lon="6.14852">
        <ele>279</ele>
        <time>2026-05-12T20:33:15Z</time>
      </trkpt>
      <trkpt lat="45.54841" lon="6.14843">
        <ele>279</ele>
        <time>2026-05-12T20:33:16Z</time>
      </trkpt>
      <trkpt lat="45.54834" lon="6.14827">
        <ele>278.8</ele>
        <time>2026-05-12T20:33:18Z</time>
      </trkpt>
      <trkpt lat="45.54809" lon="6.14771">
        <ele>278.6</ele>
        <time>2026-05-12T20:33:25Z</time>
      </trkpt>
      <trkpt lat="45.54784" lon="6.14715">
        <ele>278.8</ele>
        <time>2026-05-12T20:33:32Z</time>
      </trkpt>
      <trkpt lat="45.54751" lon="6.14645">
        <ele>278.8</ele>
        <time>2026-05-12T20:33:41Z</time>
      </trkpt>
      <trkpt lat="45.54728" lon="6.14599">
        <ele>278.8</ele>
        <time>2026-05-12T20:33:47Z</time>
      </trkpt>
      <trkpt lat="45.54707" lon="6.14553">
        <ele>278.8</ele>
        <time>2026-05-12T20:33:53Z</time>
      </trkpt>
      <trkpt lat="45.54684" lon="6.14496">
        <ele>278.6</ele>
        <time>2026-05-12T20:34:00Z</time>
      </trkpt>
      <trkpt lat="45.54665" lon="6.14447">
        <ele>278.6</ele>
        <time>2026-05-12T20:34:06Z</time>
      </trkpt>
      <trkpt lat="45.54661" lon="6.1444">
        <ele>278.6</ele>
        <time>2026-05-12T20:34:07Z</time>
      </trkpt>
      <trkpt lat="45.54633" lon="6.14393">
        <ele>278.6</ele>
        <time>2026-05-12T20:34:14Z</time>
      </trkpt>
      <trkpt lat="45.54632" lon="6.14384">
        <ele>278.6</ele>
        <time>2026-05-12T20:34:16Z</time>
      </trkpt>
      <trkpt lat="45.54635" lon="6.14381">
        <ele>278.6</ele>
        <time>2026-05-12T20:34:17Z</time>
      </trkpt>
      <trkpt lat="45.54646" lon="6.14372">
        <ele>278.8</ele>
        <time>2026-05-12T20:34:20Z</time>
      </trkpt>
      <trkpt lat="45.54651" lon="6.14369">
        <ele>278.8</ele>
        <time>2026-05-12T20:34:21Z</time>
      </trkpt>
      <trkpt lat="45.54676" lon="6.14357">
        <ele>278.8</ele>
        <time>2026-05-12T20:34:25Z</time>
      </trkpt>
      <trkpt lat="45.54715" lon="6.14338">
        <ele>278</ele>
        <time>2026-05-12T20:34:31Z</time>
      </trkpt>
      <trkpt lat="45.54728" lon="6.14332">
        <ele>277.8</ele>
        <time>2026-05-12T20:34:33Z</time>
      </trkpt>
      <trkpt lat="45.5476" lon="6.14318">
        <ele>277.6</ele>
        <time>2026-05-12T20:34:38Z</time>
      </trkpt>
      <trkpt lat="45.54809" lon="6.14296">
        <ele>277.6</ele>
        <time>2026-05-12T20:34:46Z</time>
      </trkpt>
      <trkpt lat="45.54852" lon="6.14275">
        <ele>277.8</ele>
        <time>2026-05-12T20:34:53Z</time>
      </trkpt>
      <trkpt lat="45.54894" lon="6.14254">
        <ele>278</ele>
        <time>2026-05-12T20:35:00Z</time>
      </trkpt>
      <trkpt lat="45.54922" lon="6.1424">
        <ele>278</ele>
        <time>2026-05-12T20:35:04Z</time>
      </trkpt>
      <trkpt lat="45.54966" lon="6.14209">
        <ele>278.2</ele>
        <time>2026-05-12T20:35:11Z</time>
      </trkpt>
      <trkpt lat="45.55017" lon="6.14163">
        <ele>278.2</ele>
        <time>2026-05-12T20:35:20Z</time>
      </trkpt>
      <trkpt lat="45.55052" lon="6.14144">
        <ele>278.6</ele>
        <time>2026-05-12T20:35:26Z</time>
      </trkpt>
      <trkpt lat="45.55103" lon="6.14124">
        <ele>278.8</ele>
        <time>2026-05-12T20:35:34Z</time>
      </trkpt>
      <trkpt lat="45.55128" lon="6.14115">
        <ele>278.8</ele>
        <time>2026-05-12T20:35:38Z</time>
      </trkpt>
      <trkpt lat="45.55132" lon="6.14113">
        <ele>278.6</ele>
        <time>2026-05-12T20:35:39Z</time>
      </trkpt>
      <trkpt lat="45.55135" lon="6.1411">
        <ele>278.8</ele>
        <time>2026-05-12T20:35:40Z</time>
      </trkpt>
      <trkpt lat="45.55135" lon="6.14106">
        <ele>278.8</ele>
        <time>2026-05-12T20:35:41Z</time>
      </trkpt>
      <trkpt lat="45.5513" lon="6.14087">
        <ele>278.6</ele>
        <time>2026-05-12T20:35:44Z</time>
      </trkpt>
      <trkpt lat="45.55117" lon="6.14039">
        <ele>278.2</ele>
        <time>2026-05-12T20:35:50Z</time>
      </trkpt>
      <trkpt lat="45.55102" lon="6.13987">
        <ele>277.8</ele>
        <time>2026-05-12T20:35:56Z</time>
      </trkpt>
      <trkpt lat="45.551" lon="6.13978">
        <ele>277.8</ele>
        <time>2026-05-12T20:35:57Z</time>
      </trkpt>
      <trkpt lat="45.55089" lon="6.13932">
        <ele>277.8</ele>
        <time>2026-05-12T20:36:02Z</time>
      </trkpt>
      <trkpt lat="45.55088" lon="6.13924">
        <ele>277.8</ele>
        <time>2026-05-12T20:36:03Z</time>
      </trkpt>
      <trkpt lat="45.55087" lon="6.13915">
        <ele>277.8</ele>
        <time>2026-05-12T20:36:04Z</time>
      </trkpt>
      <trkpt lat="45.5508" lon="6.1389">
        <ele>277.8</ele>
        <time>2026-05-12T20:36:07Z</time>
      </trkpt>
      <trkpt lat="45.55059" lon="6.13811">
        <ele>277.8</ele>
        <time>2026-05-12T20:36:16Z</time>
      </trkpt>
      <trkpt lat="45.55057" lon="6.13802">
        <ele>277.6</ele>
        <time>2026-05-12T20:36:17Z</time>
      </trkpt>
      <trkpt lat="45.55046" lon="6.13739">
        <ele>277.6</ele>
        <time>2026-05-12T20:36:24Z</time>
      </trkpt>
      <trkpt lat="45.55028" lon="6.13668">
        <ele>277.6</ele>
        <time>2026-05-12T20:36:32Z</time>
      </trkpt>
      <trkpt lat="45.55011" lon="6.13595">
        <ele>277.4</ele>
        <time>2026-05-12T20:36:40Z</time>
      </trkpt>
      <trkpt lat="45.55002" lon="6.13558">
        <ele>277.4</ele>
        <time>2026-05-12T20:36:44Z</time>
      </trkpt>
      <trkpt lat="45.54982" lon="6.13478">
        <ele>277.2</ele>
        <time>2026-05-12T20:36:53Z</time>
      </trkpt>
      <trkpt lat="45.54961" lon="6.13398">
        <ele>277.2</ele>
        <time>2026-05-12T20:37:02Z</time>
      </trkpt>
      <trkpt lat="45.54953" lon="6.13372">
        <ele>277.2</ele>
        <time>2026-05-12T20:37:05Z</time>
      </trkpt>
      <trkpt lat="45.54941" lon="6.13328">
        <ele>277</ele>
        <time>2026-05-12T20:37:10Z</time>
      </trkpt>
      <trkpt lat="45.54929" lon="6.13285">
        <ele>276.8</ele>
        <time>2026-05-12T20:37:15Z</time>
      </trkpt>
      <trkpt lat="45.54906" lon="6.13205">
        <ele>277</ele>
        <time>2026-05-12T20:37:24Z</time>
      </trkpt>
      <trkpt lat="45.54904" lon="6.13197">
        <ele>277</ele>
        <time>2026-05-12T20:37:25Z</time>
      </trkpt>
      <trkpt lat="45.54886" lon="6.13124">
        <ele>277</ele>
        <time>2026-05-12T20:37:33Z</time>
      </trkpt>
      <trkpt lat="45.54864" lon="6.13048">
        <ele>277</ele>
        <time>2026-05-12T20:37:42Z</time>
      </trkpt>
      <trkpt lat="45.54842" lon="6.12972">
        <ele>277</ele>
        <time>2026-05-12T20:37:51Z</time>
      </trkpt>
      <trkpt lat="45.54839" lon="6.12964">
        <ele>277</ele>
        <time>2026-05-12T20:37:52Z</time>
      </trkpt>
      <trkpt lat="45.54831" lon="6.12933">
        <ele>277</ele>
        <time>2026-05-12T20:37:56Z</time>
      </trkpt>
      <trkpt lat="45.5483" lon="6.12926">
        <ele>277</ele>
        <time>2026-05-12T20:37:57Z</time>
      </trkpt>
      <trkpt lat="45.54831" lon="6.12914">
        <ele>277.2</ele>
        <time>2026-05-12T20:38:00Z</time>
      </trkpt>
      <trkpt lat="45.54845" lon="6.12907">
        <ele>277.4</ele>
        <time>2026-05-12T20:38:04Z</time>
      </trkpt>
      <trkpt lat="45.54874" lon="6.12896">
        <ele>278.2</ele>
        <time>2026-05-12T20:38:11Z</time>
      </trkpt>
      <trkpt lat="45.54878" lon="6.12894">
        <ele>278.2</ele>
        <time>2026-05-12T20:38:12Z</time>
      </trkpt>
      <trkpt lat="45.54884" lon="6.12887">
        <ele>278.4</ele>
        <time>2026-05-12T20:38:14Z</time>
      </trkpt>
      <trkpt lat="45.54885" lon="6.12882">
        <ele>278.4</ele>
        <time>2026-05-12T20:38:15Z</time>
      </trkpt>
      <trkpt lat="45.54884" lon="6.12876">
        <ele>278.6</ele>
        <time>2026-05-12T20:38:16Z</time>
      </trkpt>
      <trkpt lat="45.54876" lon="6.12862">
        <ele>278.6</ele>
        <time>2026-05-12T20:38:18Z</time>
      </trkpt>
      <trkpt lat="45.54855" lon="6.12829">
        <ele>278.4</ele>
        <time>2026-05-12T20:38:22Z</time>
      </trkpt>
      <trkpt lat="45.5484" lon="6.12804">
        <ele>277.2</ele>
        <time>2026-05-12T20:38:25Z</time>
      </trkpt>
      <trkpt lat="45.54824" lon="6.12779">
        <ele>276.4</ele>
        <time>2026-05-12T20:38:28Z</time>
      </trkpt>
      <trkpt lat="45.5481" lon="6.12756">
        <ele>276.2</ele>
        <time>2026-05-12T20:38:31Z</time>
      </trkpt>
      <trkpt lat="45.54787" lon="6.12719">
        <ele>276</ele>
        <time>2026-05-12T20:38:36Z</time>
      </trkpt>
      <trkpt lat="45.54747" lon="6.12655">
        <ele>276.2</ele>
        <time>2026-05-12T20:38:45Z</time>
      </trkpt>
      <trkpt lat="45.54743" lon="6.12648">
        <ele>276.2</ele>
        <time>2026-05-12T20:38:46Z</time>
      </trkpt>
      <trkpt lat="45.54704" lon="6.12588">
        <ele>276.4</ele>
        <time>2026-05-12T20:38:55Z</time>
      </trkpt>
      <trkpt lat="45.54695" lon="6.12575">
        <ele>276.6</ele>
        <time>2026-05-12T20:38:57Z</time>
      </trkpt>
      <trkpt lat="45.54655" lon="6.12514">
        <ele>276.6</ele>
        <time>2026-05-12T20:39:06Z</time>
      </trkpt>
      <trkpt lat="45.54651" lon="6.12507">
        <ele>276.6</ele>
        <time>2026-05-12T20:39:07Z</time>
      </trkpt>
      <trkpt lat="45.5462" lon="6.12448">
        <ele>276.6</ele>
        <time>2026-05-12T20:39:15Z</time>
      </trkpt>
      <trkpt lat="45.54593" lon="6.12393">
        <ele>276.6</ele>
        <time>2026-05-12T20:39:22Z</time>
      </trkpt>
      <trkpt lat="45.54563" lon="6.12329">
        <ele>276.4</ele>
        <time>2026-05-12T20:39:30Z</time>
      </trkpt>
      <trkpt lat="45.54559" lon="6.12321">
        <ele>276.2</ele>
        <time>2026-05-12T20:39:31Z</time>
      </trkpt>
      <trkpt lat="45.54537" lon="6.12274">
        <ele>276</ele>
        <time>2026-05-12T20:39:37Z</time>
      </trkpt>
      <trkpt lat="45.54508" lon="6.122">
        <ele>275.8</ele>
        <time>2026-05-12T20:39:46Z</time>
      </trkpt>
      <trkpt lat="45.54505" lon="6.12192">
        <ele>275.8</ele>
        <time>2026-05-12T20:39:47Z</time>
      </trkpt>
      <trkpt lat="45.5448" lon="6.12135">
        <ele>275.8</ele>
        <time>2026-05-12T20:39:54Z</time>
      </trkpt>
      <trkpt lat="45.54448" lon="6.12073">
        <ele>275.6</ele>
        <time>2026-05-12T20:40:02Z</time>
      </trkpt>
      <trkpt lat="45.5441" lon="6.12008">
        <ele>275.8</ele>
        <time>2026-05-12T20:40:11Z</time>
      </trkpt>
      <trkpt lat="45.54366" lon="6.1195">
        <ele>275.8</ele>
        <time>2026-05-12T20:40:20Z</time>
      </trkpt>
      <trkpt lat="45.5432" lon="6.11897">
        <ele>275.6</ele>
        <time>2026-05-12T20:40:29Z</time>
      </trkpt>
      <trkpt lat="45.54315" lon="6.11892">
        <ele>275.6</ele>
        <time>2026-05-12T20:40:30Z</time>
      </trkpt>
      <trkpt lat="45.54275" lon="6.11846">
        <ele>275.6</ele>
        <time>2026-05-12T20:40:38Z</time>
      </trkpt>
      <trkpt lat="45.54229" lon="6.11794">
        <ele>275.6</ele>
        <time>2026-05-12T20:40:47Z</time>
      </trkpt>
      <trkpt lat="45.54218" lon="6.11782">
        <ele>275.4</ele>
        <time>2026-05-12T20:40:49Z</time>
      </trkpt>
      <trkpt lat="45.54172" lon="6.11733">
        <ele>275.4</ele>
        <time>2026-05-12T20:40:58Z</time>
      </trkpt>
      <trkpt lat="45.54162" lon="6.11722">
        <ele>275.4</ele>
        <time>2026-05-12T20:41:00Z</time>
      </trkpt>
      <trkpt lat="45.54115" lon="6.11673">
        <ele>275.4</ele>
        <time>2026-05-12T20:41:09Z</time>
      </trkpt>
      <trkpt lat="45.54105" lon="6.11661">
        <ele>275.4</ele>
        <time>2026-05-12T20:41:11Z</time>
      </trkpt>
      <trkpt lat="45.54058" lon="6.1161">
        <ele>275.8</ele>
        <time>2026-05-12T20:41:20Z</time>
      </trkpt>
      <trkpt lat="45.54053" lon="6.11604">
        <ele>275.8</ele>
        <time>2026-05-12T20:41:21Z</time>
      </trkpt>
      <trkpt lat="45.54031" lon="6.11581">
        <ele>275.6</ele>
        <time>2026-05-12T20:41:25Z</time>
      </trkpt>
      <trkpt lat="45.54004" lon="6.11553">
        <ele>275.2</ele>
        <time>2026-05-12T20:41:30Z</time>
      </trkpt>
      <trkpt lat="45.53965" lon="6.11505">
        <ele>275</ele>
        <time>2026-05-12T20:41:38Z</time>
      </trkpt>
      <trkpt lat="45.53925" lon="6.11449">
        <ele>274.6</ele>
        <time>2026-05-12T20:41:46Z</time>
      </trkpt>
      <trkpt lat="45.53916" lon="6.11436">
        <ele>274.4</ele>
        <time>2026-05-12T20:41:48Z</time>
      </trkpt>
      <trkpt lat="45.53885" lon="6.11395">
        <ele>273.8</ele>
        <time>2026-05-12T20:41:54Z</time>
      </trkpt>
      <trkpt lat="45.53853" lon="6.11347">
        <ele>273.8</ele>
        <time>2026-05-12T20:42:01Z</time>
      </trkpt>
      <trkpt lat="45.53834" lon="6.1132">
        <ele>273.8</ele>
        <time>2026-05-12T20:42:05Z</time>
      </trkpt>
      <trkpt lat="45.53806" lon="6.11279">
        <ele>273.8</ele>
        <time>2026-05-12T20:42:11Z</time>
      </trkpt>
      <trkpt lat="45.53767" lon="6.11225">
        <ele>273.6</ele>
        <time>2026-05-12T20:42:19Z</time>
      </trkpt>
      <trkpt lat="45.53751" lon="6.11207">
        <ele>273.4</ele>
        <time>2026-05-12T20:42:22Z</time>
      </trkpt>
      <trkpt lat="45.53746" lon="6.11201">
        <ele>273.2</ele>
        <time>2026-05-12T20:42:23Z</time>
      </trkpt>
      <trkpt lat="45.53705" lon="6.11167">
        <ele>273</ele>
        <time>2026-05-12T20:42:30Z</time>
      </trkpt>
      <trkpt lat="45.5366" lon="6.11126">
        <ele>272.8</ele>
        <time>2026-05-12T20:42:38Z</time>
      </trkpt>
      <trkpt lat="45.53612" lon="6.11083">
        <ele>272.6</ele>
        <time>2026-05-12T20:42:47Z</time>
      </trkpt>
      <trkpt lat="45.53598" lon="6.11069">
        <ele>272.6</ele>
        <time>2026-05-12T20:42:50Z</time>
      </trkpt>
      <trkpt lat="45.53564" lon="6.11038">
        <ele>273</ele>
        <time>2026-05-12T20:42:57Z</time>
      </trkpt>
      <trkpt lat="45.53544" lon="6.11022">
        <ele>273</ele>
        <time>2026-05-12T20:43:01Z</time>
      </trkpt>
      <trkpt lat="45.53538" lon="6.11014">
        <ele>273</ele>
        <time>2026-05-12T20:43:03Z</time>
      </trkpt>
      <trkpt lat="45.5353" lon="6.11005">
        <ele>273</ele>
        <time>2026-05-12T20:43:06Z</time>
      </trkpt>
      <trkpt lat="45.53526" lon="6.11002">
        <ele>273</ele>
        <time>2026-05-12T20:43:07Z</time>
      </trkpt>
      <trkpt lat="45.53503" lon="6.10988">
        <ele>273</ele>
        <time>2026-05-12T20:43:11Z</time>
      </trkpt>
      <trkpt lat="45.53493" lon="6.10979">
        <ele>272.8</ele>
        <time>2026-05-12T20:43:13Z</time>
      </trkpt>
      <trkpt lat="45.53485" lon="6.10971">
        <ele>272.8</ele>
        <time>2026-05-12T20:43:15Z</time>
      </trkpt>
      <trkpt lat="45.5346" lon="6.1095">
        <ele>272.6</ele>
        <time>2026-05-12T20:43:20Z</time>
      </trkpt>
      <trkpt lat="45.53432" lon="6.10928">
        <ele>273</ele>
        <time>2026-05-12T20:43:25Z</time>
      </trkpt>
      <trkpt lat="45.53427" lon="6.10924">
        <ele>273.2</ele>
        <time>2026-05-12T20:43:26Z</time>
      </trkpt>
      <trkpt lat="45.53377" lon="6.10884">
        <ele>273.4</ele>
        <time>2026-05-12T20:43:35Z</time>
      </trkpt>
      <trkpt lat="45.53326" lon="6.10842">
        <ele>273.2</ele>
        <time>2026-05-12T20:43:44Z</time>
      </trkpt>
      <trkpt lat="45.53276" lon="6.10801">
        <ele>273.2</ele>
        <time>2026-05-12T20:43:53Z</time>
      </trkpt>
      <trkpt lat="45.53265" lon="6.10792">
        <ele>273.2</ele>
        <time>2026-05-12T20:43:55Z</time>
      </trkpt>
      <trkpt lat="45.53214" lon="6.1075">
        <ele>273.4</ele>
        <time>2026-05-12T20:44:04Z</time>
      </trkpt>
      <trkpt lat="45.53162" lon="6.10708">
        <ele>273.4</ele>
        <time>2026-05-12T20:44:13Z</time>
      </trkpt>
      <trkpt lat="45.53151" lon="6.10698">
        <ele>273.4</ele>
        <time>2026-05-12T20:44:15Z</time>
      </trkpt>
      <trkpt lat="45.53107" lon="6.10661">
        <ele>273.4</ele>
        <time>2026-05-12T20:44:23Z</time>
      </trkpt>
      <trkpt lat="45.53093" lon="6.10648">
        <ele>273.4</ele>
        <time>2026-05-12T20:44:26Z</time>
      </trkpt>
      <trkpt lat="45.53059" lon="6.1062">
        <ele>273.4</ele>
        <time>2026-05-12T20:44:32Z</time>
      </trkpt>
      <trkpt lat="45.53012" lon="6.10582">
        <ele>273.4</ele>
        <time>2026-05-12T20:44:40Z</time>
      </trkpt>
      <trkpt lat="45.5297" lon="6.10546">
        <ele>273.2</ele>
        <time>2026-05-12T20:44:47Z</time>
      </trkpt>
      <trkpt lat="45.52964" lon="6.10542">
        <ele>273.2</ele>
        <time>2026-05-12T20:44:48Z</time>
      </trkpt>
      <trkpt lat="45.52919" lon="6.10511">
        <ele>273</ele>
        <time>2026-05-12T20:44:56Z</time>
      </trkpt>
      <trkpt lat="45.52907" lon="6.10505">
        <ele>273</ele>
        <time>2026-05-12T20:44:58Z</time>
      </trkpt>
      <trkpt lat="45.52888" lon="6.10496">
        <ele>273</ele>
        <time>2026-05-12T20:45:01Z</time>
      </trkpt>
      <trkpt lat="45.52848" lon="6.10485">
        <ele>272.8</ele>
        <time>2026-05-12T20:45:07Z</time>
      </trkpt>
      <trkpt lat="45.52842" lon="6.10485">
        <ele>272.8</ele>
        <time>2026-05-12T20:45:08Z</time>
      </trkpt>
      <trkpt lat="45.5281" lon="6.10486">
        <ele>273</ele>
        <time>2026-05-12T20:45:13Z</time>
      </trkpt>
      <trkpt lat="45.52791" lon="6.10486">
        <ele>273</ele>
        <time>2026-05-12T20:45:16Z</time>
      </trkpt>
      <trkpt lat="45.52759" lon="6.10487">
        <ele>273</ele>
        <time>2026-05-12T20:45:21Z</time>
      </trkpt>
      <trkpt lat="45.52725" lon="6.10489">
        <ele>272.8</ele>
        <time>2026-05-12T20:45:26Z</time>
      </trkpt>
      <trkpt lat="45.52712" lon="6.10491">
        <ele>272.8</ele>
        <time>2026-05-12T20:45:28Z</time>
      </trkpt>
      <trkpt lat="45.52665" lon="6.10492">
        <ele>272.6</ele>
        <time>2026-05-12T20:45:35Z</time>
      </trkpt>
      <trkpt lat="45.52619" lon="6.105">
        <ele>272.4</ele>
        <time>2026-05-12T20:45:42Z</time>
      </trkpt>
      <trkpt lat="45.52612" lon="6.105">
        <ele>272.4</ele>
        <time>2026-05-12T20:45:43Z</time>
      </trkpt>
      <trkpt lat="45.52579" lon="6.10499">
        <ele>272.4</ele>
        <time>2026-05-12T20:45:48Z</time>
      </trkpt>
      <trkpt lat="45.52559" lon="6.10502">
        <ele>272.4</ele>
        <time>2026-05-12T20:45:51Z</time>
      </trkpt>
      <trkpt lat="45.5254" lon="6.10507">
        <ele>272.4</ele>
        <time>2026-05-12T20:45:54Z</time>
      </trkpt>
      <trkpt lat="45.52509" lon="6.10509">
        <ele>272.6</ele>
        <time>2026-05-12T20:45:59Z</time>
      </trkpt>
      <trkpt lat="45.52496" lon="6.10507">
        <ele>272.8</ele>
        <time>2026-05-12T20:46:01Z</time>
      </trkpt>
      <trkpt lat="45.52486" lon="6.10506">
        <ele>273</ele>
        <time>2026-05-12T20:46:03Z</time>
      </trkpt>
      <trkpt lat="45.52468" lon="6.10507">
        <ele>273.2</ele>
        <time>2026-05-12T20:46:06Z</time>
      </trkpt>
      <trkpt lat="45.52431" lon="6.10506">
        <ele>273.4</ele>
        <time>2026-05-12T20:46:12Z</time>
      </trkpt>
      <trkpt lat="45.52384" lon="6.10504">
        <ele>273.6</ele>
        <time>2026-05-12T20:46:19Z</time>
      </trkpt>
      <trkpt lat="45.52336" lon="6.10508">
        <ele>273.6</ele>
        <time>2026-05-12T20:46:26Z</time>
      </trkpt>
      <trkpt lat="45.52304" lon="6.10511">
        <ele>273.6</ele>
        <time>2026-05-12T20:46:31Z</time>
      </trkpt>
      <trkpt lat="45.52299" lon="6.10511">
        <ele>273.6</ele>
        <time>2026-05-12T20:46:32Z</time>
      </trkpt>
      <trkpt lat="45.52294" lon="6.10511">
        <ele>273.6</ele>
        <time>2026-05-12T20:46:33Z</time>
      </trkpt>
      <trkpt lat="45.52282" lon="6.10512">
        <ele>273.6</ele>
        <time>2026-05-12T20:46:36Z</time>
      </trkpt>
      <trkpt lat="45.52269" lon="6.10507">
        <ele>273.6</ele>
        <time>2026-05-12T20:46:39Z</time>
      </trkpt>
      <trkpt lat="45.52266" lon="6.10504">
        <ele>273.6</ele>
        <time>2026-05-12T20:46:40Z</time>
      </trkpt>
      <trkpt lat="45.52253" lon="6.10497">
        <ele>273.6</ele>
        <time>2026-05-12T20:46:44Z</time>
      </trkpt>
      <trkpt lat="45.52234" lon="6.10482">
        <ele>273.6</ele>
        <time>2026-05-12T20:46:48Z</time>
      </trkpt>
      <trkpt lat="45.52207" lon="6.10448">
        <ele>273.2</ele>
        <time>2026-05-12T20:46:53Z</time>
      </trkpt>
      <trkpt lat="45.52172" lon="6.10395">
        <ele>272</ele>
        <time>2026-05-12T20:47:00Z</time>
      </trkpt>
      <trkpt lat="45.52168" lon="6.10389">
        <ele>272</ele>
        <time>2026-05-12T20:47:01Z</time>
      </trkpt>
      <trkpt lat="45.52127" lon="6.10325">
        <ele>271.8</ele>
        <time>2026-05-12T20:47:10Z</time>
      </trkpt>
      <trkpt lat="45.52123" lon="6.10318">
        <ele>271.8</ele>
        <time>2026-05-12T20:47:11Z</time>
      </trkpt>
      <trkpt lat="45.52088" lon="6.10258">
        <ele>271.8</ele>
        <time>2026-05-12T20:47:19Z</time>
      </trkpt>
      <trkpt lat="45.52079" lon="6.10243">
        <ele>271.8</ele>
        <time>2026-05-12T20:47:21Z</time>
      </trkpt>
      <trkpt lat="45.52043" lon="6.10183">
        <ele>271.6</ele>
        <time>2026-05-12T20:47:29Z</time>
      </trkpt>
      <trkpt lat="45.52021" lon="6.10147">
        <ele>271.4</ele>
        <time>2026-05-12T20:47:34Z</time>
      </trkpt>
      <trkpt lat="45.51985" lon="6.1009">
        <ele>271.4</ele>
        <time>2026-05-12T20:47:42Z</time>
      </trkpt>
      <trkpt lat="45.51947" lon="6.10034">
        <ele>271</ele>
        <time>2026-05-12T20:47:50Z</time>
      </trkpt>
      <trkpt lat="45.51942" lon="6.10027">
        <ele>271</ele>
        <time>2026-05-12T20:47:51Z</time>
      </trkpt>
      <trkpt lat="45.51938" lon="6.1002">
        <ele>271</ele>
        <time>2026-05-12T20:47:52Z</time>
      </trkpt>
      <trkpt lat="45.51902" lon="6.09963">
        <ele>270.8</ele>
        <time>2026-05-12T20:48:00Z</time>
      </trkpt>
      <trkpt lat="45.51863" lon="6.09897">
        <ele>270.8</ele>
        <time>2026-05-12T20:48:09Z</time>
      </trkpt>
      <trkpt lat="45.51824" lon="6.09833">
        <ele>270.6</ele>
        <time>2026-05-12T20:48:18Z</time>
      </trkpt>
      <trkpt lat="45.5182" lon="6.09827">
        <ele>270.6</ele>
        <time>2026-05-12T20:48:19Z</time>
      </trkpt>
      <trkpt lat="45.51786" lon="6.0977">
        <ele>270.4</ele>
        <time>2026-05-12T20:48:27Z</time>
      </trkpt>
      <trkpt lat="45.51748" lon="6.09715">
        <ele>270.4</ele>
        <time>2026-05-12T20:48:35Z</time>
      </trkpt>
      <trkpt lat="45.51744" lon="6.09709">
        <ele>270.2</ele>
        <time>2026-05-12T20:48:36Z</time>
      </trkpt>
      <trkpt lat="45.51713" lon="6.09661">
        <ele>270</ele>
        <time>2026-05-12T20:48:43Z</time>
      </trkpt>
      <trkpt lat="45.5171" lon="6.09656">
        <ele>270</ele>
        <time>2026-05-12T20:48:44Z</time>
      </trkpt>
      <trkpt lat="45.51705" lon="6.09642">
        <ele>270</ele>
        <time>2026-05-12T20:48:46Z</time>
      </trkpt>
      <trkpt lat="45.51705" lon="6.09635">
        <ele>270</ele>
        <time>2026-05-12T20:48:47Z</time>
      </trkpt>
      <trkpt lat="45.51706" lon="6.0963">
        <ele>270</ele>
        <time>2026-05-12T20:48:48Z</time>
      </trkpt>
      <trkpt lat="45.51713" lon="6.09619">
        <ele>270</ele>
        <time>2026-05-12T20:48:50Z</time>
      </trkpt>
      <trkpt lat="45.51734" lon="6.09599">
        <ele>270</ele>
        <time>2026-05-12T20:48:55Z</time>
      </trkpt>
      <trkpt lat="45.51753" lon="6.09581">
        <ele>270</ele>
        <time>2026-05-12T20:48:59Z</time>
      </trkpt>
      <trkpt lat="45.51797" lon="6.09544">
        <ele>269.8</ele>
        <time>2026-05-12T20:49:06Z</time>
      </trkpt>
      <trkpt lat="45.51832" lon="6.09517">
        <ele>269.8</ele>
        <time>2026-05-12T20:49:12Z</time>
      </trkpt>
      <trkpt lat="45.51838" lon="6.09507">
        <ele>269.8</ele>
        <time>2026-05-12T20:49:14Z</time>
      </trkpt>
      <trkpt lat="45.5184" lon="6.09502">
        <ele>269.8</ele>
        <time>2026-05-12T20:49:15Z</time>
      </trkpt>
      <trkpt lat="45.51834" lon="6.09483">
        <ele>269.8</ele>
        <time>2026-05-12T20:49:18Z</time>
      </trkpt>
      <trkpt lat="45.51823" lon="6.09464">
        <ele>269.6</ele>
        <time>2026-05-12T20:49:21Z</time>
      </trkpt>
      <trkpt lat="45.51817" lon="6.09448">
        <ele>269.6</ele>
        <time>2026-05-12T20:49:23Z</time>
      </trkpt>
      <trkpt lat="45.51799" lon="6.09401">
        <ele>269.6</ele>
        <time>2026-05-12T20:49:29Z</time>
      </trkpt>
      <trkpt lat="45.51773" lon="6.09347">
        <ele>269.4</ele>
        <time>2026-05-12T20:49:36Z</time>
      </trkpt>
      <trkpt lat="45.51745" lon="6.09283">
        <ele>269</ele>
        <time>2026-05-12T20:49:44Z</time>
      </trkpt>
      <trkpt lat="45.51741" lon="6.09275">
        <ele>269</ele>
        <time>2026-05-12T20:49:45Z</time>
      </trkpt>
      <trkpt lat="45.51709" lon="6.09206">
        <ele>269</ele>
        <time>2026-05-12T20:49:54Z</time>
      </trkpt>
      <trkpt lat="45.51706" lon="6.09198">
        <ele>269</ele>
        <time>2026-05-12T20:49:55Z</time>
      </trkpt>
      <trkpt lat="45.51672" lon="6.09127">
        <ele>268.8</ele>
        <time>2026-05-12T20:50:04Z</time>
      </trkpt>
      <trkpt lat="45.51668" lon="6.09118">
        <ele>268.8</ele>
        <time>2026-05-12T20:50:05Z</time>
      </trkpt>
      <trkpt lat="45.5164" lon="6.09055">
        <ele>268.8</ele>
        <time>2026-05-12T20:50:13Z</time>
      </trkpt>
      <trkpt lat="45.51612" lon="6.08992">
        <ele>268.6</ele>
        <time>2026-05-12T20:50:21Z</time>
      </trkpt>
      <trkpt lat="45.51609" lon="6.08985">
        <ele>268.6</ele>
        <time>2026-05-12T20:50:22Z</time>
      </trkpt>
      <trkpt lat="45.51603" lon="6.08973">
        <ele>268.6</ele>
        <time>2026-05-12T20:50:24Z</time>
      </trkpt>
      <trkpt lat="45.51601" lon="6.08966">
        <ele>268.6</ele>
        <time>2026-05-12T20:50:25Z</time>
      </trkpt>
      <trkpt lat="45.51592" lon="6.08942">
        <ele>268.6</ele>
        <time>2026-05-12T20:50:30Z</time>
      </trkpt>
      <trkpt lat="45.5158" lon="6.08923">
        <ele>268.8</ele>
        <time>2026-05-12T20:50:34Z</time>
      </trkpt>
      <trkpt lat="45.51572" lon="6.0891">
        <ele>268.8</ele>
        <time>2026-05-12T20:50:36Z</time>
      </trkpt>
      <trkpt lat="45.51563" lon="6.08889">
        <ele>268.8</ele>
        <time>2026-05-12T20:50:39Z</time>
      </trkpt>
      <trkpt lat="45.51549" lon="6.08855">
        <ele>268.8</ele>
        <time>2026-05-12T20:50:44Z</time>
      </trkpt>
      <trkpt lat="45.51516" lon="6.08785">
        <ele>268.8</ele>
        <time>2026-05-12T20:50:53Z</time>
      </trkpt>
      <trkpt lat="45.51487" lon="6.0872">
        <ele>268.8</ele>
        <time>2026-05-12T20:51:01Z</time>
      </trkpt>
      <trkpt lat="45.51456" lon="6.08652">
        <ele>268.2</ele>
        <time>2026-05-12T20:51:09Z</time>
      </trkpt>
      <trkpt lat="45.51435" lon="6.08614">
        <ele>268.2</ele>
        <time>2026-05-12T20:51:14Z</time>
      </trkpt>
      <trkpt lat="45.51426" lon="6.08603">
        <ele>268</ele>
        <time>2026-05-12T20:51:16Z</time>
      </trkpt>
      <trkpt lat="45.51385" lon="6.0857">
        <ele>268</ele>
        <time>2026-05-12T20:51:23Z</time>
      </trkpt>
      <trkpt lat="45.51336" lon="6.08526">
        <ele>267.6</ele>
        <time>2026-05-12T20:51:32Z</time>
      </trkpt>
      <trkpt lat="45.51285" lon="6.08487">
        <ele>267.4</ele>
        <time>2026-05-12T20:51:41Z</time>
      </trkpt>
      <trkpt lat="45.51249" lon="6.08473">
        <ele>267.8</ele>
        <time>2026-05-12T20:51:47Z</time>
      </trkpt>
      <trkpt lat="45.51204" lon="6.08451">
        <ele>267.6</ele>
        <time>2026-05-12T20:51:54Z</time>
      </trkpt>
      <trkpt lat="45.51185" lon="6.0844">
        <ele>267.6</ele>
        <time>2026-05-12T20:51:57Z</time>
      </trkpt>
      <trkpt lat="45.51173" lon="6.0843">
        <ele>267.4</ele>
        <time>2026-05-12T20:51:59Z</time>
      </trkpt>
      <trkpt lat="45.51168" lon="6.08424">
        <ele>267.4</ele>
        <time>2026-05-12T20:52:00Z</time>
      </trkpt>
      <trkpt lat="45.51164" lon="6.08416">
        <ele>267.4</ele>
        <time>2026-05-12T20:52:01Z</time>
      </trkpt>
      <trkpt lat="45.51154" lon="6.08394">
        <ele>267.4</ele>
        <time>2026-05-12T20:52:04Z</time>
      </trkpt>
      <trkpt lat="45.5115" lon="6.08388">
        <ele>267.4</ele>
        <time>2026-05-12T20:52:05Z</time>
      </trkpt>
      <trkpt lat="45.51137" lon="6.0837">
        <ele>267.8</ele>
        <time>2026-05-12T20:52:08Z</time>
      </trkpt>
      <trkpt lat="45.51122" lon="6.08352">
        <ele>267.8</ele>
        <time>2026-05-12T20:52:11Z</time>
      </trkpt>
      <trkpt lat="45.51112" lon="6.08339">
        <ele>267.8</ele>
        <time>2026-05-12T20:52:13Z</time>
      </trkpt>
      <trkpt lat="45.51107" lon="6.08334">
        <ele>267.8</ele>
        <time>2026-05-12T20:52:14Z</time>
      </trkpt>
      <trkpt lat="45.51089" lon="6.08306">
        <ele>267.4</ele>
        <time>2026-05-12T20:52:18Z</time>
      </trkpt>
      <trkpt lat="45.51085" lon="6.08299">
        <ele>267.4</ele>
        <time>2026-05-12T20:52:19Z</time>
      </trkpt>
      <trkpt lat="45.51069" lon="6.08272">
        <ele>267.4</ele>
        <time>2026-05-12T20:52:23Z</time>
      </trkpt>
      <trkpt lat="45.51062" lon="6.08254">
        <ele>267.2</ele>
        <time>2026-05-12T20:52:25Z</time>
      </trkpt>
      <trkpt lat="45.51056" lon="6.08225">
        <ele>267.2</ele>
        <time>2026-05-12T20:52:28Z</time>
      </trkpt>
      <trkpt lat="45.51053" lon="6.08206">
        <ele>267.2</ele>
        <time>2026-05-12T20:52:30Z</time>
      </trkpt>
      <trkpt lat="45.51046" lon="6.08167">
        <ele>267.4</ele>
        <time>2026-05-12T20:52:34Z</time>
      </trkpt>
      <trkpt lat="45.51044" lon="6.08158">
        <ele>267.4</ele>
        <time>2026-05-12T20:52:35Z</time>
      </trkpt>
      <trkpt lat="45.51043" lon="6.08149">
        <ele>267.4</ele>
        <time>2026-05-12T20:52:36Z</time>
      </trkpt>
      <trkpt lat="45.51039" lon="6.08114">
        <ele>267.2</ele>
        <time>2026-05-12T20:52:40Z</time>
      </trkpt>
      <trkpt lat="45.51033" lon="6.08075">
        <ele>267.2</ele>
        <time>2026-05-12T20:52:44Z</time>
      </trkpt>
      <trkpt lat="45.5103" lon="6.08057">
        <ele>267.2</ele>
        <time>2026-05-12T20:52:46Z</time>
      </trkpt>
      <trkpt lat="45.51028" lon="6.08048">
        <ele>267.2</ele>
        <time>2026-05-12T20:52:47Z</time>
      </trkpt>
      <trkpt lat="45.51026" lon="6.08039">
        <ele>267.2</ele>
        <time>2026-05-12T20:52:48Z</time>
      </trkpt>
      <trkpt lat="45.51015" lon="6.08008">
        <ele>267</ele>
        <time>2026-05-12T20:52:52Z</time>
      </trkpt>
      <trkpt lat="45.5099" lon="6.07951">
        <ele>267</ele>
        <time>2026-05-12T20:52:59Z</time>
      </trkpt>
      <trkpt lat="45.50963" lon="6.07899">
        <ele>267</ele>
        <time>2026-05-12T20:53:06Z</time>
      </trkpt>
      <trkpt lat="45.50917" lon="6.07845">
        <ele>267</ele>
        <time>2026-05-12T20:53:15Z</time>
      </trkpt>
      <trkpt lat="45.50887" lon="6.07812">
        <ele>267</ele>
        <time>2026-05-12T20:53:22Z</time>
      </trkpt>
      <trkpt lat="45.50886" lon="6.07804">
        <ele>267</ele>
        <time>2026-05-12T20:53:24Z</time>
      </trkpt>
      <trkpt lat="45.50889" lon="6.07801">
        <ele>267</ele>
        <time>2026-05-12T20:53:25Z</time>
      </trkpt>
      <trkpt lat="45.50898" lon="6.07789">
        <ele>267</ele>
        <time>2026-05-12T20:53:28Z</time>
      </trkpt>
      <trkpt lat="45.50904" lon="6.07779">
        <ele>267</ele>
        <time>2026-05-12T20:53:30Z</time>
      </trkpt>
      <trkpt lat="45.50905" lon="6.07769">
        <ele>267</ele>
        <time>2026-05-12T20:53:32Z</time>
      </trkpt>
      <trkpt lat="45.50903" lon="6.07765">
        <ele>267</ele>
        <time>2026-05-12T20:53:33Z</time>
      </trkpt>
      <trkpt lat="45.50885" lon="6.07736">
        <ele>267</ele>
        <time>2026-05-12T20:53:38Z</time>
      </trkpt>
      <trkpt lat="45.50864" lon="6.07695">
        <ele>267</ele>
        <time>2026-05-12T20:53:44Z</time>
      </trkpt>
      <trkpt lat="45.50854" lon="6.07675">
        <ele>267</ele>
        <time>2026-05-12T20:53:47Z</time>
      </trkpt>
      <trkpt lat="45.50847" lon="6.07661">
        <ele>267</ele>
        <time>2026-05-12T20:53:49Z</time>
      </trkpt>
      <trkpt lat="45.50845" lon="6.07654">
        <ele>267</ele>
        <time>2026-05-12T20:53:50Z</time>
      </trkpt>
      <trkpt lat="45.50838" lon="6.07624">
        <ele>267</ele>
        <time>2026-05-12T20:53:55Z</time>
      </trkpt>
      <trkpt lat="45.50834" lon="6.07619">
        <ele>267</ele>
        <time>2026-05-12T20:53:56Z</time>
      </trkpt>
      <trkpt lat="45.50826" lon="6.07608">
        <ele>267.4</ele>
        <time>2026-05-12T20:53:58Z</time>
      </trkpt>
      <trkpt lat="45.50823" lon="6.07601">
        <ele>267.4</ele>
        <time>2026-05-12T20:53:59Z</time>
      </trkpt>
      <trkpt lat="45.50801" lon="6.07552">
        <ele>267.6</ele>
        <time>2026-05-12T20:54:06Z</time>
      </trkpt>
      <trkpt lat="45.5077" lon="6.07486">
        <ele>267.4</ele>
        <time>2026-05-12T20:54:15Z</time>
      </trkpt>
      <trkpt lat="45.50767" lon="6.07478">
        <ele>267.4</ele>
        <time>2026-05-12T20:54:16Z</time>
      </trkpt>
      <trkpt lat="45.50739" lon="6.07421">
        <ele>267.4</ele>
        <time>2026-05-12T20:54:24Z</time>
      </trkpt>
      <trkpt lat="45.50711" lon="6.07365">
        <ele>267.4</ele>
        <time>2026-05-12T20:54:32Z</time>
      </trkpt>
      <trkpt lat="45.50708" lon="6.07358">
        <ele>267.2</ele>
        <time>2026-05-12T20:54:33Z</time>
      </trkpt>
      <trkpt lat="45.50706" lon="6.07345">
        <ele>267</ele>
        <time>2026-05-12T20:54:35Z</time>
      </trkpt>
      <trkpt lat="45.50707" lon="6.07332">
        <ele>267</ele>
        <time>2026-05-12T20:54:37Z</time>
      </trkpt>
      <trkpt lat="45.50705" lon="6.07319">
        <ele>266.8</ele>
        <time>2026-05-12T20:54:39Z</time>
      </trkpt>
      <trkpt lat="45.5069" lon="6.07269">
        <ele>266.8</ele>
        <time>2026-05-12T20:54:46Z</time>
      </trkpt>
      <trkpt lat="45.50676" lon="6.07221">
        <ele>267</ele>
        <time>2026-05-12T20:54:52Z</time>
      </trkpt>
      <trkpt lat="45.5066" lon="6.07166">
        <ele>267.2</ele>
        <time>2026-05-12T20:54:59Z</time>
      </trkpt>
      <trkpt lat="45.50656" lon="6.0715">
        <ele>267.4</ele>
        <time>2026-05-12T20:55:01Z</time>
      </trkpt>
      <trkpt lat="45.50646" lon="6.07118">
        <ele>267.6</ele>
        <time>2026-05-12T20:55:05Z</time>
      </trkpt>
      <trkpt lat="45.50631" lon="6.0707">
        <ele>268.2</ele>
        <time>2026-05-12T20:55:11Z</time>
      </trkpt>
      <trkpt lat="45.50629" lon="6.07061">
        <ele>268.2</ele>
        <time>2026-05-12T20:55:12Z</time>
      </trkpt>
      <trkpt lat="45.50614" lon="6.07005">
        <ele>268.2</ele>
        <time>2026-05-12T20:55:19Z</time>
      </trkpt>
      <trkpt lat="45.50595" lon="6.06932">
        <ele>268.6</ele>
        <time>2026-05-12T20:55:28Z</time>
      </trkpt>
      <trkpt lat="45.50577" lon="6.06866">
        <ele>268.8</ele>
        <time>2026-05-12T20:55:36Z</time>
      </trkpt>
      <trkpt lat="45.50564" lon="6.06816">
        <ele>268.6</ele>
        <time>2026-05-12T20:55:42Z</time>
      </trkpt>
      <trkpt lat="45.50562" lon="6.06807">
        <ele>268.6</ele>
        <time>2026-05-12T20:55:43Z</time>
      </trkpt>
      <trkpt lat="45.50557" lon="6.0679">
        <ele>268.6</ele>
        <time>2026-05-12T20:55:45Z</time>
      </trkpt>
      <trkpt lat="45.50553" lon="6.06773">
        <ele>268.6</ele>
        <time>2026-05-12T20:55:47Z</time>
      </trkpt>
      <trkpt lat="45.50532" lon="6.06698">
        <ele>268.6</ele>
        <time>2026-05-12T20:55:56Z</time>
      </trkpt>
      <trkpt lat="45.50512" lon="6.06626">
        <ele>268.8</ele>
        <time>2026-05-12T20:56:05Z</time>
      </trkpt>
      <trkpt lat="45.5051" lon="6.06618">
        <ele>269</ele>
        <time>2026-05-12T20:56:06Z</time>
      </trkpt>
      <trkpt lat="45.505" lon="6.06581">
        <ele>269.2</ele>
        <time>2026-05-12T20:56:11Z</time>
      </trkpt>
      <trkpt lat="45.50493" lon="6.06557">
        <ele>269.6</ele>
        <time>2026-05-12T20:56:14Z</time>
      </trkpt>
      <trkpt lat="45.50491" lon="6.06549">
        <ele>269.6</ele>
        <time>2026-05-12T20:56:15Z</time>
      </trkpt>
      <trkpt lat="45.5049" lon="6.06533">
        <ele>269.8</ele>
        <time>2026-05-12T20:56:17Z</time>
      </trkpt>
      <trkpt lat="45.50491" lon="6.06525">
        <ele>269.8</ele>
        <time>2026-05-12T20:56:18Z</time>
      </trkpt>
      <trkpt lat="45.50492" lon="6.06508">
        <ele>269.8</ele>
        <time>2026-05-12T20:56:20Z</time>
      </trkpt>
      <trkpt lat="45.50489" lon="6.06492">
        <ele>270</ele>
        <time>2026-05-12T20:56:22Z</time>
      </trkpt>
      <trkpt lat="45.50476" lon="6.06474">
        <ele>270.2</ele>
        <time>2026-05-12T20:56:25Z</time>
      </trkpt>
      <trkpt lat="45.5047" lon="6.06459">
        <ele>270.2</ele>
        <time>2026-05-12T20:56:27Z</time>
      </trkpt>
      <trkpt lat="45.50468" lon="6.06451">
        <ele>270.4</ele>
        <time>2026-05-12T20:56:28Z</time>
      </trkpt>
      <trkpt lat="45.50452" lon="6.06374">
        <ele>271</ele>
        <time>2026-05-12T20:56:37Z</time>
      </trkpt>
      <trkpt lat="45.5044" lon="6.06316">
        <ele>271.4</ele>
        <time>2026-05-12T20:56:44Z</time>
      </trkpt>
      <trkpt lat="45.50439" lon="6.06309">
        <ele>271.4</ele>
        <time>2026-05-12T20:56:45Z</time>
      </trkpt>
      <trkpt lat="45.50437" lon="6.063">
        <ele>271.6</ele>
        <time>2026-05-12T20:56:46Z</time>
      </trkpt>
      <trkpt lat="45.50436" lon="6.06292">
        <ele>271.6</ele>
        <time>2026-05-12T20:56:47Z</time>
      </trkpt>
      <trkpt lat="45.50437" lon="6.06275">
        <ele>271.8</ele>
        <time>2026-05-12T20:56:49Z</time>
      </trkpt>
      <trkpt lat="45.50437" lon="6.06267">
        <ele>272</ele>
        <time>2026-05-12T20:56:50Z</time>
      </trkpt>
      <trkpt lat="45.50437" lon="6.06251">
        <ele>272.2</ele>
        <time>2026-05-12T20:56:52Z</time>
      </trkpt>
      <trkpt lat="45.50435" lon="6.06243">
        <ele>272.4</ele>
        <time>2026-05-12T20:56:53Z</time>
      </trkpt>
      <trkpt lat="45.50433" lon="6.06236">
        <ele>272.4</ele>
        <time>2026-05-12T20:56:54Z</time>
      </trkpt>
      <trkpt lat="45.5043" lon="6.06228">
        <ele>272.4</ele>
        <time>2026-05-12T20:56:55Z</time>
      </trkpt>
      <trkpt lat="45.50427" lon="6.06213">
        <ele>272.6</ele>
        <time>2026-05-12T20:56:57Z</time>
      </trkpt>
      <trkpt lat="45.50418" lon="6.0615">
        <ele>272.8</ele>
        <time>2026-05-12T20:57:04Z</time>
      </trkpt>
      <trkpt lat="45.50409" lon="6.06074">
        <ele>273.2</ele>
        <time>2026-05-12T20:57:13Z</time>
      </trkpt>
      <trkpt lat="45.50405" lon="6.06038">
        <ele>273.4</ele>
        <time>2026-05-12T20:57:17Z</time>
      </trkpt>
      <trkpt lat="45.50402" lon="6.06003">
        <ele>273.6</ele>
        <time>2026-05-12T20:57:21Z</time>
      </trkpt>
      <trkpt lat="45.50396" lon="6.05934">
        <ele>273.8</ele>
        <time>2026-05-12T20:57:29Z</time>
      </trkpt>
      <trkpt lat="45.50394" lon="6.05901">
        <ele>274</ele>
        <time>2026-05-12T20:57:33Z</time>
      </trkpt>
      <trkpt lat="45.50393" lon="6.05884">
        <ele>274.2</ele>
        <time>2026-05-12T20:57:35Z</time>
      </trkpt>
      <trkpt lat="45.50391" lon="6.05848">
        <ele>274.4</ele>
        <time>2026-05-12T20:57:39Z</time>
      </trkpt>
      <trkpt lat="45.50388" lon="6.05784">
        <ele>274.8</ele>
        <time>2026-05-12T20:57:47Z</time>
      </trkpt>
      <trkpt lat="45.50386" lon="6.05745">
        <ele>275.4</ele>
        <time>2026-05-12T20:57:52Z</time>
      </trkpt>
      <trkpt lat="45.50383" lon="6.05707">
        <ele>276.2</ele>
        <time>2026-05-12T20:57:57Z</time>
      </trkpt>
      <trkpt lat="45.50383" lon="6.05693">
        <ele>276.6</ele>
        <time>2026-05-12T20:57:59Z</time>
      </trkpt>
      <trkpt lat="45.50382" lon="6.05671">
        <ele>277</ele>
        <time>2026-05-12T20:58:02Z</time>
      </trkpt>
      <trkpt lat="45.50381" lon="6.05658">
        <ele>277.2</ele>
        <time>2026-05-12T20:58:04Z</time>
      </trkpt>
      <trkpt lat="45.5038" lon="6.05638">
        <ele>277.6</ele>
        <time>2026-05-12T20:58:07Z</time>
      </trkpt>
      <trkpt lat="45.50379" lon="6.05613">
        <ele>278</ele>
        <time>2026-05-12T20:58:11Z</time>
      </trkpt>
      <trkpt lat="45.50379" lon="6.05596">
        <ele>278.2</ele>
        <time>2026-05-12T20:58:14Z</time>
      </trkpt>
      <trkpt lat="45.50377" lon="6.05578">
        <ele>278.4</ele>
        <time>2026-05-12T20:58:17Z</time>
      </trkpt>
      <trkpt lat="45.50377" lon="6.05572">
        <ele>278.6</ele>
        <time>2026-05-12T20:58:18Z</time>
      </trkpt>
      <trkpt lat="45.50376" lon="6.05566">
        <ele>278.8</ele>
        <time>2026-05-12T20:58:19Z</time>
      </trkpt>
      <trkpt lat="45.50375" lon="6.05543">
        <ele>279.8</ele>
        <time>2026-05-12T20:58:23Z</time>
      </trkpt>
      <trkpt lat="45.50375" lon="6.05538">
        <ele>280</ele>
        <time>2026-05-12T20:58:24Z</time>
      </trkpt>
      <trkpt lat="45.50374" lon="6.05532">
        <ele>280.2</ele>
        <time>2026-05-12T20:58:25Z</time>
      </trkpt>
      <trkpt lat="45.50375" lon="6.05512">
        <ele>281</ele>
        <time>2026-05-12T20:58:29Z</time>
      </trkpt>
      <trkpt lat="45.50374" lon="6.05502">
        <ele>281.4</ele>
        <time>2026-05-12T20:58:31Z</time>
      </trkpt>
      <trkpt lat="45.5037" lon="6.05483">
        <ele>282.2</ele>
        <time>2026-05-12T20:58:35Z</time>
      </trkpt>
      <trkpt lat="45.50368" lon="6.05469">
        <ele>282.6</ele>
        <time>2026-05-12T20:58:38Z</time>
      </trkpt>
      <trkpt lat="45.50368" lon="6.05458">
        <ele>283.2</ele>
        <time>2026-05-12T20:58:40Z</time>
      </trkpt>
      <trkpt lat="45.50369" lon="6.0544">
        <ele>284.6</ele>
        <time>2026-05-12T20:58:44Z</time>
      </trkpt>
      <trkpt lat="45.50368" lon="6.0543">
        <ele>285</ele>
        <time>2026-05-12T20:58:46Z</time>
      </trkpt>
      <trkpt lat="45.50367" lon="6.05416">
        <ele>285.6</ele>
        <time>2026-05-12T20:58:49Z</time>
      </trkpt>
      <trkpt lat="45.50367" lon="6.05397">
        <ele>286.4</ele>
        <time>2026-05-12T20:58:53Z</time>
      </trkpt>
      <trkpt lat="45.50366" lon="6.05388">
        <ele>286.8</ele>
        <time>2026-05-12T20:58:55Z</time>
      </trkpt>
      <trkpt lat="45.50361" lon="6.05375">
        <ele>287.4</ele>
        <time>2026-05-12T20:58:58Z</time>
      </trkpt>
      <trkpt lat="45.50358" lon="6.05371">
        <ele>287.8</ele>
        <time>2026-05-12T20:58:59Z</time>
      </trkpt>
      <trkpt lat="45.50347" lon="6.05356">
        <ele>288.4</ele>
        <time>2026-05-12T20:59:03Z</time>
      </trkpt>
      <trkpt lat="45.50343" lon="6.05347">
        <ele>289</ele>
        <time>2026-05-12T20:59:05Z</time>
      </trkpt>
      <trkpt lat="45.50333" lon="6.05325">
        <ele>289.8</ele>
        <time>2026-05-12T20:59:10Z</time>
      </trkpt>
      <trkpt lat="45.5033" lon="6.0532">
        <ele>290</ele>
        <time>2026-05-12T20:59:11Z</time>
      </trkpt>
      <trkpt lat="45.50318" lon="6.05302">
        <ele>291</ele>
        <time>2026-05-12T20:59:16Z</time>
      </trkpt>
      <trkpt lat="45.50309" lon="6.05291">
        <ele>291.8</ele>
        <time>2026-05-12T20:59:19Z</time>
      </trkpt>
      <trkpt lat="45.50304" lon="6.05286">
        <ele>292</ele>
        <time>2026-05-12T20:59:21Z</time>
      </trkpt>
      <trkpt lat="45.50284" lon="6.05268">
        <ele>293.2</ele>
        <time>2026-05-12T20:59:27Z</time>
      </trkpt>
      <trkpt lat="45.50268" lon="6.05253">
        <ele>294.2</ele>
        <time>2026-05-12T20:59:32Z</time>
      </trkpt>
      <trkpt lat="45.50263" lon="6.05245">
        <ele>294.6</ele>
        <time>2026-05-12T20:59:34Z</time>
      </trkpt>
      <trkpt lat="45.50252" lon="6.05225">
        <ele>295.2</ele>
        <time>2026-05-12T20:59:38Z</time>
      </trkpt>
      <trkpt lat="45.50248" lon="6.05222">
        <ele>295.4</ele>
        <time>2026-05-12T20:59:39Z</time>
      </trkpt>
      <trkpt lat="45.50243" lon="6.05219">
        <ele>295.4</ele>
        <time>2026-05-12T20:59:40Z</time>
      </trkpt>
      <trkpt lat="45.50225" lon="6.0521">
        <ele>295.6</ele>
        <time>2026-05-12T20:59:44Z</time>
      </trkpt>
      <trkpt lat="45.50213" lon="6.05195">
        <ele>295.8</ele>
        <time>2026-05-12T20:59:47Z</time>
      </trkpt>
      <trkpt lat="45.50205" lon="6.05182">
        <ele>295.8</ele>
        <time>2026-05-12T20:59:49Z</time>
      </trkpt>
      <trkpt lat="45.50181" lon="6.0514">
        <ele>294.8</ele>
        <time>2026-05-12T20:59:55Z</time>
      </trkpt>
      <trkpt lat="45.50179" lon="6.05124">
        <ele>294.6</ele>
        <time>2026-05-12T20:59:57Z</time>
      </trkpt>
      <trkpt lat="45.5018" lon="6.05117">
        <ele>294.6</ele>
        <time>2026-05-12T20:59:58Z</time>
      </trkpt>
      <trkpt lat="45.5018" lon="6.05109">
        <ele>294.4</ele>
        <time>2026-05-12T20:59:59Z</time>
      </trkpt>
      <trkpt lat="45.5018" lon="6.05101">
        <ele>294.2</ele>
        <time>2026-05-12T21:00:00Z</time>
      </trkpt>
      <trkpt lat="45.50179" lon="6.05095">
        <ele>294</ele>
        <time>2026-05-12T21:00:01Z</time>
      </trkpt>
      <trkpt lat="45.50177" lon="6.0509">
        <ele>294</ele>
        <time>2026-05-12T21:00:02Z</time>
      </trkpt>
      <trkpt lat="45.50173" lon="6.05084">
        <ele>293.8</ele>
        <time>2026-05-12T21:00:03Z</time>
      </trkpt>
      <trkpt lat="45.50164" lon="6.05081">
        <ele>293.6</ele>
        <time>2026-05-12T21:00:05Z</time>
      </trkpt>
      <trkpt lat="45.50151" lon="6.05081">
        <ele>293.4</ele>
        <time>2026-05-12T21:00:08Z</time>
      </trkpt>
      <trkpt lat="45.50141" lon="6.05077">
        <ele>293.4</ele>
        <time>2026-05-12T21:00:10Z</time>
      </trkpt>
      <trkpt lat="45.50134" lon="6.05069">
        <ele>293.2</ele>
        <time>2026-05-12T21:00:12Z</time>
      </trkpt>
      <trkpt lat="45.5012" lon="6.05053">
        <ele>293</ele>
        <time>2026-05-12T21:00:15Z</time>
      </trkpt>
      <trkpt lat="45.50098" lon="6.05021">
        <ele>292.6</ele>
        <time>2026-05-12T21:00:21Z</time>
      </trkpt>
      <trkpt lat="45.50095" lon="6.05013">
        <ele>292.4</ele>
        <time>2026-05-12T21:00:22Z</time>
      </trkpt>
      <trkpt lat="45.50092" lon="6.05007">
        <ele>292.4</ele>
        <time>2026-05-12T21:00:23Z</time>
      </trkpt>
      <trkpt lat="45.50078" lon="6.0497">
        <ele>292.2</ele>
        <time>2026-05-12T21:00:28Z</time>
      </trkpt>
      <trkpt lat="45.50068" lon="6.04948">
        <ele>292.2</ele>
        <time>2026-05-12T21:00:31Z</time>
      </trkpt>
      <trkpt lat="45.50065" lon="6.0494">
        <ele>292.2</ele>
        <time>2026-05-12T21:00:32Z</time>
      </trkpt>
      <trkpt lat="45.50062" lon="6.04933">
        <ele>292.2</ele>
        <time>2026-05-12T21:00:33Z</time>
      </trkpt>
      <trkpt lat="45.50055" lon="6.04911">
        <ele>292</ele>
        <time>2026-05-12T21:00:36Z</time>
      </trkpt>
      <trkpt lat="45.50053" lon="6.04892">
        <ele>292</ele>
        <time>2026-05-12T21:00:38Z</time>
      </trkpt>
      <trkpt lat="45.50055" lon="6.04869">
        <ele>291.8</ele>
        <time>2026-05-12T21:00:41Z</time>
      </trkpt>
      <trkpt lat="45.50054" lon="6.04859">
        <ele>291.8</ele>
        <time>2026-05-12T21:00:42Z</time>
      </trkpt>
      <trkpt lat="45.50051" lon="6.04851">
        <ele>291.8</ele>
        <time>2026-05-12T21:00:43Z</time>
      </trkpt>
      <trkpt lat="45.50046" lon="6.04836">
        <ele>291.6</ele>
        <time>2026-05-12T21:00:45Z</time>
      </trkpt>
      <trkpt lat="45.50042" lon="6.04821">
        <ele>291.6</ele>
        <time>2026-05-12T21:00:47Z</time>
      </trkpt>
      <trkpt lat="45.50036" lon="6.04775">
        <ele>291.2</ele>
        <time>2026-05-12T21:00:52Z</time>
      </trkpt>
      <trkpt lat="45.50034" lon="6.04758">
        <ele>291</ele>
        <time>2026-05-12T21:00:54Z</time>
      </trkpt>
      <trkpt lat="45.50031" lon="6.04726">
        <ele>290.6</ele>
        <time>2026-05-12T21:00:58Z</time>
      </trkpt>
      <trkpt lat="45.50027" lon="6.04693">
        <ele>290</ele>
        <time>2026-05-12T21:01:02Z</time>
      </trkpt>
      <trkpt lat="45.50025" lon="6.04669">
        <ele>289.8</ele>
        <time>2026-05-12T21:01:05Z</time>
      </trkpt>
      <trkpt lat="45.50017" lon="6.04602">
        <ele>289.2</ele>
        <time>2026-05-12T21:01:14Z</time>
      </trkpt>
      <trkpt lat="45.50016" lon="6.04593">
        <ele>289.2</ele>
        <time>2026-05-12T21:01:15Z</time>
      </trkpt>
      <trkpt lat="45.50018" lon="6.0458">
        <ele>289.2</ele>
        <time>2026-05-12T21:01:17Z</time>
      </trkpt>
      <trkpt lat="45.5002" lon="6.04572">
        <ele>289.2</ele>
        <time>2026-05-12T21:01:18Z</time>
      </trkpt>
      <trkpt lat="45.50026" lon="6.04552">
        <ele>289.2</ele>
        <time>2026-05-12T21:01:21Z</time>
      </trkpt>
      <trkpt lat="45.50027" lon="6.04545">
        <ele>289.2</ele>
        <time>2026-05-12T21:01:22Z</time>
      </trkpt>
      <trkpt lat="45.50027" lon="6.04539">
        <ele>289.2</ele>
        <time>2026-05-12T21:01:23Z</time>
      </trkpt>
      <trkpt lat="45.50025" lon="6.04511">
        <ele>289.4</ele>
        <time>2026-05-12T21:01:27Z</time>
      </trkpt>
      <trkpt lat="45.50027" lon="6.04497">
        <ele>289.6</ele>
        <time>2026-05-12T21:01:29Z</time>
      </trkpt>
      <trkpt lat="45.50032" lon="6.04484">
        <ele>290</ele>
        <time>2026-05-12T21:01:31Z</time>
      </trkpt>
      <trkpt lat="45.50035" lon="6.04477">
        <ele>290.2</ele>
        <time>2026-05-12T21:01:32Z</time>
      </trkpt>
      <trkpt lat="45.50052" lon="6.04434">
        <ele>290.4</ele>
        <time>2026-05-12T21:01:38Z</time>
      </trkpt>
      <trkpt lat="45.50078" lon="6.04374">
        <ele>290</ele>
        <time>2026-05-12T21:01:45Z</time>
      </trkpt>
      <trkpt lat="45.50093" lon="6.04334">
        <ele>288.6</ele>
        <time>2026-05-12T21:01:49Z</time>
      </trkpt>
      <trkpt lat="45.50106" lon="6.04302">
        <ele>287.2</ele>
        <time>2026-05-12T21:01:52Z</time>
      </trkpt>
      <trkpt lat="45.50119" lon="6.04271">
        <ele>286</ele>
        <time>2026-05-12T21:01:55Z</time>
      </trkpt>
      <trkpt lat="45.50136" lon="6.04234">
        <ele>285.2</ele>
        <time>2026-05-12T21:01:59Z</time>
      </trkpt>
      <trkpt lat="45.5014" lon="6.04226">
        <ele>285</ele>
        <time>2026-05-12T21:02:00Z</time>
      </trkpt>
      <trkpt lat="45.50162" lon="6.04184">
        <ele>284.4</ele>
        <time>2026-05-12T21:02:05Z</time>
      </trkpt>
      <trkpt lat="45.50186" lon="6.04146">
        <ele>284</ele>
        <time>2026-05-12T21:02:10Z</time>
      </trkpt>
      <trkpt lat="45.50227" lon="6.04091">
        <ele>283.4</ele>
        <time>2026-05-12T21:02:18Z</time>
      </trkpt>
      <trkpt lat="45.50232" lon="6.04085">
        <ele>283.4</ele>
        <time>2026-05-12T21:02:19Z</time>
      </trkpt>
      <trkpt lat="45.50277" lon="6.04032">
        <ele>282.8</ele>
        <time>2026-05-12T21:02:27Z</time>
      </trkpt>
      <trkpt lat="45.50282" lon="6.04025">
        <ele>282.8</ele>
        <time>2026-05-12T21:02:28Z</time>
      </trkpt>
      <trkpt lat="45.50316" lon="6.03977">
        <ele>282.4</ele>
        <time>2026-05-12T21:02:35Z</time>
      </trkpt>
      <trkpt lat="45.5033" lon="6.03957">
        <ele>282.2</ele>
        <time>2026-05-12T21:02:38Z</time>
      </trkpt>
      <trkpt lat="45.50333" lon="6.03955">
        <ele>282.2</ele>
        <time>2026-05-12T21:02:39Z</time>
      </trkpt>
      <trkpt lat="45.50338" lon="6.03953">
        <ele>282.2</ele>
        <time>2026-05-12T21:02:40Z</time>
      </trkpt>
      <trkpt lat="45.50345" lon="6.03944">
        <ele>282</ele>
        <time>2026-05-12T21:02:42Z</time>
      </trkpt>
      <trkpt lat="45.50346" lon="6.0393">
        <ele>281.8</ele>
        <time>2026-05-12T21:02:44Z</time>
      </trkpt>
      <trkpt lat="45.50343" lon="6.03924">
        <ele>281.8</ele>
        <time>2026-05-12T21:02:45Z</time>
      </trkpt>
      <trkpt lat="45.50339" lon="6.0392">
        <ele>281.8</ele>
        <time>2026-05-12T21:02:46Z</time>
      </trkpt>
      <trkpt lat="45.5032" lon="6.039">
        <ele>281.8</ele>
        <time>2026-05-12T21:02:50Z</time>
      </trkpt>
      <trkpt lat="45.50294" lon="6.03862">
        <ele>282.2</ele>
        <time>2026-05-12T21:02:57Z</time>
      </trkpt>
      <trkpt lat="45.50269" lon="6.03817">
        <ele>282.8</ele>
        <time>2026-05-12T21:03:04Z</time>
      </trkpt>
      <trkpt lat="45.50266" lon="6.03809">
        <ele>282.8</ele>
        <time>2026-05-12T21:03:05Z</time>
      </trkpt>
      <trkpt lat="45.50263" lon="6.03792">
        <ele>283</ele>
        <time>2026-05-12T21:03:07Z</time>
      </trkpt>
      <trkpt lat="45.50262" lon="6.03783">
        <ele>283</ele>
        <time>2026-05-12T21:03:08Z</time>
      </trkpt>
      <trkpt lat="45.50261" lon="6.0372">
        <ele>283.4</ele>
        <time>2026-05-12T21:03:15Z</time>
      </trkpt>
      <trkpt lat="45.50267" lon="6.0364">
        <ele>283.2</ele>
        <time>2026-05-12T21:03:24Z</time>
      </trkpt>
      <trkpt lat="45.50266" lon="6.03623">
        <ele>283.2</ele>
        <time>2026-05-12T21:03:26Z</time>
      </trkpt>
      <trkpt lat="45.5026" lon="6.0356">
        <ele>283.2</ele>
        <time>2026-05-12T21:03:33Z</time>
      </trkpt>
      <trkpt lat="45.50241" lon="6.03499">
        <ele>282.4</ele>
        <time>2026-05-12T21:03:40Z</time>
      </trkpt>
      <trkpt lat="45.50227" lon="6.03465">
        <ele>281.6</ele>
        <time>2026-05-12T21:03:44Z</time>
      </trkpt>
      <trkpt lat="45.50212" lon="6.03431">
        <ele>281.2</ele>
        <time>2026-05-12T21:03:48Z</time>
      </trkpt>
      <trkpt lat="45.50185" lon="6.03368">
        <ele>280.8</ele>
        <time>2026-05-12T21:03:56Z</time>
      </trkpt>
      <trkpt lat="45.50181" lon="6.03359">
        <ele>280.8</ele>
        <time>2026-05-12T21:03:57Z</time>
      </trkpt>
      <trkpt lat="45.50179" lon="6.03341">
        <ele>280.6</ele>
        <time>2026-05-12T21:03:59Z</time>
      </trkpt>
      <trkpt lat="45.50178" lon="6.03326">
        <ele>280.6</ele>
        <time>2026-05-12T21:04:01Z</time>
      </trkpt>
      <trkpt lat="45.50175" lon="6.03309">
        <ele>280.6</ele>
        <time>2026-05-12T21:04:03Z</time>
      </trkpt>
      <trkpt lat="45.50174" lon="6.03292">
        <ele>280.6</ele>
        <time>2026-05-12T21:04:05Z</time>
      </trkpt>
      <trkpt lat="45.50174" lon="6.03275">
        <ele>280.6</ele>
        <time>2026-05-12T21:04:07Z</time>
      </trkpt>
      <trkpt lat="45.50175" lon="6.03267">
        <ele>280.8</ele>
        <time>2026-05-12T21:04:08Z</time>
      </trkpt>
      <trkpt lat="45.50178" lon="6.03203">
        <ele>281.8</ele>
        <time>2026-05-12T21:04:16Z</time>
      </trkpt>
      <trkpt lat="45.50176" lon="6.03135">
        <ele>282.2</ele>
        <time>2026-05-12T21:04:25Z</time>
      </trkpt>
      <trkpt lat="45.50177" lon="6.03102">
        <ele>282.6</ele>
        <time>2026-05-12T21:04:29Z</time>
      </trkpt>
      <trkpt lat="45.5018" lon="6.03075">
        <ele>282.8</ele>
        <time>2026-05-12T21:04:33Z</time>
      </trkpt>
      <trkpt lat="45.50183" lon="6.03003">
        <ele>283.4</ele>
        <time>2026-05-12T21:04:42Z</time>
      </trkpt>
      <trkpt lat="45.50175" lon="6.02953">
        <ele>283.4</ele>
        <time>2026-05-12T21:04:48Z</time>
      </trkpt>
      <trkpt lat="45.50159" lon="6.02879">
        <ele>283.2</ele>
        <time>2026-05-12T21:04:57Z</time>
      </trkpt>
      <trkpt lat="45.50139" lon="6.0283">
        <ele>283.4</ele>
        <time>2026-05-12T21:05:04Z</time>
      </trkpt>
      <trkpt lat="45.50137" lon="6.02822">
        <ele>283.4</ele>
        <time>2026-05-12T21:05:05Z</time>
      </trkpt>
      <trkpt lat="45.50135" lon="6.02814">
        <ele>283.4</ele>
        <time>2026-05-12T21:05:06Z</time>
      </trkpt>
      <trkpt lat="45.50134" lon="6.02789">
        <ele>283.6</ele>
        <time>2026-05-12T21:05:09Z</time>
      </trkpt>
      <trkpt lat="45.50134" lon="6.02781">
        <ele>283.6</ele>
        <time>2026-05-12T21:05:10Z</time>
      </trkpt>
      <trkpt lat="45.50127" lon="6.02768">
        <ele>283.6</ele>
        <time>2026-05-12T21:05:12Z</time>
      </trkpt>
      <trkpt lat="45.50123" lon="6.02763">
        <ele>283.6</ele>
        <time>2026-05-12T21:05:13Z</time>
      </trkpt>
      <trkpt lat="45.50114" lon="6.02753">
        <ele>283.8</ele>
        <time>2026-05-12T21:05:15Z</time>
      </trkpt>
      <trkpt lat="45.5011" lon="6.02747">
        <ele>283.8</ele>
        <time>2026-05-12T21:05:16Z</time>
      </trkpt>
      <trkpt lat="45.50107" lon="6.0274">
        <ele>283.8</ele>
        <time>2026-05-12T21:05:17Z</time>
      </trkpt>
      <trkpt lat="45.50099" lon="6.02719">
        <ele>284.2</ele>
        <time>2026-05-12T21:05:20Z</time>
      </trkpt>
      <trkpt lat="45.50092" lon="6.027">
        <ele>284.6</ele>
        <time>2026-05-12T21:05:23Z</time>
      </trkpt>
      <trkpt lat="45.50076" lon="6.02654">
        <ele>285.6</ele>
        <time>2026-05-12T21:05:31Z</time>
      </trkpt>
      <trkpt lat="45.50074" lon="6.02648">
        <ele>285.8</ele>
        <time>2026-05-12T21:05:32Z</time>
      </trkpt>
      <trkpt lat="45.50065" lon="6.0261">
        <ele>286.6</ele>
        <time>2026-05-12T21:05:38Z</time>
      </trkpt>
      <trkpt lat="45.50062" lon="6.02599">
        <ele>286.8</ele>
        <time>2026-05-12T21:05:40Z</time>
      </trkpt>
      <trkpt lat="45.50057" lon="6.02577">
        <ele>287.8</ele>
        <time>2026-05-12T21:05:44Z</time>
      </trkpt>
      <trkpt lat="45.50052" lon="6.02561">
        <ele>289</ele>
        <time>2026-05-12T21:05:47Z</time>
      </trkpt>
      <trkpt lat="45.50046" lon="6.02524">
        <ele>290</ele>
        <time>2026-05-12T21:05:54Z</time>
      </trkpt>
      <trkpt lat="45.50038" lon="6.02485">
        <ele>291.4</ele>
        <time>2026-05-12T21:06:01Z</time>
      </trkpt>
      <trkpt lat="45.50036" lon="6.02479">
        <ele>291.4</ele>
        <time>2026-05-12T21:06:02Z</time>
      </trkpt>
      <trkpt lat="45.50026" lon="6.02443">
        <ele>292.4</ele>
        <time>2026-05-12T21:06:08Z</time>
      </trkpt>
      <trkpt lat="45.50021" lon="6.02429">
        <ele>292.6</ele>
        <time>2026-05-12T21:06:10Z</time>
      </trkpt>
      <trkpt lat="45.5001" lon="6.0238">
        <ele>292.8</ele>
        <time>2026-05-12T21:06:17Z</time>
      </trkpt>
      <trkpt lat="45.5" lon="6.0233">
        <ele>292.4</ele>
        <time>2026-05-12T21:06:23Z</time>
      </trkpt>
      <trkpt lat="45.49993" lon="6.02277">
        <ele>292.2</ele>
        <time>2026-05-12T21:06:29Z</time>
      </trkpt>
      <trkpt lat="45.49996" lon="6.02207">
        <ele>292.2</ele>
        <time>2026-05-12T21:06:37Z</time>
      </trkpt>
      <trkpt lat="45.5" lon="6.02136">
        <ele>291.2</ele>
        <time>2026-05-12T21:06:45Z</time>
      </trkpt>
      <trkpt lat="45.5" lon="6.02127">
        <ele>291</ele>
        <time>2026-05-12T21:06:46Z</time>
      </trkpt>
      <trkpt lat="45.49998" lon="6.02091">
        <ele>290</ele>
        <time>2026-05-12T21:06:50Z</time>
      </trkpt>
      <trkpt lat="45.49995" lon="6.02063">
        <ele>289.8</ele>
        <time>2026-05-12T21:06:53Z</time>
      </trkpt>
      <trkpt lat="45.49985" lon="6.02019">
        <ele>289</ele>
        <time>2026-05-12T21:06:58Z</time>
      </trkpt>
      <trkpt lat="45.49983" lon="6.0201">
        <ele>289</ele>
        <time>2026-05-12T21:06:59Z</time>
      </trkpt>
      <trkpt lat="45.49972" lon="6.01978">
        <ele>288.8</ele>
        <time>2026-05-12T21:07:03Z</time>
      </trkpt>
      <trkpt lat="45.49967" lon="6.01963">
        <ele>288.8</ele>
        <time>2026-05-12T21:07:05Z</time>
      </trkpt>
      <trkpt lat="45.49946" lon="6.01897">
        <ele>289.8</ele>
        <time>2026-05-12T21:07:14Z</time>
      </trkpt>
      <trkpt lat="45.49941" lon="6.01878">
        <ele>290.2</ele>
        <time>2026-05-12T21:07:17Z</time>
      </trkpt>
      <trkpt lat="45.49935" lon="6.0186">
        <ele>290.6</ele>
        <time>2026-05-12T21:07:20Z</time>
      </trkpt>
      <trkpt lat="45.49929" lon="6.01839">
        <ele>291.2</ele>
        <time>2026-05-12T21:07:24Z</time>
      </trkpt>
      <trkpt lat="45.49925" lon="6.01819">
        <ele>292</ele>
        <time>2026-05-12T21:07:28Z</time>
      </trkpt>
      <trkpt lat="45.49924" lon="6.01814">
        <ele>292.4</ele>
        <time>2026-05-12T21:07:29Z</time>
      </trkpt>
      <trkpt lat="45.4992" lon="6.01791">
        <ele>293.2</ele>
        <time>2026-05-12T21:07:34Z</time>
      </trkpt>
      <trkpt lat="45.49919" lon="6.01787">
        <ele>293.4</ele>
        <time>2026-05-12T21:07:35Z</time>
      </trkpt>
      <trkpt lat="45.49917" lon="6.01764">
        <ele>294.4</ele>
        <time>2026-05-12T21:07:40Z</time>
      </trkpt>
      <trkpt lat="45.49917" lon="6.0176">
        <ele>294.6</ele>
        <time>2026-05-12T21:07:41Z</time>
      </trkpt>
      <trkpt lat="45.49917" lon="6.01743">
        <ele>295.6</ele>
        <time>2026-05-12T21:07:45Z</time>
      </trkpt>
      <trkpt lat="45.49918" lon="6.01725">
        <ele>296.6</ele>
        <time>2026-05-12T21:07:49Z</time>
      </trkpt>
      <trkpt lat="45.49919" lon="6.01721">
        <ele>297</ele>
        <time>2026-05-12T21:07:50Z</time>
      </trkpt>
      <trkpt lat="45.49921" lon="6.01705">
        <ele>297.8</ele>
        <time>2026-05-12T21:07:54Z</time>
      </trkpt>
      <trkpt lat="45.49923" lon="6.01682">
        <ele>299</ele>
        <time>2026-05-12T21:07:59Z</time>
      </trkpt>
      <trkpt lat="45.49924" lon="6.01678">
        <ele>299.2</ele>
        <time>2026-05-12T21:08:00Z</time>
      </trkpt>
      <trkpt lat="45.49927" lon="6.01662">
        <ele>299.8</ele>
        <time>2026-05-12T21:08:04Z</time>
      </trkpt>
      <trkpt lat="45.49932" lon="6.01644">
        <ele>300.8</ele>
        <time>2026-05-12T21:08:08Z</time>
      </trkpt>
      <trkpt lat="45.49933" lon="6.0164">
        <ele>301.2</ele>
        <time>2026-05-12T21:08:09Z</time>
      </trkpt>
      <trkpt lat="45.49941" lon="6.01622">
        <ele>302.2</ele>
        <time>2026-05-12T21:08:14Z</time>
      </trkpt>
      <trkpt lat="45.49946" lon="6.01611">
        <ele>303.4</ele>
        <time>2026-05-12T21:08:17Z</time>
      </trkpt>
      <trkpt lat="45.49954" lon="6.01597">
        <ele>304.4</ele>
        <time>2026-05-12T21:08:21Z</time>
      </trkpt>
      <trkpt lat="45.49962" lon="6.01582">
        <ele>305.2</ele>
        <time>2026-05-12T21:08:25Z</time>
      </trkpt>
      <trkpt lat="45.49966" lon="6.01574">
        <ele>305.4</ele>
        <time>2026-05-12T21:08:27Z</time>
      </trkpt>
      <trkpt lat="45.49976" lon="6.0155">
        <ele>306.4</ele>
        <time>2026-05-12T21:08:32Z</time>
      </trkpt>
      <trkpt lat="45.49989" lon="6.01518">
        <ele>307.4</ele>
        <time>2026-05-12T21:08:39Z</time>
      </trkpt>
      <trkpt lat="45.49994" lon="6.01502">
        <ele>308</ele>
        <time>2026-05-12T21:08:42Z</time>
      </trkpt>
      <trkpt lat="45.49999" lon="6.01484">
        <ele>308.6</ele>
        <time>2026-05-12T21:08:46Z</time>
      </trkpt>
      <trkpt lat="45.50004" lon="6.01459">
        <ele>308.6</ele>
        <time>2026-05-12T21:08:49Z</time>
      </trkpt>
      <trkpt lat="45.50017" lon="6.01396">
        <ele>308.8</ele>
        <time>2026-05-12T21:08:58Z</time>
      </trkpt>
      <trkpt lat="45.50035" lon="6.01324">
        <ele>308.6</ele>
        <time>2026-05-12T21:09:07Z</time>
      </trkpt>
      <trkpt lat="45.5005" lon="6.01277">
        <ele>307.6</ele>
        <time>2026-05-12T21:09:13Z</time>
      </trkpt>
      <trkpt lat="45.50058" lon="6.0125">
        <ele>307</ele>
        <time>2026-05-12T21:09:16Z</time>
      </trkpt>
      <trkpt lat="45.50071" lon="6.01209">
        <ele>306.4</ele>
        <time>2026-05-12T21:09:21Z</time>
      </trkpt>
      <trkpt lat="45.50081" lon="6.01168">
        <ele>306</ele>
        <time>2026-05-12T21:09:26Z</time>
      </trkpt>
      <trkpt lat="45.50086" lon="6.01105">
        <ele>305.6</ele>
        <time>2026-05-12T21:09:33Z</time>
      </trkpt>
      <trkpt lat="45.50086" lon="6.01096">
        <ele>305.4</ele>
        <time>2026-05-12T21:09:34Z</time>
      </trkpt>
      <trkpt lat="45.50091" lon="6.01034">
        <ele>305</ele>
        <time>2026-05-12T21:09:41Z</time>
      </trkpt>
      <trkpt lat="45.50093" lon="6.01015">
        <ele>304.4</ele>
        <time>2026-05-12T21:09:43Z</time>
      </trkpt>
      <trkpt lat="45.50104" lon="6.00948">
        <ele>304.4</ele>
        <time>2026-05-12T21:09:51Z</time>
      </trkpt>
      <trkpt lat="45.50116" lon="6.00877">
        <ele>304.6</ele>
        <time>2026-05-12T21:10:00Z</time>
      </trkpt>
      <trkpt lat="45.50116" lon="6.00823">
        <ele>305.4</ele>
        <time>2026-05-12T21:10:07Z</time>
      </trkpt>
      <trkpt lat="45.50114" lon="6.00809">
        <ele>305.6</ele>
        <time>2026-05-12T21:10:09Z</time>
      </trkpt>
      <trkpt lat="45.5011" lon="6.00778">
        <ele>306.8</ele>
        <time>2026-05-12T21:10:14Z</time>
      </trkpt>
      <trkpt lat="45.50102" lon="6.00735">
        <ele>307.8</ele>
        <time>2026-05-12T21:10:21Z</time>
      </trkpt>
      <trkpt lat="45.501" lon="6.00722">
        <ele>308.2</ele>
        <time>2026-05-12T21:10:23Z</time>
      </trkpt>
      <trkpt lat="45.50098" lon="6.00715">
        <ele>308.2</ele>
        <time>2026-05-12T21:10:24Z</time>
      </trkpt>
      <trkpt lat="45.50089" lon="6.00669">
        <ele>308.4</ele>
        <time>2026-05-12T21:10:30Z</time>
      </trkpt>
      <trkpt lat="45.50088" lon="6.00621">
        <ele>308</ele>
        <time>2026-05-12T21:10:35Z</time>
      </trkpt>
      <trkpt lat="45.5009" lon="6.00602">
        <ele>306.8</ele>
        <time>2026-05-12T21:10:37Z</time>
      </trkpt>
      <trkpt lat="45.50091" lon="6.00592">
        <ele>306.6</ele>
        <time>2026-05-12T21:10:38Z</time>
      </trkpt>
      <trkpt lat="45.50094" lon="6.00572">
        <ele>306</ele>
        <time>2026-05-12T21:10:40Z</time>
      </trkpt>
      <trkpt lat="45.50095" lon="6.00562">
        <ele>305.4</ele>
        <time>2026-05-12T21:10:41Z</time>
      </trkpt>
      <trkpt lat="45.50098" lon="6.00531">
        <ele>304</ele>
        <time>2026-05-12T21:10:44Z</time>
      </trkpt>
      <trkpt lat="45.50098" lon="6.00509">
        <ele>303</ele>
        <time>2026-05-12T21:10:46Z</time>
      </trkpt>
      <trkpt lat="45.50098" lon="6.00498">
        <ele>302.6</ele>
        <time>2026-05-12T21:10:47Z</time>
      </trkpt>
      <trkpt lat="45.50096" lon="6.00475">
        <ele>302</ele>
        <time>2026-05-12T21:10:49Z</time>
      </trkpt>
      <trkpt lat="45.50093" lon="6.00454">
        <ele>301.4</ele>
        <time>2026-05-12T21:10:52Z</time>
      </trkpt>
      <trkpt lat="45.50088" lon="6.00434">
        <ele>300.8</ele>
        <time>2026-05-12T21:10:53Z</time>
      </trkpt>
      <trkpt lat="45.50081" lon="6.00417">
        <ele>300.2</ele>
        <time>2026-05-12T21:10:55Z</time>
      </trkpt>
      <trkpt lat="45.50061" lon="6.00375">
        <ele>299.8</ele>
        <time>2026-05-12T21:11:01Z</time>
      </trkpt>
      <trkpt lat="45.50047" lon="6.00345">
        <ele>301</ele>
        <time>2026-05-12T21:11:07Z</time>
      </trkpt>
      <trkpt lat="45.50044" lon="6.00332">
        <ele>301.8</ele>
        <time>2026-05-12T21:11:10Z</time>
      </trkpt>
      <trkpt lat="45.5004" lon="6.00323">
        <ele>302.2</ele>
        <time>2026-05-12T21:11:12Z</time>
      </trkpt>
      <trkpt lat="45.50035" lon="6.0031">
        <ele>303</ele>
        <time>2026-05-12T21:11:15Z</time>
      </trkpt>
      <trkpt lat="45.50029" lon="6.00292">
        <ele>304.2</ele>
        <time>2026-05-12T21:11:19Z</time>
      </trkpt>
      <trkpt lat="45.50027" lon="6.00273">
        <ele>305.6</ele>
        <time>2026-05-12T21:11:23Z</time>
      </trkpt>
      <trkpt lat="45.50029" lon="6.00267">
        <ele>306</ele>
        <time>2026-05-12T21:11:24Z</time>
      </trkpt>
      <trkpt lat="45.50036" lon="6.00246">
        <ele>307</ele>
        <time>2026-05-12T21:11:28Z</time>
      </trkpt>
      <trkpt lat="45.50038" lon="6.0024">
        <ele>307</ele>
        <time>2026-05-12T21:11:29Z</time>
      </trkpt>
      <trkpt lat="45.50046" lon="6.0021">
        <ele>308</ele>
        <time>2026-05-12T21:11:34Z</time>
      </trkpt>
      <trkpt lat="45.50048" lon="6.00204">
        <ele>308.2</ele>
        <time>2026-05-12T21:11:35Z</time>
      </trkpt>
      <trkpt lat="45.50049" lon="6.00198">
        <ele>308.4</ele>
        <time>2026-05-12T21:11:36Z</time>
      </trkpt>
      <trkpt lat="45.50055" lon="6.00175">
        <ele>308.8</ele>
        <time>2026-05-12T21:11:40Z</time>
      </trkpt>
      <trkpt lat="45.50056" lon="6.00163">
        <ele>309</ele>
        <time>2026-05-12T21:11:42Z</time>
      </trkpt>
      <trkpt lat="45.50055" lon="6.0015">
        <ele>309.6</ele>
        <time>2026-05-12T21:11:44Z</time>
      </trkpt>
      <trkpt lat="45.50054" lon="6.00145">
        <ele>309.8</ele>
        <time>2026-05-12T21:11:45Z</time>
      </trkpt>
      <trkpt lat="45.50048" lon="6.00134">
        <ele>310.2</ele>
        <time>2026-05-12T21:11:47Z</time>
      </trkpt>
      <trkpt lat="45.50037" lon="6.00112">
        <ele>310.6</ele>
        <time>2026-05-12T21:11:51Z</time>
      </trkpt>
      <trkpt lat="45.50018" lon="6.0008">
        <ele>311</ele>
        <time>2026-05-12T21:11:57Z</time>
      </trkpt>
      <trkpt lat="45.50014" lon="6.00076">
        <ele>311</ele>
        <time>2026-05-12T21:11:58Z</time>
      </trkpt>
      <trkpt lat="45.50005" lon="6.0007">
        <ele>311</ele>
        <time>2026-05-12T21:12:00Z</time>
      </trkpt>
      <trkpt lat="45.49997" lon="6.00068">
        <ele>311</ele>
        <time>2026-05-12T21:12:02Z</time>
      </trkpt>
      <trkpt lat="45.49992" lon="6.00067">
        <ele>311.2</ele>
        <time>2026-05-12T21:12:03Z</time>
      </trkpt>
      <trkpt lat="45.49976" lon="6.00068">
        <ele>311.6</ele>
        <time>2026-05-12T21:12:07Z</time>
      </trkpt>
      <trkpt lat="45.49969" lon="6.00071">
        <ele>312</ele>
        <time>2026-05-12T21:12:09Z</time>
      </trkpt>
      <trkpt lat="45.49965" lon="6.00072">
        <ele>312.4</ele>
        <time>2026-05-12T21:12:10Z</time>
      </trkpt>
      <trkpt lat="45.49952" lon="6.00081">
        <ele>313.4</ele>
        <time>2026-05-12T21:12:14Z</time>
      </trkpt>
      <trkpt lat="45.49946" lon="6.00085">
        <ele>313.8</ele>
        <time>2026-05-12T21:12:16Z</time>
      </trkpt>
      <trkpt lat="45.49929" lon="6.00097">
        <ele>314.4</ele>
        <time>2026-05-12T21:12:21Z</time>
      </trkpt>
      <trkpt lat="45.49918" lon="6.00105">
        <ele>315.4</ele>
        <time>2026-05-12T21:12:25Z</time>
      </trkpt>
      <trkpt lat="45.49914" lon="6.00106">
        <ele>315.4</ele>
        <time>2026-05-12T21:12:26Z</time>
      </trkpt>
      <trkpt lat="45.49901" lon="6.00106">
        <ele>316.4</ele>
        <time>2026-05-12T21:12:30Z</time>
      </trkpt>
      <trkpt lat="45.49898" lon="6.00103">
        <ele>316.6</ele>
        <time>2026-05-12T21:12:31Z</time>
      </trkpt>
      <trkpt lat="45.49887" lon="6.0009">
        <ele>317.6</ele>
        <time>2026-05-12T21:12:35Z</time>
      </trkpt>
      <trkpt lat="45.49885" lon="6.00073">
        <ele>318.4</ele>
        <time>2026-05-12T21:12:39Z</time>
      </trkpt>
      <trkpt lat="45.49886" lon="6.00067">
        <ele>318.6</ele>
        <time>2026-05-12T21:12:40Z</time>
      </trkpt>
      <trkpt lat="45.49888" lon="6.00045">
        <ele>319.8</ele>
        <time>2026-05-12T21:12:44Z</time>
      </trkpt>
      <trkpt lat="45.49899" lon="6.00025">
        <ele>320.6</ele>
        <time>2026-05-12T21:12:48Z</time>
      </trkpt>
      <trkpt lat="45.49902" lon="6.00021">
        <ele>320.8</ele>
        <time>2026-05-12T21:12:49Z</time>
      </trkpt>
      <trkpt lat="45.49928" lon="5.99995">
        <ele>321.4</ele>
        <time>2026-05-12T21:12:56Z</time>
      </trkpt>
      <trkpt lat="45.49936" lon="5.99987">
        <ele>321.6</ele>
        <time>2026-05-12T21:12:58Z</time>
      </trkpt>
      <trkpt lat="45.49952" lon="5.99975">
        <ele>321.8</ele>
        <time>2026-05-12T21:13:02Z</time>
      </trkpt>
      <trkpt lat="45.49963" lon="5.99961">
        <ele>321.8</ele>
        <time>2026-05-12T21:13:05Z</time>
      </trkpt>
      <trkpt lat="45.49966" lon="5.99958">
        <ele>321.8</ele>
        <time>2026-05-12T21:13:06Z</time>
      </trkpt>
      <trkpt lat="45.4997" lon="5.99954">
        <ele>322</ele>
        <time>2026-05-12T21:13:07Z</time>
      </trkpt>
      <trkpt lat="45.49993" lon="5.99932">
        <ele>322.8</ele>
        <time>2026-05-12T21:13:14Z</time>
      </trkpt>
      <trkpt lat="45.49999" lon="5.99926">
        <ele>323</ele>
        <time>2026-05-12T21:13:16Z</time>
      </trkpt>
      <trkpt lat="45.50015" lon="5.99911">
        <ele>324.2</ele>
        <time>2026-05-12T21:13:21Z</time>
      </trkpt>
      <trkpt lat="45.50032" lon="5.99898">
        <ele>325.2</ele>
        <time>2026-05-12T21:13:26Z</time>
      </trkpt>
      <trkpt lat="45.50039" lon="5.99893">
        <ele>325.6</ele>
        <time>2026-05-12T21:13:28Z</time>
      </trkpt>
      <trkpt lat="45.50055" lon="5.99877">
        <ele>326.4</ele>
        <time>2026-05-12T21:13:33Z</time>
      </trkpt>
      <trkpt lat="45.50061" lon="5.99867">
        <ele>326.6</ele>
        <time>2026-05-12T21:13:35Z</time>
      </trkpt>
      <trkpt lat="45.50073" lon="5.99848">
        <ele>327.4</ele>
        <time>2026-05-12T21:13:39Z</time>
      </trkpt>
      <trkpt lat="45.50079" lon="5.99839">
        <ele>327.8</ele>
        <time>2026-05-12T21:13:41Z</time>
      </trkpt>
      <trkpt lat="45.50098" lon="5.99812">
        <ele>328.4</ele>
        <time>2026-05-12T21:13:47Z</time>
      </trkpt>
      <trkpt lat="45.50104" lon="5.99803">
        <ele>328.8</ele>
        <time>2026-05-12T21:13:49Z</time>
      </trkpt>
      <trkpt lat="45.50119" lon="5.99792">
        <ele>329.6</ele>
        <time>2026-05-12T21:13:53Z</time>
      </trkpt>
      <trkpt lat="45.50145" lon="5.99778">
        <ele>330.2</ele>
        <time>2026-05-12T21:13:59Z</time>
      </trkpt>
      <trkpt lat="45.5015" lon="5.99778">
        <ele>330.4</ele>
        <time>2026-05-12T21:14:00Z</time>
      </trkpt>
      <trkpt lat="45.50159" lon="5.99776">
        <ele>330.4</ele>
        <time>2026-05-12T21:14:02Z</time>
      </trkpt>
      <trkpt lat="45.50167" lon="5.99768">
        <ele>330.6</ele>
        <time>2026-05-12T21:14:04Z</time>
      </trkpt>
      <trkpt lat="45.5017" lon="5.99762">
        <ele>330.6</ele>
        <time>2026-05-12T21:14:05Z</time>
      </trkpt>
      <trkpt lat="45.50176" lon="5.99752">
        <ele>330.8</ele>
        <time>2026-05-12T21:14:07Z</time>
      </trkpt>
      <trkpt lat="45.50188" lon="5.9974">
        <ele>331</ele>
        <time>2026-05-12T21:14:10Z</time>
      </trkpt>
      <trkpt lat="45.50199" lon="5.99728">
        <ele>331.2</ele>
        <time>2026-05-12T21:14:13Z</time>
      </trkpt>
      <trkpt lat="45.5021" lon="5.99716">
        <ele>331.6</ele>
        <time>2026-05-12T21:14:16Z</time>
      </trkpt>
      <trkpt lat="45.50214" lon="5.99711">
        <ele>331.8</ele>
        <time>2026-05-12T21:14:17Z</time>
      </trkpt>
      <trkpt lat="45.50245" lon="5.99678">
        <ele>332.6</ele>
        <time>2026-05-12T21:14:25Z</time>
      </trkpt>
      <trkpt lat="45.50278" lon="5.99654">
        <ele>333</ele>
        <time>2026-05-12T21:14:32Z</time>
      </trkpt>
      <trkpt lat="45.50287" lon="5.99647">
        <ele>333</ele>
        <time>2026-05-12T21:14:34Z</time>
      </trkpt>
      <trkpt lat="45.5033" lon="5.99611">
        <ele>333.2</ele>
        <time>2026-05-12T21:14:43Z</time>
      </trkpt>
      <trkpt lat="45.50383" lon="5.99571">
        <ele>333.2</ele>
        <time>2026-05-12T21:14:53Z</time>
      </trkpt>
      <trkpt lat="45.50417" lon="5.99536">
        <ele>332.4</ele>
        <time>2026-05-12T21:14:59Z</time>
      </trkpt>
      <trkpt lat="45.5043" lon="5.99523">
        <ele>331.8</ele>
        <time>2026-05-12T21:15:01Z</time>
      </trkpt>
      <trkpt lat="45.5045" lon="5.99502">
        <ele>330.4</ele>
        <time>2026-05-12T21:15:04Z</time>
      </trkpt>
      <trkpt lat="45.50457" lon="5.99495">
        <ele>330.2</ele>
        <time>2026-05-12T21:15:05Z</time>
      </trkpt>
      <trkpt lat="45.50477" lon="5.99476">
        <ele>329</ele>
        <time>2026-05-12T21:15:08Z</time>
      </trkpt>
      <trkpt lat="45.5049" lon="5.99464">
        <ele>328</ele>
        <time>2026-05-12T21:15:10Z</time>
      </trkpt>
      <trkpt lat="45.5051" lon="5.99447">
        <ele>326.8</ele>
        <time>2026-05-12T21:15:13Z</time>
      </trkpt>
      <trkpt lat="45.50516" lon="5.99442">
        <ele>326.6</ele>
        <time>2026-05-12T21:15:14Z</time>
      </trkpt>
      <trkpt lat="45.50553" lon="5.99412">
        <ele>325.8</ele>
        <time>2026-05-12T21:15:20Z</time>
      </trkpt>
      <trkpt lat="45.50565" lon="5.99403">
        <ele>325.6</ele>
        <time>2026-05-12T21:15:22Z</time>
      </trkpt>
      <trkpt lat="45.50595" lon="5.99377">
        <ele>325.6</ele>
        <time>2026-05-12T21:15:28Z</time>
      </trkpt>
      <trkpt lat="45.5062" lon="5.99338">
        <ele>325.8</ele>
        <time>2026-05-12T21:15:34Z</time>
      </trkpt>
      <trkpt lat="45.50643" lon="5.99287">
        <ele>325.6</ele>
        <time>2026-05-12T21:15:41Z</time>
      </trkpt>
      <trkpt lat="45.50664" lon="5.99249">
        <ele>325.8</ele>
        <time>2026-05-12T21:15:47Z</time>
      </trkpt>
      <trkpt lat="45.50696" lon="5.99206">
        <ele>326.2</ele>
        <time>2026-05-12T21:15:55Z</time>
      </trkpt>
      <trkpt lat="45.50725" lon="5.99181">
        <ele>326.4</ele>
        <time>2026-05-12T21:16:01Z</time>
      </trkpt>
      <trkpt lat="45.50776" lon="5.99146">
        <ele>326.8</ele>
        <time>2026-05-12T21:16:11Z</time>
      </trkpt>
      <trkpt lat="45.50824" lon="5.99114">
        <ele>326.4</ele>
        <time>2026-05-12T21:16:20Z</time>
      </trkpt>
      <trkpt lat="45.50866" lon="5.99088">
        <ele>325.8</ele>
        <time>2026-05-12T21:16:27Z</time>
      </trkpt>
      <trkpt lat="45.50885" lon="5.99078">
        <ele>325.2</ele>
        <time>2026-05-12T21:16:30Z</time>
      </trkpt>
      <trkpt lat="45.50897" lon="5.99069">
        <ele>324.8</ele>
        <time>2026-05-12T21:16:32Z</time>
      </trkpt>
      <trkpt lat="45.50946" lon="5.99026">
        <ele>323.4</ele>
        <time>2026-05-12T21:16:40Z</time>
      </trkpt>
      <trkpt lat="45.50952" lon="5.9902">
        <ele>323.2</ele>
        <time>2026-05-12T21:16:41Z</time>
      </trkpt>
      <trkpt lat="45.50975" lon="5.98996">
        <ele>322.4</ele>
        <time>2026-05-12T21:16:45Z</time>
      </trkpt>
      <trkpt lat="45.51004" lon="5.98963">
        <ele>321.4</ele>
        <time>2026-05-12T21:16:50Z</time>
      </trkpt>
      <trkpt lat="45.51009" lon="5.98956">
        <ele>321.2</ele>
        <time>2026-05-12T21:16:51Z</time>
      </trkpt>
      <trkpt lat="45.51051" lon="5.98907">
        <ele>320.6</ele>
        <time>2026-05-12T21:16:59Z</time>
      </trkpt>
      <trkpt lat="45.51073" lon="5.98884">
        <ele>320.6</ele>
        <time>2026-05-12T21:17:04Z</time>
      </trkpt>
      <trkpt lat="45.51087" lon="5.9887">
        <ele>321.2</ele>
        <time>2026-05-12T21:17:08Z</time>
      </trkpt>
      <trkpt lat="45.51094" lon="5.98864">
        <ele>321.8</ele>
        <time>2026-05-12T21:17:10Z</time>
      </trkpt>
      <trkpt lat="45.51097" lon="5.98862">
        <ele>322</ele>
        <time>2026-05-12T21:17:11Z</time>
      </trkpt>
      <trkpt lat="45.51101" lon="5.9886">
        <ele>322.4</ele>
        <time>2026-05-12T21:17:12Z</time>
      </trkpt>
      <trkpt lat="45.51109" lon="5.98854">
        <ele>323.2</ele>
        <time>2026-05-12T21:17:15Z</time>
      </trkpt>
      <trkpt lat="45.51112" lon="5.98852">
        <ele>323.6</ele>
        <time>2026-05-12T21:17:16Z</time>
      </trkpt>
      <trkpt lat="45.51125" lon="5.98842">
        <ele>324.8</ele>
        <time>2026-05-12T21:17:21Z</time>
      </trkpt>
      <trkpt lat="45.51128" lon="5.9884">
        <ele>325.2</ele>
        <time>2026-05-12T21:17:22Z</time>
      </trkpt>
      <trkpt lat="45.51137" lon="5.98831">
        <ele>326</ele>
        <time>2026-05-12T21:17:26Z</time>
      </trkpt>
      <trkpt lat="45.51142" lon="5.98827">
        <ele>326.4</ele>
        <time>2026-05-12T21:17:28Z</time>
      </trkpt>
      <trkpt lat="45.51151" lon="5.98821">
        <ele>327</ele>
        <time>2026-05-12T21:17:31Z</time>
      </trkpt>
      <trkpt lat="45.51159" lon="5.98813">
        <ele>327.6</ele>
        <time>2026-05-12T21:17:34Z</time>
      </trkpt>
      <trkpt lat="45.51164" lon="5.9881">
        <ele>328</ele>
        <time>2026-05-12T21:17:36Z</time>
      </trkpt>
      <trkpt lat="45.51176" lon="5.98807">
        <ele>329</ele>
        <time>2026-05-12T21:17:40Z</time>
      </trkpt>
      <trkpt lat="45.51179" lon="5.98806">
        <ele>329.2</ele>
        <time>2026-05-12T21:17:41Z</time>
      </trkpt>
      <trkpt lat="45.51199" lon="5.98799">
        <ele>330.2</ele>
        <time>2026-05-12T21:17:47Z</time>
      </trkpt>
      <trkpt lat="45.51202" lon="5.98798">
        <ele>330.4</ele>
        <time>2026-05-12T21:17:48Z</time>
      </trkpt>
      <trkpt lat="45.51221" lon="5.98787">
        <ele>331.6</ele>
        <time>2026-05-12T21:17:54Z</time>
      </trkpt>
      <trkpt lat="45.51224" lon="5.98785">
        <ele>331.6</ele>
        <time>2026-05-12T21:17:55Z</time>
      </trkpt>
      <trkpt lat="45.51239" lon="5.98776">
        <ele>332.6</ele>
        <time>2026-05-12T21:18:00Z</time>
      </trkpt>
      <trkpt lat="45.51249" lon="5.98772">
        <ele>333.8</ele>
        <time>2026-05-12T21:18:03Z</time>
      </trkpt>
      <trkpt lat="45.51252" lon="5.9877">
        <ele>333.8</ele>
        <time>2026-05-12T21:18:04Z</time>
      </trkpt>
      <trkpt lat="45.51264" lon="5.98763">
        <ele>334.8</ele>
        <time>2026-05-12T21:18:08Z</time>
      </trkpt>
      <trkpt lat="45.51281" lon="5.98755">
        <ele>336</ele>
        <time>2026-05-12T21:18:13Z</time>
      </trkpt>
      <trkpt lat="45.5129" lon="5.98751">
        <ele>336.4</ele>
        <time>2026-05-12T21:18:16Z</time>
      </trkpt>
      <trkpt lat="45.51294" lon="5.98749">
        <ele>336.8</ele>
        <time>2026-05-12T21:18:17Z</time>
      </trkpt>
      <trkpt lat="45.51314" lon="5.98739">
        <ele>337.8</ele>
        <time>2026-05-12T21:18:23Z</time>
      </trkpt>
      <trkpt lat="45.5132" lon="5.98735">
        <ele>338.2</ele>
        <time>2026-05-12T21:18:25Z</time>
      </trkpt>
      <trkpt lat="45.51335" lon="5.98722">
        <ele>339</ele>
        <time>2026-05-12T21:18:30Z</time>
      </trkpt>
      <trkpt lat="45.51348" lon="5.98707">
        <ele>340</ele>
        <time>2026-05-12T21:18:35Z</time>
      </trkpt>
      <trkpt lat="45.51354" lon="5.987">
        <ele>340.2</ele>
        <time>2026-05-12T21:18:37Z</time>
      </trkpt>
      <trkpt lat="45.51368" lon="5.98684">
        <ele>341.2</ele>
        <time>2026-05-12T21:18:42Z</time>
      </trkpt>
      <trkpt lat="45.51377" lon="5.98675">
        <ele>342</ele>
        <time>2026-05-12T21:18:45Z</time>
      </trkpt>
      <trkpt lat="45.51384" lon="5.98664">
        <ele>342.4</ele>
        <time>2026-05-12T21:18:48Z</time>
      </trkpt>
      <trkpt lat="45.51394" lon="5.98648">
        <ele>343.2</ele>
        <time>2026-05-12T21:18:52Z</time>
      </trkpt>
      <trkpt lat="45.51399" lon="5.9864">
        <ele>343.4</ele>
        <time>2026-05-12T21:18:54Z</time>
      </trkpt>
      <trkpt lat="45.51408" lon="5.98624">
        <ele>344</ele>
        <time>2026-05-12T21:18:58Z</time>
      </trkpt>
      <trkpt lat="45.51419" lon="5.98607">
        <ele>344.6</ele>
        <time>2026-05-12T21:19:02Z</time>
      </trkpt>
      <trkpt lat="45.51431" lon="5.98588">
        <ele>345.4</ele>
        <time>2026-05-12T21:19:07Z</time>
      </trkpt>
      <trkpt lat="45.51438" lon="5.98575">
        <ele>345.8</ele>
        <time>2026-05-12T21:19:10Z</time>
      </trkpt>
      <trkpt lat="45.51445" lon="5.98563">
        <ele>346.2</ele>
        <time>2026-05-12T21:19:13Z</time>
      </trkpt>
      <trkpt lat="45.51453" lon="5.98549">
        <ele>346.8</ele>
        <time>2026-05-12T21:19:16Z</time>
      </trkpt>
      <trkpt lat="45.5146" lon="5.98533">
        <ele>347</ele>
        <time>2026-05-12T21:19:19Z</time>
      </trkpt>
      <trkpt lat="45.51479" lon="5.98489">
        <ele>347</ele>
        <time>2026-05-12T21:19:26Z</time>
      </trkpt>
      <trkpt lat="45.51483" lon="5.98478">
        <ele>346.8</ele>
        <time>2026-05-12T21:19:28Z</time>
      </trkpt>
      <trkpt lat="45.51489" lon="5.98462">
        <ele>346.4</ele>
        <time>2026-05-12T21:19:31Z</time>
      </trkpt>
      <trkpt lat="45.51502" lon="5.9843">
        <ele>345.6</ele>
        <time>2026-05-12T21:19:36Z</time>
      </trkpt>
      <trkpt lat="45.51505" lon="5.98423">
        <ele>345.4</ele>
        <time>2026-05-12T21:19:37Z</time>
      </trkpt>
      <trkpt lat="45.5153" lon="5.9838">
        <ele>344.4</ele>
        <time>2026-05-12T21:19:43Z</time>
      </trkpt>
      <trkpt lat="45.51548" lon="5.98351">
        <ele>343.2</ele>
        <time>2026-05-12T21:19:47Z</time>
      </trkpt>
      <trkpt lat="45.51552" lon="5.98344">
        <ele>343.2</ele>
        <time>2026-05-12T21:19:48Z</time>
      </trkpt>
      <trkpt lat="45.51556" lon="5.98338">
        <ele>342.8</ele>
        <time>2026-05-12T21:19:49Z</time>
      </trkpt>
      <trkpt lat="45.51565" lon="5.98328">
        <ele>342.4</ele>
        <time>2026-05-12T21:19:51Z</time>
      </trkpt>
      <trkpt lat="45.51568" lon="5.98321">
        <ele>342</ele>
        <time>2026-05-12T21:19:52Z</time>
      </trkpt>
      <trkpt lat="45.5157" lon="5.98314">
        <ele>341.8</ele>
        <time>2026-05-12T21:19:53Z</time>
      </trkpt>
      <trkpt lat="45.51578" lon="5.98283">
        <ele>341.4</ele>
        <time>2026-05-12T21:19:57Z</time>
      </trkpt>
      <trkpt lat="45.51584" lon="5.98268">
        <ele>341.2</ele>
        <time>2026-05-12T21:19:59Z</time>
      </trkpt>
      <trkpt lat="45.51587" lon="5.98261">
        <ele>341.2</ele>
        <time>2026-05-12T21:20:00Z</time>
      </trkpt>
      <trkpt lat="45.51595" lon="5.98247">
        <ele>341</ele>
        <time>2026-05-12T21:20:02Z</time>
      </trkpt>
      <trkpt lat="45.51599" lon="5.9824">
        <ele>340.8</ele>
        <time>2026-05-12T21:20:03Z</time>
      </trkpt>
      <trkpt lat="45.51604" lon="5.98235">
        <ele>340.8</ele>
        <time>2026-05-12T21:20:04Z</time>
      </trkpt>
      <trkpt lat="45.51633" lon="5.98211">
        <ele>340.6</ele>
        <time>2026-05-12T21:20:09Z</time>
      </trkpt>
      <trkpt lat="45.5164" lon="5.98197">
        <ele>340.2</ele>
        <time>2026-05-12T21:20:11Z</time>
      </trkpt>
      <trkpt lat="45.51641" lon="5.98188">
        <ele>340</ele>
        <time>2026-05-12T21:20:12Z</time>
      </trkpt>
      <trkpt lat="45.51641" lon="5.98179">
        <ele>339.6</ele>
        <time>2026-05-12T21:20:13Z</time>
      </trkpt>
      <trkpt lat="45.51637" lon="5.98148">
        <ele>338.8</ele>
        <time>2026-05-12T21:20:16Z</time>
      </trkpt>
      <trkpt lat="45.51634" lon="5.98128">
        <ele>338.4</ele>
        <time>2026-05-12T21:20:18Z</time>
      </trkpt>
      <trkpt lat="45.51634" lon="5.98107">
        <ele>337.6</ele>
        <time>2026-05-12T21:20:20Z</time>
      </trkpt>
      <trkpt lat="45.51636" lon="5.98097">
        <ele>336.8</ele>
        <time>2026-05-12T21:20:21Z</time>
      </trkpt>
      <trkpt lat="45.51638" lon="5.98087">
        <ele>336.6</ele>
        <time>2026-05-12T21:20:22Z</time>
      </trkpt>
      <trkpt lat="45.51647" lon="5.98069">
        <ele>335.6</ele>
        <time>2026-05-12T21:20:24Z</time>
      </trkpt>
      <trkpt lat="45.51659" lon="5.98054">
        <ele>334.6</ele>
        <time>2026-05-12T21:20:26Z</time>
      </trkpt>
      <trkpt lat="45.51673" lon="5.9804">
        <ele>334</ele>
        <time>2026-05-12T21:20:28Z</time>
      </trkpt>
      <trkpt lat="45.51689" lon="5.98028">
        <ele>333</ele>
        <time>2026-05-12T21:20:30Z</time>
      </trkpt>
      <trkpt lat="45.51705" lon="5.98016">
        <ele>332</ele>
        <time>2026-05-12T21:20:32Z</time>
      </trkpt>
      <trkpt lat="45.51722" lon="5.98005">
        <ele>331</ele>
        <time>2026-05-12T21:20:34Z</time>
      </trkpt>
      <trkpt lat="45.5173" lon="5.98">
        <ele>330.2</ele>
        <time>2026-05-12T21:20:35Z</time>
      </trkpt>
      <trkpt lat="45.51756" lon="5.97984">
        <ele>328.6</ele>
        <time>2026-05-12T21:20:38Z</time>
      </trkpt>
      <trkpt lat="45.5177" lon="5.97974">
        <ele>327.6</ele>
        <time>2026-05-12T21:20:40Z</time>
      </trkpt>
      <trkpt lat="45.51785" lon="5.97964">
        <ele>326.4</ele>
        <time>2026-05-12T21:20:42Z</time>
      </trkpt>
      <trkpt lat="45.51794" lon="5.97957">
        <ele>325.4</ele>
        <time>2026-05-12T21:20:43Z</time>
      </trkpt>
      <trkpt lat="45.51807" lon="5.97943">
        <ele>324.4</ele>
        <time>2026-05-12T21:20:45Z</time>
      </trkpt>
      <trkpt lat="45.51813" lon="5.97934">
        <ele>323.8</ele>
        <time>2026-05-12T21:20:46Z</time>
      </trkpt>
      <trkpt lat="45.51824" lon="5.97915">
        <ele>322.6</ele>
        <time>2026-05-12T21:20:48Z</time>
      </trkpt>
      <trkpt lat="45.51834" lon="5.97894">
        <ele>321.2</ele>
        <time>2026-05-12T21:20:50Z</time>
      </trkpt>
      <trkpt lat="45.51839" lon="5.97884">
        <ele>320.6</ele>
        <time>2026-05-12T21:20:51Z</time>
      </trkpt>
      <trkpt lat="45.51846" lon="5.97864">
        <ele>319.4</ele>
        <time>2026-05-12T21:20:53Z</time>
      </trkpt>
      <trkpt lat="45.51851" lon="5.97856">
        <ele>319</ele>
        <time>2026-05-12T21:20:54Z</time>
      </trkpt>
      <trkpt lat="45.51856" lon="5.97848">
        <ele>318.2</ele>
        <time>2026-05-12T21:20:55Z</time>
      </trkpt>
      <trkpt lat="45.5186" lon="5.97839">
        <ele>318</ele>
        <time>2026-05-12T21:20:56Z</time>
      </trkpt>
      <trkpt lat="45.51864" lon="5.9783">
        <ele>317.2</ele>
        <time>2026-05-12T21:20:57Z</time>
      </trkpt>
      <trkpt lat="45.51868" lon="5.97821">
        <ele>316.4</ele>
        <time>2026-05-12T21:20:58Z</time>
      </trkpt>
      <trkpt lat="45.51873" lon="5.97812">
        <ele>316</ele>
        <time>2026-05-12T21:20:59Z</time>
      </trkpt>
      <trkpt lat="45.51888" lon="5.97789">
        <ele>314.4</ele>
        <time>2026-05-12T21:21:02Z</time>
      </trkpt>
      <trkpt lat="45.51908" lon="5.9776">
        <ele>313.2</ele>
        <time>2026-05-12T21:21:06Z</time>
      </trkpt>
      <trkpt lat="45.51913" lon="5.97754">
        <ele>313</ele>
        <time>2026-05-12T21:21:07Z</time>
      </trkpt>
      <trkpt lat="45.51917" lon="5.9775">
        <ele>313</ele>
        <time>2026-05-12T21:21:08Z</time>
      </trkpt>
      <trkpt lat="45.51924" lon="5.97746">
        <ele>313</ele>
        <time>2026-05-12T21:21:09Z</time>
      </trkpt>
      <trkpt lat="45.51936" lon="5.97746">
        <ele>312.8</ele>
        <time>2026-05-12T21:21:11Z</time>
      </trkpt>
      <trkpt lat="45.51947" lon="5.97754">
        <ele>312.6</ele>
        <time>2026-05-12T21:21:13Z</time>
      </trkpt>
      <trkpt lat="45.51952" lon="5.97761">
        <ele>312.2</ele>
        <time>2026-05-12T21:21:14Z</time>
      </trkpt>
      <trkpt lat="45.5196" lon="5.97775">
        <ele>312.2</ele>
        <time>2026-05-12T21:21:16Z</time>
      </trkpt>
      <trkpt lat="45.51992" lon="5.97824">
        <ele>311.4</ele>
        <time>2026-05-12T21:21:23Z</time>
      </trkpt>
      <trkpt lat="45.52007" lon="5.97847">
        <ele>311.2</ele>
        <time>2026-05-12T21:21:26Z</time>
      </trkpt>
      <trkpt lat="45.52025" lon="5.97876">
        <ele>311</ele>
        <time>2026-05-12T21:21:30Z</time>
      </trkpt>
      <trkpt lat="45.52043" lon="5.97904">
        <ele>310.4</ele>
        <time>2026-05-12T21:21:34Z</time>
      </trkpt>
      <trkpt lat="45.52051" lon="5.97914">
        <ele>310.2</ele>
        <time>2026-05-12T21:21:36Z</time>
      </trkpt>
      <trkpt lat="45.52057" lon="5.9792">
        <ele>310.2</ele>
        <time>2026-05-12T21:21:37Z</time>
      </trkpt>
      <trkpt lat="45.52066" lon="5.97932">
        <ele>310</ele>
        <time>2026-05-12T21:21:39Z</time>
      </trkpt>
      <trkpt lat="45.52074" lon="5.97947">
        <ele>310</ele>
        <time>2026-05-12T21:21:41Z</time>
      </trkpt>
      <trkpt lat="45.52077" lon="5.97965">
        <ele>309.8</ele>
        <time>2026-05-12T21:21:43Z</time>
      </trkpt>
      <trkpt lat="45.52078" lon="5.97975">
        <ele>309.8</ele>
        <time>2026-05-12T21:21:44Z</time>
      </trkpt>
      <trkpt lat="45.52077" lon="5.97983">
        <ele>309.6</ele>
        <time>2026-05-12T21:21:45Z</time>
      </trkpt>
      <trkpt lat="45.52071" lon="5.97997">
        <ele>309.4</ele>
        <time>2026-05-12T21:21:47Z</time>
      </trkpt>
      <trkpt lat="45.52059" lon="5.9801">
        <ele>309.2</ele>
        <time>2026-05-12T21:21:49Z</time>
      </trkpt>
      <trkpt lat="45.52052" lon="5.98015">
        <ele>309.2</ele>
        <time>2026-05-12T21:21:50Z</time>
      </trkpt>
      <trkpt lat="45.52045" lon="5.98019">
        <ele>308.8</ele>
        <time>2026-05-12T21:21:51Z</time>
      </trkpt>
      <trkpt lat="45.52026" lon="5.98034">
        <ele>308.4</ele>
        <time>2026-05-12T21:21:54Z</time>
      </trkpt>
      <trkpt lat="45.52021" lon="5.98041">
        <ele>308</ele>
        <time>2026-05-12T21:21:55Z</time>
      </trkpt>
      <trkpt lat="45.52017" lon="5.98049">
        <ele>307.8</ele>
        <time>2026-05-12T21:21:56Z</time>
      </trkpt>
      <trkpt lat="45.52016" lon="5.98057">
        <ele>307.6</ele>
        <time>2026-05-12T21:21:57Z</time>
      </trkpt>
      <trkpt lat="45.52015" lon="5.98067">
        <ele>307.4</ele>
        <time>2026-05-12T21:21:58Z</time>
      </trkpt>
      <trkpt lat="45.5202" lon="5.98085">
        <ele>306.8</ele>
        <time>2026-05-12T21:22:00Z</time>
      </trkpt>
      <trkpt lat="45.52025" lon="5.98094">
        <ele>306.4</ele>
        <time>2026-05-12T21:22:01Z</time>
      </trkpt>
      <trkpt lat="45.52054" lon="5.9813">
        <ele>305.4</ele>
        <time>2026-05-12T21:22:06Z</time>
      </trkpt>
      <trkpt lat="45.52059" lon="5.98137">
        <ele>305.2</ele>
        <time>2026-05-12T21:22:07Z</time>
      </trkpt>
      <trkpt lat="45.52073" lon="5.98152">
        <ele>304.8</ele>
        <time>2026-05-12T21:22:10Z</time>
      </trkpt>
      <trkpt lat="45.52083" lon="5.98155">
        <ele>304.6</ele>
        <time>2026-05-12T21:22:12Z</time>
      </trkpt>
      <trkpt lat="45.52089" lon="5.98154">
        <ele>304.6</ele>
        <time>2026-05-12T21:22:13Z</time>
      </trkpt>
      <trkpt lat="45.52096" lon="5.98151">
        <ele>304.6</ele>
        <time>2026-05-12T21:22:14Z</time>
      </trkpt>
      <trkpt lat="45.52105" lon="5.9814">
        <ele>304.6</ele>
        <time>2026-05-12T21:22:16Z</time>
      </trkpt>
      <trkpt lat="45.52109" lon="5.98128">
        <ele>304.8</ele>
        <time>2026-05-12T21:22:18Z</time>
      </trkpt>
      <trkpt lat="45.52112" lon="5.98113">
        <ele>305</ele>
        <time>2026-05-12T21:22:20Z</time>
      </trkpt>
      <trkpt lat="45.52115" lon="5.98086">
        <ele>306</ele>
        <time>2026-05-12T21:22:24Z</time>
      </trkpt>
      <trkpt lat="45.52116" lon="5.98073">
        <ele>306.4</ele>
        <time>2026-05-12T21:22:26Z</time>
      </trkpt>
      <trkpt lat="45.5212" lon="5.98055">
        <ele>307.4</ele>
        <time>2026-05-12T21:22:29Z</time>
      </trkpt>
      <trkpt lat="45.52121" lon="5.98049">
        <ele>307.6</ele>
        <time>2026-05-12T21:22:30Z</time>
      </trkpt>
      <trkpt lat="45.52123" lon="5.98044">
        <ele>307.8</ele>
        <time>2026-05-12T21:22:31Z</time>
      </trkpt>
      <trkpt lat="45.52126" lon="5.98039">
        <ele>308</ele>
        <time>2026-05-12T21:22:32Z</time>
      </trkpt>
      <trkpt lat="45.5213" lon="5.98036">
        <ele>308.2</ele>
        <time>2026-05-12T21:22:33Z</time>
      </trkpt>
      <trkpt lat="45.52138" lon="5.98033">
        <ele>308.6</ele>
        <time>2026-05-12T21:22:35Z</time>
      </trkpt>
      <trkpt lat="45.52147" lon="5.98036">
        <ele>308.8</ele>
        <time>2026-05-12T21:22:37Z</time>
      </trkpt>
      <trkpt lat="45.5216" lon="5.98043">
        <ele>309.4</ele>
        <time>2026-05-12T21:22:40Z</time>
      </trkpt>
      <trkpt lat="45.52165" lon="5.98047">
        <ele>309.8</ele>
        <time>2026-05-12T21:22:41Z</time>
      </trkpt>
      <trkpt lat="45.52174" lon="5.98057">
        <ele>310</ele>
        <time>2026-05-12T21:22:43Z</time>
      </trkpt>
      <trkpt lat="45.52178" lon="5.98062">
        <ele>310.2</ele>
        <time>2026-05-12T21:22:44Z</time>
      </trkpt>
      <trkpt lat="45.52193" lon="5.98087">
        <ele>310.2</ele>
        <time>2026-05-12T21:22:48Z</time>
      </trkpt>
      <trkpt lat="45.52203" lon="5.98107">
        <ele>310.2</ele>
        <time>2026-05-12T21:22:51Z</time>
      </trkpt>
      <trkpt lat="45.52218" lon="5.98133">
        <ele>310.2</ele>
        <time>2026-05-12T21:22:55Z</time>
      </trkpt>
      <trkpt lat="45.52222" lon="5.98138">
        <ele>310.2</ele>
        <time>2026-05-12T21:22:56Z</time>
      </trkpt>
      <trkpt lat="45.52228" lon="5.98142">
        <ele>310.2</ele>
        <time>2026-05-12T21:22:57Z</time>
      </trkpt>
      <trkpt lat="45.5224" lon="5.98145">
        <ele>310.2</ele>
        <time>2026-05-12T21:22:59Z</time>
      </trkpt>
      <trkpt lat="45.52268" lon="5.98136">
        <ele>310.4</ele>
        <time>2026-05-12T21:23:04Z</time>
      </trkpt>
      <trkpt lat="45.52287" lon="5.98123">
        <ele>310.8</ele>
        <time>2026-05-12T21:23:08Z</time>
      </trkpt>
      <trkpt lat="45.52296" lon="5.98114">
        <ele>311</ele>
        <time>2026-05-12T21:23:10Z</time>
      </trkpt>
      <trkpt lat="45.5233" lon="5.98078">
        <ele>311.6</ele>
        <time>2026-05-12T21:23:18Z</time>
      </trkpt>
      <trkpt lat="45.52341" lon="5.98064">
        <ele>311.8</ele>
        <time>2026-05-12T21:23:21Z</time>
      </trkpt>
      <trkpt lat="45.52364" lon="5.98036">
        <ele>312.8</ele>
        <time>2026-05-12T21:23:27Z</time>
      </trkpt>
      <trkpt lat="45.52367" lon="5.98031">
        <ele>313</ele>
        <time>2026-05-12T21:23:28Z</time>
      </trkpt>
      <trkpt lat="45.52389" lon="5.97994">
        <ele>313.6</ele>
        <time>2026-05-12T21:23:34Z</time>
      </trkpt>
      <trkpt lat="45.52398" lon="5.97984">
        <ele>313.6</ele>
        <time>2026-05-12T21:23:36Z</time>
      </trkpt>
      <trkpt lat="45.52413" lon="5.97974">
        <ele>313.6</ele>
        <time>2026-05-12T21:23:39Z</time>
      </trkpt>
      <trkpt lat="45.52444" lon="5.97959">
        <ele>314</ele>
        <time>2026-05-12T21:23:45Z</time>
      </trkpt>
      <trkpt lat="45.52448" lon="5.97956">
        <ele>314.2</ele>
        <time>2026-05-12T21:23:46Z</time>
      </trkpt>
      <trkpt lat="45.52482" lon="5.97929">
        <ele>314.6</ele>
        <time>2026-05-12T21:23:53Z</time>
      </trkpt>
      <trkpt lat="45.52504" lon="5.97902">
        <ele>314.6</ele>
        <time>2026-05-12T21:23:58Z</time>
      </trkpt>
      <trkpt lat="45.52509" lon="5.97897">
        <ele>314.4</ele>
        <time>2026-05-12T21:23:59Z</time>
      </trkpt>
      <trkpt lat="45.52517" lon="5.97888">
        <ele>314.4</ele>
        <time>2026-05-12T21:24:01Z</time>
      </trkpt>
      <trkpt lat="45.52526" lon="5.97878">
        <ele>314.2</ele>
        <time>2026-05-12T21:24:03Z</time>
      </trkpt>
      <trkpt lat="45.5253" lon="5.97875">
        <ele>314.2</ele>
        <time>2026-05-12T21:24:04Z</time>
      </trkpt>
      <trkpt lat="45.52547" lon="5.97868">
        <ele>314</ele>
        <time>2026-05-12T21:24:09Z</time>
      </trkpt>
      <trkpt lat="45.52548" lon="5.97866">
        <ele>313.8</ele>
        <time>2026-05-12T21:24:13Z</time>
      </trkpt>
      <trkpt lat="45.52549" lon="5.97865">
        <ele>313.4</ele>
        <time>2026-05-12T21:24:16Z</time>
      </trkpt>
      <trkpt lat="45.5255" lon="5.97858">
        <ele>313.2</ele>
        <time>2026-05-12T21:25:32Z</time>
      </trkpt>
      <trkpt lat="45.52552" lon="5.97854">
        <ele>313.2</ele>
        <time>2026-05-12T21:25:33Z</time>
      </trkpt>
      <trkpt lat="45.5257" lon="5.97831">
        <ele>313.2</ele>
        <time>2026-05-12T21:25:38Z</time>
      </trkpt>
      <trkpt lat="45.52579" lon="5.97819">
        <ele>313</ele>
        <time>2026-05-12T21:25:40Z</time>
      </trkpt>
      <trkpt lat="45.52598" lon="5.97798">
        <ele>312.8</ele>
        <time>2026-05-12T21:25:44Z</time>
      </trkpt>
      <trkpt lat="45.52625" lon="5.97767">
        <ele>312.4</ele>
        <time>2026-05-12T21:25:49Z</time>
      </trkpt>
      <trkpt lat="45.52637" lon="5.97753">
        <ele>312</ele>
        <time>2026-05-12T21:25:52Z</time>
      </trkpt>
      <trkpt lat="45.52669" lon="5.97715">
        <ele>311.4</ele>
        <time>2026-05-12T21:25:57Z</time>
      </trkpt>
      <trkpt lat="45.52695" lon="5.97681">
        <ele>311</ele>
        <time>2026-05-12T21:26:02Z</time>
      </trkpt>
      <trkpt lat="45.52721" lon="5.97647">
        <ele>310.4</ele>
        <time>2026-05-12T21:26:07Z</time>
      </trkpt>
      <trkpt lat="45.52756" lon="5.97607">
        <ele>309.8</ele>
        <time>2026-05-12T21:26:13Z</time>
      </trkpt>
      <trkpt lat="45.52762" lon="5.976">
        <ele>309.6</ele>
        <time>2026-05-12T21:26:14Z</time>
      </trkpt>
      <trkpt lat="45.52788" lon="5.97575">
        <ele>308.6</ele>
        <time>2026-05-12T21:26:18Z</time>
      </trkpt>
      <trkpt lat="45.52812" lon="5.97552">
        <ele>307.4</ele>
        <time>2026-05-12T21:26:22Z</time>
      </trkpt>
      <trkpt lat="45.52845" lon="5.97527">
        <ele>306.4</ele>
        <time>2026-05-12T21:26:27Z</time>
      </trkpt>
      <trkpt lat="45.52853" lon="5.97522">
        <ele>306.4</ele>
        <time>2026-05-12T21:26:28Z</time>
      </trkpt>
      <trkpt lat="45.52881" lon="5.97501">
        <ele>305</ele>
        <time>2026-05-12T21:26:32Z</time>
      </trkpt>
      <trkpt lat="45.52908" lon="5.97481">
        <ele>303.8</ele>
        <time>2026-05-12T21:26:36Z</time>
      </trkpt>
      <trkpt lat="45.5292" lon="5.97468">
        <ele>303.4</ele>
        <time>2026-05-12T21:26:38Z</time>
      </trkpt>
      <trkpt lat="45.52926" lon="5.97461">
        <ele>303.2</ele>
        <time>2026-05-12T21:26:39Z</time>
      </trkpt>
      <trkpt lat="45.52938" lon="5.97437">
        <ele>303</ele>
        <time>2026-05-12T21:26:42Z</time>
      </trkpt>
      <trkpt lat="45.52972" lon="5.97371">
        <ele>302.8</ele>
        <time>2026-05-12T21:26:50Z</time>
      </trkpt>
      <trkpt lat="45.52986" lon="5.97348">
        <ele>302.4</ele>
        <time>2026-05-12T21:26:53Z</time>
      </trkpt>
      <trkpt lat="45.53008" lon="5.97323">
        <ele>301.8</ele>
        <time>2026-05-12T21:26:57Z</time>
      </trkpt>
      <trkpt lat="45.53014" lon="5.97319">
        <ele>302</ele>
        <time>2026-05-12T21:26:58Z</time>
      </trkpt>
      <trkpt lat="45.53027" lon="5.97312">
        <ele>301.8</ele>
        <time>2026-05-12T21:27:00Z</time>
      </trkpt>
      <trkpt lat="45.53038" lon="5.97302">
        <ele>302</ele>
        <time>2026-05-12T21:27:02Z</time>
      </trkpt>
      <trkpt lat="45.53042" lon="5.97296">
        <ele>302</ele>
        <time>2026-05-12T21:27:03Z</time>
      </trkpt>
      <trkpt lat="45.53046" lon="5.9729">
        <ele>301.8</ele>
        <time>2026-05-12T21:27:04Z</time>
      </trkpt>
      <trkpt lat="45.53059" lon="5.97271">
        <ele>302.2</ele>
        <time>2026-05-12T21:27:07Z</time>
      </trkpt>
      <trkpt lat="45.53063" lon="5.97266">
        <ele>302.4</ele>
        <time>2026-05-12T21:27:08Z</time>
      </trkpt>
      <trkpt lat="45.53067" lon="5.97262">
        <ele>302.6</ele>
        <time>2026-05-12T21:27:09Z</time>
      </trkpt>
      <trkpt lat="45.53089" lon="5.97243">
        <ele>303.6</ele>
        <time>2026-05-12T21:27:14Z</time>
      </trkpt>
      <trkpt lat="45.53093" lon="5.97239">
        <ele>303.6</ele>
        <time>2026-05-12T21:27:15Z</time>
      </trkpt>
      <trkpt lat="45.53116" lon="5.97221">
        <ele>304.4</ele>
        <time>2026-05-12T21:27:20Z</time>
      </trkpt>
      <trkpt lat="45.53121" lon="5.97218">
        <ele>304.4</ele>
        <time>2026-05-12T21:27:21Z</time>
      </trkpt>
      <trkpt lat="45.5313" lon="5.97212">
        <ele>304.6</ele>
        <time>2026-05-12T21:27:23Z</time>
      </trkpt>
      <trkpt lat="45.5314" lon="5.97206">
        <ele>304.8</ele>
        <time>2026-05-12T21:27:25Z</time>
      </trkpt>
      <trkpt lat="45.53159" lon="5.97199">
        <ele>305.8</ele>
        <time>2026-05-12T21:27:29Z</time>
      </trkpt>
      <trkpt lat="45.53163" lon="5.97198">
        <ele>305.8</ele>
        <time>2026-05-12T21:27:30Z</time>
      </trkpt>
      <trkpt lat="45.53169" lon="5.97196">
        <ele>306</ele>
        <time>2026-05-12T21:27:31Z</time>
      </trkpt>
      <trkpt lat="45.53184" lon="5.97187">
        <ele>306.8</ele>
        <time>2026-05-12T21:27:34Z</time>
      </trkpt>
      <trkpt lat="45.53192" lon="5.9718">
        <ele>307</ele>
        <time>2026-05-12T21:27:36Z</time>
      </trkpt>
      <trkpt lat="45.53233" lon="5.97151">
        <ele>307.2</ele>
        <time>2026-05-12T21:27:44Z</time>
      </trkpt>
      <trkpt lat="45.53275" lon="5.97122">
        <ele>306.2</ele>
        <time>2026-05-12T21:27:51Z</time>
      </trkpt>
      <trkpt lat="45.533" lon="5.97107">
        <ele>305.8</ele>
        <time>2026-05-12T21:27:55Z</time>
      </trkpt>
      <trkpt lat="45.53337" lon="5.97083">
        <ele>305.2</ele>
        <time>2026-05-12T21:28:01Z</time>
      </trkpt>
      <trkpt lat="45.53373" lon="5.9706">
        <ele>304.8</ele>
        <time>2026-05-12T21:28:07Z</time>
      </trkpt>
      <trkpt lat="45.53403" lon="5.97042">
        <ele>304.6</ele>
        <time>2026-05-12T21:28:12Z</time>
      </trkpt>
      <trkpt lat="45.53423" lon="5.97027">
        <ele>304.6</ele>
        <time>2026-05-12T21:28:16Z</time>
      </trkpt>
      <trkpt lat="45.53427" lon="5.97025">
        <ele>304.6</ele>
        <time>2026-05-12T21:28:17Z</time>
      </trkpt>
      <trkpt lat="45.53453" lon="5.97008">
        <ele>306</ele>
        <time>2026-05-12T21:28:23Z</time>
      </trkpt>
      <trkpt lat="45.53458" lon="5.97005">
        <ele>306</ele>
        <time>2026-05-12T21:28:24Z</time>
      </trkpt>
      <trkpt lat="45.53492" lon="5.96984">
        <ele>306.4</ele>
        <time>2026-05-12T21:28:30Z</time>
      </trkpt>
      <trkpt lat="45.5354" lon="5.96949">
        <ele>305.4</ele>
        <time>2026-05-12T21:28:38Z</time>
      </trkpt>
      <trkpt lat="45.53568" lon="5.96929">
        <ele>304.8</ele>
        <time>2026-05-12T21:28:42Z</time>
      </trkpt>
      <trkpt lat="45.53581" lon="5.96918">
        <ele>304.2</ele>
        <time>2026-05-12T21:28:44Z</time>
      </trkpt>
      <trkpt lat="45.53595" lon="5.96909">
        <ele>303.6</ele>
        <time>2026-05-12T21:28:46Z</time>
      </trkpt>
      <trkpt lat="45.53627" lon="5.9689">
        <ele>302.8</ele>
        <time>2026-05-12T21:28:51Z</time>
      </trkpt>
      <trkpt lat="45.53633" lon="5.96887">
        <ele>302.6</ele>
        <time>2026-05-12T21:28:52Z</time>
      </trkpt>
      <trkpt lat="45.53656" lon="5.9688">
        <ele>302.4</ele>
        <time>2026-05-12T21:28:56Z</time>
      </trkpt>
      <trkpt lat="45.53661" lon="5.96878">
        <ele>302.4</ele>
        <time>2026-05-12T21:28:57Z</time>
      </trkpt>
      <trkpt lat="45.53665" lon="5.96871">
        <ele>302.6</ele>
        <time>2026-05-12T21:28:59Z</time>
      </trkpt>
      <trkpt lat="45.53666" lon="5.96863">
        <ele>302.6</ele>
        <time>2026-05-12T21:29:01Z</time>
      </trkpt>
      <trkpt lat="45.53666" lon="5.96853">
        <ele>302.6</ele>
        <time>2026-05-12T21:29:03Z</time>
      </trkpt>
      <trkpt lat="45.53675" lon="5.96842">
        <ele>302.6</ele>
        <time>2026-05-12T21:29:06Z</time>
      </trkpt>
      <trkpt lat="45.5368" lon="5.9684">
        <ele>302.8</ele>
        <time>2026-05-12T21:29:07Z</time>
      </trkpt>
      <trkpt lat="45.53696" lon="5.96833">
        <ele>303</ele>
        <time>2026-05-12T21:29:11Z</time>
      </trkpt>
      <trkpt lat="45.53708" lon="5.96829">
        <ele>303.6</ele>
        <time>2026-05-12T21:29:14Z</time>
      </trkpt>
      <trkpt lat="45.53718" lon="5.96824">
        <ele>304.6</ele>
        <time>2026-05-12T21:29:17Z</time>
      </trkpt>
      <trkpt lat="45.53722" lon="5.96822">
        <ele>304.8</ele>
        <time>2026-05-12T21:29:18Z</time>
      </trkpt>
      <trkpt lat="45.53734" lon="5.96809">
        <ele>305.8</ele>
        <time>2026-05-12T21:29:22Z</time>
      </trkpt>
      <trkpt lat="45.53735" lon="5.96805">
        <ele>306</ele>
        <time>2026-05-12T21:29:23Z</time>
      </trkpt>
      <trkpt lat="45.53735" lon="5.96795">
        <ele>306.6</ele>
        <time>2026-05-12T21:29:25Z</time>
      </trkpt>
      <trkpt lat="45.53732" lon="5.96784">
        <ele>307</ele>
        <time>2026-05-12T21:29:27Z</time>
      </trkpt>
      <trkpt lat="45.5372" lon="5.96761">
        <ele>307.2</ele>
        <time>2026-05-12T21:29:31Z</time>
      </trkpt>
      <trkpt lat="45.53717" lon="5.96755">
        <ele>307.2</ele>
        <time>2026-05-12T21:29:32Z</time>
      </trkpt>
      <trkpt lat="45.53703" lon="5.96727">
        <ele>307.2</ele>
        <time>2026-05-12T21:29:36Z</time>
      </trkpt>
      <trkpt lat="45.53694" lon="5.96715">
        <ele>307</ele>
        <time>2026-05-12T21:29:38Z</time>
      </trkpt>
      <trkpt lat="45.53682" lon="5.96707">
        <ele>306.6</ele>
        <time>2026-05-12T21:29:40Z</time>
      </trkpt>
      <trkpt lat="45.53669" lon="5.96702">
        <ele>306</ele>
        <time>2026-05-12T21:29:42Z</time>
      </trkpt>
      <trkpt lat="45.53663" lon="5.96701">
        <ele>306</ele>
        <time>2026-05-12T21:29:43Z</time>
      </trkpt>
      <trkpt lat="45.53658" lon="5.96699">
        <ele>305.4</ele>
        <time>2026-05-12T21:29:44Z</time>
      </trkpt>
      <trkpt lat="45.53653" lon="5.96694">
        <ele>305.2</ele>
        <time>2026-05-12T21:29:45Z</time>
      </trkpt>
      <trkpt lat="45.53649" lon="5.96689">
        <ele>304.8</ele>
        <time>2026-05-12T21:29:46Z</time>
      </trkpt>
      <trkpt lat="45.53649" lon="5.96676">
        <ele>304</ele>
        <time>2026-05-12T21:29:48Z</time>
      </trkpt>
      <trkpt lat="45.53653" lon="5.96671">
        <ele>303.6</ele>
        <time>2026-05-12T21:29:49Z</time>
      </trkpt>
      <trkpt lat="45.53663" lon="5.9666">
        <ele>303</ele>
        <time>2026-05-12T21:29:51Z</time>
      </trkpt>
      <trkpt lat="45.53682" lon="5.96636">
        <ele>301.8</ele>
        <time>2026-05-12T21:29:55Z</time>
      </trkpt>
      <trkpt lat="45.53685" lon="5.96632">
        <ele>301.6</ele>
        <time>2026-05-12T21:29:56Z</time>
      </trkpt>
      <trkpt lat="45.53685" lon="5.96624">
        <ele>301</ele>
        <time>2026-05-12T21:29:57Z</time>
      </trkpt>
      <trkpt lat="45.53683" lon="5.96617">
        <ele>301</ele>
        <time>2026-05-12T21:29:58Z</time>
      </trkpt>
      <trkpt lat="45.53677" lon="5.96607">
        <ele>300.6</ele>
        <time>2026-05-12T21:30:00Z</time>
      </trkpt>
      <trkpt lat="45.53671" lon="5.96591">
        <ele>300.2</ele>
        <time>2026-05-12T21:30:02Z</time>
      </trkpt>
      <trkpt lat="45.53669" lon="5.96582">
        <ele>300</ele>
        <time>2026-05-12T21:30:03Z</time>
      </trkpt>
      <trkpt lat="45.53668" lon="5.96573">
        <ele>299.6</ele>
        <time>2026-05-12T21:30:04Z</time>
      </trkpt>
      <trkpt lat="45.5367" lon="5.96557">
        <ele>299.2</ele>
        <time>2026-05-12T21:30:06Z</time>
      </trkpt>
      <trkpt lat="45.53675" lon="5.9655">
        <ele>299</ele>
        <time>2026-05-12T21:30:07Z</time>
      </trkpt>
      <trkpt lat="45.53703" lon="5.96524">
        <ele>297.8</ele>
        <time>2026-05-12T21:30:12Z</time>
      </trkpt>
      <trkpt lat="45.53709" lon="5.96518">
        <ele>297.6</ele>
        <time>2026-05-12T21:30:13Z</time>
      </trkpt>
      <trkpt lat="45.53727" lon="5.96503">
        <ele>297.4</ele>
        <time>2026-05-12T21:30:16Z</time>
      </trkpt>
      <trkpt lat="45.5374" lon="5.96498">
        <ele>296.8</ele>
        <time>2026-05-12T21:30:18Z</time>
      </trkpt>
      <trkpt lat="45.53747" lon="5.96496">
        <ele>296.4</ele>
        <time>2026-05-12T21:30:19Z</time>
      </trkpt>
      <trkpt lat="45.538" lon="5.96479">
        <ele>295.8</ele>
        <time>2026-05-12T21:30:27Z</time>
      </trkpt>
      <trkpt lat="45.53813" lon="5.96474">
        <ele>295.6</ele>
        <time>2026-05-12T21:30:29Z</time>
      </trkpt>
      <trkpt lat="45.53827" lon="5.96469">
        <ele>295.4</ele>
        <time>2026-05-12T21:30:31Z</time>
      </trkpt>
      <trkpt lat="45.53856" lon="5.96452">
        <ele>295.2</ele>
        <time>2026-05-12T21:30:36Z</time>
      </trkpt>
      <trkpt lat="45.53906" lon="5.96417">
        <ele>294.6</ele>
        <time>2026-05-12T21:30:44Z</time>
      </trkpt>
      <trkpt lat="45.53919" lon="5.9641">
        <ele>294.4</ele>
        <time>2026-05-12T21:30:46Z</time>
      </trkpt>
      <trkpt lat="45.5395" lon="5.96393">
        <ele>294</ele>
        <time>2026-05-12T21:30:51Z</time>
      </trkpt>
      <trkpt lat="45.54004" lon="5.96361">
        <ele>293.4</ele>
        <time>2026-05-12T21:31:00Z</time>
      </trkpt>
      <trkpt lat="45.54016" lon="5.96352">
        <ele>293.4</ele>
        <time>2026-05-12T21:31:02Z</time>
      </trkpt>
      <trkpt lat="45.54021" lon="5.96347">
        <ele>293.4</ele>
        <time>2026-05-12T21:31:03Z</time>
      </trkpt>
      <trkpt lat="45.54048" lon="5.96319">
        <ele>293.2</ele>
        <time>2026-05-12T21:31:08Z</time>
      </trkpt>
      <trkpt lat="45.54089" lon="5.96286">
        <ele>292.4</ele>
        <time>2026-05-12T21:31:15Z</time>
      </trkpt>
      <trkpt lat="45.5414" lon="5.96257">
        <ele>291.8</ele>
        <time>2026-05-12T21:31:23Z</time>
      </trkpt>
      <trkpt lat="45.54153" lon="5.9625">
        <ele>291.8</ele>
        <time>2026-05-12T21:31:25Z</time>
      </trkpt>
      <trkpt lat="45.54202" lon="5.9622">
        <ele>291.4</ele>
        <time>2026-05-12T21:31:33Z</time>
      </trkpt>
      <trkpt lat="45.54257" lon="5.96188">
        <ele>291.2</ele>
        <time>2026-05-12T21:31:42Z</time>
      </trkpt>
      <trkpt lat="45.54264" lon="5.96184">
        <ele>291</ele>
        <time>2026-05-12T21:31:43Z</time>
      </trkpt>
      <trkpt lat="45.54314" lon="5.96161">
        <ele>290.8</ele>
        <time>2026-05-12T21:31:51Z</time>
      </trkpt>
      <trkpt lat="45.54341" lon="5.96154">
        <ele>290.2</ele>
        <time>2026-05-12T21:31:55Z</time>
      </trkpt>
      <trkpt lat="45.54368" lon="5.96147">
        <ele>289.8</ele>
        <time>2026-05-12T21:31:59Z</time>
      </trkpt>
      <trkpt lat="45.54408" lon="5.96135">
        <ele>289.2</ele>
        <time>2026-05-12T21:32:05Z</time>
      </trkpt>
      <trkpt lat="45.54422" lon="5.9613">
        <ele>289</ele>
        <time>2026-05-12T21:32:07Z</time>
      </trkpt>
      <trkpt lat="45.54466" lon="5.96116">
        <ele>288.8</ele>
        <time>2026-05-12T21:32:14Z</time>
      </trkpt>
      <trkpt lat="45.54471" lon="5.96113">
        <ele>288.8</ele>
        <time>2026-05-12T21:32:15Z</time>
      </trkpt>
      <trkpt lat="45.5451" lon="5.96084">
        <ele>288.8</ele>
        <time>2026-05-12T21:32:22Z</time>
      </trkpt>
      <trkpt lat="45.54516" lon="5.96081">
        <ele>288.8</ele>
        <time>2026-05-12T21:32:23Z</time>
      </trkpt>
      <trkpt lat="45.54547" lon="5.96063">
        <ele>288.6</ele>
        <time>2026-05-12T21:32:28Z</time>
      </trkpt>
      <trkpt lat="45.54582" lon="5.96041">
        <ele>288</ele>
        <time>2026-05-12T21:32:34Z</time>
      </trkpt>
      <trkpt lat="45.54589" lon="5.96037">
        <ele>288</ele>
        <time>2026-05-12T21:32:35Z</time>
      </trkpt>
      <trkpt lat="45.54632" lon="5.96013">
        <ele>287</ele>
        <time>2026-05-12T21:32:42Z</time>
      </trkpt>
      <trkpt lat="45.54645" lon="5.96006">
        <ele>287</ele>
        <time>2026-05-12T21:32:44Z</time>
      </trkpt>
      <trkpt lat="45.54679" lon="5.95984">
        <ele>286.6</ele>
        <time>2026-05-12T21:32:50Z</time>
      </trkpt>
      <trkpt lat="45.5473" lon="5.95953">
        <ele>286.4</ele>
        <time>2026-05-12T21:32:59Z</time>
      </trkpt>
      <trkpt lat="45.54743" lon="5.95945">
        <ele>286.4</ele>
        <time>2026-05-12T21:33:01Z</time>
      </trkpt>
      <trkpt lat="45.54793" lon="5.95916">
        <ele>286</ele>
        <time>2026-05-12T21:33:09Z</time>
      </trkpt>
      <trkpt lat="45.54805" lon="5.95908">
        <ele>285.8</ele>
        <time>2026-05-12T21:33:11Z</time>
      </trkpt>
      <trkpt lat="45.54831" lon="5.95896">
        <ele>285.6</ele>
        <time>2026-05-12T21:33:15Z</time>
      </trkpt>
      <trkpt lat="45.54851" lon="5.95894">
        <ele>285.6</ele>
        <time>2026-05-12T21:33:18Z</time>
      </trkpt>
      <trkpt lat="45.54862" lon="5.95889">
        <ele>285.8</ele>
        <time>2026-05-12T21:33:20Z</time>
      </trkpt>
      <trkpt lat="45.54867" lon="5.95887">
        <ele>286</ele>
        <time>2026-05-12T21:33:21Z</time>
      </trkpt>
      <trkpt lat="45.54886" lon="5.95881">
        <ele>286.8</ele>
        <time>2026-05-12T21:33:25Z</time>
      </trkpt>
      <trkpt lat="45.5489" lon="5.95879">
        <ele>287</ele>
        <time>2026-05-12T21:33:26Z</time>
      </trkpt>
      <trkpt lat="45.54898" lon="5.95875">
        <ele>287.4</ele>
        <time>2026-05-12T21:33:28Z</time>
      </trkpt>
      <trkpt lat="45.54905" lon="5.95873">
        <ele>288</ele>
        <time>2026-05-12T21:33:30Z</time>
      </trkpt>
      <trkpt lat="45.5491" lon="5.95871">
        <ele>288.4</ele>
        <time>2026-05-12T21:33:31Z</time>
      </trkpt>
      <trkpt lat="45.54927" lon="5.95864">
        <ele>288.4</ele>
        <time>2026-05-12T21:33:34Z</time>
      </trkpt>
      <trkpt lat="45.54958" lon="5.95851">
        <ele>288.4</ele>
        <time>2026-05-12T21:33:38Z</time>
      </trkpt>
      <trkpt lat="45.54989" lon="5.95837">
        <ele>287.2</ele>
        <time>2026-05-12T21:33:42Z</time>
      </trkpt>
      <trkpt lat="45.55005" lon="5.95831">
        <ele>286.2</ele>
        <time>2026-05-12T21:33:44Z</time>
      </trkpt>
      <trkpt lat="45.55012" lon="5.95828">
        <ele>285.8</ele>
        <time>2026-05-12T21:33:45Z</time>
      </trkpt>
      <trkpt lat="45.55027" lon="5.95823">
        <ele>285</ele>
        <time>2026-05-12T21:33:47Z</time>
      </trkpt>
      <trkpt lat="45.55047" lon="5.95814">
        <ele>284.2</ele>
        <time>2026-05-12T21:33:50Z</time>
      </trkpt>
      <trkpt lat="45.55053" lon="5.9581">
        <ele>284</ele>
        <time>2026-05-12T21:33:51Z</time>
      </trkpt>
      <trkpt lat="45.55085" lon="5.9579">
        <ele>283.6</ele>
        <time>2026-05-12T21:33:56Z</time>
      </trkpt>
      <trkpt lat="45.55132" lon="5.95745">
        <ele>283.2</ele>
        <time>2026-05-12T21:34:04Z</time>
      </trkpt>
      <trkpt lat="45.5517" lon="5.9569">
        <ele>283.2</ele>
        <time>2026-05-12T21:34:12Z</time>
      </trkpt>
      <trkpt lat="45.55189" lon="5.95662">
        <ele>283</ele>
        <time>2026-05-12T21:34:16Z</time>
      </trkpt>
      <trkpt lat="45.5521" lon="5.95637">
        <ele>282.8</ele>
        <time>2026-05-12T21:34:20Z</time>
      </trkpt>
      <trkpt lat="45.55251" lon="5.9559">
        <ele>282.6</ele>
        <time>2026-05-12T21:34:28Z</time>
      </trkpt>
      <trkpt lat="45.55287" lon="5.95555">
        <ele>283.2</ele>
        <time>2026-05-12T21:34:35Z</time>
      </trkpt>
      <trkpt lat="45.55316" lon="5.95527">
        <ele>283.2</ele>
        <time>2026-05-12T21:34:41Z</time>
      </trkpt>
      <trkpt lat="45.55321" lon="5.95522">
        <ele>283.2</ele>
        <time>2026-05-12T21:34:42Z</time>
      </trkpt>
      <trkpt lat="45.55348" lon="5.95496">
        <ele>283</ele>
        <time>2026-05-12T21:34:47Z</time>
      </trkpt>
      <trkpt lat="45.55387" lon="5.95451">
        <ele>282.4</ele>
        <time>2026-05-12T21:34:55Z</time>
      </trkpt>
      <trkpt lat="45.55391" lon="5.95447">
        <ele>282.4</ele>
        <time>2026-05-12T21:34:56Z</time>
      </trkpt>
      <trkpt lat="45.55405" lon="5.95439">
        <ele>282.2</ele>
        <time>2026-05-12T21:34:59Z</time>
      </trkpt>
      <trkpt lat="45.55412" lon="5.95429">
        <ele>282</ele>
        <time>2026-05-12T21:35:01Z</time>
      </trkpt>
      <trkpt lat="45.55412" lon="5.95424">
        <ele>281.8</ele>
        <time>2026-05-12T21:35:02Z</time>
      </trkpt>
      <trkpt lat="45.55405" lon="5.95415">
        <ele>281.4</ele>
        <time>2026-05-12T21:35:05Z</time>
      </trkpt>
      <trkpt lat="45.55392" lon="5.9541">
        <ele>281.2</ele>
        <time>2026-05-12T21:35:09Z</time>
      </trkpt>
      <trkpt lat="45.55385" lon="5.95417">
        <ele>281.2</ele>
        <time>2026-05-12T21:35:11Z</time>
      </trkpt>
      <trkpt lat="45.55383" lon="5.95422">
        <ele>281.2</ele>
        <time>2026-05-12T21:35:12Z</time>
      </trkpt>
      <trkpt lat="45.55377" lon="5.95428">
        <ele>281.2</ele>
        <time>2026-05-12T21:35:14Z</time>
      </trkpt>
      <trkpt lat="45.55373" lon="5.95429">
        <ele>281.2</ele>
        <time>2026-05-12T21:35:15Z</time>
      </trkpt>
      <trkpt lat="45.5537" lon="5.95427">
        <ele>281.4</ele>
        <time>2026-05-12T21:35:16Z</time>
      </trkpt>
      <trkpt lat="45.55362" lon="5.9542">
        <ele>282</ele>
        <time>2026-05-12T21:35:19Z</time>
      </trkpt>
      <trkpt lat="45.55351" lon="5.95405">
        <ele>282.2</ele>
        <time>2026-05-12T21:35:23Z</time>
      </trkpt>
      <trkpt lat="45.55355" lon="5.95387">
        <ele>282.6</ele>
        <time>2026-05-12T21:35:26Z</time>
      </trkpt>
      <trkpt lat="45.55357" lon="5.95381">
        <ele>282.8</ele>
        <time>2026-05-12T21:35:27Z</time>
      </trkpt>
      <trkpt lat="45.55365" lon="5.9537">
        <ele>283</ele>
        <time>2026-05-12T21:35:29Z</time>
      </trkpt>
      <trkpt lat="45.55369" lon="5.95364">
        <ele>282.8</ele>
        <time>2026-05-12T21:35:30Z</time>
      </trkpt>
      <trkpt lat="45.55401" lon="5.95332">
        <ele>282.8</ele>
        <time>2026-05-12T21:35:36Z</time>
      </trkpt>
      <trkpt lat="45.55436" lon="5.95291">
        <ele>281.6</ele>
        <time>2026-05-12T21:35:42Z</time>
      </trkpt>
      <trkpt lat="45.55441" lon="5.95284">
        <ele>281</ele>
        <time>2026-05-12T21:35:43Z</time>
      </trkpt>
      <trkpt lat="45.55456" lon="5.95263">
        <ele>280.6</ele>
        <time>2026-05-12T21:35:46Z</time>
      </trkpt>
      <trkpt lat="45.55491" lon="5.95217">
        <ele>280.4</ele>
        <time>2026-05-12T21:35:53Z</time>
      </trkpt>
      <trkpt lat="45.55525" lon="5.95177">
        <ele>280.4</ele>
        <time>2026-05-12T21:36:00Z</time>
      </trkpt>
      <trkpt lat="45.55569" lon="5.95124">
        <ele>280.2</ele>
        <time>2026-05-12T21:36:09Z</time>
      </trkpt>
      <trkpt lat="45.55574" lon="5.95117">
        <ele>280.2</ele>
        <time>2026-05-12T21:36:10Z</time>
      </trkpt>
      <trkpt lat="45.55601" lon="5.95082">
        <ele>280.2</ele>
        <time>2026-05-12T21:36:16Z</time>
      </trkpt>
      <trkpt lat="45.55644" lon="5.95032">
        <ele>280.4</ele>
        <time>2026-05-12T21:36:25Z</time>
      </trkpt>
      <trkpt lat="45.55672" lon="5.94999">
        <ele>280.4</ele>
        <time>2026-05-12T21:36:31Z</time>
      </trkpt>
      <trkpt lat="45.55691" lon="5.94976">
        <ele>280.4</ele>
        <time>2026-05-12T21:36:35Z</time>
      </trkpt>
      <trkpt lat="45.55699" lon="5.94962">
        <ele>280.4</ele>
        <time>2026-05-12T21:36:37Z</time>
      </trkpt>
      <trkpt lat="45.55723" lon="5.94921">
        <ele>280.4</ele>
        <time>2026-05-12T21:36:43Z</time>
      </trkpt>
      <trkpt lat="45.55733" lon="5.9491">
        <ele>280.4</ele>
        <time>2026-05-12T21:36:45Z</time>
      </trkpt>
      <trkpt lat="45.55758" lon="5.94889">
        <ele>280</ele>
        <time>2026-05-12T21:36:50Z</time>
      </trkpt>
      <trkpt lat="45.55762" lon="5.94884">
        <ele>279.8</ele>
        <time>2026-05-12T21:36:51Z</time>
      </trkpt>
      <trkpt lat="45.55767" lon="5.94876">
        <ele>279.8</ele>
        <time>2026-05-12T21:36:53Z</time>
      </trkpt>
      <trkpt lat="45.55765" lon="5.94858">
        <ele>279.8</ele>
        <time>2026-05-12T21:36:56Z</time>
      </trkpt>
      <trkpt lat="45.55767" lon="5.94853">
        <ele>279.8</ele>
        <time>2026-05-12T21:36:57Z</time>
      </trkpt>
      <trkpt lat="45.55769" lon="5.94849">
        <ele>280</ele>
        <time>2026-05-12T21:36:58Z</time>
      </trkpt>
      <trkpt lat="45.55781" lon="5.9484">
        <ele>280</ele>
        <time>2026-05-12T21:37:01Z</time>
      </trkpt>
      <trkpt lat="45.5579" lon="5.94833">
        <ele>280.2</ele>
        <time>2026-05-12T21:37:03Z</time>
      </trkpt>
      <trkpt lat="45.55827" lon="5.94812">
        <ele>280.4</ele>
        <time>2026-05-12T21:37:10Z</time>
      </trkpt>
      <trkpt lat="45.55864" lon="5.94792">
        <ele>280.2</ele>
        <time>2026-05-12T21:37:17Z</time>
      </trkpt>
      <trkpt lat="45.55871" lon="5.94782">
        <ele>280</ele>
        <time>2026-05-12T21:37:19Z</time>
      </trkpt>
      <trkpt lat="45.55874" lon="5.94775">
        <ele>280</ele>
        <time>2026-05-12T21:37:20Z</time>
      </trkpt>
      <trkpt lat="45.55877" lon="5.94768">
        <ele>280</ele>
        <time>2026-05-12T21:37:21Z</time>
      </trkpt>
      <trkpt lat="45.55882" lon="5.94742">
        <ele>279.6</ele>
        <time>2026-05-12T21:37:24Z</time>
      </trkpt>
      <trkpt lat="45.55884" lon="5.94733">
        <ele>279.2</ele>
        <time>2026-05-12T21:37:25Z</time>
      </trkpt>
      <trkpt lat="45.55891" lon="5.94707">
        <ele>278.8</ele>
        <time>2026-05-12T21:37:28Z</time>
      </trkpt>
      <trkpt lat="45.55897" lon="5.9469">
        <ele>278.4</ele>
        <time>2026-05-12T21:37:30Z</time>
      </trkpt>
      <trkpt lat="45.55926" lon="5.94626">
        <ele>278.6</ele>
        <time>2026-05-12T21:37:38Z</time>
      </trkpt>
      <trkpt lat="45.55948" lon="5.94578">
        <ele>278.2</ele>
        <time>2026-05-12T21:37:44Z</time>
      </trkpt>
      <trkpt lat="45.55953" lon="5.94571">
        <ele>278.2</ele>
        <time>2026-05-12T21:37:45Z</time>
      </trkpt>
      <trkpt lat="45.55959" lon="5.94565">
        <ele>278.2</ele>
        <time>2026-05-12T21:37:46Z</time>
      </trkpt>
      <trkpt lat="45.55972" lon="5.94557">
        <ele>278.2</ele>
        <time>2026-05-12T21:37:48Z</time>
      </trkpt>
      <trkpt lat="45.55978" lon="5.94555">
        <ele>278</ele>
        <time>2026-05-12T21:37:49Z</time>
      </trkpt>
      <trkpt lat="45.55985" lon="5.94553">
        <ele>278</ele>
        <time>2026-05-12T21:37:50Z</time>
      </trkpt>
      <trkpt lat="45.56038" lon="5.94541">
        <ele>277.6</ele>
        <time>2026-05-12T21:37:58Z</time>
      </trkpt>
      <trkpt lat="45.56057" lon="5.94536">
        <ele>277.6</ele>
        <time>2026-05-12T21:38:01Z</time>
      </trkpt>
      <trkpt lat="45.56067" lon="5.94528">
        <ele>277.6</ele>
        <time>2026-05-12T21:38:03Z</time>
      </trkpt>
      <trkpt lat="45.56079" lon="5.94508">
        <ele>277.6</ele>
        <time>2026-05-12T21:38:06Z</time>
      </trkpt>
      <trkpt lat="45.56081" lon="5.945">
        <ele>277.6</ele>
        <time>2026-05-12T21:38:07Z</time>
      </trkpt>
      <trkpt lat="45.56084" lon="5.94492">
        <ele>277.6</ele>
        <time>2026-05-12T21:38:08Z</time>
      </trkpt>
      <trkpt lat="45.56096" lon="5.94449">
        <ele>277.8</ele>
        <time>2026-05-12T21:38:13Z</time>
      </trkpt>
      <trkpt lat="45.56108" lon="5.94399">
        <ele>277.4</ele>
        <time>2026-05-12T21:38:19Z</time>
      </trkpt>
      <trkpt lat="45.56108" lon="5.94388">
        <ele>277.4</ele>
        <time>2026-05-12T21:38:20Z</time>
      </trkpt>
      <trkpt lat="45.5611" lon="5.94349">
        <ele>277.2</ele>
        <time>2026-05-12T21:38:24Z</time>
      </trkpt>
      <trkpt lat="45.56112" lon="5.94321">
        <ele>277</ele>
        <time>2026-05-12T21:38:27Z</time>
      </trkpt>
      <trkpt lat="45.56115" lon="5.94291">
        <ele>277</ele>
        <time>2026-05-12T21:38:30Z</time>
      </trkpt>
      <trkpt lat="45.56117" lon="5.94272">
        <ele>276.8</ele>
        <time>2026-05-12T21:38:32Z</time>
      </trkpt>
      <trkpt lat="45.56117" lon="5.94263">
        <ele>276.8</ele>
        <time>2026-05-12T21:38:33Z</time>
      </trkpt>
      <trkpt lat="45.56116" lon="5.94253">
        <ele>276.8</ele>
        <time>2026-05-12T21:38:34Z</time>
      </trkpt>
      <trkpt lat="45.56112" lon="5.94228">
        <ele>276.8</ele>
        <time>2026-05-12T21:38:37Z</time>
      </trkpt>
      <trkpt lat="45.56116" lon="5.94214">
        <ele>276.8</ele>
        <time>2026-05-12T21:38:39Z</time>
      </trkpt>
      <trkpt lat="45.56119" lon="5.94207">
        <ele>276.8</ele>
        <time>2026-05-12T21:38:40Z</time>
      </trkpt>
      <trkpt lat="45.5612" lon="5.94202">
        <ele>276.8</ele>
        <time>2026-05-12T21:38:41Z</time>
      </trkpt>
      <trkpt lat="45.5612" lon="5.9419">
        <ele>276.8</ele>
        <time>2026-05-12T21:38:43Z</time>
      </trkpt>
      <trkpt lat="45.56119" lon="5.94174">
        <ele>276.8</ele>
        <time>2026-05-12T21:38:46Z</time>
      </trkpt>
      <trkpt lat="45.5612" lon="5.94169">
        <ele>276.8</ele>
        <time>2026-05-12T21:38:47Z</time>
      </trkpt>
      <trkpt lat="45.56125" lon="5.94151">
        <ele>276.8</ele>
        <time>2026-05-12T21:38:51Z</time>
      </trkpt>
      <trkpt lat="45.56135" lon="5.94132">
        <ele>277.2</ele>
        <time>2026-05-12T21:38:55Z</time>
      </trkpt>
      <trkpt lat="45.5615" lon="5.94113">
        <ele>277.2</ele>
        <time>2026-05-12T21:38:58Z</time>
      </trkpt>
      <trkpt lat="45.56175" lon="5.94084">
        <ele>276.8</ele>
        <time>2026-05-12T21:39:03Z</time>
      </trkpt>
      <trkpt lat="45.56179" lon="5.94079">
        <ele>276.8</ele>
        <time>2026-05-12T21:39:04Z</time>
      </trkpt>
      <trkpt lat="45.56187" lon="5.94067">
        <ele>276.8</ele>
        <time>2026-05-12T21:39:06Z</time>
      </trkpt>
      <trkpt lat="45.56194" lon="5.94062">
        <ele>276.6</ele>
        <time>2026-05-12T21:39:08Z</time>
      </trkpt>
      <trkpt lat="45.56198" lon="5.94063">
        <ele>276.6</ele>
        <time>2026-05-12T21:39:09Z</time>
      </trkpt>
      <trkpt lat="45.56208" lon="5.94072">
        <ele>276.4</ele>
        <time>2026-05-12T21:39:13Z</time>
      </trkpt>
      <trkpt lat="45.56218" lon="5.94071">
        <ele>276</ele>
        <time>2026-05-12T21:39:16Z</time>
      </trkpt>
      <trkpt lat="45.56229" lon="5.94073">
        <ele>275.8</ele>
        <time>2026-05-12T21:39:18Z</time>
      </trkpt>
      <trkpt lat="45.56271" lon="5.94067">
        <ele>275.8</ele>
        <time>2026-05-12T21:39:25Z</time>
      </trkpt>
      <trkpt lat="45.56284" lon="5.94062">
        <ele>275.8</ele>
        <time>2026-05-12T21:39:27Z</time>
      </trkpt>
      <trkpt lat="45.56299" lon="5.9405">
        <ele>275.8</ele>
        <time>2026-05-12T21:39:29Z</time>
      </trkpt>
      <trkpt lat="45.56312" lon="5.9404">
        <ele>275.8</ele>
        <time>2026-05-12T21:39:31Z</time>
      </trkpt>
      <trkpt lat="45.56317" lon="5.94035">
        <ele>275.8</ele>
        <time>2026-05-12T21:39:32Z</time>
      </trkpt>
      <trkpt lat="45.56327" lon="5.9402">
        <ele>275.6</ele>
        <time>2026-05-12T21:39:34Z</time>
      </trkpt>
      <trkpt lat="45.56338" lon="5.94007">
        <ele>275.6</ele>
        <time>2026-05-12T21:39:36Z</time>
      </trkpt>
      <trkpt lat="45.56344" lon="5.94001">
        <ele>275.6</ele>
        <time>2026-05-12T21:39:37Z</time>
      </trkpt>
      <trkpt lat="45.56361" lon="5.93987">
        <ele>275.4</ele>
        <time>2026-05-12T21:39:40Z</time>
      </trkpt>
      <trkpt lat="45.56381" lon="5.93968">
        <ele>275.4</ele>
        <time>2026-05-12T21:39:45Z</time>
      </trkpt>
      <trkpt lat="45.56391" lon="5.93957">
        <ele>275.4</ele>
        <time>2026-05-12T21:39:47Z</time>
      </trkpt>
      <trkpt lat="45.56402" lon="5.93943">
        <ele>275.2</ele>
        <time>2026-05-12T21:39:49Z</time>
      </trkpt>
      <trkpt lat="45.56411" lon="5.93931">
        <ele>275</ele>
        <time>2026-05-12T21:39:51Z</time>
      </trkpt>
      <trkpt lat="45.56419" lon="5.93918">
        <ele>275</ele>
        <time>2026-05-12T21:39:53Z</time>
      </trkpt>
      <trkpt lat="45.56429" lon="5.93911">
        <ele>274.8</ele>
        <time>2026-05-12T21:39:56Z</time>
      </trkpt>
      <trkpt lat="45.56437" lon="5.9391">
        <ele>274.6</ele>
        <time>2026-05-12T21:39:59Z</time>
      </trkpt>
      <trkpt lat="45.56447" lon="5.93903">
        <ele>274.6</ele>
        <time>2026-05-12T21:40:01Z</time>
      </trkpt>
      <trkpt lat="45.56464" lon="5.93881">
        <ele>274.4</ele>
        <time>2026-05-12T21:40:05Z</time>
      </trkpt>
      <trkpt lat="45.56484" lon="5.93859">
        <ele>274.4</ele>
        <time>2026-05-12T21:40:09Z</time>
      </trkpt>
      <trkpt lat="45.56507" lon="5.93831">
        <ele>274.2</ele>
        <time>2026-05-12T21:40:13Z</time>
      </trkpt>
      <trkpt lat="45.56509" lon="5.93813">
        <ele>274.2</ele>
        <time>2026-05-12T21:40:15Z</time>
      </trkpt>
      <trkpt lat="45.56507" lon="5.93805">
        <ele>274.2</ele>
        <time>2026-05-12T21:40:16Z</time>
      </trkpt>
      <trkpt lat="45.56506" lon="5.93798">
        <ele>274.2</ele>
        <time>2026-05-12T21:40:17Z</time>
      </trkpt>
      <trkpt lat="45.56502" lon="5.93787">
        <ele>274.2</ele>
        <time>2026-05-12T21:40:19Z</time>
      </trkpt>
      <trkpt lat="45.56499" lon="5.93783">
        <ele>274.2</ele>
        <time>2026-05-12T21:40:20Z</time>
      </trkpt>
      <trkpt lat="45.56489" lon="5.93775">
        <ele>274.6</ele>
        <time>2026-05-12T21:40:23Z</time>
      </trkpt>
      <trkpt lat="45.56487" lon="5.93772">
        <ele>274.8</ele>
        <time>2026-05-12T21:40:24Z</time>
      </trkpt>
      <trkpt lat="45.56491" lon="5.93733">
        <ele>275.4</ele>
        <time>2026-05-12T21:40:28Z</time>
      </trkpt>
      <trkpt lat="45.56494" lon="5.93724">
        <ele>275.6</ele>
        <time>2026-05-12T21:40:29Z</time>
      </trkpt>
      <trkpt lat="45.56501" lon="5.93707">
        <ele>275.6</ele>
        <time>2026-05-12T21:40:31Z</time>
      </trkpt>
      <trkpt lat="45.56505" lon="5.93699">
        <ele>275.6</ele>
        <time>2026-05-12T21:40:32Z</time>
      </trkpt>
      <trkpt lat="45.5651" lon="5.93684">
        <ele>275.4</ele>
        <time>2026-05-12T21:40:34Z</time>
      </trkpt>
      <trkpt lat="45.5652" lon="5.93651">
        <ele>275.2</ele>
        <time>2026-05-12T21:40:38Z</time>
      </trkpt>
      <trkpt lat="45.56522" lon="5.93644">
        <ele>275.2</ele>
        <time>2026-05-12T21:40:39Z</time>
      </trkpt>
      <trkpt lat="45.56521" lon="5.93632">
        <ele>275</ele>
        <time>2026-05-12T21:40:41Z</time>
      </trkpt>
      <trkpt lat="45.5652" lon="5.93619">
        <ele>275</ele>
        <time>2026-05-12T21:40:43Z</time>
      </trkpt>
      <trkpt lat="45.56521" lon="5.93611">
        <ele>274.8</ele>
        <time>2026-05-12T21:40:44Z</time>
      </trkpt>
      <trkpt lat="45.56524" lon="5.93605">
        <ele>274.8</ele>
        <time>2026-05-12T21:40:45Z</time>
      </trkpt>
      <trkpt lat="45.56532" lon="5.93592">
        <ele>274.8</ele>
        <time>2026-05-12T21:40:47Z</time>
      </trkpt>
      <trkpt lat="45.56553" lon="5.93541">
        <ele>274.8</ele>
        <time>2026-05-12T21:40:54Z</time>
      </trkpt>
      <trkpt lat="45.5658" lon="5.93474">
        <ele>274.8</ele>
        <time>2026-05-12T21:41:04Z</time>
      </trkpt>
      <trkpt lat="45.56588" lon="5.93453">
        <ele>274.8</ele>
        <time>2026-05-12T21:41:09Z</time>
      </trkpt>
      <trkpt lat="45.5659" lon="5.93447">
        <ele>274.4</ele>
        <time>2026-05-12T21:41:14Z</time>
      </trkpt>
      <trkpt lat="45.5659" lon="5.93447">
        <ele>274.4</ele>
        <time>2026-05-12T21:41:15Z</time>
      </trkpt>
      <trkpt lat="45.5659" lon="5.93446">
        <ele>274.4</ele>
        <time>2026-05-12T21:41:18Z</time>
      </trkpt>
      <trkpt lat="45.56594" lon="5.93442">
        <ele>274.2</ele>
        <time>2026-05-12T21:46:43Z</time>
      </trkpt>
      <trkpt lat="45.56599" lon="5.93432">
        <ele>274</ele>
        <time>2026-05-12T21:46:48Z</time>
      </trkpt>
      <trkpt lat="45.56599" lon="5.93429">
        <ele>274</ele>
        <time>2026-05-12T21:46:49Z</time>
      </trkpt>
      <trkpt lat="45.56601" lon="5.93412">
        <ele>274</ele>
        <time>2026-05-12T21:46:54Z</time>
      </trkpt>
      <trkpt lat="45.566" lon="5.93406">
        <ele>274</ele>
        <time>2026-05-12T21:46:55Z</time>
      </trkpt>
      <trkpt lat="45.56594" lon="5.93399">
        <ele>274</ele>
        <time>2026-05-12T21:46:57Z</time>
      </trkpt>
      <trkpt lat="45.56586" lon="5.93393">
        <ele>274</ele>
        <time>2026-05-12T21:46:59Z</time>
      </trkpt>
      <trkpt lat="45.5657" lon="5.93382">
        <ele>273.8</ele>
        <time>2026-05-12T21:47:03Z</time>
      </trkpt>
      <trkpt lat="45.56562" lon="5.93375">
        <ele>273.8</ele>
        <time>2026-05-12T21:47:05Z</time>
      </trkpt>
      <trkpt lat="45.56553" lon="5.93366">
        <ele>273.6</ele>
        <time>2026-05-12T21:47:07Z</time>
      </trkpt>
      <trkpt lat="45.56546" lon="5.93357">
        <ele>273.6</ele>
        <time>2026-05-12T21:47:09Z</time>
      </trkpt>
      <trkpt lat="45.56531" lon="5.93342">
        <ele>273.4</ele>
        <time>2026-05-12T21:47:13Z</time>
      </trkpt>
      <trkpt lat="45.56511" lon="5.9332">
        <ele>273.2</ele>
        <time>2026-05-12T21:47:18Z</time>
      </trkpt>
      <trkpt lat="45.56498" lon="5.93308">
        <ele>273.2</ele>
        <time>2026-05-12T21:47:21Z</time>
      </trkpt>
      <trkpt lat="45.5649" lon="5.93298">
        <ele>273</ele>
        <time>2026-05-12T21:47:23Z</time>
      </trkpt>
      <trkpt lat="45.56485" lon="5.93295">
        <ele>273</ele>
        <time>2026-05-12T21:47:24Z</time>
      </trkpt>
      <trkpt lat="45.56472" lon="5.93283">
        <ele>272.8</ele>
        <time>2026-05-12T21:47:27Z</time>
      </trkpt>
      <trkpt lat="45.56441" lon="5.93252">
        <ele>272.6</ele>
        <time>2026-05-12T21:47:34Z</time>
      </trkpt>
      <trkpt lat="45.56406" lon="5.93217">
        <ele>272.4</ele>
        <time>2026-05-12T21:47:41Z</time>
      </trkpt>
      <trkpt lat="45.56397" lon="5.93207">
        <ele>272.2</ele>
        <time>2026-05-12T21:47:43Z</time>
      </trkpt>
      <trkpt lat="45.56387" lon="5.93188">
        <ele>272</ele>
        <time>2026-05-12T21:47:46Z</time>
      </trkpt>
      <trkpt lat="45.56384" lon="5.93182">
        <ele>272</ele>
        <time>2026-05-12T21:47:47Z</time>
      </trkpt>
      <trkpt lat="45.56369" lon="5.93147">
        <ele>271.6</ele>
        <time>2026-05-12T21:47:52Z</time>
      </trkpt>
      <trkpt lat="45.56343" lon="5.93081">
        <ele>271</ele>
        <time>2026-05-12T21:48:01Z</time>
      </trkpt>
      <trkpt lat="45.56328" lon="5.93037">
        <ele>271</ele>
        <time>2026-05-12T21:48:08Z</time>
      </trkpt>
      <trkpt lat="45.56316" lon="5.92997">
        <ele>271.2</ele>
        <time>2026-05-12T21:48:14Z</time>
      </trkpt>
      <trkpt lat="45.56315" lon="5.9299">
        <ele>271.4</ele>
        <time>2026-05-12T21:48:15Z</time>
      </trkpt>
      <trkpt lat="45.56315" lon="5.9297">
        <ele>271.4</ele>
        <time>2026-05-12T21:48:18Z</time>
      </trkpt>
      <trkpt lat="45.56316" lon="5.92956">
        <ele>271.6</ele>
        <time>2026-05-12T21:48:20Z</time>
      </trkpt>
      <trkpt lat="45.56318" lon="5.92942">
        <ele>271.8</ele>
        <time>2026-05-12T21:48:22Z</time>
      </trkpt>
      <trkpt lat="45.5632" lon="5.92935">
        <ele>271.8</ele>
        <time>2026-05-12T21:48:23Z</time>
      </trkpt>
      <trkpt lat="45.56332" lon="5.92887">
        <ele>272</ele>
        <time>2026-05-12T21:48:30Z</time>
      </trkpt>
      <trkpt lat="45.56341" lon="5.92867">
        <ele>271.8</ele>
        <time>2026-05-12T21:48:33Z</time>
      </trkpt>
      <trkpt lat="45.56344" lon="5.92855">
        <ele>271.4</ele>
        <time>2026-05-12T21:48:35Z</time>
      </trkpt>
      <trkpt lat="45.56348" lon="5.92829">
        <ele>270.6</ele>
        <time>2026-05-12T21:48:39Z</time>
      </trkpt>
      <trkpt lat="45.56347" lon="5.92823">
        <ele>270.6</ele>
        <time>2026-05-12T21:48:40Z</time>
      </trkpt>
      <trkpt lat="45.56347" lon="5.92809">
        <ele>270.2</ele>
        <time>2026-05-12T21:48:42Z</time>
      </trkpt>
      <trkpt lat="45.56348" lon="5.92796">
        <ele>270.2</ele>
        <time>2026-05-12T21:48:44Z</time>
      </trkpt>
      <trkpt lat="45.5635" lon="5.92789">
        <ele>270.2</ele>
        <time>2026-05-12T21:48:45Z</time>
      </trkpt>
      <trkpt lat="45.56361" lon="5.92749">
        <ele>269.8</ele>
        <time>2026-05-12T21:48:51Z</time>
      </trkpt>
      <trkpt lat="45.56364" lon="5.92742">
        <ele>269.6</ele>
        <time>2026-05-12T21:48:52Z</time>
      </trkpt>
      <trkpt lat="45.56376" lon="5.92696">
        <ele>269.4</ele>
        <time>2026-05-12T21:48:59Z</time>
      </trkpt>
      <trkpt lat="45.56379" lon="5.92683">
        <ele>269.4</ele>
        <time>2026-05-12T21:49:01Z</time>
      </trkpt>
      <trkpt lat="45.56383" lon="5.92673">
        <ele>269.4</ele>
        <time>2026-05-12T21:49:03Z</time>
      </trkpt>
      <trkpt lat="45.56393" lon="5.92637">
        <ele>269.4</ele>
        <time>2026-05-12T21:49:09Z</time>
      </trkpt>
      <trkpt lat="45.56402" lon="5.92601">
        <ele>269</ele>
        <time>2026-05-12T21:49:14Z</time>
      </trkpt>
      <trkpt lat="45.56407" lon="5.92581">
        <ele>268.8</ele>
        <time>2026-05-12T21:49:17Z</time>
      </trkpt>
      <trkpt lat="45.56409" lon="5.92568">
        <ele>268.8</ele>
        <time>2026-05-12T21:49:19Z</time>
      </trkpt>
      <trkpt lat="45.56411" lon="5.92551">
        <ele>268.8</ele>
        <time>2026-05-12T21:49:22Z</time>
      </trkpt>
      <trkpt lat="45.56414" lon="5.92532">
        <ele>268.8</ele>
        <time>2026-05-12T21:49:25Z</time>
      </trkpt>
      <trkpt lat="45.56418" lon="5.92514">
        <ele>268.8</ele>
        <time>2026-05-12T21:49:28Z</time>
      </trkpt>
      <trkpt lat="45.56416" lon="5.9249">
        <ele>269</ele>
        <time>2026-05-12T21:49:32Z</time>
      </trkpt>
      <trkpt lat="45.56418" lon="5.9248">
        <ele>269</ele>
        <time>2026-05-12T21:49:34Z</time>
      </trkpt>
      <trkpt lat="45.56423" lon="5.92473">
        <ele>269.2</ele>
        <time>2026-05-12T21:49:36Z</time>
      </trkpt>
      <trkpt lat="45.56426" lon="5.92472">
        <ele>269.2</ele>
        <time>2026-05-12T21:49:37Z</time>
      </trkpt>
      <trkpt lat="45.56445" lon="5.92463">
        <ele>269.2</ele>
        <time>2026-05-12T21:49:43Z</time>
      </trkpt>
      <trkpt lat="45.56473" lon="5.92453">
        <ele>268.6</ele>
        <time>2026-05-12T21:49:50Z</time>
      </trkpt>
      <trkpt lat="45.5649" lon="5.92442">
        <ele>268.4</ele>
        <time>2026-05-12T21:49:55Z</time>
      </trkpt>
      <trkpt lat="45.56492" lon="5.92441">
        <ele>268.4</ele>
        <time>2026-05-12T21:49:56Z</time>
      </trkpt>
      <trkpt lat="45.56498" lon="5.92441">
        <ele>268.4</ele>
        <time>2026-05-12T21:49:59Z</time>
      </trkpt>
      <trkpt lat="45.56502" lon="5.92435">
        <ele>268.4</ele>
        <time>2026-05-12T21:50:01Z</time>
      </trkpt>
      <trkpt lat="45.5651" lon="5.9243">
        <ele>268.2</ele>
        <time>2026-05-12T21:50:03Z</time>
      </trkpt>
      <trkpt lat="45.56545" lon="5.92409">
        <ele>268.2</ele>
        <time>2026-05-12T21:50:11Z</time>
      </trkpt>
      <trkpt lat="45.56575" lon="5.92385">
        <ele>268.4</ele>
        <time>2026-05-12T21:50:18Z</time>
      </trkpt>
      <trkpt lat="45.56597" lon="5.92365">
        <ele>268.4</ele>
        <time>2026-05-12T21:50:25Z</time>
      </trkpt>
      <trkpt lat="45.56614" lon="5.92349">
        <ele>268.6</ele>
        <time>2026-05-12T21:50:31Z</time>
      </trkpt>
      <trkpt lat="45.56637" lon="5.92335">
        <ele>268.6</ele>
        <time>2026-05-12T21:50:38Z</time>
      </trkpt>
      <trkpt lat="45.5666" lon="5.92305">
        <ele>268.8</ele>
        <time>2026-05-12T21:50:45Z</time>
      </trkpt>
      <trkpt lat="45.56674" lon="5.92288">
        <ele>269</ele>
        <time>2026-05-12T21:50:51Z</time>
      </trkpt>
      <trkpt lat="45.56693" lon="5.92265">
        <ele>268.8</ele>
        <time>2026-05-12T21:50:58Z</time>
      </trkpt>
      <trkpt lat="45.56709" lon="5.92244">
        <ele>269</ele>
        <time>2026-05-12T21:51:04Z</time>
      </trkpt>
      <trkpt lat="45.56729" lon="5.92216">
        <ele>269</ele>
        <time>2026-05-12T21:51:11Z</time>
      </trkpt>
      <trkpt lat="45.56751" lon="5.92189">
        <ele>269.2</ele>
        <time>2026-05-12T21:51:18Z</time>
      </trkpt>
      <trkpt lat="45.56762" lon="5.92173">
        <ele>269.2</ele>
        <time>2026-05-12T21:51:22Z</time>
      </trkpt>
      <trkpt lat="45.56792" lon="5.92134">
        <ele>269</ele>
        <time>2026-05-12T21:51:31Z</time>
      </trkpt>
      <trkpt lat="45.568" lon="5.92123">
        <ele>269</ele>
        <time>2026-05-12T21:51:35Z</time>
      </trkpt>
      <trkpt lat="45.56802" lon="5.92121">
        <ele>268.8</ele>
        <time>2026-05-12T21:51:36Z</time>
      </trkpt>
      <trkpt lat="45.56805" lon="5.92123">
        <ele>268.8</ele>
        <time>2026-05-12T21:51:38Z</time>
      </trkpt>
      <trkpt lat="45.5681" lon="5.92121">
        <ele>268.8</ele>
        <time>2026-05-12T21:51:39Z</time>
      </trkpt>
      <trkpt lat="45.56821" lon="5.92099">
        <ele>268.6</ele>
        <time>2026-05-12T21:51:45Z</time>
      </trkpt>
      <trkpt lat="45.56824" lon="5.92075">
        <ele>268.6</ele>
        <time>2026-05-12T21:51:50Z</time>
      </trkpt>
      <trkpt lat="45.56835" lon="5.92052">
        <ele>268.2</ele>
        <time>2026-05-12T21:51:54Z</time>
      </trkpt>
      <trkpt lat="45.56844" lon="5.92022">
        <ele>268</ele>
        <time>2026-05-12T21:51:59Z</time>
      </trkpt>
      <trkpt lat="45.56845" lon="5.92001">
        <ele>267.8</ele>
        <time>2026-05-12T21:52:05Z</time>
      </trkpt>
      <trkpt lat="45.56855" lon="5.9198">
        <ele>268</ele>
        <time>2026-05-12T21:52:10Z</time>
      </trkpt>
      <trkpt lat="45.56861" lon="5.91956">
        <ele>268</ele>
        <time>2026-05-12T21:52:15Z</time>
      </trkpt>
      <trkpt lat="45.56871" lon="5.91931">
        <ele>268.2</ele>
        <time>2026-05-12T21:52:20Z</time>
      </trkpt>
      <trkpt lat="45.5688" lon="5.91911">
        <ele>268</ele>
        <time>2026-05-12T21:52:24Z</time>
      </trkpt>
      <trkpt lat="45.56887" lon="5.91903">
        <ele>268</ele>
        <time>2026-05-12T21:52:26Z</time>
      </trkpt>
      <trkpt lat="45.56904" lon="5.91888">
        <ele>267.6</ele>
        <time>2026-05-12T21:52:31Z</time>
      </trkpt>
      <trkpt lat="45.56906" lon="5.91884">
        <ele>267.6</ele>
        <time>2026-05-12T21:52:32Z</time>
      </trkpt>
      <trkpt lat="45.56911" lon="5.91875">
        <ele>267.6</ele>
        <time>2026-05-12T21:52:34Z</time>
      </trkpt>
      <trkpt lat="45.56924" lon="5.91863">
        <ele>267.6</ele>
        <time>2026-05-12T21:52:37Z</time>
      </trkpt>
      <trkpt lat="45.56956" lon="5.91831">
        <ele>267.4</ele>
        <time>2026-05-12T21:52:44Z</time>
      </trkpt>
      <trkpt lat="45.5696" lon="5.91827">
        <ele>267.4</ele>
        <time>2026-05-12T21:52:45Z</time>
      </trkpt>
      <trkpt lat="45.56974" lon="5.91816">
        <ele>267.2</ele>
        <time>2026-05-12T21:52:48Z</time>
      </trkpt>
      <trkpt lat="45.56981" lon="5.91809">
        <ele>267</ele>
        <time>2026-05-12T21:52:50Z</time>
      </trkpt>
      <trkpt lat="45.56997" lon="5.91794">
        <ele>267</ele>
        <time>2026-05-12T21:52:54Z</time>
      </trkpt>
      <trkpt lat="45.57017" lon="5.91782">
        <ele>267</ele>
        <time>2026-05-12T21:52:58Z</time>
      </trkpt>
      <trkpt lat="45.57024" lon="5.91776">
        <ele>267</ele>
        <time>2026-05-12T21:53:00Z</time>
      </trkpt>
      <trkpt lat="45.57042" lon="5.91757">
        <ele>267.2</ele>
        <time>2026-05-12T21:53:05Z</time>
      </trkpt>
      <trkpt lat="45.57046" lon="5.91751">
        <ele>267.2</ele>
        <time>2026-05-12T21:53:07Z</time>
      </trkpt>
      <trkpt lat="45.57051" lon="5.91743">
        <ele>267.2</ele>
        <time>2026-05-12T21:53:09Z</time>
      </trkpt>
      <trkpt lat="45.57051" lon="5.91739">
        <ele>267.2</ele>
        <time>2026-05-12T21:53:10Z</time>
      </trkpt>
      <trkpt lat="45.57047" lon="5.91728">
        <ele>267.2</ele>
        <time>2026-05-12T21:53:12Z</time>
      </trkpt>
      <trkpt lat="45.57032" lon="5.9168">
        <ele>266.8</ele>
        <time>2026-05-12T21:53:20Z</time>
      </trkpt>
      <trkpt lat="45.57031" lon="5.91673">
        <ele>266.8</ele>
        <time>2026-05-12T21:53:21Z</time>
      </trkpt>
      <trkpt lat="45.5703" lon="5.91667">
        <ele>266.8</ele>
        <time>2026-05-12T21:53:22Z</time>
      </trkpt>
      <trkpt lat="45.57026" lon="5.91657">
        <ele>266.6</ele>
        <time>2026-05-12T21:53:24Z</time>
      </trkpt>
      <trkpt lat="45.57022" lon="5.91644">
        <ele>266.4</ele>
        <time>2026-05-12T21:53:26Z</time>
      </trkpt>
      <trkpt lat="45.57019" lon="5.91633">
        <ele>266.2</ele>
        <time>2026-05-12T21:53:28Z</time>
      </trkpt>
      <trkpt lat="45.57014" lon="5.91616">
        <ele>265.8</ele>
        <time>2026-05-12T21:53:32Z</time>
      </trkpt>
      <trkpt lat="45.57015" lon="5.91593">
        <ele>265.6</ele>
        <time>2026-05-12T21:53:36Z</time>
      </trkpt>
      <trkpt lat="45.57026" lon="5.91575">
        <ele>265.4</ele>
        <time>2026-05-12T21:53:40Z</time>
      </trkpt>
      <trkpt lat="45.57038" lon="5.91546">
        <ele>265.2</ele>
        <time>2026-05-12T21:53:45Z</time>
      </trkpt>
      <trkpt lat="45.5704" lon="5.91541">
        <ele>265.2</ele>
        <time>2026-05-12T21:53:46Z</time>
      </trkpt>
      <trkpt lat="45.57045" lon="5.91523">
        <ele>265.2</ele>
        <time>2026-05-12T21:53:49Z</time>
      </trkpt>
      <trkpt lat="45.57049" lon="5.9151">
        <ele>265</ele>
        <time>2026-05-12T21:53:51Z</time>
      </trkpt>
      <trkpt lat="45.57055" lon="5.91501">
        <ele>264.8</ele>
        <time>2026-05-12T21:53:53Z</time>
      </trkpt>
      <trkpt lat="45.57062" lon="5.91481">
        <ele>264.8</ele>
        <time>2026-05-12T21:53:56Z</time>
      </trkpt>
      <trkpt lat="45.57066" lon="5.91462">
        <ele>264.6</ele>
        <time>2026-05-12T21:53:58Z</time>
      </trkpt>
      <trkpt lat="45.57075" lon="5.91441">
        <ele>264.6</ele>
        <time>2026-05-12T21:54:01Z</time>
      </trkpt>
      <trkpt lat="45.57078" lon="5.91436">
        <ele>264.4</ele>
        <time>2026-05-12T21:54:02Z</time>
      </trkpt>
      <trkpt lat="45.57084" lon="5.91424">
        <ele>264.4</ele>
        <time>2026-05-12T21:54:04Z</time>
      </trkpt>
      <trkpt lat="45.57085" lon="5.91417">
        <ele>264.4</ele>
        <time>2026-05-12T21:54:05Z</time>
      </trkpt>
      <trkpt lat="45.57091" lon="5.91405">
        <ele>264.4</ele>
        <time>2026-05-12T21:54:07Z</time>
      </trkpt>
      <trkpt lat="45.57096" lon="5.91391">
        <ele>264.4</ele>
        <time>2026-05-12T21:54:09Z</time>
      </trkpt>
      <trkpt lat="45.57104" lon="5.9137">
        <ele>264.2</ele>
        <time>2026-05-12T21:54:12Z</time>
      </trkpt>
      <trkpt lat="45.57109" lon="5.91366">
        <ele>264.2</ele>
        <time>2026-05-12T21:54:13Z</time>
      </trkpt>
      <trkpt lat="45.57112" lon="5.91361">
        <ele>264.2</ele>
        <time>2026-05-12T21:54:14Z</time>
      </trkpt>
      <trkpt lat="45.57118" lon="5.91351">
        <ele>264.2</ele>
        <time>2026-05-12T21:54:16Z</time>
      </trkpt>
      <trkpt lat="45.5712" lon="5.91339">
        <ele>264.2</ele>
        <time>2026-05-12T21:54:18Z</time>
      </trkpt>
      <trkpt lat="45.57133" lon="5.91298">
        <ele>263.8</ele>
        <time>2026-05-12T21:54:24Z</time>
      </trkpt>
      <trkpt lat="45.57145" lon="5.91267">
        <ele>263.8</ele>
        <time>2026-05-12T21:54:29Z</time>
      </trkpt>
      <trkpt lat="45.57155" lon="5.91247">
        <ele>263.8</ele>
        <time>2026-05-12T21:54:33Z</time>
      </trkpt>
      <trkpt lat="45.57157" lon="5.91242">
        <ele>263.8</ele>
        <time>2026-05-12T21:54:34Z</time>
      </trkpt>
      <trkpt lat="45.57162" lon="5.91232">
        <ele>263.6</ele>
        <time>2026-05-12T21:54:36Z</time>
      </trkpt>
      <trkpt lat="45.57165" lon="5.91226">
        <ele>263.6</ele>
        <time>2026-05-12T21:54:37Z</time>
      </trkpt>
      <trkpt lat="45.57167" lon="5.9122">
        <ele>263.6</ele>
        <time>2026-05-12T21:54:38Z</time>
      </trkpt>
      <trkpt lat="45.5717" lon="5.91215">
        <ele>263.6</ele>
        <time>2026-05-12T21:54:39Z</time>
      </trkpt>
      <trkpt lat="45.57177" lon="5.91202">
        <ele>263.6</ele>
        <time>2026-05-12T21:54:42Z</time>
      </trkpt>
      <trkpt lat="45.57188" lon="5.91184">
        <ele>263.4</ele>
        <time>2026-05-12T21:54:46Z</time>
      </trkpt>
      <trkpt lat="45.57198" lon="5.91161">
        <ele>263.2</ele>
        <time>2026-05-12T21:54:50Z</time>
      </trkpt>
      <trkpt lat="45.57201" lon="5.91156">
        <ele>263.2</ele>
        <time>2026-05-12T21:54:51Z</time>
      </trkpt>
      <trkpt lat="45.57207" lon="5.91146">
        <ele>263.2</ele>
        <time>2026-05-12T21:54:53Z</time>
      </trkpt>
      <trkpt lat="45.57214" lon="5.91124">
        <ele>263.2</ele>
        <time>2026-05-12T21:54:56Z</time>
      </trkpt>
      <trkpt lat="45.57219" lon="5.91104">
        <ele>263.2</ele>
        <time>2026-05-12T21:54:59Z</time>
      </trkpt>
      <trkpt lat="45.57233" lon="5.91079">
        <ele>263</ele>
        <time>2026-05-12T21:55:04Z</time>
      </trkpt>
      <trkpt lat="45.57237" lon="5.91075">
        <ele>263</ele>
        <time>2026-05-12T21:55:05Z</time>
      </trkpt>
      <trkpt lat="45.57239" lon="5.91069">
        <ele>263</ele>
        <time>2026-05-12T21:55:06Z</time>
      </trkpt>
      <trkpt lat="45.57241" lon="5.91049">
        <ele>263</ele>
        <time>2026-05-12T21:55:08Z</time>
      </trkpt>
      <trkpt lat="45.57242" lon="5.91025">
        <ele>263.2</ele>
        <time>2026-05-12T21:55:11Z</time>
      </trkpt>
      <trkpt lat="45.57241" lon="5.91014">
        <ele>263.4</ele>
        <time>2026-05-12T21:55:13Z</time>
      </trkpt>
      <trkpt lat="45.57248" lon="5.90989">
        <ele>263.6</ele>
        <time>2026-05-12T21:55:17Z</time>
      </trkpt>
      <trkpt lat="45.57267" lon="5.90916">
        <ele>264.4</ele>
        <time>2026-05-12T21:55:28Z</time>
      </trkpt>
      <trkpt lat="45.57272" lon="5.90897">
        <ele>264.6</ele>
        <time>2026-05-12T21:55:31Z</time>
      </trkpt>
      <trkpt lat="45.57281" lon="5.90865">
        <ele>264.8</ele>
        <time>2026-05-12T21:55:36Z</time>
      </trkpt>
      <trkpt lat="45.57296" lon="5.90811">
        <ele>265.4</ele>
        <time>2026-05-12T21:55:45Z</time>
      </trkpt>
      <trkpt lat="45.573" lon="5.90799">
        <ele>265.6</ele>
        <time>2026-05-12T21:55:47Z</time>
      </trkpt>
      <trkpt lat="45.57303" lon="5.90787">
        <ele>265.6</ele>
        <time>2026-05-12T21:55:49Z</time>
      </trkpt>
      <trkpt lat="45.57305" lon="5.90781">
        <ele>265.8</ele>
        <time>2026-05-12T21:55:50Z</time>
      </trkpt>
      <trkpt lat="45.57316" lon="5.90742">
        <ele>266.4</ele>
        <time>2026-05-12T21:55:57Z</time>
      </trkpt>
      <trkpt lat="45.57319" lon="5.90731">
        <ele>266.4</ele>
        <time>2026-05-12T21:55:59Z</time>
      </trkpt>
      <trkpt lat="45.57322" lon="5.90721">
        <ele>266.6</ele>
        <time>2026-05-12T21:56:01Z</time>
      </trkpt>
      <trkpt lat="45.5733" lon="5.90702">
        <ele>266.8</ele>
        <time>2026-05-12T21:56:05Z</time>
      </trkpt>
      <trkpt lat="45.57345" lon="5.9069">
        <ele>267</ele>
        <time>2026-05-12T21:56:09Z</time>
      </trkpt>
      <trkpt lat="45.57352" lon="5.90681">
        <ele>267.2</ele>
        <time>2026-05-12T21:56:11Z</time>
      </trkpt>
      <trkpt lat="45.57355" lon="5.90669">
        <ele>267.2</ele>
        <time>2026-05-12T21:56:13Z</time>
      </trkpt>
      <trkpt lat="45.57354" lon="5.90657">
        <ele>267.4</ele>
        <time>2026-05-12T21:56:15Z</time>
      </trkpt>
      <trkpt lat="45.57352" lon="5.90646">
        <ele>267.6</ele>
        <time>2026-05-12T21:56:17Z</time>
      </trkpt>
      <trkpt lat="45.57352" lon="5.90633">
        <ele>267.8</ele>
        <time>2026-05-12T21:56:19Z</time>
      </trkpt>
      <trkpt lat="45.57353" lon="5.90627">
        <ele>268</ele>
        <time>2026-05-12T21:56:20Z</time>
      </trkpt>
      <trkpt lat="45.57353" lon="5.90622">
        <ele>268</ele>
        <time>2026-05-12T21:56:21Z</time>
      </trkpt>
      <trkpt lat="45.57356" lon="5.90591">
        <ele>268.6</ele>
        <time>2026-05-12T21:56:26Z</time>
      </trkpt>
      <trkpt lat="45.57357" lon="5.90573">
        <ele>268.8</ele>
        <time>2026-05-12T21:56:29Z</time>
      </trkpt>
      <trkpt lat="45.57357" lon="5.90566">
        <ele>268.8</ele>
        <time>2026-05-12T21:56:30Z</time>
      </trkpt>
      <trkpt lat="45.57358" lon="5.90561">
        <ele>268.8</ele>
        <time>2026-05-12T21:56:31Z</time>
      </trkpt>
      <trkpt lat="45.5736" lon="5.90553">
        <ele>268.8</ele>
        <time>2026-05-12T21:56:32Z</time>
      </trkpt>
      <trkpt lat="45.57369" lon="5.90523">
        <ele>269</ele>
        <time>2026-05-12T21:56:38Z</time>
      </trkpt>
      <trkpt lat="45.57371" lon="5.90515">
        <ele>269</ele>
        <time>2026-05-12T21:56:41Z</time>
      </trkpt>
      <trkpt lat="45.57373" lon="5.90514">
        <ele>269</ele>
        <time>2026-05-12T21:56:42Z</time>
      </trkpt>
      <trkpt lat="45.57375" lon="5.90515">
        <ele>268.8</ele>
        <time>2026-05-12T21:56:43Z</time>
      </trkpt>
      <trkpt lat="45.57383" lon="5.90524">
        <ele>268.6</ele>
        <time>2026-05-12T21:56:46Z</time>
      </trkpt>
      <trkpt lat="45.57398" lon="5.90539">
        <ele>268.2</ele>
        <time>2026-05-12T21:56:50Z</time>
      </trkpt>
      <trkpt lat="45.57404" lon="5.90543">
        <ele>268</ele>
        <time>2026-05-12T21:56:51Z</time>
      </trkpt>
      <trkpt lat="45.57409" lon="5.90546">
        <ele>267.8</ele>
        <time>2026-05-12T21:56:52Z</time>
      </trkpt>
      <trkpt lat="45.57436" lon="5.90565">
        <ele>266.8</ele>
        <time>2026-05-12T21:56:57Z</time>
      </trkpt>
      <trkpt lat="45.57473" lon="5.90587">
        <ele>265.8</ele>
        <time>2026-05-12T21:57:04Z</time>
      </trkpt>
      <trkpt lat="45.57485" lon="5.90596">
        <ele>265.6</ele>
        <time>2026-05-12T21:57:06Z</time>
      </trkpt>
      <trkpt lat="45.57522" lon="5.90617">
        <ele>265.2</ele>
        <time>2026-05-12T21:57:13Z</time>
      </trkpt>
      <trkpt lat="45.57564" lon="5.9064">
        <ele>264.8</ele>
        <time>2026-05-12T21:57:21Z</time>
      </trkpt>
      <trkpt lat="45.57577" lon="5.90647">
        <ele>264.8</ele>
        <time>2026-05-12T21:57:24Z</time>
      </trkpt>
      <trkpt lat="45.57589" lon="5.90653">
        <ele>264.8</ele>
        <time>2026-05-12T21:57:27Z</time>
      </trkpt>
      <trkpt lat="45.57601" lon="5.90661">
        <ele>265.4</ele>
        <time>2026-05-12T21:57:32Z</time>
      </trkpt>
      <trkpt lat="45.57615" lon="5.90672">
        <ele>265.6</ele>
        <time>2026-05-12T21:57:36Z</time>
      </trkpt>
      <trkpt lat="45.57619" lon="5.90673">
        <ele>265.6</ele>
        <time>2026-05-12T21:57:37Z</time>
      </trkpt>
      <trkpt lat="45.5763" lon="5.90678">
        <ele>265.6</ele>
        <time>2026-05-12T21:57:39Z</time>
      </trkpt>
      <trkpt lat="45.57645" lon="5.90686">
        <ele>265.4</ele>
        <time>2026-05-12T21:57:42Z</time>
      </trkpt>
      <trkpt lat="45.57679" lon="5.90706">
        <ele>264.8</ele>
        <time>2026-05-12T21:57:48Z</time>
      </trkpt>
      <trkpt lat="45.57727" lon="5.90733">
        <ele>264.2</ele>
        <time>2026-05-12T21:57:56Z</time>
      </trkpt>
      <trkpt lat="45.57754" lon="5.90748">
        <ele>263.8</ele>
        <time>2026-05-12T21:58:00Z</time>
      </trkpt>
      <trkpt lat="45.57797" lon="5.90773">
        <ele>262.8</ele>
        <time>2026-05-12T21:58:07Z</time>
      </trkpt>
      <trkpt lat="45.57809" lon="5.9078">
        <ele>262.6</ele>
        <time>2026-05-12T21:58:09Z</time>
      </trkpt>
      <trkpt lat="45.57845" lon="5.90801">
        <ele>262.4</ele>
        <time>2026-05-12T21:58:15Z</time>
      </trkpt>
      <trkpt lat="45.57852" lon="5.90803">
        <ele>262.4</ele>
        <time>2026-05-12T21:58:16Z</time>
      </trkpt>
      <trkpt lat="45.57903" lon="5.90806">
        <ele>261.8</ele>
        <time>2026-05-12T21:58:24Z</time>
      </trkpt>
      <trkpt lat="45.57922" lon="5.90808">
        <ele>261.6</ele>
        <time>2026-05-12T21:58:27Z</time>
      </trkpt>
      <trkpt lat="45.57948" lon="5.90811">
        <ele>261.4</ele>
        <time>2026-05-12T21:58:31Z</time>
      </trkpt>
      <trkpt lat="45.58001" lon="5.90807">
        <ele>261</ele>
        <time>2026-05-12T21:58:39Z</time>
      </trkpt>
      <trkpt lat="45.58051" lon="5.90787">
        <ele>260.6</ele>
        <time>2026-05-12T21:58:47Z</time>
      </trkpt>
      <trkpt lat="45.58097" lon="5.90769">
        <ele>260</ele>
        <time>2026-05-12T21:58:55Z</time>
      </trkpt>
      <trkpt lat="45.58125" lon="5.90758">
        <ele>259.6</ele>
        <time>2026-05-12T21:59:00Z</time>
      </trkpt>
      <trkpt lat="45.58143" lon="5.90752">
        <ele>259.2</ele>
        <time>2026-05-12T21:59:03Z</time>
      </trkpt>
      <trkpt lat="45.58187" lon="5.90731">
        <ele>259</ele>
        <time>2026-05-12T21:59:11Z</time>
      </trkpt>
      <trkpt lat="45.58191" lon="5.90726">
        <ele>259</ele>
        <time>2026-05-12T21:59:12Z</time>
      </trkpt>
      <trkpt lat="45.58205" lon="5.90713">
        <ele>258.8</ele>
        <time>2026-05-12T21:59:15Z</time>
      </trkpt>
      <trkpt lat="45.58216" lon="5.90707">
        <ele>258.6</ele>
        <time>2026-05-12T21:59:17Z</time>
      </trkpt>
      <trkpt lat="45.58242" lon="5.90696">
        <ele>258.4</ele>
        <time>2026-05-12T21:59:21Z</time>
      </trkpt>
      <trkpt lat="45.58249" lon="5.90695">
        <ele>258.2</ele>
        <time>2026-05-12T21:59:22Z</time>
      </trkpt>
      <trkpt lat="45.58257" lon="5.90693">
        <ele>258</ele>
        <time>2026-05-12T21:59:23Z</time>
      </trkpt>
      <trkpt lat="45.58274" lon="5.90685">
        <ele>257.4</ele>
        <time>2026-05-12T21:59:26Z</time>
      </trkpt>
      <trkpt lat="45.58306" lon="5.90678">
        <ele>257.4</ele>
        <time>2026-05-12T21:59:32Z</time>
      </trkpt>
      <trkpt lat="45.58353" lon="5.90667">
        <ele>257.8</ele>
        <time>2026-05-12T21:59:40Z</time>
      </trkpt>
      <trkpt lat="45.5839" lon="5.90651">
        <ele>258</ele>
        <time>2026-05-12T21:59:47Z</time>
      </trkpt>
      <trkpt lat="45.58395" lon="5.90651">
        <ele>258</ele>
        <time>2026-05-12T21:59:48Z</time>
      </trkpt>
      <trkpt lat="45.584" lon="5.90653">
        <ele>258</ele>
        <time>2026-05-12T21:59:49Z</time>
      </trkpt>
      <trkpt lat="45.5841" lon="5.90656">
        <ele>258</ele>
        <time>2026-05-12T21:59:51Z</time>
      </trkpt>
      <trkpt lat="45.58415" lon="5.90655">
        <ele>258</ele>
        <time>2026-05-12T21:59:52Z</time>
      </trkpt>
      <trkpt lat="45.5842" lon="5.90652">
        <ele>258</ele>
        <time>2026-05-12T21:59:53Z</time>
      </trkpt>
      <trkpt lat="45.58427" lon="5.90643">
        <ele>257.8</ele>
        <time>2026-05-12T21:59:55Z</time>
      </trkpt>
      <trkpt lat="45.58444" lon="5.90621">
        <ele>257.2</ele>
        <time>2026-05-12T22:00:00Z</time>
      </trkpt>
      <trkpt lat="45.58448" lon="5.90616">
        <ele>257.2</ele>
        <time>2026-05-12T22:00:01Z</time>
      </trkpt>
      <trkpt lat="45.5846" lon="5.90599">
        <ele>257.2</ele>
        <time>2026-05-12T22:00:04Z</time>
      </trkpt>
      <trkpt lat="45.5847" lon="5.90584">
        <ele>257</ele>
        <time>2026-05-12T22:00:07Z</time>
      </trkpt>
      <trkpt lat="45.58507" lon="5.9053">
        <ele>256.8</ele>
        <time>2026-05-12T22:00:16Z</time>
      </trkpt>
      <trkpt lat="45.58536" lon="5.90497">
        <ele>256.8</ele>
        <time>2026-05-12T22:00:22Z</time>
      </trkpt>
      <trkpt lat="45.58552" lon="5.90483">
        <ele>256.8</ele>
        <time>2026-05-12T22:00:25Z</time>
      </trkpt>
      <trkpt lat="45.58574" lon="5.90464">
        <ele>256.6</ele>
        <time>2026-05-12T22:00:29Z</time>
      </trkpt>
      <trkpt lat="45.58611" lon="5.90428">
        <ele>256.4</ele>
        <time>2026-05-12T22:00:36Z</time>
      </trkpt>
      <trkpt lat="45.58615" lon="5.90421">
        <ele>256.4</ele>
        <time>2026-05-12T22:00:37Z</time>
      </trkpt>
      <trkpt lat="45.5864" lon="5.90383">
        <ele>256.2</ele>
        <time>2026-05-12T22:00:43Z</time>
      </trkpt>
      <trkpt lat="45.58672" lon="5.90327">
        <ele>256</ele>
        <time>2026-05-12T22:00:51Z</time>
      </trkpt>
      <trkpt lat="45.58712" lon="5.90271">
        <ele>255.6</ele>
        <time>2026-05-12T22:01:00Z</time>
      </trkpt>
      <trkpt lat="45.5873" lon="5.90247">
        <ele>255.4</ele>
        <time>2026-05-12T22:01:04Z</time>
      </trkpt>
      <trkpt lat="45.58753" lon="5.90217">
        <ele>255.4</ele>
        <time>2026-05-12T22:01:09Z</time>
      </trkpt>
      <trkpt lat="45.5877" lon="5.90193">
        <ele>255.2</ele>
        <time>2026-05-12T22:01:13Z</time>
      </trkpt>
      <trkpt lat="45.58805" lon="5.90145">
        <ele>255.2</ele>
        <time>2026-05-12T22:01:22Z</time>
      </trkpt>
      <trkpt lat="45.5883" lon="5.90115">
        <ele>255.2</ele>
        <time>2026-05-12T22:01:29Z</time>
      </trkpt>
      <trkpt lat="45.58834" lon="5.90111">
        <ele>255.2</ele>
        <time>2026-05-12T22:01:30Z</time>
      </trkpt>
      <trkpt lat="45.58848" lon="5.90104">
        <ele>255.2</ele>
        <time>2026-05-12T22:01:33Z</time>
      </trkpt>
      <trkpt lat="45.58878" lon="5.9008">
        <ele>254.8</ele>
        <time>2026-05-12T22:01:38Z</time>
      </trkpt>
      <trkpt lat="45.58891" lon="5.90068">
        <ele>254.4</ele>
        <time>2026-05-12T22:01:40Z</time>
      </trkpt>
      <trkpt lat="45.58897" lon="5.90062">
        <ele>254.2</ele>
        <time>2026-05-12T22:01:41Z</time>
      </trkpt>
      <trkpt lat="45.58902" lon="5.90055">
        <ele>253.6</ele>
        <time>2026-05-12T22:01:42Z</time>
      </trkpt>
      <trkpt lat="45.58906" lon="5.90047">
        <ele>253</ele>
        <time>2026-05-12T22:01:43Z</time>
      </trkpt>
      <trkpt lat="45.58918" lon="5.90017">
        <ele>252.8</ele>
        <time>2026-05-12T22:01:47Z</time>
      </trkpt>
      <trkpt lat="45.58927" lon="5.89998">
        <ele>253</ele>
        <time>2026-05-12T22:01:50Z</time>
      </trkpt>
      <trkpt lat="45.58934" lon="5.89987">
        <ele>253.4</ele>
        <time>2026-05-12T22:01:52Z</time>
      </trkpt>
      <trkpt lat="45.58938" lon="5.89981">
        <ele>253.6</ele>
        <time>2026-05-12T22:01:53Z</time>
      </trkpt>
      <trkpt lat="45.58955" lon="5.89958">
        <ele>254.2</ele>
        <time>2026-05-12T22:01:57Z</time>
      </trkpt>
      <trkpt lat="45.58968" lon="5.89941">
        <ele>254.4</ele>
        <time>2026-05-12T22:02:00Z</time>
      </trkpt>
      <trkpt lat="45.59008" lon="5.89881">
        <ele>253.8</ele>
        <time>2026-05-12T22:02:09Z</time>
      </trkpt>
      <trkpt lat="45.59051" lon="5.89821">
        <ele>253.2</ele>
        <time>2026-05-12T22:02:18Z</time>
      </trkpt>
      <trkpt lat="45.59056" lon="5.89815">
        <ele>253</ele>
        <time>2026-05-12T22:02:19Z</time>
      </trkpt>
      <trkpt lat="45.59095" lon="5.89765">
        <ele>252.8</ele>
        <time>2026-05-12T22:02:27Z</time>
      </trkpt>
      <trkpt lat="45.59142" lon="5.89713">
        <ele>252.6</ele>
        <time>2026-05-12T22:02:36Z</time>
      </trkpt>
      <trkpt lat="45.59184" lon="5.89658">
        <ele>252.6</ele>
        <time>2026-05-12T22:02:45Z</time>
      </trkpt>
      <trkpt lat="45.59198" lon="5.89639">
        <ele>252.6</ele>
        <time>2026-05-12T22:02:48Z</time>
      </trkpt>
      <trkpt lat="45.59239" lon="5.89581">
        <ele>252.4</ele>
        <time>2026-05-12T22:02:57Z</time>
      </trkpt>
      <trkpt lat="45.59258" lon="5.89554">
        <ele>252.2</ele>
        <time>2026-05-12T22:03:01Z</time>
      </trkpt>
      <trkpt lat="45.59281" lon="5.89523">
        <ele>252</ele>
        <time>2026-05-12T22:03:06Z</time>
      </trkpt>
      <trkpt lat="45.59322" lon="5.89465">
        <ele>251.8</ele>
        <time>2026-05-12T22:03:15Z</time>
      </trkpt>
      <trkpt lat="45.59336" lon="5.89446">
        <ele>251.8</ele>
        <time>2026-05-12T22:03:18Z</time>
      </trkpt>
      <trkpt lat="45.59377" lon="5.89388">
        <ele>251.4</ele>
        <time>2026-05-12T22:03:27Z</time>
      </trkpt>
      <trkpt lat="45.59387" lon="5.89375">
        <ele>251.4</ele>
        <time>2026-05-12T22:03:29Z</time>
      </trkpt>
      <trkpt lat="45.59423" lon="5.89337">
        <ele>251.2</ele>
        <time>2026-05-12T22:03:36Z</time>
      </trkpt>
      <trkpt lat="45.59433" lon="5.89326">
        <ele>251.2</ele>
        <time>2026-05-12T22:03:38Z</time>
      </trkpt>
      <trkpt lat="45.59459" lon="5.89302">
        <ele>251.2</ele>
        <time>2026-05-12T22:03:43Z</time>
      </trkpt>
      <trkpt lat="45.59465" lon="5.89298">
        <ele>251</ele>
        <time>2026-05-12T22:03:44Z</time>
      </trkpt>
      <trkpt lat="45.59488" lon="5.89292">
        <ele>250.8</ele>
        <time>2026-05-12T22:03:48Z</time>
      </trkpt>
      <trkpt lat="45.59495" lon="5.89289">
        <ele>250.8</ele>
        <time>2026-05-12T22:03:49Z</time>
      </trkpt>
      <trkpt lat="45.59515" lon="5.89277">
        <ele>250.4</ele>
        <time>2026-05-12T22:03:52Z</time>
      </trkpt>
      <trkpt lat="45.59535" lon="5.8927">
        <ele>250.2</ele>
        <time>2026-05-12T22:03:55Z</time>
      </trkpt>
      <trkpt lat="45.59548" lon="5.89266">
        <ele>250.2</ele>
        <time>2026-05-12T22:03:57Z</time>
      </trkpt>
      <trkpt lat="45.59591" lon="5.89255">
        <ele>250</ele>
        <time>2026-05-12T22:04:04Z</time>
      </trkpt>
      <trkpt lat="45.59615" lon="5.8925">
        <ele>250.2</ele>
        <time>2026-05-12T22:04:08Z</time>
      </trkpt>
      <trkpt lat="45.59626" lon="5.8925">
        <ele>250.2</ele>
        <time>2026-05-12T22:04:10Z</time>
      </trkpt>
      <trkpt lat="45.59633" lon="5.8925">
        <ele>250.2</ele>
        <time>2026-05-12T22:04:11Z</time>
      </trkpt>
      <trkpt lat="45.59652" lon="5.89246">
        <ele>250.2</ele>
        <time>2026-05-12T22:04:14Z</time>
      </trkpt>
      <trkpt lat="45.59659" lon="5.89243">
        <ele>250.2</ele>
        <time>2026-05-12T22:04:15Z</time>
      </trkpt>
      <trkpt lat="45.59695" lon="5.8923">
        <ele>249.8</ele>
        <time>2026-05-12T22:04:21Z</time>
      </trkpt>
      <trkpt lat="45.59701" lon="5.89227">
        <ele>249.8</ele>
        <time>2026-05-12T22:04:22Z</time>
      </trkpt>
      <trkpt lat="45.59712" lon="5.8922">
        <ele>249.8</ele>
        <time>2026-05-12T22:04:24Z</time>
      </trkpt>
      <trkpt lat="45.59718" lon="5.89218">
        <ele>249.8</ele>
        <time>2026-05-12T22:04:25Z</time>
      </trkpt>
      <trkpt lat="45.59758" lon="5.892">
        <ele>249.8</ele>
        <time>2026-05-12T22:04:32Z</time>
      </trkpt>
      <trkpt lat="45.59809" lon="5.89174">
        <ele>250</ele>
        <time>2026-05-12T22:04:41Z</time>
      </trkpt>
      <trkpt lat="45.59831" lon="5.89163">
        <ele>250.2</ele>
        <time>2026-05-12T22:04:45Z</time>
      </trkpt>
      <trkpt lat="45.59837" lon="5.89162">
        <ele>250.2</ele>
        <time>2026-05-12T22:04:46Z</time>
      </trkpt>
      <trkpt lat="45.59844" lon="5.89161">
        <ele>250</ele>
        <time>2026-05-12T22:04:47Z</time>
      </trkpt>
      <trkpt lat="45.59873" lon="5.89152">
        <ele>249.8</ele>
        <time>2026-05-12T22:04:51Z</time>
      </trkpt>
      <trkpt lat="45.599" lon="5.89141">
        <ele>249</ele>
        <time>2026-05-12T22:04:55Z</time>
      </trkpt>
      <trkpt lat="45.59914" lon="5.89136">
        <ele>248.4</ele>
        <time>2026-05-12T22:04:57Z</time>
      </trkpt>
      <trkpt lat="45.59935" lon="5.8913">
        <ele>248</ele>
        <time>2026-05-12T22:05:00Z</time>
      </trkpt>
      <trkpt lat="45.59976" lon="5.89118">
        <ele>247.6</ele>
        <time>2026-05-12T22:05:06Z</time>
      </trkpt>
      <trkpt lat="45.60014" lon="5.89105">
        <ele>247.6</ele>
        <time>2026-05-12T22:05:12Z</time>
      </trkpt>
      <trkpt lat="45.60065" lon="5.89078">
        <ele>247.4</ele>
        <time>2026-05-12T22:05:20Z</time>
      </trkpt>
      <trkpt lat="45.60087" lon="5.8906">
        <ele>247.4</ele>
        <time>2026-05-12T22:05:24Z</time>
      </trkpt>
      <trkpt lat="45.60101" lon="5.89044">
        <ele>247.6</ele>
        <time>2026-05-12T22:05:27Z</time>
      </trkpt>
      <trkpt lat="45.6013" lon="5.88996">
        <ele>247.6</ele>
        <time>2026-05-12T22:05:34Z</time>
      </trkpt>
      <trkpt lat="45.60167" lon="5.88947">
        <ele>247.6</ele>
        <time>2026-05-12T22:05:42Z</time>
      </trkpt>
      <trkpt lat="45.60189" lon="5.88924">
        <ele>247.4</ele>
        <time>2026-05-12T22:05:47Z</time>
      </trkpt>
      <trkpt lat="45.60201" lon="5.88908">
        <ele>247</ele>
        <time>2026-05-12T22:05:50Z</time>
      </trkpt>
      <trkpt lat="45.60207" lon="5.88898">
        <ele>247</ele>
        <time>2026-05-12T22:05:52Z</time>
      </trkpt>
      <trkpt lat="45.60209" lon="5.88894">
        <ele>247</ele>
        <time>2026-05-12T22:05:53Z</time>
      </trkpt>
      <trkpt lat="45.60213" lon="5.88889">
        <ele>247</ele>
        <time>2026-05-12T22:05:55Z</time>
      </trkpt>
      <trkpt lat="45.60216" lon="5.8889">
        <ele>247.4</ele>
        <time>2026-05-12T22:05:57Z</time>
      </trkpt>
      <trkpt lat="45.60219" lon="5.88892">
        <ele>247.6</ele>
        <time>2026-05-12T22:05:58Z</time>
      </trkpt>
      <trkpt lat="45.60224" lon="5.88899">
        <ele>248.2</ele>
        <time>2026-05-12T22:06:00Z</time>
      </trkpt>
      <trkpt lat="45.60235" lon="5.88913">
        <ele>248.6</ele>
        <time>2026-05-12T22:06:04Z</time>
      </trkpt>
      <trkpt lat="45.60246" lon="5.88904">
        <ele>248.6</ele>
        <time>2026-05-12T22:06:07Z</time>
      </trkpt>
      <trkpt lat="45.60256" lon="5.88895">
        <ele>248.6</ele>
        <time>2026-05-12T22:06:09Z</time>
      </trkpt>
      <trkpt lat="45.60265" lon="5.88884">
        <ele>248.4</ele>
        <time>2026-05-12T22:06:11Z</time>
      </trkpt>
      <trkpt lat="45.60298" lon="5.88846">
        <ele>247.8</ele>
        <time>2026-05-12T22:06:18Z</time>
      </trkpt>
      <trkpt lat="45.60332" lon="5.88807">
        <ele>247.8</ele>
        <time>2026-05-12T22:06:26Z</time>
      </trkpt>
      <trkpt lat="45.60375" lon="5.88759">
        <ele>247.6</ele>
        <time>2026-05-12T22:06:35Z</time>
      </trkpt>
      <trkpt lat="45.60385" lon="5.88748">
        <ele>247.4</ele>
        <time>2026-05-12T22:06:37Z</time>
      </trkpt>
      <trkpt lat="45.60432" lon="5.88696">
        <ele>247.4</ele>
        <time>2026-05-12T22:06:47Z</time>
      </trkpt>
      <trkpt lat="45.60462" lon="5.88669">
        <ele>247.4</ele>
        <time>2026-05-12T22:06:53Z</time>
      </trkpt>
      <trkpt lat="45.60488" lon="5.88649">
        <ele>247.2</ele>
        <time>2026-05-12T22:06:58Z</time>
      </trkpt>
      <trkpt lat="45.60504" lon="5.88638">
        <ele>247</ele>
        <time>2026-05-12T22:07:01Z</time>
      </trkpt>
      <trkpt lat="45.60537" lon="5.88622">
        <ele>246.8</ele>
        <time>2026-05-12T22:07:06Z</time>
      </trkpt>
      <trkpt lat="45.60563" lon="5.88613">
        <ele>246.4</ele>
        <time>2026-05-12T22:07:10Z</time>
      </trkpt>
      <trkpt lat="45.60574" lon="5.8861">
        <ele>246.2</ele>
        <time>2026-05-12T22:07:12Z</time>
      </trkpt>
      <trkpt lat="45.60588" lon="5.886">
        <ele>246.2</ele>
        <time>2026-05-12T22:07:15Z</time>
      </trkpt>
      <trkpt lat="45.60593" lon="5.88598">
        <ele>246.2</ele>
        <time>2026-05-12T22:07:16Z</time>
      </trkpt>
      <trkpt lat="45.60607" lon="5.88594">
        <ele>246.6</ele>
        <time>2026-05-12T22:07:19Z</time>
      </trkpt>
      <trkpt lat="45.60623" lon="5.88585">
        <ele>247</ele>
        <time>2026-05-12T22:07:22Z</time>
      </trkpt>
      <trkpt lat="45.60654" lon="5.88568">
        <ele>247</ele>
        <time>2026-05-12T22:07:27Z</time>
      </trkpt>
      <trkpt lat="45.60704" lon="5.88545">
        <ele>246.4</ele>
        <time>2026-05-12T22:07:35Z</time>
      </trkpt>
      <trkpt lat="45.60753" lon="5.88523">
        <ele>246.2</ele>
        <time>2026-05-12T22:07:43Z</time>
      </trkpt>
      <trkpt lat="45.60759" lon="5.8852">
        <ele>246.2</ele>
        <time>2026-05-12T22:07:44Z</time>
      </trkpt>
      <trkpt lat="45.60806" lon="5.88498">
        <ele>245.8</ele>
        <time>2026-05-12T22:07:52Z</time>
      </trkpt>
      <trkpt lat="45.60846" lon="5.88478">
        <ele>245.8</ele>
        <time>2026-05-12T22:07:59Z</time>
      </trkpt>
      <trkpt lat="45.60899" lon="5.88454">
        <ele>245.8</ele>
        <time>2026-05-12T22:08:08Z</time>
      </trkpt>
      <trkpt lat="45.60905" lon="5.88452">
        <ele>245.6</ele>
        <time>2026-05-12T22:08:09Z</time>
      </trkpt>
      <trkpt lat="45.60961" lon="5.88425">
        <ele>245.6</ele>
        <time>2026-05-12T22:08:19Z</time>
      </trkpt>
      <trkpt lat="45.60967" lon="5.88422">
        <ele>245.6</ele>
        <time>2026-05-12T22:08:20Z</time>
      </trkpt>
      <trkpt lat="45.61014" lon="5.88398">
        <ele>245.4</ele>
        <time>2026-05-12T22:08:28Z</time>
      </trkpt>
      <trkpt lat="45.61068" lon="5.88378">
        <ele>245.4</ele>
        <time>2026-05-12T22:08:37Z</time>
      </trkpt>
      <trkpt lat="45.61112" lon="5.88369">
        <ele>245.2</ele>
        <time>2026-05-12T22:08:44Z</time>
      </trkpt>
      <trkpt lat="45.61162" lon="5.88358">
        <ele>245.2</ele>
        <time>2026-05-12T22:08:52Z</time>
      </trkpt>
      <trkpt lat="45.61219" lon="5.88347">
        <ele>244.8</ele>
        <time>2026-05-12T22:09:01Z</time>
      </trkpt>
      <trkpt lat="45.61226" lon="5.88346">
        <ele>244.8</ele>
        <time>2026-05-12T22:09:02Z</time>
      </trkpt>
      <trkpt lat="45.61282" lon="5.88341">
        <ele>244.6</ele>
        <time>2026-05-12T22:09:11Z</time>
      </trkpt>
      <trkpt lat="45.61342" lon="5.88343">
        <ele>244.4</ele>
        <time>2026-05-12T22:09:20Z</time>
      </trkpt>
      <trkpt lat="45.61349" lon="5.88344">
        <ele>244.2</ele>
        <time>2026-05-12T22:09:21Z</time>
      </trkpt>
      <trkpt lat="45.61395" lon="5.88344">
        <ele>244.2</ele>
        <time>2026-05-12T22:09:28Z</time>
      </trkpt>
      <trkpt lat="45.61401" lon="5.88344">
        <ele>244.2</ele>
        <time>2026-05-12T22:09:29Z</time>
      </trkpt>
      <trkpt lat="45.6146" lon="5.88337">
        <ele>244</ele>
        <time>2026-05-12T22:09:38Z</time>
      </trkpt>
      <trkpt lat="45.61519" lon="5.88335">
        <ele>243.6</ele>
        <time>2026-05-12T22:09:47Z</time>
      </trkpt>
      <trkpt lat="45.61568" lon="5.88336">
        <ele>243.4</ele>
        <time>2026-05-12T22:09:55Z</time>
      </trkpt>
      <trkpt lat="45.616" lon="5.88333">
        <ele>243.4</ele>
        <time>2026-05-12T22:10:01Z</time>
      </trkpt>
      <trkpt lat="45.61608" lon="5.88334">
        <ele>243.2</ele>
        <time>2026-05-12T22:10:03Z</time>
      </trkpt>
      <trkpt lat="45.61612" lon="5.88333">
        <ele>243.2</ele>
        <time>2026-05-12T22:10:04Z</time>
      </trkpt>
      <trkpt lat="45.61617" lon="5.88332">
        <ele>243.2</ele>
        <time>2026-05-12T22:10:05Z</time>
      </trkpt>
      <trkpt lat="45.61621" lon="5.8833">
        <ele>243</ele>
        <time>2026-05-12T22:10:06Z</time>
      </trkpt>
      <trkpt lat="45.61627" lon="5.88326">
        <ele>242.8</ele>
        <time>2026-05-12T22:10:08Z</time>
      </trkpt>
      <trkpt lat="45.61633" lon="5.88325">
        <ele>242</ele>
        <time>2026-05-12T22:10:10Z</time>
      </trkpt>
      <trkpt lat="45.61635" lon="5.88322">
        <ele>241.6</ele>
        <time>2026-05-12T22:10:11Z</time>
      </trkpt>
      <trkpt lat="45.61639" lon="5.88321">
        <ele>241</ele>
        <time>2026-05-12T22:10:13Z</time>
      </trkpt>
      <trkpt lat="45.61641" lon="5.88321">
        <ele>240.6</ele>
        <time>2026-05-12T22:10:14Z</time>
      </trkpt>
      <trkpt lat="45.61644" lon="5.88325">
        <ele>240.4</ele>
        <time>2026-05-12T22:10:16Z</time>
      </trkpt>
      <trkpt lat="45.61645" lon="5.88329">
        <ele>240.4</ele>
        <time>2026-05-12T22:10:18Z</time>
      </trkpt>
      <trkpt lat="45.61647" lon="5.88331">
        <ele>240.2</ele>
        <time>2026-05-12T22:10:20Z</time>
      </trkpt>
      <trkpt lat="45.61651" lon="5.88333">
        <ele>240.2</ele>
        <time>2026-05-12T22:10:22Z</time>
      </trkpt>
      <trkpt lat="45.6166" lon="5.88341">
        <ele>240.2</ele>
        <time>2026-05-12T22:10:26Z</time>
      </trkpt>
      <trkpt lat="45.61678" lon="5.88349">
        <ele>240.2</ele>
        <time>2026-05-12T22:10:31Z</time>
      </trkpt>
      <trkpt lat="45.61691" lon="5.88359">
        <ele>240</ele>
        <time>2026-05-12T22:10:35Z</time>
      </trkpt>
      <trkpt lat="45.61701" lon="5.88362">
        <ele>239.8</ele>
        <time>2026-05-12T22:10:38Z</time>
      </trkpt>
      <trkpt lat="45.61712" lon="5.88357">
        <ele>239.8</ele>
        <time>2026-05-12T22:10:42Z</time>
      </trkpt>
      <trkpt lat="45.61717" lon="5.88354">
        <ele>239.8</ele>
        <time>2026-05-12T22:10:44Z</time>
      </trkpt>
      <trkpt lat="45.61723" lon="5.88358">
        <ele>239.8</ele>
        <time>2026-05-12T22:10:46Z</time>
      </trkpt>
      <trkpt lat="45.61726" lon="5.88376">
        <ele>239.6</ele>
        <time>2026-05-12T22:10:50Z</time>
      </trkpt>
      <trkpt lat="45.61729" lon="5.88382">
        <ele>239.4</ele>
        <time>2026-05-12T22:10:51Z</time>
      </trkpt>
      <trkpt lat="45.61736" lon="5.88392">
        <ele>239.4</ele>
        <time>2026-05-12T22:10:53Z</time>
      </trkpt>
      <trkpt lat="45.61743" lon="5.88402">
        <ele>239.4</ele>
        <time>2026-05-12T22:10:55Z</time>
      </trkpt>
      <trkpt lat="45.61747" lon="5.88406">
        <ele>239.2</ele>
        <time>2026-05-12T22:10:56Z</time>
      </trkpt>
      <trkpt lat="45.6177" lon="5.88428">
        <ele>239</ele>
        <time>2026-05-12T22:11:01Z</time>
      </trkpt>
      <trkpt lat="45.61781" lon="5.88436">
        <ele>238.8</ele>
        <time>2026-05-12T22:11:03Z</time>
      </trkpt>
      <trkpt lat="45.61813" lon="5.88463">
        <ele>238.6</ele>
        <time>2026-05-12T22:11:09Z</time>
      </trkpt>
      <trkpt lat="45.61864" lon="5.88509">
        <ele>238</ele>
        <time>2026-05-12T22:11:18Z</time>
      </trkpt>
      <trkpt lat="45.61876" lon="5.88519">
        <ele>237.6</ele>
        <time>2026-05-12T22:11:20Z</time>
      </trkpt>
      <trkpt lat="45.61928" lon="5.88564">
        <ele>237.2</ele>
        <time>2026-05-12T22:11:29Z</time>
      </trkpt>
      <trkpt lat="45.61939" lon="5.88574">
        <ele>237.2</ele>
        <time>2026-05-12T22:11:31Z</time>
      </trkpt>
      <trkpt lat="45.61991" lon="5.88615">
        <ele>236.8</ele>
        <time>2026-05-12T22:11:40Z</time>
      </trkpt>
      <trkpt lat="45.62001" lon="5.88623">
        <ele>236.6</ele>
        <time>2026-05-12T22:11:42Z</time>
      </trkpt>
      <trkpt lat="45.62012" lon="5.88631">
        <ele>236.6</ele>
        <time>2026-05-12T22:11:44Z</time>
      </trkpt>
      <trkpt lat="45.62018" lon="5.88634">
        <ele>236.4</ele>
        <time>2026-05-12T22:11:45Z</time>
      </trkpt>
      <trkpt lat="45.62029" lon="5.8864">
        <ele>236.4</ele>
        <time>2026-05-12T22:11:47Z</time>
      </trkpt>
      <trkpt lat="45.62046" lon="5.88655">
        <ele>236.2</ele>
        <time>2026-05-12T22:11:50Z</time>
      </trkpt>
      <trkpt lat="45.62092" lon="5.88696">
        <ele>235.6</ele>
        <time>2026-05-12T22:11:58Z</time>
      </trkpt>
      <trkpt lat="45.62097" lon="5.88701">
        <ele>235.6</ele>
        <time>2026-05-12T22:11:59Z</time>
      </trkpt>
      <trkpt lat="45.62144" lon="5.88739">
        <ele>235.4</ele>
        <time>2026-05-12T22:12:07Z</time>
      </trkpt>
      <trkpt lat="45.62157" lon="5.88747">
        <ele>235.2</ele>
        <time>2026-05-12T22:12:09Z</time>
      </trkpt>
      <trkpt lat="45.62203" lon="5.88777">
        <ele>235.2</ele>
        <time>2026-05-12T22:12:17Z</time>
      </trkpt>
      <trkpt lat="45.62254" lon="5.88818">
        <ele>235.2</ele>
        <time>2026-05-12T22:12:26Z</time>
      </trkpt>
      <trkpt lat="45.62307" lon="5.88854">
        <ele>234.8</ele>
        <time>2026-05-12T22:12:35Z</time>
      </trkpt>
      <trkpt lat="45.62354" lon="5.88868">
        <ele>234.6</ele>
        <time>2026-05-12T22:12:42Z</time>
      </trkpt>
      <trkpt lat="45.62409" lon="5.88881">
        <ele>235</ele>
        <time>2026-05-12T22:12:51Z</time>
      </trkpt>
      <trkpt lat="45.62462" lon="5.88894">
        <ele>235.6</ele>
        <time>2026-05-12T22:13:00Z</time>
      </trkpt>
      <trkpt lat="45.62501" lon="5.88911">
        <ele>236</ele>
        <time>2026-05-12T22:13:07Z</time>
      </trkpt>
      <trkpt lat="45.62506" lon="5.88915">
        <ele>236</ele>
        <time>2026-05-12T22:13:08Z</time>
      </trkpt>
      <trkpt lat="45.62522" lon="5.88933">
        <ele>236.2</ele>
        <time>2026-05-12T22:13:12Z</time>
      </trkpt>
      <trkpt lat="45.62525" lon="5.88939">
        <ele>236.2</ele>
        <time>2026-05-12T22:13:13Z</time>
      </trkpt>
      <trkpt lat="45.6253" lon="5.8895">
        <ele>236.2</ele>
        <time>2026-05-12T22:13:15Z</time>
      </trkpt>
      <trkpt lat="45.62536" lon="5.88968">
        <ele>236.4</ele>
        <time>2026-05-12T22:13:18Z</time>
      </trkpt>
      <trkpt lat="45.62543" lon="5.88976">
        <ele>236.8</ele>
        <time>2026-05-12T22:13:20Z</time>
      </trkpt>
      <trkpt lat="45.62547" lon="5.88977">
        <ele>237</ele>
        <time>2026-05-12T22:13:21Z</time>
      </trkpt>
      <trkpt lat="45.62552" lon="5.88979">
        <ele>237</ele>
        <time>2026-05-12T22:13:22Z</time>
      </trkpt>
      <trkpt lat="45.6256" lon="5.88985">
        <ele>237.2</ele>
        <time>2026-05-12T22:13:24Z</time>
      </trkpt>
      <trkpt lat="45.62564" lon="5.88991">
        <ele>237.4</ele>
        <time>2026-05-12T22:13:25Z</time>
      </trkpt>
      <trkpt lat="45.62567" lon="5.88998">
        <ele>237.4</ele>
        <time>2026-05-12T22:13:26Z</time>
      </trkpt>
      <trkpt lat="45.62573" lon="5.89024">
        <ele>237.4</ele>
        <time>2026-05-12T22:13:29Z</time>
      </trkpt>
      <trkpt lat="45.62579" lon="5.89042">
        <ele>237.2</ele>
        <time>2026-05-12T22:13:31Z</time>
      </trkpt>
      <trkpt lat="45.62592" lon="5.89066">
        <ele>236.6</ele>
        <time>2026-05-12T22:13:34Z</time>
      </trkpt>
      <trkpt lat="45.62596" lon="5.89072">
        <ele>236.2</ele>
        <time>2026-05-12T22:13:35Z</time>
      </trkpt>
      <trkpt lat="45.62609" lon="5.89085">
        <ele>235.8</ele>
        <time>2026-05-12T22:13:37Z</time>
      </trkpt>
      <trkpt lat="45.62616" lon="5.8909">
        <ele>235.6</ele>
        <time>2026-05-12T22:13:38Z</time>
      </trkpt>
      <trkpt lat="45.6266" lon="5.89107">
        <ele>234.8</ele>
        <time>2026-05-12T22:13:44Z</time>
      </trkpt>
      <trkpt lat="45.62667" lon="5.89109">
        <ele>234.6</ele>
        <time>2026-05-12T22:13:45Z</time>
      </trkpt>
      <trkpt lat="45.62724" lon="5.89122">
        <ele>234.2</ele>
        <time>2026-05-12T22:13:53Z</time>
      </trkpt>
      <trkpt lat="45.62778" lon="5.89127">
        <ele>234</ele>
        <time>2026-05-12T22:14:01Z</time>
      </trkpt>
      <trkpt lat="45.62832" lon="5.89132">
        <ele>233.8</ele>
        <time>2026-05-12T22:14:09Z</time>
      </trkpt>
      <trkpt lat="45.62845" lon="5.89133">
        <ele>233.6</ele>
        <time>2026-05-12T22:14:11Z</time>
      </trkpt>
      <trkpt lat="45.62899" lon="5.89137">
        <ele>233.6</ele>
        <time>2026-05-12T22:14:19Z</time>
      </trkpt>
      <trkpt lat="45.62926" lon="5.89138">
        <ele>233.6</ele>
        <time>2026-05-12T22:14:23Z</time>
      </trkpt>
      <trkpt lat="45.62981" lon="5.89142">
        <ele>233.2</ele>
        <time>2026-05-12T22:14:31Z</time>
      </trkpt>
      <trkpt lat="45.63002" lon="5.89143">
        <ele>233</ele>
        <time>2026-05-12T22:14:34Z</time>
      </trkpt>
      <trkpt lat="45.63057" lon="5.89147">
        <ele>232.8</ele>
        <time>2026-05-12T22:14:42Z</time>
      </trkpt>
      <trkpt lat="45.63118" lon="5.89152">
        <ele>233</ele>
        <time>2026-05-12T22:14:51Z</time>
      </trkpt>
      <trkpt lat="45.63125" lon="5.89152">
        <ele>233</ele>
        <time>2026-05-12T22:14:52Z</time>
      </trkpt>
      <trkpt lat="45.63165" lon="5.89154">
        <ele>233</ele>
        <time>2026-05-12T22:14:58Z</time>
      </trkpt>
      <trkpt lat="45.63216" lon="5.89157">
        <ele>233</ele>
        <time>2026-05-12T22:15:06Z</time>
      </trkpt>
      <trkpt lat="45.63259" lon="5.89164">
        <ele>233</ele>
        <time>2026-05-12T22:15:13Z</time>
      </trkpt>
      <trkpt lat="45.6329" lon="5.89166">
        <ele>233</ele>
        <time>2026-05-12T22:15:18Z</time>
      </trkpt>
      <trkpt lat="45.63295" lon="5.89167">
        <ele>232.8</ele>
        <time>2026-05-12T22:15:19Z</time>
      </trkpt>
      <trkpt lat="45.63301" lon="5.8917">
        <ele>232.8</ele>
        <time>2026-05-12T22:15:20Z</time>
      </trkpt>
      <trkpt lat="45.63312" lon="5.89177">
        <ele>232.8</ele>
        <time>2026-05-12T22:15:22Z</time>
      </trkpt>
      <trkpt lat="45.63323" lon="5.89181">
        <ele>232.8</ele>
        <time>2026-05-12T22:15:24Z</time>
      </trkpt>
      <trkpt lat="45.63374" lon="5.89185">
        <ele>232.4</ele>
        <time>2026-05-12T22:15:32Z</time>
      </trkpt>
      <trkpt lat="45.6343" lon="5.89188">
        <ele>232.2</ele>
        <time>2026-05-12T22:15:41Z</time>
      </trkpt>
      <trkpt lat="45.63436" lon="5.89189">
        <ele>232.2</ele>
        <time>2026-05-12T22:15:42Z</time>
      </trkpt>
      <trkpt lat="45.63492" lon="5.89192">
        <ele>232.2</ele>
        <time>2026-05-12T22:15:51Z</time>
      </trkpt>
      <trkpt lat="45.63511" lon="5.89193">
        <ele>232.2</ele>
        <time>2026-05-12T22:15:54Z</time>
      </trkpt>
      <trkpt lat="45.63567" lon="5.89198">
        <ele>232</ele>
        <time>2026-05-12T22:16:03Z</time>
      </trkpt>
      <trkpt lat="45.63573" lon="5.892">
        <ele>232</ele>
        <time>2026-05-12T22:16:04Z</time>
      </trkpt>
      <trkpt lat="45.63622" lon="5.89207">
        <ele>232.2</ele>
        <time>2026-05-12T22:16:12Z</time>
      </trkpt>
      <trkpt lat="45.63674" lon="5.89211">
        <ele>232.2</ele>
        <time>2026-05-12T22:16:21Z</time>
      </trkpt>
      <trkpt lat="45.63707" lon="5.89211">
        <ele>232.2</ele>
        <time>2026-05-12T22:16:27Z</time>
      </trkpt>
      <trkpt lat="45.63712" lon="5.8921">
        <ele>232.2</ele>
        <time>2026-05-12T22:16:28Z</time>
      </trkpt>
      <trkpt lat="45.63717" lon="5.89208">
        <ele>232</ele>
        <time>2026-05-12T22:16:29Z</time>
      </trkpt>
      <trkpt lat="45.63727" lon="5.89201">
        <ele>232</ele>
        <time>2026-05-12T22:16:31Z</time>
      </trkpt>
      <trkpt lat="45.63736" lon="5.89193">
        <ele>232</ele>
        <time>2026-05-12T22:16:33Z</time>
      </trkpt>
      <trkpt lat="45.63748" lon="5.89181">
        <ele>231.8</ele>
        <time>2026-05-12T22:16:36Z</time>
      </trkpt>
      <trkpt lat="45.63754" lon="5.89172">
        <ele>231.8</ele>
        <time>2026-05-12T22:16:38Z</time>
      </trkpt>
      <trkpt lat="45.63756" lon="5.89167">
        <ele>231.8</ele>
        <time>2026-05-12T22:16:39Z</time>
      </trkpt>
      <trkpt lat="45.63763" lon="5.89152">
        <ele>231.8</ele>
        <time>2026-05-12T22:16:42Z</time>
      </trkpt>
      <trkpt lat="45.63765" lon="5.89149">
        <ele>231.8</ele>
        <time>2026-05-12T22:16:43Z</time>
      </trkpt>
      <trkpt lat="45.63768" lon="5.89148">
        <ele>231.8</ele>
        <time>2026-05-12T22:16:44Z</time>
      </trkpt>
      <trkpt lat="45.63774" lon="5.89149">
        <ele>231.6</ele>
        <time>2026-05-12T22:16:46Z</time>
      </trkpt>
      <trkpt lat="45.63791" lon="5.89155">
        <ele>231.6</ele>
        <time>2026-05-12T22:16:51Z</time>
      </trkpt>
      <trkpt lat="45.63793" lon="5.89159">
        <ele>231.6</ele>
        <time>2026-05-12T22:16:52Z</time>
      </trkpt>
      <trkpt lat="45.63798" lon="5.89194">
        <ele>231.6</ele>
        <time>2026-05-12T22:16:58Z</time>
      </trkpt>
      <trkpt lat="45.63802" lon="5.89204">
        <ele>231.6</ele>
        <time>2026-05-12T22:17:00Z</time>
      </trkpt>
      <trkpt lat="45.63807" lon="5.89213">
        <ele>231.6</ele>
        <time>2026-05-12T22:17:02Z</time>
      </trkpt>
      <trkpt lat="45.63811" lon="5.89217">
        <ele>231.6</ele>
        <time>2026-05-12T22:17:03Z</time>
      </trkpt>
      <trkpt lat="45.63815" lon="5.8922">
        <ele>231.6</ele>
        <time>2026-05-12T22:17:04Z</time>
      </trkpt>
      <trkpt lat="45.6383" lon="5.89226">
        <ele>231.6</ele>
        <time>2026-05-12T22:17:07Z</time>
      </trkpt>
      <trkpt lat="45.63836" lon="5.89227">
        <ele>231.6</ele>
        <time>2026-05-12T22:17:08Z</time>
      </trkpt>
      <trkpt lat="45.63857" lon="5.8923">
        <ele>231.8</ele>
        <time>2026-05-12T22:17:12Z</time>
      </trkpt>
      <trkpt lat="45.6391" lon="5.89234">
        <ele>231.8</ele>
        <time>2026-05-12T22:17:21Z</time>
      </trkpt>
      <trkpt lat="45.63969" lon="5.89238">
        <ele>231.8</ele>
        <time>2026-05-12T22:17:31Z</time>
      </trkpt>
      <trkpt lat="45.64021" lon="5.89241">
        <ele>231.8</ele>
        <time>2026-05-12T22:17:40Z</time>
      </trkpt>
      <trkpt lat="45.64067" lon="5.89244">
        <ele>231.8</ele>
        <time>2026-05-12T22:17:48Z</time>
      </trkpt>
      <trkpt lat="45.64113" lon="5.89247">
        <ele>232</ele>
        <time>2026-05-12T22:17:56Z</time>
      </trkpt>
      <trkpt lat="45.64171" lon="5.89251">
        <ele>232</ele>
        <time>2026-05-12T22:18:06Z</time>
      </trkpt>
      <trkpt lat="45.6423" lon="5.89255">
        <ele>231.8</ele>
        <time>2026-05-12T22:18:16Z</time>
      </trkpt>
      <trkpt lat="45.64247" lon="5.89257">
        <ele>231.8</ele>
        <time>2026-05-12T22:18:19Z</time>
      </trkpt>
      <trkpt lat="45.64305" lon="5.89259">
        <ele>231.8</ele>
        <time>2026-05-12T22:18:29Z</time>
      </trkpt>
      <trkpt lat="45.6431" lon="5.89259">
        <ele>231.8</ele>
        <time>2026-05-12T22:18:30Z</time>
      </trkpt>
      <trkpt lat="45.64351" lon="5.89262">
        <ele>231.8</ele>
        <time>2026-05-12T22:18:37Z</time>
      </trkpt>
      <trkpt lat="45.64398" lon="5.89267">
        <ele>231.8</ele>
        <time>2026-05-12T22:18:45Z</time>
      </trkpt>
      <trkpt lat="45.64425" lon="5.8927">
        <ele>231.8</ele>
        <time>2026-05-12T22:18:50Z</time>
      </trkpt>
      <trkpt lat="45.64481" lon="5.89274">
        <ele>231.8</ele>
        <time>2026-05-12T22:18:59Z</time>
      </trkpt>
      <trkpt lat="45.64537" lon="5.89276">
        <ele>231.8</ele>
        <time>2026-05-12T22:19:08Z</time>
      </trkpt>
      <trkpt lat="45.64593" lon="5.89278">
        <ele>231.8</ele>
        <time>2026-05-12T22:19:17Z</time>
      </trkpt>
      <trkpt lat="45.64611" lon="5.89279">
        <ele>231.8</ele>
        <time>2026-05-12T22:19:20Z</time>
      </trkpt>
      <trkpt lat="45.64665" lon="5.8928">
        <ele>231.6</ele>
        <time>2026-05-12T22:19:29Z</time>
      </trkpt>
      <trkpt lat="45.64683" lon="5.8928">
        <ele>231.6</ele>
        <time>2026-05-12T22:19:32Z</time>
      </trkpt>
      <trkpt lat="45.64733" lon="5.89281">
        <ele>231.4</ele>
        <time>2026-05-12T22:19:41Z</time>
      </trkpt>
      <trkpt lat="45.64753" lon="5.89279">
        <ele>231.2</ele>
        <time>2026-05-12T22:19:45Z</time>
      </trkpt>
      <trkpt lat="45.64762" lon="5.89274">
        <ele>231</ele>
        <time>2026-05-12T22:19:47Z</time>
      </trkpt>
      <trkpt lat="45.64774" lon="5.89263">
        <ele>231</ele>
        <time>2026-05-12T22:19:51Z</time>
      </trkpt>
      <trkpt lat="45.64778" lon="5.89256">
        <ele>231.2</ele>
        <time>2026-05-12T22:19:53Z</time>
      </trkpt>
      <trkpt lat="45.64781" lon="5.89243">
        <ele>231.2</ele>
        <time>2026-05-12T22:19:55Z</time>
      </trkpt>
      <trkpt lat="45.64782" lon="5.89232">
        <ele>231.2</ele>
        <time>2026-05-12T22:19:57Z</time>
      </trkpt>
      <trkpt lat="45.64783" lon="5.89212">
        <ele>231.2</ele>
        <time>2026-05-12T22:20:00Z</time>
      </trkpt>
      <trkpt lat="45.64784" lon="5.89206">
        <ele>231.2</ele>
        <time>2026-05-12T22:20:01Z</time>
      </trkpt>
      <trkpt lat="45.64786" lon="5.89202">
        <ele>231.2</ele>
        <time>2026-05-12T22:20:02Z</time>
      </trkpt>
      <trkpt lat="45.64791" lon="5.89184">
        <ele>231</ele>
        <time>2026-05-12T22:20:06Z</time>
      </trkpt>
      <trkpt lat="45.64796" lon="5.89189">
        <ele>231</ele>
        <time>2026-05-12T22:20:09Z</time>
      </trkpt>
      <trkpt lat="45.64795" lon="5.89193">
        <ele>230.8</ele>
        <time>2026-05-12T22:20:10Z</time>
      </trkpt>
      <trkpt lat="45.64791" lon="5.89205">
        <ele>230.8</ele>
        <time>2026-05-12T22:20:13Z</time>
      </trkpt>
      <trkpt lat="45.64787" lon="5.89239">
        <ele>231</ele>
        <time>2026-05-12T22:20:19Z</time>
      </trkpt>
      <trkpt lat="45.64781" lon="5.89268">
        <ele>231.4</ele>
        <time>2026-05-12T22:20:24Z</time>
      </trkpt>
      <trkpt lat="45.64774" lon="5.89278">
        <ele>231.6</ele>
        <time>2026-05-12T22:20:26Z</time>
      </trkpt>
      <trkpt lat="45.64766" lon="5.89285">
        <ele>231.4</ele>
        <time>2026-05-12T22:20:28Z</time>
      </trkpt>
      <trkpt lat="45.64762" lon="5.89292">
        <ele>231.6</ele>
        <time>2026-05-12T22:20:29Z</time>
      </trkpt>
      <trkpt lat="45.6476" lon="5.89299">
        <ele>231.6</ele>
        <time>2026-05-12T22:20:30Z</time>
      </trkpt>
      <trkpt lat="45.6476" lon="5.89312">
        <ele>231.4</ele>
        <time>2026-05-12T22:20:32Z</time>
      </trkpt>
      <trkpt lat="45.64766" lon="5.89327">
        <ele>231.4</ele>
        <time>2026-05-12T22:20:34Z</time>
      </trkpt>
      <trkpt lat="45.64771" lon="5.89331">
        <ele>231.4</ele>
        <time>2026-05-12T22:20:35Z</time>
      </trkpt>
      <trkpt lat="45.64777" lon="5.89333">
        <ele>231.4</ele>
        <time>2026-05-12T22:20:36Z</time>
      </trkpt>
      <trkpt lat="45.64787" lon="5.89332">
        <ele>231.4</ele>
        <time>2026-05-12T22:20:38Z</time>
      </trkpt>
      <trkpt lat="45.64798" lon="5.89326">
        <ele>231.2</ele>
        <time>2026-05-12T22:20:40Z</time>
      </trkpt>
      <trkpt lat="45.64815" lon="5.89321">
        <ele>231.2</ele>
        <time>2026-05-12T22:20:43Z</time>
      </trkpt>
      <trkpt lat="45.64856" lon="5.89319">
        <ele>231.6</ele>
        <time>2026-05-12T22:20:50Z</time>
      </trkpt>
      <trkpt lat="45.64922" lon="5.89322">
        <ele>231.6</ele>
        <time>2026-05-12T22:21:00Z</time>
      </trkpt>
      <trkpt lat="45.64981" lon="5.89322">
        <ele>232</ele>
        <time>2026-05-12T22:21:10Z</time>
      </trkpt>
      <trkpt lat="45.65039" lon="5.89325">
        <ele>232.2</ele>
        <time>2026-05-12T22:21:20Z</time>
      </trkpt>
      <trkpt lat="45.65045" lon="5.89325">
        <ele>232.2</ele>
        <time>2026-05-12T22:21:21Z</time>
      </trkpt>
      <trkpt lat="45.65085" lon="5.89329">
        <ele>232.4</ele>
        <time>2026-05-12T22:21:28Z</time>
      </trkpt>
      <trkpt lat="45.651" lon="5.8934">
        <ele>232.4</ele>
        <time>2026-05-12T22:21:31Z</time>
      </trkpt>
      <trkpt lat="45.65105" lon="5.89342">
        <ele>232.6</ele>
        <time>2026-05-12T22:21:32Z</time>
      </trkpt>
      <trkpt lat="45.6511" lon="5.89341">
        <ele>232.6</ele>
        <time>2026-05-12T22:21:33Z</time>
      </trkpt>
      <trkpt lat="45.65121" lon="5.89336">
        <ele>232.6</ele>
        <time>2026-05-12T22:21:35Z</time>
      </trkpt>
      <trkpt lat="45.65126" lon="5.89333">
        <ele>232.6</ele>
        <time>2026-05-12T22:21:36Z</time>
      </trkpt>
      <trkpt lat="45.65138" lon="5.89331">
        <ele>232.8</ele>
        <time>2026-05-12T22:21:38Z</time>
      </trkpt>
      <trkpt lat="45.65144" lon="5.89331">
        <ele>232.8</ele>
        <time>2026-05-12T22:21:39Z</time>
      </trkpt>
      <trkpt lat="45.65178" lon="5.89334">
        <ele>233</ele>
        <time>2026-05-12T22:21:46Z</time>
      </trkpt>
      <trkpt lat="45.65222" lon="5.89338">
        <ele>233.2</ele>
        <time>2026-05-12T22:21:53Z</time>
      </trkpt>
      <trkpt lat="45.65231" lon="5.89338">
        <ele>233.2</ele>
        <time>2026-05-12T22:21:55Z</time>
      </trkpt>
      <trkpt lat="45.65277" lon="5.89342">
        <ele>233.4</ele>
        <time>2026-05-12T22:22:03Z</time>
      </trkpt>
      <trkpt lat="45.65322" lon="5.89344">
        <ele>233.8</ele>
        <time>2026-05-12T22:22:11Z</time>
      </trkpt>
      <trkpt lat="45.65328" lon="5.89345">
        <ele>233.8</ele>
        <time>2026-05-12T22:22:12Z</time>
      </trkpt>
      <trkpt lat="45.65382" lon="5.89353">
        <ele>234</ele>
        <time>2026-05-12T22:22:21Z</time>
      </trkpt>
      <trkpt lat="45.65439" lon="5.89364">
        <ele>233.6</ele>
        <time>2026-05-12T22:22:30Z</time>
      </trkpt>
      <trkpt lat="45.65452" lon="5.89367">
        <ele>233.6</ele>
        <time>2026-05-12T22:22:32Z</time>
      </trkpt>
      <trkpt lat="45.65489" lon="5.89382">
        <ele>233.2</ele>
        <time>2026-05-12T22:22:38Z</time>
      </trkpt>
      <trkpt lat="45.65495" lon="5.89386">
        <ele>233.2</ele>
        <time>2026-05-12T22:22:39Z</time>
      </trkpt>
      <trkpt lat="45.65517" lon="5.89405">
        <ele>233.2</ele>
        <time>2026-05-12T22:22:43Z</time>
      </trkpt>
      <trkpt lat="45.65526" lon="5.89417">
        <ele>233.2</ele>
        <time>2026-05-12T22:22:45Z</time>
      </trkpt>
      <trkpt lat="45.65564" lon="5.89455">
        <ele>233.4</ele>
        <time>2026-05-12T22:22:53Z</time>
      </trkpt>
      <trkpt lat="45.65592" lon="5.89469">
        <ele>233.6</ele>
        <time>2026-05-12T22:22:58Z</time>
      </trkpt>
      <trkpt lat="45.65603" lon="5.89473">
        <ele>233.6</ele>
        <time>2026-05-12T22:23:00Z</time>
      </trkpt>
      <trkpt lat="45.65661" lon="5.89485">
        <ele>234</ele>
        <time>2026-05-12T22:23:10Z</time>
      </trkpt>
      <trkpt lat="45.65667" lon="5.89485">
        <ele>234</ele>
        <time>2026-05-12T22:23:11Z</time>
      </trkpt>
      <trkpt lat="45.65711" lon="5.89478">
        <ele>233.6</ele>
        <time>2026-05-12T22:23:19Z</time>
      </trkpt>
      <trkpt lat="45.6575" lon="5.89462">
        <ele>233.2</ele>
        <time>2026-05-12T22:23:25Z</time>
      </trkpt>
      <trkpt lat="45.65763" lon="5.8946">
        <ele>233</ele>
        <time>2026-05-12T22:23:26Z</time>
      </trkpt>
      <trkpt lat="45.6579" lon="5.89459">
        <ele>232.8</ele>
        <time>2026-05-12T22:23:30Z</time>
      </trkpt>
      <trkpt lat="45.65834" lon="5.89463">
        <ele>232.8</ele>
        <time>2026-05-12T22:23:38Z</time>
      </trkpt>
      <trkpt lat="45.6589" lon="5.89467">
        <ele>233</ele>
        <time>2026-05-12T22:23:46Z</time>
      </trkpt>
      <trkpt lat="45.65902" lon="5.89469">
        <ele>233</ele>
        <time>2026-05-12T22:23:48Z</time>
      </trkpt>
      <trkpt lat="45.65958" lon="5.89479">
        <ele>232.8</ele>
        <time>2026-05-12T22:23:57Z</time>
      </trkpt>
      <trkpt lat="45.66013" lon="5.89493">
        <ele>233</ele>
        <time>2026-05-12T22:24:06Z</time>
      </trkpt>
      <trkpt lat="45.66018" lon="5.89495">
        <ele>233</ele>
        <time>2026-05-12T22:24:07Z</time>
      </trkpt>
      <trkpt lat="45.6607" lon="5.89516">
        <ele>233</ele>
        <time>2026-05-12T22:24:17Z</time>
      </trkpt>
      <trkpt lat="45.66126" lon="5.89541">
        <ele>233</ele>
        <time>2026-05-12T22:24:26Z</time>
      </trkpt>
      <trkpt lat="45.66178" lon="5.89565">
        <ele>232.6</ele>
        <time>2026-05-12T22:24:35Z</time>
      </trkpt>
      <trkpt lat="45.66184" lon="5.89568">
        <ele>232.6</ele>
        <time>2026-05-12T22:24:36Z</time>
      </trkpt>
      <trkpt lat="45.66241" lon="5.89594">
        <ele>232.6</ele>
        <time>2026-05-12T22:24:46Z</time>
      </trkpt>
      <trkpt lat="45.66264" lon="5.89604">
        <ele>232.4</ele>
        <time>2026-05-12T22:24:50Z</time>
      </trkpt>
      <trkpt lat="45.66287" lon="5.89613">
        <ele>232.4</ele>
        <time>2026-05-12T22:24:54Z</time>
      </trkpt>
      <trkpt lat="45.66297" lon="5.8962">
        <ele>232.4</ele>
        <time>2026-05-12T22:24:56Z</time>
      </trkpt>
      <trkpt lat="45.66309" lon="5.89621">
        <ele>232.4</ele>
        <time>2026-05-12T22:24:58Z</time>
      </trkpt>
      <trkpt lat="45.66322" lon="5.89619">
        <ele>232.4</ele>
        <time>2026-05-12T22:25:00Z</time>
      </trkpt>
      <trkpt lat="45.66365" lon="5.8962">
        <ele>232.6</ele>
        <time>2026-05-12T22:25:07Z</time>
      </trkpt>
      <trkpt lat="45.66421" lon="5.89621">
        <ele>232.6</ele>
        <time>2026-05-12T22:25:16Z</time>
      </trkpt>
      <trkpt lat="45.66428" lon="5.89621">
        <ele>232.6</ele>
        <time>2026-05-12T22:25:17Z</time>
      </trkpt>
      <trkpt lat="45.66478" lon="5.89617">
        <ele>232.6</ele>
        <time>2026-05-12T22:25:25Z</time>
      </trkpt>
      <trkpt lat="45.66503" lon="5.89614">
        <ele>232.6</ele>
        <time>2026-05-12T22:25:29Z</time>
      </trkpt>
      <trkpt lat="45.66535" lon="5.89608">
        <ele>232.4</ele>
        <time>2026-05-12T22:25:34Z</time>
      </trkpt>
      <trkpt lat="45.66541" lon="5.89606">
        <ele>232.4</ele>
        <time>2026-05-12T22:25:35Z</time>
      </trkpt>
      <trkpt lat="45.66583" lon="5.8959">
        <ele>232.2</ele>
        <time>2026-05-12T22:25:42Z</time>
      </trkpt>
      <trkpt lat="45.66638" lon="5.89564">
        <ele>232.2</ele>
        <time>2026-05-12T22:25:51Z</time>
      </trkpt>
      <trkpt lat="45.66691" lon="5.89531">
        <ele>232.4</ele>
        <time>2026-05-12T22:26:00Z</time>
      </trkpt>
      <trkpt lat="45.66708" lon="5.89523">
        <ele>232.4</ele>
        <time>2026-05-12T22:26:03Z</time>
      </trkpt>
      <trkpt lat="45.66726" lon="5.8952">
        <ele>232.4</ele>
        <time>2026-05-12T22:26:06Z</time>
      </trkpt>
      <trkpt lat="45.66738" lon="5.89522">
        <ele>232.4</ele>
        <time>2026-05-12T22:26:08Z</time>
      </trkpt>
      <trkpt lat="45.66748" lon="5.89529">
        <ele>232.6</ele>
        <time>2026-05-12T22:26:10Z</time>
      </trkpt>
      <trkpt lat="45.66758" lon="5.8953">
        <ele>232.6</ele>
        <time>2026-05-12T22:26:12Z</time>
      </trkpt>
      <trkpt lat="45.66774" lon="5.89524">
        <ele>232.6</ele>
        <time>2026-05-12T22:26:15Z</time>
      </trkpt>
      <trkpt lat="45.66779" lon="5.8952">
        <ele>232.8</ele>
        <time>2026-05-12T22:26:16Z</time>
      </trkpt>
      <trkpt lat="45.66798" lon="5.89499">
        <ele>233</ele>
        <time>2026-05-12T22:26:20Z</time>
      </trkpt>
      <trkpt lat="45.66804" lon="5.89496">
        <ele>233</ele>
        <time>2026-05-12T22:26:21Z</time>
      </trkpt>
      <trkpt lat="45.6681" lon="5.89494">
        <ele>233</ele>
        <time>2026-05-12T22:26:22Z</time>
      </trkpt>
      <trkpt lat="45.66823" lon="5.89493">
        <ele>233</ele>
        <time>2026-05-12T22:26:25Z</time>
      </trkpt>
      <trkpt lat="45.66855" lon="5.89483">
        <ele>232.6</ele>
        <time>2026-05-12T22:26:29Z</time>
      </trkpt>
      <trkpt lat="45.66867" lon="5.89477">
        <ele>232.6</ele>
        <time>2026-05-12T22:26:31Z</time>
      </trkpt>
      <trkpt lat="45.66919" lon="5.89451">
        <ele>232.2</ele>
        <time>2026-05-12T22:26:40Z</time>
      </trkpt>
      <trkpt lat="45.66931" lon="5.89443">
        <ele>232.2</ele>
        <time>2026-05-12T22:26:42Z</time>
      </trkpt>
      <trkpt lat="45.66964" lon="5.89406">
        <ele>232.2</ele>
        <time>2026-05-12T22:26:49Z</time>
      </trkpt>
      <trkpt lat="45.66995" lon="5.89377">
        <ele>232.4</ele>
        <time>2026-05-12T22:26:55Z</time>
      </trkpt>
      <trkpt lat="45.67007" lon="5.89371">
        <ele>232.4</ele>
        <time>2026-05-12T22:26:57Z</time>
      </trkpt>
      <trkpt lat="45.67025" lon="5.89366">
        <ele>232.4</ele>
        <time>2026-05-12T22:27:00Z</time>
      </trkpt>
      <trkpt lat="45.67081" lon="5.89358">
        <ele>232.4</ele>
        <time>2026-05-12T22:27:09Z</time>
      </trkpt>
      <trkpt lat="45.67093" lon="5.89357">
        <ele>232.4</ele>
        <time>2026-05-12T22:27:11Z</time>
      </trkpt>
      <trkpt lat="45.67143" lon="5.89358">
        <ele>232.6</ele>
        <time>2026-05-12T22:27:20Z</time>
      </trkpt>
      <trkpt lat="45.67194" lon="5.89363">
        <ele>232.4</ele>
        <time>2026-05-12T22:27:28Z</time>
      </trkpt>
      <trkpt lat="45.67253" lon="5.8937">
        <ele>232.6</ele>
        <time>2026-05-12T22:27:38Z</time>
      </trkpt>
      <trkpt lat="45.67289" lon="5.89374">
        <ele>232.8</ele>
        <time>2026-05-12T22:27:44Z</time>
      </trkpt>
      <trkpt lat="45.67296" lon="5.89375">
        <ele>232.8</ele>
        <time>2026-05-12T22:27:45Z</time>
      </trkpt>
      <trkpt lat="45.67352" lon="5.89377">
        <ele>232.8</ele>
        <time>2026-05-12T22:27:54Z</time>
      </trkpt>
      <trkpt lat="45.67407" lon="5.89382">
        <ele>232.6</ele>
        <time>2026-05-12T22:28:03Z</time>
      </trkpt>
      <trkpt lat="45.67413" lon="5.89383">
        <ele>232.8</ele>
        <time>2026-05-12T22:28:05Z</time>
      </trkpt>
      <trkpt lat="45.67469" lon="5.89389">
        <ele>232.6</ele>
        <time>2026-05-12T22:28:13Z</time>
      </trkpt>
      <trkpt lat="45.67474" lon="5.89389">
        <ele>232.6</ele>
        <time>2026-05-12T22:28:14Z</time>
      </trkpt>
      <trkpt lat="45.6753" lon="5.89395">
        <ele>232.4</ele>
        <time>2026-05-12T22:28:23Z</time>
      </trkpt>
      <trkpt lat="45.67536" lon="5.89396">
        <ele>232.4</ele>
        <time>2026-05-12T22:28:24Z</time>
      </trkpt>
      <trkpt lat="45.67592" lon="5.89402">
        <ele>232.6</ele>
        <time>2026-05-12T22:28:33Z</time>
      </trkpt>
      <trkpt lat="45.67603" lon="5.89403">
        <ele>232.4</ele>
        <time>2026-05-12T22:28:36Z</time>
      </trkpt>
      <trkpt lat="45.67667" lon="5.89407">
        <ele>232.4</ele>
        <time>2026-05-12T22:28:45Z</time>
      </trkpt>
      <trkpt lat="45.67687" lon="5.89408">
        <ele>232.4</ele>
        <time>2026-05-12T22:28:48Z</time>
      </trkpt>
      <trkpt lat="45.67738" lon="5.89412">
        <ele>232.6</ele>
        <time>2026-05-12T22:28:56Z</time>
      </trkpt>
      <trkpt lat="45.67776" lon="5.89417">
        <ele>232.4</ele>
        <time>2026-05-12T22:29:02Z</time>
      </trkpt>
      <trkpt lat="45.67826" lon="5.89419">
        <ele>232.4</ele>
        <time>2026-05-12T22:29:10Z</time>
      </trkpt>
      <trkpt lat="45.67875" lon="5.89421">
        <ele>232.4</ele>
        <time>2026-05-12T22:29:18Z</time>
      </trkpt>
      <trkpt lat="45.67927" lon="5.89418">
        <ele>232.2</ele>
        <time>2026-05-12T22:29:26Z</time>
      </trkpt>
      <trkpt lat="45.67984" lon="5.89415">
        <ele>232.4</ele>
        <time>2026-05-12T22:29:35Z</time>
      </trkpt>
      <trkpt lat="45.6799" lon="5.89415">
        <ele>232.4</ele>
        <time>2026-05-12T22:29:36Z</time>
      </trkpt>
      <trkpt lat="45.68009" lon="5.89414">
        <ele>232.4</ele>
        <time>2026-05-12T22:29:39Z</time>
      </trkpt>
      <trkpt lat="45.68021" lon="5.89414">
        <ele>232.6</ele>
        <time>2026-05-12T22:29:41Z</time>
      </trkpt>
      <trkpt lat="45.68027" lon="5.89416">
        <ele>232.6</ele>
        <time>2026-05-12T22:29:42Z</time>
      </trkpt>
      <trkpt lat="45.68076" lon="5.89426">
        <ele>232.8</ele>
        <time>2026-05-12T22:29:50Z</time>
      </trkpt>
      <trkpt lat="45.68117" lon="5.89439">
        <ele>232.4</ele>
        <time>2026-05-12T22:29:57Z</time>
      </trkpt>
      <trkpt lat="45.68124" lon="5.8944">
        <ele>232.4</ele>
        <time>2026-05-12T22:29:58Z</time>
      </trkpt>
      <trkpt lat="45.68142" lon="5.89445">
        <ele>232.4</ele>
        <time>2026-05-12T22:30:01Z</time>
      </trkpt>
      <trkpt lat="45.6816" lon="5.89449">
        <ele>232.4</ele>
        <time>2026-05-12T22:30:04Z</time>
      </trkpt>
      <trkpt lat="45.68171" lon="5.89451">
        <ele>232.4</ele>
        <time>2026-05-12T22:30:06Z</time>
      </trkpt>
      <trkpt lat="45.68194" lon="5.89451">
        <ele>232.4</ele>
        <time>2026-05-12T22:30:10Z</time>
      </trkpt>
      <trkpt lat="45.682" lon="5.89451">
        <ele>232.4</ele>
        <time>2026-05-12T22:30:11Z</time>
      </trkpt>
      <trkpt lat="45.68252" lon="5.89465">
        <ele>232.2</ele>
        <time>2026-05-12T22:30:19Z</time>
      </trkpt>
      <trkpt lat="45.6831" lon="5.89474">
        <ele>232</ele>
        <time>2026-05-12T22:30:28Z</time>
      </trkpt>
      <trkpt lat="45.68322" lon="5.89476">
        <ele>232</ele>
        <time>2026-05-12T22:30:30Z</time>
      </trkpt>
      <trkpt lat="45.6834" lon="5.8948">
        <ele>232</ele>
        <time>2026-05-12T22:30:33Z</time>
      </trkpt>
      <trkpt lat="45.68351" lon="5.89486">
        <ele>232</ele>
        <time>2026-05-12T22:30:35Z</time>
      </trkpt>
      <trkpt lat="45.68359" lon="5.89488">
        <ele>232</ele>
        <time>2026-05-12T22:30:36Z</time>
      </trkpt>
      <trkpt lat="45.68364" lon="5.89489">
        <ele>232</ele>
        <time>2026-05-12T22:30:37Z</time>
      </trkpt>
      <trkpt lat="45.6839" lon="5.8949">
        <ele>232</ele>
        <time>2026-05-12T22:30:41Z</time>
      </trkpt>
      <trkpt lat="45.68449" lon="5.89502">
        <ele>232</ele>
        <time>2026-05-12T22:30:51Z</time>
      </trkpt>
      <trkpt lat="45.68461" lon="5.89505">
        <ele>232</ele>
        <time>2026-05-12T22:30:53Z</time>
      </trkpt>
      <trkpt lat="45.68502" lon="5.89513">
        <ele>232</ele>
        <time>2026-05-12T22:31:00Z</time>
      </trkpt>
      <trkpt lat="45.6852" lon="5.89518">
        <ele>232.2</ele>
        <time>2026-05-12T22:31:03Z</time>
      </trkpt>
      <trkpt lat="45.68574" lon="5.89527">
        <ele>231.8</ele>
        <time>2026-05-12T22:31:12Z</time>
      </trkpt>
      <trkpt lat="45.6858" lon="5.89528">
        <ele>231.8</ele>
        <time>2026-05-12T22:31:13Z</time>
      </trkpt>
      <trkpt lat="45.68605" lon="5.89529">
        <ele>231.8</ele>
        <time>2026-05-12T22:31:17Z</time>
      </trkpt>
      <trkpt lat="45.68616" lon="5.89531">
        <ele>231.8</ele>
        <time>2026-05-12T22:31:19Z</time>
      </trkpt>
      <trkpt lat="45.68621" lon="5.89535">
        <ele>231.8</ele>
        <time>2026-05-12T22:31:20Z</time>
      </trkpt>
      <trkpt lat="45.68631" lon="5.89542">
        <ele>231.8</ele>
        <time>2026-05-12T22:31:22Z</time>
      </trkpt>
      <trkpt lat="45.68644" lon="5.89544">
        <ele>231.8</ele>
        <time>2026-05-12T22:31:24Z</time>
      </trkpt>
      <trkpt lat="45.68681" lon="5.89544">
        <ele>232</ele>
        <time>2026-05-12T22:31:30Z</time>
      </trkpt>
      <trkpt lat="45.68729" lon="5.89552">
        <ele>231.8</ele>
        <time>2026-05-12T22:31:39Z</time>
      </trkpt>
      <trkpt lat="45.68782" lon="5.89562">
        <ele>232</ele>
        <time>2026-05-12T22:31:47Z</time>
      </trkpt>
      <trkpt lat="45.68829" lon="5.89568">
        <ele>231.8</ele>
        <time>2026-05-12T22:31:55Z</time>
      </trkpt>
      <trkpt lat="45.68883" lon="5.89575">
        <ele>232</ele>
        <time>2026-05-12T22:32:04Z</time>
      </trkpt>
      <trkpt lat="45.68906" lon="5.89578">
        <ele>232</ele>
        <time>2026-05-12T22:32:08Z</time>
      </trkpt>
      <trkpt lat="45.68922" lon="5.89581">
        <ele>232</ele>
        <time>2026-05-12T22:32:11Z</time>
      </trkpt>
      <trkpt lat="45.68959" lon="5.89581">
        <ele>232.2</ele>
        <time>2026-05-12T22:32:17Z</time>
      </trkpt>
      <trkpt lat="45.68983" lon="5.89583">
        <ele>232.4</ele>
        <time>2026-05-12T22:32:21Z</time>
      </trkpt>
      <trkpt lat="45.69013" lon="5.89587">
        <ele>232.6</ele>
        <time>2026-05-12T22:32:26Z</time>
      </trkpt>
      <trkpt lat="45.69072" lon="5.89593">
        <ele>232.8</ele>
        <time>2026-05-12T22:32:36Z</time>
      </trkpt>
      <trkpt lat="45.69132" lon="5.89599">
        <ele>232.4</ele>
        <time>2026-05-12T22:32:46Z</time>
      </trkpt>
      <trkpt lat="45.69144" lon="5.896">
        <ele>232.4</ele>
        <time>2026-05-12T22:32:48Z</time>
      </trkpt>
      <trkpt lat="45.69204" lon="5.89607">
        <ele>232.6</ele>
        <time>2026-05-12T22:32:58Z</time>
      </trkpt>
      <trkpt lat="45.69246" lon="5.89613">
        <ele>232.6</ele>
        <time>2026-05-12T22:33:06Z</time>
      </trkpt>
      <trkpt lat="45.69277" lon="5.89624">
        <ele>232.8</ele>
        <time>2026-05-12T22:33:12Z</time>
      </trkpt>
      <trkpt lat="45.69282" lon="5.89624">
        <ele>232.8</ele>
        <time>2026-05-12T22:33:13Z</time>
      </trkpt>
      <trkpt lat="45.6931" lon="5.89621">
        <ele>233</ele>
        <time>2026-05-12T22:33:19Z</time>
      </trkpt>
      <trkpt lat="45.69314" lon="5.89622">
        <ele>233</ele>
        <time>2026-05-12T22:33:20Z</time>
      </trkpt>
      <trkpt lat="45.69318" lon="5.89623">
        <ele>233</ele>
        <time>2026-05-12T22:33:21Z</time>
      </trkpt>
      <trkpt lat="45.69329" lon="5.89634">
        <ele>233</ele>
        <time>2026-05-12T22:33:24Z</time>
      </trkpt>
      <trkpt lat="45.69338" lon="5.89638">
        <ele>233.2</ele>
        <time>2026-05-12T22:33:26Z</time>
      </trkpt>
      <trkpt lat="45.69347" lon="5.89636">
        <ele>233.2</ele>
        <time>2026-05-12T22:33:28Z</time>
      </trkpt>
      <trkpt lat="45.69356" lon="5.89629">
        <ele>233.2</ele>
        <time>2026-05-12T22:33:30Z</time>
      </trkpt>
      <trkpt lat="45.69366" lon="5.89622">
        <ele>233.4</ele>
        <time>2026-05-12T22:33:32Z</time>
      </trkpt>
      <trkpt lat="45.69388" lon="5.89619">
        <ele>233.4</ele>
        <time>2026-05-12T22:33:36Z</time>
      </trkpt>
      <trkpt lat="45.69425" lon="5.8962">
        <ele>233.2</ele>
        <time>2026-05-12T22:33:43Z</time>
      </trkpt>
      <trkpt lat="45.6943" lon="5.8962">
        <ele>233.2</ele>
        <time>2026-05-12T22:33:44Z</time>
      </trkpt>
      <trkpt lat="45.6947" lon="5.89609">
        <ele>233.4</ele>
        <time>2026-05-12T22:33:52Z</time>
      </trkpt>
      <trkpt lat="45.69512" lon="5.89606">
        <ele>233.6</ele>
        <time>2026-05-12T22:34:00Z</time>
      </trkpt>
      <trkpt lat="45.69558" lon="5.89602">
        <ele>233.8</ele>
        <time>2026-05-12T22:34:09Z</time>
      </trkpt>
      <trkpt lat="45.69571" lon="5.89604">
        <ele>233.8</ele>
        <time>2026-05-12T22:34:12Z</time>
      </trkpt>
      <trkpt lat="45.69576" lon="5.89602">
        <ele>234</ele>
        <time>2026-05-12T22:34:13Z</time>
      </trkpt>
      <trkpt lat="45.69599" lon="5.89583">
        <ele>234</ele>
        <time>2026-05-12T22:34:18Z</time>
      </trkpt>
      <trkpt lat="45.69605" lon="5.8958">
        <ele>234</ele>
        <time>2026-05-12T22:34:19Z</time>
      </trkpt>
      <trkpt lat="45.69644" lon="5.8957">
        <ele>234</ele>
        <time>2026-05-12T22:34:26Z</time>
      </trkpt>
      <trkpt lat="45.69655" lon="5.89567">
        <ele>234</ele>
        <time>2026-05-12T22:34:28Z</time>
      </trkpt>
      <trkpt lat="45.69677" lon="5.89561">
        <ele>234</ele>
        <time>2026-05-12T22:34:32Z</time>
      </trkpt>
      <trkpt lat="45.69698" lon="5.8955">
        <ele>234</ele>
        <time>2026-05-12T22:34:36Z</time>
      </trkpt>
      <trkpt lat="45.69708" lon="5.89542">
        <ele>234</ele>
        <time>2026-05-12T22:34:38Z</time>
      </trkpt>
      <trkpt lat="45.69713" lon="5.89537">
        <ele>234</ele>
        <time>2026-05-12T22:34:39Z</time>
      </trkpt>
      <trkpt lat="45.69736" lon="5.895">
        <ele>234</ele>
        <time>2026-05-12T22:34:45Z</time>
      </trkpt>
      <trkpt lat="45.69769" lon="5.89441">
        <ele>234</ele>
        <time>2026-05-12T22:34:54Z</time>
      </trkpt>
      <trkpt lat="45.69798" lon="5.89402">
        <ele>234.2</ele>
        <time>2026-05-12T22:35:01Z</time>
      </trkpt>
      <trkpt lat="45.69801" lon="5.89397">
        <ele>234.2</ele>
        <time>2026-05-12T22:35:02Z</time>
      </trkpt>
      <trkpt lat="45.69814" lon="5.8937">
        <ele>234.4</ele>
        <time>2026-05-12T22:35:06Z</time>
      </trkpt>
      <trkpt lat="45.69817" lon="5.89363">
        <ele>234.4</ele>
        <time>2026-05-12T22:35:07Z</time>
      </trkpt>
      <trkpt lat="45.6984" lon="5.89315">
        <ele>234.4</ele>
        <time>2026-05-12T22:35:14Z</time>
      </trkpt>
      <trkpt lat="45.69858" lon="5.89282">
        <ele>234.2</ele>
        <time>2026-05-12T22:35:19Z</time>
      </trkpt>
      <trkpt lat="45.69867" lon="5.89272">
        <ele>234.2</ele>
        <time>2026-05-12T22:35:21Z</time>
      </trkpt>
      <trkpt lat="45.69872" lon="5.89268">
        <ele>234.2</ele>
        <time>2026-05-12T22:35:22Z</time>
      </trkpt>
      <trkpt lat="45.69888" lon="5.89262">
        <ele>234.2</ele>
        <time>2026-05-12T22:35:25Z</time>
      </trkpt>
      <trkpt lat="45.69904" lon="5.89259">
        <ele>234.2</ele>
        <time>2026-05-12T22:35:28Z</time>
      </trkpt>
      <trkpt lat="45.6992" lon="5.89255">
        <ele>234.2</ele>
        <time>2026-05-12T22:35:31Z</time>
      </trkpt>
      <trkpt lat="45.69968" lon="5.89239">
        <ele>234.4</ele>
        <time>2026-05-12T22:35:40Z</time>
      </trkpt>
      <trkpt lat="45.69989" lon="5.89232">
        <ele>234.8</ele>
        <time>2026-05-12T22:35:44Z</time>
      </trkpt>
      <trkpt lat="45.69999" lon="5.89233">
        <ele>234.8</ele>
        <time>2026-05-12T22:35:46Z</time>
      </trkpt>
      <trkpt lat="45.70005" lon="5.89234">
        <ele>234.8</ele>
        <time>2026-05-12T22:35:47Z</time>
      </trkpt>
      <trkpt lat="45.70015" lon="5.89229">
        <ele>235</ele>
        <time>2026-05-12T22:35:49Z</time>
      </trkpt>
      <trkpt lat="45.70025" lon="5.89221">
        <ele>235</ele>
        <time>2026-05-12T22:35:51Z</time>
      </trkpt>
      <trkpt lat="45.70035" lon="5.89218">
        <ele>235</ele>
        <time>2026-05-12T22:35:53Z</time>
      </trkpt>
      <trkpt lat="45.70065" lon="5.8921">
        <ele>235</ele>
        <time>2026-05-12T22:35:59Z</time>
      </trkpt>
      <trkpt lat="45.70085" lon="5.89203">
        <ele>235.6</ele>
        <time>2026-05-12T22:36:03Z</time>
      </trkpt>
      <trkpt lat="45.70108" lon="5.89194">
        <ele>235.8</ele>
        <time>2026-05-12T22:36:08Z</time>
      </trkpt>
      <trkpt lat="45.70113" lon="5.89192">
        <ele>235.8</ele>
        <time>2026-05-12T22:36:09Z</time>
      </trkpt>
      <trkpt lat="45.70121" lon="5.89188">
        <ele>236</ele>
        <time>2026-05-12T22:36:11Z</time>
      </trkpt>
      <trkpt lat="45.7014" lon="5.89184">
        <ele>236.4</ele>
        <time>2026-05-12T22:36:15Z</time>
      </trkpt>
      <trkpt lat="45.70154" lon="5.89179">
        <ele>236.4</ele>
        <time>2026-05-12T22:36:18Z</time>
      </trkpt>
      <trkpt lat="45.70166" lon="5.89176">
        <ele>236.4</ele>
        <time>2026-05-12T22:36:20Z</time>
      </trkpt>
      <trkpt lat="45.70212" lon="5.89162">
        <ele>236</ele>
        <time>2026-05-12T22:36:28Z</time>
      </trkpt>
      <trkpt lat="45.70229" lon="5.89157">
        <ele>235.8</ele>
        <time>2026-05-12T22:36:31Z</time>
      </trkpt>
      <trkpt lat="45.70246" lon="5.89149">
        <ele>235.6</ele>
        <time>2026-05-12T22:36:34Z</time>
      </trkpt>
      <trkpt lat="45.70286" lon="5.89136">
        <ele>235.4</ele>
        <time>2026-05-12T22:36:41Z</time>
      </trkpt>
      <trkpt lat="45.7034" lon="5.89118">
        <ele>234.8</ele>
        <time>2026-05-12T22:36:51Z</time>
      </trkpt>
      <trkpt lat="45.70386" lon="5.89105">
        <ele>234.6</ele>
        <time>2026-05-12T22:36:59Z</time>
      </trkpt>
      <trkpt lat="45.70393" lon="5.89104">
        <ele>234.4</ele>
        <time>2026-05-12T22:37:00Z</time>
      </trkpt>
      <trkpt lat="45.70399" lon="5.89103">
        <ele>234.4</ele>
        <time>2026-05-12T22:37:01Z</time>
      </trkpt>
      <trkpt lat="45.70412" lon="5.89103">
        <ele>234</ele>
        <time>2026-05-12T22:37:03Z</time>
      </trkpt>
      <trkpt lat="45.70423" lon="5.89101">
        <ele>233.8</ele>
        <time>2026-05-12T22:37:05Z</time>
      </trkpt>
      <trkpt lat="45.70452" lon="5.89096">
        <ele>233.6</ele>
        <time>2026-05-12T22:37:10Z</time>
      </trkpt>
      <trkpt lat="45.70457" lon="5.89099">
        <ele>233.6</ele>
        <time>2026-05-12T22:37:11Z</time>
      </trkpt>
      <trkpt lat="45.7046" lon="5.89103">
        <ele>233.6</ele>
        <time>2026-05-12T22:37:12Z</time>
      </trkpt>
      <trkpt lat="45.70463" lon="5.89109">
        <ele>233.4</ele>
        <time>2026-05-12T22:37:13Z</time>
      </trkpt>
      <trkpt lat="45.70465" lon="5.89116">
        <ele>233.4</ele>
        <time>2026-05-12T22:37:14Z</time>
      </trkpt>
      <trkpt lat="45.70463" lon="5.89146">
        <ele>233.4</ele>
        <time>2026-05-12T22:37:18Z</time>
      </trkpt>
      <trkpt lat="45.70459" lon="5.89211">
        <ele>234</ele>
        <time>2026-05-12T22:37:27Z</time>
      </trkpt>
      <trkpt lat="45.70458" lon="5.89224">
        <ele>234.2</ele>
        <time>2026-05-12T22:37:29Z</time>
      </trkpt>
      <trkpt lat="45.70456" lon="5.89252">
        <ele>234.4</ele>
        <time>2026-05-12T22:37:33Z</time>
      </trkpt>
      <trkpt lat="45.70456" lon="5.89259">
        <ele>234.6</ele>
        <time>2026-05-12T22:37:34Z</time>
      </trkpt>
      <trkpt lat="45.70451" lon="5.89308">
        <ele>235</ele>
        <time>2026-05-12T22:37:41Z</time>
      </trkpt>
      <trkpt lat="45.70445" lon="5.89376">
        <ele>235.4</ele>
        <time>2026-05-12T22:37:51Z</time>
      </trkpt>
      <trkpt lat="45.70442" lon="5.8939">
        <ele>235.8</ele>
        <time>2026-05-12T22:37:53Z</time>
      </trkpt>
      <trkpt lat="45.70434" lon="5.89432">
        <ele>236.2</ele>
        <time>2026-05-12T22:37:59Z</time>
      </trkpt>
      <trkpt lat="45.70432" lon="5.89446">
        <ele>236.2</ele>
        <time>2026-05-12T22:38:01Z</time>
      </trkpt>
      <trkpt lat="45.70429" lon="5.89458">
        <ele>236.2</ele>
        <time>2026-05-12T22:38:03Z</time>
      </trkpt>
      <trkpt lat="45.70428" lon="5.89465">
        <ele>236.2</ele>
        <time>2026-05-12T22:38:04Z</time>
      </trkpt>
      <trkpt lat="45.70427" lon="5.89471">
        <ele>236.2</ele>
        <time>2026-05-12T22:38:05Z</time>
      </trkpt>
      <trkpt lat="45.70432" lon="5.89481">
        <ele>236.2</ele>
        <time>2026-05-12T22:38:07Z</time>
      </trkpt>
      <trkpt lat="45.7044" lon="5.89481">
        <ele>236.4</ele>
        <time>2026-05-12T22:38:09Z</time>
      </trkpt>
      <trkpt lat="45.70445" lon="5.89478">
        <ele>236.4</ele>
        <time>2026-05-12T22:38:10Z</time>
      </trkpt>
      <trkpt lat="45.70459" lon="5.89468">
        <ele>236.6</ele>
        <time>2026-05-12T22:38:13Z</time>
      </trkpt>
      <trkpt lat="45.70474" lon="5.89463">
        <ele>236.6</ele>
        <time>2026-05-12T22:38:16Z</time>
      </trkpt>
      <trkpt lat="45.70511" lon="5.89454">
        <ele>236.8</ele>
        <time>2026-05-12T22:38:23Z</time>
      </trkpt>
      <trkpt lat="45.70522" lon="5.89452">
        <ele>236.8</ele>
        <time>2026-05-12T22:38:25Z</time>
      </trkpt>
      <trkpt lat="45.70578" lon="5.89441">
        <ele>236.8</ele>
        <time>2026-05-12T22:38:35Z</time>
      </trkpt>
      <trkpt lat="45.70622" lon="5.89425">
        <ele>236.6</ele>
        <time>2026-05-12T22:38:43Z</time>
      </trkpt>
      <trkpt lat="45.70668" lon="5.89409">
        <ele>236.6</ele>
        <time>2026-05-12T22:38:51Z</time>
      </trkpt>
      <trkpt lat="45.70705" lon="5.89404">
        <ele>235.8</ele>
        <time>2026-05-12T22:38:57Z</time>
      </trkpt>
      <trkpt lat="45.70719" lon="5.89403">
        <ele>235.8</ele>
        <time>2026-05-12T22:38:59Z</time>
      </trkpt>
      <trkpt lat="45.70773" lon="5.89402">
        <ele>235.6</ele>
        <time>2026-05-12T22:39:08Z</time>
      </trkpt>
      <trkpt lat="45.70779" lon="5.89403">
        <ele>235.6</ele>
        <time>2026-05-12T22:39:09Z</time>
      </trkpt>
      <trkpt lat="45.70807" lon="5.894">
        <ele>234.6</ele>
        <time>2026-05-12T22:39:14Z</time>
      </trkpt>
      <trkpt lat="45.70817" lon="5.894">
        <ele>234.6</ele>
        <time>2026-05-12T22:39:16Z</time>
      </trkpt>
      <trkpt lat="45.70859" lon="5.89398">
        <ele>235</ele>
        <time>2026-05-12T22:39:24Z</time>
      </trkpt>
      <trkpt lat="45.70863" lon="5.89397">
        <ele>235</ele>
        <time>2026-05-12T22:39:25Z</time>
      </trkpt>
      <trkpt lat="45.70885" lon="5.89388">
        <ele>235.6</ele>
        <time>2026-05-12T22:39:31Z</time>
      </trkpt>
      <trkpt lat="45.70887" lon="5.89387">
        <ele>235.8</ele>
        <time>2026-05-12T22:39:32Z</time>
      </trkpt>
      <trkpt lat="45.70901" lon="5.89383">
        <ele>236.6</ele>
        <time>2026-05-12T22:39:37Z</time>
      </trkpt>
      <trkpt lat="45.7091" lon="5.89379">
        <ele>236.8</ele>
        <time>2026-05-12T22:39:41Z</time>
      </trkpt>
      <trkpt lat="45.70918" lon="5.89377">
        <ele>237.4</ele>
        <time>2026-05-12T22:39:44Z</time>
      </trkpt>
      <trkpt lat="45.70925" lon="5.89375">
        <ele>238.2</ele>
        <time>2026-05-12T22:39:47Z</time>
      </trkpt>
      <trkpt lat="45.70938" lon="5.89369">
        <ele>238.8</ele>
        <time>2026-05-12T22:39:52Z</time>
      </trkpt>
      <trkpt lat="45.70941" lon="5.89369">
        <ele>239.2</ele>
        <time>2026-05-12T22:39:53Z</time>
      </trkpt>
      <trkpt lat="45.70953" lon="5.89367">
        <ele>240.2</ele>
        <time>2026-05-12T22:39:58Z</time>
      </trkpt>
      <trkpt lat="45.70955" lon="5.89367">
        <ele>240.4</ele>
        <time>2026-05-12T22:39:59Z</time>
      </trkpt>
      <trkpt lat="45.70964" lon="5.89368">
        <ele>241.4</ele>
        <time>2026-05-12T22:40:03Z</time>
      </trkpt>
      <trkpt lat="45.7097" lon="5.89366">
        <ele>242</ele>
        <time>2026-05-12T22:40:06Z</time>
      </trkpt>
      <trkpt lat="45.70977" lon="5.89365">
        <ele>242.4</ele>
        <time>2026-05-12T22:40:09Z</time>
      </trkpt>
      <trkpt lat="45.70983" lon="5.89366">
        <ele>242.6</ele>
        <time>2026-05-12T22:40:12Z</time>
      </trkpt>
      <trkpt lat="45.70993" lon="5.89367">
        <ele>243.4</ele>
        <time>2026-05-12T22:40:17Z</time>
      </trkpt>
      <trkpt lat="45.71002" lon="5.89367">
        <ele>244.2</ele>
        <time>2026-05-12T22:40:21Z</time>
      </trkpt>
      <trkpt lat="45.71009" lon="5.89367">
        <ele>244.6</ele>
        <time>2026-05-12T22:40:24Z</time>
      </trkpt>
      <trkpt lat="45.7102" lon="5.89365">
        <ele>245.8</ele>
        <time>2026-05-12T22:40:29Z</time>
      </trkpt>
      <trkpt lat="45.71033" lon="5.8936">
        <ele>247</ele>
        <time>2026-05-12T22:40:35Z</time>
      </trkpt>
      <trkpt lat="45.71035" lon="5.89359">
        <ele>247</ele>
        <time>2026-05-12T22:40:36Z</time>
      </trkpt>
      <trkpt lat="45.71044" lon="5.89356">
        <ele>248</ele>
        <time>2026-05-12T22:40:40Z</time>
      </trkpt>
      <trkpt lat="45.71053" lon="5.89353">
        <ele>248.6</ele>
        <time>2026-05-12T22:40:44Z</time>
      </trkpt>
      <trkpt lat="45.7106" lon="5.8935">
        <ele>249</ele>
        <time>2026-05-12T22:40:47Z</time>
      </trkpt>
      <trkpt lat="45.71066" lon="5.89347">
        <ele>249.6</ele>
        <time>2026-05-12T22:40:50Z</time>
      </trkpt>
      <trkpt lat="45.71073" lon="5.89345">
        <ele>250.2</ele>
        <time>2026-05-12T22:40:53Z</time>
      </trkpt>
      <trkpt lat="45.71083" lon="5.89342">
        <ele>251</ele>
        <time>2026-05-12T22:40:58Z</time>
      </trkpt>
      <trkpt lat="45.71085" lon="5.89341">
        <ele>251.2</ele>
        <time>2026-05-12T22:40:59Z</time>
      </trkpt>
      <trkpt lat="45.71103" lon="5.89334">
        <ele>252.8</ele>
        <time>2026-05-12T22:41:07Z</time>
      </trkpt>
      <trkpt lat="45.71116" lon="5.89328">
        <ele>253.6</ele>
        <time>2026-05-12T22:41:13Z</time>
      </trkpt>
      <trkpt lat="45.71118" lon="5.89327">
        <ele>253.8</ele>
        <time>2026-05-12T22:41:14Z</time>
      </trkpt>
      <trkpt lat="45.71131" lon="5.89324">
        <ele>254.8</ele>
        <time>2026-05-12T22:41:20Z</time>
      </trkpt>
      <trkpt lat="45.71135" lon="5.89323">
        <ele>255</ele>
        <time>2026-05-12T22:41:22Z</time>
      </trkpt>
      <trkpt lat="45.71149" lon="5.89319">
        <ele>256</ele>
        <time>2026-05-12T22:41:28Z</time>
      </trkpt>
      <trkpt lat="45.71154" lon="5.89318">
        <ele>256.2</ele>
        <time>2026-05-12T22:41:30Z</time>
      </trkpt>
      <trkpt lat="45.71167" lon="5.89315">
        <ele>256.8</ele>
        <time>2026-05-12T22:41:36Z</time>
      </trkpt>
      <trkpt lat="45.71173" lon="5.89315">
        <ele>257.4</ele>
        <time>2026-05-12T22:41:39Z</time>
      </trkpt>
      <trkpt lat="45.71184" lon="5.89317">
        <ele>258</ele>
        <time>2026-05-12T22:41:44Z</time>
      </trkpt>
      <trkpt lat="45.71187" lon="5.89318">
        <ele>258.4</ele>
        <time>2026-05-12T22:41:46Z</time>
      </trkpt>
      <trkpt lat="45.71194" lon="5.8932">
        <ele>258.8</ele>
        <time>2026-05-12T22:41:49Z</time>
      </trkpt>
      <trkpt lat="45.71209" lon="5.89324">
        <ele>259.4</ele>
        <time>2026-05-12T22:41:55Z</time>
      </trkpt>
      <trkpt lat="45.71216" lon="5.89326">
        <ele>260</ele>
        <time>2026-05-12T22:41:58Z</time>
      </trkpt>
      <trkpt lat="45.71229" lon="5.8933">
        <ele>260.8</ele>
        <time>2026-05-12T22:42:04Z</time>
      </trkpt>
      <trkpt lat="45.71235" lon="5.89332">
        <ele>261.2</ele>
        <time>2026-05-12T22:42:06Z</time>
      </trkpt>
      <trkpt lat="45.7125" lon="5.89336">
        <ele>262</ele>
        <time>2026-05-12T22:42:12Z</time>
      </trkpt>
      <trkpt lat="45.71253" lon="5.89337">
        <ele>262</ele>
        <time>2026-05-12T22:42:13Z</time>
      </trkpt>
      <trkpt lat="45.71266" lon="5.8934">
        <ele>262.4</ele>
        <time>2026-05-12T22:42:18Z</time>
      </trkpt>
      <trkpt lat="45.71268" lon="5.89341">
        <ele>262.6</ele>
        <time>2026-05-12T22:42:19Z</time>
      </trkpt>
      <trkpt lat="45.71273" lon="5.89343">
        <ele>263</ele>
        <time>2026-05-12T22:42:21Z</time>
      </trkpt>
      <trkpt lat="45.71287" lon="5.89346">
        <ele>263.6</ele>
        <time>2026-05-12T22:42:27Z</time>
      </trkpt>
      <trkpt lat="45.71298" lon="5.89346">
        <ele>264.4</ele>
        <time>2026-05-12T22:42:32Z</time>
      </trkpt>
      <trkpt lat="45.71306" lon="5.89345">
        <ele>265.2</ele>
        <time>2026-05-12T22:42:35Z</time>
      </trkpt>
      <trkpt lat="45.7131" lon="5.89342">
        <ele>265.4</ele>
        <time>2026-05-12T22:42:37Z</time>
      </trkpt>
      <trkpt lat="45.71327" lon="5.89333">
        <ele>266</ele>
        <time>2026-05-12T22:42:44Z</time>
      </trkpt>
      <trkpt lat="45.71334" lon="5.8933">
        <ele>266.4</ele>
        <time>2026-05-12T22:42:47Z</time>
      </trkpt>
      <trkpt lat="45.71339" lon="5.8933">
        <ele>266.8</ele>
        <time>2026-05-12T22:42:49Z</time>
      </trkpt>
      <trkpt lat="45.7135" lon="5.89327">
        <ele>267.6</ele>
        <time>2026-05-12T22:42:54Z</time>
      </trkpt>
      <trkpt lat="45.71357" lon="5.89324">
        <ele>268.2</ele>
        <time>2026-05-12T22:42:57Z</time>
      </trkpt>
      <trkpt lat="45.71361" lon="5.89323">
        <ele>268.6</ele>
        <time>2026-05-12T22:42:59Z</time>
      </trkpt>
      <trkpt lat="45.71375" lon="5.89319">
        <ele>269.6</ele>
        <time>2026-05-12T22:43:05Z</time>
      </trkpt>
      <trkpt lat="45.71377" lon="5.89318">
        <ele>269.8</ele>
        <time>2026-05-12T22:43:06Z</time>
      </trkpt>
      <trkpt lat="45.7139" lon="5.89316">
        <ele>270.8</ele>
        <time>2026-05-12T22:43:12Z</time>
      </trkpt>
      <trkpt lat="45.71393" lon="5.89314">
        <ele>271</ele>
        <time>2026-05-12T22:43:14Z</time>
      </trkpt>
      <trkpt lat="45.71395" lon="5.89314">
        <ele>271.2</ele>
        <time>2026-05-12T22:43:15Z</time>
      </trkpt>
      <trkpt lat="45.71401" lon="5.8931">
        <ele>271.8</ele>
        <time>2026-05-12T22:43:18Z</time>
      </trkpt>
      <trkpt lat="45.71406" lon="5.89307">
        <ele>272.2</ele>
        <time>2026-05-12T22:43:20Z</time>
      </trkpt>
      <trkpt lat="45.71415" lon="5.89303">
        <ele>272.8</ele>
        <time>2026-05-12T22:43:24Z</time>
      </trkpt>
      <trkpt lat="45.71421" lon="5.893">
        <ele>273.6</ele>
        <time>2026-05-12T22:43:27Z</time>
      </trkpt>
      <trkpt lat="45.71425" lon="5.89297">
        <ele>274</ele>
        <time>2026-05-12T22:43:29Z</time>
      </trkpt>
      <trkpt lat="45.71435" lon="5.89291">
        <ele>274.8</ele>
        <time>2026-05-12T22:43:34Z</time>
      </trkpt>
      <trkpt lat="45.7144" lon="5.8929">
        <ele>275</ele>
        <time>2026-05-12T22:43:36Z</time>
      </trkpt>
      <trkpt lat="45.71453" lon="5.89283">
        <ele>276.2</ele>
        <time>2026-05-12T22:43:42Z</time>
      </trkpt>
      <trkpt lat="45.71456" lon="5.89282">
        <ele>276.4</ele>
        <time>2026-05-12T22:43:43Z</time>
      </trkpt>
      <trkpt lat="45.71471" lon="5.89277">
        <ele>277.4</ele>
        <time>2026-05-12T22:43:49Z</time>
      </trkpt>
      <trkpt lat="45.71476" lon="5.89275">
        <ele>277.6</ele>
        <time>2026-05-12T22:43:51Z</time>
      </trkpt>
      <trkpt lat="45.71495" lon="5.89267">
        <ele>278.4</ele>
        <time>2026-05-12T22:43:59Z</time>
      </trkpt>
      <trkpt lat="45.71517" lon="5.89261">
        <ele>279.4</ele>
        <time>2026-05-12T22:44:07Z</time>
      </trkpt>
      <trkpt lat="45.7152" lon="5.8926">
        <ele>279.6</ele>
        <time>2026-05-12T22:44:08Z</time>
      </trkpt>
      <trkpt lat="45.71544" lon="5.89249">
        <ele>280.2</ele>
        <time>2026-05-12T22:44:16Z</time>
      </trkpt>
      <trkpt lat="45.7156" lon="5.89245">
        <ele>280.6</ele>
        <time>2026-05-12T22:44:21Z</time>
      </trkpt>
      <trkpt lat="45.71564" lon="5.89243">
        <ele>280.6</ele>
        <time>2026-05-12T22:44:22Z</time>
      </trkpt>
      <trkpt lat="45.71587" lon="5.89235">
        <ele>280.8</ele>
        <time>2026-05-12T22:44:28Z</time>
      </trkpt>
      <trkpt lat="45.71614" lon="5.89235">
        <ele>281.2</ele>
        <time>2026-05-12T22:44:36Z</time>
      </trkpt>
      <trkpt lat="45.71626" lon="5.89232">
        <ele>281.6</ele>
        <time>2026-05-12T22:44:39Z</time>
      </trkpt>
      <trkpt lat="45.71633" lon="5.89229">
        <ele>281.8</ele>
        <time>2026-05-12T22:44:41Z</time>
      </trkpt>
      <trkpt lat="45.71657" lon="5.89221">
        <ele>282</ele>
        <time>2026-05-12T22:44:47Z</time>
      </trkpt>
      <trkpt lat="45.71696" lon="5.89207">
        <ele>282</ele>
        <time>2026-05-12T22:44:56Z</time>
      </trkpt>
      <trkpt lat="45.71723" lon="5.89198">
        <ele>281.8</ele>
        <time>2026-05-12T22:45:01Z</time>
      </trkpt>
      <trkpt lat="45.71759" lon="5.89187">
        <ele>281.8</ele>
        <time>2026-05-12T22:45:08Z</time>
      </trkpt>
      <trkpt lat="45.71801" lon="5.89171">
        <ele>281.6</ele>
        <time>2026-05-12T22:45:16Z</time>
      </trkpt>
      <trkpt lat="45.71812" lon="5.89168">
        <ele>281.6</ele>
        <time>2026-05-12T22:45:18Z</time>
      </trkpt>
      <trkpt lat="45.71828" lon="5.89167">
        <ele>281.8</ele>
        <time>2026-05-12T22:45:21Z</time>
      </trkpt>
      <trkpt lat="45.71858" lon="5.89166">
        <ele>281.8</ele>
        <time>2026-05-12T22:45:27Z</time>
      </trkpt>
      <trkpt lat="45.71863" lon="5.89165">
        <ele>281.8</ele>
        <time>2026-05-12T22:45:28Z</time>
      </trkpt>
      <trkpt lat="45.71896" lon="5.89154">
        <ele>282.2</ele>
        <time>2026-05-12T22:45:35Z</time>
      </trkpt>
      <trkpt lat="45.71925" lon="5.89143">
        <ele>282.6</ele>
        <time>2026-05-12T22:45:42Z</time>
      </trkpt>
      <trkpt lat="45.71933" lon="5.89139">
        <ele>283</ele>
        <time>2026-05-12T22:45:44Z</time>
      </trkpt>
      <trkpt lat="45.71942" lon="5.89137">
        <ele>283.4</ele>
        <time>2026-05-12T22:45:46Z</time>
      </trkpt>
      <trkpt lat="45.71946" lon="5.89138">
        <ele>283.4</ele>
        <time>2026-05-12T22:45:47Z</time>
      </trkpt>
      <trkpt lat="45.7196" lon="5.89136">
        <ele>283.6</ele>
        <time>2026-05-12T22:45:50Z</time>
      </trkpt>
      <trkpt lat="45.71964" lon="5.89135">
        <ele>283.6</ele>
        <time>2026-05-12T22:45:51Z</time>
      </trkpt>
      <trkpt lat="45.71973" lon="5.89131">
        <ele>283.8</ele>
        <time>2026-05-12T22:45:53Z</time>
      </trkpt>
      <trkpt lat="45.71978" lon="5.89129">
        <ele>283.8</ele>
        <time>2026-05-12T22:45:54Z</time>
      </trkpt>
      <trkpt lat="45.71995" lon="5.89115">
        <ele>284</ele>
        <time>2026-05-12T22:45:58Z</time>
      </trkpt>
      <trkpt lat="45.72025" lon="5.89084">
        <ele>284</ele>
        <time>2026-05-12T22:46:05Z</time>
      </trkpt>
      <trkpt lat="45.72043" lon="5.8907">
        <ele>283.8</ele>
        <time>2026-05-12T22:46:09Z</time>
      </trkpt>
      <trkpt lat="45.72052" lon="5.89064">
        <ele>283.8</ele>
        <time>2026-05-12T22:46:11Z</time>
      </trkpt>
      <trkpt lat="45.72074" lon="5.89046">
        <ele>283.8</ele>
        <time>2026-05-12T22:46:16Z</time>
      </trkpt>
      <trkpt lat="45.72081" lon="5.89038">
        <ele>283.8</ele>
        <time>2026-05-12T22:46:18Z</time>
      </trkpt>
      <trkpt lat="45.72089" lon="5.89027">
        <ele>283.8</ele>
        <time>2026-05-12T22:46:20Z</time>
      </trkpt>
      <trkpt lat="45.72096" lon="5.89014">
        <ele>283.6</ele>
        <time>2026-05-12T22:46:22Z</time>
      </trkpt>
      <trkpt lat="45.72101" lon="5.89009">
        <ele>283.4</ele>
        <time>2026-05-12T22:46:23Z</time>
      </trkpt>
      <trkpt lat="45.72132" lon="5.88991">
        <ele>282.8</ele>
        <time>2026-05-12T22:46:29Z</time>
      </trkpt>
      <trkpt lat="45.72142" lon="5.88987">
        <ele>282.8</ele>
        <time>2026-05-12T22:46:31Z</time>
      </trkpt>
      <trkpt lat="45.72147" lon="5.88987">
        <ele>282.6</ele>
        <time>2026-05-12T22:46:32Z</time>
      </trkpt>
      <trkpt lat="45.72157" lon="5.88991">
        <ele>282.8</ele>
        <time>2026-05-12T22:46:34Z</time>
      </trkpt>
      <trkpt lat="45.72184" lon="5.88996">
        <ele>283</ele>
        <time>2026-05-12T22:46:40Z</time>
      </trkpt>
      <trkpt lat="45.72219" lon="5.88984">
        <ele>283.6</ele>
        <time>2026-05-12T22:46:48Z</time>
      </trkpt>
      <trkpt lat="45.72223" lon="5.88982">
        <ele>283.6</ele>
        <time>2026-05-12T22:46:49Z</time>
      </trkpt>
      <trkpt lat="45.72236" lon="5.88978">
        <ele>283.8</ele>
        <time>2026-05-12T22:46:53Z</time>
      </trkpt>
      <trkpt lat="45.72249" lon="5.88977">
        <ele>284</ele>
        <time>2026-05-12T22:46:55Z</time>
      </trkpt>
      <trkpt lat="45.72258" lon="5.88977">
        <ele>284.2</ele>
        <time>2026-05-12T22:46:57Z</time>
      </trkpt>
      <trkpt lat="45.72267" lon="5.88973">
        <ele>284.4</ele>
        <time>2026-05-12T22:46:59Z</time>
      </trkpt>
      <trkpt lat="45.72271" lon="5.88971">
        <ele>284.6</ele>
        <time>2026-05-12T22:47:00Z</time>
      </trkpt>
      <trkpt lat="45.72279" lon="5.88966">
        <ele>284.6</ele>
        <time>2026-05-12T22:47:02Z</time>
      </trkpt>
      <trkpt lat="45.72288" lon="5.88962">
        <ele>284.8</ele>
        <time>2026-05-12T22:47:04Z</time>
      </trkpt>
      <trkpt lat="45.72296" lon="5.88959">
        <ele>285</ele>
        <time>2026-05-12T22:47:06Z</time>
      </trkpt>
      <trkpt lat="45.72316" lon="5.8895">
        <ele>285.6</ele>
        <time>2026-05-12T22:47:11Z</time>
      </trkpt>
      <trkpt lat="45.72324" lon="5.88945">
        <ele>285.8</ele>
        <time>2026-05-12T22:47:13Z</time>
      </trkpt>
      <trkpt lat="45.72332" lon="5.8894">
        <ele>286</ele>
        <time>2026-05-12T22:47:15Z</time>
      </trkpt>
      <trkpt lat="45.72365" lon="5.88922">
        <ele>286.4</ele>
        <time>2026-05-12T22:47:23Z</time>
      </trkpt>
      <trkpt lat="45.724" lon="5.88903">
        <ele>286.8</ele>
        <time>2026-05-12T22:47:31Z</time>
      </trkpt>
      <trkpt lat="45.72404" lon="5.88901">
        <ele>286.8</ele>
        <time>2026-05-12T22:47:32Z</time>
      </trkpt>
      <trkpt lat="45.72436" lon="5.88882">
        <ele>287.2</ele>
        <time>2026-05-12T22:47:39Z</time>
      </trkpt>
      <trkpt lat="45.72478" lon="5.88859">
        <ele>287.6</ele>
        <time>2026-05-12T22:47:48Z</time>
      </trkpt>
      <trkpt lat="45.72521" lon="5.88833">
        <ele>287.6</ele>
        <time>2026-05-12T22:47:57Z</time>
      </trkpt>
      <trkpt lat="45.72526" lon="5.8883">
        <ele>287.6</ele>
        <time>2026-05-12T22:47:58Z</time>
      </trkpt>
      <trkpt lat="45.72551" lon="5.88816">
        <ele>287.4</ele>
        <time>2026-05-12T22:48:03Z</time>
      </trkpt>
      <trkpt lat="45.72585" lon="5.888">
        <ele>287.4</ele>
        <time>2026-05-12T22:48:10Z</time>
      </trkpt>
      <trkpt lat="45.72627" lon="5.88787">
        <ele>287.6</ele>
        <time>2026-05-12T22:48:18Z</time>
      </trkpt>
      <trkpt lat="45.72669" lon="5.88778">
        <ele>287.4</ele>
        <time>2026-05-12T22:48:26Z</time>
      </trkpt>
      <trkpt lat="45.72719" lon="5.88762">
        <ele>287</ele>
        <time>2026-05-12T22:48:35Z</time>
      </trkpt>
      <trkpt lat="45.72758" lon="5.88744">
        <ele>286.4</ele>
        <time>2026-05-12T22:48:42Z</time>
      </trkpt>
      <trkpt lat="45.7277" lon="5.88737">
        <ele>286.2</ele>
        <time>2026-05-12T22:48:44Z</time>
      </trkpt>
      <trkpt lat="45.72788" lon="5.88727">
        <ele>285.6</ele>
        <time>2026-05-12T22:48:47Z</time>
      </trkpt>
      <trkpt lat="45.728" lon="5.88721">
        <ele>285.4</ele>
        <time>2026-05-12T22:48:49Z</time>
      </trkpt>
      <trkpt lat="45.72842" lon="5.88694">
        <ele>284.6</ele>
        <time>2026-05-12T22:48:56Z</time>
      </trkpt>
      <trkpt lat="45.72855" lon="5.88687">
        <ele>284</ele>
        <time>2026-05-12T22:48:58Z</time>
      </trkpt>
      <trkpt lat="45.72874" lon="5.88677">
        <ele>283.8</ele>
        <time>2026-05-12T22:49:01Z</time>
      </trkpt>
      <trkpt lat="45.72888" lon="5.88669">
        <ele>283.6</ele>
        <time>2026-05-12T22:49:03Z</time>
      </trkpt>
      <trkpt lat="45.72895" lon="5.88666">
        <ele>283.4</ele>
        <time>2026-05-12T22:49:04Z</time>
      </trkpt>
      <trkpt lat="45.72922" lon="5.8865">
        <ele>282.4</ele>
        <time>2026-05-12T22:49:08Z</time>
      </trkpt>
      <trkpt lat="45.72935" lon="5.88642">
        <ele>281.6</ele>
        <time>2026-05-12T22:49:10Z</time>
      </trkpt>
      <trkpt lat="45.7295" lon="5.88634">
        <ele>281.2</ele>
        <time>2026-05-12T22:49:12Z</time>
      </trkpt>
      <trkpt lat="45.72971" lon="5.88621">
        <ele>280</ele>
        <time>2026-05-12T22:49:15Z</time>
      </trkpt>
      <trkpt lat="45.72982" lon="5.88615">
        <ele>278.8</ele>
        <time>2026-05-12T22:49:17Z</time>
      </trkpt>
      <trkpt lat="45.72991" lon="5.8861">
        <ele>277.8</ele>
        <time>2026-05-12T22:49:19Z</time>
      </trkpt>
      <trkpt lat="45.72997" lon="5.88607">
        <ele>277.4</ele>
        <time>2026-05-12T22:49:20Z</time>
      </trkpt>
      <trkpt lat="45.73007" lon="5.88601">
        <ele>276.2</ele>
        <time>2026-05-12T22:49:22Z</time>
      </trkpt>
      <trkpt lat="45.7302" lon="5.88594">
        <ele>275</ele>
        <time>2026-05-12T22:49:25Z</time>
      </trkpt>
      <trkpt lat="45.73024" lon="5.88592">
        <ele>274.4</ele>
        <time>2026-05-12T22:49:26Z</time>
      </trkpt>
      <trkpt lat="45.73028" lon="5.88593">
        <ele>273.8</ele>
        <time>2026-05-12T22:49:27Z</time>
      </trkpt>
      <trkpt lat="45.73031" lon="5.88598">
        <ele>273.6</ele>
        <time>2026-05-12T22:49:28Z</time>
      </trkpt>
      <trkpt lat="45.73033" lon="5.88605">
        <ele>273.2</ele>
        <time>2026-05-12T22:49:29Z</time>
      </trkpt>
      <trkpt lat="45.73035" lon="5.88621">
        <ele>272.6</ele>
        <time>2026-05-12T22:49:31Z</time>
      </trkpt>
      <trkpt lat="45.73035" lon="5.88632">
        <ele>272.2</ele>
        <time>2026-05-12T22:49:32Z</time>
      </trkpt>
      <trkpt lat="45.73034" lon="5.88641">
        <ele>271.8</ele>
        <time>2026-05-12T22:49:33Z</time>
      </trkpt>
      <trkpt lat="45.73032" lon="5.88649">
        <ele>271.4</ele>
        <time>2026-05-12T22:49:34Z</time>
      </trkpt>
      <trkpt lat="45.7303" lon="5.88655">
        <ele>271.2</ele>
        <time>2026-05-12T22:49:35Z</time>
      </trkpt>
      <trkpt lat="45.73026" lon="5.88669">
        <ele>270</ele>
        <time>2026-05-12T22:49:37Z</time>
      </trkpt>
      <trkpt lat="45.73016" lon="5.88697">
        <ele>268.8</ele>
        <time>2026-05-12T22:49:41Z</time>
      </trkpt>
      <trkpt lat="45.73014" lon="5.88708">
        <ele>268.6</ele>
        <time>2026-05-12T22:49:42Z</time>
      </trkpt>
      <trkpt lat="45.73013" lon="5.88727">
        <ele>268.2</ele>
        <time>2026-05-12T22:49:44Z</time>
      </trkpt>
      <trkpt lat="45.73014" lon="5.88738">
        <ele>267.8</ele>
        <time>2026-05-12T22:49:45Z</time>
      </trkpt>
      <trkpt lat="45.73016" lon="5.88748">
        <ele>267.6</ele>
        <time>2026-05-12T22:49:46Z</time>
      </trkpt>
      <trkpt lat="45.73025" lon="5.88778">
        <ele>267</ele>
        <time>2026-05-12T22:49:49Z</time>
      </trkpt>
      <trkpt lat="45.73032" lon="5.88798">
        <ele>266.4</ele>
        <time>2026-05-12T22:49:51Z</time>
      </trkpt>
      <trkpt lat="45.73039" lon="5.88816">
        <ele>266</ele>
        <time>2026-05-12T22:49:53Z</time>
      </trkpt>
      <trkpt lat="45.73042" lon="5.88823">
        <ele>265.4</ele>
        <time>2026-05-12T22:49:54Z</time>
      </trkpt>
      <trkpt lat="45.73046" lon="5.8883">
        <ele>265.2</ele>
        <time>2026-05-12T22:49:55Z</time>
      </trkpt>
      <trkpt lat="45.73063" lon="5.88853">
        <ele>264.4</ele>
        <time>2026-05-12T22:49:58Z</time>
      </trkpt>
      <trkpt lat="45.7307" lon="5.8886">
        <ele>264</ele>
        <time>2026-05-12T22:49:59Z</time>
      </trkpt>
      <trkpt lat="45.73097" lon="5.88885">
        <ele>263</ele>
        <time>2026-05-12T22:50:03Z</time>
      </trkpt>
      <trkpt lat="45.73104" lon="5.88892">
        <ele>262.4</ele>
        <time>2026-05-12T22:50:04Z</time>
      </trkpt>
      <trkpt lat="45.73118" lon="5.88907">
        <ele>261.6</ele>
        <time>2026-05-12T22:50:06Z</time>
      </trkpt>
      <trkpt lat="45.73137" lon="5.88925">
        <ele>260.6</ele>
        <time>2026-05-12T22:50:09Z</time>
      </trkpt>
      <trkpt lat="45.73146" lon="5.8893">
        <ele>260.2</ele>
        <time>2026-05-12T22:50:10Z</time>
      </trkpt>
      <trkpt lat="45.73154" lon="5.88932">
        <ele>259.4</ele>
        <time>2026-05-12T22:50:11Z</time>
      </trkpt>
      <trkpt lat="45.7316" lon="5.88933">
        <ele>259</ele>
        <time>2026-05-12T22:50:12Z</time>
      </trkpt>
      <trkpt lat="45.73175" lon="5.88933">
        <ele>258</ele>
        <time>2026-05-12T22:50:14Z</time>
      </trkpt>
      <trkpt lat="45.73192" lon="5.88933">
        <ele>256</ele>
        <time>2026-05-12T22:50:16Z</time>
      </trkpt>
      <trkpt lat="45.73212" lon="5.88933">
        <ele>254.8</ele>
        <time>2026-05-12T22:50:18Z</time>
      </trkpt>
      <trkpt lat="45.73221" lon="5.88933">
        <ele>254.2</ele>
        <time>2026-05-12T22:50:19Z</time>
      </trkpt>
      <trkpt lat="45.73229" lon="5.88934">
        <ele>253.4</ele>
        <time>2026-05-12T22:50:20Z</time>
      </trkpt>
      <trkpt lat="45.73244" lon="5.88935">
        <ele>252.4</ele>
        <time>2026-05-12T22:50:22Z</time>
      </trkpt>
      <trkpt lat="45.73251" lon="5.88937">
        <ele>251.6</ele>
        <time>2026-05-12T22:50:23Z</time>
      </trkpt>
      <trkpt lat="45.73256" lon="5.88939">
        <ele>251</ele>
        <time>2026-05-12T22:50:24Z</time>
      </trkpt>
      <trkpt lat="45.73262" lon="5.88942">
        <ele>250</ele>
        <time>2026-05-12T22:50:25Z</time>
      </trkpt>
      <trkpt lat="45.7327" lon="5.88946">
        <ele>248.8</ele>
        <time>2026-05-12T22:50:26Z</time>
      </trkpt>
      <trkpt lat="45.73275" lon="5.8895">
        <ele>248.2</ele>
        <time>2026-05-12T22:50:27Z</time>
      </trkpt>
      <trkpt lat="45.73281" lon="5.88955">
        <ele>247.2</ele>
        <time>2026-05-12T22:50:28Z</time>
      </trkpt>
      <trkpt lat="45.73292" lon="5.88968">
        <ele>246</ele>
        <time>2026-05-12T22:50:30Z</time>
      </trkpt>
      <trkpt lat="45.73298" lon="5.88974">
        <ele>245.2</ele>
        <time>2026-05-12T22:50:31Z</time>
      </trkpt>
      <trkpt lat="45.73304" lon="5.88981">
        <ele>245</ele>
        <time>2026-05-12T22:50:32Z</time>
      </trkpt>
      <trkpt lat="45.73324" lon="5.89001">
        <ele>243.2</ele>
        <time>2026-05-12T22:50:35Z</time>
      </trkpt>
      <trkpt lat="45.7334" lon="5.89015">
        <ele>242.2</ele>
        <time>2026-05-12T22:50:37Z</time>
      </trkpt>
      <trkpt lat="45.73348" lon="5.89023">
        <ele>241.2</ele>
        <time>2026-05-12T22:50:38Z</time>
      </trkpt>
      <trkpt lat="45.73365" lon="5.89039">
        <ele>240.2</ele>
        <time>2026-05-12T22:50:40Z</time>
      </trkpt>
      <trkpt lat="45.73384" lon="5.89058">
        <ele>238.8</ele>
        <time>2026-05-12T22:50:42Z</time>
      </trkpt>
      <trkpt lat="45.73393" lon="5.89067">
        <ele>237.8</ele>
        <time>2026-05-12T22:50:43Z</time>
      </trkpt>
      <trkpt lat="45.7341" lon="5.89083">
        <ele>236.6</ele>
        <time>2026-05-12T22:50:45Z</time>
      </trkpt>
      <trkpt lat="45.73427" lon="5.89099">
        <ele>235.2</ele>
        <time>2026-05-12T22:50:47Z</time>
      </trkpt>
      <trkpt lat="45.73442" lon="5.89113">
        <ele>233.8</ele>
        <time>2026-05-12T22:50:49Z</time>
      </trkpt>
      <trkpt lat="45.73451" lon="5.89123">
        <ele>233.2</ele>
        <time>2026-05-12T22:50:50Z</time>
      </trkpt>
      <trkpt lat="45.73458" lon="5.8913">
        <ele>232.8</ele>
        <time>2026-05-12T22:50:51Z</time>
      </trkpt>
      <trkpt lat="45.73477" lon="5.89154">
        <ele>231.6</ele>
        <time>2026-05-12T22:50:54Z</time>
      </trkpt>
      <trkpt lat="45.73483" lon="5.89162">
        <ele>231.4</ele>
        <time>2026-05-12T22:50:55Z</time>
      </trkpt>
      <trkpt lat="45.73514" lon="5.89207">
        <ele>230.6</ele>
        <time>2026-05-12T22:51:01Z</time>
      </trkpt>
      <trkpt lat="45.73543" lon="5.89247">
        <ele>230.2</ele>
        <time>2026-05-12T22:51:07Z</time>
      </trkpt>
      <trkpt lat="45.7357" lon="5.89275">
        <ele>230.2</ele>
        <time>2026-05-12T22:51:13Z</time>
      </trkpt>
      <trkpt lat="45.73598" lon="5.89296">
        <ele>230.2</ele>
        <time>2026-05-12T22:51:20Z</time>
      </trkpt>
      <trkpt lat="45.7361" lon="5.89302">
        <ele>230.2</ele>
        <time>2026-05-12T22:51:24Z</time>
      </trkpt>
      <trkpt lat="45.73613" lon="5.89309">
        <ele>230</ele>
        <time>2026-05-12T22:51:26Z</time>
      </trkpt>
      <trkpt lat="45.73614" lon="5.89313">
        <ele>230</ele>
        <time>2026-05-12T22:51:28Z</time>
      </trkpt>
      <trkpt lat="45.73614" lon="5.89314">
        <ele>230</ele>
        <time>2026-05-12T22:51:30Z</time>
      </trkpt>
      <trkpt lat="45.73615" lon="5.8931">
        <ele>230.2</ele>
        <time>2026-05-12T22:53:16Z</time>
      </trkpt>
      <trkpt lat="45.73617" lon="5.89307">
        <ele>230</ele>
        <time>2026-05-12T22:53:18Z</time>
      </trkpt>
      <trkpt lat="45.73622" lon="5.89304">
        <ele>230</ele>
        <time>2026-05-12T22:53:21Z</time>
      </trkpt>
      <trkpt lat="45.73637" lon="5.89299">
        <ele>230</ele>
        <time>2026-05-12T22:53:27Z</time>
      </trkpt>
      <trkpt lat="45.73654" lon="5.89298">
        <ele>229.8</ele>
        <time>2026-05-12T22:53:32Z</time>
      </trkpt>
      <trkpt lat="45.73671" lon="5.89297">
        <ele>229.8</ele>
        <time>2026-05-12T22:53:36Z</time>
      </trkpt>
      <trkpt lat="45.73681" lon="5.89294">
        <ele>230</ele>
        <time>2026-05-12T22:53:38Z</time>
      </trkpt>
      <trkpt lat="45.73685" lon="5.89292">
        <ele>230</ele>
        <time>2026-05-12T22:53:39Z</time>
      </trkpt>
      <trkpt lat="45.73696" lon="5.89289">
        <ele>230</ele>
        <time>2026-05-12T22:53:41Z</time>
      </trkpt>
      <trkpt lat="45.73706" lon="5.89287">
        <ele>229.8</ele>
        <time>2026-05-12T22:53:43Z</time>
      </trkpt>
      <trkpt lat="45.7374" lon="5.89277">
        <ele>230.2</ele>
        <time>2026-05-12T22:53:50Z</time>
      </trkpt>
      <trkpt lat="45.73749" lon="5.89275">
        <ele>230.8</ele>
        <time>2026-05-12T22:53:52Z</time>
      </trkpt>
      <trkpt lat="45.73759" lon="5.89272">
        <ele>231.2</ele>
        <time>2026-05-12T22:53:54Z</time>
      </trkpt>
      <trkpt lat="45.73774" lon="5.89266">
        <ele>231.8</ele>
        <time>2026-05-12T22:53:57Z</time>
      </trkpt>
      <trkpt lat="45.73779" lon="5.89264">
        <ele>232</ele>
        <time>2026-05-12T22:53:58Z</time>
      </trkpt>
      <trkpt lat="45.73807" lon="5.8925">
        <ele>233</ele>
        <time>2026-05-12T22:54:04Z</time>
      </trkpt>
      <trkpt lat="45.73817" lon="5.89245">
        <ele>233</ele>
        <time>2026-05-12T22:54:06Z</time>
      </trkpt>
      <trkpt lat="45.7384" lon="5.89234">
        <ele>233.8</ele>
        <time>2026-05-12T22:54:11Z</time>
      </trkpt>
      <trkpt lat="45.73863" lon="5.89223">
        <ele>234.6</ele>
        <time>2026-05-12T22:54:16Z</time>
      </trkpt>
      <trkpt lat="45.73877" lon="5.89216">
        <ele>235.2</ele>
        <time>2026-05-12T22:54:19Z</time>
      </trkpt>
      <trkpt lat="45.73886" lon="5.89213">
        <ele>235.4</ele>
        <time>2026-05-12T22:54:21Z</time>
      </trkpt>
      <trkpt lat="45.73896" lon="5.89209">
        <ele>235.6</ele>
        <time>2026-05-12T22:54:23Z</time>
      </trkpt>
      <trkpt lat="45.739" lon="5.89206">
        <ele>235.8</ele>
        <time>2026-05-12T22:54:24Z</time>
      </trkpt>
      <trkpt lat="45.73909" lon="5.89202">
        <ele>235.8</ele>
        <time>2026-05-12T22:54:26Z</time>
      </trkpt>
      <trkpt lat="45.73917" lon="5.89197">
        <ele>236</ele>
        <time>2026-05-12T22:54:28Z</time>
      </trkpt>
      <trkpt lat="45.73926" lon="5.89192">
        <ele>236.4</ele>
        <time>2026-05-12T22:54:30Z</time>
      </trkpt>
      <trkpt lat="45.73935" lon="5.89184">
        <ele>236.6</ele>
        <time>2026-05-12T22:54:32Z</time>
      </trkpt>
      <trkpt lat="45.73948" lon="5.89166">
        <ele>237.2</ele>
        <time>2026-05-12T22:54:35Z</time>
      </trkpt>
      <trkpt lat="45.73963" lon="5.8915">
        <ele>237.4</ele>
        <time>2026-05-12T22:54:38Z</time>
      </trkpt>
      <trkpt lat="45.73968" lon="5.89147">
        <ele>237.4</ele>
        <time>2026-05-12T22:54:39Z</time>
      </trkpt>
      <trkpt lat="45.73978" lon="5.89136">
        <ele>237.4</ele>
        <time>2026-05-12T22:54:41Z</time>
      </trkpt>
      <trkpt lat="45.73995" lon="5.89127">
        <ele>237.2</ele>
        <time>2026-05-12T22:54:44Z</time>
      </trkpt>
      <trkpt lat="45.74007" lon="5.89119">
        <ele>237</ele>
        <time>2026-05-12T22:54:46Z</time>
      </trkpt>
      <trkpt lat="45.74019" lon="5.89108">
        <ele>236.8</ele>
        <time>2026-05-12T22:54:48Z</time>
      </trkpt>
      <trkpt lat="45.74056" lon="5.89072">
        <ele>236</ele>
        <time>2026-05-12T22:54:54Z</time>
      </trkpt>
      <trkpt lat="45.74061" lon="5.89066">
        <ele>235.8</ele>
        <time>2026-05-12T22:54:55Z</time>
      </trkpt>
      <trkpt lat="45.74081" lon="5.89052">
        <ele>235.2</ele>
        <time>2026-05-12T22:54:58Z</time>
      </trkpt>
      <trkpt lat="45.74093" lon="5.89035">
        <ele>234.8</ele>
        <time>2026-05-12T22:55:00Z</time>
      </trkpt>
      <trkpt lat="45.741" lon="5.89025">
        <ele>234.6</ele>
        <time>2026-05-12T22:55:01Z</time>
      </trkpt>
      <trkpt lat="45.74107" lon="5.89018">
        <ele>234.2</ele>
        <time>2026-05-12T22:55:02Z</time>
      </trkpt>
      <trkpt lat="45.74121" lon="5.89005">
        <ele>233.8</ele>
        <time>2026-05-12T22:55:04Z</time>
      </trkpt>
      <trkpt lat="45.7413" lon="5.88998">
        <ele>233.6</ele>
        <time>2026-05-12T22:55:05Z</time>
      </trkpt>
      <trkpt lat="45.74163" lon="5.88967">
        <ele>232.2</ele>
        <time>2026-05-12T22:55:10Z</time>
      </trkpt>
      <trkpt lat="45.7417" lon="5.88963">
        <ele>232</ele>
        <time>2026-05-12T22:55:11Z</time>
      </trkpt>
      <trkpt lat="45.74206" lon="5.8893">
        <ele>231.6</ele>
        <time>2026-05-12T22:55:17Z</time>
      </trkpt>
      <trkpt lat="45.74247" lon="5.88894">
        <ele>231.4</ele>
        <time>2026-05-12T22:55:24Z</time>
      </trkpt>
      <trkpt lat="45.74265" lon="5.88882">
        <ele>231.4</ele>
        <time>2026-05-12T22:55:27Z</time>
      </trkpt>
      <trkpt lat="45.74285" lon="5.88872">
        <ele>231.4</ele>
        <time>2026-05-12T22:55:30Z</time>
      </trkpt>
      <trkpt lat="45.74326" lon="5.88838">
        <ele>231.2</ele>
        <time>2026-05-12T22:55:37Z</time>
      </trkpt>
      <trkpt lat="45.74332" lon="5.88831">
        <ele>231.2</ele>
        <time>2026-05-12T22:55:38Z</time>
      </trkpt>
      <trkpt lat="45.74341" lon="5.88816">
        <ele>231.2</ele>
        <time>2026-05-12T22:55:40Z</time>
      </trkpt>
      <trkpt lat="45.74345" lon="5.88808">
        <ele>231.2</ele>
        <time>2026-05-12T22:55:41Z</time>
      </trkpt>
      <trkpt lat="45.74369" lon="5.88761">
        <ele>231</ele>
        <time>2026-05-12T22:55:47Z</time>
      </trkpt>
      <trkpt lat="45.74373" lon="5.88754">
        <ele>231.2</ele>
        <time>2026-05-12T22:55:48Z</time>
      </trkpt>
      <trkpt lat="45.74383" lon="5.88741">
        <ele>231.2</ele>
        <time>2026-05-12T22:55:50Z</time>
      </trkpt>
      <trkpt lat="45.74394" lon="5.88731">
        <ele>231.2</ele>
        <time>2026-05-12T22:55:52Z</time>
      </trkpt>
      <trkpt lat="45.744" lon="5.88727">
        <ele>231.2</ele>
        <time>2026-05-12T22:55:53Z</time>
      </trkpt>
      <trkpt lat="45.74416" lon="5.88718">
        <ele>231.4</ele>
        <time>2026-05-12T22:55:56Z</time>
      </trkpt>
      <trkpt lat="45.74421" lon="5.88713">
        <ele>231.6</ele>
        <time>2026-05-12T22:55:57Z</time>
      </trkpt>
      <trkpt lat="45.74431" lon="5.88702">
        <ele>231.6</ele>
        <time>2026-05-12T22:55:59Z</time>
      </trkpt>
      <trkpt lat="45.74435" lon="5.88695">
        <ele>231.8</ele>
        <time>2026-05-12T22:56:00Z</time>
      </trkpt>
      <trkpt lat="45.74447" lon="5.88675">
        <ele>231.8</ele>
        <time>2026-05-12T22:56:03Z</time>
      </trkpt>
      <trkpt lat="45.74454" lon="5.88666">
        <ele>231.8</ele>
        <time>2026-05-12T22:56:05Z</time>
      </trkpt>
      <trkpt lat="45.74465" lon="5.88655">
        <ele>232.2</ele>
        <time>2026-05-12T22:56:07Z</time>
      </trkpt>
      <trkpt lat="45.74473" lon="5.88642">
        <ele>232.4</ele>
        <time>2026-05-12T22:56:09Z</time>
      </trkpt>
      <trkpt lat="45.74485" lon="5.88617">
        <ele>232.6</ele>
        <time>2026-05-12T22:56:12Z</time>
      </trkpt>
      <trkpt lat="45.74494" lon="5.88604">
        <ele>232.8</ele>
        <time>2026-05-12T22:56:14Z</time>
      </trkpt>
      <trkpt lat="45.74514" lon="5.88579">
        <ele>232.8</ele>
        <time>2026-05-12T22:56:18Z</time>
      </trkpt>
      <trkpt lat="45.74529" lon="5.88558">
        <ele>233</ele>
        <time>2026-05-12T22:56:21Z</time>
      </trkpt>
      <trkpt lat="45.7454" lon="5.88547">
        <ele>232.8</ele>
        <time>2026-05-12T22:56:23Z</time>
      </trkpt>
      <trkpt lat="45.74574" lon="5.88521">
        <ele>232.6</ele>
        <time>2026-05-12T22:56:29Z</time>
      </trkpt>
      <trkpt lat="45.74591" lon="5.88508">
        <ele>232.4</ele>
        <time>2026-05-12T22:56:32Z</time>
      </trkpt>
      <trkpt lat="45.74601" lon="5.88496">
        <ele>232.4</ele>
        <time>2026-05-12T22:56:34Z</time>
      </trkpt>
      <trkpt lat="45.74614" lon="5.88489">
        <ele>232.4</ele>
        <time>2026-05-12T22:56:36Z</time>
      </trkpt>
      <trkpt lat="45.74625" lon="5.88487">
        <ele>232.4</ele>
        <time>2026-05-12T22:56:38Z</time>
      </trkpt>
      <trkpt lat="45.74632" lon="5.88485">
        <ele>232.4</ele>
        <time>2026-05-12T22:56:39Z</time>
      </trkpt>
      <trkpt lat="45.74644" lon="5.88478">
        <ele>232.4</ele>
        <time>2026-05-12T22:56:41Z</time>
      </trkpt>
      <trkpt lat="45.74649" lon="5.88473">
        <ele>232.4</ele>
        <time>2026-05-12T22:56:42Z</time>
      </trkpt>
      <trkpt lat="45.74679" lon="5.88438">
        <ele>232.2</ele>
        <time>2026-05-12T22:56:48Z</time>
      </trkpt>
      <trkpt lat="45.74701" lon="5.88417">
        <ele>232</ele>
        <time>2026-05-12T22:56:52Z</time>
      </trkpt>
      <trkpt lat="45.74713" lon="5.88411">
        <ele>232</ele>
        <time>2026-05-12T22:56:54Z</time>
      </trkpt>
      <trkpt lat="45.74732" lon="5.88404">
        <ele>232</ele>
        <time>2026-05-12T22:56:57Z</time>
      </trkpt>
      <trkpt lat="45.7474" lon="5.884">
        <ele>232</ele>
        <time>2026-05-12T22:56:58Z</time>
      </trkpt>
      <trkpt lat="45.74751" lon="5.88395">
        <ele>232</ele>
        <time>2026-05-12T22:57:00Z</time>
      </trkpt>
      <trkpt lat="45.74763" lon="5.8839">
        <ele>231.8</ele>
        <time>2026-05-12T22:57:02Z</time>
      </trkpt>
      <trkpt lat="45.74776" lon="5.88382">
        <ele>231.8</ele>
        <time>2026-05-12T22:57:04Z</time>
      </trkpt>
      <trkpt lat="45.74799" lon="5.88365">
        <ele>231.8</ele>
        <time>2026-05-12T22:57:08Z</time>
      </trkpt>
      <trkpt lat="45.74811" lon="5.88356">
        <ele>231.6</ele>
        <time>2026-05-12T22:57:10Z</time>
      </trkpt>
      <trkpt lat="45.74823" lon="5.88349">
        <ele>231.6</ele>
        <time>2026-05-12T22:57:12Z</time>
      </trkpt>
      <trkpt lat="45.74865" lon="5.88315">
        <ele>231.2</ele>
        <time>2026-05-12T22:57:19Z</time>
      </trkpt>
      <trkpt lat="45.74883" lon="5.88302">
        <ele>231.2</ele>
        <time>2026-05-12T22:57:22Z</time>
      </trkpt>
      <trkpt lat="45.74895" lon="5.88293">
        <ele>231</ele>
        <time>2026-05-12T22:57:24Z</time>
      </trkpt>
      <trkpt lat="45.74942" lon="5.88256">
        <ele>230.6</ele>
        <time>2026-05-12T22:57:32Z</time>
      </trkpt>
      <trkpt lat="45.7499" lon="5.8822">
        <ele>230.6</ele>
        <time>2026-05-12T22:57:41Z</time>
      </trkpt>
      <trkpt lat="45.74996" lon="5.88216">
        <ele>230.6</ele>
        <time>2026-05-12T22:57:42Z</time>
      </trkpt>
      <trkpt lat="45.75044" lon="5.8818">
        <ele>230.6</ele>
        <time>2026-05-12T22:57:51Z</time>
      </trkpt>
      <trkpt lat="45.75094" lon="5.88148">
        <ele>230.8</ele>
        <time>2026-05-12T22:58:00Z</time>
      </trkpt>
      <trkpt lat="45.75134" lon="5.88123">
        <ele>230.4</ele>
        <time>2026-05-12T22:58:07Z</time>
      </trkpt>
      <trkpt lat="45.75184" lon="5.88093">
        <ele>230.4</ele>
        <time>2026-05-12T22:58:16Z</time>
      </trkpt>
      <trkpt lat="45.7519" lon="5.88089">
        <ele>230.4</ele>
        <time>2026-05-12T22:58:17Z</time>
      </trkpt>
      <trkpt lat="45.7524" lon="5.8806">
        <ele>230.6</ele>
        <time>2026-05-12T22:58:26Z</time>
      </trkpt>
      <trkpt lat="45.75245" lon="5.88056">
        <ele>230.6</ele>
        <time>2026-05-12T22:58:27Z</time>
      </trkpt>
      <trkpt lat="45.75299" lon="5.88021">
        <ele>230.4</ele>
        <time>2026-05-12T22:58:37Z</time>
      </trkpt>
      <trkpt lat="45.75305" lon="5.88018">
        <ele>230.4</ele>
        <time>2026-05-12T22:58:38Z</time>
      </trkpt>
      <trkpt lat="45.75314" lon="5.88014">
        <ele>230.4</ele>
        <time>2026-05-12T22:58:40Z</time>
      </trkpt>
      <trkpt lat="45.75324" lon="5.88015">
        <ele>230.6</ele>
        <time>2026-05-12T22:58:42Z</time>
      </trkpt>
      <trkpt lat="45.7534" lon="5.88014">
        <ele>230.8</ele>
        <time>2026-05-12T22:58:45Z</time>
      </trkpt>
      <trkpt lat="45.75351" lon="5.8801">
        <ele>230.8</ele>
        <time>2026-05-12T22:58:47Z</time>
      </trkpt>
      <trkpt lat="45.75405" lon="5.87988">
        <ele>230.8</ele>
        <time>2026-05-12T22:58:56Z</time>
      </trkpt>
      <trkpt lat="45.75429" lon="5.87978">
        <ele>230.6</ele>
        <time>2026-05-12T22:59:00Z</time>
      </trkpt>
      <trkpt lat="45.75435" lon="5.87974">
        <ele>230.6</ele>
        <time>2026-05-12T22:59:01Z</time>
      </trkpt>
      <trkpt lat="45.75462" lon="5.87949">
        <ele>230.6</ele>
        <time>2026-05-12T22:59:06Z</time>
      </trkpt>
      <trkpt lat="45.75467" lon="5.87943">
        <ele>230.6</ele>
        <time>2026-05-12T22:59:07Z</time>
      </trkpt>
      <trkpt lat="45.75494" lon="5.87906">
        <ele>230.6</ele>
        <time>2026-05-12T22:59:13Z</time>
      </trkpt>
      <trkpt lat="45.75498" lon="5.879">
        <ele>230.6</ele>
        <time>2026-05-12T22:59:14Z</time>
      </trkpt>
      <trkpt lat="45.75513" lon="5.87861">
        <ele>230.6</ele>
        <time>2026-05-12T22:59:19Z</time>
      </trkpt>
      <trkpt lat="45.75515" lon="5.87853">
        <ele>230.6</ele>
        <time>2026-05-12T22:59:20Z</time>
      </trkpt>
      <trkpt lat="45.75533" lon="5.87776">
        <ele>230.4</ele>
        <time>2026-05-12T22:59:29Z</time>
      </trkpt>
      <trkpt lat="45.75553" lon="5.8772">
        <ele>230</ele>
        <time>2026-05-12T22:59:36Z</time>
      </trkpt>
      <trkpt lat="45.75556" lon="5.87713">
        <ele>230</ele>
        <time>2026-05-12T22:59:37Z</time>
      </trkpt>
      <trkpt lat="45.75573" lon="5.87677">
        <ele>230</ele>
        <time>2026-05-12T22:59:42Z</time>
      </trkpt>
      <trkpt lat="45.75595" lon="5.87629">
        <ele>229.8</ele>
        <time>2026-05-12T22:59:49Z</time>
      </trkpt>
      <trkpt lat="45.75623" lon="5.87584">
        <ele>229.6</ele>
        <time>2026-05-12T22:59:56Z</time>
      </trkpt>
      <trkpt lat="45.75665" lon="5.87537">
        <ele>229.8</ele>
        <time>2026-05-12T23:00:05Z</time>
      </trkpt>
      <trkpt lat="45.75702" lon="5.87496">
        <ele>229.8</ele>
        <time>2026-05-12T23:00:13Z</time>
      </trkpt>
      <trkpt lat="45.75736" lon="5.87445">
        <ele>229.8</ele>
        <time>2026-05-12T23:00:21Z</time>
      </trkpt>
      <trkpt lat="45.75768" lon="5.87381">
        <ele>230</ele>
        <time>2026-05-12T23:00:30Z</time>
      </trkpt>
      <trkpt lat="45.75777" lon="5.87344">
        <ele>230</ele>
        <time>2026-05-12T23:00:35Z</time>
      </trkpt>
      <trkpt lat="45.75778" lon="5.87337">
        <ele>230</ele>
        <time>2026-05-12T23:00:36Z</time>
      </trkpt>
      <trkpt lat="45.75789" lon="5.87288">
        <ele>230.8</ele>
        <time>2026-05-12T23:00:42Z</time>
      </trkpt>
      <trkpt lat="45.75801" lon="5.87227">
        <ele>230.4</ele>
        <time>2026-05-12T23:00:49Z</time>
      </trkpt>
      <trkpt lat="45.75812" lon="5.87196">
        <ele>230</ele>
        <time>2026-05-12T23:00:53Z</time>
      </trkpt>
      <trkpt lat="45.75816" lon="5.87189">
        <ele>230.2</ele>
        <time>2026-05-12T23:00:54Z</time>
      </trkpt>
      <trkpt lat="45.75844" lon="5.87153">
        <ele>230</ele>
        <time>2026-05-12T23:01:00Z</time>
      </trkpt>
      <trkpt lat="45.75863" lon="5.87136">
        <ele>230</ele>
        <time>2026-05-12T23:01:04Z</time>
      </trkpt>
      <trkpt lat="45.75873" lon="5.87128">
        <ele>230</ele>
        <time>2026-05-12T23:01:06Z</time>
      </trkpt>
      <trkpt lat="45.75904" lon="5.87094">
        <ele>230.2</ele>
        <time>2026-05-12T23:01:13Z</time>
      </trkpt>
      <trkpt lat="45.75927" lon="5.87072">
        <ele>230.4</ele>
        <time>2026-05-12T23:01:18Z</time>
      </trkpt>
      <trkpt lat="45.75942" lon="5.87063">
        <ele>230.4</ele>
        <time>2026-05-12T23:01:21Z</time>
      </trkpt>
      <trkpt lat="45.75951" lon="5.87063">
        <ele>230.6</ele>
        <time>2026-05-12T23:01:23Z</time>
      </trkpt>
      <trkpt lat="45.75961" lon="5.87068">
        <ele>230.6</ele>
        <time>2026-05-12T23:01:25Z</time>
      </trkpt>
      <trkpt lat="45.75971" lon="5.87073">
        <ele>230.4</ele>
        <time>2026-05-12T23:01:27Z</time>
      </trkpt>
      <trkpt lat="45.75981" lon="5.87078">
        <ele>230.6</ele>
        <time>2026-05-12T23:01:29Z</time>
      </trkpt>
      <trkpt lat="45.75987" lon="5.87078">
        <ele>230.6</ele>
        <time>2026-05-12T23:01:30Z</time>
      </trkpt>
      <trkpt lat="45.75998" lon="5.87077">
        <ele>230.6</ele>
        <time>2026-05-12T23:01:32Z</time>
      </trkpt>
      <trkpt lat="45.76009" lon="5.87079">
        <ele>230.6</ele>
        <time>2026-05-12T23:01:34Z</time>
      </trkpt>
      <trkpt lat="45.76015" lon="5.8708">
        <ele>230.6</ele>
        <time>2026-05-12T23:01:35Z</time>
      </trkpt>
      <trkpt lat="45.76021" lon="5.8708">
        <ele>230.6</ele>
        <time>2026-05-12T23:01:36Z</time>
      </trkpt>
      <trkpt lat="45.76032" lon="5.87079">
        <ele>230.6</ele>
        <time>2026-05-12T23:01:38Z</time>
      </trkpt>
      <trkpt lat="45.76039" lon="5.87079">
        <ele>230.6</ele>
        <time>2026-05-12T23:01:39Z</time>
      </trkpt>
      <trkpt lat="45.76055" lon="5.87082">
        <ele>230.6</ele>
        <time>2026-05-12T23:01:42Z</time>
      </trkpt>
      <trkpt lat="45.7606" lon="5.87084">
        <ele>230.6</ele>
        <time>2026-05-12T23:01:43Z</time>
      </trkpt>
      <trkpt lat="45.76098" lon="5.8708">
        <ele>230.4</ele>
        <time>2026-05-12T23:01:49Z</time>
      </trkpt>
      <trkpt lat="45.76154" lon="5.87067">
        <ele>230.2</ele>
        <time>2026-05-12T23:01:58Z</time>
      </trkpt>
      <trkpt lat="45.76166" lon="5.87065">
        <ele>230.2</ele>
        <time>2026-05-12T23:02:00Z</time>
      </trkpt>
      <trkpt lat="45.7622" lon="5.87055">
        <ele>230.2</ele>
        <time>2026-05-12T23:02:09Z</time>
      </trkpt>
      <trkpt lat="45.76275" lon="5.87045">
        <ele>230.2</ele>
        <time>2026-05-12T23:02:18Z</time>
      </trkpt>
      <trkpt lat="45.76293" lon="5.87042">
        <ele>230.2</ele>
        <time>2026-05-12T23:02:21Z</time>
      </trkpt>
      <trkpt lat="45.76349" lon="5.87037">
        <ele>230.2</ele>
        <time>2026-05-12T23:02:30Z</time>
      </trkpt>
      <trkpt lat="45.76361" lon="5.87036">
        <ele>230.4</ele>
        <time>2026-05-12T23:02:32Z</time>
      </trkpt>
      <trkpt lat="45.76419" lon="5.87038">
        <ele>230</ele>
        <time>2026-05-12T23:02:41Z</time>
      </trkpt>
      <trkpt lat="45.76425" lon="5.87038">
        <ele>230</ele>
        <time>2026-05-12T23:02:42Z</time>
      </trkpt>
      <trkpt lat="45.76482" lon="5.87042">
        <ele>230</ele>
        <time>2026-05-12T23:02:51Z</time>
      </trkpt>
      <trkpt lat="45.76513" lon="5.87044">
        <ele>229.8</ele>
        <time>2026-05-12T23:02:56Z</time>
      </trkpt>
      <trkpt lat="45.76571" lon="5.87047">
        <ele>229.8</ele>
        <time>2026-05-12T23:03:05Z</time>
      </trkpt>
      <trkpt lat="45.76584" lon="5.87048">
        <ele>229.8</ele>
        <time>2026-05-12T23:03:07Z</time>
      </trkpt>
      <trkpt lat="45.76637" lon="5.87046">
        <ele>229.8</ele>
        <time>2026-05-12T23:03:15Z</time>
      </trkpt>
      <trkpt lat="45.76696" lon="5.87038">
        <ele>229.8</ele>
        <time>2026-05-12T23:03:24Z</time>
      </trkpt>
      <trkpt lat="45.76716" lon="5.87034">
        <ele>229.8</ele>
        <time>2026-05-12T23:03:27Z</time>
      </trkpt>
      <trkpt lat="45.76769" lon="5.87019">
        <ele>229.6</ele>
        <time>2026-05-12T23:03:35Z</time>
      </trkpt>
      <trkpt lat="45.76824" lon="5.86996">
        <ele>229.8</ele>
        <time>2026-05-12T23:03:44Z</time>
      </trkpt>
      <trkpt lat="45.7688" lon="5.86972">
        <ele>229.8</ele>
        <time>2026-05-12T23:03:53Z</time>
      </trkpt>
      <trkpt lat="45.76886" lon="5.86969">
        <ele>229.8</ele>
        <time>2026-05-12T23:03:54Z</time>
      </trkpt>
      <trkpt lat="45.76941" lon="5.86943">
        <ele>229.8</ele>
        <time>2026-05-12T23:04:03Z</time>
      </trkpt>
      <trkpt lat="45.76947" lon="5.8694">
        <ele>229.8</ele>
        <time>2026-05-12T23:04:04Z</time>
      </trkpt>
      <trkpt lat="45.77003" lon="5.86912">
        <ele>229.6</ele>
        <time>2026-05-12T23:04:13Z</time>
      </trkpt>
      <trkpt lat="45.77009" lon="5.8691">
        <ele>229.6</ele>
        <time>2026-05-12T23:04:14Z</time>
      </trkpt>
      <trkpt lat="45.77042" lon="5.869">
        <ele>229.8</ele>
        <time>2026-05-12T23:04:19Z</time>
      </trkpt>
      <trkpt lat="45.77048" lon="5.86896">
        <ele>229.8</ele>
        <time>2026-05-12T23:04:20Z</time>
      </trkpt>
      <trkpt lat="45.77058" lon="5.86891">
        <ele>229.8</ele>
        <time>2026-05-12T23:04:22Z</time>
      </trkpt>
      <trkpt lat="45.77074" lon="5.86875">
        <ele>229.6</ele>
        <time>2026-05-12T23:04:25Z</time>
      </trkpt>
      <trkpt lat="45.77084" lon="5.86865">
        <ele>229.6</ele>
        <time>2026-05-12T23:04:27Z</time>
      </trkpt>
      <trkpt lat="45.77089" lon="5.86861">
        <ele>229.6</ele>
        <time>2026-05-12T23:04:28Z</time>
      </trkpt>
      <trkpt lat="45.77127" lon="5.86833">
        <ele>230</ele>
        <time>2026-05-12T23:04:35Z</time>
      </trkpt>
      <trkpt lat="45.77144" lon="5.86823">
        <ele>230</ele>
        <time>2026-05-12T23:04:38Z</time>
      </trkpt>
      <trkpt lat="45.77155" lon="5.86816">
        <ele>230.2</ele>
        <time>2026-05-12T23:04:40Z</time>
      </trkpt>
      <trkpt lat="45.77196" lon="5.86792">
        <ele>230</ele>
        <time>2026-05-12T23:04:47Z</time>
      </trkpt>
      <trkpt lat="45.77214" lon="5.86783">
        <ele>230</ele>
        <time>2026-05-12T23:04:50Z</time>
      </trkpt>
      <trkpt lat="45.77226" lon="5.8678">
        <ele>230</ele>
        <time>2026-05-12T23:04:52Z</time>
      </trkpt>
      <trkpt lat="45.77256" lon="5.86769">
        <ele>230.2</ele>
        <time>2026-05-12T23:04:57Z</time>
      </trkpt>
      <trkpt lat="45.77262" lon="5.86766">
        <ele>230.2</ele>
        <time>2026-05-12T23:04:58Z</time>
      </trkpt>
      <trkpt lat="45.77274" lon="5.86763">
        <ele>230.2</ele>
        <time>2026-05-12T23:05:00Z</time>
      </trkpt>
      <trkpt lat="45.77292" lon="5.86758">
        <ele>230.4</ele>
        <time>2026-05-12T23:05:03Z</time>
      </trkpt>
      <trkpt lat="45.77304" lon="5.86754">
        <ele>230.4</ele>
        <time>2026-05-12T23:05:05Z</time>
      </trkpt>
      <trkpt lat="45.77317" lon="5.86749">
        <ele>230.2</ele>
        <time>2026-05-12T23:05:07Z</time>
      </trkpt>
      <trkpt lat="45.77338" lon="5.86739">
        <ele>230.4</ele>
        <time>2026-05-12T23:05:11Z</time>
      </trkpt>
      <trkpt lat="45.77344" lon="5.86737">
        <ele>230.4</ele>
        <time>2026-05-12T23:05:12Z</time>
      </trkpt>
      <trkpt lat="45.77357" lon="5.86731">
        <ele>230.4</ele>
        <time>2026-05-12T23:05:14Z</time>
      </trkpt>
      <trkpt lat="45.77369" lon="5.86727">
        <ele>230.4</ele>
        <time>2026-05-12T23:05:16Z</time>
      </trkpt>
      <trkpt lat="45.77374" lon="5.86724">
        <ele>230.4</ele>
        <time>2026-05-12T23:05:17Z</time>
      </trkpt>
      <trkpt lat="45.77385" lon="5.86717">
        <ele>230.2</ele>
        <time>2026-05-12T23:05:19Z</time>
      </trkpt>
      <trkpt lat="45.77403" lon="5.86707">
        <ele>230.2</ele>
        <time>2026-05-12T23:05:22Z</time>
      </trkpt>
      <trkpt lat="45.77421" lon="5.86695">
        <ele>230.2</ele>
        <time>2026-05-12T23:05:25Z</time>
      </trkpt>
      <trkpt lat="45.77459" lon="5.86665">
        <ele>230.2</ele>
        <time>2026-05-12T23:05:32Z</time>
      </trkpt>
      <trkpt lat="45.77513" lon="5.86635">
        <ele>230</ele>
        <time>2026-05-12T23:05:41Z</time>
      </trkpt>
      <trkpt lat="45.77567" lon="5.86607">
        <ele>229.6</ele>
        <time>2026-05-12T23:05:50Z</time>
      </trkpt>
      <trkpt lat="45.77578" lon="5.86602">
        <ele>229.6</ele>
        <time>2026-05-12T23:05:52Z</time>
      </trkpt>
      <trkpt lat="45.77634" lon="5.86574">
        <ele>229.8</ele>
        <time>2026-05-12T23:06:01Z</time>
      </trkpt>
      <trkpt lat="45.7764" lon="5.86571">
        <ele>229.8</ele>
        <time>2026-05-12T23:06:02Z</time>
      </trkpt>
      <trkpt lat="45.77692" lon="5.86549">
        <ele>229.8</ele>
        <time>2026-05-12T23:06:10Z</time>
      </trkpt>
      <trkpt lat="45.77723" lon="5.86535">
        <ele>229.8</ele>
        <time>2026-05-12T23:06:15Z</time>
      </trkpt>
      <trkpt lat="45.77778" lon="5.86511">
        <ele>229.8</ele>
        <time>2026-05-12T23:06:24Z</time>
      </trkpt>
      <trkpt lat="45.77796" lon="5.86503">
        <ele>229.8</ele>
        <time>2026-05-12T23:06:27Z</time>
      </trkpt>
      <trkpt lat="45.7785" lon="5.86483">
        <ele>230</ele>
        <time>2026-05-12T23:06:36Z</time>
      </trkpt>
      <trkpt lat="45.7788" lon="5.86472">
        <ele>230</ele>
        <time>2026-05-12T23:06:41Z</time>
      </trkpt>
      <trkpt lat="45.77892" lon="5.86468">
        <ele>230</ele>
        <time>2026-05-12T23:06:43Z</time>
      </trkpt>
      <trkpt lat="45.77901" lon="5.86471">
        <ele>230.2</ele>
        <time>2026-05-12T23:06:45Z</time>
      </trkpt>
      <trkpt lat="45.77906" lon="5.86473">
        <ele>230.2</ele>
        <time>2026-05-12T23:06:46Z</time>
      </trkpt>
      <trkpt lat="45.77928" lon="5.86485">
        <ele>230.4</ele>
        <time>2026-05-12T23:06:50Z</time>
      </trkpt>
      <trkpt lat="45.77953" lon="5.86484">
        <ele>230.8</ele>
        <time>2026-05-12T23:06:54Z</time>
      </trkpt>
      <trkpt lat="45.78003" lon="5.8647">
        <ele>230.4</ele>
        <time>2026-05-12T23:07:02Z</time>
      </trkpt>
      <trkpt lat="45.78054" lon="5.86455">
        <ele>229.8</ele>
        <time>2026-05-12T23:07:10Z</time>
      </trkpt>
      <trkpt lat="45.7806" lon="5.86454">
        <ele>230</ele>
        <time>2026-05-12T23:07:11Z</time>
      </trkpt>
      <trkpt lat="45.78083" lon="5.86445">
        <ele>230</ele>
        <time>2026-05-12T23:07:15Z</time>
      </trkpt>
      <trkpt lat="45.78119" lon="5.86424">
        <ele>230.6</ele>
        <time>2026-05-12T23:07:22Z</time>
      </trkpt>
      <trkpt lat="45.78138" lon="5.86414">
        <ele>231.4</ele>
        <time>2026-05-12T23:07:26Z</time>
      </trkpt>
      <trkpt lat="45.78148" lon="5.86407">
        <ele>231.8</ele>
        <time>2026-05-12T23:07:28Z</time>
      </trkpt>
      <trkpt lat="45.78155" lon="5.86403">
        <ele>232.4</ele>
        <time>2026-05-12T23:07:30Z</time>
      </trkpt>
      <trkpt lat="45.78168" lon="5.86399">
        <ele>232.8</ele>
        <time>2026-05-12T23:07:33Z</time>
      </trkpt>
      <trkpt lat="45.78173" lon="5.86397">
        <ele>233</ele>
        <time>2026-05-12T23:07:34Z</time>
      </trkpt>
      <trkpt lat="45.78191" lon="5.8639">
        <ele>233.4</ele>
        <time>2026-05-12T23:07:38Z</time>
      </trkpt>
      <trkpt lat="45.78234" lon="5.8637">
        <ele>234.2</ele>
        <time>2026-05-12T23:07:47Z</time>
      </trkpt>
      <trkpt lat="45.78254" lon="5.86367">
        <ele>234.6</ele>
        <time>2026-05-12T23:07:51Z</time>
      </trkpt>
      <trkpt lat="45.78273" lon="5.86363">
        <ele>234.8</ele>
        <time>2026-05-12T23:07:55Z</time>
      </trkpt>
      <trkpt lat="45.78297" lon="5.86361">
        <ele>235.4</ele>
        <time>2026-05-12T23:08:00Z</time>
      </trkpt>
      <trkpt lat="45.78307" lon="5.86358">
        <ele>235.6</ele>
        <time>2026-05-12T23:08:02Z</time>
      </trkpt>
      <trkpt lat="45.78313" lon="5.86356">
        <ele>235.6</ele>
        <time>2026-05-12T23:08:03Z</time>
      </trkpt>
      <trkpt lat="45.78339" lon="5.8634">
        <ele>236.2</ele>
        <time>2026-05-12T23:08:09Z</time>
      </trkpt>
      <trkpt lat="45.78357" lon="5.86326">
        <ele>236.6</ele>
        <time>2026-05-12T23:08:13Z</time>
      </trkpt>
      <trkpt lat="45.7837" lon="5.86314">
        <ele>236.6</ele>
        <time>2026-05-12T23:08:16Z</time>
      </trkpt>
      <trkpt lat="45.78378" lon="5.86308">
        <ele>236.8</ele>
        <time>2026-05-12T23:08:18Z</time>
      </trkpt>
      <trkpt lat="45.78401" lon="5.86289">
        <ele>237.2</ele>
        <time>2026-05-12T23:08:24Z</time>
      </trkpt>
      <trkpt lat="45.78413" lon="5.86279">
        <ele>237.6</ele>
        <time>2026-05-12T23:08:27Z</time>
      </trkpt>
      <trkpt lat="45.78423" lon="5.86269">
        <ele>237.8</ele>
        <time>2026-05-12T23:08:30Z</time>
      </trkpt>
      <trkpt lat="45.78433" lon="5.86261">
        <ele>238.6</ele>
        <time>2026-05-12T23:08:33Z</time>
      </trkpt>
      <trkpt lat="45.7845" lon="5.86248">
        <ele>239.4</ele>
        <time>2026-05-12T23:08:38Z</time>
      </trkpt>
      <trkpt lat="45.78457" lon="5.86242">
        <ele>239.8</ele>
        <time>2026-05-12T23:08:40Z</time>
      </trkpt>
      <trkpt lat="45.78471" lon="5.86235">
        <ele>240.8</ele>
        <time>2026-05-12T23:08:44Z</time>
      </trkpt>
      <trkpt lat="45.78475" lon="5.86232">
        <ele>241</ele>
        <time>2026-05-12T23:08:45Z</time>
      </trkpt>
      <trkpt lat="45.78489" lon="5.86223">
        <ele>241.8</ele>
        <time>2026-05-12T23:08:49Z</time>
      </trkpt>
      <trkpt lat="45.78499" lon="5.86219">
        <ele>242.2</ele>
        <time>2026-05-12T23:08:51Z</time>
      </trkpt>
      <trkpt lat="45.78522" lon="5.86206">
        <ele>243.2</ele>
        <time>2026-05-12T23:08:57Z</time>
      </trkpt>
      <trkpt lat="45.78534" lon="5.86201">
        <ele>244.4</ele>
        <time>2026-05-12T23:09:01Z</time>
      </trkpt>
      <trkpt lat="45.78546" lon="5.86195">
        <ele>245</ele>
        <time>2026-05-12T23:09:05Z</time>
      </trkpt>
      <trkpt lat="45.78552" lon="5.86191">
        <ele>245.4</ele>
        <time>2026-05-12T23:09:07Z</time>
      </trkpt>
      <trkpt lat="45.78569" lon="5.86181">
        <ele>246.2</ele>
        <time>2026-05-12T23:09:12Z</time>
      </trkpt>
      <trkpt lat="45.78572" lon="5.86179">
        <ele>246.6</ele>
        <time>2026-05-12T23:09:13Z</time>
      </trkpt>
      <trkpt lat="45.7859" lon="5.86167">
        <ele>247.6</ele>
        <time>2026-05-12T23:09:19Z</time>
      </trkpt>
      <trkpt lat="45.78596" lon="5.86163">
        <ele>248</ele>
        <time>2026-05-12T23:09:21Z</time>
      </trkpt>
      <trkpt lat="45.78611" lon="5.86154">
        <ele>248.8</ele>
        <time>2026-05-12T23:09:26Z</time>
      </trkpt>
      <trkpt lat="45.78631" lon="5.86142">
        <ele>250</ele>
        <time>2026-05-12T23:09:33Z</time>
      </trkpt>
      <trkpt lat="45.78645" lon="5.86133">
        <ele>251.2</ele>
        <time>2026-05-12T23:09:38Z</time>
      </trkpt>
      <trkpt lat="45.78655" lon="5.86128">
        <ele>251.6</ele>
        <time>2026-05-12T23:09:41Z</time>
      </trkpt>
      <trkpt lat="45.78666" lon="5.86123">
        <ele>252.4</ele>
        <time>2026-05-12T23:09:45Z</time>
      </trkpt>
      <trkpt lat="45.78677" lon="5.86121">
        <ele>253</ele>
        <time>2026-05-12T23:09:49Z</time>
      </trkpt>
      <trkpt lat="45.78689" lon="5.86117">
        <ele>253.4</ele>
        <time>2026-05-12T23:09:53Z</time>
      </trkpt>
      <trkpt lat="45.78696" lon="5.86116">
        <ele>254</ele>
        <time>2026-05-12T23:09:55Z</time>
      </trkpt>
      <trkpt lat="45.78708" lon="5.86113">
        <ele>254.6</ele>
        <time>2026-05-12T23:09:59Z</time>
      </trkpt>
      <trkpt lat="45.78718" lon="5.8611">
        <ele>255</ele>
        <time>2026-05-12T23:10:02Z</time>
      </trkpt>
      <trkpt lat="45.78731" lon="5.86108">
        <ele>255.6</ele>
        <time>2026-05-12T23:10:06Z</time>
      </trkpt>
      <trkpt lat="45.78741" lon="5.86106">
        <ele>256.2</ele>
        <time>2026-05-12T23:10:09Z</time>
      </trkpt>
      <trkpt lat="45.78751" lon="5.86105">
        <ele>256.8</ele>
        <time>2026-05-12T23:10:12Z</time>
      </trkpt>
      <trkpt lat="45.78772" lon="5.86102">
        <ele>257.6</ele>
        <time>2026-05-12T23:10:18Z</time>
      </trkpt>
      <trkpt lat="45.78782" lon="5.86101">
        <ele>257.8</ele>
        <time>2026-05-12T23:10:21Z</time>
      </trkpt>
      <trkpt lat="45.78807" lon="5.86097">
        <ele>258.6</ele>
        <time>2026-05-12T23:10:28Z</time>
      </trkpt>
      <trkpt lat="45.78814" lon="5.86096">
        <ele>258.8</ele>
        <time>2026-05-12T23:10:30Z</time>
      </trkpt>
      <trkpt lat="45.78835" lon="5.86093">
        <ele>259.4</ele>
        <time>2026-05-12T23:10:36Z</time>
      </trkpt>
      <trkpt lat="45.7886" lon="5.8609">
        <ele>259.8</ele>
        <time>2026-05-12T23:10:43Z</time>
      </trkpt>
      <trkpt lat="45.78882" lon="5.86086">
        <ele>260.4</ele>
        <time>2026-05-12T23:10:49Z</time>
      </trkpt>
      <trkpt lat="45.78892" lon="5.86084">
        <ele>261</ele>
        <time>2026-05-12T23:10:52Z</time>
      </trkpt>
      <trkpt lat="45.78927" lon="5.86079">
        <ele>262</ele>
        <time>2026-05-12T23:11:02Z</time>
      </trkpt>
      <trkpt lat="45.78934" lon="5.86078">
        <ele>262.2</ele>
        <time>2026-05-12T23:11:04Z</time>
      </trkpt>
      <trkpt lat="45.78952" lon="5.86076">
        <ele>263.4</ele>
        <time>2026-05-12T23:11:09Z</time>
      </trkpt>
      <trkpt lat="45.78962" lon="5.86074">
        <ele>264.4</ele>
        <time>2026-05-12T23:11:12Z</time>
      </trkpt>
      <trkpt lat="45.78965" lon="5.86073">
        <ele>264.6</ele>
        <time>2026-05-12T23:11:13Z</time>
      </trkpt>
      <trkpt lat="45.78987" lon="5.86069">
        <ele>265.8</ele>
        <time>2026-05-12T23:11:19Z</time>
      </trkpt>
      <trkpt lat="45.79009" lon="5.86066">
        <ele>267</ele>
        <time>2026-05-12T23:11:25Z</time>
      </trkpt>
      <trkpt lat="45.79041" lon="5.86062">
        <ele>268.2</ele>
        <time>2026-05-12T23:11:33Z</time>
      </trkpt>
      <trkpt lat="45.79045" lon="5.86061">
        <ele>268.2</ele>
        <time>2026-05-12T23:11:34Z</time>
      </trkpt>
      <trkpt lat="45.79054" lon="5.8606">
        <ele>268.4</ele>
        <time>2026-05-12T23:11:36Z</time>
      </trkpt>
      <trkpt lat="45.79075" lon="5.86059">
        <ele>268.8</ele>
        <time>2026-05-12T23:11:41Z</time>
      </trkpt>
      <trkpt lat="45.7908" lon="5.86058">
        <ele>268.8</ele>
        <time>2026-05-12T23:11:42Z</time>
      </trkpt>
      <trkpt lat="45.79097" lon="5.86055">
        <ele>269.2</ele>
        <time>2026-05-12T23:11:46Z</time>
      </trkpt>
      <trkpt lat="45.79106" lon="5.86054">
        <ele>269.2</ele>
        <time>2026-05-12T23:11:48Z</time>
      </trkpt>
      <trkpt lat="45.79148" lon="5.86047">
        <ele>269.8</ele>
        <time>2026-05-12T23:11:58Z</time>
      </trkpt>
      <trkpt lat="45.79184" lon="5.86041">
        <ele>270.2</ele>
        <time>2026-05-12T23:12:06Z</time>
      </trkpt>
      <trkpt lat="45.79188" lon="5.86041">
        <ele>270.2</ele>
        <time>2026-05-12T23:12:07Z</time>
      </trkpt>
      <trkpt lat="45.79222" lon="5.86035">
        <ele>271</ele>
        <time>2026-05-12T23:12:15Z</time>
      </trkpt>
      <trkpt lat="45.79226" lon="5.86034">
        <ele>271</ele>
        <time>2026-05-12T23:12:16Z</time>
      </trkpt>
      <trkpt lat="45.7923" lon="5.86033">
        <ele>271.4</ele>
        <time>2026-05-12T23:12:17Z</time>
      </trkpt>
      <trkpt lat="45.79245" lon="5.86031">
        <ele>272.2</ele>
        <time>2026-05-12T23:12:21Z</time>
      </trkpt>
      <trkpt lat="45.79249" lon="5.86031">
        <ele>272.6</ele>
        <time>2026-05-12T23:12:22Z</time>
      </trkpt>
      <trkpt lat="45.79267" lon="5.86029">
        <ele>273.2</ele>
        <time>2026-05-12T23:12:27Z</time>
      </trkpt>
      <trkpt lat="45.7927" lon="5.86028">
        <ele>273.8</ele>
        <time>2026-05-12T23:12:28Z</time>
      </trkpt>
      <trkpt lat="45.79291" lon="5.86025">
        <ele>274.6</ele>
        <time>2026-05-12T23:12:34Z</time>
      </trkpt>
      <trkpt lat="45.79294" lon="5.86024">
        <ele>274.8</ele>
        <time>2026-05-12T23:12:35Z</time>
      </trkpt>
      <trkpt lat="45.79312" lon="5.86022">
        <ele>275.8</ele>
        <time>2026-05-12T23:12:40Z</time>
      </trkpt>
      <trkpt lat="45.79323" lon="5.86019">
        <ele>276.4</ele>
        <time>2026-05-12T23:12:43Z</time>
      </trkpt>
      <trkpt lat="45.7933" lon="5.86018">
        <ele>277</ele>
        <time>2026-05-12T23:12:45Z</time>
      </trkpt>
      <trkpt lat="45.79347" lon="5.86014">
        <ele>277.4</ele>
        <time>2026-05-12T23:12:49Z</time>
      </trkpt>
      <trkpt lat="45.79375" lon="5.86009">
        <ele>278</ele>
        <time>2026-05-12T23:12:56Z</time>
      </trkpt>
      <trkpt lat="45.79417" lon="5.86004">
        <ele>278.4</ele>
        <time>2026-05-12T23:13:05Z</time>
      </trkpt>
      <trkpt lat="45.79455" lon="5.85997">
        <ele>279</ele>
        <time>2026-05-12T23:13:13Z</time>
      </trkpt>
      <trkpt lat="45.79497" lon="5.85987">
        <ele>279.6</ele>
        <time>2026-05-12T23:13:21Z</time>
      </trkpt>
      <trkpt lat="45.79542" lon="5.85974">
        <ele>279.4</ele>
        <time>2026-05-12T23:13:29Z</time>
      </trkpt>
      <trkpt lat="45.79581" lon="5.85962">
        <ele>279</ele>
        <time>2026-05-12T23:13:35Z</time>
      </trkpt>
      <trkpt lat="45.79609" lon="5.85952">
        <ele>278</ele>
        <time>2026-05-12T23:13:39Z</time>
      </trkpt>
      <trkpt lat="45.79634" lon="5.85944">
        <ele>277.2</ele>
        <time>2026-05-12T23:13:42Z</time>
      </trkpt>
      <trkpt lat="45.7965" lon="5.85939">
        <ele>276.8</ele>
        <time>2026-05-12T23:13:44Z</time>
      </trkpt>
      <trkpt lat="45.79676" lon="5.85933">
        <ele>275.6</ele>
        <time>2026-05-12T23:13:47Z</time>
      </trkpt>
      <trkpt lat="45.79685" lon="5.8593">
        <ele>275</ele>
        <time>2026-05-12T23:13:48Z</time>
      </trkpt>
      <trkpt lat="45.79702" lon="5.85926">
        <ele>274.2</ele>
        <time>2026-05-12T23:13:50Z</time>
      </trkpt>
      <trkpt lat="45.7973" lon="5.8592">
        <ele>273.2</ele>
        <time>2026-05-12T23:13:53Z</time>
      </trkpt>
      <trkpt lat="45.79748" lon="5.85916">
        <ele>272</ele>
        <time>2026-05-12T23:13:55Z</time>
      </trkpt>
      <trkpt lat="45.79757" lon="5.85914">
        <ele>271.4</ele>
        <time>2026-05-12T23:13:56Z</time>
      </trkpt>
      <trkpt lat="45.79774" lon="5.85913">
        <ele>270.4</ele>
        <time>2026-05-12T23:13:58Z</time>
      </trkpt>
      <trkpt lat="45.79791" lon="5.85914">
        <ele>269.2</ele>
        <time>2026-05-12T23:14:00Z</time>
      </trkpt>
      <trkpt lat="45.79808" lon="5.85911">
        <ele>268.4</ele>
        <time>2026-05-12T23:14:02Z</time>
      </trkpt>
      <trkpt lat="45.79817" lon="5.85907">
        <ele>267.8</ele>
        <time>2026-05-12T23:14:03Z</time>
      </trkpt>
      <trkpt lat="45.79824" lon="5.85903">
        <ele>267.4</ele>
        <time>2026-05-12T23:14:04Z</time>
      </trkpt>
      <trkpt lat="45.7984" lon="5.85893">
        <ele>266.2</ele>
        <time>2026-05-12T23:14:06Z</time>
      </trkpt>
      <trkpt lat="45.79872" lon="5.85875">
        <ele>265</ele>
        <time>2026-05-12T23:14:10Z</time>
      </trkpt>
      <trkpt lat="45.79888" lon="5.85864">
        <ele>264.2</ele>
        <time>2026-05-12T23:14:12Z</time>
      </trkpt>
      <trkpt lat="45.79896" lon="5.85858">
        <ele>263.4</ele>
        <time>2026-05-12T23:14:13Z</time>
      </trkpt>
      <trkpt lat="45.79919" lon="5.85842">
        <ele>262.4</ele>
        <time>2026-05-12T23:14:16Z</time>
      </trkpt>
      <trkpt lat="45.79935" lon="5.85833">
        <ele>261.4</ele>
        <time>2026-05-12T23:14:18Z</time>
      </trkpt>
      <trkpt lat="45.79969" lon="5.85814">
        <ele>259.8</ele>
        <time>2026-05-12T23:14:22Z</time>
      </trkpt>
      <trkpt lat="45.79994" lon="5.85798">
        <ele>258.4</ele>
        <time>2026-05-12T23:14:25Z</time>
      </trkpt>
      <trkpt lat="45.80011" lon="5.85788">
        <ele>257.8</ele>
        <time>2026-05-12T23:14:27Z</time>
      </trkpt>
      <trkpt lat="45.8002" lon="5.85782">
        <ele>257.2</ele>
        <time>2026-05-12T23:14:28Z</time>
      </trkpt>
      <trkpt lat="45.80055" lon="5.85761">
        <ele>255.8</ele>
        <time>2026-05-12T23:14:32Z</time>
      </trkpt>
      <trkpt lat="45.80073" lon="5.85751">
        <ele>254.6</ele>
        <time>2026-05-12T23:14:34Z</time>
      </trkpt>
      <trkpt lat="45.80082" lon="5.85745">
        <ele>253.4</ele>
        <time>2026-05-12T23:14:35Z</time>
      </trkpt>
      <trkpt lat="45.8011" lon="5.85729">
        <ele>252</ele>
        <time>2026-05-12T23:14:38Z</time>
      </trkpt>
      <trkpt lat="45.80138" lon="5.85711">
        <ele>250.8</ele>
        <time>2026-05-12T23:14:41Z</time>
      </trkpt>
      <trkpt lat="45.80156" lon="5.85702">
        <ele>250</ele>
        <time>2026-05-12T23:14:43Z</time>
      </trkpt>
      <trkpt lat="45.80174" lon="5.85695">
        <ele>248.8</ele>
        <time>2026-05-12T23:14:45Z</time>
      </trkpt>
      <trkpt lat="45.80192" lon="5.85693">
        <ele>247.8</ele>
        <time>2026-05-12T23:14:47Z</time>
      </trkpt>
      <trkpt lat="45.80201" lon="5.85691">
        <ele>247.4</ele>
        <time>2026-05-12T23:14:48Z</time>
      </trkpt>
      <trkpt lat="45.80226" lon="5.85684">
        <ele>246.4</ele>
        <time>2026-05-12T23:14:51Z</time>
      </trkpt>
      <trkpt lat="45.80234" lon="5.85679">
        <ele>246</ele>
        <time>2026-05-12T23:14:52Z</time>
      </trkpt>
      <trkpt lat="45.80248" lon="5.85668">
        <ele>245.6</ele>
        <time>2026-05-12T23:14:54Z</time>
      </trkpt>
      <trkpt lat="45.80261" lon="5.85652">
        <ele>245.4</ele>
        <time>2026-05-12T23:14:56Z</time>
      </trkpt>
      <trkpt lat="45.80268" lon="5.85644">
        <ele>245.2</ele>
        <time>2026-05-12T23:14:57Z</time>
      </trkpt>
      <trkpt lat="45.80287" lon="5.85618">
        <ele>244.2</ele>
        <time>2026-05-12T23:15:00Z</time>
      </trkpt>
      <trkpt lat="45.80314" lon="5.85585">
        <ele>243</ele>
        <time>2026-05-12T23:15:04Z</time>
      </trkpt>
      <trkpt lat="45.80343" lon="5.85554">
        <ele>241.8</ele>
        <time>2026-05-12T23:15:08Z</time>
      </trkpt>
      <trkpt lat="45.80359" lon="5.8554">
        <ele>240.8</ele>
        <time>2026-05-12T23:15:10Z</time>
      </trkpt>
      <trkpt lat="45.80365" lon="5.85534">
        <ele>240.6</ele>
        <time>2026-05-12T23:15:11Z</time>
      </trkpt>
      <trkpt lat="45.80392" lon="5.85515">
        <ele>239.4</ele>
        <time>2026-05-12T23:15:14Z</time>
      </trkpt>
      <trkpt lat="45.80417" lon="5.855">
        <ele>238</ele>
        <time>2026-05-12T23:15:17Z</time>
      </trkpt>
      <trkpt lat="45.8045" lon="5.85483">
        <ele>237</ele>
        <time>2026-05-12T23:15:21Z</time>
      </trkpt>
      <trkpt lat="45.80481" lon="5.8547">
        <ele>236</ele>
        <time>2026-05-12T23:15:25Z</time>
      </trkpt>
      <trkpt lat="45.80489" lon="5.85467">
        <ele>235.8</ele>
        <time>2026-05-12T23:15:26Z</time>
      </trkpt>
      <trkpt lat="45.80531" lon="5.85449">
        <ele>235.4</ele>
        <time>2026-05-12T23:15:32Z</time>
      </trkpt>
      <trkpt lat="45.80569" lon="5.85424">
        <ele>235.4</ele>
        <time>2026-05-12T23:15:38Z</time>
      </trkpt>
      <trkpt lat="45.80601" lon="5.85391">
        <ele>235.4</ele>
        <time>2026-05-12T23:15:44Z</time>
      </trkpt>
      <trkpt lat="45.80636" lon="5.85364">
        <ele>235.2</ele>
        <time>2026-05-12T23:15:50Z</time>
      </trkpt>
      <trkpt lat="45.80673" lon="5.85353">
        <ele>235.4</ele>
        <time>2026-05-12T23:15:56Z</time>
      </trkpt>
      <trkpt lat="45.80697" lon="5.85349">
        <ele>235.6</ele>
        <time>2026-05-12T23:16:00Z</time>
      </trkpt>
      <trkpt lat="45.80721" lon="5.85344">
        <ele>235.6</ele>
        <time>2026-05-12T23:16:04Z</time>
      </trkpt>
      <trkpt lat="45.80764" lon="5.85335">
        <ele>236</ele>
        <time>2026-05-12T23:16:12Z</time>
      </trkpt>
      <trkpt lat="45.80801" lon="5.85321">
        <ele>236.6</ele>
        <time>2026-05-12T23:16:19Z</time>
      </trkpt>
      <trkpt lat="45.80834" lon="5.85295">
        <ele>237</ele>
        <time>2026-05-12T23:16:26Z</time>
      </trkpt>
      <trkpt lat="45.80857" lon="5.85273">
        <ele>237.2</ele>
        <time>2026-05-12T23:16:31Z</time>
      </trkpt>
      <trkpt lat="45.80877" lon="5.85256">
        <ele>237.4</ele>
        <time>2026-05-12T23:16:35Z</time>
      </trkpt>
      <trkpt lat="45.80908" lon="5.85225">
        <ele>237.8</ele>
        <time>2026-05-12T23:16:42Z</time>
      </trkpt>
      <trkpt lat="45.80921" lon="5.85214">
        <ele>238.4</ele>
        <time>2026-05-12T23:16:45Z</time>
      </trkpt>
      <trkpt lat="45.80952" lon="5.85188">
        <ele>238.8</ele>
        <time>2026-05-12T23:16:52Z</time>
      </trkpt>
      <trkpt lat="45.80987" lon="5.85154">
        <ele>239.4</ele>
        <time>2026-05-12T23:17:00Z</time>
      </trkpt>
      <trkpt lat="45.80996" lon="5.85146">
        <ele>239.6</ele>
        <time>2026-05-12T23:17:02Z</time>
      </trkpt>
      <trkpt lat="45.81033" lon="5.85112">
        <ele>240</ele>
        <time>2026-05-12T23:17:10Z</time>
      </trkpt>
      <trkpt lat="45.81051" lon="5.85096">
        <ele>240.2</ele>
        <time>2026-05-12T23:17:14Z</time>
      </trkpt>
      <trkpt lat="45.81067" lon="5.85089">
        <ele>240.2</ele>
        <time>2026-05-12T23:17:17Z</time>
      </trkpt>
      <trkpt lat="45.81075" lon="5.85082">
        <ele>240.2</ele>
        <time>2026-05-12T23:17:19Z</time>
      </trkpt>
      <trkpt lat="45.81078" lon="5.85076">
        <ele>240.2</ele>
        <time>2026-05-12T23:17:20Z</time>
      </trkpt>
      <trkpt lat="45.81084" lon="5.85063">
        <ele>240.2</ele>
        <time>2026-05-12T23:17:22Z</time>
      </trkpt>
      <trkpt lat="45.81091" lon="5.85053">
        <ele>240.2</ele>
        <time>2026-05-12T23:17:24Z</time>
      </trkpt>
      <trkpt lat="45.81095" lon="5.85049">
        <ele>240.2</ele>
        <time>2026-05-12T23:17:25Z</time>
      </trkpt>
      <trkpt lat="45.81143" lon="5.85008">
        <ele>240.4</ele>
        <time>2026-05-12T23:17:36Z</time>
      </trkpt>
      <trkpt lat="45.81148" lon="5.85005">
        <ele>240.4</ele>
        <time>2026-05-12T23:17:37Z</time>
      </trkpt>
      <trkpt lat="45.81184" lon="5.84989">
        <ele>241</ele>
        <time>2026-05-12T23:17:44Z</time>
      </trkpt>
      <trkpt lat="45.81232" lon="5.84979">
        <ele>241.2</ele>
        <time>2026-05-12T23:17:53Z</time>
      </trkpt>
      <trkpt lat="45.81266" lon="5.84975">
        <ele>241.4</ele>
        <time>2026-05-12T23:17:59Z</time>
      </trkpt>
      <trkpt lat="45.81323" lon="5.84964">
        <ele>241.4</ele>
        <time>2026-05-12T23:18:09Z</time>
      </trkpt>
      <trkpt lat="45.81375" lon="5.84951">
        <ele>241.2</ele>
        <time>2026-05-12T23:18:18Z</time>
      </trkpt>
      <trkpt lat="45.81402" lon="5.84944">
        <ele>241.2</ele>
        <time>2026-05-12T23:18:23Z</time>
      </trkpt>
      <trkpt lat="45.81418" lon="5.84941">
        <ele>241.2</ele>
        <time>2026-05-12T23:18:26Z</time>
      </trkpt>
      <trkpt lat="45.81423" lon="5.8494">
        <ele>241.2</ele>
        <time>2026-05-12T23:18:27Z</time>
      </trkpt>
      <trkpt lat="45.8144" lon="5.84937">
        <ele>241.8</ele>
        <time>2026-05-12T23:18:31Z</time>
      </trkpt>
      <trkpt lat="45.81464" lon="5.84935">
        <ele>242.8</ele>
        <time>2026-05-12T23:18:37Z</time>
      </trkpt>
      <trkpt lat="45.81467" lon="5.84936">
        <ele>243</ele>
        <time>2026-05-12T23:18:38Z</time>
      </trkpt>
      <trkpt lat="45.81485" lon="5.84939">
        <ele>244</ele>
        <time>2026-05-12T23:18:43Z</time>
      </trkpt>
      <trkpt lat="45.81495" lon="5.8494">
        <ele>244.6</ele>
        <time>2026-05-12T23:18:46Z</time>
      </trkpt>
      <trkpt lat="45.81506" lon="5.84943">
        <ele>245</ele>
        <time>2026-05-12T23:18:49Z</time>
      </trkpt>
      <trkpt lat="45.81519" lon="5.84945">
        <ele>246.2</ele>
        <time>2026-05-12T23:18:53Z</time>
      </trkpt>
      <trkpt lat="45.81522" lon="5.84946">
        <ele>246.4</ele>
        <time>2026-05-12T23:18:54Z</time>
      </trkpt>
      <trkpt lat="45.81535" lon="5.84949">
        <ele>247.4</ele>
        <time>2026-05-12T23:18:58Z</time>
      </trkpt>
      <trkpt lat="45.81544" lon="5.84951">
        <ele>248</ele>
        <time>2026-05-12T23:19:01Z</time>
      </trkpt>
      <trkpt lat="45.81556" lon="5.84953">
        <ele>248.6</ele>
        <time>2026-05-12T23:19:05Z</time>
      </trkpt>
      <trkpt lat="45.81575" lon="5.84956">
        <ele>249.6</ele>
        <time>2026-05-12T23:19:11Z</time>
      </trkpt>
      <trkpt lat="45.81578" lon="5.84957">
        <ele>249.8</ele>
        <time>2026-05-12T23:19:12Z</time>
      </trkpt>
      <trkpt lat="45.81596" lon="5.84959">
        <ele>251</ele>
        <time>2026-05-12T23:19:18Z</time>
      </trkpt>
      <trkpt lat="45.816" lon="5.84959">
        <ele>251</ele>
        <time>2026-05-12T23:19:19Z</time>
      </trkpt>
      <trkpt lat="45.81611" lon="5.84958">
        <ele>252</ele>
        <time>2026-05-12T23:19:23Z</time>
      </trkpt>
      <trkpt lat="45.81626" lon="5.84955">
        <ele>252.6</ele>
        <time>2026-05-12T23:19:28Z</time>
      </trkpt>
      <trkpt lat="45.81632" lon="5.84953">
        <ele>253.2</ele>
        <time>2026-05-12T23:19:30Z</time>
      </trkpt>
      <trkpt lat="45.81647" lon="5.84949">
        <ele>254.2</ele>
        <time>2026-05-12T23:19:35Z</time>
      </trkpt>
      <trkpt lat="45.81653" lon="5.84947">
        <ele>254.6</ele>
        <time>2026-05-12T23:19:37Z</time>
      </trkpt>
      <trkpt lat="45.81668" lon="5.84942">
        <ele>255.2</ele>
        <time>2026-05-12T23:19:42Z</time>
      </trkpt>
      <trkpt lat="45.81674" lon="5.8494">
        <ele>255.4</ele>
        <time>2026-05-12T23:19:44Z</time>
      </trkpt>
      <trkpt lat="45.81691" lon="5.84937">
        <ele>256.4</ele>
        <time>2026-05-12T23:19:50Z</time>
      </trkpt>
      <trkpt lat="45.81703" lon="5.84933">
        <ele>257.2</ele>
        <time>2026-05-12T23:19:54Z</time>
      </trkpt>
      <trkpt lat="45.81715" lon="5.84929">
        <ele>257.8</ele>
        <time>2026-05-12T23:19:58Z</time>
      </trkpt>
      <trkpt lat="45.8173" lon="5.84925">
        <ele>258.8</ele>
        <time>2026-05-12T23:20:03Z</time>
      </trkpt>
      <trkpt lat="45.81733" lon="5.84924">
        <ele>259</ele>
        <time>2026-05-12T23:20:04Z</time>
      </trkpt>
      <trkpt lat="45.8175" lon="5.84919">
        <ele>260</ele>
        <time>2026-05-12T23:20:10Z</time>
      </trkpt>
      <trkpt lat="45.81759" lon="5.84916">
        <ele>260.6</ele>
        <time>2026-05-12T23:20:13Z</time>
      </trkpt>
      <trkpt lat="45.81767" lon="5.84912">
        <ele>261.2</ele>
        <time>2026-05-12T23:20:16Z</time>
      </trkpt>
      <trkpt lat="45.81782" lon="5.84904">
        <ele>262</ele>
        <time>2026-05-12T23:20:21Z</time>
      </trkpt>
      <trkpt lat="45.81787" lon="5.849">
        <ele>262.2</ele>
        <time>2026-05-12T23:20:23Z</time>
      </trkpt>
      <trkpt lat="45.81806" lon="5.84884">
        <ele>263.4</ele>
        <time>2026-05-12T23:20:30Z</time>
      </trkpt>
      <trkpt lat="45.81809" lon="5.84881">
        <ele>263.6</ele>
        <time>2026-05-12T23:20:31Z</time>
      </trkpt>
      <trkpt lat="45.81822" lon="5.84868">
        <ele>264.4</ele>
        <time>2026-05-12T23:20:36Z</time>
      </trkpt>
      <trkpt lat="45.8183" lon="5.84861">
        <ele>265</ele>
        <time>2026-05-12T23:20:39Z</time>
      </trkpt>
      <trkpt lat="45.81841" lon="5.84852">
        <ele>265.6</ele>
        <time>2026-05-12T23:20:43Z</time>
      </trkpt>
      <trkpt lat="45.81859" lon="5.84841">
        <ele>266.6</ele>
        <time>2026-05-12T23:20:49Z</time>
      </trkpt>
      <trkpt lat="45.81862" lon="5.84839">
        <ele>266.8</ele>
        <time>2026-05-12T23:20:50Z</time>
      </trkpt>
      <trkpt lat="45.81888" lon="5.84829">
        <ele>267.8</ele>
        <time>2026-05-12T23:20:58Z</time>
      </trkpt>
      <trkpt lat="45.81891" lon="5.84828">
        <ele>267.8</ele>
        <time>2026-05-12T23:20:59Z</time>
      </trkpt>
      <trkpt lat="45.81915" lon="5.8482">
        <ele>268.6</ele>
        <time>2026-05-12T23:21:06Z</time>
      </trkpt>
      <trkpt lat="45.81918" lon="5.84819">
        <ele>268.8</ele>
        <time>2026-05-12T23:21:07Z</time>
      </trkpt>
      <trkpt lat="45.81933" lon="5.8481">
        <ele>269.4</ele>
        <time>2026-05-12T23:21:12Z</time>
      </trkpt>
      <trkpt lat="45.81939" lon="5.84807">
        <ele>269.8</ele>
        <time>2026-05-12T23:21:14Z</time>
      </trkpt>
      <trkpt lat="45.81966" lon="5.84796">
        <ele>270.6</ele>
        <time>2026-05-12T23:21:22Z</time>
      </trkpt>
      <trkpt lat="45.81969" lon="5.84794">
        <ele>270.8</ele>
        <time>2026-05-12T23:21:23Z</time>
      </trkpt>
      <trkpt lat="45.81997" lon="5.84781">
        <ele>271.8</ele>
        <time>2026-05-12T23:21:31Z</time>
      </trkpt>
      <trkpt lat="45.82001" lon="5.8478">
        <ele>271.8</ele>
        <time>2026-05-12T23:21:32Z</time>
      </trkpt>
      <trkpt lat="45.82028" lon="5.84768">
        <ele>273</ele>
        <time>2026-05-12T23:21:40Z</time>
      </trkpt>
      <trkpt lat="45.82038" lon="5.84764">
        <ele>273.4</ele>
        <time>2026-05-12T23:21:43Z</time>
      </trkpt>
      <trkpt lat="45.82059" lon="5.84756">
        <ele>274</ele>
        <time>2026-05-12T23:21:49Z</time>
      </trkpt>
      <trkpt lat="45.82063" lon="5.84755">
        <ele>274.2</ele>
        <time>2026-05-12T23:21:50Z</time>
      </trkpt>
      <trkpt lat="45.8209" lon="5.84748">
        <ele>275</ele>
        <time>2026-05-12T23:21:57Z</time>
      </trkpt>
      <trkpt lat="45.82093" lon="5.84747">
        <ele>275</ele>
        <time>2026-05-12T23:21:58Z</time>
      </trkpt>
      <trkpt lat="45.82127" lon="5.84744">
        <ele>276.4</ele>
        <time>2026-05-12T23:22:07Z</time>
      </trkpt>
      <trkpt lat="45.82153" lon="5.84739">
        <ele>277.6</ele>
        <time>2026-05-12T23:22:14Z</time>
      </trkpt>
      <trkpt lat="45.82161" lon="5.84736">
        <ele>278</ele>
        <time>2026-05-12T23:22:16Z</time>
      </trkpt>
      <trkpt lat="45.82194" lon="5.84724">
        <ele>278.4</ele>
        <time>2026-05-12T23:22:24Z</time>
      </trkpt>
      <trkpt lat="45.82231" lon="5.8471">
        <ele>278.4</ele>
        <time>2026-05-12T23:22:32Z</time>
      </trkpt>
      <trkpt lat="45.8227" lon="5.84684">
        <ele>278</ele>
        <time>2026-05-12T23:22:40Z</time>
      </trkpt>
      <trkpt lat="45.82312" lon="5.8465">
        <ele>277.4</ele>
        <time>2026-05-12T23:22:48Z</time>
      </trkpt>
      <trkpt lat="45.8234" lon="5.84625">
        <ele>276.4</ele>
        <time>2026-05-12T23:22:53Z</time>
      </trkpt>
      <trkpt lat="45.82351" lon="5.84613">
        <ele>276</ele>
        <time>2026-05-12T23:22:55Z</time>
      </trkpt>
      <trkpt lat="45.82374" lon="5.84585">
        <ele>275.2</ele>
        <time>2026-05-12T23:22:59Z</time>
      </trkpt>
      <trkpt lat="45.82386" lon="5.84569">
        <ele>274.6</ele>
        <time>2026-05-12T23:23:01Z</time>
      </trkpt>
      <trkpt lat="45.82398" lon="5.84552">
        <ele>274</ele>
        <time>2026-05-12T23:23:03Z</time>
      </trkpt>
      <trkpt lat="45.82418" lon="5.84529">
        <ele>272.8</ele>
        <time>2026-05-12T23:23:06Z</time>
      </trkpt>
      <trkpt lat="45.82425" lon="5.84521">
        <ele>272.6</ele>
        <time>2026-05-12T23:23:07Z</time>
      </trkpt>
      <trkpt lat="45.82439" lon="5.84505">
        <ele>271.4</ele>
        <time>2026-05-12T23:23:09Z</time>
      </trkpt>
      <trkpt lat="45.82453" lon="5.84488">
        <ele>270.4</ele>
        <time>2026-05-12T23:23:11Z</time>
      </trkpt>
      <trkpt lat="45.82474" lon="5.84462">
        <ele>269</ele>
        <time>2026-05-12T23:23:14Z</time>
      </trkpt>
      <trkpt lat="45.82481" lon="5.84453">
        <ele>268.6</ele>
        <time>2026-05-12T23:23:15Z</time>
      </trkpt>
      <trkpt lat="45.82495" lon="5.84437">
        <ele>267.6</ele>
        <time>2026-05-12T23:23:17Z</time>
      </trkpt>
      <trkpt lat="45.82511" lon="5.84424">
        <ele>266.6</ele>
        <time>2026-05-12T23:23:19Z</time>
      </trkpt>
      <trkpt lat="45.82519" lon="5.84419">
        <ele>266</ele>
        <time>2026-05-12T23:23:20Z</time>
      </trkpt>
      <trkpt lat="45.82528" lon="5.84414">
        <ele>265.4</ele>
        <time>2026-05-12T23:23:21Z</time>
      </trkpt>
      <trkpt lat="45.82556" lon="5.84403">
        <ele>263.6</ele>
        <time>2026-05-12T23:23:24Z</time>
      </trkpt>
      <trkpt lat="45.82563" lon="5.844">
        <ele>263.4</ele>
        <time>2026-05-12T23:23:25Z</time>
      </trkpt>
      <trkpt lat="45.82584" lon="5.84394">
        <ele>262.4</ele>
        <time>2026-05-12T23:23:27Z</time>
      </trkpt>
      <trkpt lat="45.82601" lon="5.84388">
        <ele>261.2</ele>
        <time>2026-05-12T23:23:29Z</time>
      </trkpt>
      <trkpt lat="45.8262" lon="5.84381">
        <ele>259.8</ele>
        <time>2026-05-12T23:23:31Z</time>
      </trkpt>
      <trkpt lat="45.82638" lon="5.84374">
        <ele>258.6</ele>
        <time>2026-05-12T23:23:33Z</time>
      </trkpt>
      <trkpt lat="45.8265" lon="5.8437">
        <ele>258.4</ele>
        <time>2026-05-12T23:23:34Z</time>
      </trkpt>
      <trkpt lat="45.82668" lon="5.84363">
        <ele>257.4</ele>
        <time>2026-05-12T23:23:36Z</time>
      </trkpt>
      <trkpt lat="45.82694" lon="5.84353">
        <ele>256.2</ele>
        <time>2026-05-12T23:23:39Z</time>
      </trkpt>
      <trkpt lat="45.82711" lon="5.84344">
        <ele>255</ele>
        <time>2026-05-12T23:23:41Z</time>
      </trkpt>
      <trkpt lat="45.8272" lon="5.8434">
        <ele>254.6</ele>
        <time>2026-05-12T23:23:42Z</time>
      </trkpt>
      <trkpt lat="45.82728" lon="5.84334">
        <ele>254</ele>
        <time>2026-05-12T23:23:43Z</time>
      </trkpt>
      <trkpt lat="45.82743" lon="5.84323">
        <ele>252.8</ele>
        <time>2026-05-12T23:23:45Z</time>
      </trkpt>
      <trkpt lat="45.82769" lon="5.84302">
        <ele>251.4</ele>
        <time>2026-05-12T23:23:48Z</time>
      </trkpt>
      <trkpt lat="45.82792" lon="5.84287">
        <ele>250.2</ele>
        <time>2026-05-12T23:23:51Z</time>
      </trkpt>
      <trkpt lat="45.8282" lon="5.84275">
        <ele>249.2</ele>
        <time>2026-05-12T23:23:54Z</time>
      </trkpt>
      <trkpt lat="45.82827" lon="5.84273">
        <ele>248.8</ele>
        <time>2026-05-12T23:23:55Z</time>
      </trkpt>
      <trkpt lat="45.82855" lon="5.84269">
        <ele>247.6</ele>
        <time>2026-05-12T23:23:58Z</time>
      </trkpt>
      <trkpt lat="45.82863" lon="5.84269">
        <ele>247.4</ele>
        <time>2026-05-12T23:23:59Z</time>
      </trkpt>
      <trkpt lat="45.82889" lon="5.84271">
        <ele>246.6</ele>
        <time>2026-05-12T23:24:02Z</time>
      </trkpt>
      <trkpt lat="45.82912" lon="5.84273">
        <ele>245.6</ele>
        <time>2026-05-12T23:24:05Z</time>
      </trkpt>
      <trkpt lat="45.82933" lon="5.84272">
        <ele>244.4</ele>
        <time>2026-05-12T23:24:08Z</time>
      </trkpt>
      <trkpt lat="45.82939" lon="5.84272">
        <ele>244.2</ele>
        <time>2026-05-12T23:24:09Z</time>
      </trkpt>
      <trkpt lat="45.82944" lon="5.84273">
        <ele>243.8</ele>
        <time>2026-05-12T23:24:10Z</time>
      </trkpt>
      <trkpt lat="45.82949" lon="5.84273">
        <ele>243.6</ele>
        <time>2026-05-12T23:24:11Z</time>
      </trkpt>
      <trkpt lat="45.82953" lon="5.84274">
        <ele>243.2</ele>
        <time>2026-05-12T23:24:12Z</time>
      </trkpt>
      <trkpt lat="45.82959" lon="5.84276">
        <ele>242.6</ele>
        <time>2026-05-12T23:24:14Z</time>
      </trkpt>
      <trkpt lat="45.82969" lon="5.84278">
        <ele>242.2</ele>
        <time>2026-05-12T23:24:18Z</time>
      </trkpt>
      <trkpt lat="45.82971" lon="5.84278">
        <ele>242.2</ele>
        <time>2026-05-12T23:24:19Z</time>
      </trkpt>
      <trkpt lat="45.8299" lon="5.8428">
        <ele>241.8</ele>
        <time>2026-05-12T23:24:26Z</time>
      </trkpt>
      <trkpt lat="45.83007" lon="5.84273">
        <ele>242</ele>
        <time>2026-05-12T23:24:31Z</time>
      </trkpt>
      <trkpt lat="45.83011" lon="5.84252">
        <ele>241.8</ele>
        <time>2026-05-12T23:24:35Z</time>
      </trkpt>
      <trkpt lat="45.83011" lon="5.84244">
        <ele>241.8</ele>
        <time>2026-05-12T23:24:36Z</time>
      </trkpt>
      <trkpt lat="45.83012" lon="5.84215">
        <ele>241.4</ele>
        <time>2026-05-12T23:24:40Z</time>
      </trkpt>
      <trkpt lat="45.83013" lon="5.84198">
        <ele>241.2</ele>
        <time>2026-05-12T23:24:42Z</time>
      </trkpt>
      <trkpt lat="45.83014" lon="5.84155">
        <ele>240.4</ele>
        <time>2026-05-12T23:24:47Z</time>
      </trkpt>
      <trkpt lat="45.83014" lon="5.84139">
        <ele>240.2</ele>
        <time>2026-05-12T23:24:49Z</time>
      </trkpt>
      <trkpt lat="45.83016" lon="5.84088">
        <ele>239.4</ele>
        <time>2026-05-12T23:24:54Z</time>
      </trkpt>
      <trkpt lat="45.83017" lon="5.84069">
        <ele>239</ele>
        <time>2026-05-12T23:24:56Z</time>
      </trkpt>
      <trkpt lat="45.83018" lon="5.84016">
        <ele>238.4</ele>
        <time>2026-05-12T23:25:01Z</time>
      </trkpt>
      <trkpt lat="45.83018" lon="5.83996">
        <ele>237.8</ele>
        <time>2026-05-12T23:25:03Z</time>
      </trkpt>
      <trkpt lat="45.83019" lon="5.83949">
        <ele>236.6</ele>
        <time>2026-05-12T23:25:07Z</time>
      </trkpt>
      <trkpt lat="45.8302" lon="5.83929">
        <ele>236.2</ele>
        <time>2026-05-12T23:25:09Z</time>
      </trkpt>
      <trkpt lat="45.83021" lon="5.83885">
        <ele>235.6</ele>
        <time>2026-05-12T23:25:13Z</time>
      </trkpt>
      <trkpt lat="45.83023" lon="5.83851">
        <ele>235.4</ele>
        <time>2026-05-12T23:25:16Z</time>
      </trkpt>
      <trkpt lat="45.83027" lon="5.83798">
        <ele>234.4</ele>
        <time>2026-05-12T23:25:21Z</time>
      </trkpt>
      <trkpt lat="45.83028" lon="5.83765">
        <ele>233.8</ele>
        <time>2026-05-12T23:25:24Z</time>
      </trkpt>
      <trkpt lat="45.83027" lon="5.83733">
        <ele>233.4</ele>
        <time>2026-05-12T23:25:27Z</time>
      </trkpt>
      <trkpt lat="45.83026" lon="5.83722">
        <ele>233.4</ele>
        <time>2026-05-12T23:25:28Z</time>
      </trkpt>
      <trkpt lat="45.83025" lon="5.83711">
        <ele>233.2</ele>
        <time>2026-05-12T23:25:29Z</time>
      </trkpt>
      <trkpt lat="45.8301" lon="5.83637">
        <ele>232.4</ele>
        <time>2026-05-12T23:25:36Z</time>
      </trkpt>
      <trkpt lat="45.83008" lon="5.83627">
        <ele>232.2</ele>
        <time>2026-05-12T23:25:37Z</time>
      </trkpt>
      <trkpt lat="45.82998" lon="5.83577">
        <ele>231.6</ele>
        <time>2026-05-12T23:25:42Z</time>
      </trkpt>
      <trkpt lat="45.82986" lon="5.83509">
        <ele>231.2</ele>
        <time>2026-05-12T23:25:49Z</time>
      </trkpt>
      <trkpt lat="45.82984" lon="5.83489">
        <ele>231.2</ele>
        <time>2026-05-12T23:25:51Z</time>
      </trkpt>
      <trkpt lat="45.82975" lon="5.83409">
        <ele>230.8</ele>
        <time>2026-05-12T23:25:59Z</time>
      </trkpt>
      <trkpt lat="45.82962" lon="5.83345">
        <ele>230.6</ele>
        <time>2026-05-12T23:26:06Z</time>
      </trkpt>
      <trkpt lat="45.82939" lon="5.83289">
        <ele>230.4</ele>
        <time>2026-05-12T23:26:13Z</time>
      </trkpt>
      <trkpt lat="45.82935" lon="5.83282">
        <ele>230.4</ele>
        <time>2026-05-12T23:26:14Z</time>
      </trkpt>
      <trkpt lat="45.82918" lon="5.83236">
        <ele>231</ele>
        <time>2026-05-12T23:26:20Z</time>
      </trkpt>
      <trkpt lat="45.82909" lon="5.83174">
        <ele>231.2</ele>
        <time>2026-05-12T23:26:27Z</time>
      </trkpt>
      <trkpt lat="45.82907" lon="5.83115">
        <ele>230.8</ele>
        <time>2026-05-12T23:26:33Z</time>
      </trkpt>
      <trkpt lat="45.82907" lon="5.83047">
        <ele>230.4</ele>
        <time>2026-05-12T23:26:40Z</time>
      </trkpt>
      <trkpt lat="45.82906" lon="5.82962">
        <ele>230.2</ele>
        <time>2026-05-12T23:26:49Z</time>
      </trkpt>
      <trkpt lat="45.82906" lon="5.82953">
        <ele>230</ele>
        <time>2026-05-12T23:26:50Z</time>
      </trkpt>
      <trkpt lat="45.82908" lon="5.82872">
        <ele>230.2</ele>
        <time>2026-05-12T23:26:59Z</time>
      </trkpt>
      <trkpt lat="45.82908" lon="5.82802">
        <ele>230.6</ele>
        <time>2026-05-12T23:27:07Z</time>
      </trkpt>
      <trkpt lat="45.82907" lon="5.82722">
        <ele>230.8</ele>
        <time>2026-05-12T23:27:16Z</time>
      </trkpt>
      <trkpt lat="45.82907" lon="5.82713">
        <ele>230.8</ele>
        <time>2026-05-12T23:27:17Z</time>
      </trkpt>
      <trkpt lat="45.82906" lon="5.82632">
        <ele>230.6</ele>
        <time>2026-05-12T23:27:26Z</time>
      </trkpt>
      <trkpt lat="45.82906" lon="5.82616">
        <ele>230.6</ele>
        <time>2026-05-12T23:27:28Z</time>
      </trkpt>
      <trkpt lat="45.82906" lon="5.82587">
        <ele>230.6</ele>
        <time>2026-05-12T23:27:31Z</time>
      </trkpt>
      <trkpt lat="45.82905" lon="5.82514">
        <ele>230.6</ele>
        <time>2026-05-12T23:27:39Z</time>
      </trkpt>
      <trkpt lat="45.82904" lon="5.82431">
        <ele>230.4</ele>
        <time>2026-05-12T23:27:48Z</time>
      </trkpt>
      <trkpt lat="45.82903" lon="5.82394">
        <ele>230.4</ele>
        <time>2026-05-12T23:27:52Z</time>
      </trkpt>
      <trkpt lat="45.82903" lon="5.82314">
        <ele>230.6</ele>
        <time>2026-05-12T23:28:01Z</time>
      </trkpt>
      <trkpt lat="45.82903" lon="5.82233">
        <ele>230.6</ele>
        <time>2026-05-12T23:28:10Z</time>
      </trkpt>
      <trkpt lat="45.82903" lon="5.82223">
        <ele>230.6</ele>
        <time>2026-05-12T23:28:11Z</time>
      </trkpt>
      <trkpt lat="45.82901" lon="5.82141">
        <ele>230.6</ele>
        <time>2026-05-12T23:28:20Z</time>
      </trkpt>
      <trkpt lat="45.82901" lon="5.82123">
        <ele>230.6</ele>
        <time>2026-05-12T23:28:22Z</time>
      </trkpt>
      <trkpt lat="45.82901" lon="5.8206">
        <ele>230.8</ele>
        <time>2026-05-12T23:28:30Z</time>
      </trkpt>
      <trkpt lat="45.829" lon="5.82008">
        <ele>231</ele>
        <time>2026-05-12T23:28:36Z</time>
      </trkpt>
      <trkpt lat="45.82899" lon="5.81948">
        <ele>230.6</ele>
        <time>2026-05-12T23:28:43Z</time>
      </trkpt>
      <trkpt lat="45.82898" lon="5.81892">
        <ele>230.4</ele>
        <time>2026-05-12T23:28:50Z</time>
      </trkpt>
      <trkpt lat="45.82898" lon="5.8186">
        <ele>230.4</ele>
        <time>2026-05-12T23:28:54Z</time>
      </trkpt>
      <trkpt lat="45.82898" lon="5.818">
        <ele>230.6</ele>
        <time>2026-05-12T23:29:01Z</time>
      </trkpt>
      <trkpt lat="45.82898" lon="5.8175">
        <ele>230.6</ele>
        <time>2026-05-12T23:29:07Z</time>
      </trkpt>
      <trkpt lat="45.82896" lon="5.81683">
        <ele>230.6</ele>
        <time>2026-05-12T23:29:15Z</time>
      </trkpt>
      <trkpt lat="45.82895" lon="5.81599">
        <ele>230.6</ele>
        <time>2026-05-12T23:29:25Z</time>
      </trkpt>
      <trkpt lat="45.82895" lon="5.81583">
        <ele>230.6</ele>
        <time>2026-05-12T23:29:27Z</time>
      </trkpt>
      <trkpt lat="45.82895" lon="5.81505">
        <ele>230.6</ele>
        <time>2026-05-12T23:29:36Z</time>
      </trkpt>
      <trkpt lat="45.82894" lon="5.81419">
        <ele>230.4</ele>
        <time>2026-05-12T23:29:46Z</time>
      </trkpt>
      <trkpt lat="45.82893" lon="5.8136">
        <ele>230.6</ele>
        <time>2026-05-12T23:29:53Z</time>
      </trkpt>
      <trkpt lat="45.82893" lon="5.81344">
        <ele>230.8</ele>
        <time>2026-05-12T23:29:55Z</time>
      </trkpt>
      <trkpt lat="45.82892" lon="5.81288">
        <ele>231</ele>
        <time>2026-05-12T23:30:02Z</time>
      </trkpt>
      <trkpt lat="45.82891" lon="5.81241">
        <ele>231</ele>
        <time>2026-05-12T23:30:09Z</time>
      </trkpt>
      <trkpt lat="45.82893" lon="5.81229">
        <ele>231</ele>
        <time>2026-05-12T23:30:11Z</time>
      </trkpt>
      <trkpt lat="45.82899" lon="5.81217">
        <ele>231</ele>
        <time>2026-05-12T23:30:14Z</time>
      </trkpt>
      <trkpt lat="45.8291" lon="5.81215">
        <ele>231</ele>
        <time>2026-05-12T23:30:17Z</time>
      </trkpt>
      <trkpt lat="45.82913" lon="5.81215">
        <ele>231</ele>
        <time>2026-05-12T23:30:18Z</time>
      </trkpt>
      <trkpt lat="45.82937" lon="5.81216">
        <ele>231</ele>
        <time>2026-05-12T23:30:23Z</time>
      </trkpt>
      <trkpt lat="45.82975" lon="5.81216">
        <ele>231.2</ele>
        <time>2026-05-12T23:30:30Z</time>
      </trkpt>
      <trkpt lat="45.83016" lon="5.81212">
        <ele>231.4</ele>
        <time>2026-05-12T23:30:37Z</time>
      </trkpt>
      <trkpt lat="45.83061" lon="5.81209">
        <ele>231.6</ele>
        <time>2026-05-12T23:30:45Z</time>
      </trkpt>
      <trkpt lat="45.83067" lon="5.81209">
        <ele>231.8</ele>
        <time>2026-05-12T23:30:46Z</time>
      </trkpt>
      <trkpt lat="45.83089" lon="5.81214">
        <ele>231.6</ele>
        <time>2026-05-12T23:30:50Z</time>
      </trkpt>
      <trkpt lat="45.83129" lon="5.81227">
        <ele>232</ele>
        <time>2026-05-12T23:30:57Z</time>
      </trkpt>
      <trkpt lat="45.83135" lon="5.81229">
        <ele>232</ele>
        <time>2026-05-12T23:30:58Z</time>
      </trkpt>
      <trkpt lat="45.83152" lon="5.81232">
        <ele>232.2</ele>
        <time>2026-05-12T23:31:01Z</time>
      </trkpt>
      <trkpt lat="45.83171" lon="5.81234">
        <ele>232.4</ele>
        <time>2026-05-12T23:31:04Z</time>
      </trkpt>
      <trkpt lat="45.83189" lon="5.81235">
        <ele>232.4</ele>
        <time>2026-05-12T23:31:07Z</time>
      </trkpt>
      <trkpt lat="45.83201" lon="5.81234">
        <ele>232.4</ele>
        <time>2026-05-12T23:31:09Z</time>
      </trkpt>
      <trkpt lat="45.8322" lon="5.81232">
        <ele>232.4</ele>
        <time>2026-05-12T23:31:12Z</time>
      </trkpt>
      <trkpt lat="45.83262" lon="5.81225">
        <ele>232.4</ele>
        <time>2026-05-12T23:31:19Z</time>
      </trkpt>
      <trkpt lat="45.83303" lon="5.81219">
        <ele>232.4</ele>
        <time>2026-05-12T23:31:26Z</time>
      </trkpt>
      <trkpt lat="45.83347" lon="5.81206">
        <ele>232.6</ele>
        <time>2026-05-12T23:31:33Z</time>
      </trkpt>
      <trkpt lat="45.83391" lon="5.81185">
        <ele>232.6</ele>
        <time>2026-05-12T23:31:40Z</time>
      </trkpt>
      <trkpt lat="45.83398" lon="5.81182">
        <ele>232.6</ele>
        <time>2026-05-12T23:31:41Z</time>
      </trkpt>
      <trkpt lat="45.8342" lon="5.81166">
        <ele>232.8</ele>
        <time>2026-05-12T23:31:45Z</time>
      </trkpt>
      <trkpt lat="45.83473" lon="5.81133">
        <ele>233</ele>
        <time>2026-05-12T23:31:55Z</time>
      </trkpt>
      <trkpt lat="45.83489" lon="5.81123">
        <ele>233.2</ele>
        <time>2026-05-12T23:31:58Z</time>
      </trkpt>
      <trkpt lat="45.8354" lon="5.81093">
        <ele>233.2</ele>
        <time>2026-05-12T23:32:07Z</time>
      </trkpt>
      <trkpt lat="45.83545" lon="5.8109">
        <ele>233.2</ele>
        <time>2026-05-12T23:32:08Z</time>
      </trkpt>
      <trkpt lat="45.83598" lon="5.8106">
        <ele>232.8</ele>
        <time>2026-05-12T23:32:17Z</time>
      </trkpt>
      <trkpt lat="45.83647" lon="5.81044">
        <ele>232.8</ele>
        <time>2026-05-12T23:32:25Z</time>
      </trkpt>
      <trkpt lat="45.83704" lon="5.81044">
        <ele>233</ele>
        <time>2026-05-12T23:32:34Z</time>
      </trkpt>
      <trkpt lat="45.83711" lon="5.81045">
        <ele>233</ele>
        <time>2026-05-12T23:32:35Z</time>
      </trkpt>
      <trkpt lat="45.83767" lon="5.81046">
        <ele>233</ele>
        <time>2026-05-12T23:32:44Z</time>
      </trkpt>
      <trkpt lat="45.83773" lon="5.81045">
        <ele>233</ele>
        <time>2026-05-12T23:32:45Z</time>
      </trkpt>
      <trkpt lat="45.8381" lon="5.81033">
        <ele>233</ele>
        <time>2026-05-12T23:32:51Z</time>
      </trkpt>
      <trkpt lat="45.83852" lon="5.81013">
        <ele>233.2</ele>
        <time>2026-05-12T23:32:58Z</time>
      </trkpt>
      <trkpt lat="45.83898" lon="5.80994">
        <ele>233.2</ele>
        <time>2026-05-12T23:33:06Z</time>
      </trkpt>
      <trkpt lat="45.83944" lon="5.80974">
        <ele>233.2</ele>
        <time>2026-05-12T23:33:13Z</time>
      </trkpt>
      <trkpt lat="45.83987" lon="5.80963">
        <ele>233</ele>
        <time>2026-05-12T23:33:20Z</time>
      </trkpt>
      <trkpt lat="45.84038" lon="5.80958">
        <ele>233</ele>
        <time>2026-05-12T23:33:28Z</time>
      </trkpt>
      <trkpt lat="45.84082" lon="5.80962">
        <ele>233</ele>
        <time>2026-05-12T23:33:35Z</time>
      </trkpt>
      <trkpt lat="45.84135" lon="5.80966">
        <ele>233</ele>
        <time>2026-05-12T23:33:43Z</time>
      </trkpt>
      <trkpt lat="45.84179" lon="5.80968">
        <ele>232.8</ele>
        <time>2026-05-12T23:33:50Z</time>
      </trkpt>
      <trkpt lat="45.84193" lon="5.80969">
        <ele>232.8</ele>
        <time>2026-05-12T23:33:52Z</time>
      </trkpt>
      <trkpt lat="45.84242" lon="5.80972">
        <ele>233.2</ele>
        <time>2026-05-12T23:34:00Z</time>
      </trkpt>
      <trkpt lat="45.84294" lon="5.8097">
        <ele>233.4</ele>
        <time>2026-05-12T23:34:08Z</time>
      </trkpt>
      <trkpt lat="45.84337" lon="5.80961">
        <ele>233.2</ele>
        <time>2026-05-12T23:34:15Z</time>
      </trkpt>
      <trkpt lat="45.84343" lon="5.80959">
        <ele>233.2</ele>
        <time>2026-05-12T23:34:16Z</time>
      </trkpt>
      <trkpt lat="45.84366" lon="5.80949">
        <ele>233.4</ele>
        <time>2026-05-12T23:34:20Z</time>
      </trkpt>
      <trkpt lat="45.84411" lon="5.80922">
        <ele>233.4</ele>
        <time>2026-05-12T23:34:28Z</time>
      </trkpt>
      <trkpt lat="45.84445" lon="5.80899">
        <ele>233.6</ele>
        <time>2026-05-12T23:34:34Z</time>
      </trkpt>
      <trkpt lat="45.84488" lon="5.80863">
        <ele>233.6</ele>
        <time>2026-05-12T23:34:42Z</time>
      </trkpt>
      <trkpt lat="45.84533" lon="5.80836">
        <ele>233.6</ele>
        <time>2026-05-12T23:34:50Z</time>
      </trkpt>
      <trkpt lat="45.84557" lon="5.80827">
        <ele>233.8</ele>
        <time>2026-05-12T23:34:54Z</time>
      </trkpt>
      <trkpt lat="45.84576" lon="5.8082">
        <ele>233.8</ele>
        <time>2026-05-12T23:34:57Z</time>
      </trkpt>
      <trkpt lat="45.8463" lon="5.808">
        <ele>234</ele>
        <time>2026-05-12T23:35:06Z</time>
      </trkpt>
      <trkpt lat="45.84642" lon="5.80796">
        <ele>234</ele>
        <time>2026-05-12T23:35:08Z</time>
      </trkpt>
      <trkpt lat="45.84696" lon="5.80777">
        <ele>234.4</ele>
        <time>2026-05-12T23:35:17Z</time>
      </trkpt>
      <trkpt lat="45.84748" lon="5.80758">
        <ele>234.6</ele>
        <time>2026-05-12T23:35:26Z</time>
      </trkpt>
      <trkpt lat="45.84792" lon="5.80742">
        <ele>234.8</ele>
        <time>2026-05-12T23:35:34Z</time>
      </trkpt>
      <trkpt lat="45.84819" lon="5.80734">
        <ele>235</ele>
        <time>2026-05-12T23:35:39Z</time>
      </trkpt>
      <trkpt lat="45.8483" lon="5.80738">
        <ele>235</ele>
        <time>2026-05-12T23:35:41Z</time>
      </trkpt>
      <trkpt lat="45.84838" lon="5.80745">
        <ele>235.2</ele>
        <time>2026-05-12T23:35:43Z</time>
      </trkpt>
      <trkpt lat="45.84848" lon="5.80746">
        <ele>235.2</ele>
        <time>2026-05-12T23:35:45Z</time>
      </trkpt>
      <trkpt lat="45.84856" lon="5.80736">
        <ele>235.2</ele>
        <time>2026-05-12T23:35:47Z</time>
      </trkpt>
      <trkpt lat="45.84857" lon="5.80731">
        <ele>235.2</ele>
        <time>2026-05-12T23:35:48Z</time>
      </trkpt>
      <trkpt lat="45.84858" lon="5.8069">
        <ele>235.4</ele>
        <time>2026-05-12T23:35:54Z</time>
      </trkpt>
      <trkpt lat="45.84859" lon="5.80683">
        <ele>235.4</ele>
        <time>2026-05-12T23:35:55Z</time>
      </trkpt>
      <trkpt lat="45.84867" lon="5.80608">
        <ele>235.6</ele>
        <time>2026-05-12T23:36:05Z</time>
      </trkpt>
      <trkpt lat="45.8487" lon="5.80588">
        <ele>236.2</ele>
        <time>2026-05-12T23:36:08Z</time>
      </trkpt>
      <trkpt lat="45.84873" lon="5.80559">
        <ele>236.8</ele>
        <time>2026-05-12T23:36:12Z</time>
      </trkpt>
      <trkpt lat="45.84877" lon="5.80527">
        <ele>237.2</ele>
        <time>2026-05-12T23:36:17Z</time>
      </trkpt>
      <trkpt lat="45.84878" lon="5.80516">
        <ele>237.4</ele>
        <time>2026-05-12T23:36:19Z</time>
      </trkpt>
      <trkpt lat="45.84879" lon="5.80508">
        <ele>237.6</ele>
        <time>2026-05-12T23:36:20Z</time>
      </trkpt>
      <trkpt lat="45.84879" lon="5.80501">
        <ele>237.6</ele>
        <time>2026-05-12T23:36:21Z</time>
      </trkpt>
      <trkpt lat="45.84882" lon="5.80474">
        <ele>238.2</ele>
        <time>2026-05-12T23:36:25Z</time>
      </trkpt>
      <trkpt lat="45.84882" lon="5.80461">
        <ele>238.6</ele>
        <time>2026-05-12T23:36:27Z</time>
      </trkpt>
      <trkpt lat="45.84883" lon="5.80456">
        <ele>238.8</ele>
        <time>2026-05-12T23:36:28Z</time>
      </trkpt>
      <trkpt lat="45.84884" lon="5.8045">
        <ele>239</ele>
        <time>2026-05-12T23:36:29Z</time>
      </trkpt>
      <trkpt lat="45.84885" lon="5.80443">
        <ele>239.4</ele>
        <time>2026-05-12T23:36:30Z</time>
      </trkpt>
      <trkpt lat="45.84887" lon="5.80427">
        <ele>240</ele>
        <time>2026-05-12T23:36:33Z</time>
      </trkpt>
      <trkpt lat="45.8489" lon="5.80397">
        <ele>240.6</ele>
        <time>2026-05-12T23:36:38Z</time>
      </trkpt>
      <trkpt lat="45.84891" lon="5.80383">
        <ele>241</ele>
        <time>2026-05-12T23:36:40Z</time>
      </trkpt>
      <trkpt lat="45.84898" lon="5.80333">
        <ele>241.6</ele>
        <time>2026-05-12T23:36:47Z</time>
      </trkpt>
      <trkpt lat="45.84899" lon="5.80326">
        <ele>241.6</ele>
        <time>2026-05-12T23:36:48Z</time>
      </trkpt>
      <trkpt lat="45.84906" lon="5.80271">
        <ele>241.6</ele>
        <time>2026-05-12T23:36:55Z</time>
      </trkpt>
      <trkpt lat="45.84914" lon="5.80202">
        <ele>241.6</ele>
        <time>2026-05-12T23:37:04Z</time>
      </trkpt>
      <trkpt lat="45.84921" lon="5.80136">
        <ele>241.8</ele>
        <time>2026-05-12T23:37:12Z</time>
      </trkpt>
      <trkpt lat="45.84929" lon="5.80063">
        <ele>241.8</ele>
        <time>2026-05-12T23:37:21Z</time>
      </trkpt>
      <trkpt lat="45.8494" lon="5.79979">
        <ele>241.6</ele>
        <time>2026-05-12T23:37:31Z</time>
      </trkpt>
      <trkpt lat="45.84946" lon="5.7993">
        <ele>241</ele>
        <time>2026-05-12T23:37:36Z</time>
      </trkpt>
      <trkpt lat="45.84948" lon="5.79909">
        <ele>240.6</ele>
        <time>2026-05-12T23:37:38Z</time>
      </trkpt>
      <trkpt lat="45.84949" lon="5.79878">
        <ele>240</ele>
        <time>2026-05-12T23:37:41Z</time>
      </trkpt>
      <trkpt lat="45.84948" lon="5.79857">
        <ele>239.6</ele>
        <time>2026-05-12T23:37:43Z</time>
      </trkpt>
      <trkpt lat="45.84947" lon="5.79847">
        <ele>239.2</ele>
        <time>2026-05-12T23:37:44Z</time>
      </trkpt>
      <trkpt lat="45.8495" lon="5.79828">
        <ele>238.6</ele>
        <time>2026-05-12T23:37:46Z</time>
      </trkpt>
      <trkpt lat="45.84966" lon="5.79797">
        <ele>237.8</ele>
        <time>2026-05-12T23:37:50Z</time>
      </trkpt>
      <trkpt lat="45.8497" lon="5.79789">
        <ele>237.6</ele>
        <time>2026-05-12T23:37:51Z</time>
      </trkpt>
      <trkpt lat="45.85003" lon="5.79719">
        <ele>236.8</ele>
        <time>2026-05-12T23:38:00Z</time>
      </trkpt>
      <trkpt lat="45.85006" lon="5.79711">
        <ele>236.8</ele>
        <time>2026-05-12T23:38:01Z</time>
      </trkpt>
      <trkpt lat="45.85024" lon="5.79671">
        <ele>237</ele>
        <time>2026-05-12T23:38:07Z</time>
      </trkpt>
      <trkpt lat="45.85042" lon="5.79631">
        <ele>238.6</ele>
        <time>2026-05-12T23:38:14Z</time>
      </trkpt>
      <trkpt lat="45.85047" lon="5.7962">
        <ele>238.8</ele>
        <time>2026-05-12T23:38:16Z</time>
      </trkpt>
      <trkpt lat="45.85057" lon="5.79597">
        <ele>239.8</ele>
        <time>2026-05-12T23:38:20Z</time>
      </trkpt>
      <trkpt lat="45.85062" lon="5.79585">
        <ele>240.2</ele>
        <time>2026-05-12T23:38:22Z</time>
      </trkpt>
      <trkpt lat="45.85064" lon="5.79579">
        <ele>240.4</ele>
        <time>2026-05-12T23:38:23Z</time>
      </trkpt>
      <trkpt lat="45.85072" lon="5.79561">
        <ele>240.8</ele>
        <time>2026-05-12T23:38:26Z</time>
      </trkpt>
      <trkpt lat="45.85077" lon="5.79549">
        <ele>241.2</ele>
        <time>2026-05-12T23:38:28Z</time>
      </trkpt>
      <trkpt lat="45.85098" lon="5.79505">
        <ele>241</ele>
        <time>2026-05-12T23:38:34Z</time>
      </trkpt>
      <trkpt lat="45.85118" lon="5.79467">
        <ele>240.2</ele>
        <time>2026-05-12T23:38:39Z</time>
      </trkpt>
      <trkpt lat="45.85123" lon="5.79462">
        <ele>240</ele>
        <time>2026-05-12T23:38:40Z</time>
      </trkpt>
      <trkpt lat="45.8513" lon="5.79458">
        <ele>239.6</ele>
        <time>2026-05-12T23:38:41Z</time>
      </trkpt>
      <trkpt lat="45.85144" lon="5.7946">
        <ele>239.2</ele>
        <time>2026-05-12T23:38:43Z</time>
      </trkpt>
      <trkpt lat="45.85158" lon="5.79468">
        <ele>238.6</ele>
        <time>2026-05-12T23:38:45Z</time>
      </trkpt>
      <trkpt lat="45.8518" lon="5.79478">
        <ele>238</ele>
        <time>2026-05-12T23:38:48Z</time>
      </trkpt>
      <trkpt lat="45.85194" lon="5.79486">
        <ele>237.4</ele>
        <time>2026-05-12T23:38:50Z</time>
      </trkpt>
      <trkpt lat="45.85215" lon="5.79499">
        <ele>236.6</ele>
        <time>2026-05-12T23:38:53Z</time>
      </trkpt>
      <trkpt lat="45.8522" lon="5.79505">
        <ele>236.4</ele>
        <time>2026-05-12T23:38:54Z</time>
      </trkpt>
      <trkpt lat="45.85241" lon="5.7953">
        <ele>235.6</ele>
        <time>2026-05-12T23:38:58Z</time>
      </trkpt>
      <trkpt lat="45.85256" lon="5.79548">
        <ele>235.2</ele>
        <time>2026-05-12T23:39:01Z</time>
      </trkpt>
      <trkpt lat="45.85272" lon="5.79565">
        <ele>235</ele>
        <time>2026-05-12T23:39:04Z</time>
      </trkpt>
      <trkpt lat="45.85292" lon="5.79589">
        <ele>235.2</ele>
        <time>2026-05-12T23:39:08Z</time>
      </trkpt>
      <trkpt lat="45.85296" lon="5.79595">
        <ele>235.2</ele>
        <time>2026-05-12T23:39:09Z</time>
      </trkpt>
      <trkpt lat="45.85306" lon="5.79606">
        <ele>235.2</ele>
        <time>2026-05-12T23:39:11Z</time>
      </trkpt>
      <trkpt lat="45.85318" lon="5.79625">
        <ele>235.4</ele>
        <time>2026-05-12T23:39:14Z</time>
      </trkpt>
      <trkpt lat="45.8534" lon="5.79665">
        <ele>235.6</ele>
        <time>2026-05-12T23:39:20Z</time>
      </trkpt>
      <trkpt lat="45.85368" lon="5.79704">
        <ele>235.8</ele>
        <time>2026-05-12T23:39:26Z</time>
      </trkpt>
      <trkpt lat="45.85399" lon="5.79753">
        <ele>236.2</ele>
        <time>2026-05-12T23:39:34Z</time>
      </trkpt>
      <trkpt lat="45.85439" lon="5.79787">
        <ele>236.4</ele>
        <time>2026-05-12T23:39:42Z</time>
      </trkpt>
      <trkpt lat="45.85445" lon="5.79791">
        <ele>236.4</ele>
        <time>2026-05-12T23:39:43Z</time>
      </trkpt>
      <trkpt lat="45.85483" lon="5.79812">
        <ele>236.6</ele>
        <time>2026-05-12T23:39:50Z</time>
      </trkpt>
      <trkpt lat="45.85533" lon="5.79838">
        <ele>236.6</ele>
        <time>2026-05-12T23:39:59Z</time>
      </trkpt>
      <trkpt lat="45.85589" lon="5.79869">
        <ele>236.8</ele>
        <time>2026-05-12T23:40:09Z</time>
      </trkpt>
      <trkpt lat="45.85631" lon="5.79894">
        <ele>237</ele>
        <time>2026-05-12T23:40:17Z</time>
      </trkpt>
      <trkpt lat="45.85674" lon="5.79919">
        <ele>237</ele>
        <time>2026-05-12T23:40:25Z</time>
      </trkpt>
      <trkpt lat="45.85719" lon="5.7994">
        <ele>237.2</ele>
        <time>2026-05-12T23:40:33Z</time>
      </trkpt>
      <trkpt lat="45.85748" lon="5.79943">
        <ele>237.4</ele>
        <time>2026-05-12T23:40:38Z</time>
      </trkpt>
      <trkpt lat="45.85764" lon="5.79942">
        <ele>237.6</ele>
        <time>2026-05-12T23:40:41Z</time>
      </trkpt>
      <trkpt lat="45.85819" lon="5.79941">
        <ele>237.6</ele>
        <time>2026-05-12T23:40:50Z</time>
      </trkpt>
      <trkpt lat="45.85824" lon="5.79941">
        <ele>237.6</ele>
        <time>2026-05-12T23:40:51Z</time>
      </trkpt>
      <trkpt lat="45.85872" lon="5.7994">
        <ele>237.6</ele>
        <time>2026-05-12T23:40:59Z</time>
      </trkpt>
      <trkpt lat="45.8592" lon="5.79935">
        <ele>237.6</ele>
        <time>2026-05-12T23:41:07Z</time>
      </trkpt>
      <trkpt lat="45.85976" lon="5.79926">
        <ele>238</ele>
        <time>2026-05-12T23:41:16Z</time>
      </trkpt>
      <trkpt lat="45.86014" lon="5.79918">
        <ele>237.8</ele>
        <time>2026-05-12T23:41:22Z</time>
      </trkpt>
      <trkpt lat="45.86032" lon="5.79917">
        <ele>237.8</ele>
        <time>2026-05-12T23:41:25Z</time>
      </trkpt>
      <trkpt lat="45.86057" lon="5.79919">
        <ele>237.8</ele>
        <time>2026-05-12T23:41:29Z</time>
      </trkpt>
      <trkpt lat="45.86074" lon="5.79924">
        <ele>237.8</ele>
        <time>2026-05-12T23:41:32Z</time>
      </trkpt>
      <trkpt lat="45.86125" lon="5.79941">
        <ele>237.8</ele>
        <time>2026-05-12T23:41:41Z</time>
      </trkpt>
      <trkpt lat="45.86154" lon="5.7995">
        <ele>237.8</ele>
        <time>2026-05-12T23:41:46Z</time>
      </trkpt>
      <trkpt lat="45.862" lon="5.79957">
        <ele>238</ele>
        <time>2026-05-12T23:41:54Z</time>
      </trkpt>
      <trkpt lat="45.86243" lon="5.79952">
        <ele>238.2</ele>
        <time>2026-05-12T23:42:01Z</time>
      </trkpt>
      <trkpt lat="45.86289" lon="5.7994">
        <ele>238.2</ele>
        <time>2026-05-12T23:42:08Z</time>
      </trkpt>
      <trkpt lat="45.86332" lon="5.79941">
        <ele>238</ele>
        <time>2026-05-12T23:42:15Z</time>
      </trkpt>
      <trkpt lat="45.8637" lon="5.7995">
        <ele>238</ele>
        <time>2026-05-12T23:42:21Z</time>
      </trkpt>
      <trkpt lat="45.86392" lon="5.79965">
        <ele>238.2</ele>
        <time>2026-05-12T23:42:25Z</time>
      </trkpt>
      <trkpt lat="45.86409" lon="5.79978">
        <ele>238.2</ele>
        <time>2026-05-12T23:42:28Z</time>
      </trkpt>
      <trkpt lat="45.8646" lon="5.80011">
        <ele>238.4</ele>
        <time>2026-05-12T23:42:37Z</time>
      </trkpt>
      <trkpt lat="45.86504" lon="5.80019">
        <ele>238.4</ele>
        <time>2026-05-12T23:42:44Z</time>
      </trkpt>
      <trkpt lat="45.8656" lon="5.80011">
        <ele>238.4</ele>
        <time>2026-05-12T23:42:53Z</time>
      </trkpt>
      <trkpt lat="45.86604" lon="5.80009">
        <ele>238.2</ele>
        <time>2026-05-12T23:43:00Z</time>
      </trkpt>
      <trkpt lat="45.86645" lon="5.80025">
        <ele>238.2</ele>
        <time>2026-05-12T23:43:07Z</time>
      </trkpt>
      <trkpt lat="45.8665" lon="5.80028">
        <ele>238.2</ele>
        <time>2026-05-12T23:43:08Z</time>
      </trkpt>
      <trkpt lat="45.86665" lon="5.8004">
        <ele>238.2</ele>
        <time>2026-05-12T23:43:11Z</time>
      </trkpt>
      <trkpt lat="45.86698" lon="5.80076">
        <ele>238.4</ele>
        <time>2026-05-12T23:43:18Z</time>
      </trkpt>
      <trkpt lat="45.86704" lon="5.80087">
        <ele>238.6</ele>
        <time>2026-05-12T23:43:20Z</time>
      </trkpt>
      <trkpt lat="45.86725" lon="5.8012">
        <ele>239</ele>
        <time>2026-05-12T23:43:26Z</time>
      </trkpt>
      <trkpt lat="45.8674" lon="5.80145">
        <ele>239.8</ele>
        <time>2026-05-12T23:43:31Z</time>
      </trkpt>
      <trkpt lat="45.86752" lon="5.80164">
        <ele>240.2</ele>
        <time>2026-05-12T23:43:35Z</time>
      </trkpt>
      <trkpt lat="45.86755" lon="5.80168">
        <ele>240.4</ele>
        <time>2026-05-12T23:43:36Z</time>
      </trkpt>
      <trkpt lat="45.86766" lon="5.80182">
        <ele>240.8</ele>
        <time>2026-05-12T23:43:39Z</time>
      </trkpt>
      <trkpt lat="45.86773" lon="5.8019">
        <ele>241.2</ele>
        <time>2026-05-12T23:43:41Z</time>
      </trkpt>
      <trkpt lat="45.86781" lon="5.80198">
        <ele>241.2</ele>
        <time>2026-05-12T23:43:43Z</time>
      </trkpt>
      <trkpt lat="45.86799" lon="5.80209">
        <ele>241.6</ele>
        <time>2026-05-12T23:43:47Z</time>
      </trkpt>
      <trkpt lat="45.86818" lon="5.80217">
        <ele>242</ele>
        <time>2026-05-12T23:43:51Z</time>
      </trkpt>
      <trkpt lat="45.86848" lon="5.80224">
        <ele>242.4</ele>
        <time>2026-05-12T23:43:57Z</time>
      </trkpt>
      <trkpt lat="45.86882" lon="5.80235">
        <ele>242.6</ele>
        <time>2026-05-12T23:44:03Z</time>
      </trkpt>
      <trkpt lat="45.86911" lon="5.80255">
        <ele>242.6</ele>
        <time>2026-05-12T23:44:09Z</time>
      </trkpt>
      <trkpt lat="45.86925" lon="5.8027">
        <ele>243</ele>
        <time>2026-05-12T23:44:12Z</time>
      </trkpt>
      <trkpt lat="45.86943" lon="5.80293">
        <ele>243</ele>
        <time>2026-05-12T23:44:16Z</time>
      </trkpt>
      <trkpt lat="45.86978" lon="5.80334">
        <ele>242.8</ele>
        <time>2026-05-12T23:44:23Z</time>
      </trkpt>
      <trkpt lat="45.87002" lon="5.80348">
        <ele>242.8</ele>
        <time>2026-05-12T23:44:28Z</time>
      </trkpt>
      <trkpt lat="45.87038" lon="5.80364">
        <ele>243.2</ele>
        <time>2026-05-12T23:44:35Z</time>
      </trkpt>
      <trkpt lat="45.87069" lon="5.8038">
        <ele>243.6</ele>
        <time>2026-05-12T23:44:41Z</time>
      </trkpt>
      <trkpt lat="45.87101" lon="5.80393">
        <ele>244</ele>
        <time>2026-05-12T23:44:47Z</time>
      </trkpt>
      <trkpt lat="45.87112" lon="5.80397">
        <ele>244.4</ele>
        <time>2026-05-12T23:44:49Z</time>
      </trkpt>
      <trkpt lat="45.87142" lon="5.80412">
        <ele>245.2</ele>
        <time>2026-05-12T23:44:55Z</time>
      </trkpt>
      <trkpt lat="45.87154" lon="5.80417">
        <ele>245.2</ele>
        <time>2026-05-12T23:44:57Z</time>
      </trkpt>
      <trkpt lat="45.87196" lon="5.80436">
        <ele>245.6</ele>
        <time>2026-05-12T23:45:05Z</time>
      </trkpt>
      <trkpt lat="45.87207" lon="5.8044">
        <ele>245.6</ele>
        <time>2026-05-12T23:45:07Z</time>
      </trkpt>
      <trkpt lat="45.87229" lon="5.80449">
        <ele>245.8</ele>
        <time>2026-05-12T23:45:11Z</time>
      </trkpt>
      <trkpt lat="45.87284" lon="5.80464">
        <ele>246</ele>
        <time>2026-05-12T23:45:20Z</time>
      </trkpt>
      <trkpt lat="45.87303" lon="5.80469">
        <ele>245.8</ele>
        <time>2026-05-12T23:45:23Z</time>
      </trkpt>
      <trkpt lat="45.87317" lon="5.80472">
        <ele>245.6</ele>
        <time>2026-05-12T23:45:25Z</time>
      </trkpt>
      <trkpt lat="45.8736" lon="5.80482">
        <ele>244.4</ele>
        <time>2026-05-12T23:45:31Z</time>
      </trkpt>
      <trkpt lat="45.87367" lon="5.80482">
        <ele>244.4</ele>
        <time>2026-05-12T23:45:32Z</time>
      </trkpt>
      <trkpt lat="45.87382" lon="5.80483">
        <ele>244</ele>
        <time>2026-05-12T23:45:34Z</time>
      </trkpt>
      <trkpt lat="45.87423" lon="5.80486">
        <ele>243</ele>
        <time>2026-05-12T23:45:40Z</time>
      </trkpt>
      <trkpt lat="45.8743" lon="5.80486">
        <ele>243</ele>
        <time>2026-05-12T23:45:41Z</time>
      </trkpt>
      <trkpt lat="45.87482" lon="5.80497">
        <ele>242.8</ele>
        <time>2026-05-12T23:45:49Z</time>
      </trkpt>
      <trkpt lat="45.87526" lon="5.8051">
        <ele>242.8</ele>
        <time>2026-05-12T23:45:56Z</time>
      </trkpt>
      <trkpt lat="45.87562" lon="5.80521">
        <ele>243.2</ele>
        <time>2026-05-12T23:46:02Z</time>
      </trkpt>
      <trkpt lat="45.87599" lon="5.80533">
        <ele>243.8</ele>
        <time>2026-05-12T23:46:09Z</time>
      </trkpt>
      <trkpt lat="45.87609" lon="5.80535">
        <ele>244</ele>
        <time>2026-05-12T23:46:11Z</time>
      </trkpt>
      <trkpt lat="45.87645" lon="5.80543">
        <ele>245</ele>
        <time>2026-05-12T23:46:18Z</time>
      </trkpt>
      <trkpt lat="45.87649" lon="5.80544">
        <ele>245.2</ele>
        <time>2026-05-12T23:46:19Z</time>
      </trkpt>
      <trkpt lat="45.87679" lon="5.8055">
        <ele>246.2</ele>
        <time>2026-05-12T23:46:25Z</time>
      </trkpt>
      <trkpt lat="45.87684" lon="5.80551">
        <ele>246.4</ele>
        <time>2026-05-12T23:46:26Z</time>
      </trkpt>
      <trkpt lat="45.87724" lon="5.80555">
        <ele>246.6</ele>
        <time>2026-05-12T23:46:33Z</time>
      </trkpt>
      <trkpt lat="45.87765" lon="5.80563">
        <ele>246.4</ele>
        <time>2026-05-12T23:46:40Z</time>
      </trkpt>
      <trkpt lat="45.87812" lon="5.80576">
        <ele>246.6</ele>
        <time>2026-05-12T23:46:48Z</time>
      </trkpt>
      <trkpt lat="45.87867" lon="5.80592">
        <ele>247.2</ele>
        <time>2026-05-12T23:46:58Z</time>
      </trkpt>
      <trkpt lat="45.87872" lon="5.80593">
        <ele>247.4</ele>
        <time>2026-05-12T23:46:59Z</time>
      </trkpt>
      <trkpt lat="45.87892" lon="5.80599">
        <ele>248</ele>
        <time>2026-05-12T23:47:03Z</time>
      </trkpt>
      <trkpt lat="45.87905" lon="5.80604">
        <ele>248.6</ele>
        <time>2026-05-12T23:47:06Z</time>
      </trkpt>
      <trkpt lat="45.8792" lon="5.80612">
        <ele>249.2</ele>
        <time>2026-05-12T23:47:10Z</time>
      </trkpt>
      <trkpt lat="45.87925" lon="5.80613">
        <ele>249.4</ele>
        <time>2026-05-12T23:47:11Z</time>
      </trkpt>
      <trkpt lat="45.87932" lon="5.80614">
        <ele>249.6</ele>
        <time>2026-05-12T23:47:13Z</time>
      </trkpt>
      <trkpt lat="45.87941" lon="5.80617">
        <ele>249.8</ele>
        <time>2026-05-12T23:47:15Z</time>
      </trkpt>
      <trkpt lat="45.87963" lon="5.80623">
        <ele>250.6</ele>
        <time>2026-05-12T23:47:21Z</time>
      </trkpt>
      <trkpt lat="45.87966" lon="5.80624">
        <ele>250.6</ele>
        <time>2026-05-12T23:47:22Z</time>
      </trkpt>
      <trkpt lat="45.87979" lon="5.80627">
        <ele>251.2</ele>
        <time>2026-05-12T23:47:25Z</time>
      </trkpt>
      <trkpt lat="45.87992" lon="5.8063">
        <ele>251.8</ele>
        <time>2026-05-12T23:47:28Z</time>
      </trkpt>
      <trkpt lat="45.88022" lon="5.8063">
        <ele>252.8</ele>
        <time>2026-05-12T23:47:34Z</time>
      </trkpt>
      <trkpt lat="45.88031" lon="5.8063">
        <ele>253</ele>
        <time>2026-05-12T23:47:36Z</time>
      </trkpt>
      <trkpt lat="45.88037" lon="5.80631">
        <ele>253.2</ele>
        <time>2026-05-12T23:47:37Z</time>
      </trkpt>
      <trkpt lat="45.88046" lon="5.80632">
        <ele>253.4</ele>
        <time>2026-05-12T23:47:39Z</time>
      </trkpt>
      <trkpt lat="45.88055" lon="5.80632">
        <ele>253.6</ele>
        <time>2026-05-12T23:47:41Z</time>
      </trkpt>
      <trkpt lat="45.88066" lon="5.80633">
        <ele>253.8</ele>
        <time>2026-05-12T23:47:44Z</time>
      </trkpt>
      <trkpt lat="45.88071" lon="5.80634">
        <ele>254</ele>
        <time>2026-05-12T23:47:45Z</time>
      </trkpt>
      <trkpt lat="45.88092" lon="5.80632">
        <ele>254.2</ele>
        <time>2026-05-12T23:47:49Z</time>
      </trkpt>
      <trkpt lat="45.88125" lon="5.8063">
        <ele>255</ele>
        <time>2026-05-12T23:47:55Z</time>
      </trkpt>
      <trkpt lat="45.88141" lon="5.80631">
        <ele>255</ele>
        <time>2026-05-12T23:47:58Z</time>
      </trkpt>
      <trkpt lat="45.88162" lon="5.80637">
        <ele>255.2</ele>
        <time>2026-05-12T23:48:02Z</time>
      </trkpt>
      <trkpt lat="45.88196" lon="5.80641">
        <ele>255</ele>
        <time>2026-05-12T23:48:08Z</time>
      </trkpt>
      <trkpt lat="45.88203" lon="5.80641">
        <ele>254.8</ele>
        <time>2026-05-12T23:48:09Z</time>
      </trkpt>
      <trkpt lat="45.88223" lon="5.80642">
        <ele>254.6</ele>
        <time>2026-05-12T23:48:12Z</time>
      </trkpt>
      <trkpt lat="45.8826" lon="5.80643">
        <ele>253.6</ele>
        <time>2026-05-12T23:48:17Z</time>
      </trkpt>
      <trkpt lat="45.88267" lon="5.80644">
        <ele>253.4</ele>
        <time>2026-05-12T23:48:18Z</time>
      </trkpt>
      <trkpt lat="45.88305" lon="5.80651">
        <ele>252.6</ele>
        <time>2026-05-12T23:48:23Z</time>
      </trkpt>
      <trkpt lat="45.88314" lon="5.80653">
        <ele>252.4</ele>
        <time>2026-05-12T23:48:24Z</time>
      </trkpt>
      <trkpt lat="45.88338" lon="5.80658">
        <ele>251.6</ele>
        <time>2026-05-12T23:48:27Z</time>
      </trkpt>
      <trkpt lat="45.88362" lon="5.80663">
        <ele>251</ele>
        <time>2026-05-12T23:48:30Z</time>
      </trkpt>
      <trkpt lat="45.88379" lon="5.80667">
        <ele>250.4</ele>
        <time>2026-05-12T23:48:32Z</time>
      </trkpt>
      <trkpt lat="45.88414" lon="5.80674">
        <ele>249.4</ele>
        <time>2026-05-12T23:48:36Z</time>
      </trkpt>
      <trkpt lat="45.88449" lon="5.80683">
        <ele>248</ele>
        <time>2026-05-12T23:48:40Z</time>
      </trkpt>
      <trkpt lat="45.88475" lon="5.8069">
        <ele>247</ele>
        <time>2026-05-12T23:48:43Z</time>
      </trkpt>
      <trkpt lat="45.885" lon="5.80697">
        <ele>246.2</ele>
        <time>2026-05-12T23:48:46Z</time>
      </trkpt>
      <trkpt lat="45.88516" lon="5.80702">
        <ele>245.6</ele>
        <time>2026-05-12T23:48:48Z</time>
      </trkpt>
      <trkpt lat="45.88565" lon="5.80715">
        <ele>244.6</ele>
        <time>2026-05-12T23:48:54Z</time>
      </trkpt>
      <trkpt lat="45.88581" lon="5.80719">
        <ele>244.4</ele>
        <time>2026-05-12T23:48:56Z</time>
      </trkpt>
      <trkpt lat="45.88603" lon="5.80723">
        <ele>244</ele>
        <time>2026-05-12T23:48:59Z</time>
      </trkpt>
      <trkpt lat="45.88618" lon="5.80727">
        <ele>243.8</ele>
        <time>2026-05-12T23:49:01Z</time>
      </trkpt>
      <trkpt lat="45.88649" lon="5.80731">
        <ele>243.6</ele>
        <time>2026-05-12T23:49:05Z</time>
      </trkpt>
      <trkpt lat="45.88672" lon="5.80731">
        <ele>243.4</ele>
        <time>2026-05-12T23:49:08Z</time>
      </trkpt>
      <trkpt lat="45.88724" lon="5.80726">
        <ele>242.8</ele>
        <time>2026-05-12T23:49:15Z</time>
      </trkpt>
      <trkpt lat="45.88772" lon="5.80718">
        <ele>242.6</ele>
        <time>2026-05-12T23:49:22Z</time>
      </trkpt>
      <trkpt lat="45.88779" lon="5.80717">
        <ele>242.6</ele>
        <time>2026-05-12T23:49:23Z</time>
      </trkpt>
      <trkpt lat="45.88821" lon="5.80709">
        <ele>242.6</ele>
        <time>2026-05-12T23:49:30Z</time>
      </trkpt>
      <trkpt lat="45.88879" lon="5.80698">
        <ele>243.6</ele>
        <time>2026-05-12T23:49:40Z</time>
      </trkpt>
      <trkpt lat="45.88885" lon="5.80696">
        <ele>243.6</ele>
        <time>2026-05-12T23:49:41Z</time>
      </trkpt>
      <trkpt lat="45.88926" lon="5.80687">
        <ele>244</ele>
        <time>2026-05-12T23:49:48Z</time>
      </trkpt>
      <trkpt lat="45.88962" lon="5.80679">
        <ele>244</ele>
        <time>2026-05-12T23:49:54Z</time>
      </trkpt>
      <trkpt lat="45.88968" lon="5.80678">
        <ele>244</ele>
        <time>2026-05-12T23:49:55Z</time>
      </trkpt>
      <trkpt lat="45.89012" lon="5.80676">
        <ele>244.2</ele>
        <time>2026-05-12T23:50:02Z</time>
      </trkpt>
      <trkpt lat="45.89053" lon="5.80683">
        <ele>244.2</ele>
        <time>2026-05-12T23:50:09Z</time>
      </trkpt>
      <trkpt lat="45.89098" lon="5.807">
        <ele>244.6</ele>
        <time>2026-05-12T23:50:17Z</time>
      </trkpt>
      <trkpt lat="45.89104" lon="5.80702">
        <ele>244.6</ele>
        <time>2026-05-12T23:50:18Z</time>
      </trkpt>
      <trkpt lat="45.89156" lon="5.80724">
        <ele>244.8</ele>
        <time>2026-05-12T23:50:27Z</time>
      </trkpt>
      <trkpt lat="45.89162" lon="5.80727">
        <ele>245</ele>
        <time>2026-05-12T23:50:28Z</time>
      </trkpt>
      <trkpt lat="45.89209" lon="5.80758">
        <ele>244.6</ele>
        <time>2026-05-12T23:50:36Z</time>
      </trkpt>
      <trkpt lat="45.89249" lon="5.80779">
        <ele>244</ele>
        <time>2026-05-12T23:50:42Z</time>
      </trkpt>
      <trkpt lat="45.89286" lon="5.80791">
        <ele>243.4</ele>
        <time>2026-05-12T23:50:47Z</time>
      </trkpt>
      <trkpt lat="45.893" lon="5.80796">
        <ele>243</ele>
        <time>2026-05-12T23:50:49Z</time>
      </trkpt>
      <trkpt lat="45.89354" lon="5.80812">
        <ele>242.6</ele>
        <time>2026-05-12T23:50:57Z</time>
      </trkpt>
      <trkpt lat="45.89381" lon="5.80822">
        <ele>243</ele>
        <time>2026-05-12T23:51:02Z</time>
      </trkpt>
      <trkpt lat="45.89404" lon="5.8083">
        <ele>243.8</ele>
        <time>2026-05-12T23:51:07Z</time>
      </trkpt>
      <trkpt lat="45.89417" lon="5.80834">
        <ele>244.4</ele>
        <time>2026-05-12T23:51:10Z</time>
      </trkpt>
      <trkpt lat="45.89432" lon="5.80839">
        <ele>245.6</ele>
        <time>2026-05-12T23:51:14Z</time>
      </trkpt>
      <trkpt lat="45.89438" lon="5.8084">
        <ele>245.8</ele>
        <time>2026-05-12T23:51:15Z</time>
      </trkpt>
      <trkpt lat="45.89454" lon="5.80844">
        <ele>246.6</ele>
        <time>2026-05-12T23:51:19Z</time>
      </trkpt>
      <trkpt lat="45.89458" lon="5.80844">
        <ele>246.8</ele>
        <time>2026-05-12T23:51:20Z</time>
      </trkpt>
      <trkpt lat="45.89475" lon="5.80848">
        <ele>247.8</ele>
        <time>2026-05-12T23:51:24Z</time>
      </trkpt>
      <trkpt lat="45.89501" lon="5.80857">
        <ele>248.8</ele>
        <time>2026-05-12T23:51:30Z</time>
      </trkpt>
      <trkpt lat="45.89513" lon="5.8086">
        <ele>249.2</ele>
        <time>2026-05-12T23:51:33Z</time>
      </trkpt>
      <trkpt lat="45.89522" lon="5.8086">
        <ele>249.4</ele>
        <time>2026-05-12T23:51:35Z</time>
      </trkpt>
      <trkpt lat="45.8953" lon="5.80859">
        <ele>249.6</ele>
        <time>2026-05-12T23:51:37Z</time>
      </trkpt>
      <trkpt lat="45.89534" lon="5.80858">
        <ele>249.8</ele>
        <time>2026-05-12T23:51:38Z</time>
      </trkpt>
      <trkpt lat="45.8954" lon="5.80856">
        <ele>250</ele>
        <time>2026-05-12T23:51:39Z</time>
      </trkpt>
      <trkpt lat="45.89557" lon="5.80846">
        <ele>250.2</ele>
        <time>2026-05-12T23:51:43Z</time>
      </trkpt>
      <trkpt lat="45.89584" lon="5.80819">
        <ele>250.4</ele>
        <time>2026-05-12T23:51:49Z</time>
      </trkpt>
      <trkpt lat="45.89625" lon="5.80768">
        <ele>249.2</ele>
        <time>2026-05-12T23:51:58Z</time>
      </trkpt>
      <trkpt lat="45.89643" lon="5.80749">
        <ele>248.8</ele>
        <time>2026-05-12T23:52:01Z</time>
      </trkpt>
      <trkpt lat="45.89656" lon="5.80738">
        <ele>248.4</ele>
        <time>2026-05-12T23:52:03Z</time>
      </trkpt>
      <trkpt lat="45.89671" lon="5.80728">
        <ele>248</ele>
        <time>2026-05-12T23:52:05Z</time>
      </trkpt>
      <trkpt lat="45.89679" lon="5.80725">
        <ele>247.8</ele>
        <time>2026-05-12T23:52:06Z</time>
      </trkpt>
      <trkpt lat="45.89686" lon="5.80723">
        <ele>247.6</ele>
        <time>2026-05-12T23:52:07Z</time>
      </trkpt>
      <trkpt lat="45.89709" lon="5.8072">
        <ele>246.6</ele>
        <time>2026-05-12T23:52:10Z</time>
      </trkpt>
      <trkpt lat="45.89724" lon="5.80719">
        <ele>246.4</ele>
        <time>2026-05-12T23:52:12Z</time>
      </trkpt>
      <trkpt lat="45.89779" lon="5.80717">
        <ele>246</ele>
        <time>2026-05-12T23:52:20Z</time>
      </trkpt>
      <trkpt lat="45.89815" lon="5.80717">
        <ele>246.6</ele>
        <time>2026-05-12T23:52:26Z</time>
      </trkpt>
      <trkpt lat="45.89874" lon="5.80715">
        <ele>247.2</ele>
        <time>2026-05-12T23:52:36Z</time>
      </trkpt>
      <trkpt lat="45.8992" lon="5.80713">
        <ele>247.2</ele>
        <time>2026-05-12T23:52:43Z</time>
      </trkpt>
      <trkpt lat="45.89963" lon="5.80713">
        <ele>246.4</ele>
        <time>2026-05-12T23:52:49Z</time>
      </trkpt>
      <trkpt lat="45.89991" lon="5.80716">
        <ele>245.8</ele>
        <time>2026-05-12T23:52:53Z</time>
      </trkpt>
      <trkpt lat="45.89998" lon="5.80716">
        <ele>245.8</ele>
        <time>2026-05-12T23:52:54Z</time>
      </trkpt>
      <trkpt lat="45.90047" lon="5.80706">
        <ele>245.2</ele>
        <time>2026-05-12T23:53:01Z</time>
      </trkpt>
      <trkpt lat="45.90107" lon="5.80701">
        <ele>245</ele>
        <time>2026-05-12T23:53:10Z</time>
      </trkpt>
      <trkpt lat="45.90113" lon="5.80701">
        <ele>244.8</ele>
        <time>2026-05-12T23:53:11Z</time>
      </trkpt>
      <trkpt lat="45.90155" lon="5.807">
        <ele>245.2</ele>
        <time>2026-05-12T23:53:18Z</time>
      </trkpt>
      <trkpt lat="45.9021" lon="5.80698">
        <ele>245.8</ele>
        <time>2026-05-12T23:53:28Z</time>
      </trkpt>
      <trkpt lat="45.90243" lon="5.80695">
        <ele>246.8</ele>
        <time>2026-05-12T23:53:35Z</time>
      </trkpt>
      <trkpt lat="45.90253" lon="5.80695">
        <ele>247</ele>
        <time>2026-05-12T23:53:37Z</time>
      </trkpt>
      <trkpt lat="45.90288" lon="5.80694">
        <ele>247.8</ele>
        <time>2026-05-12T23:53:44Z</time>
      </trkpt>
      <trkpt lat="45.90291" lon="5.80694">
        <ele>248</ele>
        <time>2026-05-12T23:53:45Z</time>
      </trkpt>
      <trkpt lat="45.90321" lon="5.80699">
        <ele>249</ele>
        <time>2026-05-12T23:53:51Z</time>
      </trkpt>
      <trkpt lat="45.90325" lon="5.80701">
        <ele>249.2</ele>
        <time>2026-05-12T23:53:52Z</time>
      </trkpt>
      <trkpt lat="45.90361" lon="5.80714">
        <ele>250.2</ele>
        <time>2026-05-12T23:54:00Z</time>
      </trkpt>
      <trkpt lat="45.9037" lon="5.80718">
        <ele>250.6</ele>
        <time>2026-05-12T23:54:02Z</time>
      </trkpt>
      <trkpt lat="45.90389" lon="5.80728">
        <ele>251.4</ele>
        <time>2026-05-12T23:54:07Z</time>
      </trkpt>
      <trkpt lat="45.90393" lon="5.8073">
        <ele>251.8</ele>
        <time>2026-05-12T23:54:08Z</time>
      </trkpt>
      <trkpt lat="45.90419" lon="5.80744">
        <ele>253</ele>
        <time>2026-05-12T23:54:15Z</time>
      </trkpt>
      <trkpt lat="45.90435" lon="5.80753">
        <ele>253.6</ele>
        <time>2026-05-12T23:54:19Z</time>
      </trkpt>
      <trkpt lat="45.90446" lon="5.8076">
        <ele>254.2</ele>
        <time>2026-05-12T23:54:22Z</time>
      </trkpt>
      <trkpt lat="45.90469" lon="5.8077">
        <ele>254.8</ele>
        <time>2026-05-12T23:54:28Z</time>
      </trkpt>
      <trkpt lat="45.9048" lon="5.80777">
        <ele>255.2</ele>
        <time>2026-05-12T23:54:31Z</time>
      </trkpt>
      <trkpt lat="45.90504" lon="5.80789">
        <ele>255.8</ele>
        <time>2026-05-12T23:54:37Z</time>
      </trkpt>
      <trkpt lat="45.90514" lon="5.80794">
        <ele>256.2</ele>
        <time>2026-05-12T23:54:39Z</time>
      </trkpt>
      <trkpt lat="45.90539" lon="5.8081">
        <ele>256.6</ele>
        <time>2026-05-12T23:54:44Z</time>
      </trkpt>
      <trkpt lat="45.90578" lon="5.80832">
        <ele>257</ele>
        <time>2026-05-12T23:54:51Z</time>
      </trkpt>
      <trkpt lat="45.90601" lon="5.80841">
        <ele>256.8</ele>
        <time>2026-05-12T23:54:55Z</time>
      </trkpt>
      <trkpt lat="45.90613" lon="5.80842">
        <ele>256.6</ele>
        <time>2026-05-12T23:54:57Z</time>
      </trkpt>
      <trkpt lat="45.90637" lon="5.80839">
        <ele>256.4</ele>
        <time>2026-05-12T23:55:01Z</time>
      </trkpt>
      <trkpt lat="45.90648" lon="5.80839">
        <ele>256.2</ele>
        <time>2026-05-12T23:55:03Z</time>
      </trkpt>
      <trkpt lat="45.90654" lon="5.80841">
        <ele>256.2</ele>
        <time>2026-05-12T23:55:04Z</time>
      </trkpt>
      <trkpt lat="45.90677" lon="5.8085">
        <ele>256</ele>
        <time>2026-05-12T23:55:08Z</time>
      </trkpt>
      <trkpt lat="45.90725" lon="5.80872">
        <ele>256.4</ele>
        <time>2026-05-12T23:55:17Z</time>
      </trkpt>
      <trkpt lat="45.90773" lon="5.80892">
        <ele>255.8</ele>
        <time>2026-05-12T23:55:25Z</time>
      </trkpt>
      <trkpt lat="45.90793" lon="5.80899">
        <ele>255.4</ele>
        <time>2026-05-12T23:55:28Z</time>
      </trkpt>
      <trkpt lat="45.9083" lon="5.80914">
        <ele>254.8</ele>
        <time>2026-05-12T23:55:34Z</time>
      </trkpt>
      <trkpt lat="45.90847" lon="5.8092">
        <ele>254.8</ele>
        <time>2026-05-12T23:55:37Z</time>
      </trkpt>
      <trkpt lat="45.90869" lon="5.80924">
        <ele>254.8</ele>
        <time>2026-05-12T23:55:41Z</time>
      </trkpt>
      <trkpt lat="45.90904" lon="5.80922">
        <ele>255.6</ele>
        <time>2026-05-12T23:55:48Z</time>
      </trkpt>
      <trkpt lat="45.90935" lon="5.8092">
        <ele>256.2</ele>
        <time>2026-05-12T23:55:55Z</time>
      </trkpt>
      <trkpt lat="45.90943" lon="5.8092">
        <ele>256.6</ele>
        <time>2026-05-12T23:55:57Z</time>
      </trkpt>
      <trkpt lat="45.9095" lon="5.80919">
        <ele>257</ele>
        <time>2026-05-12T23:55:59Z</time>
      </trkpt>
      <trkpt lat="45.90958" lon="5.80917">
        <ele>257.4</ele>
        <time>2026-05-12T23:56:01Z</time>
      </trkpt>
      <trkpt lat="45.90965" lon="5.80916">
        <ele>257.8</ele>
        <time>2026-05-12T23:56:03Z</time>
      </trkpt>
      <trkpt lat="45.90982" lon="5.80911">
        <ele>258.6</ele>
        <time>2026-05-12T23:56:08Z</time>
      </trkpt>
      <trkpt lat="45.90985" lon="5.8091">
        <ele>258.8</ele>
        <time>2026-05-12T23:56:09Z</time>
      </trkpt>
      <trkpt lat="45.9101" lon="5.809">
        <ele>260</ele>
        <time>2026-05-12T23:56:16Z</time>
      </trkpt>
      <trkpt lat="45.91016" lon="5.80898">
        <ele>260.4</ele>
        <time>2026-05-12T23:56:18Z</time>
      </trkpt>
      <trkpt lat="45.91031" lon="5.80891">
        <ele>261.2</ele>
        <time>2026-05-12T23:56:23Z</time>
      </trkpt>
      <trkpt lat="45.91041" lon="5.80887">
        <ele>261.6</ele>
        <time>2026-05-12T23:56:26Z</time>
      </trkpt>
      <trkpt lat="45.91049" lon="5.80883">
        <ele>262.2</ele>
        <time>2026-05-12T23:56:29Z</time>
      </trkpt>
      <trkpt lat="45.91067" lon="5.80874">
        <ele>263.2</ele>
        <time>2026-05-12T23:56:35Z</time>
      </trkpt>
      <trkpt lat="45.91071" lon="5.80873">
        <ele>263.4</ele>
        <time>2026-05-12T23:56:36Z</time>
      </trkpt>
      <trkpt lat="45.91092" lon="5.80863">
        <ele>264.6</ele>
        <time>2026-05-12T23:56:43Z</time>
      </trkpt>
      <trkpt lat="45.91098" lon="5.8086">
        <ele>265</ele>
        <time>2026-05-12T23:56:45Z</time>
      </trkpt>
      <trkpt lat="45.91108" lon="5.80856">
        <ele>265.8</ele>
        <time>2026-05-12T23:56:48Z</time>
      </trkpt>
      <trkpt lat="45.91121" lon="5.80851">
        <ele>266.6</ele>
        <time>2026-05-12T23:56:53Z</time>
      </trkpt>
      <trkpt lat="45.91125" lon="5.80851">
        <ele>266.8</ele>
        <time>2026-05-12T23:56:54Z</time>
      </trkpt>
      <trkpt lat="45.91139" lon="5.80848">
        <ele>267.6</ele>
        <time>2026-05-12T23:56:59Z</time>
      </trkpt>
      <trkpt lat="45.91142" lon="5.80848">
        <ele>267.8</ele>
        <time>2026-05-12T23:57:00Z</time>
      </trkpt>
      <trkpt lat="45.91156" lon="5.80849">
        <ele>269</ele>
        <time>2026-05-12T23:57:05Z</time>
      </trkpt>
      <trkpt lat="45.91173" lon="5.80851">
        <ele>270.2</ele>
        <time>2026-05-12T23:57:11Z</time>
      </trkpt>
      <trkpt lat="45.91182" lon="5.80857">
        <ele>270.8</ele>
        <time>2026-05-12T23:57:16Z</time>
      </trkpt>
      <trkpt lat="45.91195" lon="5.80857">
        <ele>271</ele>
        <time>2026-05-12T23:57:22Z</time>
      </trkpt>
      <trkpt lat="45.91201" lon="5.80857">
        <ele>271.2</ele>
        <time>2026-05-12T23:57:24Z</time>
      </trkpt>
      <trkpt lat="45.91211" lon="5.80859">
        <ele>271.4</ele>
        <time>2026-05-12T23:57:28Z</time>
      </trkpt>
      <trkpt lat="45.91214" lon="5.8086">
        <ele>271.6</ele>
        <time>2026-05-12T23:57:30Z</time>
      </trkpt>
      <trkpt lat="45.91218" lon="5.80861">
        <ele>271.6</ele>
        <time>2026-05-12T23:57:32Z</time>
      </trkpt>
      <trkpt lat="45.91222" lon="5.80862">
        <ele>271.8</ele>
        <time>2026-05-12T23:57:37Z</time>
      </trkpt>
      <trkpt lat="45.91222" lon="5.80863">
        <ele>271.8</ele>
        <time>2026-05-12T23:57:38Z</time>
      </trkpt>
      <trkpt lat="45.9122" lon="5.80863">
        <ele>271.8</ele>
        <time>2026-05-12T23:57:41Z</time>
      </trkpt>
      <trkpt lat="45.91219" lon="5.80862">
        <ele>271.8</ele>
        <time>2026-05-12T23:57:42Z</time>
      </trkpt>
      <trkpt lat="45.91212" lon="5.80859">
        <ele>271.8</ele>
        <time>2026-05-12T23:57:49Z</time>
      </trkpt>
      <trkpt lat="45.91212" lon="5.80859">
        <ele>271.8</ele>
        <time>2026-05-12T23:57:50Z</time>
      </trkpt>
      <trkpt lat="45.9121" lon="5.80858">
        <ele>271.6</ele>
        <time>2026-05-12T23:57:57Z</time>
      </trkpt>
      <trkpt lat="45.91206" lon="5.80855">
        <ele>271.4</ele>
        <time>2026-05-12T23:58:00Z</time>
      </trkpt>
      <trkpt lat="45.91204" lon="5.80853">
        <ele>271.4</ele>
        <time>2026-05-12T23:58:02Z</time>
      </trkpt>
      <trkpt lat="45.91202" lon="5.80852">
        <ele>271.4</ele>
        <time>2026-05-12T23:58:05Z</time>
      </trkpt>
      <trkpt lat="45.912" lon="5.80844">
        <ele>271.8</ele>
        <time>2026-05-12T23:58:13Z</time>
      </trkpt>
      <trkpt lat="45.912" lon="5.80844">
        <ele>271.8</ele>
        <time>2026-05-12T23:58:15Z</time>
      </trkpt>
      <trkpt lat="45.91205" lon="5.80854">
        <ele>272.2</ele>
        <time>2026-05-13T00:15:16Z</time>
      </trkpt>
      <trkpt lat="45.91207" lon="5.80855">
        <ele>272.2</ele>
        <time>2026-05-13T00:15:17Z</time>
      </trkpt>
      <trkpt lat="45.91223" lon="5.8086">
        <ele>272</ele>
        <time>2026-05-13T00:15:23Z</time>
      </trkpt>
      <trkpt lat="45.9124" lon="5.80868">
        <ele>272.4</ele>
        <time>2026-05-13T00:15:30Z</time>
      </trkpt>
      <trkpt lat="45.91262" lon="5.8088">
        <ele>273.4</ele>
        <time>2026-05-13T00:15:38Z</time>
      </trkpt>
      <trkpt lat="45.91268" lon="5.80883">
        <ele>273.6</ele>
        <time>2026-05-13T00:15:40Z</time>
      </trkpt>
      <trkpt lat="45.91286" lon="5.80891">
        <ele>274.4</ele>
        <time>2026-05-13T00:15:46Z</time>
      </trkpt>
      <trkpt lat="45.91289" lon="5.80892">
        <ele>274.6</ele>
        <time>2026-05-13T00:15:47Z</time>
      </trkpt>
      <trkpt lat="45.9132" lon="5.80897">
        <ele>275.4</ele>
        <time>2026-05-13T00:15:57Z</time>
      </trkpt>
      <trkpt lat="45.91323" lon="5.80898">
        <ele>275.6</ele>
        <time>2026-05-13T00:15:58Z</time>
      </trkpt>
      <trkpt lat="45.91353" lon="5.80903">
        <ele>276.6</ele>
        <time>2026-05-13T00:16:07Z</time>
      </trkpt>
      <trkpt lat="45.91379" lon="5.80908">
        <ele>277.6</ele>
        <time>2026-05-13T00:16:15Z</time>
      </trkpt>
      <trkpt lat="45.91382" lon="5.80908">
        <ele>277.8</ele>
        <time>2026-05-13T00:16:16Z</time>
      </trkpt>
      <trkpt lat="45.91408" lon="5.80911">
        <ele>278.8</ele>
        <time>2026-05-13T00:16:24Z</time>
      </trkpt>
      <trkpt lat="45.91439" lon="5.80914">
        <ele>279.8</ele>
        <time>2026-05-13T00:16:33Z</time>
      </trkpt>
      <trkpt lat="45.9145" lon="5.80915">
        <ele>280.4</ele>
        <time>2026-05-13T00:16:36Z</time>
      </trkpt>
      <trkpt lat="45.91465" lon="5.80916">
        <ele>281</ele>
        <time>2026-05-13T00:16:40Z</time>
      </trkpt>
      <trkpt lat="45.91483" lon="5.80917">
        <ele>281.4</ele>
        <time>2026-05-13T00:16:45Z</time>
      </trkpt>
      <trkpt lat="45.915" lon="5.80917">
        <ele>282</ele>
        <time>2026-05-13T00:16:50Z</time>
      </trkpt>
      <trkpt lat="45.91513" lon="5.80918">
        <ele>282.4</ele>
        <time>2026-05-13T00:16:54Z</time>
      </trkpt>
      <trkpt lat="45.91527" lon="5.80919">
        <ele>283.2</ele>
        <time>2026-05-13T00:16:58Z</time>
      </trkpt>
      <trkpt lat="45.9154" lon="5.8092">
        <ele>283.8</ele>
        <time>2026-05-13T00:17:02Z</time>
      </trkpt>
      <trkpt lat="45.91553" lon="5.80919">
        <ele>284.4</ele>
        <time>2026-05-13T00:17:06Z</time>
      </trkpt>
      <trkpt lat="45.9157" lon="5.80918">
        <ele>285</ele>
        <time>2026-05-13T00:17:11Z</time>
      </trkpt>
      <trkpt lat="45.91584" lon="5.80916">
        <ele>285.4</ele>
        <time>2026-05-13T00:17:15Z</time>
      </trkpt>
      <trkpt lat="45.91605" lon="5.80914">
        <ele>286.2</ele>
        <time>2026-05-13T00:17:21Z</time>
      </trkpt>
      <trkpt lat="45.91612" lon="5.80913">
        <ele>286.6</ele>
        <time>2026-05-13T00:17:23Z</time>
      </trkpt>
      <trkpt lat="45.91641" lon="5.8091">
        <ele>287.2</ele>
        <time>2026-05-13T00:17:31Z</time>
      </trkpt>
      <trkpt lat="45.91648" lon="5.80908">
        <ele>287.6</ele>
        <time>2026-05-13T00:17:33Z</time>
      </trkpt>
      <trkpt lat="45.91669" lon="5.80906">
        <ele>288.6</ele>
        <time>2026-05-13T00:17:39Z</time>
      </trkpt>
      <trkpt lat="45.91672" lon="5.80906">
        <ele>288.6</ele>
        <time>2026-05-13T00:17:40Z</time>
      </trkpt>
      <trkpt lat="45.91698" lon="5.80903">
        <ele>289.4</ele>
        <time>2026-05-13T00:17:48Z</time>
      </trkpt>
      <trkpt lat="45.91704" lon="5.80902">
        <ele>289.8</ele>
        <time>2026-05-13T00:17:50Z</time>
      </trkpt>
      <trkpt lat="45.91727" lon="5.809">
        <ele>290.8</ele>
        <time>2026-05-13T00:17:57Z</time>
      </trkpt>
      <trkpt lat="45.91731" lon="5.809">
        <ele>291</ele>
        <time>2026-05-13T00:17:58Z</time>
      </trkpt>
      <trkpt lat="45.91754" lon="5.80897">
        <ele>292.4</ele>
        <time>2026-05-13T00:18:05Z</time>
      </trkpt>
      <trkpt lat="45.91757" lon="5.80896">
        <ele>292.4</ele>
        <time>2026-05-13T00:18:06Z</time>
      </trkpt>
      <trkpt lat="45.91778" lon="5.80894">
        <ele>293.6</ele>
        <time>2026-05-13T00:18:12Z</time>
      </trkpt>
      <trkpt lat="45.91788" lon="5.80893">
        <ele>294</ele>
        <time>2026-05-13T00:18:15Z</time>
      </trkpt>
      <trkpt lat="45.91804" lon="5.80892">
        <ele>294.6</ele>
        <time>2026-05-13T00:18:20Z</time>
      </trkpt>
      <trkpt lat="45.91826" lon="5.80891">
        <ele>295.4</ele>
        <time>2026-05-13T00:18:27Z</time>
      </trkpt>
      <trkpt lat="45.9183" lon="5.80891">
        <ele>295.6</ele>
        <time>2026-05-13T00:18:28Z</time>
      </trkpt>
      <trkpt lat="45.91856" lon="5.80891">
        <ele>296.6</ele>
        <time>2026-05-13T00:18:36Z</time>
      </trkpt>
      <trkpt lat="45.9187" lon="5.80891">
        <ele>297.2</ele>
        <time>2026-05-13T00:18:40Z</time>
      </trkpt>
      <trkpt lat="45.91885" lon="5.80892">
        <ele>297.6</ele>
        <time>2026-05-13T00:18:44Z</time>
      </trkpt>
      <trkpt lat="45.91903" lon="5.80893">
        <ele>298</ele>
        <time>2026-05-13T00:18:49Z</time>
      </trkpt>
      <trkpt lat="45.91932" lon="5.80897">
        <ele>298.6</ele>
        <time>2026-05-13T00:18:56Z</time>
      </trkpt>
      <trkpt lat="45.91945" lon="5.809">
        <ele>298.6</ele>
        <time>2026-05-13T00:18:59Z</time>
      </trkpt>
      <trkpt lat="45.91985" lon="5.80911">
        <ele>298.4</ele>
        <time>2026-05-13T00:19:07Z</time>
      </trkpt>
      <trkpt lat="45.92035" lon="5.80925">
        <ele>297.8</ele>
        <time>2026-05-13T00:19:16Z</time>
      </trkpt>
      <trkpt lat="45.92047" lon="5.80929">
        <ele>297.6</ele>
        <time>2026-05-13T00:19:18Z</time>
      </trkpt>
      <trkpt lat="45.92088" lon="5.80941">
        <ele>297.4</ele>
        <time>2026-05-13T00:19:25Z</time>
      </trkpt>
      <trkpt lat="45.92134" lon="5.80954">
        <ele>297.6</ele>
        <time>2026-05-13T00:19:34Z</time>
      </trkpt>
      <trkpt lat="45.92159" lon="5.80957">
        <ele>298</ele>
        <time>2026-05-13T00:19:39Z</time>
      </trkpt>
      <trkpt lat="45.92174" lon="5.80958">
        <ele>298.2</ele>
        <time>2026-05-13T00:19:42Z</time>
      </trkpt>
      <trkpt lat="45.92226" lon="5.80961">
        <ele>298.4</ele>
        <time>2026-05-13T00:19:52Z</time>
      </trkpt>
      <trkpt lat="45.92277" lon="5.80965">
        <ele>298.6</ele>
        <time>2026-05-13T00:20:02Z</time>
      </trkpt>
      <trkpt lat="45.9229" lon="5.80967">
        <ele>299</ele>
        <time>2026-05-13T00:20:05Z</time>
      </trkpt>
      <trkpt lat="45.92302" lon="5.8097">
        <ele>299.4</ele>
        <time>2026-05-13T00:20:08Z</time>
      </trkpt>
      <trkpt lat="45.92313" lon="5.80972">
        <ele>300.2</ele>
        <time>2026-05-13T00:20:11Z</time>
      </trkpt>
      <trkpt lat="45.92334" lon="5.80976">
        <ele>301.2</ele>
        <time>2026-05-13T00:20:17Z</time>
      </trkpt>
      <trkpt lat="45.92358" lon="5.80979">
        <ele>302.2</ele>
        <time>2026-05-13T00:20:24Z</time>
      </trkpt>
      <trkpt lat="45.92365" lon="5.8098">
        <ele>302.6</ele>
        <time>2026-05-13T00:20:26Z</time>
      </trkpt>
      <trkpt lat="45.92382" lon="5.80982">
        <ele>303.2</ele>
        <time>2026-05-13T00:20:31Z</time>
      </trkpt>
      <trkpt lat="45.92395" lon="5.80983">
        <ele>303.8</ele>
        <time>2026-05-13T00:20:35Z</time>
      </trkpt>
      <trkpt lat="45.92411" lon="5.80984">
        <ele>304.4</ele>
        <time>2026-05-13T00:20:40Z</time>
      </trkpt>
      <trkpt lat="45.92423" lon="5.80984">
        <ele>305</ele>
        <time>2026-05-13T00:20:44Z</time>
      </trkpt>
      <trkpt lat="45.92429" lon="5.80985">
        <ele>305.4</ele>
        <time>2026-05-13T00:20:46Z</time>
      </trkpt>
      <trkpt lat="45.92445" lon="5.80987">
        <ele>306.6</ele>
        <time>2026-05-13T00:20:51Z</time>
      </trkpt>
      <trkpt lat="45.92447" lon="5.80987">
        <ele>306.6</ele>
        <time>2026-05-13T00:20:52Z</time>
      </trkpt>
      <trkpt lat="45.92465" lon="5.80989">
        <ele>307.6</ele>
        <time>2026-05-13T00:20:58Z</time>
      </trkpt>
      <trkpt lat="45.92486" lon="5.80993">
        <ele>308.6</ele>
        <time>2026-05-13T00:21:05Z</time>
      </trkpt>
      <trkpt lat="45.92489" lon="5.80993">
        <ele>308.8</ele>
        <time>2026-05-13T00:21:06Z</time>
      </trkpt>
      <trkpt lat="45.92508" lon="5.80996">
        <ele>310.2</ele>
        <time>2026-05-13T00:21:12Z</time>
      </trkpt>
      <trkpt lat="45.92523" lon="5.80997">
        <ele>311</ele>
        <time>2026-05-13T00:21:17Z</time>
      </trkpt>
      <trkpt lat="45.92529" lon="5.80998">
        <ele>311.2</ele>
        <time>2026-05-13T00:21:19Z</time>
      </trkpt>
      <trkpt lat="45.9255" lon="5.80998">
        <ele>312.2</ele>
        <time>2026-05-13T00:21:26Z</time>
      </trkpt>
      <trkpt lat="45.92556" lon="5.80998">
        <ele>312.6</ele>
        <time>2026-05-13T00:21:28Z</time>
      </trkpt>
      <trkpt lat="45.92568" lon="5.80996">
        <ele>313.4</ele>
        <time>2026-05-13T00:21:32Z</time>
      </trkpt>
      <trkpt lat="45.92582" lon="5.80992">
        <ele>314.2</ele>
        <time>2026-05-13T00:21:37Z</time>
      </trkpt>
      <trkpt lat="45.92585" lon="5.80991">
        <ele>314.6</ele>
        <time>2026-05-13T00:21:38Z</time>
      </trkpt>
      <trkpt lat="45.92602" lon="5.80986">
        <ele>315.4</ele>
        <time>2026-05-13T00:21:44Z</time>
      </trkpt>
      <trkpt lat="45.92605" lon="5.80985">
        <ele>315.6</ele>
        <time>2026-05-13T00:21:45Z</time>
      </trkpt>
      <trkpt lat="45.92622" lon="5.80978">
        <ele>316.6</ele>
        <time>2026-05-13T00:21:51Z</time>
      </trkpt>
      <trkpt lat="45.92625" lon="5.80977">
        <ele>316.8</ele>
        <time>2026-05-13T00:21:52Z</time>
      </trkpt>
      <trkpt lat="45.92649" lon="5.80972">
        <ele>317.8</ele>
        <time>2026-05-13T00:22:00Z</time>
      </trkpt>
      <trkpt lat="45.92676" lon="5.8097">
        <ele>319</ele>
        <time>2026-05-13T00:22:09Z</time>
      </trkpt>
      <trkpt lat="45.92693" lon="5.80969">
        <ele>320</ele>
        <time>2026-05-13T00:22:15Z</time>
      </trkpt>
      <trkpt lat="45.92702" lon="5.80968">
        <ele>320.4</ele>
        <time>2026-05-13T00:22:18Z</time>
      </trkpt>
      <trkpt lat="45.92711" lon="5.80968">
        <ele>321</ele>
        <time>2026-05-13T00:22:21Z</time>
      </trkpt>
      <trkpt lat="45.92729" lon="5.80966">
        <ele>322</ele>
        <time>2026-05-13T00:22:27Z</time>
      </trkpt>
      <trkpt lat="45.92738" lon="5.80965">
        <ele>322.6</ele>
        <time>2026-05-13T00:22:30Z</time>
      </trkpt>
      <trkpt lat="45.92747" lon="5.80965">
        <ele>323</ele>
        <time>2026-05-13T00:22:33Z</time>
      </trkpt>
      <trkpt lat="45.92766" lon="5.80964">
        <ele>324</ele>
        <time>2026-05-13T00:22:39Z</time>
      </trkpt>
      <trkpt lat="45.92769" lon="5.80964">
        <ele>324.2</ele>
        <time>2026-05-13T00:22:40Z</time>
      </trkpt>
      <trkpt lat="45.92799" lon="5.80967">
        <ele>325.4</ele>
        <time>2026-05-13T00:22:49Z</time>
      </trkpt>
      <trkpt lat="45.92803" lon="5.80967">
        <ele>325.4</ele>
        <time>2026-05-13T00:22:50Z</time>
      </trkpt>
      <trkpt lat="45.92836" lon="5.80973">
        <ele>326.4</ele>
        <time>2026-05-13T00:22:59Z</time>
      </trkpt>
      <trkpt lat="45.92877" lon="5.80986">
        <ele>327.2</ele>
        <time>2026-05-13T00:23:09Z</time>
      </trkpt>
      <trkpt lat="45.92894" lon="5.80994">
        <ele>327.4</ele>
        <time>2026-05-13T00:23:13Z</time>
      </trkpt>
      <trkpt lat="45.92914" lon="5.81006">
        <ele>327.8</ele>
        <time>2026-05-13T00:23:18Z</time>
      </trkpt>
      <trkpt lat="45.9295" lon="5.81025">
        <ele>328.6</ele>
        <time>2026-05-13T00:23:27Z</time>
      </trkpt>
      <trkpt lat="45.92953" lon="5.81027">
        <ele>328.6</ele>
        <time>2026-05-13T00:23:28Z</time>
      </trkpt>
      <trkpt lat="45.92988" lon="5.81044">
        <ele>329.8</ele>
        <time>2026-05-13T00:23:37Z</time>
      </trkpt>
      <trkpt lat="45.92992" lon="5.81046">
        <ele>329.8</ele>
        <time>2026-05-13T00:23:38Z</time>
      </trkpt>
      <trkpt lat="45.93024" lon="5.81058">
        <ele>330.6</ele>
        <time>2026-05-13T00:23:46Z</time>
      </trkpt>
      <trkpt lat="45.93029" lon="5.81059">
        <ele>330.6</ele>
        <time>2026-05-13T00:23:47Z</time>
      </trkpt>
      <trkpt lat="45.93042" lon="5.81061">
        <ele>330.8</ele>
        <time>2026-05-13T00:23:50Z</time>
      </trkpt>
      <trkpt lat="45.93054" lon="5.81061">
        <ele>331</ele>
        <time>2026-05-13T00:23:53Z</time>
      </trkpt>
      <trkpt lat="45.93101" lon="5.81064">
        <ele>331.4</ele>
        <time>2026-05-13T00:24:03Z</time>
      </trkpt>
      <trkpt lat="45.93136" lon="5.81065">
        <ele>331.4</ele>
        <time>2026-05-13T00:24:09Z</time>
      </trkpt>
      <trkpt lat="45.93181" lon="5.8107">
        <ele>330.6</ele>
        <time>2026-05-13T00:24:16Z</time>
      </trkpt>
      <trkpt lat="45.93222" lon="5.81083">
        <ele>330.2</ele>
        <time>2026-05-13T00:24:23Z</time>
      </trkpt>
      <trkpt lat="45.93246" lon="5.81094">
        <ele>330.4</ele>
        <time>2026-05-13T00:24:28Z</time>
      </trkpt>
      <trkpt lat="45.9327" lon="5.81109">
        <ele>331.6</ele>
        <time>2026-05-13T00:24:34Z</time>
      </trkpt>
      <trkpt lat="45.93285" lon="5.81118">
        <ele>332</ele>
        <time>2026-05-13T00:24:38Z</time>
      </trkpt>
      <trkpt lat="45.93307" lon="5.81132">
        <ele>333</ele>
        <time>2026-05-13T00:24:44Z</time>
      </trkpt>
      <trkpt lat="45.9331" lon="5.81134">
        <ele>333.2</ele>
        <time>2026-05-13T00:24:45Z</time>
      </trkpt>
      <trkpt lat="45.93349" lon="5.81157">
        <ele>333.8</ele>
        <time>2026-05-13T00:24:54Z</time>
      </trkpt>
      <trkpt lat="45.93386" lon="5.81172">
        <ele>334.2</ele>
        <time>2026-05-13T00:25:02Z</time>
      </trkpt>
      <trkpt lat="45.93401" lon="5.81174">
        <ele>334.6</ele>
        <time>2026-05-13T00:25:05Z</time>
      </trkpt>
      <trkpt lat="45.93422" lon="5.81175">
        <ele>334.6</ele>
        <time>2026-05-13T00:25:09Z</time>
      </trkpt>
      <trkpt lat="45.93483" lon="5.81178">
        <ele>334.2</ele>
        <time>2026-05-13T00:25:19Z</time>
      </trkpt>
      <trkpt lat="45.93536" lon="5.81188">
        <ele>333.2</ele>
        <time>2026-05-13T00:25:27Z</time>
      </trkpt>
      <trkpt lat="45.93544" lon="5.8119">
        <ele>333</ele>
        <time>2026-05-13T00:25:28Z</time>
      </trkpt>
      <trkpt lat="45.93566" lon="5.81193">
        <ele>332</ele>
        <time>2026-05-13T00:25:31Z</time>
      </trkpt>
      <trkpt lat="45.9359" lon="5.81197">
        <ele>331.4</ele>
        <time>2026-05-13T00:25:34Z</time>
      </trkpt>
      <trkpt lat="45.93606" lon="5.812">
        <ele>330.8</ele>
        <time>2026-05-13T00:25:36Z</time>
      </trkpt>
      <trkpt lat="45.93642" lon="5.81204">
        <ele>329.8</ele>
        <time>2026-05-13T00:25:41Z</time>
      </trkpt>
      <trkpt lat="45.93658" lon="5.81204">
        <ele>329.4</ele>
        <time>2026-05-13T00:25:43Z</time>
      </trkpt>
      <trkpt lat="45.93708" lon="5.81198">
        <ele>328.8</ele>
        <time>2026-05-13T00:25:50Z</time>
      </trkpt>
      <trkpt lat="45.93715" lon="5.81197">
        <ele>328.8</ele>
        <time>2026-05-13T00:25:51Z</time>
      </trkpt>
      <trkpt lat="45.93753" lon="5.81198">
        <ele>328.6</ele>
        <time>2026-05-13T00:25:57Z</time>
      </trkpt>
      <trkpt lat="45.93784" lon="5.81209">
        <ele>329.4</ele>
        <time>2026-05-13T00:26:03Z</time>
      </trkpt>
      <trkpt lat="45.93801" lon="5.81215">
        <ele>330.2</ele>
        <time>2026-05-13T00:26:07Z</time>
      </trkpt>
      <trkpt lat="45.93809" lon="5.81218">
        <ele>330.6</ele>
        <time>2026-05-13T00:26:09Z</time>
      </trkpt>
      <trkpt lat="45.93821" lon="5.81221">
        <ele>331.2</ele>
        <time>2026-05-13T00:26:12Z</time>
      </trkpt>
      <trkpt lat="45.93837" lon="5.81226">
        <ele>331.8</ele>
        <time>2026-05-13T00:26:16Z</time>
      </trkpt>
      <trkpt lat="45.93844" lon="5.81228">
        <ele>332.2</ele>
        <time>2026-05-13T00:26:18Z</time>
      </trkpt>
      <trkpt lat="45.93864" lon="5.81235">
        <ele>333.6</ele>
        <time>2026-05-13T00:26:23Z</time>
      </trkpt>
      <trkpt lat="45.93868" lon="5.81236">
        <ele>333.6</ele>
        <time>2026-05-13T00:26:24Z</time>
      </trkpt>
      <trkpt lat="45.93892" lon="5.8124">
        <ele>334.6</ele>
        <time>2026-05-13T00:26:30Z</time>
      </trkpt>
      <trkpt lat="45.93903" lon="5.81243">
        <ele>335.2</ele>
        <time>2026-05-13T00:26:33Z</time>
      </trkpt>
      <trkpt lat="45.93921" lon="5.81246">
        <ele>335.8</ele>
        <time>2026-05-13T00:26:38Z</time>
      </trkpt>
      <trkpt lat="45.93931" lon="5.81248">
        <ele>336.2</ele>
        <time>2026-05-13T00:26:41Z</time>
      </trkpt>
      <trkpt lat="45.93945" lon="5.8125">
        <ele>336.8</ele>
        <time>2026-05-13T00:26:45Z</time>
      </trkpt>
      <trkpt lat="45.9396" lon="5.81254">
        <ele>337.4</ele>
        <time>2026-05-13T00:26:49Z</time>
      </trkpt>
      <trkpt lat="45.93974" lon="5.81257">
        <ele>338</ele>
        <time>2026-05-13T00:26:53Z</time>
      </trkpt>
      <trkpt lat="45.93988" lon="5.81262">
        <ele>338.8</ele>
        <time>2026-05-13T00:26:57Z</time>
      </trkpt>
      <trkpt lat="45.93995" lon="5.81264">
        <ele>339</ele>
        <time>2026-05-13T00:26:59Z</time>
      </trkpt>
      <trkpt lat="45.94024" lon="5.81277">
        <ele>339.8</ele>
        <time>2026-05-13T00:27:07Z</time>
      </trkpt>
      <trkpt lat="45.94035" lon="5.81283">
        <ele>340</ele>
        <time>2026-05-13T00:27:10Z</time>
      </trkpt>
      <trkpt lat="45.94061" lon="5.81296">
        <ele>340.6</ele>
        <time>2026-05-13T00:27:17Z</time>
      </trkpt>
      <trkpt lat="45.94089" lon="5.8131">
        <ele>341</ele>
        <time>2026-05-13T00:27:24Z</time>
      </trkpt>
      <trkpt lat="45.9411" lon="5.81321">
        <ele>341.2</ele>
        <time>2026-05-13T00:27:29Z</time>
      </trkpt>
      <trkpt lat="45.94151" lon="5.8134">
        <ele>341</ele>
        <time>2026-05-13T00:27:37Z</time>
      </trkpt>
      <trkpt lat="45.94204" lon="5.81364">
        <ele>340.6</ele>
        <time>2026-05-13T00:27:47Z</time>
      </trkpt>
      <trkpt lat="45.94254" lon="5.81383">
        <ele>340.4</ele>
        <time>2026-05-13T00:27:56Z</time>
      </trkpt>
      <trkpt lat="45.943" lon="5.81399">
        <ele>340</ele>
        <time>2026-05-13T00:28:04Z</time>
      </trkpt>
      <trkpt lat="45.94305" lon="5.814">
        <ele>340.2</ele>
        <time>2026-05-13T00:28:05Z</time>
      </trkpt>
      <trkpt lat="45.94315" lon="5.814">
        <ele>340.2</ele>
        <time>2026-05-13T00:28:07Z</time>
      </trkpt>
      <trkpt lat="45.94321" lon="5.81398">
        <ele>340.2</ele>
        <time>2026-05-13T00:28:08Z</time>
      </trkpt>
      <trkpt lat="45.94327" lon="5.81394">
        <ele>340</ele>
        <time>2026-05-13T00:28:09Z</time>
      </trkpt>
      <trkpt lat="45.94338" lon="5.81381">
        <ele>340</ele>
        <time>2026-05-13T00:28:12Z</time>
      </trkpt>
      <trkpt lat="45.94343" lon="5.81377">
        <ele>340</ele>
        <time>2026-05-13T00:28:13Z</time>
      </trkpt>
      <trkpt lat="45.94352" lon="5.81372">
        <ele>340</ele>
        <time>2026-05-13T00:28:15Z</time>
      </trkpt>
      <trkpt lat="45.94355" lon="5.81371">
        <ele>340</ele>
        <time>2026-05-13T00:28:16Z</time>
      </trkpt>
      <trkpt lat="45.94391" lon="5.81355">
        <ele>341</ele>
        <time>2026-05-13T00:28:24Z</time>
      </trkpt>
      <trkpt lat="45.94404" lon="5.8135">
        <ele>341.4</ele>
        <time>2026-05-13T00:28:27Z</time>
      </trkpt>
      <trkpt lat="45.94432" lon="5.81339">
        <ele>341.6</ele>
        <time>2026-05-13T00:28:33Z</time>
      </trkpt>
      <trkpt lat="45.94465" lon="5.81325">
        <ele>342.4</ele>
        <time>2026-05-13T00:28:41Z</time>
      </trkpt>
      <trkpt lat="45.9447" lon="5.81323">
        <ele>342.6</ele>
        <time>2026-05-13T00:28:42Z</time>
      </trkpt>
      <trkpt lat="45.94474" lon="5.81321">
        <ele>342.6</ele>
        <time>2026-05-13T00:28:43Z</time>
      </trkpt>
      <trkpt lat="45.94489" lon="5.81316">
        <ele>343.2</ele>
        <time>2026-05-13T00:28:47Z</time>
      </trkpt>
      <trkpt lat="45.94492" lon="5.81316">
        <ele>343.2</ele>
        <time>2026-05-13T00:28:48Z</time>
      </trkpt>
      <trkpt lat="45.94496" lon="5.81315">
        <ele>343.6</ele>
        <time>2026-05-13T00:28:49Z</time>
      </trkpt>
      <trkpt lat="45.94523" lon="5.81312">
        <ele>344.6</ele>
        <time>2026-05-13T00:28:56Z</time>
      </trkpt>
      <trkpt lat="45.94527" lon="5.81312">
        <ele>344.8</ele>
        <time>2026-05-13T00:28:57Z</time>
      </trkpt>
      <trkpt lat="45.94542" lon="5.81313">
        <ele>345.6</ele>
        <time>2026-05-13T00:29:01Z</time>
      </trkpt>
      <trkpt lat="45.94562" lon="5.81312">
        <ele>346.4</ele>
        <time>2026-05-13T00:29:06Z</time>
      </trkpt>
      <trkpt lat="45.9458" lon="5.81314">
        <ele>346.6</ele>
        <time>2026-05-13T00:29:10Z</time>
      </trkpt>
      <trkpt lat="45.94597" lon="5.81314">
        <ele>347</ele>
        <time>2026-05-13T00:29:14Z</time>
      </trkpt>
      <trkpt lat="45.94634" lon="5.81317">
        <ele>347.6</ele>
        <time>2026-05-13T00:29:22Z</time>
      </trkpt>
      <trkpt lat="45.94638" lon="5.81317">
        <ele>347.8</ele>
        <time>2026-05-13T00:29:23Z</time>
      </trkpt>
      <trkpt lat="45.9467" lon="5.81317">
        <ele>348.8</ele>
        <time>2026-05-13T00:29:31Z</time>
      </trkpt>
      <trkpt lat="45.94678" lon="5.81317">
        <ele>349</ele>
        <time>2026-05-13T00:29:33Z</time>
      </trkpt>
      <trkpt lat="45.947" lon="5.8132">
        <ele>350</ele>
        <time>2026-05-13T00:29:39Z</time>
      </trkpt>
      <trkpt lat="45.94711" lon="5.8132">
        <ele>350.2</ele>
        <time>2026-05-13T00:29:42Z</time>
      </trkpt>
      <trkpt lat="45.94737" lon="5.81322">
        <ele>351</ele>
        <time>2026-05-13T00:29:48Z</time>
      </trkpt>
      <trkpt lat="45.94741" lon="5.81322">
        <ele>351.2</ele>
        <time>2026-05-13T00:29:49Z</time>
      </trkpt>
      <trkpt lat="45.9478" lon="5.81323">
        <ele>352.2</ele>
        <time>2026-05-13T00:29:59Z</time>
      </trkpt>
      <trkpt lat="45.94813" lon="5.81323">
        <ele>353.2</ele>
        <time>2026-05-13T00:30:07Z</time>
      </trkpt>
      <trkpt lat="45.94818" lon="5.81324">
        <ele>353.2</ele>
        <time>2026-05-13T00:30:08Z</time>
      </trkpt>
      <trkpt lat="45.94827" lon="5.81324">
        <ele>353.2</ele>
        <time>2026-05-13T00:30:10Z</time>
      </trkpt>
      <trkpt lat="45.94852" lon="5.81325">
        <ele>353.4</ele>
        <time>2026-05-13T00:30:15Z</time>
      </trkpt>
      <trkpt lat="45.94898" lon="5.81328">
        <ele>353.6</ele>
        <time>2026-05-13T00:30:24Z</time>
      </trkpt>
      <trkpt lat="45.9495" lon="5.8133">
        <ele>353.8</ele>
        <time>2026-05-13T00:30:33Z</time>
      </trkpt>
      <trkpt lat="45.95009" lon="5.81334">
        <ele>353.8</ele>
        <time>2026-05-13T00:30:44Z</time>
      </trkpt>
      <trkpt lat="45.95036" lon="5.81336">
        <ele>354.4</ele>
        <time>2026-05-13T00:30:50Z</time>
      </trkpt>
      <trkpt lat="45.95041" lon="5.81337">
        <ele>354.6</ele>
        <time>2026-05-13T00:30:51Z</time>
      </trkpt>
      <trkpt lat="45.95054" lon="5.81339">
        <ele>355</ele>
        <time>2026-05-13T00:30:54Z</time>
      </trkpt>
      <trkpt lat="45.95063" lon="5.81339">
        <ele>355.6</ele>
        <time>2026-05-13T00:30:56Z</time>
      </trkpt>
      <trkpt lat="45.95073" lon="5.81339">
        <ele>355.8</ele>
        <time>2026-05-13T00:30:58Z</time>
      </trkpt>
      <trkpt lat="45.95108" lon="5.81338">
        <ele>356.4</ele>
        <time>2026-05-13T00:31:05Z</time>
      </trkpt>
      <trkpt lat="45.95128" lon="5.81338">
        <ele>356.4</ele>
        <time>2026-05-13T00:31:09Z</time>
      </trkpt>
      <trkpt lat="45.95144" lon="5.81341">
        <ele>356.4</ele>
        <time>2026-05-13T00:31:12Z</time>
      </trkpt>
      <trkpt lat="45.95181" lon="5.81345">
        <ele>356.2</ele>
        <time>2026-05-13T00:31:19Z</time>
      </trkpt>
      <trkpt lat="45.95203" lon="5.81346">
        <ele>356.6</ele>
        <time>2026-05-13T00:31:24Z</time>
      </trkpt>
      <trkpt lat="45.95207" lon="5.81346">
        <ele>356.8</ele>
        <time>2026-05-13T00:31:25Z</time>
      </trkpt>
      <trkpt lat="45.95225" lon="5.81346">
        <ele>357.8</ele>
        <time>2026-05-13T00:31:30Z</time>
      </trkpt>
      <trkpt lat="45.95229" lon="5.81346">
        <ele>357.8</ele>
        <time>2026-05-13T00:31:31Z</time>
      </trkpt>
      <trkpt lat="45.95248" lon="5.81346">
        <ele>358.8</ele>
        <time>2026-05-13T00:31:37Z</time>
      </trkpt>
      <trkpt lat="45.95251" lon="5.81346">
        <ele>359</ele>
        <time>2026-05-13T00:31:38Z</time>
      </trkpt>
      <trkpt lat="45.95265" lon="5.81348">
        <ele>360</ele>
        <time>2026-05-13T00:31:43Z</time>
      </trkpt>
      <trkpt lat="45.95274" lon="5.81349">
        <ele>360.4</ele>
        <time>2026-05-13T00:31:46Z</time>
      </trkpt>
      <trkpt lat="45.9528" lon="5.81349">
        <ele>361</ele>
        <time>2026-05-13T00:31:48Z</time>
      </trkpt>
      <trkpt lat="45.95301" lon="5.81349">
        <ele>362.2</ele>
        <time>2026-05-13T00:31:55Z</time>
      </trkpt>
      <trkpt lat="45.95304" lon="5.81349">
        <ele>362.2</ele>
        <time>2026-05-13T00:31:56Z</time>
      </trkpt>
      <trkpt lat="45.95318" lon="5.81349">
        <ele>363.2</ele>
        <time>2026-05-13T00:32:01Z</time>
      </trkpt>
      <trkpt lat="45.95326" lon="5.8135">
        <ele>363.6</ele>
        <time>2026-05-13T00:32:04Z</time>
      </trkpt>
      <trkpt lat="45.95337" lon="5.8135">
        <ele>364.2</ele>
        <time>2026-05-13T00:32:08Z</time>
      </trkpt>
      <trkpt lat="45.95356" lon="5.8135">
        <ele>365.4</ele>
        <time>2026-05-13T00:32:15Z</time>
      </trkpt>
      <trkpt lat="45.95379" lon="5.8135">
        <ele>366.4</ele>
        <time>2026-05-13T00:32:24Z</time>
      </trkpt>
      <trkpt lat="45.95382" lon="5.8135">
        <ele>366.8</ele>
        <time>2026-05-13T00:32:25Z</time>
      </trkpt>
      <trkpt lat="45.95395" lon="5.8135">
        <ele>367.6</ele>
        <time>2026-05-13T00:32:30Z</time>
      </trkpt>
      <trkpt lat="45.95407" lon="5.81351">
        <ele>368.4</ele>
        <time>2026-05-13T00:32:35Z</time>
      </trkpt>
      <trkpt lat="45.9541" lon="5.81351">
        <ele>368.6</ele>
        <time>2026-05-13T00:32:36Z</time>
      </trkpt>
      <trkpt lat="45.95433" lon="5.81352">
        <ele>369.6</ele>
        <time>2026-05-13T00:32:44Z</time>
      </trkpt>
      <trkpt lat="45.95459" lon="5.81353">
        <ele>370.8</ele>
        <time>2026-05-13T00:32:53Z</time>
      </trkpt>
      <trkpt lat="45.95464" lon="5.81353">
        <ele>371.2</ele>
        <time>2026-05-13T00:32:55Z</time>
      </trkpt>
      <trkpt lat="45.95482" lon="5.81352">
        <ele>371.8</ele>
        <time>2026-05-13T00:33:01Z</time>
      </trkpt>
      <trkpt lat="45.95494" lon="5.81351">
        <ele>372.4</ele>
        <time>2026-05-13T00:33:05Z</time>
      </trkpt>
      <trkpt lat="45.95507" lon="5.8135">
        <ele>373</ele>
        <time>2026-05-13T00:33:09Z</time>
      </trkpt>
      <trkpt lat="45.95525" lon="5.81348">
        <ele>373.6</ele>
        <time>2026-05-13T00:33:14Z</time>
      </trkpt>
      <trkpt lat="45.95536" lon="5.81347">
        <ele>374.2</ele>
        <time>2026-05-13T00:33:17Z</time>
      </trkpt>
      <trkpt lat="45.95563" lon="5.81345">
        <ele>374.6</ele>
        <time>2026-05-13T00:33:24Z</time>
      </trkpt>
      <trkpt lat="45.95592" lon="5.81343">
        <ele>375.2</ele>
        <time>2026-05-13T00:33:31Z</time>
      </trkpt>
      <trkpt lat="45.95624" lon="5.81342">
        <ele>375.6</ele>
        <time>2026-05-13T00:33:38Z</time>
      </trkpt>
      <trkpt lat="45.95668" lon="5.81337">
        <ele>374.2</ele>
        <time>2026-05-13T00:33:45Z</time>
      </trkpt>
      <trkpt lat="45.95689" lon="5.81334">
        <ele>373.2</ele>
        <time>2026-05-13T00:33:48Z</time>
      </trkpt>
      <trkpt lat="45.95706" lon="5.81331">
        <ele>372.6</ele>
        <time>2026-05-13T00:33:50Z</time>
      </trkpt>
      <trkpt lat="45.95714" lon="5.8133">
        <ele>372.2</ele>
        <time>2026-05-13T00:33:51Z</time>
      </trkpt>
      <trkpt lat="45.95738" lon="5.81326">
        <ele>371</ele>
        <time>2026-05-13T00:33:54Z</time>
      </trkpt>
      <trkpt lat="45.95762" lon="5.81322">
        <ele>369.6</ele>
        <time>2026-05-13T00:33:57Z</time>
      </trkpt>
      <trkpt lat="45.95798" lon="5.81315">
        <ele>368</ele>
        <time>2026-05-13T00:34:01Z</time>
      </trkpt>
      <trkpt lat="45.95819" lon="5.81311">
        <ele>366.8</ele>
        <time>2026-05-13T00:34:03Z</time>
      </trkpt>
      <trkpt lat="45.95845" lon="5.81306">
        <ele>365.6</ele>
        <time>2026-05-13T00:34:06Z</time>
      </trkpt>
      <trkpt lat="45.95867" lon="5.81302">
        <ele>364.6</ele>
        <time>2026-05-13T00:34:08Z</time>
      </trkpt>
      <trkpt lat="45.95884" lon="5.81298">
        <ele>363.8</ele>
        <time>2026-05-13T00:34:10Z</time>
      </trkpt>
      <trkpt lat="45.95894" lon="5.81296">
        <ele>363.2</ele>
        <time>2026-05-13T00:34:11Z</time>
      </trkpt>
      <trkpt lat="45.95913" lon="5.81292">
        <ele>362</ele>
        <time>2026-05-13T00:34:13Z</time>
      </trkpt>
      <trkpt lat="45.95927" lon="5.8129">
        <ele>361.4</ele>
        <time>2026-05-13T00:34:15Z</time>
      </trkpt>
      <trkpt lat="45.95956" lon="5.81285">
        <ele>361.2</ele>
        <time>2026-05-13T00:34:20Z</time>
      </trkpt>
      <trkpt lat="45.95978" lon="5.81282">
        <ele>362.2</ele>
        <time>2026-05-13T00:34:25Z</time>
      </trkpt>
      <trkpt lat="45.95994" lon="5.81279">
        <ele>363.2</ele>
        <time>2026-05-13T00:34:29Z</time>
      </trkpt>
      <trkpt lat="45.96008" lon="5.81277">
        <ele>364</ele>
        <time>2026-05-13T00:34:33Z</time>
      </trkpt>
      <trkpt lat="45.96011" lon="5.81276">
        <ele>364.2</ele>
        <time>2026-05-13T00:34:34Z</time>
      </trkpt>
      <trkpt lat="45.96034" lon="5.81272">
        <ele>365.6</ele>
        <time>2026-05-13T00:34:41Z</time>
      </trkpt>
      <trkpt lat="45.96037" lon="5.81271">
        <ele>365.6</ele>
        <time>2026-05-13T00:34:42Z</time>
      </trkpt>
      <trkpt lat="45.96059" lon="5.81267">
        <ele>366.6</ele>
        <time>2026-05-13T00:34:49Z</time>
      </trkpt>
      <trkpt lat="45.96072" lon="5.81264">
        <ele>367.2</ele>
        <time>2026-05-13T00:34:53Z</time>
      </trkpt>
      <trkpt lat="45.96081" lon="5.81262">
        <ele>367.8</ele>
        <time>2026-05-13T00:34:56Z</time>
      </trkpt>
      <trkpt lat="45.96096" lon="5.81259">
        <ele>368.6</ele>
        <time>2026-05-13T00:35:01Z</time>
      </trkpt>
      <trkpt lat="45.96101" lon="5.81258">
        <ele>369</ele>
        <time>2026-05-13T00:35:03Z</time>
      </trkpt>
      <trkpt lat="45.96118" lon="5.81254">
        <ele>370</ele>
        <time>2026-05-13T00:35:09Z</time>
      </trkpt>
      <trkpt lat="45.9612" lon="5.81254">
        <ele>370.2</ele>
        <time>2026-05-13T00:35:10Z</time>
      </trkpt>
      <trkpt lat="45.96141" lon="5.8125">
        <ele>371.4</ele>
        <time>2026-05-13T00:35:18Z</time>
      </trkpt>
      <trkpt lat="45.96152" lon="5.81248">
        <ele>372.2</ele>
        <time>2026-05-13T00:35:22Z</time>
      </trkpt>
      <trkpt lat="45.96155" lon="5.81247">
        <ele>372.6</ele>
        <time>2026-05-13T00:35:23Z</time>
      </trkpt>
      <trkpt lat="45.9617" lon="5.81244">
        <ele>373.4</ele>
        <time>2026-05-13T00:35:28Z</time>
      </trkpt>
      <trkpt lat="45.96176" lon="5.81243">
        <ele>373.6</ele>
        <time>2026-05-13T00:35:30Z</time>
      </trkpt>
      <trkpt lat="45.96199" lon="5.81236">
        <ele>374.6</ele>
        <time>2026-05-13T00:35:38Z</time>
      </trkpt>
      <trkpt lat="45.96202" lon="5.81235">
        <ele>374.8</ele>
        <time>2026-05-13T00:35:39Z</time>
      </trkpt>
      <trkpt lat="45.96225" lon="5.81229">
        <ele>375.2</ele>
        <time>2026-05-13T00:35:46Z</time>
      </trkpt>
      <trkpt lat="45.96246" lon="5.8122">
        <ele>375.2</ele>
        <time>2026-05-13T00:35:51Z</time>
      </trkpt>
      <trkpt lat="45.96282" lon="5.81204">
        <ele>374.6</ele>
        <time>2026-05-13T00:35:57Z</time>
      </trkpt>
      <trkpt lat="45.96306" lon="5.81193">
        <ele>373.6</ele>
        <time>2026-05-13T00:36:01Z</time>
      </trkpt>
      <trkpt lat="45.96327" lon="5.81183">
        <ele>372.8</ele>
        <time>2026-05-13T00:36:04Z</time>
      </trkpt>
      <trkpt lat="45.96335" lon="5.8118">
        <ele>372.6</ele>
        <time>2026-05-13T00:36:05Z</time>
      </trkpt>
      <trkpt lat="45.96359" lon="5.81168">
        <ele>371.4</ele>
        <time>2026-05-13T00:36:08Z</time>
      </trkpt>
      <trkpt lat="45.96383" lon="5.81157">
        <ele>370.4</ele>
        <time>2026-05-13T00:36:11Z</time>
      </trkpt>
      <trkpt lat="45.96391" lon="5.81154">
        <ele>370.2</ele>
        <time>2026-05-13T00:36:12Z</time>
      </trkpt>
      <trkpt lat="45.96414" lon="5.81143">
        <ele>368.8</ele>
        <time>2026-05-13T00:36:15Z</time>
      </trkpt>
      <trkpt lat="45.96446" lon="5.81127">
        <ele>367.4</ele>
        <time>2026-05-13T00:36:19Z</time>
      </trkpt>
      <trkpt lat="45.96463" lon="5.81119">
        <ele>366.2</ele>
        <time>2026-05-13T00:36:21Z</time>
      </trkpt>
      <trkpt lat="45.96493" lon="5.81106">
        <ele>365.2</ele>
        <time>2026-05-13T00:36:25Z</time>
      </trkpt>
      <trkpt lat="45.96507" lon="5.81099">
        <ele>365.2</ele>
        <time>2026-05-13T00:36:27Z</time>
      </trkpt>
      <trkpt lat="45.96544" lon="5.81083">
        <ele>364.8</ele>
        <time>2026-05-13T00:36:33Z</time>
      </trkpt>
      <trkpt lat="45.96589" lon="5.81062">
        <ele>364.6</ele>
        <time>2026-05-13T00:36:41Z</time>
      </trkpt>
      <trkpt lat="45.96621" lon="5.81051">
        <ele>365</ele>
        <time>2026-05-13T00:36:48Z</time>
      </trkpt>
      <trkpt lat="45.96656" lon="5.81039">
        <ele>365.8</ele>
        <time>2026-05-13T00:36:56Z</time>
      </trkpt>
      <trkpt lat="45.9666" lon="5.81037">
        <ele>365.8</ele>
        <time>2026-05-13T00:36:57Z</time>
      </trkpt>
      <trkpt lat="45.96672" lon="5.81031">
        <ele>366.2</ele>
        <time>2026-05-13T00:37:00Z</time>
      </trkpt>
      <trkpt lat="45.96679" lon="5.81029">
        <ele>366.4</ele>
        <time>2026-05-13T00:37:02Z</time>
      </trkpt>
      <trkpt lat="45.96701" lon="5.81018">
        <ele>367.4</ele>
        <time>2026-05-13T00:37:08Z</time>
      </trkpt>
      <trkpt lat="45.96704" lon="5.81015">
        <ele>367.6</ele>
        <time>2026-05-13T00:37:09Z</time>
      </trkpt>
      <trkpt lat="45.9673" lon="5.81003">
        <ele>368.4</ele>
        <time>2026-05-13T00:37:16Z</time>
      </trkpt>
      <trkpt lat="45.96744" lon="5.80995">
        <ele>368.8</ele>
        <time>2026-05-13T00:37:19Z</time>
      </trkpt>
      <trkpt lat="45.96773" lon="5.80981">
        <ele>369</ele>
        <time>2026-05-13T00:37:25Z</time>
      </trkpt>
      <trkpt lat="45.96785" lon="5.80977">
        <ele>368.6</ele>
        <time>2026-05-13T00:37:27Z</time>
      </trkpt>
      <trkpt lat="45.96795" lon="5.80978">
        <ele>368.4</ele>
        <time>2026-05-13T00:37:29Z</time>
      </trkpt>
      <trkpt lat="45.96824" lon="5.80985">
        <ele>368.2</ele>
        <time>2026-05-13T00:37:35Z</time>
      </trkpt>
      <trkpt lat="45.96828" lon="5.80988">
        <ele>368.2</ele>
        <time>2026-05-13T00:37:36Z</time>
      </trkpt>
      <trkpt lat="45.96842" lon="5.80994">
        <ele>368.6</ele>
        <time>2026-05-13T00:37:40Z</time>
      </trkpt>
      <trkpt lat="45.96851" lon="5.80998">
        <ele>370</ele>
        <time>2026-05-13T00:37:43Z</time>
      </trkpt>
      <trkpt lat="45.96861" lon="5.81003">
        <ele>370.6</ele>
        <time>2026-05-13T00:37:46Z</time>
      </trkpt>
      <trkpt lat="45.96868" lon="5.81006">
        <ele>371</ele>
        <time>2026-05-13T00:37:48Z</time>
      </trkpt>
      <trkpt lat="45.96892" lon="5.81009">
        <ele>371.8</ele>
        <time>2026-05-13T00:37:54Z</time>
      </trkpt>
      <trkpt lat="45.96909" lon="5.81009">
        <ele>372</ele>
        <time>2026-05-13T00:37:58Z</time>
      </trkpt>
      <trkpt lat="45.9693" lon="5.81008">
        <ele>372.6</ele>
        <time>2026-05-13T00:38:03Z</time>
      </trkpt>
      <trkpt lat="45.96935" lon="5.81008">
        <ele>372.6</ele>
        <time>2026-05-13T00:38:04Z</time>
      </trkpt>
      <trkpt lat="45.96954" lon="5.81008">
        <ele>373</ele>
        <time>2026-05-13T00:38:09Z</time>
      </trkpt>
      <trkpt lat="45.96966" lon="5.81006">
        <ele>373.2</ele>
        <time>2026-05-13T00:38:12Z</time>
      </trkpt>
      <trkpt lat="45.96988" lon="5.81003">
        <ele>373.6</ele>
        <time>2026-05-13T00:38:17Z</time>
      </trkpt>
      <trkpt lat="45.96996" lon="5.81002">
        <ele>373.8</ele>
        <time>2026-05-13T00:38:19Z</time>
      </trkpt>
      <trkpt lat="45.97012" lon="5.80997">
        <ele>374</ele>
        <time>2026-05-13T00:38:23Z</time>
      </trkpt>
      <trkpt lat="45.97023" lon="5.80994">
        <ele>374.2</ele>
        <time>2026-05-13T00:38:26Z</time>
      </trkpt>
      <trkpt lat="45.97047" lon="5.80985">
        <ele>374.8</ele>
        <time>2026-05-13T00:38:32Z</time>
      </trkpt>
      <trkpt lat="45.97052" lon="5.80983">
        <ele>374.8</ele>
        <time>2026-05-13T00:38:33Z</time>
      </trkpt>
      <trkpt lat="45.97069" lon="5.80974">
        <ele>375.2</ele>
        <time>2026-05-13T00:38:38Z</time>
      </trkpt>
      <trkpt lat="45.97072" lon="5.80971">
        <ele>375.4</ele>
        <time>2026-05-13T00:38:39Z</time>
      </trkpt>
      <trkpt lat="45.97099" lon="5.80947">
        <ele>376</ele>
        <time>2026-05-13T00:38:48Z</time>
      </trkpt>
      <trkpt lat="45.97105" lon="5.80941">
        <ele>376.2</ele>
        <time>2026-05-13T00:38:50Z</time>
      </trkpt>
      <trkpt lat="45.97125" lon="5.80918">
        <ele>376.6</ele>
        <time>2026-05-13T00:38:57Z</time>
      </trkpt>
      <trkpt lat="45.97148" lon="5.80896">
        <ele>376.6</ele>
        <time>2026-05-13T00:39:03Z</time>
      </trkpt>
      <trkpt lat="45.97178" lon="5.80869">
        <ele>375.8</ele>
        <time>2026-05-13T00:39:09Z</time>
      </trkpt>
      <trkpt lat="45.97191" lon="5.80864">
        <ele>375</ele>
        <time>2026-05-13T00:39:11Z</time>
      </trkpt>
      <trkpt lat="45.97203" lon="5.80862">
        <ele>374.6</ele>
        <time>2026-05-13T00:39:13Z</time>
      </trkpt>
      <trkpt lat="45.97215" lon="5.80863">
        <ele>374.4</ele>
        <time>2026-05-13T00:39:15Z</time>
      </trkpt>
      <trkpt lat="45.97229" lon="5.80868">
        <ele>374.2</ele>
        <time>2026-05-13T00:39:18Z</time>
      </trkpt>
      <trkpt lat="45.97234" lon="5.80868">
        <ele>374.2</ele>
        <time>2026-05-13T00:39:19Z</time>
      </trkpt>
      <trkpt lat="45.97257" lon="5.80869">
        <ele>374.8</ele>
        <time>2026-05-13T00:39:24Z</time>
      </trkpt>
      <trkpt lat="45.97287" lon="5.80864">
        <ele>376.2</ele>
        <time>2026-05-13T00:39:31Z</time>
      </trkpt>
      <trkpt lat="45.97294" lon="5.80863">
        <ele>376.6</ele>
        <time>2026-05-13T00:39:33Z</time>
      </trkpt>
      <trkpt lat="45.97306" lon="5.80858">
        <ele>377.2</ele>
        <time>2026-05-13T00:39:36Z</time>
      </trkpt>
      <trkpt lat="45.97314" lon="5.80856">
        <ele>377.6</ele>
        <time>2026-05-13T00:39:38Z</time>
      </trkpt>
      <trkpt lat="45.97359" lon="5.80839">
        <ele>378</ele>
        <time>2026-05-13T00:39:48Z</time>
      </trkpt>
      <trkpt lat="45.97396" lon="5.80826">
        <ele>377.6</ele>
        <time>2026-05-13T00:39:55Z</time>
      </trkpt>
      <trkpt lat="45.97434" lon="5.80809">
        <ele>376.8</ele>
        <time>2026-05-13T00:40:02Z</time>
      </trkpt>
      <trkpt lat="45.97454" lon="5.808">
        <ele>376.4</ele>
        <time>2026-05-13T00:40:05Z</time>
      </trkpt>
      <trkpt lat="45.97478" lon="5.80787">
        <ele>375.6</ele>
        <time>2026-05-13T00:40:09Z</time>
      </trkpt>
      <trkpt lat="45.97489" lon="5.80781">
        <ele>375.2</ele>
        <time>2026-05-13T00:40:11Z</time>
      </trkpt>
      <trkpt lat="45.97546" lon="5.80753">
        <ele>374.4</ele>
        <time>2026-05-13T00:40:21Z</time>
      </trkpt>
      <trkpt lat="45.97561" lon="5.80748">
        <ele>374.6</ele>
        <time>2026-05-13T00:40:24Z</time>
      </trkpt>
      <trkpt lat="45.97564" lon="5.80748">
        <ele>374.6</ele>
        <time>2026-05-13T00:40:25Z</time>
      </trkpt>
      <trkpt lat="45.97586" lon="5.80749">
        <ele>375.6</ele>
        <time>2026-05-13T00:40:30Z</time>
      </trkpt>
      <trkpt lat="45.97604" lon="5.8075">
        <ele>376.4</ele>
        <time>2026-05-13T00:40:35Z</time>
      </trkpt>
      <trkpt lat="45.97608" lon="5.8075">
        <ele>376.6</ele>
        <time>2026-05-13T00:40:36Z</time>
      </trkpt>
      <trkpt lat="45.97625" lon="5.80749">
        <ele>377.6</ele>
        <time>2026-05-13T00:40:41Z</time>
      </trkpt>
      <trkpt lat="45.97631" lon="5.80749">
        <ele>377.8</ele>
        <time>2026-05-13T00:40:43Z</time>
      </trkpt>
      <trkpt lat="45.97649" lon="5.80745">
        <ele>378.6</ele>
        <time>2026-05-13T00:40:48Z</time>
      </trkpt>
      <trkpt lat="45.97666" lon="5.80743">
        <ele>379.4</ele>
        <time>2026-05-13T00:40:53Z</time>
      </trkpt>
      <trkpt lat="45.97673" lon="5.80741">
        <ele>379.6</ele>
        <time>2026-05-13T00:40:55Z</time>
      </trkpt>
      <trkpt lat="45.97695" lon="5.80735">
        <ele>380.2</ele>
        <time>2026-05-13T00:41:01Z</time>
      </trkpt>
      <trkpt lat="45.97715" lon="5.8073">
        <ele>380.8</ele>
        <time>2026-05-13T00:41:06Z</time>
      </trkpt>
      <trkpt lat="45.9773" lon="5.80726">
        <ele>381</ele>
        <time>2026-05-13T00:41:10Z</time>
      </trkpt>
      <trkpt lat="45.97771" lon="5.80712">
        <ele>381.6</ele>
        <time>2026-05-13T00:41:20Z</time>
      </trkpt>
      <trkpt lat="45.97805" lon="5.80701">
        <ele>382</ele>
        <time>2026-05-13T00:41:28Z</time>
      </trkpt>
      <trkpt lat="45.9781" lon="5.80699">
        <ele>382</ele>
        <time>2026-05-13T00:41:29Z</time>
      </trkpt>
      <trkpt lat="45.97843" lon="5.80689">
        <ele>382.2</ele>
        <time>2026-05-13T00:41:37Z</time>
      </trkpt>
      <trkpt lat="45.97873" lon="5.80682">
        <ele>383</ele>
        <time>2026-05-13T00:41:45Z</time>
      </trkpt>
      <trkpt lat="45.9788" lon="5.8068">
        <ele>383.4</ele>
        <time>2026-05-13T00:41:47Z</time>
      </trkpt>
      <trkpt lat="45.97899" lon="5.80675">
        <ele>384.2</ele>
        <time>2026-05-13T00:41:53Z</time>
      </trkpt>
      <trkpt lat="45.97902" lon="5.80675">
        <ele>384.4</ele>
        <time>2026-05-13T00:41:54Z</time>
      </trkpt>
      <trkpt lat="45.97921" lon="5.80672">
        <ele>385.4</ele>
        <time>2026-05-13T00:42:00Z</time>
      </trkpt>
      <trkpt lat="45.97929" lon="5.8067">
        <ele>385.6</ele>
        <time>2026-05-13T00:42:02Z</time>
      </trkpt>
      <trkpt lat="45.97952" lon="5.80664">
        <ele>386.4</ele>
        <time>2026-05-13T00:42:09Z</time>
      </trkpt>
      <trkpt lat="45.97956" lon="5.80663">
        <ele>386.6</ele>
        <time>2026-05-13T00:42:10Z</time>
      </trkpt>
      <trkpt lat="45.97982" lon="5.80652">
        <ele>387.6</ele>
        <time>2026-05-13T00:42:18Z</time>
      </trkpt>
      <trkpt lat="45.97993" lon="5.80645">
        <ele>387.8</ele>
        <time>2026-05-13T00:42:21Z</time>
      </trkpt>
      <trkpt lat="45.98017" lon="5.80627">
        <ele>388.6</ele>
        <time>2026-05-13T00:42:29Z</time>
      </trkpt>
      <trkpt lat="45.98038" lon="5.80613">
        <ele>389.4</ele>
        <time>2026-05-13T00:42:36Z</time>
      </trkpt>
      <trkpt lat="45.98041" lon="5.80611">
        <ele>389.6</ele>
        <time>2026-05-13T00:42:37Z</time>
      </trkpt>
      <trkpt lat="45.98055" lon="5.80602">
        <ele>390.4</ele>
        <time>2026-05-13T00:42:42Z</time>
      </trkpt>
      <trkpt lat="45.98061" lon="5.80598">
        <ele>390.8</ele>
        <time>2026-05-13T00:42:44Z</time>
      </trkpt>
      <trkpt lat="45.98074" lon="5.80592">
        <ele>391.2</ele>
        <time>2026-05-13T00:42:48Z</time>
      </trkpt>
      <trkpt lat="45.98101" lon="5.80573">
        <ele>391.8</ele>
        <time>2026-05-13T00:42:56Z</time>
      </trkpt>
      <trkpt lat="45.98133" lon="5.80548">
        <ele>392.4</ele>
        <time>2026-05-13T00:43:05Z</time>
      </trkpt>
      <trkpt lat="45.98139" lon="5.8054">
        <ele>392.4</ele>
        <time>2026-05-13T00:43:07Z</time>
      </trkpt>
      <trkpt lat="45.98142" lon="5.80529">
        <ele>392.8</ele>
        <time>2026-05-13T00:43:09Z</time>
      </trkpt>
      <trkpt lat="45.98143" lon="5.80523">
        <ele>393</ele>
        <time>2026-05-13T00:43:10Z</time>
      </trkpt>
      <trkpt lat="45.98138" lon="5.80499">
        <ele>393.2</ele>
        <time>2026-05-13T00:43:14Z</time>
      </trkpt>
      <trkpt lat="45.98131" lon="5.80487">
        <ele>393.2</ele>
        <time>2026-05-13T00:43:16Z</time>
      </trkpt>
      <trkpt lat="45.98121" lon="5.80471">
        <ele>393.2</ele>
        <time>2026-05-13T00:43:19Z</time>
      </trkpt>
      <trkpt lat="45.98099" lon="5.80432">
        <ele>392.4</ele>
        <time>2026-05-13T00:43:25Z</time>
      </trkpt>
      <trkpt lat="45.98092" lon="5.80408">
        <ele>391.8</ele>
        <time>2026-05-13T00:43:28Z</time>
      </trkpt>
      <trkpt lat="45.98088" lon="5.8039">
        <ele>391.6</ele>
        <time>2026-05-13T00:43:30Z</time>
      </trkpt>
      <trkpt lat="45.98086" lon="5.80381">
        <ele>391.6</ele>
        <time>2026-05-13T00:43:31Z</time>
      </trkpt>
      <trkpt lat="45.98081" lon="5.80322">
        <ele>391</ele>
        <time>2026-05-13T00:43:38Z</time>
      </trkpt>
      <trkpt lat="45.98079" lon="5.80302">
        <ele>390.8</ele>
        <time>2026-05-13T00:43:40Z</time>
      </trkpt>
      <trkpt lat="45.98078" lon="5.80257">
        <ele>390.8</ele>
        <time>2026-05-13T00:43:45Z</time>
      </trkpt>
      <trkpt lat="45.9808" lon="5.80249">
        <ele>390.8</ele>
        <time>2026-05-13T00:43:46Z</time>
      </trkpt>
      <trkpt lat="45.98089" lon="5.80217">
        <ele>390.2</ele>
        <time>2026-05-13T00:43:50Z</time>
      </trkpt>
      <trkpt lat="45.98093" lon="5.8021">
        <ele>390.2</ele>
        <time>2026-05-13T00:43:51Z</time>
      </trkpt>
      <trkpt lat="45.98096" lon="5.80205">
        <ele>390.2</ele>
        <time>2026-05-13T00:43:52Z</time>
      </trkpt>
      <trkpt lat="45.98106" lon="5.80193">
        <ele>390</ele>
        <time>2026-05-13T00:43:54Z</time>
      </trkpt>
      <trkpt lat="45.98117" lon="5.80185">
        <ele>390</ele>
        <time>2026-05-13T00:43:56Z</time>
      </trkpt>
      <trkpt lat="45.98127" lon="5.8018">
        <ele>390</ele>
        <time>2026-05-13T00:43:58Z</time>
      </trkpt>
      <trkpt lat="45.98151" lon="5.80174">
        <ele>390</ele>
        <time>2026-05-13T00:44:02Z</time>
      </trkpt>
      <trkpt lat="45.98191" lon="5.8017">
        <ele>390.4</ele>
        <time>2026-05-13T00:44:09Z</time>
      </trkpt>
      <trkpt lat="45.98213" lon="5.80163">
        <ele>391.2</ele>
        <time>2026-05-13T00:44:14Z</time>
      </trkpt>
      <trkpt lat="45.98217" lon="5.8016">
        <ele>391.2</ele>
        <time>2026-05-13T00:44:15Z</time>
      </trkpt>
      <trkpt lat="45.98221" lon="5.80158">
        <ele>391.4</ele>
        <time>2026-05-13T00:44:16Z</time>
      </trkpt>
      <trkpt lat="45.98235" lon="5.80147">
        <ele>392</ele>
        <time>2026-05-13T00:44:20Z</time>
      </trkpt>
      <trkpt lat="45.98238" lon="5.80144">
        <ele>392.2</ele>
        <time>2026-05-13T00:44:21Z</time>
      </trkpt>
      <trkpt lat="45.9825" lon="5.80132">
        <ele>393</ele>
        <time>2026-05-13T00:44:25Z</time>
      </trkpt>
      <trkpt lat="45.9826" lon="5.80122">
        <ele>393.4</ele>
        <time>2026-05-13T00:44:28Z</time>
      </trkpt>
      <trkpt lat="45.98268" lon="5.80115">
        <ele>394.2</ele>
        <time>2026-05-13T00:44:31Z</time>
      </trkpt>
      <trkpt lat="45.98287" lon="5.80102">
        <ele>395.2</ele>
        <time>2026-05-13T00:44:37Z</time>
      </trkpt>
      <trkpt lat="45.98291" lon="5.801">
        <ele>395.4</ele>
        <time>2026-05-13T00:44:38Z</time>
      </trkpt>
      <trkpt lat="45.9831" lon="5.80092">
        <ele>396.4</ele>
        <time>2026-05-13T00:44:44Z</time>
      </trkpt>
      <trkpt lat="45.98321" lon="5.80088">
        <ele>396.8</ele>
        <time>2026-05-13T00:44:47Z</time>
      </trkpt>
      <trkpt lat="45.98344" lon="5.80082">
        <ele>397.6</ele>
        <time>2026-05-13T00:44:54Z</time>
      </trkpt>
      <trkpt lat="45.9835" lon="5.80079">
        <ele>398.2</ele>
        <time>2026-05-13T00:44:56Z</time>
      </trkpt>
      <trkpt lat="45.98359" lon="5.80076">
        <ele>398.8</ele>
        <time>2026-05-13T00:44:59Z</time>
      </trkpt>
      <trkpt lat="45.98371" lon="5.80071">
        <ele>399.6</ele>
        <time>2026-05-13T00:45:03Z</time>
      </trkpt>
      <trkpt lat="45.98373" lon="5.8007">
        <ele>400</ele>
        <time>2026-05-13T00:45:04Z</time>
      </trkpt>
      <trkpt lat="45.98388" lon="5.80058">
        <ele>401</ele>
        <time>2026-05-13T00:45:09Z</time>
      </trkpt>
      <trkpt lat="45.98391" lon="5.80054">
        <ele>401</ele>
        <time>2026-05-13T00:45:10Z</time>
      </trkpt>
      <trkpt lat="45.98405" lon="5.80029">
        <ele>401.2</ele>
        <time>2026-05-13T00:45:15Z</time>
      </trkpt>
      <trkpt lat="45.98428" lon="5.79988">
        <ele>401.2</ele>
        <time>2026-05-13T00:45:22Z</time>
      </trkpt>
      <trkpt lat="45.98456" lon="5.79944">
        <ele>401.2</ele>
        <time>2026-05-13T00:45:30Z</time>
      </trkpt>
      <trkpt lat="45.98469" lon="5.79923">
        <ele>401.4</ele>
        <time>2026-05-13T00:45:34Z</time>
      </trkpt>
      <trkpt lat="45.98488" lon="5.79886">
        <ele>401.8</ele>
        <time>2026-05-13T00:45:41Z</time>
      </trkpt>
      <trkpt lat="45.9849" lon="5.79881">
        <ele>401.8</ele>
        <time>2026-05-13T00:45:42Z</time>
      </trkpt>
      <trkpt lat="45.98493" lon="5.79869">
        <ele>402.2</ele>
        <time>2026-05-13T00:45:44Z</time>
      </trkpt>
      <trkpt lat="45.98503" lon="5.79835">
        <ele>403.2</ele>
        <time>2026-05-13T00:45:50Z</time>
      </trkpt>
      <trkpt lat="45.98505" lon="5.7983">
        <ele>403.4</ele>
        <time>2026-05-13T00:45:51Z</time>
      </trkpt>
      <trkpt lat="45.98513" lon="5.79814">
        <ele>403.6</ele>
        <time>2026-05-13T00:45:54Z</time>
      </trkpt>
      <trkpt lat="45.9852" lon="5.79806">
        <ele>403.8</ele>
        <time>2026-05-13T00:45:56Z</time>
      </trkpt>
      <trkpt lat="45.98532" lon="5.79797">
        <ele>404</ele>
        <time>2026-05-13T00:45:59Z</time>
      </trkpt>
      <trkpt lat="45.98541" lon="5.79793">
        <ele>404.2</ele>
        <time>2026-05-13T00:46:01Z</time>
      </trkpt>
      <trkpt lat="45.98545" lon="5.79791">
        <ele>404.4</ele>
        <time>2026-05-13T00:46:02Z</time>
      </trkpt>
      <trkpt lat="45.9855" lon="5.79789">
        <ele>404.4</ele>
        <time>2026-05-13T00:46:03Z</time>
      </trkpt>
      <trkpt lat="45.98554" lon="5.79786">
        <ele>404.6</ele>
        <time>2026-05-13T00:46:04Z</time>
      </trkpt>
      <trkpt lat="45.98588" lon="5.79769">
        <ele>404.8</ele>
        <time>2026-05-13T00:46:11Z</time>
      </trkpt>
      <trkpt lat="45.9862" lon="5.79757">
        <ele>405.4</ele>
        <time>2026-05-13T00:46:18Z</time>
      </trkpt>
      <trkpt lat="45.98628" lon="5.79754">
        <ele>405.6</ele>
        <time>2026-05-13T00:46:20Z</time>
      </trkpt>
      <trkpt lat="45.98649" lon="5.79747">
        <ele>406.4</ele>
        <time>2026-05-13T00:46:25Z</time>
      </trkpt>
      <trkpt lat="45.98653" lon="5.79745">
        <ele>406.6</ele>
        <time>2026-05-13T00:46:26Z</time>
      </trkpt>
      <trkpt lat="45.98657" lon="5.79742">
        <ele>406.8</ele>
        <time>2026-05-13T00:46:27Z</time>
      </trkpt>
      <trkpt lat="45.98697" lon="5.79713">
        <ele>407.6</ele>
        <time>2026-05-13T00:46:36Z</time>
      </trkpt>
      <trkpt lat="45.98743" lon="5.79673">
        <ele>407.8</ele>
        <time>2026-05-13T00:46:46Z</time>
      </trkpt>
      <trkpt lat="45.98784" lon="5.79621">
        <ele>407.8</ele>
        <time>2026-05-13T00:46:56Z</time>
      </trkpt>
      <trkpt lat="45.9882" lon="5.79566">
        <ele>407.8</ele>
        <time>2026-05-13T00:47:06Z</time>
      </trkpt>
      <trkpt lat="45.98842" lon="5.79534">
        <ele>408.4</ele>
        <time>2026-05-13T00:47:13Z</time>
      </trkpt>
      <trkpt lat="45.98852" lon="5.7952">
        <ele>409</ele>
        <time>2026-05-13T00:47:17Z</time>
      </trkpt>
      <trkpt lat="45.98862" lon="5.79505">
        <ele>410</ele>
        <time>2026-05-13T00:47:21Z</time>
      </trkpt>
      <trkpt lat="45.98864" lon="5.79502">
        <ele>410.4</ele>
        <time>2026-05-13T00:47:22Z</time>
      </trkpt>
      <trkpt lat="45.98876" lon="5.79484">
        <ele>411.6</ele>
        <time>2026-05-13T00:47:27Z</time>
      </trkpt>
      <trkpt lat="45.98881" lon="5.79473">
        <ele>412.2</ele>
        <time>2026-05-13T00:47:30Z</time>
      </trkpt>
      <trkpt lat="45.98889" lon="5.79457">
        <ele>412.8</ele>
        <time>2026-05-13T00:47:34Z</time>
      </trkpt>
      <trkpt lat="45.98901" lon="5.79435">
        <ele>413.8</ele>
        <time>2026-05-13T00:47:40Z</time>
      </trkpt>
      <trkpt lat="45.98903" lon="5.7943">
        <ele>413.8</ele>
        <time>2026-05-13T00:47:41Z</time>
      </trkpt>
      <trkpt lat="45.98916" lon="5.79407">
        <ele>415</ele>
        <time>2026-05-13T00:47:47Z</time>
      </trkpt>
      <trkpt lat="45.98918" lon="5.79403">
        <ele>415.2</ele>
        <time>2026-05-13T00:47:48Z</time>
      </trkpt>
      <trkpt lat="45.98936" lon="5.79373">
        <ele>416</ele>
        <time>2026-05-13T00:47:55Z</time>
      </trkpt>
      <trkpt lat="45.98942" lon="5.79364">
        <ele>416</ele>
        <time>2026-05-13T00:47:57Z</time>
      </trkpt>
      <trkpt lat="45.98973" lon="5.79331">
        <ele>416.4</ele>
        <time>2026-05-13T00:48:05Z</time>
      </trkpt>
      <trkpt lat="45.99021" lon="5.79294">
        <ele>416.8</ele>
        <time>2026-05-13T00:48:16Z</time>
      </trkpt>
      <trkpt lat="45.9904" lon="5.79286">
        <ele>417</ele>
        <time>2026-05-13T00:48:20Z</time>
      </trkpt>
      <trkpt lat="45.99052" lon="5.79282">
        <ele>417.2</ele>
        <time>2026-05-13T00:48:23Z</time>
      </trkpt>
      <trkpt lat="45.99074" lon="5.79272">
        <ele>418</ele>
        <time>2026-05-13T00:48:28Z</time>
      </trkpt>
      <trkpt lat="45.99079" lon="5.79268">
        <ele>418.4</ele>
        <time>2026-05-13T00:48:29Z</time>
      </trkpt>
      <trkpt lat="45.99113" lon="5.79237">
        <ele>419</ele>
        <time>2026-05-13T00:48:37Z</time>
      </trkpt>
      <trkpt lat="45.99147" lon="5.79214">
        <ele>419.8</ele>
        <time>2026-05-13T00:48:45Z</time>
      </trkpt>
      <trkpt lat="45.99161" lon="5.79205">
        <ele>420.2</ele>
        <time>2026-05-13T00:48:48Z</time>
      </trkpt>
      <trkpt lat="45.99191" lon="5.79183">
        <ele>421</ele>
        <time>2026-05-13T00:48:55Z</time>
      </trkpt>
      <trkpt lat="45.99207" lon="5.79168">
        <ele>421.2</ele>
        <time>2026-05-13T00:48:59Z</time>
      </trkpt>
      <trkpt lat="45.99232" lon="5.79142">
        <ele>421.4</ele>
        <time>2026-05-13T00:49:05Z</time>
      </trkpt>
      <trkpt lat="45.9927" lon="5.79112">
        <ele>421.8</ele>
        <time>2026-05-13T00:49:14Z</time>
      </trkpt>
      <trkpt lat="45.99294" lon="5.79107">
        <ele>422.4</ele>
        <time>2026-05-13T00:49:19Z</time>
      </trkpt>
      <trkpt lat="45.99298" lon="5.79107">
        <ele>422.4</ele>
        <time>2026-05-13T00:49:20Z</time>
      </trkpt>
      <trkpt lat="45.99312" lon="5.79111">
        <ele>422.8</ele>
        <time>2026-05-13T00:49:23Z</time>
      </trkpt>
      <trkpt lat="45.99322" lon="5.79117">
        <ele>423</ele>
        <time>2026-05-13T00:49:25Z</time>
      </trkpt>
      <trkpt lat="45.99329" lon="5.79124">
        <ele>423.2</ele>
        <time>2026-05-13T00:49:27Z</time>
      </trkpt>
      <trkpt lat="45.99336" lon="5.79135">
        <ele>423.4</ele>
        <time>2026-05-13T00:49:29Z</time>
      </trkpt>
      <trkpt lat="45.99339" lon="5.7914">
        <ele>423.4</ele>
        <time>2026-05-13T00:49:30Z</time>
      </trkpt>
      <trkpt lat="45.99351" lon="5.79175">
        <ele>424</ele>
        <time>2026-05-13T00:49:36Z</time>
      </trkpt>
      <trkpt lat="45.99359" lon="5.79192">
        <ele>424.2</ele>
        <time>2026-05-13T00:49:39Z</time>
      </trkpt>
      <trkpt lat="45.99365" lon="5.792">
        <ele>424.6</ele>
        <time>2026-05-13T00:49:41Z</time>
      </trkpt>
      <trkpt lat="45.9937" lon="5.79204">
        <ele>424.8</ele>
        <time>2026-05-13T00:49:42Z</time>
      </trkpt>
      <trkpt lat="45.99374" lon="5.79207">
        <ele>424.8</ele>
        <time>2026-05-13T00:49:43Z</time>
      </trkpt>
      <trkpt lat="45.99388" lon="5.7921">
        <ele>425.4</ele>
        <time>2026-05-13T00:49:46Z</time>
      </trkpt>
      <trkpt lat="45.99401" lon="5.79208">
        <ele>425.6</ele>
        <time>2026-05-13T00:49:49Z</time>
      </trkpt>
      <trkpt lat="45.99406" lon="5.79206">
        <ele>425.6</ele>
        <time>2026-05-13T00:49:50Z</time>
      </trkpt>
      <trkpt lat="45.99415" lon="5.79203">
        <ele>425.8</ele>
        <time>2026-05-13T00:49:52Z</time>
      </trkpt>
      <trkpt lat="45.99419" lon="5.79202">
        <ele>425.8</ele>
        <time>2026-05-13T00:49:53Z</time>
      </trkpt>
      <trkpt lat="45.99436" lon="5.79193">
        <ele>426.6</ele>
        <time>2026-05-13T00:49:57Z</time>
      </trkpt>
      <trkpt lat="45.9944" lon="5.7919">
        <ele>426.6</ele>
        <time>2026-05-13T00:49:58Z</time>
      </trkpt>
      <trkpt lat="45.99453" lon="5.79178">
        <ele>426.6</ele>
        <time>2026-05-13T00:50:01Z</time>
      </trkpt>
      <trkpt lat="45.9946" lon="5.7917">
        <ele>426.8</ele>
        <time>2026-05-13T00:50:03Z</time>
      </trkpt>
      <trkpt lat="45.99492" lon="5.79127">
        <ele>427.4</ele>
        <time>2026-05-13T00:50:12Z</time>
      </trkpt>
      <trkpt lat="45.99503" lon="5.79113">
        <ele>427.6</ele>
        <time>2026-05-13T00:50:15Z</time>
      </trkpt>
      <trkpt lat="45.99506" lon="5.79108">
        <ele>427.6</ele>
        <time>2026-05-13T00:50:16Z</time>
      </trkpt>
      <trkpt lat="45.99513" lon="5.79093">
        <ele>428</ele>
        <time>2026-05-13T00:50:19Z</time>
      </trkpt>
      <trkpt lat="45.99516" lon="5.79087">
        <ele>428.2</ele>
        <time>2026-05-13T00:50:20Z</time>
      </trkpt>
      <trkpt lat="45.9952" lon="5.79077">
        <ele>428.4</ele>
        <time>2026-05-13T00:50:22Z</time>
      </trkpt>
      <trkpt lat="45.99523" lon="5.79062">
        <ele>428.6</ele>
        <time>2026-05-13T00:50:24Z</time>
      </trkpt>
      <trkpt lat="45.99529" lon="5.79036">
        <ele>429</ele>
        <time>2026-05-13T00:50:28Z</time>
      </trkpt>
      <trkpt lat="45.99532" lon="5.79017">
        <ele>429</ele>
        <time>2026-05-13T00:50:31Z</time>
      </trkpt>
      <trkpt lat="45.99539" lon="5.78965">
        <ele>430</ele>
        <time>2026-05-13T00:50:39Z</time>
      </trkpt>
      <trkpt lat="45.9954" lon="5.78958">
        <ele>430</ele>
        <time>2026-05-13T00:50:40Z</time>
      </trkpt>
      <trkpt lat="45.99538" lon="5.78915">
        <ele>430.8</ele>
        <time>2026-05-13T00:50:47Z</time>
      </trkpt>
      <trkpt lat="45.99534" lon="5.78892">
        <ele>431</ele>
        <time>2026-05-13T00:50:51Z</time>
      </trkpt>
      <trkpt lat="45.99533" lon="5.78879">
        <ele>431</ele>
        <time>2026-05-13T00:50:53Z</time>
      </trkpt>
      <trkpt lat="45.99533" lon="5.78868">
        <ele>431.2</ele>
        <time>2026-05-13T00:50:55Z</time>
      </trkpt>
      <trkpt lat="45.99538" lon="5.78823">
        <ele>431.6</ele>
        <time>2026-05-13T00:51:02Z</time>
      </trkpt>
      <trkpt lat="45.99546" lon="5.78791">
        <ele>432</ele>
        <time>2026-05-13T00:51:07Z</time>
      </trkpt>
      <trkpt lat="45.99547" lon="5.78785">
        <ele>432.2</ele>
        <time>2026-05-13T00:51:08Z</time>
      </trkpt>
      <trkpt lat="45.99548" lon="5.78773">
        <ele>432.4</ele>
        <time>2026-05-13T00:51:10Z</time>
      </trkpt>
      <trkpt lat="45.99549" lon="5.78758">
        <ele>432.6</ele>
        <time>2026-05-13T00:51:12Z</time>
      </trkpt>
      <trkpt lat="45.9955" lon="5.78731">
        <ele>432.8</ele>
        <time>2026-05-13T00:51:16Z</time>
      </trkpt>
      <trkpt lat="45.99553" lon="5.78704">
        <ele>433</ele>
        <time>2026-05-13T00:51:20Z</time>
      </trkpt>
      <trkpt lat="45.99558" lon="5.78687">
        <ele>433.2</ele>
        <time>2026-05-13T00:51:23Z</time>
      </trkpt>
      <trkpt lat="45.99562" lon="5.78669">
        <ele>433.4</ele>
        <time>2026-05-13T00:51:26Z</time>
      </trkpt>
      <trkpt lat="45.99565" lon="5.78651">
        <ele>433.6</ele>
        <time>2026-05-13T00:51:29Z</time>
      </trkpt>
      <trkpt lat="45.99565" lon="5.78643">
        <ele>433.8</ele>
        <time>2026-05-13T00:51:30Z</time>
      </trkpt>
      <trkpt lat="45.99565" lon="5.78617">
        <ele>434.2</ele>
        <time>2026-05-13T00:51:34Z</time>
      </trkpt>
      <trkpt lat="45.99565" lon="5.7861">
        <ele>434.4</ele>
        <time>2026-05-13T00:51:35Z</time>
      </trkpt>
      <trkpt lat="45.99566" lon="5.78579">
        <ele>434.8</ele>
        <time>2026-05-13T00:51:40Z</time>
      </trkpt>
      <trkpt lat="45.99567" lon="5.78568">
        <ele>435</ele>
        <time>2026-05-13T00:51:42Z</time>
      </trkpt>
      <trkpt lat="45.9957" lon="5.78555">
        <ele>435</ele>
        <time>2026-05-13T00:51:44Z</time>
      </trkpt>
      <trkpt lat="45.99573" lon="5.78538">
        <ele>435.2</ele>
        <time>2026-05-13T00:51:47Z</time>
      </trkpt>
      <trkpt lat="45.99578" lon="5.78527">
        <ele>435.2</ele>
        <time>2026-05-13T00:51:49Z</time>
      </trkpt>
      <trkpt lat="45.99585" lon="5.78518">
        <ele>435.2</ele>
        <time>2026-05-13T00:51:51Z</time>
      </trkpt>
      <trkpt lat="45.99593" lon="5.78513">
        <ele>435.2</ele>
        <time>2026-05-13T00:51:53Z</time>
      </trkpt>
      <trkpt lat="45.99625" lon="5.78501">
        <ele>436</ele>
        <time>2026-05-13T00:52:00Z</time>
      </trkpt>
      <trkpt lat="45.99629" lon="5.78499">
        <ele>436.2</ele>
        <time>2026-05-13T00:52:01Z</time>
      </trkpt>
      <trkpt lat="45.99634" lon="5.78498">
        <ele>436.2</ele>
        <time>2026-05-13T00:52:02Z</time>
      </trkpt>
      <trkpt lat="45.99643" lon="5.78499">
        <ele>436.6</ele>
        <time>2026-05-13T00:52:04Z</time>
      </trkpt>
      <trkpt lat="45.99647" lon="5.78502">
        <ele>436.8</ele>
        <time>2026-05-13T00:52:05Z</time>
      </trkpt>
      <trkpt lat="45.99651" lon="5.78506">
        <ele>436.8</ele>
        <time>2026-05-13T00:52:06Z</time>
      </trkpt>
      <trkpt lat="45.99657" lon="5.78514">
        <ele>437</ele>
        <time>2026-05-13T00:52:08Z</time>
      </trkpt>
      <trkpt lat="45.9966" lon="5.7852">
        <ele>437.2</ele>
        <time>2026-05-13T00:52:09Z</time>
      </trkpt>
      <trkpt lat="45.99664" lon="5.78538">
        <ele>437.4</ele>
        <time>2026-05-13T00:52:12Z</time>
      </trkpt>
      <trkpt lat="45.99666" lon="5.7855">
        <ele>437.8</ele>
        <time>2026-05-13T00:52:14Z</time>
      </trkpt>
      <trkpt lat="45.99669" lon="5.78561">
        <ele>438.2</ele>
        <time>2026-05-13T00:52:16Z</time>
      </trkpt>
      <trkpt lat="45.99672" lon="5.78564">
        <ele>438.2</ele>
        <time>2026-05-13T00:52:17Z</time>
      </trkpt>
      <trkpt lat="45.99674" lon="5.78569">
        <ele>438.4</ele>
        <time>2026-05-13T00:52:18Z</time>
      </trkpt>
      <trkpt lat="45.99681" lon="5.78575">
        <ele>438.8</ele>
        <time>2026-05-13T00:52:20Z</time>
      </trkpt>
      <trkpt lat="45.9969" lon="5.78579">
        <ele>439.2</ele>
        <time>2026-05-13T00:52:22Z</time>
      </trkpt>
      <trkpt lat="45.99694" lon="5.78579">
        <ele>439.4</ele>
        <time>2026-05-13T00:52:23Z</time>
      </trkpt>
      <trkpt lat="45.99703" lon="5.78577">
        <ele>439.6</ele>
        <time>2026-05-13T00:52:25Z</time>
      </trkpt>
      <trkpt lat="45.99706" lon="5.78576">
        <ele>439.8</ele>
        <time>2026-05-13T00:52:26Z</time>
      </trkpt>
      <trkpt lat="45.99715" lon="5.78567">
        <ele>440.4</ele>
        <time>2026-05-13T00:52:29Z</time>
      </trkpt>
      <trkpt lat="45.99731" lon="5.78543">
        <ele>441.4</ele>
        <time>2026-05-13T00:52:35Z</time>
      </trkpt>
      <trkpt lat="45.99733" lon="5.78539">
        <ele>441.6</ele>
        <time>2026-05-13T00:52:36Z</time>
      </trkpt>
      <trkpt lat="45.99744" lon="5.78519">
        <ele>442.6</ele>
        <time>2026-05-13T00:52:41Z</time>
      </trkpt>
      <trkpt lat="45.99748" lon="5.78511">
        <ele>443</ele>
        <time>2026-05-13T00:52:43Z</time>
      </trkpt>
      <trkpt lat="45.99756" lon="5.78496">
        <ele>443.6</ele>
        <time>2026-05-13T00:52:47Z</time>
      </trkpt>
      <trkpt lat="45.9976" lon="5.78486">
        <ele>444</ele>
        <time>2026-05-13T00:52:50Z</time>
      </trkpt>
      <trkpt lat="45.99771" lon="5.78469">
        <ele>444.6</ele>
        <time>2026-05-13T00:52:55Z</time>
      </trkpt>
      <trkpt lat="45.9978" lon="5.78459">
        <ele>445.2</ele>
        <time>2026-05-13T00:52:59Z</time>
      </trkpt>
      <trkpt lat="45.99785" lon="5.78453">
        <ele>445.6</ele>
        <time>2026-05-13T00:53:01Z</time>
      </trkpt>
      <trkpt lat="45.99793" lon="5.78444">
        <ele>446.2</ele>
        <time>2026-05-13T00:53:04Z</time>
      </trkpt>
      <trkpt lat="45.99804" lon="5.78434">
        <ele>447</ele>
        <time>2026-05-13T00:53:08Z</time>
      </trkpt>
      <trkpt lat="45.99815" lon="5.78426">
        <ele>447.6</ele>
        <time>2026-05-13T00:53:12Z</time>
      </trkpt>
      <trkpt lat="45.99823" lon="5.78419">
        <ele>448</ele>
        <time>2026-05-13T00:53:15Z</time>
      </trkpt>
      <trkpt lat="45.99833" lon="5.78412">
        <ele>448.6</ele>
        <time>2026-05-13T00:53:19Z</time>
      </trkpt>
      <trkpt lat="45.99838" lon="5.78408">
        <ele>449</ele>
        <time>2026-05-13T00:53:21Z</time>
      </trkpt>
      <trkpt lat="45.99852" lon="5.78397">
        <ele>450</ele>
        <time>2026-05-13T00:53:26Z</time>
      </trkpt>
      <trkpt lat="45.99855" lon="5.78394">
        <ele>450</ele>
        <time>2026-05-13T00:53:27Z</time>
      </trkpt>
      <trkpt lat="45.99871" lon="5.7838">
        <ele>451.4</ele>
        <time>2026-05-13T00:53:33Z</time>
      </trkpt>
      <trkpt lat="45.99879" lon="5.78371">
        <ele>451.8</ele>
        <time>2026-05-13T00:53:36Z</time>
      </trkpt>
      <trkpt lat="45.99887" lon="5.78364">
        <ele>452.4</ele>
        <time>2026-05-13T00:53:39Z</time>
      </trkpt>
      <trkpt lat="45.99903" lon="5.78346">
        <ele>453.4</ele>
        <time>2026-05-13T00:53:46Z</time>
      </trkpt>
      <trkpt lat="45.99916" lon="5.78334">
        <ele>454</ele>
        <time>2026-05-13T00:53:52Z</time>
      </trkpt>
      <trkpt lat="45.99922" lon="5.78327">
        <ele>454.4</ele>
        <time>2026-05-13T00:53:55Z</time>
      </trkpt>
      <trkpt lat="45.9993" lon="5.7832">
        <ele>455</ele>
        <time>2026-05-13T00:53:58Z</time>
      </trkpt>
      <trkpt lat="45.99938" lon="5.78313">
        <ele>455.4</ele>
        <time>2026-05-13T00:54:01Z</time>
      </trkpt>
      <trkpt lat="45.99951" lon="5.78302">
        <ele>456.6</ele>
        <time>2026-05-13T00:54:06Z</time>
      </trkpt>
      <trkpt lat="45.99969" lon="5.78294">
        <ele>457.6</ele>
        <time>2026-05-13T00:54:12Z</time>
      </trkpt>
      <trkpt lat="45.99971" lon="5.78294">
        <ele>457.8</ele>
        <time>2026-05-13T00:54:13Z</time>
      </trkpt>
      <trkpt lat="45.99987" lon="5.78295">
        <ele>458.6</ele>
        <time>2026-05-13T00:54:18Z</time>
      </trkpt>
      <trkpt lat="45.9999" lon="5.78296">
        <ele>458.8</ele>
        <time>2026-05-13T00:54:19Z</time>
      </trkpt>
      <trkpt lat="46.00007" lon="5.78302">
        <ele>460</ele>
        <time>2026-05-13T00:54:25Z</time>
      </trkpt>
      <trkpt lat="46.00016" lon="5.78304">
        <ele>460.6</ele>
        <time>2026-05-13T00:54:28Z</time>
      </trkpt>
      <trkpt lat="46.00022" lon="5.78304">
        <ele>461</ele>
        <time>2026-05-13T00:54:30Z</time>
      </trkpt>
      <trkpt lat="46.00037" lon="5.783">
        <ele>461.8</ele>
        <time>2026-05-13T00:54:35Z</time>
      </trkpt>
      <trkpt lat="46.00042" lon="5.78297">
        <ele>462.2</ele>
        <time>2026-05-13T00:54:37Z</time>
      </trkpt>
      <trkpt lat="46.00055" lon="5.78289">
        <ele>463.2</ele>
        <time>2026-05-13T00:54:42Z</time>
      </trkpt>
      <trkpt lat="46.00057" lon="5.78286">
        <ele>463.4</ele>
        <time>2026-05-13T00:54:43Z</time>
      </trkpt>
      <trkpt lat="46.00069" lon="5.78276">
        <ele>464.4</ele>
        <time>2026-05-13T00:54:48Z</time>
      </trkpt>
      <trkpt lat="46.00084" lon="5.78263">
        <ele>465.2</ele>
        <time>2026-05-13T00:54:54Z</time>
      </trkpt>
      <trkpt lat="46.00087" lon="5.78261">
        <ele>465.4</ele>
        <time>2026-05-13T00:54:55Z</time>
      </trkpt>
      <trkpt lat="46.00101" lon="5.78248">
        <ele>466.4</ele>
        <time>2026-05-13T00:55:01Z</time>
      </trkpt>
      <trkpt lat="46.00104" lon="5.78246">
        <ele>466.4</ele>
        <time>2026-05-13T00:55:02Z</time>
      </trkpt>
      <trkpt lat="46.00119" lon="5.78232">
        <ele>467.2</ele>
        <time>2026-05-13T00:55:08Z</time>
      </trkpt>
      <trkpt lat="46.00121" lon="5.78229">
        <ele>467.4</ele>
        <time>2026-05-13T00:55:09Z</time>
      </trkpt>
      <trkpt lat="46.00136" lon="5.78215">
        <ele>468.4</ele>
        <time>2026-05-13T00:55:15Z</time>
      </trkpt>
      <trkpt lat="46.00152" lon="5.78197">
        <ele>469.4</ele>
        <time>2026-05-13T00:55:22Z</time>
      </trkpt>
      <trkpt lat="46.00156" lon="5.7819">
        <ele>469.8</ele>
        <time>2026-05-13T00:55:24Z</time>
      </trkpt>
      <trkpt lat="46.00169" lon="5.78174">
        <ele>470.6</ele>
        <time>2026-05-13T00:55:29Z</time>
      </trkpt>
      <trkpt lat="46.00184" lon="5.78158">
        <ele>471.8</ele>
        <time>2026-05-13T00:55:35Z</time>
      </trkpt>
      <trkpt lat="46.00184" lon="5.78158">
        <ele>472</ele>
        <time>2026-05-13T00:55:36Z</time>
      </trkpt>
      <trkpt lat="46.00205" lon="5.78155">
        <ele>473</ele>
        <time>2026-05-13T00:55:42Z</time>
      </trkpt>
      <trkpt lat="46.00214" lon="5.78163">
        <ele>473.6</ele>
        <time>2026-05-13T00:55:47Z</time>
      </trkpt>
      <trkpt lat="46.0022" lon="5.78179">
        <ele>474.2</ele>
        <time>2026-05-13T00:55:50Z</time>
      </trkpt>
      <trkpt lat="46.00223" lon="5.78191">
        <ele>474.6</ele>
        <time>2026-05-13T00:55:53Z</time>
      </trkpt>
      <trkpt lat="46.00222" lon="5.78204">
        <ele>475.4</ele>
        <time>2026-05-13T00:55:57Z</time>
      </trkpt>
      <trkpt lat="46.00218" lon="5.78213">
        <ele>475.8</ele>
        <time>2026-05-13T00:55:59Z</time>
      </trkpt>
      <trkpt lat="46.00216" lon="5.78216">
        <ele>476.4</ele>
        <time>2026-05-13T00:56:01Z</time>
      </trkpt>
      <trkpt lat="46.00206" lon="5.78231">
        <ele>477.2</ele>
        <time>2026-05-13T00:56:06Z</time>
      </trkpt>
      <trkpt lat="46.00204" lon="5.78234">
        <ele>477.4</ele>
        <time>2026-05-13T00:56:08Z</time>
      </trkpt>
      <trkpt lat="46.0019" lon="5.78251">
        <ele>478.6</ele>
        <time>2026-05-13T00:56:14Z</time>
      </trkpt>
      <trkpt lat="46.00176" lon="5.78271">
        <ele>479.8</ele>
        <time>2026-05-13T00:56:20Z</time>
      </trkpt>
      <trkpt lat="46.00161" lon="5.78295">
        <ele>480.4</ele>
        <time>2026-05-13T00:56:25Z</time>
      </trkpt>
      <trkpt lat="46.00156" lon="5.78311">
        <ele>480.8</ele>
        <time>2026-05-13T00:56:28Z</time>
      </trkpt>
      <trkpt lat="46.0015" lon="5.78333">
        <ele>481.8</ele>
        <time>2026-05-13T00:56:32Z</time>
      </trkpt>
      <trkpt lat="46.0015" lon="5.7834">
        <ele>482</ele>
        <time>2026-05-13T00:56:33Z</time>
      </trkpt>
      <trkpt lat="46.00152" lon="5.78358">
        <ele>483</ele>
        <time>2026-05-13T00:56:37Z</time>
      </trkpt>
      <trkpt lat="46.00153" lon="5.78363">
        <ele>483.2</ele>
        <time>2026-05-13T00:56:39Z</time>
      </trkpt>
      <trkpt lat="46.00161" lon="5.7838">
        <ele>483.4</ele>
        <time>2026-05-13T00:56:43Z</time>
      </trkpt>
      <trkpt lat="46.0018" lon="5.78391">
        <ele>484</ele>
        <time>2026-05-13T00:56:49Z</time>
      </trkpt>
      <trkpt lat="46.00208" lon="5.78392">
        <ele>485.2</ele>
        <time>2026-05-13T00:56:56Z</time>
      </trkpt>
      <trkpt lat="46.00232" lon="5.78395">
        <ele>486.2</ele>
        <time>2026-05-13T00:57:03Z</time>
      </trkpt>
      <trkpt lat="46.0024" lon="5.78395">
        <ele>486.4</ele>
        <time>2026-05-13T00:57:05Z</time>
      </trkpt>
      <trkpt lat="46.00272" lon="5.78398">
        <ele>487.2</ele>
        <time>2026-05-13T00:57:14Z</time>
      </trkpt>
      <trkpt lat="46.0028" lon="5.78398">
        <ele>487.2</ele>
        <time>2026-05-13T00:57:15Z</time>
      </trkpt>
      <trkpt lat="46.00308" lon="5.78405">
        <ele>487.6</ele>
        <time>2026-05-13T00:57:22Z</time>
      </trkpt>
      <trkpt lat="46.00312" lon="5.78407">
        <ele>487.6</ele>
        <time>2026-05-13T00:57:23Z</time>
      </trkpt>
      <trkpt lat="46.00327" lon="5.78415">
        <ele>488</ele>
        <time>2026-05-13T00:57:27Z</time>
      </trkpt>
      <trkpt lat="46.00343" lon="5.78427">
        <ele>488.2</ele>
        <time>2026-05-13T00:57:31Z</time>
      </trkpt>
      <trkpt lat="46.00343" lon="5.78427">
        <ele>488.2</ele>
        <time>2026-05-13T00:57:32Z</time>
      </trkpt>
      <trkpt lat="46.0039" lon="5.78462">
        <ele>489.2</ele>
        <time>2026-05-13T00:57:43Z</time>
      </trkpt>
      <trkpt lat="46.00394" lon="5.78464">
        <ele>489.4</ele>
        <time>2026-05-13T00:57:44Z</time>
      </trkpt>
      <trkpt lat="46.00425" lon="5.78473">
        <ele>489.8</ele>
        <time>2026-05-13T00:57:51Z</time>
      </trkpt>
      <trkpt lat="46.00463" lon="5.78483">
        <ele>490.4</ele>
        <time>2026-05-13T00:58:00Z</time>
      </trkpt>
      <trkpt lat="46.00472" lon="5.78485">
        <ele>490.8</ele>
        <time>2026-05-13T00:58:02Z</time>
      </trkpt>
      <trkpt lat="46.00502" lon="5.78494">
        <ele>491.4</ele>
        <time>2026-05-13T00:58:09Z</time>
      </trkpt>
      <trkpt lat="46.00506" lon="5.78496">
        <ele>491.6</ele>
        <time>2026-05-13T00:58:10Z</time>
      </trkpt>
      <trkpt lat="46.00518" lon="5.78503">
        <ele>492</ele>
        <time>2026-05-13T00:58:13Z</time>
      </trkpt>
      <trkpt lat="46.0053" lon="5.78512">
        <ele>492.6</ele>
        <time>2026-05-13T00:58:16Z</time>
      </trkpt>
      <trkpt lat="46.00555" lon="5.78528">
        <ele>493.4</ele>
        <time>2026-05-13T00:58:23Z</time>
      </trkpt>
      <trkpt lat="46.0057" lon="5.78541">
        <ele>493.8</ele>
        <time>2026-05-13T00:58:26Z</time>
      </trkpt>
      <trkpt lat="46.00586" lon="5.78557">
        <ele>494</ele>
        <time>2026-05-13T00:58:30Z</time>
      </trkpt>
      <trkpt lat="46.00589" lon="5.78561">
        <ele>494</ele>
        <time>2026-05-13T00:58:31Z</time>
      </trkpt>
      <trkpt lat="46.00606" lon="5.78587">
        <ele>494</ele>
        <time>2026-05-13T00:58:36Z</time>
      </trkpt>
      <trkpt lat="46.00614" lon="5.78596">
        <ele>493.8</ele>
        <time>2026-05-13T00:58:38Z</time>
      </trkpt>
      <trkpt lat="46.00625" lon="5.78602">
        <ele>493.8</ele>
        <time>2026-05-13T00:58:40Z</time>
      </trkpt>
      <trkpt lat="46.00643" lon="5.78609">
        <ele>493.2</ele>
        <time>2026-05-13T00:58:43Z</time>
      </trkpt>
      <trkpt lat="46.00655" lon="5.78613">
        <ele>492.8</ele>
        <time>2026-05-13T00:58:45Z</time>
      </trkpt>
      <trkpt lat="46.0066" lon="5.78615">
        <ele>492.4</ele>
        <time>2026-05-13T00:58:46Z</time>
      </trkpt>
      <trkpt lat="46.00666" lon="5.78617">
        <ele>492.4</ele>
        <time>2026-05-13T00:58:47Z</time>
      </trkpt>
      <trkpt lat="46.00678" lon="5.78619">
        <ele>491.8</ele>
        <time>2026-05-13T00:58:49Z</time>
      </trkpt>
      <trkpt lat="46.00685" lon="5.78619">
        <ele>491.8</ele>
        <time>2026-05-13T00:58:50Z</time>
      </trkpt>
      <trkpt lat="46.00691" lon="5.78622">
        <ele>491.4</ele>
        <time>2026-05-13T00:58:51Z</time>
      </trkpt>
      <trkpt lat="46.00698" lon="5.78625">
        <ele>491</ele>
        <time>2026-05-13T00:58:53Z</time>
      </trkpt>
      <trkpt lat="46.00712" lon="5.7863">
        <ele>490.6</ele>
        <time>2026-05-13T00:58:54Z</time>
      </trkpt>
      <trkpt lat="46.00719" lon="5.78632">
        <ele>490.4</ele>
        <time>2026-05-13T00:58:55Z</time>
      </trkpt>
      <trkpt lat="46.00733" lon="5.78637">
        <ele>489.8</ele>
        <time>2026-05-13T00:58:57Z</time>
      </trkpt>
      <trkpt lat="46.00748" lon="5.78641">
        <ele>489.2</ele>
        <time>2026-05-13T00:58:59Z</time>
      </trkpt>
      <trkpt lat="46.00777" lon="5.7865">
        <ele>487.8</ele>
        <time>2026-05-13T00:59:03Z</time>
      </trkpt>
      <trkpt lat="46.00807" lon="5.78657">
        <ele>487</ele>
        <time>2026-05-13T00:59:07Z</time>
      </trkpt>
      <trkpt lat="46.00815" lon="5.78657">
        <ele>486.6</ele>
        <time>2026-05-13T00:59:08Z</time>
      </trkpt>
      <trkpt lat="46.00846" lon="5.7866">
        <ele>485.6</ele>
        <time>2026-05-13T00:59:13Z</time>
      </trkpt>
      <trkpt lat="46.00875" lon="5.7866">
        <ele>485.4</ele>
        <time>2026-05-13T00:59:16Z</time>
      </trkpt>
      <trkpt lat="46.00909" lon="5.78648">
        <ele>485</ele>
        <time>2026-05-13T00:59:21Z</time>
      </trkpt>
      <trkpt lat="46.00944" lon="5.78627">
        <ele>485.2</ele>
        <time>2026-05-13T00:59:27Z</time>
      </trkpt>
      <trkpt lat="46.00975" lon="5.78605">
        <ele>485.6</ele>
        <time>2026-05-13T00:59:33Z</time>
      </trkpt>
      <trkpt lat="46.00996" lon="5.78589">
        <ele>486.4</ele>
        <time>2026-05-13T00:59:39Z</time>
      </trkpt>
      <trkpt lat="46.01012" lon="5.78574">
        <ele>487</ele>
        <time>2026-05-13T00:59:43Z</time>
      </trkpt>
      <trkpt lat="46.01026" lon="5.78559">
        <ele>487.6</ele>
        <time>2026-05-13T00:59:47Z</time>
      </trkpt>
      <trkpt lat="46.01036" lon="5.78548">
        <ele>488</ele>
        <time>2026-05-13T00:59:50Z</time>
      </trkpt>
      <trkpt lat="46.01068" lon="5.7851">
        <ele>488.8</ele>
        <time>2026-05-13T00:59:58Z</time>
      </trkpt>
      <trkpt lat="46.01075" lon="5.78502">
        <ele>489</ele>
        <time>2026-05-13T01:00:01Z</time>
      </trkpt>
      <trkpt lat="46.01106" lon="5.78472">
        <ele>489.6</ele>
        <time>2026-05-13T01:00:08Z</time>
      </trkpt>
      <trkpt lat="46.01119" lon="5.78465">
        <ele>490</ele>
        <time>2026-05-13T01:00:11Z</time>
      </trkpt>
      <trkpt lat="46.01144" lon="5.78455">
        <ele>490.6</ele>
        <time>2026-05-13T01:00:17Z</time>
      </trkpt>
      <trkpt lat="46.0116" lon="5.78451">
        <ele>491.2</ele>
        <time>2026-05-13T01:00:21Z</time>
      </trkpt>
      <trkpt lat="46.01169" lon="5.7845">
        <ele>491.4</ele>
        <time>2026-05-13T01:00:23Z</time>
      </trkpt>
      <trkpt lat="46.01175" lon="5.78449">
        <ele>491.8</ele>
        <time>2026-05-13T01:00:25Z</time>
      </trkpt>
      <trkpt lat="46.0119" lon="5.78447">
        <ele>492.2</ele>
        <time>2026-05-13T01:00:29Z</time>
      </trkpt>
      <trkpt lat="46.01206" lon="5.78445">
        <ele>493.2</ele>
        <time>2026-05-13T01:00:33Z</time>
      </trkpt>
      <trkpt lat="46.0121" lon="5.78444">
        <ele>493.2</ele>
        <time>2026-05-13T01:00:34Z</time>
      </trkpt>
      <trkpt lat="46.01255" lon="5.78431">
        <ele>494.2</ele>
        <time>2026-05-13T01:00:44Z</time>
      </trkpt>
      <trkpt lat="46.01259" lon="5.78429">
        <ele>494.2</ele>
        <time>2026-05-13T01:00:45Z</time>
      </trkpt>
      <trkpt lat="46.01296" lon="5.78409">
        <ele>494.2</ele>
        <time>2026-05-13T01:00:53Z</time>
      </trkpt>
      <trkpt lat="46.01346" lon="5.78368">
        <ele>494</ele>
        <time>2026-05-13T01:01:02Z</time>
      </trkpt>
      <trkpt lat="46.01391" lon="5.78332">
        <ele>493.4</ele>
        <time>2026-05-13T01:01:11Z</time>
      </trkpt>
      <trkpt lat="46.01422" lon="5.78306">
        <ele>493.4</ele>
        <time>2026-05-13T01:01:17Z</time>
      </trkpt>
      <trkpt lat="46.01471" lon="5.78266">
        <ele>493</ele>
        <time>2026-05-13T01:01:26Z</time>
      </trkpt>
      <trkpt lat="46.01481" lon="5.78258">
        <ele>492.8</ele>
        <time>2026-05-13T01:01:28Z</time>
      </trkpt>
      <trkpt lat="46.01525" lon="5.78222">
        <ele>492.6</ele>
        <time>2026-05-13T01:01:37Z</time>
      </trkpt>
      <trkpt lat="46.01551" lon="5.78202">
        <ele>492.8</ele>
        <time>2026-05-13T01:01:43Z</time>
      </trkpt>
      <trkpt lat="46.01556" lon="5.78199">
        <ele>493</ele>
        <time>2026-05-13T01:01:44Z</time>
      </trkpt>
      <trkpt lat="46.01588" lon="5.78176">
        <ele>493.2</ele>
        <time>2026-05-13T01:01:50Z</time>
      </trkpt>
      <trkpt lat="46.01617" lon="5.78155">
        <ele>493.2</ele>
        <time>2026-05-13T01:01:56Z</time>
      </trkpt>
      <trkpt lat="46.01651" lon="5.78133">
        <ele>494</ele>
        <time>2026-05-13T01:02:03Z</time>
      </trkpt>
      <trkpt lat="46.01675" lon="5.78118">
        <ele>494.6</ele>
        <time>2026-05-13T01:02:09Z</time>
      </trkpt>
      <trkpt lat="46.01694" lon="5.78107">
        <ele>494.8</ele>
        <time>2026-05-13T01:02:12Z</time>
      </trkpt>
      <trkpt lat="46.01746" lon="5.78081">
        <ele>495.2</ele>
        <time>2026-05-13T01:02:23Z</time>
      </trkpt>
      <trkpt lat="46.01788" lon="5.78071">
        <ele>495.6</ele>
        <time>2026-05-13T01:02:30Z</time>
      </trkpt>
      <trkpt lat="46.01832" lon="5.78061">
        <ele>494.8</ele>
        <time>2026-05-13T01:02:36Z</time>
      </trkpt>
      <trkpt lat="46.0186" lon="5.78051">
        <ele>493.6</ele>
        <time>2026-05-13T01:02:40Z</time>
      </trkpt>
      <trkpt lat="46.01877" lon="5.78045">
        <ele>493</ele>
        <time>2026-05-13T01:02:42Z</time>
      </trkpt>
      <trkpt lat="46.01885" lon="5.78042">
        <ele>492.4</ele>
        <time>2026-05-13T01:02:44Z</time>
      </trkpt>
      <trkpt lat="46.01919" lon="5.78029">
        <ele>491</ele>
        <time>2026-05-13T01:02:47Z</time>
      </trkpt>
      <trkpt lat="46.01928" lon="5.78026">
        <ele>490</ele>
        <time>2026-05-13T01:02:49Z</time>
      </trkpt>
      <trkpt lat="46.01952" lon="5.78016">
        <ele>489.2</ele>
        <time>2026-05-13T01:02:51Z</time>
      </trkpt>
      <trkpt lat="46.01959" lon="5.78013">
        <ele>489</ele>
        <time>2026-05-13T01:02:52Z</time>
      </trkpt>
      <trkpt lat="46.01987" lon="5.77999">
        <ele>488.4</ele>
        <time>2026-05-13T01:02:56Z</time>
      </trkpt>
      <trkpt lat="46.02012" lon="5.77978">
        <ele>488</ele>
        <time>2026-05-13T01:03:00Z</time>
      </trkpt>
      <trkpt lat="46.02018" lon="5.77972">
        <ele>488</ele>
        <time>2026-05-13T01:03:01Z</time>
      </trkpt>
      <trkpt lat="46.02024" lon="5.77965">
        <ele>488</ele>
        <time>2026-05-13T01:03:02Z</time>
      </trkpt>
      <trkpt lat="46.02054" lon="5.77926">
        <ele>486.6</ele>
        <time>2026-05-13T01:03:07Z</time>
      </trkpt>
      <trkpt lat="46.02059" lon="5.77917">
        <ele>486.2</ele>
        <time>2026-05-13T01:03:08Z</time>
      </trkpt>
      <trkpt lat="46.02071" lon="5.77897">
        <ele>485.4</ele>
        <time>2026-05-13T01:03:10Z</time>
      </trkpt>
      <trkpt lat="46.02082" lon="5.77877">
        <ele>484.6</ele>
        <time>2026-05-13T01:03:12Z</time>
      </trkpt>
      <trkpt lat="46.02089" lon="5.77868">
        <ele>484</ele>
        <time>2026-05-13T01:03:13Z</time>
      </trkpt>
      <trkpt lat="46.02105" lon="5.77857">
        <ele>483.4</ele>
        <time>2026-05-13T01:03:15Z</time>
      </trkpt>
      <trkpt lat="46.02114" lon="5.77856">
        <ele>483.2</ele>
        <time>2026-05-13T01:03:16Z</time>
      </trkpt>
      <trkpt lat="46.02122" lon="5.77857">
        <ele>482.6</ele>
        <time>2026-05-13T01:03:17Z</time>
      </trkpt>
      <trkpt lat="46.02135" lon="5.77864">
        <ele>482</ele>
        <time>2026-05-13T01:03:19Z</time>
      </trkpt>
      <trkpt lat="46.02164" lon="5.7789">
        <ele>482.4</ele>
        <time>2026-05-13T01:03:25Z</time>
      </trkpt>
      <trkpt lat="46.02176" lon="5.779">
        <ele>483.6</ele>
        <time>2026-05-13T01:03:28Z</time>
      </trkpt>
      <trkpt lat="46.02196" lon="5.77916">
        <ele>484.6</ele>
        <time>2026-05-13T01:03:33Z</time>
      </trkpt>
      <trkpt lat="46.0223" lon="5.77933">
        <ele>485.2</ele>
        <time>2026-05-13T01:03:39Z</time>
      </trkpt>
      <trkpt lat="46.02277" lon="5.77951">
        <ele>484</ele>
        <time>2026-05-13T01:03:46Z</time>
      </trkpt>
      <trkpt lat="46.02298" lon="5.77959">
        <ele>483.6</ele>
        <time>2026-05-13T01:03:49Z</time>
      </trkpt>
      <trkpt lat="46.02318" lon="5.7797">
        <ele>483.2</ele>
        <time>2026-05-13T01:03:52Z</time>
      </trkpt>
      <trkpt lat="46.02349" lon="5.78">
        <ele>482.6</ele>
        <time>2026-05-13T01:03:57Z</time>
      </trkpt>
      <trkpt lat="46.02356" lon="5.78007">
        <ele>482.2</ele>
        <time>2026-05-13T01:03:58Z</time>
      </trkpt>
      <trkpt lat="46.02375" lon="5.78028">
        <ele>481.4</ele>
        <time>2026-05-13T01:04:01Z</time>
      </trkpt>
      <trkpt lat="46.02396" lon="5.7805">
        <ele>480.6</ele>
        <time>2026-05-13T01:04:04Z</time>
      </trkpt>
      <trkpt lat="46.02402" lon="5.78057">
        <ele>480</ele>
        <time>2026-05-13T01:04:05Z</time>
      </trkpt>
      <trkpt lat="46.02422" lon="5.78083">
        <ele>478.8</ele>
        <time>2026-05-13T01:04:08Z</time>
      </trkpt>
      <trkpt lat="46.02427" lon="5.78093">
        <ele>478.2</ele>
        <time>2026-05-13T01:04:09Z</time>
      </trkpt>
      <trkpt lat="46.02436" lon="5.78114">
        <ele>477.6</ele>
        <time>2026-05-13T01:04:11Z</time>
      </trkpt>
      <trkpt lat="46.02441" lon="5.78139">
        <ele>477.2</ele>
        <time>2026-05-13T01:04:13Z</time>
      </trkpt>
      <trkpt lat="46.02443" lon="5.78151">
        <ele>476.4</ele>
        <time>2026-05-13T01:04:14Z</time>
      </trkpt>
      <trkpt lat="46.0245" lon="5.78189">
        <ele>475.2</ele>
        <time>2026-05-13T01:04:17Z</time>
      </trkpt>
      <trkpt lat="46.02453" lon="5.78201">
        <ele>475.2</ele>
        <time>2026-05-13T01:04:18Z</time>
      </trkpt>
      <trkpt lat="46.02464" lon="5.78222">
        <ele>474.2</ele>
        <time>2026-05-13T01:04:20Z</time>
      </trkpt>
      <trkpt lat="46.02477" lon="5.78239">
        <ele>473.4</ele>
        <time>2026-05-13T01:04:22Z</time>
      </trkpt>
      <trkpt lat="46.02485" lon="5.78247">
        <ele>473</ele>
        <time>2026-05-13T01:04:23Z</time>
      </trkpt>
      <trkpt lat="46.02494" lon="5.78253">
        <ele>472.4</ele>
        <time>2026-05-13T01:04:24Z</time>
      </trkpt>
      <trkpt lat="46.02502" lon="5.78257">
        <ele>471.8</ele>
        <time>2026-05-13T01:04:25Z</time>
      </trkpt>
      <trkpt lat="46.02512" lon="5.7826">
        <ele>471.6</ele>
        <time>2026-05-13T01:04:26Z</time>
      </trkpt>
      <trkpt lat="46.02541" lon="5.78264">
        <ele>470.6</ele>
        <time>2026-05-13T01:04:29Z</time>
      </trkpt>
      <trkpt lat="46.0256" lon="5.78263">
        <ele>469.4</ele>
        <time>2026-05-13T01:04:31Z</time>
      </trkpt>
      <trkpt lat="46.0259" lon="5.78269">
        <ele>468</ele>
        <time>2026-05-13T01:04:34Z</time>
      </trkpt>
      <trkpt lat="46.02618" lon="5.78279">
        <ele>465.8</ele>
        <time>2026-05-13T01:04:37Z</time>
      </trkpt>
      <trkpt lat="46.02627" lon="5.78281">
        <ele>465.6</ele>
        <time>2026-05-13T01:04:38Z</time>
      </trkpt>
      <trkpt lat="46.02636" lon="5.78282">
        <ele>465.2</ele>
        <time>2026-05-13T01:04:39Z</time>
      </trkpt>
      <trkpt lat="46.02645" lon="5.78282">
        <ele>464.6</ele>
        <time>2026-05-13T01:04:40Z</time>
      </trkpt>
      <trkpt lat="46.02654" lon="5.7828">
        <ele>464.4</ele>
        <time>2026-05-13T01:04:41Z</time>
      </trkpt>
      <trkpt lat="46.02671" lon="5.78274">
        <ele>463.8</ele>
        <time>2026-05-13T01:04:43Z</time>
      </trkpt>
      <trkpt lat="46.02671" lon="5.78274">
        <ele>463.2</ele>
        <time>2026-05-13T01:04:44Z</time>
      </trkpt>
      <trkpt lat="46.02714" lon="5.78257">
        <ele>462.2</ele>
        <time>2026-05-13T01:04:48Z</time>
      </trkpt>
      <trkpt lat="46.02723" lon="5.78256">
        <ele>462</ele>
        <time>2026-05-13T01:04:49Z</time>
      </trkpt>
      <trkpt lat="46.02749" lon="5.78253">
        <ele>460.8</ele>
        <time>2026-05-13T01:04:52Z</time>
      </trkpt>
      <trkpt lat="46.02765" lon="5.78247">
        <ele>460.4</ele>
        <time>2026-05-13T01:04:54Z</time>
      </trkpt>
      <trkpt lat="46.02781" lon="5.78238">
        <ele>460.2</ele>
        <time>2026-05-13T01:04:56Z</time>
      </trkpt>
      <trkpt lat="46.02788" lon="5.78231">
        <ele>459.6</ele>
        <time>2026-05-13T01:04:57Z</time>
      </trkpt>
      <trkpt lat="46.02795" lon="5.78223">
        <ele>459.4</ele>
        <time>2026-05-13T01:04:58Z</time>
      </trkpt>
      <trkpt lat="46.02805" lon="5.78204">
        <ele>459</ele>
        <time>2026-05-13T01:05:00Z</time>
      </trkpt>
      <trkpt lat="46.02809" lon="5.78193">
        <ele>458.8</ele>
        <time>2026-05-13T01:05:01Z</time>
      </trkpt>
      <trkpt lat="46.02812" lon="5.78181">
        <ele>458.6</ele>
        <time>2026-05-13T01:05:03Z</time>
      </trkpt>
      <trkpt lat="46.02816" lon="5.78157">
        <ele>458.2</ele>
        <time>2026-05-13T01:05:04Z</time>
      </trkpt>
      <trkpt lat="46.02818" lon="5.78145">
        <ele>457.8</ele>
        <time>2026-05-13T01:05:05Z</time>
      </trkpt>
      <trkpt lat="46.02819" lon="5.7812">
        <ele>457.4</ele>
        <time>2026-05-13T01:05:07Z</time>
      </trkpt>
      <trkpt lat="46.02821" lon="5.78083">
        <ele>456.2</ele>
        <time>2026-05-13T01:05:10Z</time>
      </trkpt>
      <trkpt lat="46.02823" lon="5.78071">
        <ele>456</ele>
        <time>2026-05-13T01:05:11Z</time>
      </trkpt>
      <trkpt lat="46.02826" lon="5.78059">
        <ele>455.6</ele>
        <time>2026-05-13T01:05:12Z</time>
      </trkpt>
      <trkpt lat="46.02832" lon="5.78035">
        <ele>455</ele>
        <time>2026-05-13T01:05:14Z</time>
      </trkpt>
      <trkpt lat="46.02844" lon="5.78005">
        <ele>454.4</ele>
        <time>2026-05-13T01:05:17Z</time>
      </trkpt>
      <trkpt lat="46.02852" lon="5.7799">
        <ele>454</ele>
        <time>2026-05-13T01:05:19Z</time>
      </trkpt>
      <trkpt lat="46.02857" lon="5.77983">
        <ele>453.8</ele>
        <time>2026-05-13T01:05:20Z</time>
      </trkpt>
      <trkpt lat="46.02863" lon="5.77977">
        <ele>453.8</ele>
        <time>2026-05-13T01:05:21Z</time>
      </trkpt>
      <trkpt lat="46.02904" lon="5.77944">
        <ele>453.6</ele>
        <time>2026-05-13T01:05:28Z</time>
      </trkpt>
      <trkpt lat="46.02935" lon="5.77928">
        <ele>453.6</ele>
        <time>2026-05-13T01:05:33Z</time>
      </trkpt>
      <trkpt lat="46.02946" lon="5.77925">
        <ele>453.6</ele>
        <time>2026-05-13T01:05:35Z</time>
      </trkpt>
      <trkpt lat="46.02966" lon="5.7792">
        <ele>454</ele>
        <time>2026-05-13T01:05:38Z</time>
      </trkpt>
      <trkpt lat="46.02985" lon="5.77917">
        <ele>454.2</ele>
        <time>2026-05-13T01:05:41Z</time>
      </trkpt>
      <trkpt lat="46.03031" lon="5.77917">
        <ele>454.4</ele>
        <time>2026-05-13T01:05:48Z</time>
      </trkpt>
      <trkpt lat="46.03056" lon="5.77911">
        <ele>454.2</ele>
        <time>2026-05-13T01:05:52Z</time>
      </trkpt>
      <trkpt lat="46.03072" lon="5.77911">
        <ele>454</ele>
        <time>2026-05-13T01:05:55Z</time>
      </trkpt>
      <trkpt lat="46.03103" lon="5.77914">
        <ele>454</ele>
        <time>2026-05-13T01:06:01Z</time>
      </trkpt>
      <trkpt lat="46.0312" lon="5.77922">
        <ele>454.2</ele>
        <time>2026-05-13T01:06:06Z</time>
      </trkpt>
      <trkpt lat="46.0312" lon="5.77922">
        <ele>454.8</ele>
        <time>2026-05-13T01:06:07Z</time>
      </trkpt>
      <trkpt lat="46.03138" lon="5.77934">
        <ele>456</ele>
        <time>2026-05-13T01:06:12Z</time>
      </trkpt>
      <trkpt lat="46.03149" lon="5.77948">
        <ele>457</ele>
        <time>2026-05-13T01:06:17Z</time>
      </trkpt>
      <trkpt lat="46.03151" lon="5.7795">
        <ele>457.2</ele>
        <time>2026-05-13T01:06:18Z</time>
      </trkpt>
      <trkpt lat="46.0316" lon="5.7796">
        <ele>457.8</ele>
        <time>2026-05-13T01:06:21Z</time>
      </trkpt>
      <trkpt lat="46.0316" lon="5.77964">
        <ele>458.2</ele>
        <time>2026-05-13T01:06:22Z</time>
      </trkpt>
      <trkpt lat="46.03162" lon="5.77981">
        <ele>459.2</ele>
        <time>2026-05-13T01:06:27Z</time>
      </trkpt>
      <trkpt lat="46.03162" lon="5.77989">
        <ele>459.6</ele>
        <time>2026-05-13T01:06:29Z</time>
      </trkpt>
      <trkpt lat="46.03159" lon="5.78003">
        <ele>460.2</ele>
        <time>2026-05-13T01:06:32Z</time>
      </trkpt>
      <trkpt lat="46.03159" lon="5.78008">
        <ele>460.2</ele>
        <time>2026-05-13T01:06:33Z</time>
      </trkpt>
      <trkpt lat="46.03158" lon="5.78013">
        <ele>460.6</ele>
        <time>2026-05-13T01:06:34Z</time>
      </trkpt>
      <trkpt lat="46.03156" lon="5.78022">
        <ele>461</ele>
        <time>2026-05-13T01:06:36Z</time>
      </trkpt>
      <trkpt lat="46.0315" lon="5.78042">
        <ele>461.8</ele>
        <time>2026-05-13T01:06:40Z</time>
      </trkpt>
      <trkpt lat="46.03148" lon="5.78051">
        <ele>462.2</ele>
        <time>2026-05-13T01:06:42Z</time>
      </trkpt>
      <trkpt lat="46.03149" lon="5.78064">
        <ele>462.8</ele>
        <time>2026-05-13T01:06:46Z</time>
      </trkpt>
      <trkpt lat="46.03147" lon="5.78068">
        <ele>463.2</ele>
        <time>2026-05-13T01:06:48Z</time>
      </trkpt>
      <trkpt lat="46.03145" lon="5.78072">
        <ele>463.8</ele>
        <time>2026-05-13T01:06:50Z</time>
      </trkpt>
      <trkpt lat="46.03139" lon="5.78084">
        <ele>464.6</ele>
        <time>2026-05-13T01:06:54Z</time>
      </trkpt>
      <trkpt lat="46.03133" lon="5.78094">
        <ele>465.2</ele>
        <time>2026-05-13T01:06:57Z</time>
      </trkpt>
      <trkpt lat="46.03126" lon="5.78111">
        <ele>465.8</ele>
        <time>2026-05-13T01:07:02Z</time>
      </trkpt>
      <trkpt lat="46.03123" lon="5.78121">
        <ele>466.4</ele>
        <time>2026-05-13T01:07:05Z</time>
      </trkpt>
      <trkpt lat="46.03118" lon="5.78137">
        <ele>467</ele>
        <time>2026-05-13T01:07:10Z</time>
      </trkpt>
      <trkpt lat="46.03116" lon="5.78145">
        <ele>467.2</ele>
        <time>2026-05-13T01:07:12Z</time>
      </trkpt>
      <trkpt lat="46.03114" lon="5.78169">
        <ele>468</ele>
        <time>2026-05-13T01:07:17Z</time>
      </trkpt>
      <trkpt lat="46.03113" lon="5.78178">
        <ele>468.4</ele>
        <time>2026-05-13T01:07:19Z</time>
      </trkpt>
      <trkpt lat="46.03114" lon="5.78201">
        <ele>469.4</ele>
        <time>2026-05-13T01:07:25Z</time>
      </trkpt>
      <trkpt lat="46.03115" lon="5.78206">
        <ele>469.6</ele>
        <time>2026-05-13T01:07:26Z</time>
      </trkpt>
      <trkpt lat="46.03117" lon="5.78222">
        <ele>470.4</ele>
        <time>2026-05-13T01:07:30Z</time>
      </trkpt>
      <trkpt lat="46.0312" lon="5.78237">
        <ele>470.8</ele>
        <time>2026-05-13T01:07:34Z</time>
      </trkpt>
      <trkpt lat="46.03124" lon="5.78256">
        <ele>471.8</ele>
        <time>2026-05-13T01:07:40Z</time>
      </trkpt>
      <trkpt lat="46.03126" lon="5.78273">
        <ele>472.2</ele>
        <time>2026-05-13T01:07:43Z</time>
      </trkpt>
      <trkpt lat="46.03129" lon="5.78288">
        <ele>472.8</ele>
        <time>2026-05-13T01:07:47Z</time>
      </trkpt>
      <trkpt lat="46.03131" lon="5.78295">
        <ele>472.8</ele>
        <time>2026-05-13T01:07:49Z</time>
      </trkpt>
      <trkpt lat="46.03136" lon="5.78316">
        <ele>473.8</ele>
        <time>2026-05-13T01:07:55Z</time>
      </trkpt>
      <trkpt lat="46.03137" lon="5.78319">
        <ele>474</ele>
        <time>2026-05-13T01:07:56Z</time>
      </trkpt>
      <trkpt lat="46.03142" lon="5.78347">
        <ele>475.2</ele>
        <time>2026-05-13T01:08:03Z</time>
      </trkpt>
      <trkpt lat="46.03143" lon="5.78351">
        <ele>475.4</ele>
        <time>2026-05-13T01:08:04Z</time>
      </trkpt>
      <trkpt lat="46.03147" lon="5.78372">
        <ele>476.2</ele>
        <time>2026-05-13T01:08:09Z</time>
      </trkpt>
      <trkpt lat="46.0315" lon="5.78378">
        <ele>476.6</ele>
        <time>2026-05-13T01:08:11Z</time>
      </trkpt>
      <trkpt lat="46.03156" lon="5.78393">
        <ele>477.4</ele>
        <time>2026-05-13T01:08:16Z</time>
      </trkpt>
      <trkpt lat="46.03158" lon="5.78399">
        <ele>477.4</ele>
        <time>2026-05-13T01:08:18Z</time>
      </trkpt>
      <trkpt lat="46.03164" lon="5.78411">
        <ele>478.6</ele>
        <time>2026-05-13T01:08:22Z</time>
      </trkpt>
      <trkpt lat="46.03168" lon="5.78417">
        <ele>478.8</ele>
        <time>2026-05-13T01:08:24Z</time>
      </trkpt>
      <trkpt lat="46.03175" lon="5.78427">
        <ele>479.6</ele>
        <time>2026-05-13T01:08:28Z</time>
      </trkpt>
      <trkpt lat="46.03181" lon="5.78436">
        <ele>480.4</ele>
        <time>2026-05-13T01:08:31Z</time>
      </trkpt>
      <trkpt lat="46.03183" lon="5.78438">
        <ele>480.6</ele>
        <time>2026-05-13T01:08:32Z</time>
      </trkpt>
      <trkpt lat="46.03199" lon="5.78451">
        <ele>481.6</ele>
        <time>2026-05-13T01:08:38Z</time>
      </trkpt>
      <trkpt lat="46.032" lon="5.78453">
        <ele>481.8</ele>
        <time>2026-05-13T01:08:39Z</time>
      </trkpt>
      <trkpt lat="46.03216" lon="5.7846">
        <ele>482.6</ele>
        <time>2026-05-13T01:08:45Z</time>
      </trkpt>
      <trkpt lat="46.03222" lon="5.78461">
        <ele>483</ele>
        <time>2026-05-13T01:08:47Z</time>
      </trkpt>
      <trkpt lat="46.03236" lon="5.78462">
        <ele>483.6</ele>
        <time>2026-05-13T01:08:52Z</time>
      </trkpt>
      <trkpt lat="46.03248" lon="5.78461">
        <ele>484.2</ele>
        <time>2026-05-13T01:08:56Z</time>
      </trkpt>
      <trkpt lat="46.0326" lon="5.78457">
        <ele>484.6</ele>
        <time>2026-05-13T01:09:00Z</time>
      </trkpt>
      <trkpt lat="46.03266" lon="5.78454">
        <ele>485.2</ele>
        <time>2026-05-13T01:09:02Z</time>
      </trkpt>
      <trkpt lat="46.03279" lon="5.78445">
        <ele>486.2</ele>
        <time>2026-05-13T01:09:07Z</time>
      </trkpt>
      <trkpt lat="46.03286" lon="5.78439">
        <ele>486.6</ele>
        <time>2026-05-13T01:09:10Z</time>
      </trkpt>
      <trkpt lat="46.03301" lon="5.78422">
        <ele>487.4</ele>
        <time>2026-05-13T01:09:16Z</time>
      </trkpt>
      <trkpt lat="46.03306" lon="5.78417">
        <ele>487.8</ele>
        <time>2026-05-13T01:09:18Z</time>
      </trkpt>
      <trkpt lat="46.03315" lon="5.78405">
        <ele>488.4</ele>
        <time>2026-05-13T01:09:22Z</time>
      </trkpt>
      <trkpt lat="46.03327" lon="5.78387">
        <ele>489.4</ele>
        <time>2026-05-13T01:09:28Z</time>
      </trkpt>
      <trkpt lat="46.0333" lon="5.78384">
        <ele>489.4</ele>
        <time>2026-05-13T01:09:29Z</time>
      </trkpt>
      <trkpt lat="46.03346" lon="5.7836">
        <ele>490.6</ele>
        <time>2026-05-13T01:09:37Z</time>
      </trkpt>
      <trkpt lat="46.03362" lon="5.7834">
        <ele>491.6</ele>
        <time>2026-05-13T01:09:44Z</time>
      </trkpt>
      <trkpt lat="46.03368" lon="5.78331">
        <ele>492.2</ele>
        <time>2026-05-13T01:09:47Z</time>
      </trkpt>
      <trkpt lat="46.03378" lon="5.78317">
        <ele>492.8</ele>
        <time>2026-05-13T01:09:52Z</time>
      </trkpt>
      <trkpt lat="46.0339" lon="5.783">
        <ele>493.6</ele>
        <time>2026-05-13T01:09:58Z</time>
      </trkpt>
      <trkpt lat="46.03393" lon="5.78297">
        <ele>493.8</ele>
        <time>2026-05-13T01:09:59Z</time>
      </trkpt>
      <trkpt lat="46.03408" lon="5.78276">
        <ele>494.8</ele>
        <time>2026-05-13T01:10:06Z</time>
      </trkpt>
      <trkpt lat="46.03415" lon="5.78268">
        <ele>495.2</ele>
        <time>2026-05-13T01:10:09Z</time>
      </trkpt>
      <trkpt lat="46.03425" lon="5.78253">
        <ele>496</ele>
        <time>2026-05-13T01:10:14Z</time>
      </trkpt>
      <trkpt lat="46.03441" lon="5.78233">
        <ele>497</ele>
        <time>2026-05-13T01:10:21Z</time>
      </trkpt>
      <trkpt lat="46.03453" lon="5.7822">
        <ele>498</ele>
        <time>2026-05-13T01:10:27Z</time>
      </trkpt>
      <trkpt lat="46.0346" lon="5.78214">
        <ele>498.6</ele>
        <time>2026-05-13T01:10:29Z</time>
      </trkpt>
      <trkpt lat="46.0347" lon="5.78206">
        <ele>499.2</ele>
        <time>2026-05-13T01:10:33Z</time>
      </trkpt>
      <trkpt lat="46.03477" lon="5.78199">
        <ele>499.8</ele>
        <time>2026-05-13T01:10:36Z</time>
      </trkpt>
      <trkpt lat="46.03486" lon="5.7819">
        <ele>500.2</ele>
        <time>2026-05-13T01:10:40Z</time>
      </trkpt>
      <trkpt lat="46.03499" lon="5.78179">
        <ele>501</ele>
        <time>2026-05-13T01:10:45Z</time>
      </trkpt>
      <trkpt lat="46.03504" lon="5.78176">
        <ele>501.4</ele>
        <time>2026-05-13T01:10:47Z</time>
      </trkpt>
      <trkpt lat="46.03516" lon="5.78167">
        <ele>501.8</ele>
        <time>2026-05-13T01:10:51Z</time>
      </trkpt>
      <trkpt lat="46.0353" lon="5.78155">
        <ele>502.4</ele>
        <time>2026-05-13T01:10:56Z</time>
      </trkpt>
      <trkpt lat="46.03546" lon="5.78144">
        <ele>503</ele>
        <time>2026-05-13T01:11:01Z</time>
      </trkpt>
      <trkpt lat="46.03553" lon="5.78139">
        <ele>503.4</ele>
        <time>2026-05-13T01:11:03Z</time>
      </trkpt>
      <trkpt lat="46.03578" lon="5.78125">
        <ele>503.6</ele>
        <time>2026-05-13T01:11:09Z</time>
      </trkpt>
      <trkpt lat="46.03607" lon="5.78111">
        <ele>503.6</ele>
        <time>2026-05-13T01:11:15Z</time>
      </trkpt>
      <trkpt lat="46.03647" lon="5.78096">
        <ele>504.2</ele>
        <time>2026-05-13T01:11:24Z</time>
      </trkpt>
      <trkpt lat="46.03681" lon="5.78085">
        <ele>504.6</ele>
        <time>2026-05-13T01:11:31Z</time>
      </trkpt>
      <trkpt lat="46.03705" lon="5.78074">
        <ele>504.8</ele>
        <time>2026-05-13T01:11:36Z</time>
      </trkpt>
      <trkpt lat="46.03726" lon="5.78068">
        <ele>505</ele>
        <time>2026-05-13T01:11:40Z</time>
      </trkpt>
      <trkpt lat="46.03747" lon="5.78062">
        <ele>505.4</ele>
        <time>2026-05-13T01:11:46Z</time>
      </trkpt>
      <trkpt lat="46.03762" lon="5.78056">
        <ele>505.8</ele>
        <time>2026-05-13T01:11:49Z</time>
      </trkpt>
      <trkpt lat="46.03781" lon="5.7805">
        <ele>506.4</ele>
        <time>2026-05-13T01:11:54Z</time>
      </trkpt>
      <trkpt lat="46.03796" lon="5.78048">
        <ele>506.8</ele>
        <time>2026-05-13T01:11:58Z</time>
      </trkpt>
      <trkpt lat="46.03809" lon="5.78045">
        <ele>507.2</ele>
        <time>2026-05-13T01:12:02Z</time>
      </trkpt>
      <trkpt lat="46.03823" lon="5.78041">
        <ele>508</ele>
        <time>2026-05-13T01:12:06Z</time>
      </trkpt>
      <trkpt lat="46.03833" lon="5.7804">
        <ele>508.4</ele>
        <time>2026-05-13T01:12:09Z</time>
      </trkpt>
      <trkpt lat="46.03845" lon="5.78036">
        <ele>509</ele>
        <time>2026-05-13T01:12:13Z</time>
      </trkpt>
      <trkpt lat="46.03849" lon="5.78035">
        <ele>509.2</ele>
        <time>2026-05-13T01:12:14Z</time>
      </trkpt>
      <trkpt lat="46.03879" lon="5.78025">
        <ele>510.2</ele>
        <time>2026-05-13T01:12:21Z</time>
      </trkpt>
      <trkpt lat="46.03883" lon="5.78024">
        <ele>510.2</ele>
        <time>2026-05-13T01:12:22Z</time>
      </trkpt>
      <trkpt lat="46.03916" lon="5.78015">
        <ele>511.4</ele>
        <time>2026-05-13T01:12:31Z</time>
      </trkpt>
      <trkpt lat="46.03923" lon="5.78013">
        <ele>511.6</ele>
        <time>2026-05-13T01:12:33Z</time>
      </trkpt>
      <trkpt lat="46.03945" lon="5.78007">
        <ele>512.4</ele>
        <time>2026-05-13T01:12:39Z</time>
      </trkpt>
      <trkpt lat="46.03968" lon="5.78001">
        <ele>513.6</ele>
        <time>2026-05-13T01:12:46Z</time>
      </trkpt>
      <trkpt lat="46.03979" lon="5.77998">
        <ele>514</ele>
        <time>2026-05-13T01:12:49Z</time>
      </trkpt>
      <trkpt lat="46.03996" lon="5.77993">
        <ele>514.8</ele>
        <time>2026-05-13T01:12:54Z</time>
      </trkpt>
      <trkpt lat="46.04014" lon="5.77989">
        <ele>515.4</ele>
        <time>2026-05-13T01:12:59Z</time>
      </trkpt>
      <trkpt lat="46.04024" lon="5.77987">
        <ele>515.8</ele>
        <time>2026-05-13T01:13:02Z</time>
      </trkpt>
      <trkpt lat="46.04053" lon="5.7798">
        <ele>516.8</ele>
        <time>2026-05-13T01:13:10Z</time>
      </trkpt>
      <trkpt lat="46.04084" lon="5.77972">
        <ele>517.4</ele>
        <time>2026-05-13T01:13:17Z</time>
      </trkpt>
      <trkpt lat="46.04119" lon="5.77962">
        <ele>517.4</ele>
        <time>2026-05-13T01:13:23Z</time>
      </trkpt>
      <trkpt lat="46.04155" lon="5.77953">
        <ele>516.2</ele>
        <time>2026-05-13T01:13:28Z</time>
      </trkpt>
      <trkpt lat="46.04171" lon="5.7795">
        <ele>515.8</ele>
        <time>2026-05-13T01:13:30Z</time>
      </trkpt>
      <trkpt lat="46.04196" lon="5.77944">
        <ele>514.2</ele>
        <time>2026-05-13T01:13:33Z</time>
      </trkpt>
      <trkpt lat="46.04212" lon="5.77941">
        <ele>513.4</ele>
        <time>2026-05-13T01:13:35Z</time>
      </trkpt>
      <trkpt lat="46.04219" lon="5.77939">
        <ele>512.8</ele>
        <time>2026-05-13T01:13:36Z</time>
      </trkpt>
      <trkpt lat="46.04238" lon="5.77935">
        <ele>512.6</ele>
        <time>2026-05-13T01:13:39Z</time>
      </trkpt>
      <trkpt lat="46.04268" lon="5.7793">
        <ele>513</ele>
        <time>2026-05-13T01:13:45Z</time>
      </trkpt>
      <trkpt lat="46.04273" lon="5.7793">
        <ele>513.2</ele>
        <time>2026-05-13T01:13:46Z</time>
      </trkpt>
      <trkpt lat="46.04286" lon="5.7793">
        <ele>513.8</ele>
        <time>2026-05-13T01:13:49Z</time>
      </trkpt>
      <trkpt lat="46.04294" lon="5.7793">
        <ele>514.4</ele>
        <time>2026-05-13T01:13:51Z</time>
      </trkpt>
      <trkpt lat="46.04306" lon="5.77931">
        <ele>515.2</ele>
        <time>2026-05-13T01:13:54Z</time>
      </trkpt>
      <trkpt lat="46.0432" lon="5.77933">
        <ele>515.8</ele>
        <time>2026-05-13T01:13:58Z</time>
      </trkpt>
      <trkpt lat="46.04324" lon="5.77934">
        <ele>516.2</ele>
        <time>2026-05-13T01:13:59Z</time>
      </trkpt>
      <trkpt lat="46.04347" lon="5.77935">
        <ele>517</ele>
        <time>2026-05-13T01:14:05Z</time>
      </trkpt>
      <trkpt lat="46.04354" lon="5.77934">
        <ele>517.2</ele>
        <time>2026-05-13T01:14:07Z</time>
      </trkpt>
      <trkpt lat="46.04365" lon="5.77936">
        <ele>517.8</ele>
        <time>2026-05-13T01:14:10Z</time>
      </trkpt>
      <trkpt lat="46.04377" lon="5.77938">
        <ele>518.2</ele>
        <time>2026-05-13T01:14:13Z</time>
      </trkpt>
      <trkpt lat="46.04401" lon="5.77941">
        <ele>519</ele>
        <time>2026-05-13T01:14:19Z</time>
      </trkpt>
      <trkpt lat="46.04424" lon="5.77944">
        <ele>519.4</ele>
        <time>2026-05-13T01:14:24Z</time>
      </trkpt>
      <trkpt lat="46.04429" lon="5.77945">
        <ele>519.4</ele>
        <time>2026-05-13T01:14:25Z</time>
      </trkpt>
      <trkpt lat="46.04434" lon="5.77945">
        <ele>519.4</ele>
        <time>2026-05-13T01:14:26Z</time>
      </trkpt>
      <trkpt lat="46.04449" lon="5.77947">
        <ele>519.4</ele>
        <time>2026-05-13T01:14:29Z</time>
      </trkpt>
      <trkpt lat="46.04471" lon="5.77951">
        <ele>519.6</ele>
        <time>2026-05-13T01:14:33Z</time>
      </trkpt>
      <trkpt lat="46.04518" lon="5.77957">
        <ele>519.2</ele>
        <time>2026-05-13T01:14:41Z</time>
      </trkpt>
      <trkpt lat="46.04563" lon="5.77962">
        <ele>518.2</ele>
        <time>2026-05-13T01:14:48Z</time>
      </trkpt>
      <trkpt lat="46.0457" lon="5.77963">
        <ele>518.2</ele>
        <time>2026-05-13T01:14:49Z</time>
      </trkpt>
      <trkpt lat="46.04621" lon="5.77967">
        <ele>517.2</ele>
        <time>2026-05-13T01:14:56Z</time>
      </trkpt>
      <trkpt lat="46.04629" lon="5.77967">
        <ele>517.2</ele>
        <time>2026-05-13T01:14:57Z</time>
      </trkpt>
      <trkpt lat="46.04666" lon="5.7796">
        <ele>516.2</ele>
        <time>2026-05-13T01:15:02Z</time>
      </trkpt>
      <trkpt lat="46.04679" lon="5.77956">
        <ele>516</ele>
        <time>2026-05-13T01:15:04Z</time>
      </trkpt>
      <trkpt lat="46.04732" lon="5.77941">
        <ele>515.6</ele>
        <time>2026-05-13T01:15:12Z</time>
      </trkpt>
      <trkpt lat="46.04779" lon="5.77928">
        <ele>515.6</ele>
        <time>2026-05-13T01:15:20Z</time>
      </trkpt>
      <trkpt lat="46.04807" lon="5.77924">
        <ele>515.8</ele>
        <time>2026-05-13T01:15:25Z</time>
      </trkpt>
      <trkpt lat="46.04821" lon="5.77924">
        <ele>516.4</ele>
        <time>2026-05-13T01:15:28Z</time>
      </trkpt>
      <trkpt lat="46.04855" lon="5.77928">
        <ele>516.8</ele>
        <time>2026-05-13T01:15:34Z</time>
      </trkpt>
      <trkpt lat="46.0489" lon="5.7793">
        <ele>516.6</ele>
        <time>2026-05-13T01:15:40Z</time>
      </trkpt>
      <trkpt lat="46.0493" lon="5.77933">
        <ele>516</ele>
        <time>2026-05-13T01:15:46Z</time>
      </trkpt>
      <trkpt lat="46.0499" lon="5.77936">
        <ele>515.6</ele>
        <time>2026-05-13T01:15:55Z</time>
      </trkpt>
      <trkpt lat="46.04998" lon="5.77937">
        <ele>515.4</ele>
        <time>2026-05-13T01:15:56Z</time>
      </trkpt>
      <trkpt lat="46.05012" lon="5.77938">
        <ele>515.4</ele>
        <time>2026-05-13T01:15:58Z</time>
      </trkpt>
      <trkpt lat="46.05048" lon="5.77941">
        <ele>515</ele>
        <time>2026-05-13T01:16:03Z</time>
      </trkpt>
      <trkpt lat="46.05076" lon="5.77943">
        <ele>514.4</ele>
        <time>2026-05-13T01:16:07Z</time>
      </trkpt>
      <trkpt lat="46.05103" lon="5.77944">
        <ele>514</ele>
        <time>2026-05-13T01:16:11Z</time>
      </trkpt>
      <trkpt lat="46.0515" lon="5.77946">
        <ele>513.2</ele>
        <time>2026-05-13T01:16:17Z</time>
      </trkpt>
      <trkpt lat="46.0519" lon="5.77949">
        <ele>512</ele>
        <time>2026-05-13T01:16:22Z</time>
      </trkpt>
      <trkpt lat="46.05211" lon="5.77951">
        <ele>511.2</ele>
        <time>2026-05-13T01:16:25Z</time>
      </trkpt>
      <trkpt lat="46.05217" lon="5.77952">
        <ele>511</ele>
        <time>2026-05-13T01:16:26Z</time>
      </trkpt>
      <trkpt lat="46.05244" lon="5.77954">
        <ele>511.2</ele>
        <time>2026-05-13T01:16:31Z</time>
      </trkpt>
      <trkpt lat="46.05256" lon="5.77956">
        <ele>512.2</ele>
        <time>2026-05-13T01:16:34Z</time>
      </trkpt>
      <trkpt lat="46.05261" lon="5.77957">
        <ele>512.4</ele>
        <time>2026-05-13T01:16:35Z</time>
      </trkpt>
      <trkpt lat="46.05265" lon="5.77957">
        <ele>512.8</ele>
        <time>2026-05-13T01:16:36Z</time>
      </trkpt>
      <trkpt lat="46.05277" lon="5.77957">
        <ele>513.4</ele>
        <time>2026-05-13T01:16:39Z</time>
      </trkpt>
      <trkpt lat="46.05293" lon="5.77958">
        <ele>514</ele>
        <time>2026-05-13T01:16:43Z</time>
      </trkpt>
      <trkpt lat="46.05301" lon="5.77958">
        <ele>514.4</ele>
        <time>2026-05-13T01:16:45Z</time>
      </trkpt>
      <trkpt lat="46.05324" lon="5.77958">
        <ele>515.4</ele>
        <time>2026-05-13T01:16:51Z</time>
      </trkpt>
      <trkpt lat="46.05362" lon="5.77962">
        <ele>516.2</ele>
        <time>2026-05-13T01:17:00Z</time>
      </trkpt>
      <trkpt lat="46.05388" lon="5.77963">
        <ele>516.6</ele>
        <time>2026-05-13T01:17:06Z</time>
      </trkpt>
      <trkpt lat="46.05401" lon="5.77965">
        <ele>516.8</ele>
        <time>2026-05-13T01:17:09Z</time>
      </trkpt>
      <trkpt lat="46.05454" lon="5.77968">
        <ele>517.6</ele>
        <time>2026-05-13T01:17:21Z</time>
      </trkpt>
      <trkpt lat="46.05458" lon="5.77968">
        <ele>517.6</ele>
        <time>2026-05-13T01:17:22Z</time>
      </trkpt>
      <trkpt lat="46.05492" lon="5.7797">
        <ele>518.6</ele>
        <time>2026-05-13T01:17:30Z</time>
      </trkpt>
      <trkpt lat="46.05496" lon="5.77971">
        <ele>518.6</ele>
        <time>2026-05-13T01:17:31Z</time>
      </trkpt>
      <trkpt lat="46.05536" lon="5.77973">
        <ele>519.4</ele>
        <time>2026-05-13T01:17:40Z</time>
      </trkpt>
      <trkpt lat="46.05554" lon="5.77974">
        <ele>519.8</ele>
        <time>2026-05-13T01:17:44Z</time>
      </trkpt>
      <trkpt lat="46.05582" lon="5.77975">
        <ele>520.2</ele>
        <time>2026-05-13T01:17:50Z</time>
      </trkpt>
      <trkpt lat="46.05623" lon="5.77976">
        <ele>520.8</ele>
        <time>2026-05-13T01:17:59Z</time>
      </trkpt>
      <trkpt lat="46.05632" lon="5.77974">
        <ele>520.8</ele>
        <time>2026-05-13T01:18:01Z</time>
      </trkpt>
      <trkpt lat="46.05653" lon="5.77968">
        <ele>521.4</ele>
        <time>2026-05-13T01:18:06Z</time>
      </trkpt>
      <trkpt lat="46.05661" lon="5.77965">
        <ele>521.8</ele>
        <time>2026-05-13T01:18:08Z</time>
      </trkpt>
      <trkpt lat="46.05695" lon="5.77946">
        <ele>522</ele>
        <time>2026-05-13T01:18:15Z</time>
      </trkpt>
      <trkpt lat="46.05704" lon="5.7794">
        <ele>522</ele>
        <time>2026-05-13T01:18:17Z</time>
      </trkpt>
      <trkpt lat="46.05737" lon="5.77918">
        <ele>521.8</ele>
        <time>2026-05-13T01:18:23Z</time>
      </trkpt>
      <trkpt lat="46.05772" lon="5.77895">
        <ele>520.6</ele>
        <time>2026-05-13T01:18:28Z</time>
      </trkpt>
      <trkpt lat="46.05779" lon="5.77891">
        <ele>520</ele>
        <time>2026-05-13T01:18:29Z</time>
      </trkpt>
      <trkpt lat="46.05798" lon="5.77878">
        <ele>518.8</ele>
        <time>2026-05-13T01:18:32Z</time>
      </trkpt>
      <trkpt lat="46.05809" lon="5.77871">
        <ele>518.2</ele>
        <time>2026-05-13T01:18:34Z</time>
      </trkpt>
      <trkpt lat="46.05829" lon="5.77855">
        <ele>517.6</ele>
        <time>2026-05-13T01:18:38Z</time>
      </trkpt>
      <trkpt lat="46.05835" lon="5.77851">
        <ele>517.6</ele>
        <time>2026-05-13T01:18:39Z</time>
      </trkpt>
      <trkpt lat="46.05856" lon="5.7784">
        <ele>517.6</ele>
        <time>2026-05-13T01:18:42Z</time>
      </trkpt>
      <trkpt lat="46.05862" lon="5.77839">
        <ele>517.6</ele>
        <time>2026-05-13T01:18:43Z</time>
      </trkpt>
      <trkpt lat="46.05868" lon="5.77838">
        <ele>517.6</ele>
        <time>2026-05-13T01:18:44Z</time>
      </trkpt>
      <trkpt lat="46.05881" lon="5.77842">
        <ele>517.6</ele>
        <time>2026-05-13T01:18:46Z</time>
      </trkpt>
      <trkpt lat="46.05889" lon="5.7785">
        <ele>517.6</ele>
        <time>2026-05-13T01:18:48Z</time>
      </trkpt>
      <trkpt lat="46.05897" lon="5.7786">
        <ele>517.8</ele>
        <time>2026-05-13T01:18:50Z</time>
      </trkpt>
      <trkpt lat="46.05902" lon="5.77877">
        <ele>518.8</ele>
        <time>2026-05-13T01:18:53Z</time>
      </trkpt>
      <trkpt lat="46.05904" lon="5.77883">
        <ele>519.2</ele>
        <time>2026-05-13T01:18:54Z</time>
      </trkpt>
      <trkpt lat="46.05907" lon="5.77895">
        <ele>519.8</ele>
        <time>2026-05-13T01:18:56Z</time>
      </trkpt>
      <trkpt lat="46.05916" lon="5.77927">
        <ele>520.8</ele>
        <time>2026-05-13T01:19:03Z</time>
      </trkpt>
      <trkpt lat="46.05925" lon="5.77945">
        <ele>522</ele>
        <time>2026-05-13T01:19:08Z</time>
      </trkpt>
      <trkpt lat="46.05928" lon="5.77948">
        <ele>522.2</ele>
        <time>2026-05-13T01:19:09Z</time>
      </trkpt>
      <trkpt lat="46.0594" lon="5.7796">
        <ele>523.4</ele>
        <time>2026-05-13T01:19:14Z</time>
      </trkpt>
      <trkpt lat="46.05952" lon="5.77966">
        <ele>524.4</ele>
        <time>2026-05-13T01:19:18Z</time>
      </trkpt>
      <trkpt lat="46.05959" lon="5.77969">
        <ele>524.8</ele>
        <time>2026-05-13T01:19:20Z</time>
      </trkpt>
      <trkpt lat="46.05985" lon="5.77975">
        <ele>525.2</ele>
        <time>2026-05-13T01:19:27Z</time>
      </trkpt>
      <trkpt lat="46.06007" lon="5.77982">
        <ele>525.4</ele>
        <time>2026-05-13T01:19:32Z</time>
      </trkpt>
      <trkpt lat="46.06044" lon="5.77995">
        <ele>525.4</ele>
        <time>2026-05-13T01:19:39Z</time>
      </trkpt>
      <trkpt lat="46.06086" lon="5.7801">
        <ele>524.8</ele>
        <time>2026-05-13T01:19:47Z</time>
      </trkpt>
      <trkpt lat="46.06138" lon="5.78027">
        <ele>524.6</ele>
        <time>2026-05-13T01:19:56Z</time>
      </trkpt>
      <trkpt lat="46.06188" lon="5.78043">
        <ele>523.8</ele>
        <time>2026-05-13T01:20:04Z</time>
      </trkpt>
      <trkpt lat="46.06201" lon="5.78047">
        <ele>523.6</ele>
        <time>2026-05-13T01:20:06Z</time>
      </trkpt>
      <trkpt lat="46.06235" lon="5.78058">
        <ele>523</ele>
        <time>2026-05-13T01:20:11Z</time>
      </trkpt>
      <trkpt lat="46.06254" lon="5.78065">
        <ele>522.4</ele>
        <time>2026-05-13T01:20:14Z</time>
      </trkpt>
      <trkpt lat="46.06287" lon="5.78077">
        <ele>522</ele>
        <time>2026-05-13T01:20:19Z</time>
      </trkpt>
      <trkpt lat="46.06322" lon="5.78088">
        <ele>521.4</ele>
        <time>2026-05-13T01:20:24Z</time>
      </trkpt>
      <trkpt lat="46.06348" lon="5.78097">
        <ele>521</ele>
        <time>2026-05-13T01:20:28Z</time>
      </trkpt>
      <trkpt lat="46.06398" lon="5.78114">
        <ele>520.6</ele>
        <time>2026-05-13T01:20:36Z</time>
      </trkpt>
      <trkpt lat="46.06419" lon="5.78121">
        <ele>520.4</ele>
        <time>2026-05-13T01:20:39Z</time>
      </trkpt>
      <trkpt lat="46.06448" lon="5.78131">
        <ele>519.6</ele>
        <time>2026-05-13T01:20:43Z</time>
      </trkpt>
      <trkpt lat="46.06463" lon="5.78136">
        <ele>519</ele>
        <time>2026-05-13T01:20:45Z</time>
      </trkpt>
      <trkpt lat="46.06494" lon="5.78148">
        <ele>518</ele>
        <time>2026-05-13T01:20:50Z</time>
      </trkpt>
      <trkpt lat="46.06511" lon="5.78154">
        <ele>518.2</ele>
        <time>2026-05-13T01:20:53Z</time>
      </trkpt>
      <trkpt lat="46.06528" lon="5.78159">
        <ele>518.2</ele>
        <time>2026-05-13T01:20:56Z</time>
      </trkpt>
      <trkpt lat="46.06565" lon="5.78168">
        <ele>519.2</ele>
        <time>2026-05-13T01:21:03Z</time>
      </trkpt>
      <trkpt lat="46.06575" lon="5.7817">
        <ele>519.4</ele>
        <time>2026-05-13T01:21:05Z</time>
      </trkpt>
      <trkpt lat="46.06631" lon="5.78184">
        <ele>520</ele>
        <time>2026-05-13T01:21:16Z</time>
      </trkpt>
      <trkpt lat="46.06641" lon="5.78186">
        <ele>520.2</ele>
        <time>2026-05-13T01:21:18Z</time>
      </trkpt>
      <trkpt lat="46.06675" lon="5.78193">
        <ele>520.8</ele>
        <time>2026-05-13T01:21:25Z</time>
      </trkpt>
      <trkpt lat="46.06698" lon="5.78198">
        <ele>521.2</ele>
        <time>2026-05-13T01:21:30Z</time>
      </trkpt>
      <trkpt lat="46.06729" lon="5.78204">
        <ele>521.6</ele>
        <time>2026-05-13T01:21:36Z</time>
      </trkpt>
      <trkpt lat="46.06778" lon="5.78214">
        <ele>521.8</ele>
        <time>2026-05-13T01:21:45Z</time>
      </trkpt>
      <trkpt lat="46.06833" lon="5.78226">
        <ele>521.4</ele>
        <time>2026-05-13T01:21:54Z</time>
      </trkpt>
      <trkpt lat="46.06892" lon="5.78237">
        <ele>520.6</ele>
        <time>2026-05-13T01:22:03Z</time>
      </trkpt>
      <trkpt lat="46.06899" lon="5.78238">
        <ele>520.4</ele>
        <time>2026-05-13T01:22:04Z</time>
      </trkpt>
      <trkpt lat="46.06914" lon="5.78241">
        <ele>520.2</ele>
        <time>2026-05-13T01:22:06Z</time>
      </trkpt>
      <trkpt lat="46.06937" lon="5.78246">
        <ele>519.2</ele>
        <time>2026-05-13T01:22:09Z</time>
      </trkpt>
      <trkpt lat="46.06945" lon="5.78248">
        <ele>519</ele>
        <time>2026-05-13T01:22:10Z</time>
      </trkpt>
      <trkpt lat="46.06969" lon="5.78251">
        <ele>518</ele>
        <time>2026-05-13T01:22:13Z</time>
      </trkpt>
      <trkpt lat="46.06992" lon="5.78256">
        <ele>517</ele>
        <time>2026-05-13T01:22:16Z</time>
      </trkpt>
      <trkpt lat="46.07" lon="5.78259">
        <ele>517</ele>
        <time>2026-05-13T01:22:17Z</time>
      </trkpt>
      <trkpt lat="46.07031" lon="5.78266">
        <ele>515.6</ele>
        <time>2026-05-13T01:22:21Z</time>
      </trkpt>
      <trkpt lat="46.07054" lon="5.78271">
        <ele>515</ele>
        <time>2026-05-13T01:22:24Z</time>
      </trkpt>
      <trkpt lat="46.07071" lon="5.78274">
        <ele>514.6</ele>
        <time>2026-05-13T01:22:26Z</time>
      </trkpt>
      <trkpt lat="46.07106" lon="5.78281">
        <ele>513.2</ele>
        <time>2026-05-13T01:22:31Z</time>
      </trkpt>
      <trkpt lat="46.07113" lon="5.78283">
        <ele>513.2</ele>
        <time>2026-05-13T01:22:32Z</time>
      </trkpt>
      <trkpt lat="46.07147" lon="5.78292">
        <ele>513</ele>
        <time>2026-05-13T01:22:38Z</time>
      </trkpt>
      <trkpt lat="46.07174" lon="5.78297">
        <ele>513.6</ele>
        <time>2026-05-13T01:22:44Z</time>
      </trkpt>
      <trkpt lat="46.07192" lon="5.78302">
        <ele>514.4</ele>
        <time>2026-05-13T01:22:49Z</time>
      </trkpt>
      <trkpt lat="46.07195" lon="5.78302">
        <ele>514.6</ele>
        <time>2026-05-13T01:22:50Z</time>
      </trkpt>
      <trkpt lat="46.07205" lon="5.78304">
        <ele>515.4</ele>
        <time>2026-05-13T01:22:53Z</time>
      </trkpt>
      <trkpt lat="46.07219" lon="5.78306">
        <ele>516</ele>
        <time>2026-05-13T01:22:57Z</time>
      </trkpt>
      <trkpt lat="46.07229" lon="5.78306">
        <ele>516.6</ele>
        <time>2026-05-13T01:23:00Z</time>
      </trkpt>
      <trkpt lat="46.07241" lon="5.78306">
        <ele>517.2</ele>
        <time>2026-05-13T01:23:04Z</time>
      </trkpt>
      <trkpt lat="46.07247" lon="5.78307">
        <ele>517.6</ele>
        <time>2026-05-13T01:23:06Z</time>
      </trkpt>
      <trkpt lat="46.07261" lon="5.78311">
        <ele>518</ele>
        <time>2026-05-13T01:23:11Z</time>
      </trkpt>
      <trkpt lat="46.07271" lon="5.78317">
        <ele>518.8</ele>
        <time>2026-05-13T01:23:15Z</time>
      </trkpt>
      <trkpt lat="46.07281" lon="5.78321">
        <ele>519.6</ele>
        <time>2026-05-13T01:23:19Z</time>
      </trkpt>
      <trkpt lat="46.07287" lon="5.78322">
        <ele>519.8</ele>
        <time>2026-05-13T01:23:21Z</time>
      </trkpt>
      <trkpt lat="46.07307" lon="5.78326">
        <ele>521</ele>
        <time>2026-05-13T01:23:28Z</time>
      </trkpt>
      <trkpt lat="46.07312" lon="5.78327">
        <ele>521.2</ele>
        <time>2026-05-13T01:23:30Z</time>
      </trkpt>
      <trkpt lat="46.07325" lon="5.78329">
        <ele>522.4</ele>
        <time>2026-05-13T01:23:35Z</time>
      </trkpt>
      <trkpt lat="46.07328" lon="5.7833">
        <ele>522.6</ele>
        <time>2026-05-13T01:23:36Z</time>
      </trkpt>
      <trkpt lat="46.07342" lon="5.78333">
        <ele>523.4</ele>
        <time>2026-05-13T01:23:42Z</time>
      </trkpt>
      <trkpt lat="46.07344" lon="5.78333">
        <ele>523.6</ele>
        <time>2026-05-13T01:23:43Z</time>
      </trkpt>
      <trkpt lat="46.07355" lon="5.78336">
        <ele>524.4</ele>
        <time>2026-05-13T01:23:48Z</time>
      </trkpt>
      <trkpt lat="46.07359" lon="5.78337">
        <ele>524.8</ele>
        <time>2026-05-13T01:23:50Z</time>
      </trkpt>
      <trkpt lat="46.07372" lon="5.7834">
        <ele>526</ele>
        <time>2026-05-13T01:23:55Z</time>
      </trkpt>
      <trkpt lat="46.07379" lon="5.78341">
        <ele>526.2</ele>
        <time>2026-05-13T01:23:57Z</time>
      </trkpt>
      <trkpt lat="46.07392" lon="5.78345">
        <ele>527</ele>
        <time>2026-05-13T01:24:02Z</time>
      </trkpt>
      <trkpt lat="46.07398" lon="5.78345">
        <ele>527.2</ele>
        <time>2026-05-13T01:24:04Z</time>
      </trkpt>
      <trkpt lat="46.07406" lon="5.78346">
        <ele>528</ele>
        <time>2026-05-13T01:24:07Z</time>
      </trkpt>
      <trkpt lat="46.07423" lon="5.78351">
        <ele>529.2</ele>
        <time>2026-05-13T01:24:13Z</time>
      </trkpt>
      <trkpt lat="46.07436" lon="5.78352">
        <ele>530.2</ele>
        <time>2026-05-13T01:24:18Z</time>
      </trkpt>
      <trkpt lat="46.07438" lon="5.78352">
        <ele>530.4</ele>
        <time>2026-05-13T01:24:19Z</time>
      </trkpt>
      <trkpt lat="46.07448" lon="5.78352">
        <ele>531.2</ele>
        <time>2026-05-13T01:24:23Z</time>
      </trkpt>
      <trkpt lat="46.07458" lon="5.78356">
        <ele>532</ele>
        <time>2026-05-13T01:24:28Z</time>
      </trkpt>
      <trkpt lat="46.07461" lon="5.78358">
        <ele>532.4</ele>
        <time>2026-05-13T01:24:30Z</time>
      </trkpt>
      <trkpt lat="46.07475" lon="5.78362">
        <ele>533.4</ele>
        <time>2026-05-13T01:24:35Z</time>
      </trkpt>
      <trkpt lat="46.07487" lon="5.78365">
        <ele>534.6</ele>
        <time>2026-05-13T01:24:39Z</time>
      </trkpt>
      <trkpt lat="46.07498" lon="5.78366">
        <ele>535.4</ele>
        <time>2026-05-13T01:24:43Z</time>
      </trkpt>
      <trkpt lat="46.07501" lon="5.78367">
        <ele>535.6</ele>
        <time>2026-05-13T01:24:44Z</time>
      </trkpt>
      <trkpt lat="46.07513" lon="5.7837">
        <ele>536.2</ele>
        <time>2026-05-13T01:24:49Z</time>
      </trkpt>
      <trkpt lat="46.07517" lon="5.78372">
        <ele>536.6</ele>
        <time>2026-05-13T01:24:50Z</time>
      </trkpt>
      <trkpt lat="46.07531" lon="5.78373">
        <ele>537.8</ele>
        <time>2026-05-13T01:24:55Z</time>
      </trkpt>
      <trkpt lat="46.07536" lon="5.78374">
        <ele>538.2</ele>
        <time>2026-05-13T01:24:57Z</time>
      </trkpt>
      <trkpt lat="46.07549" lon="5.78376">
        <ele>539</ele>
        <time>2026-05-13T01:25:02Z</time>
      </trkpt>
      <trkpt lat="46.07562" lon="5.78377">
        <ele>540.2</ele>
        <time>2026-05-13T01:25:07Z</time>
      </trkpt>
      <trkpt lat="46.07567" lon="5.78378">
        <ele>540.4</ele>
        <time>2026-05-13T01:25:09Z</time>
      </trkpt>
      <trkpt lat="46.07577" lon="5.78379">
        <ele>541.2</ele>
        <time>2026-05-13T01:25:13Z</time>
      </trkpt>
      <trkpt lat="46.07584" lon="5.78381">
        <ele>541.6</ele>
        <time>2026-05-13T01:25:16Z</time>
      </trkpt>
      <trkpt lat="46.07588" lon="5.78381">
        <ele>542.2</ele>
        <time>2026-05-13T01:25:18Z</time>
      </trkpt>
      <trkpt lat="46.07599" lon="5.78382">
        <ele>542.6</ele>
        <time>2026-05-13T01:25:22Z</time>
      </trkpt>
      <trkpt lat="46.07608" lon="5.78383">
        <ele>543.2</ele>
        <time>2026-05-13T01:25:25Z</time>
      </trkpt>
      <trkpt lat="46.07619" lon="5.78383">
        <ele>544.4</ele>
        <time>2026-05-13T01:25:29Z</time>
      </trkpt>
      <trkpt lat="46.07628" lon="5.78384">
        <ele>545.4</ele>
        <time>2026-05-13T01:25:33Z</time>
      </trkpt>
      <trkpt lat="46.0763" lon="5.78385">
        <ele>545.4</ele>
        <time>2026-05-13T01:25:34Z</time>
      </trkpt>
      <trkpt lat="46.07646" lon="5.78392">
        <ele>546.2</ele>
        <time>2026-05-13T01:25:40Z</time>
      </trkpt>
      <trkpt lat="46.07651" lon="5.78395">
        <ele>546.4</ele>
        <time>2026-05-13T01:25:42Z</time>
      </trkpt>
      <trkpt lat="46.07663" lon="5.784">
        <ele>546.8</ele>
        <time>2026-05-13T01:25:46Z</time>
      </trkpt>
      <trkpt lat="46.07665" lon="5.78401">
        <ele>547.2</ele>
        <time>2026-05-13T01:25:47Z</time>
      </trkpt>
      <trkpt lat="46.07671" lon="5.78401">
        <ele>547.4</ele>
        <time>2026-05-13T01:25:49Z</time>
      </trkpt>
      <trkpt lat="46.07687" lon="5.78405">
        <ele>548.4</ele>
        <time>2026-05-13T01:25:55Z</time>
      </trkpt>
      <trkpt lat="46.0769" lon="5.78406">
        <ele>548.6</ele>
        <time>2026-05-13T01:25:56Z</time>
      </trkpt>
      <trkpt lat="46.07708" lon="5.78407">
        <ele>549.6</ele>
        <time>2026-05-13T01:26:03Z</time>
      </trkpt>
      <trkpt lat="46.07713" lon="5.78407">
        <ele>550</ele>
        <time>2026-05-13T01:26:05Z</time>
      </trkpt>
      <trkpt lat="46.07719" lon="5.78407">
        <ele>550.6</ele>
        <time>2026-05-13T01:26:07Z</time>
      </trkpt>
      <trkpt lat="46.07732" lon="5.78406">
        <ele>551.6</ele>
        <time>2026-05-13T01:26:12Z</time>
      </trkpt>
      <trkpt lat="46.07749" lon="5.78405">
        <ele>552.8</ele>
        <time>2026-05-13T01:26:19Z</time>
      </trkpt>
      <trkpt lat="46.07755" lon="5.78404">
        <ele>553.2</ele>
        <time>2026-05-13T01:26:21Z</time>
      </trkpt>
      <trkpt lat="46.07762" lon="5.78402">
        <ele>554</ele>
        <time>2026-05-13T01:26:25Z</time>
      </trkpt>
      <trkpt lat="46.07768" lon="5.78399">
        <ele>554.4</ele>
        <time>2026-05-13T01:26:28Z</time>
      </trkpt>
      <trkpt lat="46.0778" lon="5.78384">
        <ele>554.4</ele>
        <time>2026-05-13T01:26:35Z</time>
      </trkpt>
      <trkpt lat="46.07787" lon="5.78373">
        <ele>554.4</ele>
        <time>2026-05-13T01:26:40Z</time>
      </trkpt>
      <trkpt lat="46.07791" lon="5.78369">
        <ele>554.4</ele>
        <time>2026-05-13T01:26:42Z</time>
      </trkpt>
      <trkpt lat="46.07802" lon="5.78356">
        <ele>554.6</ele>
        <time>2026-05-13T01:26:47Z</time>
      </trkpt>
      <trkpt lat="46.07818" lon="5.78335">
        <ele>554</ele>
        <time>2026-05-13T01:26:54Z</time>
      </trkpt>
      <trkpt lat="46.07835" lon="5.78312">
        <ele>553.6</ele>
        <time>2026-05-13T01:27:00Z</time>
      </trkpt>
      <trkpt lat="46.07849" lon="5.78293">
        <ele>553.2</ele>
        <time>2026-05-13T01:27:04Z</time>
      </trkpt>
      <trkpt lat="46.07857" lon="5.78283">
        <ele>553</ele>
        <time>2026-05-13T01:27:06Z</time>
      </trkpt>
      <trkpt lat="46.07875" lon="5.78259">
        <ele>552</ele>
        <time>2026-05-13T01:27:10Z</time>
      </trkpt>
      <trkpt lat="46.07889" lon="5.7824">
        <ele>551</ele>
        <time>2026-05-13T01:27:13Z</time>
      </trkpt>
      <trkpt lat="46.07894" lon="5.78233">
        <ele>550.6</ele>
        <time>2026-05-13T01:27:14Z</time>
      </trkpt>
      <trkpt lat="46.07909" lon="5.78213">
        <ele>549.4</ele>
        <time>2026-05-13T01:27:17Z</time>
      </trkpt>
      <trkpt lat="46.07925" lon="5.78192">
        <ele>548</ele>
        <time>2026-05-13T01:27:20Z</time>
      </trkpt>
      <trkpt lat="46.07931" lon="5.78185">
        <ele>548</ele>
        <time>2026-05-13T01:27:21Z</time>
      </trkpt>
      <trkpt lat="46.07949" lon="5.7816">
        <ele>546.8</ele>
        <time>2026-05-13T01:27:24Z</time>
      </trkpt>
      <trkpt lat="46.07969" lon="5.78134">
        <ele>545.2</ele>
        <time>2026-05-13T01:27:27Z</time>
      </trkpt>
      <trkpt lat="46.07989" lon="5.78107">
        <ele>544</ele>
        <time>2026-05-13T01:27:30Z</time>
      </trkpt>
      <trkpt lat="46.08003" lon="5.78088">
        <ele>543</ele>
        <time>2026-05-13T01:27:32Z</time>
      </trkpt>
      <trkpt lat="46.08017" lon="5.78068">
        <ele>541.8</ele>
        <time>2026-05-13T01:27:34Z</time>
      </trkpt>
      <trkpt lat="46.08032" lon="5.78049">
        <ele>540.6</ele>
        <time>2026-05-13T01:27:36Z</time>
      </trkpt>
      <trkpt lat="46.08054" lon="5.78019">
        <ele>538.8</ele>
        <time>2026-05-13T01:27:39Z</time>
      </trkpt>
      <trkpt lat="46.08077" lon="5.77988">
        <ele>537.6</ele>
        <time>2026-05-13T01:27:42Z</time>
      </trkpt>
      <trkpt lat="46.08084" lon="5.77978">
        <ele>537.2</ele>
        <time>2026-05-13T01:27:43Z</time>
      </trkpt>
      <trkpt lat="46.08091" lon="5.77968">
        <ele>536.2</ele>
        <time>2026-05-13T01:27:44Z</time>
      </trkpt>
      <trkpt lat="46.08106" lon="5.77949">
        <ele>535</ele>
        <time>2026-05-13T01:27:46Z</time>
      </trkpt>
      <trkpt lat="46.08126" lon="5.77922">
        <ele>533.6</ele>
        <time>2026-05-13T01:27:49Z</time>
      </trkpt>
      <trkpt lat="46.08132" lon="5.77914">
        <ele>533.4</ele>
        <time>2026-05-13T01:27:50Z</time>
      </trkpt>
      <trkpt lat="46.08149" lon="5.77891">
        <ele>532.6</ele>
        <time>2026-05-13T01:27:53Z</time>
      </trkpt>
      <trkpt lat="46.08166" lon="5.77869">
        <ele>532.2</ele>
        <time>2026-05-13T01:27:56Z</time>
      </trkpt>
      <trkpt lat="46.082" lon="5.77822">
        <ele>532.2</ele>
        <time>2026-05-13T01:28:03Z</time>
      </trkpt>
      <trkpt lat="46.08241" lon="5.7777">
        <ele>532.4</ele>
        <time>2026-05-13T01:28:11Z</time>
      </trkpt>
      <trkpt lat="46.08269" lon="5.77732">
        <ele>531.4</ele>
        <time>2026-05-13T01:28:16Z</time>
      </trkpt>
      <trkpt lat="46.0828" lon="5.77718">
        <ele>530.8</ele>
        <time>2026-05-13T01:28:18Z</time>
      </trkpt>
      <trkpt lat="46.08296" lon="5.77696">
        <ele>530.4</ele>
        <time>2026-05-13T01:28:21Z</time>
      </trkpt>
      <trkpt lat="46.08315" lon="5.77671">
        <ele>530</ele>
        <time>2026-05-13T01:28:25Z</time>
      </trkpt>
      <trkpt lat="46.08342" lon="5.77634">
        <ele>530.6</ele>
        <time>2026-05-13T01:28:32Z</time>
      </trkpt>
      <trkpt lat="46.08358" lon="5.77613">
        <ele>531.2</ele>
        <time>2026-05-13T01:28:37Z</time>
      </trkpt>
      <trkpt lat="46.0836" lon="5.77609">
        <ele>531.2</ele>
        <time>2026-05-13T01:28:38Z</time>
      </trkpt>
      <trkpt lat="46.08362" lon="5.77605">
        <ele>531.6</ele>
        <time>2026-05-13T01:28:39Z</time>
      </trkpt>
      <trkpt lat="46.08374" lon="5.77591">
        <ele>532.4</ele>
        <time>2026-05-13T01:28:43Z</time>
      </trkpt>
      <trkpt lat="46.08377" lon="5.77587">
        <ele>532.6</ele>
        <time>2026-05-13T01:28:44Z</time>
      </trkpt>
      <trkpt lat="46.08394" lon="5.77566">
        <ele>533.6</ele>
        <time>2026-05-13T01:28:50Z</time>
      </trkpt>
      <trkpt lat="46.08403" lon="5.77555">
        <ele>534.4</ele>
        <time>2026-05-13T01:28:53Z</time>
      </trkpt>
      <trkpt lat="46.08408" lon="5.77549">
        <ele>534.6</ele>
        <time>2026-05-13T01:28:55Z</time>
      </trkpt>
      <trkpt lat="46.08424" lon="5.77528">
        <ele>535.4</ele>
        <time>2026-05-13T01:29:00Z</time>
      </trkpt>
      <trkpt lat="46.08429" lon="5.77522">
        <ele>535.6</ele>
        <time>2026-05-13T01:29:02Z</time>
      </trkpt>
      <trkpt lat="46.08445" lon="5.77499">
        <ele>536.6</ele>
        <time>2026-05-13T01:29:08Z</time>
      </trkpt>
      <trkpt lat="46.08448" lon="5.77496">
        <ele>536.8</ele>
        <time>2026-05-13T01:29:09Z</time>
      </trkpt>
      <trkpt lat="46.08467" lon="5.77472">
        <ele>538</ele>
        <time>2026-05-13T01:29:16Z</time>
      </trkpt>
      <trkpt lat="46.08472" lon="5.77465">
        <ele>538.2</ele>
        <time>2026-05-13T01:29:18Z</time>
      </trkpt>
      <trkpt lat="46.08488" lon="5.77444">
        <ele>539</ele>
        <time>2026-05-13T01:29:24Z</time>
      </trkpt>
      <trkpt lat="46.08501" lon="5.77428">
        <ele>539.6</ele>
        <time>2026-05-13T01:29:29Z</time>
      </trkpt>
      <trkpt lat="46.08511" lon="5.77414">
        <ele>540.2</ele>
        <time>2026-05-13T01:29:33Z</time>
      </trkpt>
      <trkpt lat="46.08527" lon="5.77396">
        <ele>541</ele>
        <time>2026-05-13T01:29:39Z</time>
      </trkpt>
      <trkpt lat="46.08529" lon="5.77393">
        <ele>541.2</ele>
        <time>2026-05-13T01:29:40Z</time>
      </trkpt>
      <trkpt lat="46.08541" lon="5.77379">
        <ele>542.2</ele>
        <time>2026-05-13T01:29:45Z</time>
      </trkpt>
      <trkpt lat="46.08543" lon="5.77376">
        <ele>542.6</ele>
        <time>2026-05-13T01:29:46Z</time>
      </trkpt>
      <trkpt lat="46.0855" lon="5.77369">
        <ele>543.2</ele>
        <time>2026-05-13T01:29:49Z</time>
      </trkpt>
      <trkpt lat="46.08565" lon="5.77356">
        <ele>544.2</ele>
        <time>2026-05-13T01:29:55Z</time>
      </trkpt>
      <trkpt lat="46.08567" lon="5.77353">
        <ele>544.4</ele>
        <time>2026-05-13T01:29:56Z</time>
      </trkpt>
      <trkpt lat="46.08582" lon="5.77341">
        <ele>545.6</ele>
        <time>2026-05-13T01:30:02Z</time>
      </trkpt>
      <trkpt lat="46.08595" lon="5.7733">
        <ele>546.6</ele>
        <time>2026-05-13T01:30:07Z</time>
      </trkpt>
      <trkpt lat="46.08604" lon="5.77324">
        <ele>547.2</ele>
        <time>2026-05-13T01:30:10Z</time>
      </trkpt>
      <trkpt lat="46.08612" lon="5.7732">
        <ele>547.8</ele>
        <time>2026-05-13T01:30:13Z</time>
      </trkpt>
      <trkpt lat="46.08624" lon="5.77314">
        <ele>548.4</ele>
        <time>2026-05-13T01:30:17Z</time>
      </trkpt>
      <trkpt lat="46.08629" lon="5.77311">
        <ele>549</ele>
        <time>2026-05-13T01:30:19Z</time>
      </trkpt>
      <trkpt lat="46.08643" lon="5.77306">
        <ele>549.6</ele>
        <time>2026-05-13T01:30:24Z</time>
      </trkpt>
      <trkpt lat="46.08646" lon="5.77304">
        <ele>549.8</ele>
        <time>2026-05-13T01:30:25Z</time>
      </trkpt>
      <trkpt lat="46.08659" lon="5.773">
        <ele>551.2</ele>
        <time>2026-05-13T01:30:30Z</time>
      </trkpt>
      <trkpt lat="46.08661" lon="5.77299">
        <ele>551.4</ele>
        <time>2026-05-13T01:30:31Z</time>
      </trkpt>
      <trkpt lat="46.08675" lon="5.77295">
        <ele>552.4</ele>
        <time>2026-05-13T01:30:36Z</time>
      </trkpt>
      <trkpt lat="46.08678" lon="5.77295">
        <ele>552.4</ele>
        <time>2026-05-13T01:30:37Z</time>
      </trkpt>
      <trkpt lat="46.08685" lon="5.77294">
        <ele>553.4</ele>
        <time>2026-05-13T01:30:40Z</time>
      </trkpt>
      <trkpt lat="46.08696" lon="5.77293">
        <ele>554.2</ele>
        <time>2026-05-13T01:30:44Z</time>
      </trkpt>
      <trkpt lat="46.08702" lon="5.77292">
        <ele>554.6</ele>
        <time>2026-05-13T01:30:46Z</time>
      </trkpt>
      <trkpt lat="46.08716" lon="5.77291">
        <ele>555.6</ele>
        <time>2026-05-13T01:30:51Z</time>
      </trkpt>
      <trkpt lat="46.08737" lon="5.77293">
        <ele>556.8</ele>
        <time>2026-05-13T01:30:58Z</time>
      </trkpt>
      <trkpt lat="46.08758" lon="5.77295">
        <ele>557.8</ele>
        <time>2026-05-13T01:31:04Z</time>
      </trkpt>
      <trkpt lat="46.08765" lon="5.77295">
        <ele>558.2</ele>
        <time>2026-05-13T01:31:06Z</time>
      </trkpt>
      <trkpt lat="46.08786" lon="5.77295">
        <ele>558.8</ele>
        <time>2026-05-13T01:31:11Z</time>
      </trkpt>
      <trkpt lat="46.08803" lon="5.77294">
        <ele>559.2</ele>
        <time>2026-05-13T01:31:15Z</time>
      </trkpt>
      <trkpt lat="46.08846" lon="5.77288">
        <ele>559.4</ele>
        <time>2026-05-13T01:31:24Z</time>
      </trkpt>
      <trkpt lat="46.08888" lon="5.77283">
        <ele>559</ele>
        <time>2026-05-13T01:31:31Z</time>
      </trkpt>
      <trkpt lat="46.0893" lon="5.77277">
        <ele>558.2</ele>
        <time>2026-05-13T01:31:38Z</time>
      </trkpt>
      <trkpt lat="46.08945" lon="5.77276">
        <ele>558</ele>
        <time>2026-05-13T01:31:41Z</time>
      </trkpt>
      <trkpt lat="46.08954" lon="5.77276">
        <ele>557.8</ele>
        <time>2026-05-13T01:31:43Z</time>
      </trkpt>
      <trkpt lat="46.0896" lon="5.77277">
        <ele>557.8</ele>
        <time>2026-05-13T01:31:44Z</time>
      </trkpt>
      <trkpt lat="46.08971" lon="5.77279">
        <ele>557.8</ele>
        <time>2026-05-13T01:31:47Z</time>
      </trkpt>
      <trkpt lat="46.08994" lon="5.77281">
        <ele>557.6</ele>
        <time>2026-05-13T01:31:50Z</time>
      </trkpt>
      <trkpt lat="46.09042" lon="5.77292">
        <ele>557.4</ele>
        <time>2026-05-13T01:31:57Z</time>
      </trkpt>
      <trkpt lat="46.09098" lon="5.77315">
        <ele>558.2</ele>
        <time>2026-05-13T01:32:07Z</time>
      </trkpt>
      <trkpt lat="46.0912" lon="5.77328">
        <ele>559.2</ele>
        <time>2026-05-13T01:32:12Z</time>
      </trkpt>
      <trkpt lat="46.09128" lon="5.77333">
        <ele>559.6</ele>
        <time>2026-05-13T01:32:14Z</time>
      </trkpt>
      <trkpt lat="46.09144" lon="5.77342">
        <ele>560.2</ele>
        <time>2026-05-13T01:32:18Z</time>
      </trkpt>
      <trkpt lat="46.09154" lon="5.77351">
        <ele>560.6</ele>
        <time>2026-05-13T01:32:21Z</time>
      </trkpt>
      <trkpt lat="46.09172" lon="5.77365">
        <ele>561.2</ele>
        <time>2026-05-13T01:32:26Z</time>
      </trkpt>
      <trkpt lat="46.09185" lon="5.77375">
        <ele>561.8</ele>
        <time>2026-05-13T01:32:30Z</time>
      </trkpt>
      <trkpt lat="46.09195" lon="5.77383">
        <ele>562.4</ele>
        <time>2026-05-13T01:32:33Z</time>
      </trkpt>
      <trkpt lat="46.09211" lon="5.77397">
        <ele>563.4</ele>
        <time>2026-05-13T01:32:38Z</time>
      </trkpt>
      <trkpt lat="46.09221" lon="5.77404">
        <ele>563.8</ele>
        <time>2026-05-13T01:32:41Z</time>
      </trkpt>
      <trkpt lat="46.09233" lon="5.77414">
        <ele>564.4</ele>
        <time>2026-05-13T01:32:45Z</time>
      </trkpt>
      <trkpt lat="46.09244" lon="5.77425">
        <ele>565</ele>
        <time>2026-05-13T01:32:49Z</time>
      </trkpt>
      <trkpt lat="46.09254" lon="5.77431">
        <ele>565.8</ele>
        <time>2026-05-13T01:32:52Z</time>
      </trkpt>
      <trkpt lat="46.09273" lon="5.77442">
        <ele>566.6</ele>
        <time>2026-05-13T01:32:58Z</time>
      </trkpt>
      <trkpt lat="46.0928" lon="5.77445">
        <ele>566.8</ele>
        <time>2026-05-13T01:33:00Z</time>
      </trkpt>
      <trkpt lat="46.09304" lon="5.77456">
        <ele>567.8</ele>
        <time>2026-05-13T01:33:07Z</time>
      </trkpt>
      <trkpt lat="46.09307" lon="5.77458">
        <ele>568</ele>
        <time>2026-05-13T01:33:08Z</time>
      </trkpt>
      <trkpt lat="46.09328" lon="5.77464">
        <ele>569</ele>
        <time>2026-05-13T01:33:14Z</time>
      </trkpt>
      <trkpt lat="46.09333" lon="5.77466">
        <ele>569.4</ele>
        <time>2026-05-13T01:33:16Z</time>
      </trkpt>
      <trkpt lat="46.09344" lon="5.7747">
        <ele>570</ele>
        <time>2026-05-13T01:33:20Z</time>
      </trkpt>
      <trkpt lat="46.09347" lon="5.77471">
        <ele>570.2</ele>
        <time>2026-05-13T01:33:21Z</time>
      </trkpt>
      <trkpt lat="46.09371" lon="5.77477">
        <ele>571</ele>
        <time>2026-05-13T01:33:28Z</time>
      </trkpt>
      <trkpt lat="46.09374" lon="5.77478">
        <ele>571.4</ele>
        <time>2026-05-13T01:33:29Z</time>
      </trkpt>
      <trkpt lat="46.0939" lon="5.77483">
        <ele>572.2</ele>
        <time>2026-05-13T01:33:34Z</time>
      </trkpt>
      <trkpt lat="46.0941" lon="5.77489">
        <ele>573.2</ele>
        <time>2026-05-13T01:33:40Z</time>
      </trkpt>
      <trkpt lat="46.09418" lon="5.7749">
        <ele>573.4</ele>
        <time>2026-05-13T01:33:42Z</time>
      </trkpt>
      <trkpt lat="46.09442" lon="5.77496">
        <ele>574.4</ele>
        <time>2026-05-13T01:33:49Z</time>
      </trkpt>
      <trkpt lat="46.09453" lon="5.77499">
        <ele>574.8</ele>
        <time>2026-05-13T01:33:52Z</time>
      </trkpt>
      <trkpt lat="46.09466" lon="5.77504">
        <ele>575.4</ele>
        <time>2026-05-13T01:33:56Z</time>
      </trkpt>
      <trkpt lat="46.09479" lon="5.77508">
        <ele>576</ele>
        <time>2026-05-13T01:34:00Z</time>
      </trkpt>
      <trkpt lat="46.09485" lon="5.7751">
        <ele>576.4</ele>
        <time>2026-05-13T01:34:02Z</time>
      </trkpt>
      <trkpt lat="46.09504" lon="5.77515">
        <ele>577.2</ele>
        <time>2026-05-13T01:34:08Z</time>
      </trkpt>
      <trkpt lat="46.09507" lon="5.77516">
        <ele>577.6</ele>
        <time>2026-05-13T01:34:09Z</time>
      </trkpt>
      <trkpt lat="46.09526" lon="5.77521">
        <ele>578.8</ele>
        <time>2026-05-13T01:34:15Z</time>
      </trkpt>
      <trkpt lat="46.09532" lon="5.77523">
        <ele>579.2</ele>
        <time>2026-05-13T01:34:17Z</time>
      </trkpt>
      <trkpt lat="46.09547" lon="5.77528">
        <ele>579.8</ele>
        <time>2026-05-13T01:34:22Z</time>
      </trkpt>
      <trkpt lat="46.09559" lon="5.77532">
        <ele>580.4</ele>
        <time>2026-05-13T01:34:26Z</time>
      </trkpt>
      <trkpt lat="46.09572" lon="5.77536">
        <ele>581</ele>
        <time>2026-05-13T01:34:30Z</time>
      </trkpt>
      <trkpt lat="46.09587" lon="5.77541">
        <ele>582</ele>
        <time>2026-05-13T01:34:35Z</time>
      </trkpt>
      <trkpt lat="46.0959" lon="5.77542">
        <ele>582.2</ele>
        <time>2026-05-13T01:34:36Z</time>
      </trkpt>
      <trkpt lat="46.09609" lon="5.77548">
        <ele>583.2</ele>
        <time>2026-05-13T01:34:42Z</time>
      </trkpt>
      <trkpt lat="46.09618" lon="5.77551">
        <ele>583.6</ele>
        <time>2026-05-13T01:34:45Z</time>
      </trkpt>
      <trkpt lat="46.09637" lon="5.77557">
        <ele>584.4</ele>
        <time>2026-05-13T01:34:51Z</time>
      </trkpt>
      <trkpt lat="46.09653" lon="5.77562">
        <ele>585</ele>
        <time>2026-05-13T01:34:56Z</time>
      </trkpt>
      <trkpt lat="46.0967" lon="5.77567">
        <ele>585.4</ele>
        <time>2026-05-13T01:35:01Z</time>
      </trkpt>
      <trkpt lat="46.09686" lon="5.77571">
        <ele>586.2</ele>
        <time>2026-05-13T01:35:05Z</time>
      </trkpt>
      <trkpt lat="46.09701" lon="5.77575">
        <ele>586.8</ele>
        <time>2026-05-13T01:35:09Z</time>
      </trkpt>
      <trkpt lat="46.09722" lon="5.77582">
        <ele>587</ele>
        <time>2026-05-13T01:35:14Z</time>
      </trkpt>
      <trkpt lat="46.09757" lon="5.77592">
        <ele>586.6</ele>
        <time>2026-05-13T01:35:21Z</time>
      </trkpt>
      <trkpt lat="46.09791" lon="5.77602">
        <ele>586</ele>
        <time>2026-05-13T01:35:27Z</time>
      </trkpt>
      <trkpt lat="46.09804" lon="5.77606">
        <ele>585.6</ele>
        <time>2026-05-13T01:35:29Z</time>
      </trkpt>
      <trkpt lat="46.09844" lon="5.77618">
        <ele>585</ele>
        <time>2026-05-13T01:35:35Z</time>
      </trkpt>
      <trkpt lat="46.09858" lon="5.77622">
        <ele>584.6</ele>
        <time>2026-05-13T01:35:37Z</time>
      </trkpt>
      <trkpt lat="46.09887" lon="5.7763">
        <ele>583.2</ele>
        <time>2026-05-13T01:35:41Z</time>
      </trkpt>
      <trkpt lat="46.09904" lon="5.77635">
        <ele>582.8</ele>
        <time>2026-05-13T01:35:43Z</time>
      </trkpt>
      <trkpt lat="46.09927" lon="5.77642">
        <ele>582.2</ele>
        <time>2026-05-13T01:35:46Z</time>
      </trkpt>
      <trkpt lat="46.09966" lon="5.77655">
        <ele>580.8</ele>
        <time>2026-05-13T01:35:51Z</time>
      </trkpt>
      <trkpt lat="46.09973" lon="5.77657">
        <ele>580.8</ele>
        <time>2026-05-13T01:35:52Z</time>
      </trkpt>
      <trkpt lat="46.10004" lon="5.77666">
        <ele>579.8</ele>
        <time>2026-05-13T01:35:56Z</time>
      </trkpt>
      <trkpt lat="46.10047" lon="5.77677">
        <ele>579.4</ele>
        <time>2026-05-13T01:36:02Z</time>
      </trkpt>
      <trkpt lat="46.1009" lon="5.77689">
        <ele>579.4</ele>
        <time>2026-05-13T01:36:09Z</time>
      </trkpt>
      <trkpt lat="46.10143" lon="5.77704">
        <ele>579.2</ele>
        <time>2026-05-13T01:36:17Z</time>
      </trkpt>
      <trkpt lat="46.10171" lon="5.77711">
        <ele>578.8</ele>
        <time>2026-05-13T01:36:21Z</time>
      </trkpt>
      <trkpt lat="46.10198" lon="5.77719">
        <ele>578.6</ele>
        <time>2026-05-13T01:36:25Z</time>
      </trkpt>
      <trkpt lat="46.10254" lon="5.77735">
        <ele>578.2</ele>
        <time>2026-05-13T01:36:34Z</time>
      </trkpt>
      <trkpt lat="46.10299" lon="5.77748">
        <ele>578.8</ele>
        <time>2026-05-13T01:36:42Z</time>
      </trkpt>
      <trkpt lat="46.10309" lon="5.77751">
        <ele>579</ele>
        <time>2026-05-13T01:36:44Z</time>
      </trkpt>
      <trkpt lat="46.10334" lon="5.77758">
        <ele>579.8</ele>
        <time>2026-05-13T01:36:49Z</time>
      </trkpt>
      <trkpt lat="46.10346" lon="5.77761">
        <ele>580</ele>
        <time>2026-05-13T01:36:52Z</time>
      </trkpt>
      <trkpt lat="46.10352" lon="5.77764">
        <ele>580.4</ele>
        <time>2026-05-13T01:36:54Z</time>
      </trkpt>
      <trkpt lat="46.10363" lon="5.77767">
        <ele>580.8</ele>
        <time>2026-05-13T01:36:58Z</time>
      </trkpt>
      <trkpt lat="46.10378" lon="5.77772">
        <ele>581.2</ele>
        <time>2026-05-13T01:37:01Z</time>
      </trkpt>
      <trkpt lat="46.10385" lon="5.77773">
        <ele>581.2</ele>
        <time>2026-05-13T01:37:02Z</time>
      </trkpt>
      <trkpt lat="46.10423" lon="5.77783">
        <ele>581.4</ele>
        <time>2026-05-13T01:37:08Z</time>
      </trkpt>
      <trkpt lat="46.10479" lon="5.77806">
        <ele>580.4</ele>
        <time>2026-05-13T01:37:17Z</time>
      </trkpt>
      <trkpt lat="46.10504" lon="5.77813">
        <ele>580</ele>
        <time>2026-05-13T01:37:21Z</time>
      </trkpt>
      <trkpt lat="46.10523" lon="5.77817">
        <ele>580</ele>
        <time>2026-05-13T01:37:24Z</time>
      </trkpt>
      <trkpt lat="46.10581" lon="5.77831">
        <ele>579</ele>
        <time>2026-05-13T01:37:33Z</time>
      </trkpt>
      <trkpt lat="46.106" lon="5.77838">
        <ele>578.4</ele>
        <time>2026-05-13T01:37:36Z</time>
      </trkpt>
      <trkpt lat="46.10647" lon="5.7785">
        <ele>578.2</ele>
        <time>2026-05-13T01:37:44Z</time>
      </trkpt>
      <trkpt lat="46.10671" lon="5.77857">
        <ele>578.4</ele>
        <time>2026-05-13T01:37:49Z</time>
      </trkpt>
      <trkpt lat="46.10689" lon="5.77865">
        <ele>579.6</ele>
        <time>2026-05-13T01:37:54Z</time>
      </trkpt>
      <trkpt lat="46.10698" lon="5.77869">
        <ele>580</ele>
        <time>2026-05-13T01:37:56Z</time>
      </trkpt>
      <trkpt lat="46.10716" lon="5.77881">
        <ele>580.6</ele>
        <time>2026-05-13T01:38:00Z</time>
      </trkpt>
      <trkpt lat="46.10723" lon="5.77888">
        <ele>580.6</ele>
        <time>2026-05-13T01:38:02Z</time>
      </trkpt>
      <trkpt lat="46.10732" lon="5.77904">
        <ele>580.8</ele>
        <time>2026-05-13T01:38:05Z</time>
      </trkpt>
      <trkpt lat="46.10735" lon="5.7791">
        <ele>580.8</ele>
        <time>2026-05-13T01:38:06Z</time>
      </trkpt>
      <trkpt lat="46.10753" lon="5.77936">
        <ele>580.8</ele>
        <time>2026-05-13T01:38:11Z</time>
      </trkpt>
      <trkpt lat="46.10782" lon="5.77967">
        <ele>580.2</ele>
        <time>2026-05-13T01:38:17Z</time>
      </trkpt>
      <trkpt lat="46.10808" lon="5.77974">
        <ele>579</ele>
        <time>2026-05-13T01:38:21Z</time>
      </trkpt>
      <trkpt lat="46.10814" lon="5.77977">
        <ele>578.8</ele>
        <time>2026-05-13T01:38:22Z</time>
      </trkpt>
      <trkpt lat="46.10852" lon="5.77993">
        <ele>577.8</ele>
        <time>2026-05-13T01:38:28Z</time>
      </trkpt>
      <trkpt lat="46.10864" lon="5.77998">
        <ele>577.8</ele>
        <time>2026-05-13T01:38:30Z</time>
      </trkpt>
      <trkpt lat="46.10916" lon="5.78025">
        <ele>577</ele>
        <time>2026-05-13T01:38:39Z</time>
      </trkpt>
      <trkpt lat="46.10939" lon="5.78037">
        <ele>576.8</ele>
        <time>2026-05-13T01:38:43Z</time>
      </trkpt>
      <trkpt lat="46.10969" lon="5.78053">
        <ele>576.2</ele>
        <time>2026-05-13T01:38:48Z</time>
      </trkpt>
      <trkpt lat="46.10995" lon="5.78067">
        <ele>575.8</ele>
        <time>2026-05-13T01:38:52Z</time>
      </trkpt>
      <trkpt lat="46.11015" lon="5.78077">
        <ele>575.2</ele>
        <time>2026-05-13T01:38:55Z</time>
      </trkpt>
      <trkpt lat="46.11035" lon="5.78088">
        <ele>574.6</ele>
        <time>2026-05-13T01:38:58Z</time>
      </trkpt>
      <trkpt lat="46.11068" lon="5.78105">
        <ele>573.8</ele>
        <time>2026-05-13T01:39:03Z</time>
      </trkpt>
      <trkpt lat="46.11074" lon="5.78108">
        <ele>573.4</ele>
        <time>2026-05-13T01:39:04Z</time>
      </trkpt>
      <trkpt lat="46.11117" lon="5.7813">
        <ele>573.2</ele>
        <time>2026-05-13T01:39:11Z</time>
      </trkpt>
      <trkpt lat="46.11168" lon="5.78156">
        <ele>573</ele>
        <time>2026-05-13T01:39:20Z</time>
      </trkpt>
      <trkpt lat="46.11204" lon="5.78176">
        <ele>573</ele>
        <time>2026-05-13T01:39:27Z</time>
      </trkpt>
      <trkpt lat="46.11221" lon="5.78184">
        <ele>572.8</ele>
        <time>2026-05-13T01:39:30Z</time>
      </trkpt>
      <trkpt lat="46.11233" lon="5.78191">
        <ele>572.4</ele>
        <time>2026-05-13T01:39:32Z</time>
      </trkpt>
      <trkpt lat="46.11238" lon="5.78195">
        <ele>572.4</ele>
        <time>2026-05-13T01:39:33Z</time>
      </trkpt>
      <trkpt lat="46.11274" lon="5.78216">
        <ele>571.8</ele>
        <time>2026-05-13T01:39:39Z</time>
      </trkpt>
      <trkpt lat="46.11292" lon="5.78225">
        <ele>571.2</ele>
        <time>2026-05-13T01:39:42Z</time>
      </trkpt>
      <trkpt lat="46.11319" lon="5.78241">
        <ele>570.4</ele>
        <time>2026-05-13T01:39:47Z</time>
      </trkpt>
      <trkpt lat="46.1133" lon="5.78245">
        <ele>570.2</ele>
        <time>2026-05-13T01:39:49Z</time>
      </trkpt>
      <trkpt lat="46.1135" lon="5.78256">
        <ele>569.8</ele>
        <time>2026-05-13T01:39:53Z</time>
      </trkpt>
      <trkpt lat="46.11376" lon="5.78273">
        <ele>569.2</ele>
        <time>2026-05-13T01:39:59Z</time>
      </trkpt>
      <trkpt lat="46.11387" lon="5.78279">
        <ele>569</ele>
        <time>2026-05-13T01:40:01Z</time>
      </trkpt>
      <trkpt lat="46.11409" lon="5.7829">
        <ele>568.8</ele>
        <time>2026-05-13T01:40:05Z</time>
      </trkpt>
      <trkpt lat="46.11443" lon="5.78305">
        <ele>568.2</ele>
        <time>2026-05-13T01:40:10Z</time>
      </trkpt>
      <trkpt lat="46.1145" lon="5.78309">
        <ele>567.8</ele>
        <time>2026-05-13T01:40:11Z</time>
      </trkpt>
      <trkpt lat="46.11471" lon="5.78317">
        <ele>566.8</ele>
        <time>2026-05-13T01:40:14Z</time>
      </trkpt>
      <trkpt lat="46.11484" lon="5.78323">
        <ele>566.2</ele>
        <time>2026-05-13T01:40:16Z</time>
      </trkpt>
      <trkpt lat="46.11495" lon="5.7833">
        <ele>565.8</ele>
        <time>2026-05-13T01:40:18Z</time>
      </trkpt>
      <trkpt lat="46.11515" lon="5.78341">
        <ele>565.4</ele>
        <time>2026-05-13T01:40:22Z</time>
      </trkpt>
      <trkpt lat="46.1153" lon="5.78351">
        <ele>565.2</ele>
        <time>2026-05-13T01:40:25Z</time>
      </trkpt>
      <trkpt lat="46.11545" lon="5.78361">
        <ele>564.8</ele>
        <time>2026-05-13T01:40:28Z</time>
      </trkpt>
      <trkpt lat="46.11586" lon="5.78382">
        <ele>563.8</ele>
        <time>2026-05-13T01:40:34Z</time>
      </trkpt>
      <trkpt lat="46.11593" lon="5.78385">
        <ele>563.6</ele>
        <time>2026-05-13T01:40:35Z</time>
      </trkpt>
      <trkpt lat="46.1162" lon="5.78398">
        <ele>562.6</ele>
        <time>2026-05-13T01:40:39Z</time>
      </trkpt>
      <trkpt lat="46.11645" lon="5.78412">
        <ele>562</ele>
        <time>2026-05-13T01:40:43Z</time>
      </trkpt>
      <trkpt lat="46.11651" lon="5.78414">
        <ele>561.8</ele>
        <time>2026-05-13T01:40:44Z</time>
      </trkpt>
      <trkpt lat="46.11657" lon="5.78416">
        <ele>561.6</ele>
        <time>2026-05-13T01:40:45Z</time>
      </trkpt>
      <trkpt lat="46.11662" lon="5.78419">
        <ele>561.2</ele>
        <time>2026-05-13T01:40:46Z</time>
      </trkpt>
      <trkpt lat="46.11679" lon="5.78429">
        <ele>561</ele>
        <time>2026-05-13T01:40:49Z</time>
      </trkpt>
      <trkpt lat="46.11715" lon="5.78452">
        <ele>560.6</ele>
        <time>2026-05-13T01:40:56Z</time>
      </trkpt>
      <trkpt lat="46.1172" lon="5.78454">
        <ele>560.6</ele>
        <time>2026-05-13T01:40:57Z</time>
      </trkpt>
      <trkpt lat="46.11739" lon="5.78465">
        <ele>560.8</ele>
        <time>2026-05-13T01:41:01Z</time>
      </trkpt>
      <trkpt lat="46.11744" lon="5.78468">
        <ele>561</ele>
        <time>2026-05-13T01:41:02Z</time>
      </trkpt>
      <trkpt lat="46.11749" lon="5.7847">
        <ele>561.2</ele>
        <time>2026-05-13T01:41:03Z</time>
      </trkpt>
      <trkpt lat="46.11784" lon="5.78487">
        <ele>561.8</ele>
        <time>2026-05-13T01:41:10Z</time>
      </trkpt>
      <trkpt lat="46.11824" lon="5.78507">
        <ele>561.8</ele>
        <time>2026-05-13T01:41:17Z</time>
      </trkpt>
      <trkpt lat="46.11863" lon="5.78529">
        <ele>560.8</ele>
        <time>2026-05-13T01:41:23Z</time>
      </trkpt>
      <trkpt lat="46.1187" lon="5.78533">
        <ele>560.4</ele>
        <time>2026-05-13T01:41:24Z</time>
      </trkpt>
      <trkpt lat="46.11902" lon="5.7855">
        <ele>559.2</ele>
        <time>2026-05-13T01:41:29Z</time>
      </trkpt>
      <trkpt lat="46.11921" lon="5.7856">
        <ele>558.8</ele>
        <time>2026-05-13T01:41:32Z</time>
      </trkpt>
      <trkpt lat="46.11946" lon="5.78574">
        <ele>558</ele>
        <time>2026-05-13T01:41:36Z</time>
      </trkpt>
      <trkpt lat="46.11975" lon="5.78589">
        <ele>557.6</ele>
        <time>2026-05-13T01:41:40Z</time>
      </trkpt>
      <trkpt lat="46.12007" lon="5.78605">
        <ele>557</ele>
        <time>2026-05-13T01:41:45Z</time>
      </trkpt>
      <trkpt lat="46.12053" lon="5.78631">
        <ele>556</ele>
        <time>2026-05-13T01:41:52Z</time>
      </trkpt>
      <trkpt lat="46.12108" lon="5.7866">
        <ele>555.4</ele>
        <time>2026-05-13T01:42:01Z</time>
      </trkpt>
      <trkpt lat="46.12147" lon="5.78681">
        <ele>555.6</ele>
        <time>2026-05-13T01:42:08Z</time>
      </trkpt>
      <trkpt lat="46.12186" lon="5.78697">
        <ele>556.4</ele>
        <time>2026-05-13T01:42:16Z</time>
      </trkpt>
      <trkpt lat="46.12205" lon="5.78707">
        <ele>557</ele>
        <time>2026-05-13T01:42:20Z</time>
      </trkpt>
      <trkpt lat="46.12221" lon="5.78716">
        <ele>557.4</ele>
        <time>2026-05-13T01:42:23Z</time>
      </trkpt>
      <trkpt lat="46.12254" lon="5.78734">
        <ele>558</ele>
        <time>2026-05-13T01:42:30Z</time>
      </trkpt>
      <trkpt lat="46.12259" lon="5.78736">
        <ele>557.8</ele>
        <time>2026-05-13T01:42:31Z</time>
      </trkpt>
      <trkpt lat="46.12268" lon="5.78741">
        <ele>558.2</ele>
        <time>2026-05-13T01:42:33Z</time>
      </trkpt>
      <trkpt lat="46.12279" lon="5.78745">
        <ele>558.4</ele>
        <time>2026-05-13T01:42:36Z</time>
      </trkpt>
      <trkpt lat="46.12295" lon="5.78756">
        <ele>559</ele>
        <time>2026-05-13T01:42:41Z</time>
      </trkpt>
      <trkpt lat="46.12302" lon="5.78759">
        <ele>559.6</ele>
        <time>2026-05-13T01:42:43Z</time>
      </trkpt>
      <trkpt lat="46.12314" lon="5.78766">
        <ele>560.2</ele>
        <time>2026-05-13T01:42:47Z</time>
      </trkpt>
      <trkpt lat="46.12318" lon="5.78768">
        <ele>560.6</ele>
        <time>2026-05-13T01:42:49Z</time>
      </trkpt>
      <trkpt lat="46.1233" lon="5.78776">
        <ele>561.4</ele>
        <time>2026-05-13T01:42:53Z</time>
      </trkpt>
      <trkpt lat="46.1234" lon="5.78781">
        <ele>562.2</ele>
        <time>2026-05-13T01:42:56Z</time>
      </trkpt>
      <trkpt lat="46.12343" lon="5.78783">
        <ele>562.6</ele>
        <time>2026-05-13T01:42:57Z</time>
      </trkpt>
      <trkpt lat="46.12359" lon="5.78789">
        <ele>563.8</ele>
        <time>2026-05-13T01:43:02Z</time>
      </trkpt>
      <trkpt lat="46.12376" lon="5.78798">
        <ele>564.8</ele>
        <time>2026-05-13T01:43:07Z</time>
      </trkpt>
      <trkpt lat="46.12383" lon="5.78802">
        <ele>565.2</ele>
        <time>2026-05-13T01:43:09Z</time>
      </trkpt>
      <trkpt lat="46.12396" lon="5.78808">
        <ele>566</ele>
        <time>2026-05-13T01:43:13Z</time>
      </trkpt>
      <trkpt lat="46.12419" lon="5.7882">
        <ele>567</ele>
        <time>2026-05-13T01:43:20Z</time>
      </trkpt>
      <trkpt lat="46.12421" lon="5.78822">
        <ele>567.2</ele>
        <time>2026-05-13T01:43:21Z</time>
      </trkpt>
      <trkpt lat="46.12448" lon="5.78834">
        <ele>568.2</ele>
        <time>2026-05-13T01:43:29Z</time>
      </trkpt>
      <trkpt lat="46.12469" lon="5.78847">
        <ele>569.4</ele>
        <time>2026-05-13T01:43:36Z</time>
      </trkpt>
      <trkpt lat="46.12476" lon="5.78851">
        <ele>569.6</ele>
        <time>2026-05-13T01:43:38Z</time>
      </trkpt>
      <trkpt lat="46.12502" lon="5.78862">
        <ele>570.6</ele>
        <time>2026-05-13T01:43:45Z</time>
      </trkpt>
      <trkpt lat="46.12514" lon="5.78868">
        <ele>570.8</ele>
        <time>2026-05-13T01:43:48Z</time>
      </trkpt>
      <trkpt lat="46.12546" lon="5.78885">
        <ele>571.4</ele>
        <time>2026-05-13T01:43:56Z</time>
      </trkpt>
      <trkpt lat="46.12555" lon="5.7889">
        <ele>571.6</ele>
        <time>2026-05-13T01:43:58Z</time>
      </trkpt>
      <trkpt lat="46.12568" lon="5.78898">
        <ele>571.8</ele>
        <time>2026-05-13T01:44:01Z</time>
      </trkpt>
      <trkpt lat="46.12575" lon="5.78902">
        <ele>572</ele>
        <time>2026-05-13T01:44:03Z</time>
      </trkpt>
      <trkpt lat="46.12579" lon="5.78904">
        <ele>572</ele>
        <time>2026-05-13T01:44:04Z</time>
      </trkpt>
      <trkpt lat="46.12599" lon="5.78916">
        <ele>572.4</ele>
        <time>2026-05-13T01:44:09Z</time>
      </trkpt>
      <trkpt lat="46.12603" lon="5.78918">
        <ele>572.6</ele>
        <time>2026-05-13T01:44:10Z</time>
      </trkpt>
      <trkpt lat="46.12608" lon="5.7892">
        <ele>572.6</ele>
        <time>2026-05-13T01:44:11Z</time>
      </trkpt>
      <trkpt lat="46.12627" lon="5.78932">
        <ele>573</ele>
        <time>2026-05-13T01:44:16Z</time>
      </trkpt>
      <trkpt lat="46.12662" lon="5.7895">
        <ele>573.6</ele>
        <time>2026-05-13T01:44:24Z</time>
      </trkpt>
      <trkpt lat="46.12672" lon="5.78955">
        <ele>573.6</ele>
        <time>2026-05-13T01:44:26Z</time>
      </trkpt>
      <trkpt lat="46.12693" lon="5.78967">
        <ele>573.8</ele>
        <time>2026-05-13T01:44:31Z</time>
      </trkpt>
      <trkpt lat="46.12731" lon="5.78987">
        <ele>574.6</ele>
        <time>2026-05-13T01:44:40Z</time>
      </trkpt>
      <trkpt lat="46.12735" lon="5.7899">
        <ele>574.8</ele>
        <time>2026-05-13T01:44:41Z</time>
      </trkpt>
      <trkpt lat="46.12772" lon="5.79008">
        <ele>575.6</ele>
        <time>2026-05-13T01:44:49Z</time>
      </trkpt>
      <trkpt lat="46.12781" lon="5.79013">
        <ele>575.8</ele>
        <time>2026-05-13T01:44:51Z</time>
      </trkpt>
      <trkpt lat="46.12818" lon="5.79033">
        <ele>576.4</ele>
        <time>2026-05-13T01:44:59Z</time>
      </trkpt>
      <trkpt lat="46.12842" lon="5.79045">
        <ele>576.8</ele>
        <time>2026-05-13T01:45:04Z</time>
      </trkpt>
      <trkpt lat="46.12871" lon="5.79058">
        <ele>577.2</ele>
        <time>2026-05-13T01:45:10Z</time>
      </trkpt>
      <trkpt lat="46.12917" lon="5.79084">
        <ele>578</ele>
        <time>2026-05-13T01:45:20Z</time>
      </trkpt>
      <trkpt lat="46.12956" lon="5.79105">
        <ele>577.8</ele>
        <time>2026-05-13T01:45:28Z</time>
      </trkpt>
      <trkpt lat="46.1299" lon="5.79122">
        <ele>577.4</ele>
        <time>2026-05-13T01:45:34Z</time>
      </trkpt>
      <trkpt lat="46.1302" lon="5.79138">
        <ele>576.8</ele>
        <time>2026-05-13T01:45:39Z</time>
      </trkpt>
      <trkpt lat="46.1304" lon="5.79147">
        <ele>576.6</ele>
        <time>2026-05-13T01:45:42Z</time>
      </trkpt>
      <trkpt lat="46.1308" lon="5.79169">
        <ele>575.8</ele>
        <time>2026-05-13T01:45:48Z</time>
      </trkpt>
      <trkpt lat="46.13086" lon="5.79172">
        <ele>575.6</ele>
        <time>2026-05-13T01:45:49Z</time>
      </trkpt>
      <trkpt lat="46.13118" lon="5.7919">
        <ele>574.8</ele>
        <time>2026-05-13T01:45:53Z</time>
      </trkpt>
      <trkpt lat="46.13124" lon="5.79193">
        <ele>574.4</ele>
        <time>2026-05-13T01:45:54Z</time>
      </trkpt>
      <trkpt lat="46.13143" lon="5.79202">
        <ele>573.6</ele>
        <time>2026-05-13T01:45:56Z</time>
      </trkpt>
      <trkpt lat="46.13167" lon="5.79216">
        <ele>572</ele>
        <time>2026-05-13T01:45:59Z</time>
      </trkpt>
      <trkpt lat="46.13175" lon="5.79221">
        <ele>571.8</ele>
        <time>2026-05-13T01:46:00Z</time>
      </trkpt>
      <trkpt lat="46.13193" lon="5.79232">
        <ele>570.8</ele>
        <time>2026-05-13T01:46:02Z</time>
      </trkpt>
      <trkpt lat="46.13217" lon="5.79244">
        <ele>569.6</ele>
        <time>2026-05-13T01:46:05Z</time>
      </trkpt>
      <trkpt lat="46.13239" lon="5.79256">
        <ele>568.6</ele>
        <time>2026-05-13T01:46:08Z</time>
      </trkpt>
      <trkpt lat="46.13246" lon="5.7926">
        <ele>568.4</ele>
        <time>2026-05-13T01:46:09Z</time>
      </trkpt>
      <trkpt lat="46.13268" lon="5.79271">
        <ele>567.6</ele>
        <time>2026-05-13T01:46:12Z</time>
      </trkpt>
      <trkpt lat="46.13299" lon="5.79286">
        <ele>566.8</ele>
        <time>2026-05-13T01:46:16Z</time>
      </trkpt>
      <trkpt lat="46.13312" lon="5.79293">
        <ele>566.4</ele>
        <time>2026-05-13T01:46:18Z</time>
      </trkpt>
      <trkpt lat="46.13336" lon="5.79306">
        <ele>565.4</ele>
        <time>2026-05-13T01:46:21Z</time>
      </trkpt>
      <trkpt lat="46.13365" lon="5.79322">
        <ele>564</ele>
        <time>2026-05-13T01:46:25Z</time>
      </trkpt>
      <trkpt lat="46.13372" lon="5.79325">
        <ele>563.6</ele>
        <time>2026-05-13T01:46:26Z</time>
      </trkpt>
      <trkpt lat="46.13405" lon="5.7934">
        <ele>562.8</ele>
        <time>2026-05-13T01:46:30Z</time>
      </trkpt>
      <trkpt lat="46.13431" lon="5.79347">
        <ele>562</ele>
        <time>2026-05-13T01:46:33Z</time>
      </trkpt>
      <trkpt lat="46.13448" lon="5.7935">
        <ele>561.6</ele>
        <time>2026-05-13T01:46:35Z</time>
      </trkpt>
      <trkpt lat="46.13474" lon="5.79355">
        <ele>560.2</ele>
        <time>2026-05-13T01:46:38Z</time>
      </trkpt>
      <trkpt lat="46.13502" lon="5.79358">
        <ele>558.6</ele>
        <time>2026-05-13T01:46:41Z</time>
      </trkpt>
      <trkpt lat="46.13517" lon="5.79365">
        <ele>557.4</ele>
        <time>2026-05-13T01:46:43Z</time>
      </trkpt>
      <trkpt lat="46.13532" lon="5.79376">
        <ele>556.4</ele>
        <time>2026-05-13T01:46:45Z</time>
      </trkpt>
      <trkpt lat="46.13538" lon="5.79382">
        <ele>556</ele>
        <time>2026-05-13T01:46:46Z</time>
      </trkpt>
      <trkpt lat="46.13564" lon="5.79411">
        <ele>554.6</ele>
        <time>2026-05-13T01:46:50Z</time>
      </trkpt>
      <trkpt lat="46.13571" lon="5.79418">
        <ele>554.2</ele>
        <time>2026-05-13T01:46:51Z</time>
      </trkpt>
      <trkpt lat="46.13593" lon="5.79437">
        <ele>553.8</ele>
        <time>2026-05-13T01:46:54Z</time>
      </trkpt>
      <trkpt lat="46.13607" lon="5.79448">
        <ele>553.4</ele>
        <time>2026-05-13T01:46:56Z</time>
      </trkpt>
      <trkpt lat="46.13617" lon="5.79453">
        <ele>553.4</ele>
        <time>2026-05-13T01:46:57Z</time>
      </trkpt>
      <trkpt lat="46.13656" lon="5.79476">
        <ele>552</ele>
        <time>2026-05-13T01:47:02Z</time>
      </trkpt>
      <trkpt lat="46.13682" lon="5.7949">
        <ele>550.8</ele>
        <time>2026-05-13T01:47:05Z</time>
      </trkpt>
      <trkpt lat="46.13711" lon="5.79506">
        <ele>549.8</ele>
        <time>2026-05-13T01:47:08Z</time>
      </trkpt>
      <trkpt lat="46.13727" lon="5.79514">
        <ele>548.8</ele>
        <time>2026-05-13T01:47:10Z</time>
      </trkpt>
      <trkpt lat="46.13747" lon="5.79524">
        <ele>548</ele>
        <time>2026-05-13T01:47:12Z</time>
      </trkpt>
      <trkpt lat="46.13754" lon="5.79529">
        <ele>547.6</ele>
        <time>2026-05-13T01:47:13Z</time>
      </trkpt>
      <trkpt lat="46.13792" lon="5.79549">
        <ele>546</ele>
        <time>2026-05-13T01:47:17Z</time>
      </trkpt>
      <trkpt lat="46.13817" lon="5.79564">
        <ele>544.4</ele>
        <time>2026-05-13T01:47:20Z</time>
      </trkpt>
      <trkpt lat="46.13836" lon="5.79574">
        <ele>543.4</ele>
        <time>2026-05-13T01:47:22Z</time>
      </trkpt>
      <trkpt lat="46.1386" lon="5.79588">
        <ele>542</ele>
        <time>2026-05-13T01:47:25Z</time>
      </trkpt>
      <trkpt lat="46.13885" lon="5.79601">
        <ele>540.4</ele>
        <time>2026-05-13T01:47:28Z</time>
      </trkpt>
      <trkpt lat="46.13914" lon="5.79617">
        <ele>539.4</ele>
        <time>2026-05-13T01:47:32Z</time>
      </trkpt>
      <trkpt lat="46.13946" lon="5.79634">
        <ele>538.2</ele>
        <time>2026-05-13T01:47:36Z</time>
      </trkpt>
      <trkpt lat="46.1397" lon="5.79646">
        <ele>537.2</ele>
        <time>2026-05-13T01:47:39Z</time>
      </trkpt>
      <trkpt lat="46.13989" lon="5.79656">
        <ele>536.4</ele>
        <time>2026-05-13T01:47:41Z</time>
      </trkpt>
      <trkpt lat="46.13996" lon="5.7966">
        <ele>536</ele>
        <time>2026-05-13T01:47:42Z</time>
      </trkpt>
      <trkpt lat="46.14031" lon="5.79678">
        <ele>535</ele>
        <time>2026-05-13T01:47:46Z</time>
      </trkpt>
      <trkpt lat="46.14045" lon="5.79686">
        <ele>533.8</ele>
        <time>2026-05-13T01:47:48Z</time>
      </trkpt>
      <trkpt lat="46.14063" lon="5.79696">
        <ele>532.8</ele>
        <time>2026-05-13T01:47:50Z</time>
      </trkpt>
      <trkpt lat="46.14077" lon="5.79704">
        <ele>532</ele>
        <time>2026-05-13T01:47:52Z</time>
      </trkpt>
      <trkpt lat="46.14094" lon="5.79712">
        <ele>531.4</ele>
        <time>2026-05-13T01:47:54Z</time>
      </trkpt>
      <trkpt lat="46.14132" lon="5.79732">
        <ele>530.2</ele>
        <time>2026-05-13T01:47:59Z</time>
      </trkpt>
      <trkpt lat="46.14181" lon="5.79759">
        <ele>529.2</ele>
        <time>2026-05-13T01:48:06Z</time>
      </trkpt>
      <trkpt lat="46.14187" lon="5.79762">
        <ele>529.2</ele>
        <time>2026-05-13T01:48:07Z</time>
      </trkpt>
      <trkpt lat="46.1424" lon="5.7979">
        <ele>528.4</ele>
        <time>2026-05-13T01:48:15Z</time>
      </trkpt>
      <trkpt lat="46.14262" lon="5.79801">
        <ele>528.2</ele>
        <time>2026-05-13T01:48:19Z</time>
      </trkpt>
      <trkpt lat="46.14273" lon="5.79806">
        <ele>528.2</ele>
        <time>2026-05-13T01:48:21Z</time>
      </trkpt>
      <trkpt lat="46.14302" lon="5.7982">
        <ele>528.8</ele>
        <time>2026-05-13T01:48:27Z</time>
      </trkpt>
      <trkpt lat="46.14324" lon="5.7983">
        <ele>529.4</ele>
        <time>2026-05-13T01:48:32Z</time>
      </trkpt>
      <trkpt lat="46.14333" lon="5.79835">
        <ele>529.6</ele>
        <time>2026-05-13T01:48:34Z</time>
      </trkpt>
      <trkpt lat="46.14348" lon="5.79841">
        <ele>530</ele>
        <time>2026-05-13T01:48:39Z</time>
      </trkpt>
      <trkpt lat="46.1435" lon="5.7984">
        <ele>530.2</ele>
        <time>2026-05-13T01:48:40Z</time>
      </trkpt>
      <trkpt lat="46.14356" lon="5.79838">
        <ele>530.6</ele>
        <time>2026-05-13T01:48:42Z</time>
      </trkpt>
      <trkpt lat="46.14358" lon="5.79836">
        <ele>530.6</ele>
        <time>2026-05-13T01:48:43Z</time>
      </trkpt>
      <trkpt lat="46.1436" lon="5.79832">
        <ele>530.8</ele>
        <time>2026-05-13T01:48:44Z</time>
      </trkpt>
      <trkpt lat="46.14362" lon="5.79823">
        <ele>531</ele>
        <time>2026-05-13T01:48:46Z</time>
      </trkpt>
      <trkpt lat="46.14365" lon="5.79786">
        <ele>531.4</ele>
        <time>2026-05-13T01:48:52Z</time>
      </trkpt>
      <trkpt lat="46.14367" lon="5.79759">
        <ele>531</ele>
        <time>2026-05-13T01:48:55Z</time>
      </trkpt>
      <trkpt lat="46.14366" lon="5.79743">
        <ele>530.6</ele>
        <time>2026-05-13T01:48:57Z</time>
      </trkpt>
      <trkpt lat="46.14366" lon="5.79717">
        <ele>530</ele>
        <time>2026-05-13T01:49:00Z</time>
      </trkpt>
      <trkpt lat="46.14366" lon="5.79702">
        <ele>529.4</ele>
        <time>2026-05-13T01:49:02Z</time>
      </trkpt>
      <trkpt lat="46.14366" lon="5.79692">
        <ele>529.2</ele>
        <time>2026-05-13T01:49:03Z</time>
      </trkpt>
      <trkpt lat="46.14367" lon="5.79683">
        <ele>529</ele>
        <time>2026-05-13T01:49:04Z</time>
      </trkpt>
      <trkpt lat="46.14369" lon="5.79668">
        <ele>528.8</ele>
        <time>2026-05-13T01:49:06Z</time>
      </trkpt>
      <trkpt lat="46.14371" lon="5.79659">
        <ele>528.6</ele>
        <time>2026-05-13T01:49:07Z</time>
      </trkpt>
      <trkpt lat="46.14375" lon="5.7965">
        <ele>528.4</ele>
        <time>2026-05-13T01:49:08Z</time>
      </trkpt>
      <trkpt lat="46.14386" lon="5.7963">
        <ele>527.6</ele>
        <time>2026-05-13T01:49:11Z</time>
      </trkpt>
      <trkpt lat="46.14391" lon="5.79624">
        <ele>527.2</ele>
        <time>2026-05-13T01:49:12Z</time>
      </trkpt>
      <trkpt lat="46.14413" lon="5.79607">
        <ele>526.8</ele>
        <time>2026-05-13T01:49:16Z</time>
      </trkpt>
      <trkpt lat="46.1443" lon="5.79595">
        <ele>526.2</ele>
        <time>2026-05-13T01:49:19Z</time>
      </trkpt>
      <trkpt lat="46.14461" lon="5.79574">
        <ele>525.6</ele>
        <time>2026-05-13T01:49:24Z</time>
      </trkpt>
      <trkpt lat="46.1448" lon="5.79561">
        <ele>525.2</ele>
        <time>2026-05-13T01:49:27Z</time>
      </trkpt>
      <trkpt lat="46.14512" lon="5.79541">
        <ele>524.2</ele>
        <time>2026-05-13T01:49:32Z</time>
      </trkpt>
      <trkpt lat="46.1452" lon="5.79536">
        <ele>524</ele>
        <time>2026-05-13T01:49:33Z</time>
      </trkpt>
      <trkpt lat="46.14553" lon="5.79515">
        <ele>523</ele>
        <time>2026-05-13T01:49:38Z</time>
      </trkpt>
      <trkpt lat="46.14573" lon="5.79505">
        <ele>522.2</ele>
        <time>2026-05-13T01:49:41Z</time>
      </trkpt>
      <trkpt lat="46.14588" lon="5.79497">
        <ele>521.6</ele>
        <time>2026-05-13T01:49:43Z</time>
      </trkpt>
      <trkpt lat="46.14636" lon="5.79476">
        <ele>520.6</ele>
        <time>2026-05-13T01:49:50Z</time>
      </trkpt>
      <trkpt lat="46.14636" lon="5.79476">
        <ele>520.4</ele>
        <time>2026-05-13T01:49:51Z</time>
      </trkpt>
      <trkpt lat="46.14693" lon="5.79449">
        <ele>519.4</ele>
        <time>2026-05-13T01:49:58Z</time>
      </trkpt>
      <trkpt lat="46.147" lon="5.79446">
        <ele>519.2</ele>
        <time>2026-05-13T01:49:59Z</time>
      </trkpt>
      <trkpt lat="46.14713" lon="5.7944">
        <ele>518.8</ele>
        <time>2026-05-13T01:50:01Z</time>
      </trkpt>
      <trkpt lat="46.14749" lon="5.79424">
        <ele>518</ele>
        <time>2026-05-13T01:50:06Z</time>
      </trkpt>
      <trkpt lat="46.1477" lon="5.79414">
        <ele>517.6</ele>
        <time>2026-05-13T01:50:09Z</time>
      </trkpt>
      <trkpt lat="46.14783" lon="5.79408">
        <ele>517.4</ele>
        <time>2026-05-13T01:50:11Z</time>
      </trkpt>
      <trkpt lat="46.14805" lon="5.79397">
        <ele>517</ele>
        <time>2026-05-13T01:50:14Z</time>
      </trkpt>
      <trkpt lat="46.14825" lon="5.79388">
        <ele>516.6</ele>
        <time>2026-05-13T01:50:17Z</time>
      </trkpt>
      <trkpt lat="46.14863" lon="5.79362">
        <ele>516</ele>
        <time>2026-05-13T01:50:23Z</time>
      </trkpt>
      <trkpt lat="46.14869" lon="5.79357">
        <ele>515.8</ele>
        <time>2026-05-13T01:50:24Z</time>
      </trkpt>
      <trkpt lat="46.14903" lon="5.79326">
        <ele>514.8</ele>
        <time>2026-05-13T01:50:30Z</time>
      </trkpt>
      <trkpt lat="46.14915" lon="5.79315">
        <ele>514.6</ele>
        <time>2026-05-13T01:50:32Z</time>
      </trkpt>
      <trkpt lat="46.14958" lon="5.79277">
        <ele>513.6</ele>
        <time>2026-05-13T01:50:39Z</time>
      </trkpt>
      <trkpt lat="46.14963" lon="5.79273">
        <ele>513.4</ele>
        <time>2026-05-13T01:50:40Z</time>
      </trkpt>
      <trkpt lat="46.14994" lon="5.79247">
        <ele>512.4</ele>
        <time>2026-05-13T01:50:45Z</time>
      </trkpt>
      <trkpt lat="46.15027" lon="5.79218">
        <ele>511.4</ele>
        <time>2026-05-13T01:50:51Z</time>
      </trkpt>
      <trkpt lat="46.15034" lon="5.79213">
        <ele>511.4</ele>
        <time>2026-05-13T01:50:52Z</time>
      </trkpt>
      <trkpt lat="46.15083" lon="5.79172">
        <ele>511.2</ele>
        <time>2026-05-13T01:51:01Z</time>
      </trkpt>
      <trkpt lat="46.15133" lon="5.79134">
        <ele>510.8</ele>
        <time>2026-05-13T01:51:10Z</time>
      </trkpt>
      <trkpt lat="46.1514" lon="5.79129">
        <ele>510.8</ele>
        <time>2026-05-13T01:51:11Z</time>
      </trkpt>
      <trkpt lat="46.15181" lon="5.79099">
        <ele>510.2</ele>
        <time>2026-05-13T01:51:18Z</time>
      </trkpt>
      <trkpt lat="46.15201" lon="5.79083">
        <ele>510</ele>
        <time>2026-05-13T01:51:21Z</time>
      </trkpt>
      <trkpt lat="46.15233" lon="5.79058">
        <ele>509</ele>
        <time>2026-05-13T01:51:26Z</time>
      </trkpt>
      <trkpt lat="46.15259" lon="5.79038">
        <ele>508</ele>
        <time>2026-05-13T01:51:30Z</time>
      </trkpt>
      <trkpt lat="46.15265" lon="5.79034">
        <ele>507.6</ele>
        <time>2026-05-13T01:51:31Z</time>
      </trkpt>
      <trkpt lat="46.15286" lon="5.79021">
        <ele>507</ele>
        <time>2026-05-13T01:51:34Z</time>
      </trkpt>
      <trkpt lat="46.15292" lon="5.79018">
        <ele>506.8</ele>
        <time>2026-05-13T01:51:35Z</time>
      </trkpt>
      <trkpt lat="46.15314" lon="5.79007">
        <ele>506.2</ele>
        <time>2026-05-13T01:51:38Z</time>
      </trkpt>
      <trkpt lat="46.15327" lon="5.79002">
        <ele>505.8</ele>
        <time>2026-05-13T01:51:40Z</time>
      </trkpt>
      <trkpt lat="46.15356" lon="5.78993">
        <ele>504.6</ele>
        <time>2026-05-13T01:51:44Z</time>
      </trkpt>
      <trkpt lat="46.15365" lon="5.78991">
        <ele>504.4</ele>
        <time>2026-05-13T01:51:45Z</time>
      </trkpt>
      <trkpt lat="46.15387" lon="5.78986">
        <ele>503.6</ele>
        <time>2026-05-13T01:51:48Z</time>
      </trkpt>
      <trkpt lat="46.15417" lon="5.78981">
        <ele>502.4</ele>
        <time>2026-05-13T01:51:52Z</time>
      </trkpt>
      <trkpt lat="46.15447" lon="5.78972">
        <ele>501.6</ele>
        <time>2026-05-13T01:51:56Z</time>
      </trkpt>
      <trkpt lat="46.15454" lon="5.78969">
        <ele>501.4</ele>
        <time>2026-05-13T01:51:57Z</time>
      </trkpt>
      <trkpt lat="46.1549" lon="5.78948">
        <ele>500.4</ele>
        <time>2026-05-13T01:52:02Z</time>
      </trkpt>
      <trkpt lat="46.15496" lon="5.78943">
        <ele>500</ele>
        <time>2026-05-13T01:52:03Z</time>
      </trkpt>
      <trkpt lat="46.15527" lon="5.78909">
        <ele>499.2</ele>
        <time>2026-05-13T01:52:08Z</time>
      </trkpt>
      <trkpt lat="46.15548" lon="5.78874">
        <ele>497.8</ele>
        <time>2026-05-13T01:52:12Z</time>
      </trkpt>
      <trkpt lat="46.15558" lon="5.78853">
        <ele>497.2</ele>
        <time>2026-05-13T01:52:14Z</time>
      </trkpt>
      <trkpt lat="46.15563" lon="5.78843">
        <ele>496.8</ele>
        <time>2026-05-13T01:52:15Z</time>
      </trkpt>
      <trkpt lat="46.15583" lon="5.78803">
        <ele>496</ele>
        <time>2026-05-13T01:52:19Z</time>
      </trkpt>
      <trkpt lat="46.15602" lon="5.78762">
        <ele>494.6</ele>
        <time>2026-05-13T01:52:23Z</time>
      </trkpt>
      <trkpt lat="46.15612" lon="5.78742">
        <ele>494</ele>
        <time>2026-05-13T01:52:25Z</time>
      </trkpt>
      <trkpt lat="46.15622" lon="5.78722">
        <ele>493.4</ele>
        <time>2026-05-13T01:52:27Z</time>
      </trkpt>
      <trkpt lat="46.15641" lon="5.78682">
        <ele>492.2</ele>
        <time>2026-05-13T01:52:31Z</time>
      </trkpt>
      <trkpt lat="46.1566" lon="5.78642">
        <ele>491</ele>
        <time>2026-05-13T01:52:35Z</time>
      </trkpt>
      <trkpt lat="46.15684" lon="5.78605">
        <ele>490.2</ele>
        <time>2026-05-13T01:52:39Z</time>
      </trkpt>
      <trkpt lat="46.15704" lon="5.78581">
        <ele>489</ele>
        <time>2026-05-13T01:52:42Z</time>
      </trkpt>
      <trkpt lat="46.15711" lon="5.78574">
        <ele>488.8</ele>
        <time>2026-05-13T01:52:43Z</time>
      </trkpt>
      <trkpt lat="46.15742" lon="5.78547">
        <ele>487.6</ele>
        <time>2026-05-13T01:52:47Z</time>
      </trkpt>
      <trkpt lat="46.15757" lon="5.78535">
        <ele>487.4</ele>
        <time>2026-05-13T01:52:49Z</time>
      </trkpt>
      <trkpt lat="46.1578" lon="5.78517">
        <ele>486.2</ele>
        <time>2026-05-13T01:52:52Z</time>
      </trkpt>
      <trkpt lat="46.15808" lon="5.78488">
        <ele>485</ele>
        <time>2026-05-13T01:52:56Z</time>
      </trkpt>
      <trkpt lat="46.15814" lon="5.7848">
        <ele>484.8</ele>
        <time>2026-05-13T01:52:57Z</time>
      </trkpt>
      <trkpt lat="46.15832" lon="5.78453">
        <ele>484.2</ele>
        <time>2026-05-13T01:53:00Z</time>
      </trkpt>
      <trkpt lat="46.15854" lon="5.78415">
        <ele>483</ele>
        <time>2026-05-13T01:53:04Z</time>
      </trkpt>
      <trkpt lat="46.1586" lon="5.78404">
        <ele>482.6</ele>
        <time>2026-05-13T01:53:05Z</time>
      </trkpt>
      <trkpt lat="46.15873" lon="5.78376">
        <ele>481.6</ele>
        <time>2026-05-13T01:53:08Z</time>
      </trkpt>
      <trkpt lat="46.15894" lon="5.78337">
        <ele>480.2</ele>
        <time>2026-05-13T01:53:12Z</time>
      </trkpt>
      <trkpt lat="46.15899" lon="5.78327">
        <ele>479.8</ele>
        <time>2026-05-13T01:53:13Z</time>
      </trkpt>
      <trkpt lat="46.15914" lon="5.78298">
        <ele>479.2</ele>
        <time>2026-05-13T01:53:16Z</time>
      </trkpt>
      <trkpt lat="46.15932" lon="5.78268">
        <ele>478.2</ele>
        <time>2026-05-13T01:53:19Z</time>
      </trkpt>
      <trkpt lat="46.15938" lon="5.78258">
        <ele>478</ele>
        <time>2026-05-13T01:53:20Z</time>
      </trkpt>
      <trkpt lat="46.15962" lon="5.78218">
        <ele>477</ele>
        <time>2026-05-13T01:53:24Z</time>
      </trkpt>
      <trkpt lat="46.15978" lon="5.7819">
        <ele>475.6</ele>
        <time>2026-05-13T01:53:27Z</time>
      </trkpt>
      <trkpt lat="46.15984" lon="5.7818">
        <ele>475.6</ele>
        <time>2026-05-13T01:53:28Z</time>
      </trkpt>
      <trkpt lat="46.16" lon="5.78147">
        <ele>474.6</ele>
        <time>2026-05-13T01:53:31Z</time>
      </trkpt>
      <trkpt lat="46.16015" lon="5.78114">
        <ele>474</ele>
        <time>2026-05-13T01:53:34Z</time>
      </trkpt>
      <trkpt lat="46.16019" lon="5.78102">
        <ele>473.6</ele>
        <time>2026-05-13T01:53:35Z</time>
      </trkpt>
      <trkpt lat="46.16038" lon="5.78055">
        <ele>472.2</ele>
        <time>2026-05-13T01:53:39Z</time>
      </trkpt>
      <trkpt lat="46.16055" lon="5.78013">
        <ele>471</ele>
        <time>2026-05-13T01:53:43Z</time>
      </trkpt>
      <trkpt lat="46.1606" lon="5.78001">
        <ele>470.8</ele>
        <time>2026-05-13T01:53:44Z</time>
      </trkpt>
      <trkpt lat="46.16073" lon="5.7797">
        <ele>470</ele>
        <time>2026-05-13T01:53:47Z</time>
      </trkpt>
      <trkpt lat="46.16092" lon="5.77932">
        <ele>469</ele>
        <time>2026-05-13T01:53:51Z</time>
      </trkpt>
      <trkpt lat="46.16103" lon="5.77913">
        <ele>468.4</ele>
        <time>2026-05-13T01:53:53Z</time>
      </trkpt>
      <trkpt lat="46.16115" lon="5.77898">
        <ele>467.8</ele>
        <time>2026-05-13T01:53:55Z</time>
      </trkpt>
      <trkpt lat="46.16122" lon="5.77891">
        <ele>467.8</ele>
        <time>2026-05-13T01:53:56Z</time>
      </trkpt>
      <trkpt lat="46.16137" lon="5.77883">
        <ele>467.2</ele>
        <time>2026-05-13T01:53:58Z</time>
      </trkpt>
      <trkpt lat="46.16144" lon="5.7788">
        <ele>466.6</ele>
        <time>2026-05-13T01:53:59Z</time>
      </trkpt>
      <trkpt lat="46.16152" lon="5.77877">
        <ele>466.2</ele>
        <time>2026-05-13T01:54:00Z</time>
      </trkpt>
      <trkpt lat="46.1618" lon="5.77861">
        <ele>465.4</ele>
        <time>2026-05-13T01:54:04Z</time>
      </trkpt>
      <trkpt lat="46.16194" lon="5.77851">
        <ele>465.2</ele>
        <time>2026-05-13T01:54:06Z</time>
      </trkpt>
      <trkpt lat="46.162" lon="5.77845">
        <ele>465</ele>
        <time>2026-05-13T01:54:07Z</time>
      </trkpt>
      <trkpt lat="46.16211" lon="5.7783">
        <ele>464.2</ele>
        <time>2026-05-13T01:54:09Z</time>
      </trkpt>
      <trkpt lat="46.16216" lon="5.77821">
        <ele>464</ele>
        <time>2026-05-13T01:54:10Z</time>
      </trkpt>
      <trkpt lat="46.16234" lon="5.77782">
        <ele>463</ele>
        <time>2026-05-13T01:54:14Z</time>
      </trkpt>
      <trkpt lat="46.16242" lon="5.77761">
        <ele>462.6</ele>
        <time>2026-05-13T01:54:16Z</time>
      </trkpt>
      <trkpt lat="46.16245" lon="5.77749">
        <ele>462.2</ele>
        <time>2026-05-13T01:54:17Z</time>
      </trkpt>
      <trkpt lat="46.16247" lon="5.77738">
        <ele>462</ele>
        <time>2026-05-13T01:54:18Z</time>
      </trkpt>
      <trkpt lat="46.16247" lon="5.77726">
        <ele>461.6</ele>
        <time>2026-05-13T01:54:19Z</time>
      </trkpt>
      <trkpt lat="46.16247" lon="5.77715">
        <ele>461.2</ele>
        <time>2026-05-13T01:54:20Z</time>
      </trkpt>
      <trkpt lat="46.16246" lon="5.7769">
        <ele>461</ele>
        <time>2026-05-13T01:54:22Z</time>
      </trkpt>
      <trkpt lat="46.1624" lon="5.77656">
        <ele>460</ele>
        <time>2026-05-13T01:54:25Z</time>
      </trkpt>
      <trkpt lat="46.16239" lon="5.77645">
        <ele>459.8</ele>
        <time>2026-05-13T01:54:26Z</time>
      </trkpt>
      <trkpt lat="46.16239" lon="5.77633">
        <ele>459.4</ele>
        <time>2026-05-13T01:54:27Z</time>
      </trkpt>
      <trkpt lat="46.16242" lon="5.77609">
        <ele>459</ele>
        <time>2026-05-13T01:54:29Z</time>
      </trkpt>
      <trkpt lat="46.16243" lon="5.77597">
        <ele>458.4</ele>
        <time>2026-05-13T01:54:30Z</time>
      </trkpt>
      <trkpt lat="46.1625" lon="5.7755">
        <ele>457.2</ele>
        <time>2026-05-13T01:54:34Z</time>
      </trkpt>
      <trkpt lat="46.16251" lon="5.77539">
        <ele>456.8</ele>
        <time>2026-05-13T01:54:35Z</time>
      </trkpt>
      <trkpt lat="46.16251" lon="5.77493">
        <ele>456</ele>
        <time>2026-05-13T01:54:39Z</time>
      </trkpt>
      <trkpt lat="46.16249" lon="5.7747">
        <ele>455.6</ele>
        <time>2026-05-13T01:54:41Z</time>
      </trkpt>
      <trkpt lat="46.16245" lon="5.77448">
        <ele>455</ele>
        <time>2026-05-13T01:54:43Z</time>
      </trkpt>
      <trkpt lat="46.16239" lon="5.77401">
        <ele>454</ele>
        <time>2026-05-13T01:54:47Z</time>
      </trkpt>
      <trkpt lat="46.16237" lon="5.7739">
        <ele>453.8</ele>
        <time>2026-05-13T01:54:48Z</time>
      </trkpt>
      <trkpt lat="46.16232" lon="5.77344">
        <ele>452.8</ele>
        <time>2026-05-13T01:54:52Z</time>
      </trkpt>
      <trkpt lat="46.16228" lon="5.77323">
        <ele>452.2</ele>
        <time>2026-05-13T01:54:54Z</time>
      </trkpt>
      <trkpt lat="46.16226" lon="5.77301">
        <ele>451.6</ele>
        <time>2026-05-13T01:54:56Z</time>
      </trkpt>
      <trkpt lat="46.16223" lon="5.7728">
        <ele>451.2</ele>
        <time>2026-05-13T01:54:58Z</time>
      </trkpt>
      <trkpt lat="46.16221" lon="5.77269">
        <ele>451</ele>
        <time>2026-05-13T01:54:59Z</time>
      </trkpt>
      <trkpt lat="46.1622" lon="5.77258">
        <ele>450.6</ele>
        <time>2026-05-13T01:55:00Z</time>
      </trkpt>
      <trkpt lat="46.16216" lon="5.77223">
        <ele>449.4</ele>
        <time>2026-05-13T01:55:03Z</time>
      </trkpt>
      <trkpt lat="46.16216" lon="5.77211">
        <ele>449</ele>
        <time>2026-05-13T01:55:04Z</time>
      </trkpt>
      <trkpt lat="46.16217" lon="5.77188">
        <ele>448.2</ele>
        <time>2026-05-13T01:55:06Z</time>
      </trkpt>
      <trkpt lat="46.16219" lon="5.77176">
        <ele>447.8</ele>
        <time>2026-05-13T01:55:07Z</time>
      </trkpt>
      <trkpt lat="46.16228" lon="5.77142">
        <ele>446.8</ele>
        <time>2026-05-13T01:55:10Z</time>
      </trkpt>
      <trkpt lat="46.16246" lon="5.77099">
        <ele>445.6</ele>
        <time>2026-05-13T01:55:14Z</time>
      </trkpt>
      <trkpt lat="46.16257" lon="5.77078">
        <ele>445</ele>
        <time>2026-05-13T01:55:16Z</time>
      </trkpt>
      <trkpt lat="46.16266" lon="5.77057">
        <ele>444.4</ele>
        <time>2026-05-13T01:55:18Z</time>
      </trkpt>
      <trkpt lat="46.16278" lon="5.77023">
        <ele>443.8</ele>
        <time>2026-05-13T01:55:21Z</time>
      </trkpt>
      <trkpt lat="46.16284" lon="5.76999">
        <ele>443.4</ele>
        <time>2026-05-13T01:55:23Z</time>
      </trkpt>
      <trkpt lat="46.16291" lon="5.7695">
        <ele>442.4</ele>
        <time>2026-05-13T01:55:27Z</time>
      </trkpt>
      <trkpt lat="46.16292" lon="5.76937">
        <ele>442</ele>
        <time>2026-05-13T01:55:28Z</time>
      </trkpt>
      <trkpt lat="46.163" lon="5.769">
        <ele>441</ele>
        <time>2026-05-13T01:55:31Z</time>
      </trkpt>
      <trkpt lat="46.16308" lon="5.76865">
        <ele>440.2</ele>
        <time>2026-05-13T01:55:34Z</time>
      </trkpt>
      <trkpt lat="46.16312" lon="5.76854">
        <ele>439.8</ele>
        <time>2026-05-13T01:55:35Z</time>
      </trkpt>
      <trkpt lat="46.16329" lon="5.7681">
        <ele>438.8</ele>
        <time>2026-05-13T01:55:39Z</time>
      </trkpt>
      <trkpt lat="46.16334" lon="5.768">
        <ele>438.4</ele>
        <time>2026-05-13T01:55:40Z</time>
      </trkpt>
      <trkpt lat="46.16347" lon="5.76772">
        <ele>437.6</ele>
        <time>2026-05-13T01:55:43Z</time>
      </trkpt>
      <trkpt lat="46.16363" lon="5.76731">
        <ele>436.4</ele>
        <time>2026-05-13T01:55:47Z</time>
      </trkpt>
      <trkpt lat="46.16376" lon="5.76686">
        <ele>435</ele>
        <time>2026-05-13T01:55:52Z</time>
      </trkpt>
      <trkpt lat="46.16378" lon="5.76679">
        <ele>434.8</ele>
        <time>2026-05-13T01:55:53Z</time>
      </trkpt>
      <trkpt lat="46.16384" lon="5.76672">
        <ele>434.2</ele>
        <time>2026-05-13T01:55:55Z</time>
      </trkpt>
      <trkpt lat="46.16388" lon="5.76671">
        <ele>434</ele>
        <time>2026-05-13T01:55:56Z</time>
      </trkpt>
      <trkpt lat="46.16393" lon="5.76672">
        <ele>433.6</ele>
        <time>2026-05-13T01:55:57Z</time>
      </trkpt>
      <trkpt lat="46.16397" lon="5.76675">
        <ele>433.4</ele>
        <time>2026-05-13T01:55:58Z</time>
      </trkpt>
      <trkpt lat="46.16402" lon="5.76679">
        <ele>433.2</ele>
        <time>2026-05-13T01:55:59Z</time>
      </trkpt>
      <trkpt lat="46.16406" lon="5.76684">
        <ele>433</ele>
        <time>2026-05-13T01:56:00Z</time>
      </trkpt>
      <trkpt lat="46.16413" lon="5.76695">
        <ele>432.4</ele>
        <time>2026-05-13T01:56:02Z</time>
      </trkpt>
      <trkpt lat="46.16416" lon="5.76702">
        <ele>432</ele>
        <time>2026-05-13T01:56:03Z</time>
      </trkpt>
      <trkpt lat="46.16418" lon="5.76708">
        <ele>431.4</ele>
        <time>2026-05-13T01:56:04Z</time>
      </trkpt>
      <trkpt lat="46.16424" lon="5.76721">
        <ele>430.8</ele>
        <time>2026-05-13T01:56:06Z</time>
      </trkpt>
      <trkpt lat="46.16426" lon="5.76726">
        <ele>430.4</ele>
        <time>2026-05-13T01:56:07Z</time>
      </trkpt>
      <trkpt lat="46.16436" lon="5.76749">
        <ele>429.6</ele>
        <time>2026-05-13T01:56:11Z</time>
      </trkpt>
      <trkpt lat="46.16438" lon="5.76756">
        <ele>429.4</ele>
        <time>2026-05-13T01:56:12Z</time>
      </trkpt>
      <trkpt lat="46.16441" lon="5.76771">
        <ele>429</ele>
        <time>2026-05-13T01:56:14Z</time>
      </trkpt>
      <trkpt lat="46.1645" lon="5.768">
        <ele>428</ele>
        <time>2026-05-13T01:56:18Z</time>
      </trkpt>
      <trkpt lat="46.16454" lon="5.76815">
        <ele>427.6</ele>
        <time>2026-05-13T01:56:20Z</time>
      </trkpt>
      <trkpt lat="46.16459" lon="5.76835">
        <ele>427</ele>
        <time>2026-05-13T01:56:23Z</time>
      </trkpt>
      <trkpt lat="46.16461" lon="5.76842">
        <ele>427</ele>
        <time>2026-05-13T01:56:24Z</time>
      </trkpt>
      <trkpt lat="46.16463" lon="5.76855">
        <ele>427</ele>
        <time>2026-05-13T01:56:26Z</time>
      </trkpt>
      <trkpt lat="46.16463" lon="5.7687">
        <ele>427</ele>
        <time>2026-05-13T01:56:28Z</time>
      </trkpt>
      <trkpt lat="46.16461" lon="5.76885">
        <ele>427</ele>
        <time>2026-05-13T01:56:30Z</time>
      </trkpt>
      <trkpt lat="46.16457" lon="5.76899">
        <ele>427</ele>
        <time>2026-05-13T01:56:32Z</time>
      </trkpt>
      <trkpt lat="46.16448" lon="5.76924">
        <ele>427.2</ele>
        <time>2026-05-13T01:56:36Z</time>
      </trkpt>
      <trkpt lat="46.1644" lon="5.76953">
        <ele>428</ele>
        <time>2026-05-13T01:56:42Z</time>
      </trkpt>
      <trkpt lat="46.16439" lon="5.76957">
        <ele>428</ele>
        <time>2026-05-13T01:56:43Z</time>
      </trkpt>
      <trkpt lat="46.16436" lon="5.76982">
        <ele>428.8</ele>
        <time>2026-05-13T01:56:49Z</time>
      </trkpt>
      <trkpt lat="46.16435" lon="5.76989">
        <ele>429.2</ele>
        <time>2026-05-13T01:56:51Z</time>
      </trkpt>
      <trkpt lat="46.16433" lon="5.77005">
        <ele>429.8</ele>
        <time>2026-05-13T01:56:55Z</time>
      </trkpt>
      <trkpt lat="46.16433" lon="5.77016">
        <ele>430.2</ele>
        <time>2026-05-13T01:56:58Z</time>
      </trkpt>
      <trkpt lat="46.16431" lon="5.77027">
        <ele>430.8</ele>
        <time>2026-05-13T01:57:01Z</time>
      </trkpt>
      <trkpt lat="46.1643" lon="5.77038">
        <ele>431.4</ele>
        <time>2026-05-13T01:57:04Z</time>
      </trkpt>
      <trkpt lat="46.16431" lon="5.77047">
        <ele>432</ele>
        <time>2026-05-13T01:57:07Z</time>
      </trkpt>
      <trkpt lat="46.16431" lon="5.77057">
        <ele>432.4</ele>
        <time>2026-05-13T01:57:10Z</time>
      </trkpt>
      <trkpt lat="46.16429" lon="5.77078">
        <ele>433.4</ele>
        <time>2026-05-13T01:57:16Z</time>
      </trkpt>
      <trkpt lat="46.16429" lon="5.77098">
        <ele>434.4</ele>
        <time>2026-05-13T01:57:22Z</time>
      </trkpt>
      <trkpt lat="46.16429" lon="5.77102">
        <ele>434.4</ele>
        <time>2026-05-13T01:57:23Z</time>
      </trkpt>
      <trkpt lat="46.1643" lon="5.77113">
        <ele>435</ele>
        <time>2026-05-13T01:57:27Z</time>
      </trkpt>
      <trkpt lat="46.1643" lon="5.77116">
        <ele>435.2</ele>
        <time>2026-05-13T01:57:28Z</time>
      </trkpt>
      <trkpt lat="46.1643" lon="5.77119">
        <ele>435.6</ele>
        <time>2026-05-13T01:57:29Z</time>
      </trkpt>
      <trkpt lat="46.16431" lon="5.77132">
        <ele>436</ele>
        <time>2026-05-13T01:57:33Z</time>
      </trkpt>
      <trkpt lat="46.16433" lon="5.77145">
        <ele>436.6</ele>
        <time>2026-05-13T01:57:37Z</time>
      </trkpt>
      <trkpt lat="46.16437" lon="5.77158">
        <ele>437</ele>
        <time>2026-05-13T01:57:41Z</time>
      </trkpt>
      <trkpt lat="46.16441" lon="5.77175">
        <ele>437.8</ele>
        <time>2026-05-13T01:57:46Z</time>
      </trkpt>
      <trkpt lat="46.16443" lon="5.77194">
        <ele>438.8</ele>
        <time>2026-05-13T01:57:52Z</time>
      </trkpt>
      <trkpt lat="46.16445" lon="5.77203">
        <ele>439.2</ele>
        <time>2026-05-13T01:57:55Z</time>
      </trkpt>
      <trkpt lat="46.16446" lon="5.77215">
        <ele>440</ele>
        <time>2026-05-13T01:57:59Z</time>
      </trkpt>
      <trkpt lat="46.16445" lon="5.77221">
        <ele>440</ele>
        <time>2026-05-13T01:58:01Z</time>
      </trkpt>
      <trkpt lat="46.16445" lon="5.77223">
        <ele>440.2</ele>
        <time>2026-05-13T01:58:02Z</time>
      </trkpt>
      <trkpt lat="46.16444" lon="5.77228">
        <ele>440.6</ele>
        <time>2026-05-13T01:58:04Z</time>
      </trkpt>
      <trkpt lat="46.16443" lon="5.77233">
        <ele>440.8</ele>
        <time>2026-05-13T01:58:06Z</time>
      </trkpt>
      <trkpt lat="46.16442" lon="5.77237">
        <ele>441</ele>
        <time>2026-05-13T01:58:07Z</time>
      </trkpt>
      <trkpt lat="46.16444" lon="5.77242">
        <ele>441.4</ele>
        <time>2026-05-13T01:58:09Z</time>
      </trkpt>
      <trkpt lat="46.16447" lon="5.7726">
        <ele>442.2</ele>
        <time>2026-05-13T01:58:14Z</time>
      </trkpt>
      <trkpt lat="46.16446" lon="5.77268">
        <ele>442.4</ele>
        <time>2026-05-13T01:58:17Z</time>
      </trkpt>
      <trkpt lat="46.16446" lon="5.77273">
        <ele>442.6</ele>
        <time>2026-05-13T01:58:18Z</time>
      </trkpt>
      <trkpt lat="46.16447" lon="5.77283">
        <ele>443.2</ele>
        <time>2026-05-13T01:58:21Z</time>
      </trkpt>
      <trkpt lat="46.16446" lon="5.77291">
        <ele>443.6</ele>
        <time>2026-05-13T01:58:23Z</time>
      </trkpt>
      <trkpt lat="46.16444" lon="5.77308">
        <ele>444.2</ele>
        <time>2026-05-13T01:58:27Z</time>
      </trkpt>
      <trkpt lat="46.16442" lon="5.77318">
        <ele>444.6</ele>
        <time>2026-05-13T01:58:30Z</time>
      </trkpt>
      <trkpt lat="46.1644" lon="5.77333">
        <ele>445.2</ele>
        <time>2026-05-13T01:58:34Z</time>
      </trkpt>
      <trkpt lat="46.16447" lon="5.77343">
        <ele>445.8</ele>
        <time>2026-05-13T01:58:37Z</time>
      </trkpt>
      <trkpt lat="46.16448" lon="5.77346">
        <ele>445.8</ele>
        <time>2026-05-13T01:58:38Z</time>
      </trkpt>
      <trkpt lat="46.16448" lon="5.77349">
        <ele>446</ele>
        <time>2026-05-13T01:58:39Z</time>
      </trkpt>
      <trkpt lat="46.16448" lon="5.77355">
        <ele>446.4</ele>
        <time>2026-05-13T01:58:41Z</time>
      </trkpt>
      <trkpt lat="46.16449" lon="5.77366">
        <ele>447</ele>
        <time>2026-05-13T01:58:44Z</time>
      </trkpt>
      <trkpt lat="46.16451" lon="5.77383">
        <ele>447.4</ele>
        <time>2026-05-13T01:58:49Z</time>
      </trkpt>
      <trkpt lat="46.16452" lon="5.77386">
        <ele>447.6</ele>
        <time>2026-05-13T01:58:50Z</time>
      </trkpt>
      <trkpt lat="46.16452" lon="5.77397">
        <ele>448</ele>
        <time>2026-05-13T01:58:53Z</time>
      </trkpt>
      <trkpt lat="46.16453" lon="5.77403">
        <ele>448.2</ele>
        <time>2026-05-13T01:58:55Z</time>
      </trkpt>
      <trkpt lat="46.16453" lon="5.77409">
        <ele>448.6</ele>
        <time>2026-05-13T01:58:57Z</time>
      </trkpt>
      <trkpt lat="46.16453" lon="5.77417">
        <ele>449.2</ele>
        <time>2026-05-13T01:58:59Z</time>
      </trkpt>
      <trkpt lat="46.16454" lon="5.7742">
        <ele>449.2</ele>
        <time>2026-05-13T01:59:00Z</time>
      </trkpt>
      <trkpt lat="46.16456" lon="5.77426">
        <ele>449.6</ele>
        <time>2026-05-13T01:59:02Z</time>
      </trkpt>
      <trkpt lat="46.16458" lon="5.77436">
        <ele>450</ele>
        <time>2026-05-13T01:59:05Z</time>
      </trkpt>
      <trkpt lat="46.16461" lon="5.77456">
        <ele>450.6</ele>
        <time>2026-05-13T01:59:11Z</time>
      </trkpt>
      <trkpt lat="46.16464" lon="5.77462">
        <ele>451</ele>
        <time>2026-05-13T01:59:13Z</time>
      </trkpt>
      <trkpt lat="46.16472" lon="5.77475">
        <ele>451.8</ele>
        <time>2026-05-13T01:59:17Z</time>
      </trkpt>
      <trkpt lat="46.16471" lon="5.77483">
        <ele>452.2</ele>
        <time>2026-05-13T01:59:20Z</time>
      </trkpt>
      <trkpt lat="46.16471" lon="5.77486">
        <ele>452.6</ele>
        <time>2026-05-13T01:59:22Z</time>
      </trkpt>
      <trkpt lat="46.16471" lon="5.77495">
        <ele>452.8</ele>
        <time>2026-05-13T01:59:24Z</time>
      </trkpt>
      <trkpt lat="46.1647" lon="5.77499">
        <ele>452.8</ele>
        <time>2026-05-13T01:59:25Z</time>
      </trkpt>
      <trkpt lat="46.16472" lon="5.77524">
        <ele>453.8</ele>
        <time>2026-05-13T01:59:31Z</time>
      </trkpt>
      <trkpt lat="46.16471" lon="5.77531">
        <ele>454.2</ele>
        <time>2026-05-13T01:59:33Z</time>
      </trkpt>
      <trkpt lat="46.16467" lon="5.77548">
        <ele>454.8</ele>
        <time>2026-05-13T01:59:38Z</time>
      </trkpt>
      <trkpt lat="46.16469" lon="5.77563">
        <ele>456</ele>
        <time>2026-05-13T01:59:42Z</time>
      </trkpt>
      <trkpt lat="46.16471" lon="5.77588">
        <ele>456.8</ele>
        <time>2026-05-13T01:59:49Z</time>
      </trkpt>
      <trkpt lat="46.16471" lon="5.77592">
        <ele>457</ele>
        <time>2026-05-13T01:59:50Z</time>
      </trkpt>
      <trkpt lat="46.16473" lon="5.77617">
        <ele>458</ele>
        <time>2026-05-13T01:59:57Z</time>
      </trkpt>
      <trkpt lat="46.16473" lon="5.7762">
        <ele>458.2</ele>
        <time>2026-05-13T01:59:58Z</time>
      </trkpt>
      <trkpt lat="46.16477" lon="5.77638">
        <ele>458.8</ele>
        <time>2026-05-13T02:00:04Z</time>
      </trkpt>
      <trkpt lat="46.16478" lon="5.77641">
        <ele>459</ele>
        <time>2026-05-13T02:00:05Z</time>
      </trkpt>
      <trkpt lat="46.16483" lon="5.77653">
        <ele>460</ele>
        <time>2026-05-13T02:00:10Z</time>
      </trkpt>
      <trkpt lat="46.16487" lon="5.77657">
        <ele>460.4</ele>
        <time>2026-05-13T02:00:12Z</time>
      </trkpt>
      <trkpt lat="46.1649" lon="5.77662">
        <ele>460.8</ele>
        <time>2026-05-13T02:00:15Z</time>
      </trkpt>
      <trkpt lat="46.16494" lon="5.77667">
        <ele>461.2</ele>
        <time>2026-05-13T02:00:17Z</time>
      </trkpt>
      <trkpt lat="46.165" lon="5.77674">
        <ele>461.6</ele>
        <time>2026-05-13T02:00:21Z</time>
      </trkpt>
      <trkpt lat="46.16504" lon="5.77682">
        <ele>462</ele>
        <time>2026-05-13T02:00:24Z</time>
      </trkpt>
      <trkpt lat="46.16507" lon="5.77689">
        <ele>462.2</ele>
        <time>2026-05-13T02:00:26Z</time>
      </trkpt>
      <trkpt lat="46.16512" lon="5.77713">
        <ele>463.2</ele>
        <time>2026-05-13T02:00:32Z</time>
      </trkpt>
      <trkpt lat="46.16513" lon="5.77721">
        <ele>463.4</ele>
        <time>2026-05-13T02:00:34Z</time>
      </trkpt>
      <trkpt lat="46.16515" lon="5.77738">
        <ele>464.4</ele>
        <time>2026-05-13T02:00:39Z</time>
      </trkpt>
      <trkpt lat="46.16516" lon="5.77747">
        <ele>464.6</ele>
        <time>2026-05-13T02:00:41Z</time>
      </trkpt>
      <trkpt lat="46.1652" lon="5.77768">
        <ele>465.4</ele>
        <time>2026-05-13T02:00:47Z</time>
      </trkpt>
      <trkpt lat="46.16521" lon="5.7777">
        <ele>465.6</ele>
        <time>2026-05-13T02:00:48Z</time>
      </trkpt>
      <trkpt lat="46.16529" lon="5.77788">
        <ele>466.6</ele>
        <time>2026-05-13T02:00:55Z</time>
      </trkpt>
      <trkpt lat="46.16536" lon="5.77802">
        <ele>467.4</ele>
        <time>2026-05-13T02:01:00Z</time>
      </trkpt>
      <trkpt lat="46.1654" lon="5.77811">
        <ele>467.6</ele>
        <time>2026-05-13T02:01:03Z</time>
      </trkpt>
      <trkpt lat="46.16547" lon="5.77831">
        <ele>468.4</ele>
        <time>2026-05-13T02:01:09Z</time>
      </trkpt>
      <trkpt lat="46.16551" lon="5.7784">
        <ele>468.4</ele>
        <time>2026-05-13T02:01:12Z</time>
      </trkpt>
      <trkpt lat="46.16557" lon="5.77851">
        <ele>469.2</ele>
        <time>2026-05-13T02:01:16Z</time>
      </trkpt>
      <trkpt lat="46.16563" lon="5.77854">
        <ele>469.6</ele>
        <time>2026-05-13T02:01:18Z</time>
      </trkpt>
      <trkpt lat="46.16571" lon="5.77861">
        <ele>470.2</ele>
        <time>2026-05-13T02:01:22Z</time>
      </trkpt>
      <trkpt lat="46.16574" lon="5.77866">
        <ele>470.6</ele>
        <time>2026-05-13T02:01:24Z</time>
      </trkpt>
      <trkpt lat="46.16588" lon="5.77879">
        <ele>471.6</ele>
        <time>2026-05-13T02:01:31Z</time>
      </trkpt>
      <trkpt lat="46.16591" lon="5.77896">
        <ele>472.2</ele>
        <time>2026-05-13T02:01:37Z</time>
      </trkpt>
      <trkpt lat="46.1659" lon="5.77902">
        <ele>472.6</ele>
        <time>2026-05-13T02:01:39Z</time>
      </trkpt>
      <trkpt lat="46.16589" lon="5.77912">
        <ele>473</ele>
        <time>2026-05-13T02:01:42Z</time>
      </trkpt>
      <trkpt lat="46.16587" lon="5.77921">
        <ele>473.6</ele>
        <time>2026-05-13T02:01:45Z</time>
      </trkpt>
      <trkpt lat="46.16586" lon="5.77924">
        <ele>473.8</ele>
        <time>2026-05-13T02:01:46Z</time>
      </trkpt>
      <trkpt lat="46.16585" lon="5.77929">
        <ele>473.8</ele>
        <time>2026-05-13T02:01:47Z</time>
      </trkpt>
      <trkpt lat="46.16578" lon="5.77942">
        <ele>474.4</ele>
        <time>2026-05-13T02:01:52Z</time>
      </trkpt>
      <trkpt lat="46.16575" lon="5.77956">
        <ele>475.4</ele>
        <time>2026-05-13T02:01:57Z</time>
      </trkpt>
      <trkpt lat="46.16574" lon="5.77959">
        <ele>475.6</ele>
        <time>2026-05-13T02:01:58Z</time>
      </trkpt>
      <trkpt lat="46.16576" lon="5.77981">
        <ele>476.8</ele>
        <time>2026-05-13T02:02:04Z</time>
      </trkpt>
      <trkpt lat="46.16575" lon="5.78004">
        <ele>477.6</ele>
        <time>2026-05-13T02:02:10Z</time>
      </trkpt>
      <trkpt lat="46.16573" lon="5.78007">
        <ele>478</ele>
        <time>2026-05-13T02:02:12Z</time>
      </trkpt>
      <trkpt lat="46.16566" lon="5.78011">
        <ele>478.2</ele>
        <time>2026-05-13T02:02:15Z</time>
      </trkpt>
      <trkpt lat="46.16556" lon="5.78006">
        <ele>478.8</ele>
        <time>2026-05-13T02:02:19Z</time>
      </trkpt>
      <trkpt lat="46.16553" lon="5.78002">
        <ele>479.2</ele>
        <time>2026-05-13T02:02:21Z</time>
      </trkpt>
      <trkpt lat="46.16545" lon="5.7799">
        <ele>480</ele>
        <time>2026-05-13T02:02:26Z</time>
      </trkpt>
      <trkpt lat="46.16541" lon="5.77985">
        <ele>480.2</ele>
        <time>2026-05-13T02:02:28Z</time>
      </trkpt>
      <trkpt lat="46.16537" lon="5.77971">
        <ele>480.8</ele>
        <time>2026-05-13T02:02:33Z</time>
      </trkpt>
      <trkpt lat="46.16535" lon="5.77968">
        <ele>481.2</ele>
        <time>2026-05-13T02:02:34Z</time>
      </trkpt>
      <trkpt lat="46.16525" lon="5.7795">
        <ele>482</ele>
        <time>2026-05-13T02:02:41Z</time>
      </trkpt>
      <trkpt lat="46.16505" lon="5.77938">
        <ele>482.8</ele>
        <time>2026-05-13T02:02:48Z</time>
      </trkpt>
      <trkpt lat="46.16498" lon="5.77934">
        <ele>483.2</ele>
        <time>2026-05-13T02:02:51Z</time>
      </trkpt>
      <trkpt lat="46.16489" lon="5.77925">
        <ele>483.6</ele>
        <time>2026-05-13T02:02:55Z</time>
      </trkpt>
      <trkpt lat="46.16481" lon="5.77912">
        <ele>484.2</ele>
        <time>2026-05-13T02:03:00Z</time>
      </trkpt>
      <trkpt lat="46.16476" lon="5.77907">
        <ele>484.4</ele>
        <time>2026-05-13T02:03:02Z</time>
      </trkpt>
      <trkpt lat="46.1647" lon="5.779">
        <ele>485.2</ele>
        <time>2026-05-13T02:03:06Z</time>
      </trkpt>
      <trkpt lat="46.16463" lon="5.77898">
        <ele>485.8</ele>
        <time>2026-05-13T02:03:09Z</time>
      </trkpt>
      <trkpt lat="46.16456" lon="5.77897">
        <ele>486.4</ele>
        <time>2026-05-13T02:03:12Z</time>
      </trkpt>
      <trkpt lat="46.16448" lon="5.77903">
        <ele>487</ele>
        <time>2026-05-13T02:03:16Z</time>
      </trkpt>
      <trkpt lat="46.16443" lon="5.77909">
        <ele>487.4</ele>
        <time>2026-05-13T02:03:19Z</time>
      </trkpt>
      <trkpt lat="46.16438" lon="5.77917">
        <ele>488.2</ele>
        <time>2026-05-13T02:03:22Z</time>
      </trkpt>
      <trkpt lat="46.16434" lon="5.77926">
        <ele>488.6</ele>
        <time>2026-05-13T02:03:25Z</time>
      </trkpt>
      <trkpt lat="46.16432" lon="5.77938">
        <ele>489.2</ele>
        <time>2026-05-13T02:03:29Z</time>
      </trkpt>
      <trkpt lat="46.16429" lon="5.77951">
        <ele>489.6</ele>
        <time>2026-05-13T02:03:33Z</time>
      </trkpt>
      <trkpt lat="46.16424" lon="5.77963">
        <ele>490.2</ele>
        <time>2026-05-13T02:03:37Z</time>
      </trkpt>
      <trkpt lat="46.1642" lon="5.77972">
        <ele>490.8</ele>
        <time>2026-05-13T02:03:40Z</time>
      </trkpt>
      <trkpt lat="46.16417" lon="5.77976">
        <ele>491</ele>
        <time>2026-05-13T02:03:42Z</time>
      </trkpt>
      <trkpt lat="46.16407" lon="5.77983">
        <ele>491.6</ele>
        <time>2026-05-13T02:03:47Z</time>
      </trkpt>
      <trkpt lat="46.16404" lon="5.77984">
        <ele>491.8</ele>
        <time>2026-05-13T02:03:48Z</time>
      </trkpt>
      <trkpt lat="46.16393" lon="5.77985">
        <ele>492.4</ele>
        <time>2026-05-13T02:03:52Z</time>
      </trkpt>
      <trkpt lat="46.16382" lon="5.77987">
        <ele>493</ele>
        <time>2026-05-13T02:03:56Z</time>
      </trkpt>
      <trkpt lat="46.16373" lon="5.77988">
        <ele>493.6</ele>
        <time>2026-05-13T02:03:59Z</time>
      </trkpt>
      <trkpt lat="46.16367" lon="5.77989">
        <ele>494</ele>
        <time>2026-05-13T02:04:02Z</time>
      </trkpt>
      <trkpt lat="46.16359" lon="5.7799">
        <ele>494.6</ele>
        <time>2026-05-13T02:04:06Z</time>
      </trkpt>
      <trkpt lat="46.16355" lon="5.77992">
        <ele>495</ele>
        <time>2026-05-13T02:04:08Z</time>
      </trkpt>
      <trkpt lat="46.16353" lon="5.77993">
        <ele>495.2</ele>
        <time>2026-05-13T02:04:09Z</time>
      </trkpt>
      <trkpt lat="46.16348" lon="5.77997">
        <ele>495.6</ele>
        <time>2026-05-13T02:04:12Z</time>
      </trkpt>
      <trkpt lat="46.16342" lon="5.78007">
        <ele>496.4</ele>
        <time>2026-05-13T02:04:16Z</time>
      </trkpt>
      <trkpt lat="46.16338" lon="5.78015">
        <ele>497</ele>
        <time>2026-05-13T02:04:19Z</time>
      </trkpt>
      <trkpt lat="46.16334" lon="5.78024">
        <ele>497.4</ele>
        <time>2026-05-13T02:04:22Z</time>
      </trkpt>
      <trkpt lat="46.16332" lon="5.7803">
        <ele>497.6</ele>
        <time>2026-05-13T02:04:24Z</time>
      </trkpt>
      <trkpt lat="46.16325" lon="5.78055">
        <ele>498.6</ele>
        <time>2026-05-13T02:04:32Z</time>
      </trkpt>
      <trkpt lat="46.1632" lon="5.78077">
        <ele>499.8</ele>
        <time>2026-05-13T02:04:39Z</time>
      </trkpt>
      <trkpt lat="46.16319" lon="5.7808">
        <ele>499.8</ele>
        <time>2026-05-13T02:04:40Z</time>
      </trkpt>
      <trkpt lat="46.16313" lon="5.78104">
        <ele>500.8</ele>
        <time>2026-05-13T02:04:48Z</time>
      </trkpt>
      <trkpt lat="46.1631" lon="5.78113">
        <ele>501.4</ele>
        <time>2026-05-13T02:04:51Z</time>
      </trkpt>
      <trkpt lat="46.16308" lon="5.78123">
        <ele>502</ele>
        <time>2026-05-13T02:04:54Z</time>
      </trkpt>
      <trkpt lat="46.16304" lon="5.78135">
        <ele>502.4</ele>
        <time>2026-05-13T02:04:58Z</time>
      </trkpt>
      <trkpt lat="46.16301" lon="5.7815">
        <ele>503.2</ele>
        <time>2026-05-13T02:05:03Z</time>
      </trkpt>
      <trkpt lat="46.16298" lon="5.78166">
        <ele>504</ele>
        <time>2026-05-13T02:05:08Z</time>
      </trkpt>
      <trkpt lat="46.16297" lon="5.78169">
        <ele>504.2</ele>
        <time>2026-05-13T02:05:09Z</time>
      </trkpt>
      <trkpt lat="46.16292" lon="5.78188">
        <ele>505</ele>
        <time>2026-05-13T02:05:15Z</time>
      </trkpt>
      <trkpt lat="46.1629" lon="5.78194">
        <ele>505.4</ele>
        <time>2026-05-13T02:05:17Z</time>
      </trkpt>
      <trkpt lat="46.1628" lon="5.78213">
        <ele>506</ele>
        <time>2026-05-13T02:05:24Z</time>
      </trkpt>
      <trkpt lat="46.16277" lon="5.78218">
        <ele>506.4</ele>
        <time>2026-05-13T02:05:26Z</time>
      </trkpt>
      <trkpt lat="46.16274" lon="5.78223">
        <ele>506.8</ele>
        <time>2026-05-13T02:05:28Z</time>
      </trkpt>
      <trkpt lat="46.16273" lon="5.78225">
        <ele>507</ele>
        <time>2026-05-13T02:05:29Z</time>
      </trkpt>
      <trkpt lat="46.16267" lon="5.78232">
        <ele>507.4</ele>
        <time>2026-05-13T02:05:32Z</time>
      </trkpt>
      <trkpt lat="46.16263" lon="5.78238">
        <ele>507.8</ele>
        <time>2026-05-13T02:05:35Z</time>
      </trkpt>
      <trkpt lat="46.16256" lon="5.78246">
        <ele>508.6</ele>
        <time>2026-05-13T02:05:39Z</time>
      </trkpt>
      <trkpt lat="46.16249" lon="5.78255">
        <ele>509</ele>
        <time>2026-05-13T02:05:43Z</time>
      </trkpt>
      <trkpt lat="46.16245" lon="5.78262">
        <ele>509.6</ele>
        <time>2026-05-13T02:05:46Z</time>
      </trkpt>
      <trkpt lat="46.16241" lon="5.78268">
        <ele>510.2</ele>
        <time>2026-05-13T02:05:49Z</time>
      </trkpt>
      <trkpt lat="46.16236" lon="5.78275">
        <ele>510.8</ele>
        <time>2026-05-13T02:05:52Z</time>
      </trkpt>
      <trkpt lat="46.1623" lon="5.78289">
        <ele>511.4</ele>
        <time>2026-05-13T02:05:57Z</time>
      </trkpt>
      <trkpt lat="46.16224" lon="5.78302">
        <ele>511.8</ele>
        <time>2026-05-13T02:06:01Z</time>
      </trkpt>
      <trkpt lat="46.16223" lon="5.78304">
        <ele>512</ele>
        <time>2026-05-13T02:06:02Z</time>
      </trkpt>
      <trkpt lat="46.16215" lon="5.78323">
        <ele>512.8</ele>
        <time>2026-05-13T02:06:08Z</time>
      </trkpt>
      <trkpt lat="46.16214" lon="5.78325">
        <ele>512.8</ele>
        <time>2026-05-13T02:06:09Z</time>
      </trkpt>
      <trkpt lat="46.16208" lon="5.78341">
        <ele>513.6</ele>
        <time>2026-05-13T02:06:14Z</time>
      </trkpt>
      <trkpt lat="46.16205" lon="5.78345">
        <ele>513.8</ele>
        <time>2026-05-13T02:06:16Z</time>
      </trkpt>
      <trkpt lat="46.16202" lon="5.7835">
        <ele>514.4</ele>
        <time>2026-05-13T02:06:19Z</time>
      </trkpt>
      <trkpt lat="46.16198" lon="5.78358">
        <ele>515</ele>
        <time>2026-05-13T02:06:22Z</time>
      </trkpt>
      <trkpt lat="46.16196" lon="5.78365">
        <ele>515.6</ele>
        <time>2026-05-13T02:06:25Z</time>
      </trkpt>
      <trkpt lat="46.16195" lon="5.78368">
        <ele>515.8</ele>
        <time>2026-05-13T02:06:26Z</time>
      </trkpt>
      <trkpt lat="46.16195" lon="5.78374">
        <ele>516</ele>
        <time>2026-05-13T02:06:28Z</time>
      </trkpt>
      <trkpt lat="46.16194" lon="5.78377">
        <ele>516.2</ele>
        <time>2026-05-13T02:06:29Z</time>
      </trkpt>
      <trkpt lat="46.16191" lon="5.78394">
        <ele>517</ele>
        <time>2026-05-13T02:06:34Z</time>
      </trkpt>
      <trkpt lat="46.1619" lon="5.78398">
        <ele>517.2</ele>
        <time>2026-05-13T02:06:35Z</time>
      </trkpt>
      <trkpt lat="46.16186" lon="5.78425">
        <ele>518.2</ele>
        <time>2026-05-13T02:06:42Z</time>
      </trkpt>
      <trkpt lat="46.16185" lon="5.7843">
        <ele>518.6</ele>
        <time>2026-05-13T02:06:44Z</time>
      </trkpt>
      <trkpt lat="46.16181" lon="5.78447">
        <ele>519.2</ele>
        <time>2026-05-13T02:06:49Z</time>
      </trkpt>
      <trkpt lat="46.16177" lon="5.78468">
        <ele>520.2</ele>
        <time>2026-05-13T02:06:55Z</time>
      </trkpt>
      <trkpt lat="46.16172" lon="5.78491">
        <ele>521.2</ele>
        <time>2026-05-13T02:07:02Z</time>
      </trkpt>
      <trkpt lat="46.1617" lon="5.78497">
        <ele>521.4</ele>
        <time>2026-05-13T02:07:04Z</time>
      </trkpt>
      <trkpt lat="46.16165" lon="5.78516">
        <ele>522.2</ele>
        <time>2026-05-13T02:07:10Z</time>
      </trkpt>
      <trkpt lat="46.16164" lon="5.78519">
        <ele>522.4</ele>
        <time>2026-05-13T02:07:11Z</time>
      </trkpt>
      <trkpt lat="46.16157" lon="5.78532">
        <ele>523.4</ele>
        <time>2026-05-13T02:07:16Z</time>
      </trkpt>
      <trkpt lat="46.16156" lon="5.78535">
        <ele>523.6</ele>
        <time>2026-05-13T02:07:17Z</time>
      </trkpt>
      <trkpt lat="46.16151" lon="5.78544">
        <ele>524</ele>
        <time>2026-05-13T02:07:20Z</time>
      </trkpt>
      <trkpt lat="46.16148" lon="5.78551">
        <ele>524.2</ele>
        <time>2026-05-13T02:07:22Z</time>
      </trkpt>
      <trkpt lat="46.16144" lon="5.78557">
        <ele>524.4</ele>
        <time>2026-05-13T02:07:24Z</time>
      </trkpt>
      <trkpt lat="46.16144" lon="5.78569">
        <ele>524.8</ele>
        <time>2026-05-13T02:07:27Z</time>
      </trkpt>
      <trkpt lat="46.16143" lon="5.7857">
        <ele>525</ele>
        <time>2026-05-13T02:07:28Z</time>
      </trkpt>
      <trkpt lat="46.16139" lon="5.78575">
        <ele>525.4</ele>
        <time>2026-05-13T02:07:30Z</time>
      </trkpt>
      <trkpt lat="46.16136" lon="5.7858">
        <ele>525.4</ele>
        <time>2026-05-13T02:07:32Z</time>
      </trkpt>
      <trkpt lat="46.16134" lon="5.78588">
        <ele>525.6</ele>
        <time>2026-05-13T02:07:35Z</time>
      </trkpt>
      <trkpt lat="46.16134" lon="5.7859">
        <ele>526</ele>
        <time>2026-05-13T02:07:36Z</time>
      </trkpt>
      <trkpt lat="46.16132" lon="5.78596">
        <ele>526.4</ele>
        <time>2026-05-13T02:07:38Z</time>
      </trkpt>
      <trkpt lat="46.16124" lon="5.78611">
        <ele>527.4</ele>
        <time>2026-05-13T02:07:44Z</time>
      </trkpt>
      <trkpt lat="46.16112" lon="5.78634">
        <ele>528.6</ele>
        <time>2026-05-13T02:07:52Z</time>
      </trkpt>
      <trkpt lat="46.16106" lon="5.78647">
        <ele>529.2</ele>
        <time>2026-05-13T02:07:57Z</time>
      </trkpt>
      <trkpt lat="46.161" lon="5.78658">
        <ele>529.8</ele>
        <time>2026-05-13T02:08:01Z</time>
      </trkpt>
      <trkpt lat="46.16095" lon="5.7867">
        <ele>530.4</ele>
        <time>2026-05-13T02:08:05Z</time>
      </trkpt>
      <trkpt lat="46.16092" lon="5.78679">
        <ele>530.8</ele>
        <time>2026-05-13T02:08:08Z</time>
      </trkpt>
      <trkpt lat="46.16086" lon="5.78691">
        <ele>531.6</ele>
        <time>2026-05-13T02:08:12Z</time>
      </trkpt>
      <trkpt lat="46.16084" lon="5.78698">
        <ele>532</ele>
        <time>2026-05-13T02:08:14Z</time>
      </trkpt>
      <trkpt lat="46.16079" lon="5.78714">
        <ele>532.8</ele>
        <time>2026-05-13T02:08:19Z</time>
      </trkpt>
      <trkpt lat="46.16079" lon="5.78717">
        <ele>533</ele>
        <time>2026-05-13T02:08:20Z</time>
      </trkpt>
      <trkpt lat="46.16073" lon="5.7873">
        <ele>533.8</ele>
        <time>2026-05-13T02:08:25Z</time>
      </trkpt>
      <trkpt lat="46.1607" lon="5.78735">
        <ele>534</ele>
        <time>2026-05-13T02:08:27Z</time>
      </trkpt>
      <trkpt lat="46.16061" lon="5.78753">
        <ele>534.6</ele>
        <time>2026-05-13T02:08:33Z</time>
      </trkpt>
      <trkpt lat="46.16056" lon="5.78759">
        <ele>535</ele>
        <time>2026-05-13T02:08:35Z</time>
      </trkpt>
      <trkpt lat="46.16054" lon="5.78766">
        <ele>535.4</ele>
        <time>2026-05-13T02:08:37Z</time>
      </trkpt>
      <trkpt lat="46.16053" lon="5.78769">
        <ele>535.6</ele>
        <time>2026-05-13T02:08:38Z</time>
      </trkpt>
      <trkpt lat="46.1605" lon="5.78778">
        <ele>536</ele>
        <time>2026-05-13T02:08:41Z</time>
      </trkpt>
      <trkpt lat="46.16047" lon="5.78793">
        <ele>537.2</ele>
        <time>2026-05-13T02:08:46Z</time>
      </trkpt>
      <trkpt lat="46.16046" lon="5.78798">
        <ele>537.6</ele>
        <time>2026-05-13T02:08:48Z</time>
      </trkpt>
      <trkpt lat="46.16046" lon="5.78807">
        <ele>537.8</ele>
        <time>2026-05-13T02:08:51Z</time>
      </trkpt>
      <trkpt lat="46.16044" lon="5.78817">
        <ele>538.4</ele>
        <time>2026-05-13T02:08:54Z</time>
      </trkpt>
      <trkpt lat="46.1604" lon="5.7883">
        <ele>538.8</ele>
        <time>2026-05-13T02:08:58Z</time>
      </trkpt>
      <trkpt lat="46.16037" lon="5.78838">
        <ele>539.4</ele>
        <time>2026-05-13T02:09:01Z</time>
      </trkpt>
      <trkpt lat="46.16035" lon="5.78844">
        <ele>539.6</ele>
        <time>2026-05-13T02:09:03Z</time>
      </trkpt>
      <trkpt lat="46.16025" lon="5.78863">
        <ele>540.4</ele>
        <time>2026-05-13T02:09:10Z</time>
      </trkpt>
      <trkpt lat="46.16024" lon="5.78867">
        <ele>540.6</ele>
        <time>2026-05-13T02:09:11Z</time>
      </trkpt>
      <trkpt lat="46.16017" lon="5.78881">
        <ele>541.2</ele>
        <time>2026-05-13T02:09:16Z</time>
      </trkpt>
      <trkpt lat="46.16015" lon="5.78886">
        <ele>541.6</ele>
        <time>2026-05-13T02:09:18Z</time>
      </trkpt>
      <trkpt lat="46.16012" lon="5.78891">
        <ele>542</ele>
        <time>2026-05-13T02:09:20Z</time>
      </trkpt>
      <trkpt lat="46.16011" lon="5.78893">
        <ele>542.2</ele>
        <time>2026-05-13T02:09:21Z</time>
      </trkpt>
      <trkpt lat="46.16007" lon="5.789">
        <ele>542.6</ele>
        <time>2026-05-13T02:09:24Z</time>
      </trkpt>
      <trkpt lat="46.16" lon="5.78912">
        <ele>543</ele>
        <time>2026-05-13T02:09:28Z</time>
      </trkpt>
      <trkpt lat="46.15999" lon="5.78913">
        <ele>543.4</ele>
        <time>2026-05-13T02:09:29Z</time>
      </trkpt>
      <trkpt lat="46.15996" lon="5.78918">
        <ele>543.6</ele>
        <time>2026-05-13T02:09:31Z</time>
      </trkpt>
      <trkpt lat="46.15994" lon="5.7892">
        <ele>543.8</ele>
        <time>2026-05-13T02:09:32Z</time>
      </trkpt>
      <trkpt lat="46.15991" lon="5.7893">
        <ele>544.2</ele>
        <time>2026-05-13T02:09:35Z</time>
      </trkpt>
      <trkpt lat="46.15986" lon="5.78938">
        <ele>544.6</ele>
        <time>2026-05-13T02:09:38Z</time>
      </trkpt>
      <trkpt lat="46.1598" lon="5.7895">
        <ele>545.4</ele>
        <time>2026-05-13T02:09:42Z</time>
      </trkpt>
      <trkpt lat="46.15976" lon="5.7896">
        <ele>545.6</ele>
        <time>2026-05-13T02:09:45Z</time>
      </trkpt>
      <trkpt lat="46.15968" lon="5.78971">
        <ele>546.4</ele>
        <time>2026-05-13T02:09:49Z</time>
      </trkpt>
      <trkpt lat="46.15965" lon="5.78976">
        <ele>546.6</ele>
        <time>2026-05-13T02:09:51Z</time>
      </trkpt>
      <trkpt lat="46.15963" lon="5.78985">
        <ele>547</ele>
        <time>2026-05-13T02:09:54Z</time>
      </trkpt>
      <trkpt lat="46.15961" lon="5.78993">
        <ele>547.6</ele>
        <time>2026-05-13T02:09:57Z</time>
      </trkpt>
      <trkpt lat="46.15953" lon="5.79007">
        <ele>548.6</ele>
        <time>2026-05-13T02:10:02Z</time>
      </trkpt>
      <trkpt lat="46.15952" lon="5.79009">
        <ele>548.6</ele>
        <time>2026-05-13T02:10:03Z</time>
      </trkpt>
      <trkpt lat="46.15944" lon="5.79026">
        <ele>549.8</ele>
        <time>2026-05-13T02:10:09Z</time>
      </trkpt>
      <trkpt lat="46.15932" lon="5.79044">
        <ele>551</ele>
        <time>2026-05-13T02:10:16Z</time>
      </trkpt>
      <trkpt lat="46.15918" lon="5.79064">
        <ele>552.2</ele>
        <time>2026-05-13T02:10:25Z</time>
      </trkpt>
      <trkpt lat="46.1591" lon="5.79078">
        <ele>553</ele>
        <time>2026-05-13T02:10:30Z</time>
      </trkpt>
      <trkpt lat="46.15906" lon="5.79087">
        <ele>553.2</ele>
        <time>2026-05-13T02:10:33Z</time>
      </trkpt>
      <trkpt lat="46.159" lon="5.79098">
        <ele>553.8</ele>
        <time>2026-05-13T02:10:37Z</time>
      </trkpt>
      <trkpt lat="46.15896" lon="5.79101">
        <ele>554.4</ele>
        <time>2026-05-13T02:10:39Z</time>
      </trkpt>
      <trkpt lat="46.15888" lon="5.79115">
        <ele>555.4</ele>
        <time>2026-05-13T02:10:44Z</time>
      </trkpt>
      <trkpt lat="46.15887" lon="5.79118">
        <ele>555.6</ele>
        <time>2026-05-13T02:10:45Z</time>
      </trkpt>
      <trkpt lat="46.15877" lon="5.79134">
        <ele>556.6</ele>
        <time>2026-05-13T02:10:52Z</time>
      </trkpt>
      <trkpt lat="46.15874" lon="5.79139">
        <ele>556.8</ele>
        <time>2026-05-13T02:10:54Z</time>
      </trkpt>
      <trkpt lat="46.15868" lon="5.79152">
        <ele>557.6</ele>
        <time>2026-05-13T02:10:59Z</time>
      </trkpt>
      <trkpt lat="46.15863" lon="5.79162">
        <ele>558.6</ele>
        <time>2026-05-13T02:11:03Z</time>
      </trkpt>
      <trkpt lat="46.1586" lon="5.79169">
        <ele>559.2</ele>
        <time>2026-05-13T02:11:06Z</time>
      </trkpt>
      <trkpt lat="46.15859" lon="5.7917">
        <ele>559.2</ele>
        <time>2026-05-13T02:11:07Z</time>
      </trkpt>
      <trkpt lat="46.15858" lon="5.79173">
        <ele>559.6</ele>
        <time>2026-05-13T02:11:08Z</time>
      </trkpt>
      <trkpt lat="46.15848" lon="5.7919">
        <ele>560.8</ele>
        <time>2026-05-13T02:11:15Z</time>
      </trkpt>
      <trkpt lat="46.15838" lon="5.7921">
        <ele>561.8</ele>
        <time>2026-05-13T02:11:21Z</time>
      </trkpt>
      <trkpt lat="46.15826" lon="5.79233">
        <ele>563</ele>
        <time>2026-05-13T02:11:28Z</time>
      </trkpt>
      <trkpt lat="46.15823" lon="5.79239">
        <ele>563.2</ele>
        <time>2026-05-13T02:11:30Z</time>
      </trkpt>
      <trkpt lat="46.15816" lon="5.79252">
        <ele>564.2</ele>
        <time>2026-05-13T02:11:35Z</time>
      </trkpt>
      <trkpt lat="46.15811" lon="5.79265">
        <ele>564.6</ele>
        <time>2026-05-13T02:11:39Z</time>
      </trkpt>
      <trkpt lat="46.15806" lon="5.79275">
        <ele>565.2</ele>
        <time>2026-05-13T02:11:43Z</time>
      </trkpt>
      <trkpt lat="46.15801" lon="5.79283">
        <ele>565.8</ele>
        <time>2026-05-13T02:11:46Z</time>
      </trkpt>
      <trkpt lat="46.15796" lon="5.79293">
        <ele>566.4</ele>
        <time>2026-05-13T02:11:50Z</time>
      </trkpt>
      <trkpt lat="46.15792" lon="5.79301">
        <ele>566.8</ele>
        <time>2026-05-13T02:11:53Z</time>
      </trkpt>
      <trkpt lat="46.1579" lon="5.7931">
        <ele>567.4</ele>
        <time>2026-05-13T02:11:56Z</time>
      </trkpt>
      <trkpt lat="46.15784" lon="5.79325">
        <ele>568.2</ele>
        <time>2026-05-13T02:12:01Z</time>
      </trkpt>
      <trkpt lat="46.1578" lon="5.79336">
        <ele>568.6</ele>
        <time>2026-05-13T02:12:05Z</time>
      </trkpt>
      <trkpt lat="46.1578" lon="5.79342">
        <ele>569</ele>
        <time>2026-05-13T02:12:07Z</time>
      </trkpt>
      <trkpt lat="46.15777" lon="5.79353">
        <ele>569.8</ele>
        <time>2026-05-13T02:12:11Z</time>
      </trkpt>
      <trkpt lat="46.15775" lon="5.79356">
        <ele>569.8</ele>
        <time>2026-05-13T02:12:12Z</time>
      </trkpt>
      <trkpt lat="46.15767" lon="5.79372">
        <ele>570.8</ele>
        <time>2026-05-13T02:12:18Z</time>
      </trkpt>
      <trkpt lat="46.15763" lon="5.79378">
        <ele>571</ele>
        <time>2026-05-13T02:12:20Z</time>
      </trkpt>
      <trkpt lat="46.1576" lon="5.79384">
        <ele>571.4</ele>
        <time>2026-05-13T02:12:22Z</time>
      </trkpt>
      <trkpt lat="46.15752" lon="5.79405">
        <ele>572</ele>
        <time>2026-05-13T02:12:28Z</time>
      </trkpt>
      <trkpt lat="46.15748" lon="5.79415">
        <ele>572.6</ele>
        <time>2026-05-13T02:12:31Z</time>
      </trkpt>
      <trkpt lat="46.1574" lon="5.79429">
        <ele>573.2</ele>
        <time>2026-05-13T02:12:36Z</time>
      </trkpt>
      <trkpt lat="46.15736" lon="5.79435">
        <ele>573.4</ele>
        <time>2026-05-13T02:12:38Z</time>
      </trkpt>
      <trkpt lat="46.15727" lon="5.79449">
        <ele>574.2</ele>
        <time>2026-05-13T02:12:43Z</time>
      </trkpt>
      <trkpt lat="46.15717" lon="5.79466">
        <ele>575.2</ele>
        <time>2026-05-13T02:12:49Z</time>
      </trkpt>
      <trkpt lat="46.15715" lon="5.79468">
        <ele>575.4</ele>
        <time>2026-05-13T02:12:50Z</time>
      </trkpt>
      <trkpt lat="46.15702" lon="5.7949">
        <ele>576.6</ele>
        <time>2026-05-13T02:12:58Z</time>
      </trkpt>
      <trkpt lat="46.15687" lon="5.79514">
        <ele>577.8</ele>
        <time>2026-05-13T02:13:06Z</time>
      </trkpt>
      <trkpt lat="46.15685" lon="5.79517">
        <ele>578</ele>
        <time>2026-05-13T02:13:07Z</time>
      </trkpt>
      <trkpt lat="46.15677" lon="5.79539">
        <ele>579</ele>
        <time>2026-05-13T02:13:13Z</time>
      </trkpt>
      <trkpt lat="46.15675" lon="5.79547">
        <ele>579</ele>
        <time>2026-05-13T02:13:15Z</time>
      </trkpt>
      <trkpt lat="46.15674" lon="5.79573">
        <ele>579.8</ele>
        <time>2026-05-13T02:13:21Z</time>
      </trkpt>
      <trkpt lat="46.15674" lon="5.79581">
        <ele>580</ele>
        <time>2026-05-13T02:13:23Z</time>
      </trkpt>
      <trkpt lat="46.1568" lon="5.79607">
        <ele>581</ele>
        <time>2026-05-13T02:13:29Z</time>
      </trkpt>
      <trkpt lat="46.15685" lon="5.79618">
        <ele>581.4</ele>
        <time>2026-05-13T02:13:32Z</time>
      </trkpt>
      <trkpt lat="46.15697" lon="5.79636">
        <ele>582.6</ele>
        <time>2026-05-13T02:13:38Z</time>
      </trkpt>
      <trkpt lat="46.15718" lon="5.79655">
        <ele>583.8</ele>
        <time>2026-05-13T02:13:46Z</time>
      </trkpt>
      <trkpt lat="46.1572" lon="5.79658">
        <ele>584</ele>
        <time>2026-05-13T02:13:47Z</time>
      </trkpt>
      <trkpt lat="46.15751" lon="5.79686">
        <ele>584.8</ele>
        <time>2026-05-13T02:13:59Z</time>
      </trkpt>
      <trkpt lat="46.15759" lon="5.79693">
        <ele>585</ele>
        <time>2026-05-13T02:14:02Z</time>
      </trkpt>
      <trkpt lat="46.15779" lon="5.79712">
        <ele>586</ele>
        <time>2026-05-13T02:14:09Z</time>
      </trkpt>
      <trkpt lat="46.15801" lon="5.79732">
        <ele>587.2</ele>
        <time>2026-05-13T02:14:16Z</time>
      </trkpt>
      <trkpt lat="46.15811" lon="5.7974">
        <ele>587.6</ele>
        <time>2026-05-13T02:14:19Z</time>
      </trkpt>
      <trkpt lat="46.15845" lon="5.79773">
        <ele>588.2</ele>
        <time>2026-05-13T02:14:29Z</time>
      </trkpt>
      <trkpt lat="46.15849" lon="5.79777">
        <ele>588.2</ele>
        <time>2026-05-13T02:14:30Z</time>
      </trkpt>
      <trkpt lat="46.15876" lon="5.79807">
        <ele>588.6</ele>
        <time>2026-05-13T02:14:38Z</time>
      </trkpt>
      <trkpt lat="46.15909" lon="5.79845">
        <ele>589.2</ele>
        <time>2026-05-13T02:14:48Z</time>
      </trkpt>
      <trkpt lat="46.15916" lon="5.79853">
        <ele>589.4</ele>
        <time>2026-05-13T02:14:50Z</time>
      </trkpt>
      <trkpt lat="46.15948" lon="5.79881">
        <ele>590.2</ele>
        <time>2026-05-13T02:14:59Z</time>
      </trkpt>
      <trkpt lat="46.15972" lon="5.79899">
        <ele>590.4</ele>
        <time>2026-05-13T02:15:05Z</time>
      </trkpt>
      <trkpt lat="46.15992" lon="5.79911">
        <ele>590.6</ele>
        <time>2026-05-13T02:15:10Z</time>
      </trkpt>
      <trkpt lat="46.16034" lon="5.79929">
        <ele>591</ele>
        <time>2026-05-13T02:15:20Z</time>
      </trkpt>
      <trkpt lat="46.1606" lon="5.79939">
        <ele>591.4</ele>
        <time>2026-05-13T02:15:26Z</time>
      </trkpt>
      <trkpt lat="46.16078" lon="5.79944">
        <ele>592</ele>
        <time>2026-05-13T02:15:30Z</time>
      </trkpt>
      <trkpt lat="46.16121" lon="5.7996">
        <ele>592.2</ele>
        <time>2026-05-13T02:15:40Z</time>
      </trkpt>
      <trkpt lat="46.16137" lon="5.79971">
        <ele>592.4</ele>
        <time>2026-05-13T02:15:44Z</time>
      </trkpt>
      <trkpt lat="46.16141" lon="5.79974">
        <ele>592.6</ele>
        <time>2026-05-13T02:15:45Z</time>
      </trkpt>
      <trkpt lat="46.16157" lon="5.79988">
        <ele>592.6</ele>
        <time>2026-05-13T02:15:49Z</time>
      </trkpt>
      <trkpt lat="46.16198" lon="5.80023">
        <ele>593</ele>
        <time>2026-05-13T02:15:59Z</time>
      </trkpt>
      <trkpt lat="46.16238" lon="5.80061">
        <ele>593</ele>
        <time>2026-05-13T02:16:09Z</time>
      </trkpt>
      <trkpt lat="46.1628" lon="5.80099">
        <ele>593.8</ele>
        <time>2026-05-13T02:16:20Z</time>
      </trkpt>
      <trkpt lat="46.16284" lon="5.80103">
        <ele>593.8</ele>
        <time>2026-05-13T02:16:21Z</time>
      </trkpt>
      <trkpt lat="46.16309" lon="5.80126">
        <ele>594.8</ele>
        <time>2026-05-13T02:16:28Z</time>
      </trkpt>
      <trkpt lat="46.16319" lon="5.80135">
        <ele>595.2</ele>
        <time>2026-05-13T02:16:31Z</time>
      </trkpt>
      <trkpt lat="46.16334" lon="5.80152">
        <ele>596</ele>
        <time>2026-05-13T02:16:36Z</time>
      </trkpt>
      <trkpt lat="46.16341" lon="5.80157">
        <ele>596.2</ele>
        <time>2026-05-13T02:16:38Z</time>
      </trkpt>
      <trkpt lat="46.16359" lon="5.80175">
        <ele>597</ele>
        <time>2026-05-13T02:16:44Z</time>
      </trkpt>
      <trkpt lat="46.16383" lon="5.80195">
        <ele>598</ele>
        <time>2026-05-13T02:16:52Z</time>
      </trkpt>
      <trkpt lat="46.16388" lon="5.80201">
        <ele>598.2</ele>
        <time>2026-05-13T02:16:54Z</time>
      </trkpt>
      <trkpt lat="46.164" lon="5.80208">
        <ele>599.2</ele>
        <time>2026-05-13T02:16:58Z</time>
      </trkpt>
      <trkpt lat="46.16406" lon="5.80213">
        <ele>599.4</ele>
        <time>2026-05-13T02:17:00Z</time>
      </trkpt>
      <trkpt lat="46.16425" lon="5.8022">
        <ele>600</ele>
        <time>2026-05-13T02:17:06Z</time>
      </trkpt>
      <trkpt lat="46.16432" lon="5.80221">
        <ele>600.4</ele>
        <time>2026-05-13T02:17:08Z</time>
      </trkpt>
      <trkpt lat="46.16443" lon="5.80225">
        <ele>601</ele>
        <time>2026-05-13T02:17:12Z</time>
      </trkpt>
      <trkpt lat="46.16446" lon="5.80225">
        <ele>601.2</ele>
        <time>2026-05-13T02:17:13Z</time>
      </trkpt>
      <trkpt lat="46.16452" lon="5.80225">
        <ele>601.6</ele>
        <time>2026-05-13T02:17:15Z</time>
      </trkpt>
      <trkpt lat="46.16468" lon="5.80223">
        <ele>602.4</ele>
        <time>2026-05-13T02:17:21Z</time>
      </trkpt>
      <trkpt lat="46.16471" lon="5.80223">
        <ele>602.6</ele>
        <time>2026-05-13T02:17:22Z</time>
      </trkpt>
      <trkpt lat="46.16483" lon="5.80225">
        <ele>603.8</ele>
        <time>2026-05-13T02:17:27Z</time>
      </trkpt>
      <trkpt lat="46.16493" lon="5.80234">
        <ele>604.8</ele>
        <time>2026-05-13T02:17:32Z</time>
      </trkpt>
      <trkpt lat="46.16499" lon="5.80241">
        <ele>605.6</ele>
        <time>2026-05-13T02:17:35Z</time>
      </trkpt>
      <trkpt lat="46.16505" lon="5.80249">
        <ele>606</ele>
        <time>2026-05-13T02:17:38Z</time>
      </trkpt>
      <trkpt lat="46.16518" lon="5.80269">
        <ele>607</ele>
        <time>2026-05-13T02:17:44Z</time>
      </trkpt>
      <trkpt lat="46.1652" lon="5.80272">
        <ele>607.4</ele>
        <time>2026-05-13T02:17:45Z</time>
      </trkpt>
      <trkpt lat="46.16535" lon="5.80293">
        <ele>608</ele>
        <time>2026-05-13T02:17:51Z</time>
      </trkpt>
      <trkpt lat="46.16537" lon="5.80297">
        <ele>608.2</ele>
        <time>2026-05-13T02:17:52Z</time>
      </trkpt>
      <trkpt lat="46.1656" lon="5.8033">
        <ele>608.4</ele>
        <time>2026-05-13T02:18:01Z</time>
      </trkpt>
      <trkpt lat="46.16582" lon="5.8035">
        <ele>608.2</ele>
        <time>2026-05-13T02:18:07Z</time>
      </trkpt>
      <trkpt lat="46.16611" lon="5.80376">
        <ele>607.4</ele>
        <time>2026-05-13T02:18:14Z</time>
      </trkpt>
      <trkpt lat="46.16621" lon="5.80383">
        <ele>607.2</ele>
        <time>2026-05-13T02:18:16Z</time>
      </trkpt>
      <trkpt lat="46.16626" lon="5.80387">
        <ele>607.2</ele>
        <time>2026-05-13T02:18:17Z</time>
      </trkpt>
      <trkpt lat="46.1664" lon="5.80398">
        <ele>606.6</ele>
        <time>2026-05-13T02:18:20Z</time>
      </trkpt>
      <trkpt lat="46.16654" lon="5.80407">
        <ele>606.2</ele>
        <time>2026-05-13T02:18:23Z</time>
      </trkpt>
      <trkpt lat="46.16675" lon="5.8042">
        <ele>606.2</ele>
        <time>2026-05-13T02:18:27Z</time>
      </trkpt>
      <trkpt lat="46.16679" lon="5.80423">
        <ele>606</ele>
        <time>2026-05-13T02:18:28Z</time>
      </trkpt>
      <trkpt lat="46.16699" lon="5.80435">
        <ele>605.8</ele>
        <time>2026-05-13T02:18:32Z</time>
      </trkpt>
      <trkpt lat="46.16704" lon="5.80437">
        <ele>605.6</ele>
        <time>2026-05-13T02:18:33Z</time>
      </trkpt>
      <trkpt lat="46.16725" lon="5.80439">
        <ele>605.4</ele>
        <time>2026-05-13T02:18:37Z</time>
      </trkpt>
      <trkpt lat="46.16736" lon="5.80438">
        <ele>605.2</ele>
        <time>2026-05-13T02:18:39Z</time>
      </trkpt>
      <trkpt lat="46.16752" lon="5.80433">
        <ele>605.2</ele>
        <time>2026-05-13T02:18:42Z</time>
      </trkpt>
      <trkpt lat="46.16767" lon="5.80425">
        <ele>605.2</ele>
        <time>2026-05-13T02:18:45Z</time>
      </trkpt>
      <trkpt lat="46.16777" lon="5.80419">
        <ele>605</ele>
        <time>2026-05-13T02:18:47Z</time>
      </trkpt>
      <trkpt lat="46.16794" lon="5.80401">
        <ele>604.8</ele>
        <time>2026-05-13T02:18:51Z</time>
      </trkpt>
      <trkpt lat="46.1682" lon="5.80373">
        <ele>604.4</ele>
        <time>2026-05-13T02:18:57Z</time>
      </trkpt>
      <trkpt lat="46.16828" lon="5.80363">
        <ele>604.4</ele>
        <time>2026-05-13T02:18:59Z</time>
      </trkpt>
      <trkpt lat="46.16865" lon="5.80317">
        <ele>604</ele>
        <time>2026-05-13T02:19:08Z</time>
      </trkpt>
      <trkpt lat="46.16871" lon="5.80313">
        <ele>604</ele>
        <time>2026-05-13T02:19:09Z</time>
      </trkpt>
      <trkpt lat="46.16876" lon="5.80309">
        <ele>603.8</ele>
        <time>2026-05-13T02:19:10Z</time>
      </trkpt>
      <trkpt lat="46.16887" lon="5.80305">
        <ele>603.6</ele>
        <time>2026-05-13T02:19:12Z</time>
      </trkpt>
      <trkpt lat="46.16892" lon="5.80305">
        <ele>603.6</ele>
        <time>2026-05-13T02:19:13Z</time>
      </trkpt>
      <trkpt lat="46.16898" lon="5.80305">
        <ele>603.4</ele>
        <time>2026-05-13T02:19:14Z</time>
      </trkpt>
      <trkpt lat="46.16921" lon="5.80311">
        <ele>602.8</ele>
        <time>2026-05-13T02:19:18Z</time>
      </trkpt>
      <trkpt lat="46.16927" lon="5.80315">
        <ele>602.8</ele>
        <time>2026-05-13T02:19:19Z</time>
      </trkpt>
      <trkpt lat="46.16947" lon="5.80334">
        <ele>602.6</ele>
        <time>2026-05-13T02:19:23Z</time>
      </trkpt>
      <trkpt lat="46.16995" lon="5.80383">
        <ele>602.4</ele>
        <time>2026-05-13T02:19:33Z</time>
      </trkpt>
      <trkpt lat="46.17" lon="5.80388">
        <ele>602.4</ele>
        <time>2026-05-13T02:19:34Z</time>
      </trkpt>
      <trkpt lat="46.17034" lon="5.80431">
        <ele>602</ele>
        <time>2026-05-13T02:19:42Z</time>
      </trkpt>
      <trkpt lat="46.17058" lon="5.80482">
        <ele>602</ele>
        <time>2026-05-13T02:19:49Z</time>
      </trkpt>
      <trkpt lat="46.17068" lon="5.80501">
        <ele>601.8</ele>
        <time>2026-05-13T02:19:52Z</time>
      </trkpt>
      <trkpt lat="46.17083" lon="5.80519">
        <ele>602</ele>
        <time>2026-05-13T02:19:55Z</time>
      </trkpt>
      <trkpt lat="46.17115" lon="5.8054">
        <ele>601.8</ele>
        <time>2026-05-13T02:20:01Z</time>
      </trkpt>
      <trkpt lat="46.17132" lon="5.8055">
        <ele>601.6</ele>
        <time>2026-05-13T02:20:04Z</time>
      </trkpt>
      <trkpt lat="46.17166" lon="5.80568">
        <ele>601.4</ele>
        <time>2026-05-13T02:20:10Z</time>
      </trkpt>
      <trkpt lat="46.17209" lon="5.80588">
        <ele>601</ele>
        <time>2026-05-13T02:20:18Z</time>
      </trkpt>
      <trkpt lat="46.17263" lon="5.80611">
        <ele>600.8</ele>
        <time>2026-05-13T02:20:28Z</time>
      </trkpt>
      <trkpt lat="46.17285" lon="5.80621">
        <ele>600.6</ele>
        <time>2026-05-13T02:20:32Z</time>
      </trkpt>
      <trkpt lat="46.17292" lon="5.80624">
        <ele>600.6</ele>
        <time>2026-05-13T02:20:33Z</time>
      </trkpt>
      <trkpt lat="46.17304" lon="5.8063">
        <ele>600.6</ele>
        <time>2026-05-13T02:20:35Z</time>
      </trkpt>
      <trkpt lat="46.17343" lon="5.80644">
        <ele>600</ele>
        <time>2026-05-13T02:20:42Z</time>
      </trkpt>
      <trkpt lat="46.17371" lon="5.80655">
        <ele>599.6</ele>
        <time>2026-05-13T02:20:47Z</time>
      </trkpt>
      <trkpt lat="46.17378" lon="5.80658">
        <ele>599.6</ele>
        <time>2026-05-13T02:20:48Z</time>
      </trkpt>
      <trkpt lat="46.17389" lon="5.80662">
        <ele>599.4</ele>
        <time>2026-05-13T02:20:50Z</time>
      </trkpt>
      <trkpt lat="46.17399" lon="5.80667">
        <ele>599.2</ele>
        <time>2026-05-13T02:20:52Z</time>
      </trkpt>
      <trkpt lat="46.17417" lon="5.80675">
        <ele>598.8</ele>
        <time>2026-05-13T02:20:55Z</time>
      </trkpt>
      <trkpt lat="46.1744" lon="5.8068">
        <ele>598.6</ele>
        <time>2026-05-13T02:20:59Z</time>
      </trkpt>
      <trkpt lat="46.17445" lon="5.80683">
        <ele>598.4</ele>
        <time>2026-05-13T02:21:00Z</time>
      </trkpt>
      <trkpt lat="46.17478" lon="5.80694">
        <ele>598.2</ele>
        <time>2026-05-13T02:21:06Z</time>
      </trkpt>
      <trkpt lat="46.17516" lon="5.80708">
        <ele>598</ele>
        <time>2026-05-13T02:21:13Z</time>
      </trkpt>
      <trkpt lat="46.17564" lon="5.80715">
        <ele>597.8</ele>
        <time>2026-05-13T02:21:21Z</time>
      </trkpt>
      <trkpt lat="46.17569" lon="5.80717">
        <ele>597.8</ele>
        <time>2026-05-13T02:21:22Z</time>
      </trkpt>
      <trkpt lat="46.17586" lon="5.80721">
        <ele>597.6</ele>
        <time>2026-05-13T02:21:25Z</time>
      </trkpt>
      <trkpt lat="46.17592" lon="5.80722">
        <ele>597.2</ele>
        <time>2026-05-13T02:21:26Z</time>
      </trkpt>
      <trkpt lat="46.17621" lon="5.80726">
        <ele>597</ele>
        <time>2026-05-13T02:21:31Z</time>
      </trkpt>
      <trkpt lat="46.17659" lon="5.80732">
        <ele>596.6</ele>
        <time>2026-05-13T02:21:38Z</time>
      </trkpt>
      <trkpt lat="46.17685" lon="5.80725">
        <ele>596.6</ele>
        <time>2026-05-13T02:21:43Z</time>
      </trkpt>
      <trkpt lat="46.17719" lon="5.80709">
        <ele>596.8</ele>
        <time>2026-05-13T02:21:50Z</time>
      </trkpt>
      <trkpt lat="46.17744" lon="5.80697">
        <ele>596.6</ele>
        <time>2026-05-13T02:21:55Z</time>
      </trkpt>
      <trkpt lat="46.17758" lon="5.80691">
        <ele>596.6</ele>
        <time>2026-05-13T02:21:58Z</time>
      </trkpt>
      <trkpt lat="46.17782" lon="5.80685">
        <ele>596.6</ele>
        <time>2026-05-13T02:22:03Z</time>
      </trkpt>
      <trkpt lat="46.17801" lon="5.80682">
        <ele>596.6</ele>
        <time>2026-05-13T02:22:07Z</time>
      </trkpt>
      <trkpt lat="46.17811" lon="5.80682">
        <ele>596.6</ele>
        <time>2026-05-13T02:22:09Z</time>
      </trkpt>
      <trkpt lat="46.17816" lon="5.80681">
        <ele>596.6</ele>
        <time>2026-05-13T02:22:10Z</time>
      </trkpt>
      <trkpt lat="46.17846" lon="5.80677">
        <ele>596.6</ele>
        <time>2026-05-13T02:22:16Z</time>
      </trkpt>
      <trkpt lat="46.1786" lon="5.80677">
        <ele>596.8</ele>
        <time>2026-05-13T02:22:19Z</time>
      </trkpt>
      <trkpt lat="46.17865" lon="5.80679">
        <ele>596.8</ele>
        <time>2026-05-13T02:22:20Z</time>
      </trkpt>
      <trkpt lat="46.17871" lon="5.8068">
        <ele>597</ele>
        <time>2026-05-13T02:22:21Z</time>
      </trkpt>
      <trkpt lat="46.17881" lon="5.80683">
        <ele>597</ele>
        <time>2026-05-13T02:22:23Z</time>
      </trkpt>
      <trkpt lat="46.17886" lon="5.80685">
        <ele>597.2</ele>
        <time>2026-05-13T02:22:24Z</time>
      </trkpt>
      <trkpt lat="46.17891" lon="5.80688">
        <ele>597.2</ele>
        <time>2026-05-13T02:22:25Z</time>
      </trkpt>
      <trkpt lat="46.17902" lon="5.80692">
        <ele>597</ele>
        <time>2026-05-13T02:22:27Z</time>
      </trkpt>
      <trkpt lat="46.17906" lon="5.80695">
        <ele>597</ele>
        <time>2026-05-13T02:22:28Z</time>
      </trkpt>
      <trkpt lat="46.17921" lon="5.80701">
        <ele>597</ele>
        <time>2026-05-13T02:22:31Z</time>
      </trkpt>
      <trkpt lat="46.17938" lon="5.80707">
        <ele>597</ele>
        <time>2026-05-13T02:22:35Z</time>
      </trkpt>
      <trkpt lat="46.17947" lon="5.80705">
        <ele>597.6</ele>
        <time>2026-05-13T02:22:37Z</time>
      </trkpt>
      <trkpt lat="46.17955" lon="5.80706">
        <ele>598</ele>
        <time>2026-05-13T02:22:39Z</time>
      </trkpt>
      <trkpt lat="46.17982" lon="5.80697">
        <ele>599</ele>
        <time>2026-05-13T02:22:46Z</time>
      </trkpt>
      <trkpt lat="46.17985" lon="5.80695">
        <ele>599.2</ele>
        <time>2026-05-13T02:22:47Z</time>
      </trkpt>
      <trkpt lat="46.18" lon="5.80689">
        <ele>599.8</ele>
        <time>2026-05-13T02:22:52Z</time>
      </trkpt>
      <trkpt lat="46.18015" lon="5.80684">
        <ele>600.4</ele>
        <time>2026-05-13T02:22:57Z</time>
      </trkpt>
      <trkpt lat="46.18035" lon="5.80682">
        <ele>601.2</ele>
        <time>2026-05-13T02:23:03Z</time>
      </trkpt>
      <trkpt lat="46.18045" lon="5.8068">
        <ele>601.6</ele>
        <time>2026-05-13T02:23:06Z</time>
      </trkpt>
      <trkpt lat="46.18067" lon="5.80679">
        <ele>602.2</ele>
        <time>2026-05-13T02:23:12Z</time>
      </trkpt>
      <trkpt lat="46.18073" lon="5.80681">
        <ele>602.4</ele>
        <time>2026-05-13T02:23:14Z</time>
      </trkpt>
      <trkpt lat="46.18089" lon="5.8069">
        <ele>602.8</ele>
        <time>2026-05-13T02:23:19Z</time>
      </trkpt>
      <trkpt lat="46.18108" lon="5.80701">
        <ele>603.4</ele>
        <time>2026-05-13T02:23:24Z</time>
      </trkpt>
      <trkpt lat="46.18112" lon="5.80703">
        <ele>603.4</ele>
        <time>2026-05-13T02:23:25Z</time>
      </trkpt>
      <trkpt lat="46.18116" lon="5.80705">
        <ele>603.4</ele>
        <time>2026-05-13T02:23:26Z</time>
      </trkpt>
      <trkpt lat="46.1815" lon="5.80728">
        <ele>603.8</ele>
        <time>2026-05-13T02:23:35Z</time>
      </trkpt>
      <trkpt lat="46.18154" lon="5.80731">
        <ele>604</ele>
        <time>2026-05-13T02:23:36Z</time>
      </trkpt>
      <trkpt lat="46.1816" lon="5.80736">
        <ele>604.2</ele>
        <time>2026-05-13T02:23:38Z</time>
      </trkpt>
      <trkpt lat="46.18169" lon="5.80744">
        <ele>604.6</ele>
        <time>2026-05-13T02:23:41Z</time>
      </trkpt>
      <trkpt lat="46.18187" lon="5.80758">
        <ele>605.4</ele>
        <time>2026-05-13T02:23:47Z</time>
      </trkpt>
      <trkpt lat="46.18192" lon="5.80762">
        <ele>605.6</ele>
        <time>2026-05-13T02:23:49Z</time>
      </trkpt>
      <trkpt lat="46.18216" lon="5.80773">
        <ele>606.6</ele>
        <time>2026-05-13T02:23:56Z</time>
      </trkpt>
      <trkpt lat="46.18239" lon="5.80782">
        <ele>607.6</ele>
        <time>2026-05-13T02:24:03Z</time>
      </trkpt>
      <trkpt lat="46.18242" lon="5.80785">
        <ele>607.6</ele>
        <time>2026-05-13T02:24:04Z</time>
      </trkpt>
      <trkpt lat="46.18261" lon="5.808">
        <ele>608</ele>
        <time>2026-05-13T02:24:10Z</time>
      </trkpt>
      <trkpt lat="46.18277" lon="5.80814">
        <ele>608.6</ele>
        <time>2026-05-13T02:24:16Z</time>
      </trkpt>
      <trkpt lat="46.18282" lon="5.80819">
        <ele>609</ele>
        <time>2026-05-13T02:24:18Z</time>
      </trkpt>
      <trkpt lat="46.18293" lon="5.80829">
        <ele>609.8</ele>
        <time>2026-05-13T02:24:22Z</time>
      </trkpt>
      <trkpt lat="46.18295" lon="5.80831">
        <ele>609.8</ele>
        <time>2026-05-13T02:24:23Z</time>
      </trkpt>
      <trkpt lat="46.18311" lon="5.80844">
        <ele>610.6</ele>
        <time>2026-05-13T02:24:29Z</time>
      </trkpt>
      <trkpt lat="46.18314" lon="5.80846">
        <ele>610.8</ele>
        <time>2026-05-13T02:24:30Z</time>
      </trkpt>
      <trkpt lat="46.18327" lon="5.80855">
        <ele>611.6</ele>
        <time>2026-05-13T02:24:35Z</time>
      </trkpt>
      <trkpt lat="46.18335" lon="5.80861">
        <ele>612</ele>
        <time>2026-05-13T02:24:38Z</time>
      </trkpt>
      <trkpt lat="46.18348" lon="5.8087">
        <ele>612.8</ele>
        <time>2026-05-13T02:24:43Z</time>
      </trkpt>
      <trkpt lat="46.18353" lon="5.80874">
        <ele>613.2</ele>
        <time>2026-05-13T02:24:45Z</time>
      </trkpt>
      <trkpt lat="46.18369" lon="5.80883">
        <ele>614.2</ele>
        <time>2026-05-13T02:24:52Z</time>
      </trkpt>
      <trkpt lat="46.18384" lon="5.80887">
        <ele>615.2</ele>
        <time>2026-05-13T02:24:58Z</time>
      </trkpt>
      <trkpt lat="46.1839" lon="5.80888">
        <ele>615.4</ele>
        <time>2026-05-13T02:25:00Z</time>
      </trkpt>
      <trkpt lat="46.18401" lon="5.80892">
        <ele>616.2</ele>
        <time>2026-05-13T02:25:05Z</time>
      </trkpt>
      <trkpt lat="46.18411" lon="5.80894">
        <ele>617.2</ele>
        <time>2026-05-13T02:25:09Z</time>
      </trkpt>
      <trkpt lat="46.18415" lon="5.80896">
        <ele>617.6</ele>
        <time>2026-05-13T02:25:11Z</time>
      </trkpt>
      <trkpt lat="46.18428" lon="5.80898">
        <ele>618.4</ele>
        <time>2026-05-13T02:25:16Z</time>
      </trkpt>
      <trkpt lat="46.18434" lon="5.80899">
        <ele>618.6</ele>
        <time>2026-05-13T02:25:18Z</time>
      </trkpt>
      <trkpt lat="46.18446" lon="5.80901">
        <ele>619.8</ele>
        <time>2026-05-13T02:25:23Z</time>
      </trkpt>
      <trkpt lat="46.18454" lon="5.80902">
        <ele>620.4</ele>
        <time>2026-05-13T02:25:26Z</time>
      </trkpt>
      <trkpt lat="46.18461" lon="5.80901">
        <ele>621</ele>
        <time>2026-05-13T02:25:29Z</time>
      </trkpt>
      <trkpt lat="46.18474" lon="5.80901">
        <ele>622</ele>
        <time>2026-05-13T02:25:34Z</time>
      </trkpt>
      <trkpt lat="46.18486" lon="5.80901">
        <ele>623</ele>
        <time>2026-05-13T02:25:39Z</time>
      </trkpt>
      <trkpt lat="46.18493" lon="5.809">
        <ele>623.6</ele>
        <time>2026-05-13T02:25:42Z</time>
      </trkpt>
      <trkpt lat="46.18503" lon="5.809">
        <ele>624.2</ele>
        <time>2026-05-13T02:25:46Z</time>
      </trkpt>
      <trkpt lat="46.18516" lon="5.80898">
        <ele>625</ele>
        <time>2026-05-13T02:25:51Z</time>
      </trkpt>
      <trkpt lat="46.18519" lon="5.80897">
        <ele>625</ele>
        <time>2026-05-13T02:25:52Z</time>
      </trkpt>
      <trkpt lat="46.18534" lon="5.80891">
        <ele>626.2</ele>
        <time>2026-05-13T02:25:58Z</time>
      </trkpt>
      <trkpt lat="46.18542" lon="5.80889">
        <ele>626.6</ele>
        <time>2026-05-13T02:26:01Z</time>
      </trkpt>
      <trkpt lat="46.18549" lon="5.80884">
        <ele>627.2</ele>
        <time>2026-05-13T02:26:04Z</time>
      </trkpt>
      <trkpt lat="46.18566" lon="5.8087">
        <ele>628</ele>
        <time>2026-05-13T02:26:11Z</time>
      </trkpt>
      <trkpt lat="46.18571" lon="5.80867">
        <ele>628.4</ele>
        <time>2026-05-13T02:26:13Z</time>
      </trkpt>
      <trkpt lat="46.18593" lon="5.80853">
        <ele>629.2</ele>
        <time>2026-05-13T02:26:22Z</time>
      </trkpt>
      <trkpt lat="46.18598" lon="5.80852">
        <ele>629.4</ele>
        <time>2026-05-13T02:26:24Z</time>
      </trkpt>
      <trkpt lat="46.18614" lon="5.8085">
        <ele>630.2</ele>
        <time>2026-05-13T02:26:30Z</time>
      </trkpt>
      <trkpt lat="46.18619" lon="5.80849">
        <ele>630.4</ele>
        <time>2026-05-13T02:26:32Z</time>
      </trkpt>
      <trkpt lat="46.18634" lon="5.80849">
        <ele>631.4</ele>
        <time>2026-05-13T02:26:38Z</time>
      </trkpt>
      <trkpt lat="46.18647" lon="5.8085">
        <ele>632.6</ele>
        <time>2026-05-13T02:26:43Z</time>
      </trkpt>
      <trkpt lat="46.18654" lon="5.8085">
        <ele>633.2</ele>
        <time>2026-05-13T02:26:46Z</time>
      </trkpt>
      <trkpt lat="46.18659" lon="5.80851">
        <ele>633.6</ele>
        <time>2026-05-13T02:26:48Z</time>
      </trkpt>
      <trkpt lat="46.18673" lon="5.80853">
        <ele>634.6</ele>
        <time>2026-05-13T02:26:54Z</time>
      </trkpt>
      <trkpt lat="46.18689" lon="5.80855">
        <ele>635.6</ele>
        <time>2026-05-13T02:27:00Z</time>
      </trkpt>
      <trkpt lat="46.18691" lon="5.80856">
        <ele>635.8</ele>
        <time>2026-05-13T02:27:01Z</time>
      </trkpt>
      <trkpt lat="46.18708" lon="5.80862">
        <ele>636.6</ele>
        <time>2026-05-13T02:27:08Z</time>
      </trkpt>
      <trkpt lat="46.1871" lon="5.80863">
        <ele>636.8</ele>
        <time>2026-05-13T02:27:09Z</time>
      </trkpt>
      <trkpt lat="46.18727" lon="5.80872">
        <ele>637.6</ele>
        <time>2026-05-13T02:27:16Z</time>
      </trkpt>
      <trkpt lat="46.18731" lon="5.80876">
        <ele>637.8</ele>
        <time>2026-05-13T02:27:18Z</time>
      </trkpt>
      <trkpt lat="46.18747" lon="5.80892">
        <ele>638.8</ele>
        <time>2026-05-13T02:27:26Z</time>
      </trkpt>
      <trkpt lat="46.18764" lon="5.80909">
        <ele>639.8</ele>
        <time>2026-05-13T02:27:34Z</time>
      </trkpt>
      <trkpt lat="46.18779" lon="5.80927">
        <ele>640.4</ele>
        <time>2026-05-13T02:27:42Z</time>
      </trkpt>
      <trkpt lat="46.18785" lon="5.80934">
        <ele>640.8</ele>
        <time>2026-05-13T02:27:45Z</time>
      </trkpt>
      <trkpt lat="46.18798" lon="5.80946">
        <ele>641.6</ele>
        <time>2026-05-13T02:27:51Z</time>
      </trkpt>
      <trkpt lat="46.18804" lon="5.80953">
        <ele>642</ele>
        <time>2026-05-13T02:27:54Z</time>
      </trkpt>
      <trkpt lat="46.18822" lon="5.80973">
        <ele>643.2</ele>
        <time>2026-05-13T02:28:03Z</time>
      </trkpt>
      <trkpt lat="46.18837" lon="5.80987">
        <ele>644</ele>
        <time>2026-05-13T02:28:10Z</time>
      </trkpt>
      <trkpt lat="46.18841" lon="5.80991">
        <ele>644.2</ele>
        <time>2026-05-13T02:28:12Z</time>
      </trkpt>
      <trkpt lat="46.18855" lon="5.81006">
        <ele>645.2</ele>
        <time>2026-05-13T02:28:19Z</time>
      </trkpt>
      <trkpt lat="46.18857" lon="5.81008">
        <ele>645.2</ele>
        <time>2026-05-13T02:28:20Z</time>
      </trkpt>
      <trkpt lat="46.18873" lon="5.81025">
        <ele>646.2</ele>
        <time>2026-05-13T02:28:28Z</time>
      </trkpt>
      <trkpt lat="46.18875" lon="5.81028">
        <ele>646.2</ele>
        <time>2026-05-13T02:28:29Z</time>
      </trkpt>
      <trkpt lat="46.18894" lon="5.81048">
        <ele>647.4</ele>
        <time>2026-05-13T02:28:38Z</time>
      </trkpt>
      <trkpt lat="46.18896" lon="5.8105">
        <ele>647.6</ele>
        <time>2026-05-13T02:28:39Z</time>
      </trkpt>
      <trkpt lat="46.18914" lon="5.81071">
        <ele>648.4</ele>
        <time>2026-05-13T02:28:48Z</time>
      </trkpt>
      <trkpt lat="46.18927" lon="5.81083">
        <ele>649.2</ele>
        <time>2026-05-13T02:28:54Z</time>
      </trkpt>
      <trkpt lat="46.18931" lon="5.81088">
        <ele>649.6</ele>
        <time>2026-05-13T02:28:56Z</time>
      </trkpt>
      <trkpt lat="46.18941" lon="5.81098">
        <ele>650.2</ele>
        <time>2026-05-13T02:29:01Z</time>
      </trkpt>
      <trkpt lat="46.18947" lon="5.81104">
        <ele>650.4</ele>
        <time>2026-05-13T02:29:04Z</time>
      </trkpt>
      <trkpt lat="46.18961" lon="5.81119">
        <ele>651.6</ele>
        <time>2026-05-13T02:29:11Z</time>
      </trkpt>
      <trkpt lat="46.18975" lon="5.81135">
        <ele>652.8</ele>
        <time>2026-05-13T02:29:18Z</time>
      </trkpt>
      <trkpt lat="46.18979" lon="5.81139">
        <ele>653</ele>
        <time>2026-05-13T02:29:20Z</time>
      </trkpt>
      <trkpt lat="46.18988" lon="5.81151">
        <ele>654</ele>
        <time>2026-05-13T02:29:25Z</time>
      </trkpt>
      <trkpt lat="46.1899" lon="5.81154">
        <ele>654.2</ele>
        <time>2026-05-13T02:29:26Z</time>
      </trkpt>
      <trkpt lat="46.18997" lon="5.8116">
        <ele>655</ele>
        <time>2026-05-13T02:29:29Z</time>
      </trkpt>
      <trkpt lat="46.19007" lon="5.81165">
        <ele>655.4</ele>
        <time>2026-05-13T02:29:33Z</time>
      </trkpt>
      <trkpt lat="46.19026" lon="5.81176">
        <ele>656</ele>
        <time>2026-05-13T02:29:40Z</time>
      </trkpt>
      <trkpt lat="46.19031" lon="5.81185">
        <ele>656</ele>
        <time>2026-05-13T02:29:43Z</time>
      </trkpt>
      <trkpt lat="46.19046" lon="5.81205">
        <ele>656.4</ele>
        <time>2026-05-13T02:29:50Z</time>
      </trkpt>
      <trkpt lat="46.19064" lon="5.8123">
        <ele>656.8</ele>
        <time>2026-05-13T02:29:58Z</time>
      </trkpt>
      <trkpt lat="46.1907" lon="5.81239">
        <ele>657.2</ele>
        <time>2026-05-13T02:30:01Z</time>
      </trkpt>
      <trkpt lat="46.19085" lon="5.8126">
        <ele>657.4</ele>
        <time>2026-05-13T02:30:07Z</time>
      </trkpt>
      <trkpt lat="46.19107" lon="5.81294">
        <ele>656.8</ele>
        <time>2026-05-13T02:30:16Z</time>
      </trkpt>
      <trkpt lat="46.19125" lon="5.81315">
        <ele>656.6</ele>
        <time>2026-05-13T02:30:22Z</time>
      </trkpt>
      <trkpt lat="46.19148" lon="5.81336">
        <ele>656.4</ele>
        <time>2026-05-13T02:30:29Z</time>
      </trkpt>
      <trkpt lat="46.19152" lon="5.81339">
        <ele>656.4</ele>
        <time>2026-05-13T02:30:30Z</time>
      </trkpt>
      <trkpt lat="46.19174" lon="5.8136">
        <ele>655.6</ele>
        <time>2026-05-13T02:30:35Z</time>
      </trkpt>
      <trkpt lat="46.19183" lon="5.81369">
        <ele>655.2</ele>
        <time>2026-05-13T02:30:37Z</time>
      </trkpt>
      <trkpt lat="46.19199" lon="5.81393">
        <ele>654.2</ele>
        <time>2026-05-13T02:30:41Z</time>
      </trkpt>
      <trkpt lat="46.19215" lon="5.81418">
        <ele>653.2</ele>
        <time>2026-05-13T02:30:45Z</time>
      </trkpt>
      <trkpt lat="46.19229" lon="5.81439">
        <ele>652.4</ele>
        <time>2026-05-13T02:30:48Z</time>
      </trkpt>
      <trkpt lat="46.19234" lon="5.81446">
        <ele>652</ele>
        <time>2026-05-13T02:30:49Z</time>
      </trkpt>
      <trkpt lat="46.19261" lon="5.8148">
        <ele>650.8</ele>
        <time>2026-05-13T02:30:54Z</time>
      </trkpt>
      <trkpt lat="46.19267" lon="5.81487">
        <ele>650.4</ele>
        <time>2026-05-13T02:30:55Z</time>
      </trkpt>
      <trkpt lat="46.19286" lon="5.81505">
        <ele>649.6</ele>
        <time>2026-05-13T02:30:58Z</time>
      </trkpt>
      <trkpt lat="46.19303" lon="5.81525">
        <ele>648.6</ele>
        <time>2026-05-13T02:31:01Z</time>
      </trkpt>
      <trkpt lat="46.19309" lon="5.8153">
        <ele>648.4</ele>
        <time>2026-05-13T02:31:02Z</time>
      </trkpt>
      <trkpt lat="46.19338" lon="5.81558">
        <ele>647.4</ele>
        <time>2026-05-13T02:31:07Z</time>
      </trkpt>
      <trkpt lat="46.19349" lon="5.81568">
        <ele>647.4</ele>
        <time>2026-05-13T02:31:09Z</time>
      </trkpt>
      <trkpt lat="46.19381" lon="5.816">
        <ele>646.6</ele>
        <time>2026-05-13T02:31:15Z</time>
      </trkpt>
      <trkpt lat="46.19387" lon="5.81606">
        <ele>646.4</ele>
        <time>2026-05-13T02:31:16Z</time>
      </trkpt>
      <trkpt lat="46.19402" lon="5.81624">
        <ele>646</ele>
        <time>2026-05-13T02:31:19Z</time>
      </trkpt>
      <trkpt lat="46.19414" lon="5.81634">
        <ele>645.4</ele>
        <time>2026-05-13T02:31:21Z</time>
      </trkpt>
      <trkpt lat="46.19442" lon="5.81662">
        <ele>644.4</ele>
        <time>2026-05-13T02:31:26Z</time>
      </trkpt>
      <trkpt lat="46.19454" lon="5.81673">
        <ele>644.2</ele>
        <time>2026-05-13T02:31:28Z</time>
      </trkpt>
      <trkpt lat="46.1946" lon="5.8168">
        <ele>644</ele>
        <time>2026-05-13T02:31:29Z</time>
      </trkpt>
      <trkpt lat="46.19467" lon="5.81696">
        <ele>643</ele>
        <time>2026-05-13T02:31:31Z</time>
      </trkpt>
      <trkpt lat="46.19486" lon="5.81735">
        <ele>642</ele>
        <time>2026-05-13T02:31:36Z</time>
      </trkpt>
      <trkpt lat="46.1951" lon="5.81783">
        <ele>641</ele>
        <time>2026-05-13T02:31:43Z</time>
      </trkpt>
      <trkpt lat="46.19521" lon="5.81819">
        <ele>641</ele>
        <time>2026-05-13T02:31:48Z</time>
      </trkpt>
      <trkpt lat="46.19528" lon="5.81852">
        <ele>641.8</ele>
        <time>2026-05-13T02:31:54Z</time>
      </trkpt>
      <trkpt lat="46.19535" lon="5.81886">
        <ele>643</ele>
        <time>2026-05-13T02:32:01Z</time>
      </trkpt>
      <trkpt lat="46.19536" lon="5.81891">
        <ele>643</ele>
        <time>2026-05-13T02:32:02Z</time>
      </trkpt>
      <trkpt lat="46.1954" lon="5.81918">
        <ele>644</ele>
        <time>2026-05-13T02:32:08Z</time>
      </trkpt>
      <trkpt lat="46.19541" lon="5.81932">
        <ele>644.2</ele>
        <time>2026-05-13T02:32:11Z</time>
      </trkpt>
      <trkpt lat="46.19541" lon="5.8195">
        <ele>645</ele>
        <time>2026-05-13T02:32:15Z</time>
      </trkpt>
      <trkpt lat="46.1954" lon="5.81968">
        <ele>645.6</ele>
        <time>2026-05-13T02:32:19Z</time>
      </trkpt>
      <trkpt lat="46.19538" lon="5.81981">
        <ele>646.2</ele>
        <time>2026-05-13T02:32:22Z</time>
      </trkpt>
      <trkpt lat="46.19533" lon="5.82006">
        <ele>647.2</ele>
        <time>2026-05-13T02:32:28Z</time>
      </trkpt>
      <trkpt lat="46.1953" lon="5.8204">
        <ele>648.8</ele>
        <time>2026-05-13T02:32:36Z</time>
      </trkpt>
      <trkpt lat="46.19529" lon="5.82044">
        <ele>648.8</ele>
        <time>2026-05-13T02:32:37Z</time>
      </trkpt>
      <trkpt lat="46.19524" lon="5.82078">
        <ele>649.6</ele>
        <time>2026-05-13T02:32:45Z</time>
      </trkpt>
      <trkpt lat="46.19523" lon="5.82085">
        <ele>650</ele>
        <time>2026-05-13T02:32:47Z</time>
      </trkpt>
      <trkpt lat="46.1952" lon="5.82113">
        <ele>650.8</ele>
        <time>2026-05-13T02:32:54Z</time>
      </trkpt>
      <trkpt lat="46.19519" lon="5.82121">
        <ele>651.2</ele>
        <time>2026-05-13T02:32:56Z</time>
      </trkpt>
      <trkpt lat="46.19517" lon="5.82136">
        <ele>651.8</ele>
        <time>2026-05-13T02:33:00Z</time>
      </trkpt>
      <trkpt lat="46.19515" lon="5.82147">
        <ele>652.2</ele>
        <time>2026-05-13T02:33:03Z</time>
      </trkpt>
      <trkpt lat="46.19513" lon="5.82161">
        <ele>652.8</ele>
        <time>2026-05-13T02:33:07Z</time>
      </trkpt>
      <trkpt lat="46.1951" lon="5.82182">
        <ele>653.8</ele>
        <time>2026-05-13T02:33:13Z</time>
      </trkpt>
      <trkpt lat="46.1951" lon="5.82186">
        <ele>654</ele>
        <time>2026-05-13T02:33:14Z</time>
      </trkpt>
      <trkpt lat="46.19507" lon="5.82212">
        <ele>655.2</ele>
        <time>2026-05-13T02:33:21Z</time>
      </trkpt>
      <trkpt lat="46.19506" lon="5.82238">
        <ele>656.2</ele>
        <time>2026-05-13T02:33:28Z</time>
      </trkpt>
      <trkpt lat="46.19506" lon="5.8225">
        <ele>656.8</ele>
        <time>2026-05-13T02:33:31Z</time>
      </trkpt>
      <trkpt lat="46.19507" lon="5.82281">
        <ele>657.4</ele>
        <time>2026-05-13T02:33:38Z</time>
      </trkpt>
      <trkpt lat="46.19509" lon="5.82291">
        <ele>657.6</ele>
        <time>2026-05-13T02:33:40Z</time>
      </trkpt>
      <trkpt lat="46.1951" lon="5.82316">
        <ele>658</ele>
        <time>2026-05-13T02:33:45Z</time>
      </trkpt>
      <trkpt lat="46.1951" lon="5.82325">
        <ele>658.2</ele>
        <time>2026-05-13T02:33:47Z</time>
      </trkpt>
      <trkpt lat="46.19511" lon="5.82348">
        <ele>658.4</ele>
        <time>2026-05-13T02:33:52Z</time>
      </trkpt>
      <trkpt lat="46.19511" lon="5.82352">
        <ele>658.6</ele>
        <time>2026-05-13T02:33:53Z</time>
      </trkpt>
      <trkpt lat="46.19514" lon="5.82397">
        <ele>659.2</ele>
        <time>2026-05-13T02:34:03Z</time>
      </trkpt>
      <trkpt lat="46.19517" lon="5.82443">
        <ele>659.4</ele>
        <time>2026-05-13T02:34:12Z</time>
      </trkpt>
      <trkpt lat="46.19517" lon="5.82448">
        <ele>659.4</ele>
        <time>2026-05-13T02:34:13Z</time>
      </trkpt>
      <trkpt lat="46.19519" lon="5.82474">
        <ele>659.6</ele>
        <time>2026-05-13T02:34:18Z</time>
      </trkpt>
      <trkpt lat="46.19525" lon="5.82516">
        <ele>659.8</ele>
        <time>2026-05-13T02:34:26Z</time>
      </trkpt>
      <trkpt lat="46.19537" lon="5.82553">
        <ele>660</ele>
        <time>2026-05-13T02:34:33Z</time>
      </trkpt>
      <trkpt lat="46.19552" lon="5.82597">
        <ele>659.8</ele>
        <time>2026-05-13T02:34:41Z</time>
      </trkpt>
      <trkpt lat="46.19562" lon="5.82641">
        <ele>659.6</ele>
        <time>2026-05-13T02:34:48Z</time>
      </trkpt>
      <trkpt lat="46.19562" lon="5.82648">
        <ele>659.6</ele>
        <time>2026-05-13T02:34:49Z</time>
      </trkpt>
      <trkpt lat="46.19563" lon="5.82667">
        <ele>659.8</ele>
        <time>2026-05-13T02:34:52Z</time>
      </trkpt>
      <trkpt lat="46.1956" lon="5.82693">
        <ele>659.8</ele>
        <time>2026-05-13T02:34:56Z</time>
      </trkpt>
      <trkpt lat="46.19552" lon="5.82736">
        <ele>659.8</ele>
        <time>2026-05-13T02:35:03Z</time>
      </trkpt>
      <trkpt lat="46.1955" lon="5.82748">
        <ele>659.8</ele>
        <time>2026-05-13T02:35:05Z</time>
      </trkpt>
      <trkpt lat="46.19549" lon="5.82763">
        <ele>659.8</ele>
        <time>2026-05-13T02:35:07Z</time>
      </trkpt>
      <trkpt lat="46.19541" lon="5.82792">
        <ele>660</ele>
        <time>2026-05-13T02:35:12Z</time>
      </trkpt>
      <trkpt lat="46.19537" lon="5.82803">
        <ele>660.2</ele>
        <time>2026-05-13T02:35:14Z</time>
      </trkpt>
      <trkpt lat="46.19533" lon="5.82813">
        <ele>660.6</ele>
        <time>2026-05-13T02:35:16Z</time>
      </trkpt>
      <trkpt lat="46.19527" lon="5.82825">
        <ele>661</ele>
        <time>2026-05-13T02:35:19Z</time>
      </trkpt>
      <trkpt lat="46.1952" lon="5.82836">
        <ele>661.8</ele>
        <time>2026-05-13T02:35:22Z</time>
      </trkpt>
      <trkpt lat="46.19516" lon="5.82841">
        <ele>662</ele>
        <time>2026-05-13T02:35:24Z</time>
      </trkpt>
      <trkpt lat="46.19508" lon="5.82855">
        <ele>662.8</ele>
        <time>2026-05-13T02:35:28Z</time>
      </trkpt>
      <trkpt lat="46.19501" lon="5.82865">
        <ele>663.2</ele>
        <time>2026-05-13T02:35:31Z</time>
      </trkpt>
      <trkpt lat="46.19496" lon="5.82871">
        <ele>663.8</ele>
        <time>2026-05-13T02:35:33Z</time>
      </trkpt>
      <trkpt lat="46.19486" lon="5.82876">
        <ele>664.2</ele>
        <time>2026-05-13T02:35:36Z</time>
      </trkpt>
      <trkpt lat="46.1947" lon="5.82882">
        <ele>664.6</ele>
        <time>2026-05-13T02:35:41Z</time>
      </trkpt>
      <trkpt lat="46.19459" lon="5.82882">
        <ele>665.2</ele>
        <time>2026-05-13T02:35:44Z</time>
      </trkpt>
      <trkpt lat="46.19443" lon="5.82885">
        <ele>665.6</ele>
        <time>2026-05-13T02:35:49Z</time>
      </trkpt>
      <trkpt lat="46.1944" lon="5.82887">
        <ele>665.8</ele>
        <time>2026-05-13T02:35:50Z</time>
      </trkpt>
      <trkpt lat="46.19424" lon="5.82905">
        <ele>666.6</ele>
        <time>2026-05-13T02:35:56Z</time>
      </trkpt>
      <trkpt lat="46.19422" lon="5.82908">
        <ele>666.8</ele>
        <time>2026-05-13T02:35:57Z</time>
      </trkpt>
      <trkpt lat="46.19411" lon="5.82934">
        <ele>667.8</ele>
        <time>2026-05-13T02:36:04Z</time>
      </trkpt>
      <trkpt lat="46.19411" lon="5.82939">
        <ele>668.2</ele>
        <time>2026-05-13T02:36:05Z</time>
      </trkpt>
      <trkpt lat="46.19415" lon="5.82952">
        <ele>668.6</ele>
        <time>2026-05-13T02:36:08Z</time>
      </trkpt>
      <trkpt lat="46.19423" lon="5.82962">
        <ele>669.2</ele>
        <time>2026-05-13T02:36:11Z</time>
      </trkpt>
      <trkpt lat="46.1943" lon="5.82966">
        <ele>669.2</ele>
        <time>2026-05-13T02:36:13Z</time>
      </trkpt>
      <trkpt lat="46.19456" lon="5.82974">
        <ele>669.2</ele>
        <time>2026-05-13T02:36:20Z</time>
      </trkpt>
      <trkpt lat="46.19483" lon="5.82984">
        <ele>669</ele>
        <time>2026-05-13T02:36:27Z</time>
      </trkpt>
      <trkpt lat="46.19513" lon="5.82991">
        <ele>669.2</ele>
        <time>2026-05-13T02:36:34Z</time>
      </trkpt>
      <trkpt lat="46.19518" lon="5.82993">
        <ele>669.4</ele>
        <time>2026-05-13T02:36:35Z</time>
      </trkpt>
      <trkpt lat="46.19531" lon="5.83001">
        <ele>669.4</ele>
        <time>2026-05-13T02:36:38Z</time>
      </trkpt>
      <trkpt lat="46.19534" lon="5.83005">
        <ele>669.4</ele>
        <time>2026-05-13T02:36:39Z</time>
      </trkpt>
      <trkpt lat="46.19536" lon="5.8301">
        <ele>669.6</ele>
        <time>2026-05-13T02:36:40Z</time>
      </trkpt>
      <trkpt lat="46.19538" lon="5.83022">
        <ele>669.6</ele>
        <time>2026-05-13T02:36:42Z</time>
      </trkpt>
      <trkpt lat="46.19537" lon="5.83027">
        <ele>669.8</ele>
        <time>2026-05-13T02:36:43Z</time>
      </trkpt>
      <trkpt lat="46.19535" lon="5.83033">
        <ele>669.8</ele>
        <time>2026-05-13T02:36:44Z</time>
      </trkpt>
      <trkpt lat="46.19527" lon="5.83043">
        <ele>670</ele>
        <time>2026-05-13T02:36:46Z</time>
      </trkpt>
      <trkpt lat="46.1952" lon="5.83052">
        <ele>670.2</ele>
        <time>2026-05-13T02:36:48Z</time>
      </trkpt>
      <trkpt lat="46.19511" lon="5.83065">
        <ele>670.4</ele>
        <time>2026-05-13T02:36:51Z</time>
      </trkpt>
      <trkpt lat="46.19509" lon="5.8307">
        <ele>670.6</ele>
        <time>2026-05-13T02:36:52Z</time>
      </trkpt>
      <trkpt lat="46.19507" lon="5.83082">
        <ele>670.8</ele>
        <time>2026-05-13T02:36:54Z</time>
      </trkpt>
      <trkpt lat="46.19506" lon="5.83088">
        <ele>670.8</ele>
        <time>2026-05-13T02:36:55Z</time>
      </trkpt>
      <trkpt lat="46.19507" lon="5.83093">
        <ele>671</ele>
        <time>2026-05-13T02:36:56Z</time>
      </trkpt>
      <trkpt lat="46.19509" lon="5.83104">
        <ele>671.2</ele>
        <time>2026-05-13T02:36:58Z</time>
      </trkpt>
      <trkpt lat="46.19512" lon="5.83113">
        <ele>671.6</ele>
        <time>2026-05-13T02:37:00Z</time>
      </trkpt>
      <trkpt lat="46.19527" lon="5.83131">
        <ele>672.2</ele>
        <time>2026-05-13T02:37:05Z</time>
      </trkpt>
      <trkpt lat="46.19531" lon="5.83133">
        <ele>672.4</ele>
        <time>2026-05-13T02:37:06Z</time>
      </trkpt>
      <trkpt lat="46.19547" lon="5.83141">
        <ele>672.6</ele>
        <time>2026-05-13T02:37:10Z</time>
      </trkpt>
      <trkpt lat="46.19567" lon="5.8315">
        <ele>673.2</ele>
        <time>2026-05-13T02:37:15Z</time>
      </trkpt>
      <trkpt lat="46.19574" lon="5.83159">
        <ele>673.4</ele>
        <time>2026-05-13T02:37:17Z</time>
      </trkpt>
      <trkpt lat="46.19576" lon="5.8317">
        <ele>673.4</ele>
        <time>2026-05-13T02:37:19Z</time>
      </trkpt>
      <trkpt lat="46.1958" lon="5.83188">
        <ele>673.6</ele>
        <time>2026-05-13T02:37:22Z</time>
      </trkpt>
      <trkpt lat="46.19586" lon="5.83233">
        <ele>674</ele>
        <time>2026-05-13T02:37:29Z</time>
      </trkpt>
      <trkpt lat="46.19585" lon="5.83239">
        <ele>674.2</ele>
        <time>2026-05-13T02:37:30Z</time>
      </trkpt>
      <trkpt lat="46.19584" lon="5.83246">
        <ele>674.2</ele>
        <time>2026-05-13T02:37:31Z</time>
      </trkpt>
      <trkpt lat="46.19574" lon="5.83273">
        <ele>674.4</ele>
        <time>2026-05-13T02:37:36Z</time>
      </trkpt>
      <trkpt lat="46.19571" lon="5.83277">
        <ele>674.4</ele>
        <time>2026-05-13T02:37:37Z</time>
      </trkpt>
      <trkpt lat="46.19566" lon="5.83287">
        <ele>674.6</ele>
        <time>2026-05-13T02:37:39Z</time>
      </trkpt>
      <trkpt lat="46.19561" lon="5.83302">
        <ele>675</ele>
        <time>2026-05-13T02:37:42Z</time>
      </trkpt>
      <trkpt lat="46.19557" lon="5.83325">
        <ele>675.6</ele>
        <time>2026-05-13T02:37:46Z</time>
      </trkpt>
      <trkpt lat="46.19554" lon="5.83336">
        <ele>676</ele>
        <time>2026-05-13T02:37:48Z</time>
      </trkpt>
      <trkpt lat="46.19552" lon="5.83382">
        <ele>676.6</ele>
        <time>2026-05-13T02:37:56Z</time>
      </trkpt>
      <trkpt lat="46.19555" lon="5.83393">
        <ele>676.8</ele>
        <time>2026-05-13T02:37:58Z</time>
      </trkpt>
      <trkpt lat="46.19562" lon="5.83404">
        <ele>676.8</ele>
        <time>2026-05-13T02:38:00Z</time>
      </trkpt>
      <trkpt lat="46.19579" lon="5.83426">
        <ele>677</ele>
        <time>2026-05-13T02:38:04Z</time>
      </trkpt>
      <trkpt lat="46.19588" lon="5.83441">
        <ele>676.6</ele>
        <time>2026-05-13T02:38:06Z</time>
      </trkpt>
      <trkpt lat="46.19602" lon="5.8348">
        <ele>675.6</ele>
        <time>2026-05-13T02:38:11Z</time>
      </trkpt>
      <trkpt lat="46.1961" lon="5.83493">
        <ele>675.4</ele>
        <time>2026-05-13T02:38:13Z</time>
      </trkpt>
      <trkpt lat="46.1962" lon="5.83501">
        <ele>675</ele>
        <time>2026-05-13T02:38:15Z</time>
      </trkpt>
      <trkpt lat="46.19647" lon="5.8352">
        <ele>674.6</ele>
        <time>2026-05-13T02:38:19Z</time>
      </trkpt>
      <trkpt lat="46.19653" lon="5.83527">
        <ele>674</ele>
        <time>2026-05-13T02:38:20Z</time>
      </trkpt>
      <trkpt lat="46.19659" lon="5.83533">
        <ele>673.4</ele>
        <time>2026-05-13T02:38:21Z</time>
      </trkpt>
      <trkpt lat="46.19685" lon="5.83559">
        <ele>672</ele>
        <time>2026-05-13T02:38:25Z</time>
      </trkpt>
      <trkpt lat="46.19696" lon="5.83571">
        <ele>671.4</ele>
        <time>2026-05-13T02:38:27Z</time>
      </trkpt>
      <trkpt lat="46.19702" lon="5.83578">
        <ele>670.6</ele>
        <time>2026-05-13T02:38:28Z</time>
      </trkpt>
      <trkpt lat="46.19721" lon="5.83595">
        <ele>669.2</ele>
        <time>2026-05-13T02:38:31Z</time>
      </trkpt>
      <trkpt lat="46.19739" lon="5.83613">
        <ele>668.8</ele>
        <time>2026-05-13T02:38:34Z</time>
      </trkpt>
      <trkpt lat="46.19746" lon="5.8362">
        <ele>668.6</ele>
        <time>2026-05-13T02:38:35Z</time>
      </trkpt>
      <trkpt lat="46.19758" lon="5.83641">
        <ele>668.2</ele>
        <time>2026-05-13T02:38:38Z</time>
      </trkpt>
      <trkpt lat="46.19782" lon="5.83672">
        <ele>668</ele>
        <time>2026-05-13T02:38:43Z</time>
      </trkpt>
      <trkpt lat="46.19787" lon="5.83676">
        <ele>668</ele>
        <time>2026-05-13T02:38:44Z</time>
      </trkpt>
      <trkpt lat="46.19802" lon="5.8369">
        <ele>668</ele>
        <time>2026-05-13T02:38:47Z</time>
      </trkpt>
      <trkpt lat="46.19834" lon="5.83718">
        <ele>668.2</ele>
        <time>2026-05-13T02:38:53Z</time>
      </trkpt>
      <trkpt lat="46.19845" lon="5.83727">
        <ele>668</ele>
        <time>2026-05-13T02:38:55Z</time>
      </trkpt>
      <trkpt lat="46.19858" lon="5.83734">
        <ele>667.8</ele>
        <time>2026-05-13T02:38:57Z</time>
      </trkpt>
      <trkpt lat="46.19877" lon="5.83739">
        <ele>667.4</ele>
        <time>2026-05-13T02:39:00Z</time>
      </trkpt>
      <trkpt lat="46.19885" lon="5.83742">
        <ele>667.2</ele>
        <time>2026-05-13T02:39:01Z</time>
      </trkpt>
      <trkpt lat="46.19899" lon="5.8375">
        <ele>666.4</ele>
        <time>2026-05-13T02:39:03Z</time>
      </trkpt>
      <trkpt lat="46.19905" lon="5.83756">
        <ele>666.4</ele>
        <time>2026-05-13T02:39:04Z</time>
      </trkpt>
      <trkpt lat="46.1991" lon="5.83763">
        <ele>666</ele>
        <time>2026-05-13T02:39:05Z</time>
      </trkpt>
      <trkpt lat="46.19916" lon="5.83769">
        <ele>665.6</ele>
        <time>2026-05-13T02:39:06Z</time>
      </trkpt>
      <trkpt lat="46.19922" lon="5.83775">
        <ele>665.4</ele>
        <time>2026-05-13T02:39:07Z</time>
      </trkpt>
      <trkpt lat="46.19929" lon="5.83779">
        <ele>665</ele>
        <time>2026-05-13T02:39:08Z</time>
      </trkpt>
      <trkpt lat="46.19943" lon="5.83789">
        <ele>664.4</ele>
        <time>2026-05-13T02:39:10Z</time>
      </trkpt>
      <trkpt lat="46.1995" lon="5.83793">
        <ele>663.8</ele>
        <time>2026-05-13T02:39:11Z</time>
      </trkpt>
      <trkpt lat="46.1998" lon="5.83807">
        <ele>662.4</ele>
        <time>2026-05-13T02:39:15Z</time>
      </trkpt>
      <trkpt lat="46.19987" lon="5.83811">
        <ele>661.8</ele>
        <time>2026-05-13T02:39:16Z</time>
      </trkpt>
      <trkpt lat="46.20001" lon="5.83822">
        <ele>661.2</ele>
        <time>2026-05-13T02:39:18Z</time>
      </trkpt>
      <trkpt lat="46.20014" lon="5.83836">
        <ele>660.4</ele>
        <time>2026-05-13T02:39:20Z</time>
      </trkpt>
      <trkpt lat="46.20026" lon="5.83851">
        <ele>660</ele>
        <time>2026-05-13T02:39:22Z</time>
      </trkpt>
      <trkpt lat="46.20033" lon="5.83857">
        <ele>659.6</ele>
        <time>2026-05-13T02:39:23Z</time>
      </trkpt>
      <trkpt lat="46.2004" lon="5.83862">
        <ele>659.2</ele>
        <time>2026-05-13T02:39:24Z</time>
      </trkpt>
      <trkpt lat="46.20047" lon="5.83866">
        <ele>658.8</ele>
        <time>2026-05-13T02:39:25Z</time>
      </trkpt>
      <trkpt lat="46.2007" lon="5.83875">
        <ele>657.6</ele>
        <time>2026-05-13T02:39:28Z</time>
      </trkpt>
      <trkpt lat="46.20077" lon="5.83877">
        <ele>657.4</ele>
        <time>2026-05-13T02:39:29Z</time>
      </trkpt>
      <trkpt lat="46.20089" lon="5.83879">
        <ele>656.2</ele>
        <time>2026-05-13T02:39:31Z</time>
      </trkpt>
      <trkpt lat="46.20095" lon="5.83878">
        <ele>656</ele>
        <time>2026-05-13T02:39:32Z</time>
      </trkpt>
      <trkpt lat="46.20097" lon="5.83873">
        <ele>655.8</ele>
        <time>2026-05-13T02:39:33Z</time>
      </trkpt>
      <trkpt lat="46.20099" lon="5.83866">
        <ele>654.8</ele>
        <time>2026-05-13T02:39:35Z</time>
      </trkpt>
      <trkpt lat="46.20093" lon="5.83858">
        <ele>653.8</ele>
        <time>2026-05-13T02:39:37Z</time>
      </trkpt>
      <trkpt lat="46.20088" lon="5.8386">
        <ele>653.2</ele>
        <time>2026-05-13T02:39:38Z</time>
      </trkpt>
      <trkpt lat="46.20077" lon="5.83869">
        <ele>653</ele>
        <time>2026-05-13T02:39:39Z</time>
      </trkpt>
      <trkpt lat="46.20067" lon="5.83875">
        <ele>652.6</ele>
        <time>2026-05-13T02:39:40Z</time>
      </trkpt>
      <trkpt lat="46.20057" lon="5.8388">
        <ele>652</ele>
        <time>2026-05-13T02:39:41Z</time>
      </trkpt>
      <trkpt lat="46.20047" lon="5.83885">
        <ele>651.6</ele>
        <time>2026-05-13T02:39:42Z</time>
      </trkpt>
      <trkpt lat="46.20037" lon="5.83893">
        <ele>651</ele>
        <time>2026-05-13T02:39:43Z</time>
      </trkpt>
      <trkpt lat="46.20019" lon="5.83894">
        <ele>650.6</ele>
        <time>2026-05-13T02:39:45Z</time>
      </trkpt>
      <trkpt lat="46.2001" lon="5.83895">
        <ele>650.4</ele>
        <time>2026-05-13T02:39:46Z</time>
      </trkpt>
      <trkpt lat="46.19995" lon="5.83903">
        <ele>650</ele>
        <time>2026-05-13T02:39:48Z</time>
      </trkpt>
      <trkpt lat="46.19987" lon="5.8391">
        <ele>649.8</ele>
        <time>2026-05-13T02:39:49Z</time>
      </trkpt>
      <trkpt lat="46.1998" lon="5.83917">
        <ele>649.2</ele>
        <time>2026-05-13T02:39:50Z</time>
      </trkpt>
      <trkpt lat="46.19968" lon="5.83936">
        <ele>648.4</ele>
        <time>2026-05-13T02:39:52Z</time>
      </trkpt>
      <trkpt lat="46.19964" lon="5.83948">
        <ele>648.2</ele>
        <time>2026-05-13T02:39:53Z</time>
      </trkpt>
      <trkpt lat="46.19955" lon="5.83974">
        <ele>647.4</ele>
        <time>2026-05-13T02:39:55Z</time>
      </trkpt>
      <trkpt lat="46.19947" lon="5.83987">
        <ele>646.8</ele>
        <time>2026-05-13T02:39:56Z</time>
      </trkpt>
      <trkpt lat="46.19937" lon="5.84">
        <ele>646.6</ele>
        <time>2026-05-13T02:39:57Z</time>
      </trkpt>
      <trkpt lat="46.19931" lon="5.84009">
        <ele>646.2</ele>
        <time>2026-05-13T02:39:58Z</time>
      </trkpt>
      <trkpt lat="46.19927" lon="5.84017">
        <ele>645.8</ele>
        <time>2026-05-13T02:39:59Z</time>
      </trkpt>
      <trkpt lat="46.19923" lon="5.84027">
        <ele>645.2</ele>
        <time>2026-05-13T02:40:00Z</time>
      </trkpt>
      <trkpt lat="46.19921" lon="5.84035">
        <ele>644.8</ele>
        <time>2026-05-13T02:40:01Z</time>
      </trkpt>
      <trkpt lat="46.19919" lon="5.84047">
        <ele>644.2</ele>
        <time>2026-05-13T02:40:02Z</time>
      </trkpt>
      <trkpt lat="46.19919" lon="5.84058">
        <ele>643.6</ele>
        <time>2026-05-13T02:40:03Z</time>
      </trkpt>
      <trkpt lat="46.19921" lon="5.84067">
        <ele>643.4</ele>
        <time>2026-05-13T02:40:04Z</time>
      </trkpt>
      <trkpt lat="46.19923" lon="5.84078">
        <ele>643</ele>
        <time>2026-05-13T02:40:05Z</time>
      </trkpt>
      <trkpt lat="46.1993" lon="5.84115">
        <ele>642.2</ele>
        <time>2026-05-13T02:40:08Z</time>
      </trkpt>
      <trkpt lat="46.19932" lon="5.84123">
        <ele>642</ele>
        <time>2026-05-13T02:40:09Z</time>
      </trkpt>
      <trkpt lat="46.19939" lon="5.84146">
        <ele>640.8</ele>
        <time>2026-05-13T02:40:11Z</time>
      </trkpt>
      <trkpt lat="46.19947" lon="5.8418">
        <ele>640</ele>
        <time>2026-05-13T02:40:14Z</time>
      </trkpt>
      <trkpt lat="46.19948" lon="5.84192">
        <ele>639.4</ele>
        <time>2026-05-13T02:40:15Z</time>
      </trkpt>
      <trkpt lat="46.19948" lon="5.84204">
        <ele>639.2</ele>
        <time>2026-05-13T02:40:16Z</time>
      </trkpt>
      <trkpt lat="46.19945" lon="5.84228">
        <ele>638.4</ele>
        <time>2026-05-13T02:40:18Z</time>
      </trkpt>
      <trkpt lat="46.19941" lon="5.8424">
        <ele>638.2</ele>
        <time>2026-05-13T02:40:19Z</time>
      </trkpt>
      <trkpt lat="46.19938" lon="5.84261">
        <ele>637</ele>
        <time>2026-05-13T02:40:21Z</time>
      </trkpt>
      <trkpt lat="46.19939" lon="5.84285">
        <ele>636.4</ele>
        <time>2026-05-13T02:40:23Z</time>
      </trkpt>
      <trkpt lat="46.19943" lon="5.84306">
        <ele>635.8</ele>
        <time>2026-05-13T02:40:25Z</time>
      </trkpt>
      <trkpt lat="46.19949" lon="5.84329">
        <ele>635.2</ele>
        <time>2026-05-13T02:40:27Z</time>
      </trkpt>
      <trkpt lat="46.19955" lon="5.84351">
        <ele>634.6</ele>
        <time>2026-05-13T02:40:29Z</time>
      </trkpt>
      <trkpt lat="46.19962" lon="5.84372">
        <ele>633.4</ele>
        <time>2026-05-13T02:40:31Z</time>
      </trkpt>
      <trkpt lat="46.19978" lon="5.84415">
        <ele>632.2</ele>
        <time>2026-05-13T02:40:35Z</time>
      </trkpt>
      <trkpt lat="46.19991" lon="5.8445">
        <ele>630.8</ele>
        <time>2026-05-13T02:40:38Z</time>
      </trkpt>
      <trkpt lat="46.20002" lon="5.8448">
        <ele>629.4</ele>
        <time>2026-05-13T02:40:41Z</time>
      </trkpt>
      <trkpt lat="46.20013" lon="5.84516">
        <ele>628.6</ele>
        <time>2026-05-13T02:40:44Z</time>
      </trkpt>
      <trkpt lat="46.20017" lon="5.84528">
        <ele>628.2</ele>
        <time>2026-05-13T02:40:45Z</time>
      </trkpt>
      <trkpt lat="46.20026" lon="5.84562">
        <ele>626.6</ele>
        <time>2026-05-13T02:40:48Z</time>
      </trkpt>
      <trkpt lat="46.20033" lon="5.84598">
        <ele>625.4</ele>
        <time>2026-05-13T02:40:51Z</time>
      </trkpt>
      <trkpt lat="46.20035" lon="5.84611">
        <ele>625.2</ele>
        <time>2026-05-13T02:40:52Z</time>
      </trkpt>
      <trkpt lat="46.20036" lon="5.84623">
        <ele>624.6</ele>
        <time>2026-05-13T02:40:53Z</time>
      </trkpt>
      <trkpt lat="46.20036" lon="5.84636">
        <ele>624.2</ele>
        <time>2026-05-13T02:40:54Z</time>
      </trkpt>
      <trkpt lat="46.20036" lon="5.84661">
        <ele>623.2</ele>
        <time>2026-05-13T02:40:56Z</time>
      </trkpt>
      <trkpt lat="46.20036" lon="5.84672">
        <ele>622.8</ele>
        <time>2026-05-13T02:40:57Z</time>
      </trkpt>
      <trkpt lat="46.20037" lon="5.84695">
        <ele>622</ele>
        <time>2026-05-13T02:40:59Z</time>
      </trkpt>
      <trkpt lat="46.20038" lon="5.84705">
        <ele>621.6</ele>
        <time>2026-05-13T02:41:00Z</time>
      </trkpt>
      <trkpt lat="46.20049" lon="5.84751">
        <ele>620.4</ele>
        <time>2026-05-13T02:41:04Z</time>
      </trkpt>
      <trkpt lat="46.20052" lon="5.84762">
        <ele>619.8</ele>
        <time>2026-05-13T02:41:05Z</time>
      </trkpt>
      <trkpt lat="46.20055" lon="5.84774">
        <ele>619.4</ele>
        <time>2026-05-13T02:41:06Z</time>
      </trkpt>
      <trkpt lat="46.20064" lon="5.84808">
        <ele>618.2</ele>
        <time>2026-05-13T02:41:09Z</time>
      </trkpt>
      <trkpt lat="46.20072" lon="5.84842">
        <ele>617</ele>
        <time>2026-05-13T02:41:12Z</time>
      </trkpt>
      <trkpt lat="46.20074" lon="5.84853">
        <ele>616.6</ele>
        <time>2026-05-13T02:41:13Z</time>
      </trkpt>
      <trkpt lat="46.2008" lon="5.84887">
        <ele>615.8</ele>
        <time>2026-05-13T02:41:16Z</time>
      </trkpt>
      <trkpt lat="46.20083" lon="5.84898">
        <ele>615.4</ele>
        <time>2026-05-13T02:41:17Z</time>
      </trkpt>
      <trkpt lat="46.20087" lon="5.84908">
        <ele>615</ele>
        <time>2026-05-13T02:41:18Z</time>
      </trkpt>
      <trkpt lat="46.20093" lon="5.84917">
        <ele>614.6</ele>
        <time>2026-05-13T02:41:19Z</time>
      </trkpt>
      <trkpt lat="46.20115" lon="5.84952">
        <ele>613.2</ele>
        <time>2026-05-13T02:41:23Z</time>
      </trkpt>
      <trkpt lat="46.2013" lon="5.84979">
        <ele>612</ele>
        <time>2026-05-13T02:41:26Z</time>
      </trkpt>
      <trkpt lat="46.20144" lon="5.85009">
        <ele>611</ele>
        <time>2026-05-13T02:41:29Z</time>
      </trkpt>
      <trkpt lat="46.2016" lon="5.85038">
        <ele>609.8</ele>
        <time>2026-05-13T02:41:32Z</time>
      </trkpt>
      <trkpt lat="46.20166" lon="5.85047">
        <ele>609.2</ele>
        <time>2026-05-13T02:41:33Z</time>
      </trkpt>
      <trkpt lat="46.20172" lon="5.85055">
        <ele>609</ele>
        <time>2026-05-13T02:41:34Z</time>
      </trkpt>
      <trkpt lat="46.20178" lon="5.85063">
        <ele>608.6</ele>
        <time>2026-05-13T02:41:35Z</time>
      </trkpt>
      <trkpt lat="46.20196" lon="5.85089">
        <ele>607.4</ele>
        <time>2026-05-13T02:41:38Z</time>
      </trkpt>
      <trkpt lat="46.20201" lon="5.85099">
        <ele>607.4</ele>
        <time>2026-05-13T02:41:39Z</time>
      </trkpt>
      <trkpt lat="46.20206" lon="5.85108">
        <ele>607</ele>
        <time>2026-05-13T02:41:40Z</time>
      </trkpt>
      <trkpt lat="46.20211" lon="5.85118">
        <ele>606.2</ele>
        <time>2026-05-13T02:41:41Z</time>
      </trkpt>
      <trkpt lat="46.20225" lon="5.85146">
        <ele>604.8</ele>
        <time>2026-05-13T02:41:44Z</time>
      </trkpt>
      <trkpt lat="46.20244" lon="5.85186">
        <ele>603.6</ele>
        <time>2026-05-13T02:41:48Z</time>
      </trkpt>
      <trkpt lat="46.20261" lon="5.85214">
        <ele>602.4</ele>
        <time>2026-05-13T02:41:51Z</time>
      </trkpt>
      <trkpt lat="46.2028" lon="5.8524">
        <ele>601.2</ele>
        <time>2026-05-13T02:41:54Z</time>
      </trkpt>
      <trkpt lat="46.20286" lon="5.85247">
        <ele>600.4</ele>
        <time>2026-05-13T02:41:55Z</time>
      </trkpt>
      <trkpt lat="46.20293" lon="5.85255">
        <ele>599.8</ele>
        <time>2026-05-13T02:41:56Z</time>
      </trkpt>
      <trkpt lat="46.20321" lon="5.85288">
        <ele>598.4</ele>
        <time>2026-05-13T02:42:00Z</time>
      </trkpt>
      <trkpt lat="46.20327" lon="5.85297">
        <ele>597.4</ele>
        <time>2026-05-13T02:42:01Z</time>
      </trkpt>
      <trkpt lat="46.20333" lon="5.85307">
        <ele>597</ele>
        <time>2026-05-13T02:42:02Z</time>
      </trkpt>
      <trkpt lat="46.20343" lon="5.85328">
        <ele>595.6</ele>
        <time>2026-05-13T02:42:04Z</time>
      </trkpt>
      <trkpt lat="46.2035" lon="5.85349">
        <ele>594.2</ele>
        <time>2026-05-13T02:42:06Z</time>
      </trkpt>
      <trkpt lat="46.20362" lon="5.85376">
        <ele>593</ele>
        <time>2026-05-13T02:42:09Z</time>
      </trkpt>
      <trkpt lat="46.20372" lon="5.85393">
        <ele>592</ele>
        <time>2026-05-13T02:42:11Z</time>
      </trkpt>
      <trkpt lat="46.20377" lon="5.854">
        <ele>591.8</ele>
        <time>2026-05-13T02:42:12Z</time>
      </trkpt>
      <trkpt lat="46.20383" lon="5.85405">
        <ele>591.6</ele>
        <time>2026-05-13T02:42:13Z</time>
      </trkpt>
      <trkpt lat="46.2039" lon="5.8541">
        <ele>591.4</ele>
        <time>2026-05-13T02:42:14Z</time>
      </trkpt>
      <trkpt lat="46.20403" lon="5.85417">
        <ele>591</ele>
        <time>2026-05-13T02:42:16Z</time>
      </trkpt>
      <trkpt lat="46.2041" lon="5.85423">
        <ele>590.6</ele>
        <time>2026-05-13T02:42:17Z</time>
      </trkpt>
      <trkpt lat="46.20415" lon="5.8543">
        <ele>590.2</ele>
        <time>2026-05-13T02:42:18Z</time>
      </trkpt>
      <trkpt lat="46.20426" lon="5.85444">
        <ele>589.6</ele>
        <time>2026-05-13T02:42:20Z</time>
      </trkpt>
      <trkpt lat="46.20442" lon="5.85466">
        <ele>589</ele>
        <time>2026-05-13T02:42:23Z</time>
      </trkpt>
      <trkpt lat="46.20456" lon="5.85488">
        <ele>588.6</ele>
        <time>2026-05-13T02:42:26Z</time>
      </trkpt>
      <trkpt lat="46.2047" lon="5.85509">
        <ele>588.2</ele>
        <time>2026-05-13T02:42:29Z</time>
      </trkpt>
      <trkpt lat="46.20474" lon="5.85515">
        <ele>588.2</ele>
        <time>2026-05-13T02:42:30Z</time>
      </trkpt>
      <trkpt lat="46.20508" lon="5.85551">
        <ele>588</ele>
        <time>2026-05-13T02:42:37Z</time>
      </trkpt>
      <trkpt lat="46.20555" lon="5.85588">
        <ele>587.6</ele>
        <time>2026-05-13T02:42:46Z</time>
      </trkpt>
      <trkpt lat="46.20567" lon="5.85594">
        <ele>587.4</ele>
        <time>2026-05-13T02:42:48Z</time>
      </trkpt>
      <trkpt lat="46.20587" lon="5.85606">
        <ele>587.2</ele>
        <time>2026-05-13T02:42:52Z</time>
      </trkpt>
      <trkpt lat="46.20598" lon="5.85609">
        <ele>587.2</ele>
        <time>2026-05-13T02:42:54Z</time>
      </trkpt>
      <trkpt lat="46.20607" lon="5.85613">
        <ele>587.2</ele>
        <time>2026-05-13T02:42:56Z</time>
      </trkpt>
      <trkpt lat="46.20612" lon="5.85614">
        <ele>587.2</ele>
        <time>2026-05-13T02:42:57Z</time>
      </trkpt>
      <trkpt lat="46.20632" lon="5.85614">
        <ele>587.4</ele>
        <time>2026-05-13T02:43:01Z</time>
      </trkpt>
      <trkpt lat="46.20642" lon="5.85613">
        <ele>587.6</ele>
        <time>2026-05-13T02:43:03Z</time>
      </trkpt>
      <trkpt lat="46.20652" lon="5.85612">
        <ele>587.6</ele>
        <time>2026-05-13T02:43:05Z</time>
      </trkpt>
      <trkpt lat="46.20664" lon="5.85612">
        <ele>587.6</ele>
        <time>2026-05-13T02:43:07Z</time>
      </trkpt>
      <trkpt lat="46.2068" lon="5.85613">
        <ele>587.6</ele>
        <time>2026-05-13T02:43:10Z</time>
      </trkpt>
      <trkpt lat="46.20714" lon="5.85613">
        <ele>587.6</ele>
        <time>2026-05-13T02:43:16Z</time>
      </trkpt>
      <trkpt lat="46.20725" lon="5.85614">
        <ele>587.6</ele>
        <time>2026-05-13T02:43:18Z</time>
      </trkpt>
      <trkpt lat="46.20745" lon="5.8562">
        <ele>587.6</ele>
        <time>2026-05-13T02:43:22Z</time>
      </trkpt>
      <trkpt lat="46.20757" lon="5.85624">
        <ele>587.6</ele>
        <time>2026-05-13T02:43:24Z</time>
      </trkpt>
      <trkpt lat="46.20772" lon="5.8563">
        <ele>587.6</ele>
        <time>2026-05-13T02:43:27Z</time>
      </trkpt>
      <trkpt lat="46.20776" lon="5.85633">
        <ele>587.6</ele>
        <time>2026-05-13T02:43:28Z</time>
      </trkpt>
      <trkpt lat="46.20806" lon="5.8565">
        <ele>588</ele>
        <time>2026-05-13T02:43:34Z</time>
      </trkpt>
      <trkpt lat="46.2084" lon="5.8566">
        <ele>588.4</ele>
        <time>2026-05-13T02:43:41Z</time>
      </trkpt>
      <trkpt lat="46.2085" lon="5.85662">
        <ele>588.4</ele>
        <time>2026-05-13T02:43:43Z</time>
      </trkpt>
      <trkpt lat="46.20878" lon="5.85672">
        <ele>588.6</ele>
        <time>2026-05-13T02:43:49Z</time>
      </trkpt>
      <trkpt lat="46.20883" lon="5.85675">
        <ele>588.6</ele>
        <time>2026-05-13T02:43:50Z</time>
      </trkpt>
      <trkpt lat="46.20896" lon="5.85682">
        <ele>589</ele>
        <time>2026-05-13T02:43:53Z</time>
      </trkpt>
      <trkpt lat="46.20901" lon="5.85685">
        <ele>589</ele>
        <time>2026-05-13T02:43:54Z</time>
      </trkpt>
      <trkpt lat="46.20921" lon="5.85703">
        <ele>589.4</ele>
        <time>2026-05-13T02:44:00Z</time>
      </trkpt>
      <trkpt lat="46.20942" lon="5.85715">
        <ele>590.4</ele>
        <time>2026-05-13T02:44:06Z</time>
      </trkpt>
      <trkpt lat="46.20949" lon="5.85719">
        <ele>590.6</ele>
        <time>2026-05-13T02:44:08Z</time>
      </trkpt>
      <trkpt lat="46.20969" lon="5.85732">
        <ele>591.2</ele>
        <time>2026-05-13T02:44:14Z</time>
      </trkpt>
      <trkpt lat="46.2098" lon="5.85744">
        <ele>591.6</ele>
        <time>2026-05-13T02:44:18Z</time>
      </trkpt>
      <trkpt lat="46.20987" lon="5.85752">
        <ele>592.2</ele>
        <time>2026-05-13T02:44:21Z</time>
      </trkpt>
      <trkpt lat="46.20996" lon="5.85765">
        <ele>592.8</ele>
        <time>2026-05-13T02:44:25Z</time>
      </trkpt>
      <trkpt lat="46.21007" lon="5.85778">
        <ele>593.6</ele>
        <time>2026-05-13T02:44:29Z</time>
      </trkpt>
      <trkpt lat="46.21008" lon="5.8578">
        <ele>594</ele>
        <time>2026-05-13T02:44:30Z</time>
      </trkpt>
      <trkpt lat="46.21019" lon="5.85792">
        <ele>595</ele>
        <time>2026-05-13T02:44:34Z</time>
      </trkpt>
      <trkpt lat="46.21038" lon="5.85803">
        <ele>596</ele>
        <time>2026-05-13T02:44:41Z</time>
      </trkpt>
      <trkpt lat="46.21045" lon="5.85805">
        <ele>596.2</ele>
        <time>2026-05-13T02:44:43Z</time>
      </trkpt>
      <trkpt lat="46.21062" lon="5.85805">
        <ele>596.8</ele>
        <time>2026-05-13T02:44:48Z</time>
      </trkpt>
      <trkpt lat="46.21074" lon="5.85801">
        <ele>597.2</ele>
        <time>2026-05-13T02:44:52Z</time>
      </trkpt>
      <trkpt lat="46.21084" lon="5.85798">
        <ele>597.4</ele>
        <time>2026-05-13T02:44:55Z</time>
      </trkpt>
      <trkpt lat="46.21117" lon="5.85791">
        <ele>598.2</ele>
        <time>2026-05-13T02:45:05Z</time>
      </trkpt>
      <trkpt lat="46.21139" lon="5.85792">
        <ele>598.8</ele>
        <time>2026-05-13T02:45:12Z</time>
      </trkpt>
      <trkpt lat="46.21154" lon="5.85793">
        <ele>599.4</ele>
        <time>2026-05-13T02:45:17Z</time>
      </trkpt>
      <trkpt lat="46.21163" lon="5.85792">
        <ele>599.8</ele>
        <time>2026-05-13T02:45:20Z</time>
      </trkpt>
      <trkpt lat="46.21177" lon="5.85793">
        <ele>600.6</ele>
        <time>2026-05-13T02:45:25Z</time>
      </trkpt>
      <trkpt lat="46.21197" lon="5.85792">
        <ele>601.2</ele>
        <time>2026-05-13T02:45:31Z</time>
      </trkpt>
      <trkpt lat="46.21212" lon="5.85791">
        <ele>601.6</ele>
        <time>2026-05-13T02:45:35Z</time>
      </trkpt>
      <trkpt lat="46.21227" lon="5.85792">
        <ele>601.8</ele>
        <time>2026-05-13T02:45:39Z</time>
      </trkpt>
      <trkpt lat="46.21239" lon="5.85794">
        <ele>602</ele>
        <time>2026-05-13T02:45:43Z</time>
      </trkpt>
      <trkpt lat="46.21263" lon="5.85801">
        <ele>602.2</ele>
        <time>2026-05-13T02:45:50Z</time>
      </trkpt>
      <trkpt lat="46.21283" lon="5.85809">
        <ele>602.6</ele>
        <time>2026-05-13T02:45:55Z</time>
      </trkpt>
      <trkpt lat="46.21295" lon="5.85817">
        <ele>602.8</ele>
        <time>2026-05-13T02:45:58Z</time>
      </trkpt>
      <trkpt lat="46.2133" lon="5.85836">
        <ele>603</ele>
        <time>2026-05-13T02:46:07Z</time>
      </trkpt>
      <trkpt lat="46.21371" lon="5.85847">
        <ele>603.4</ele>
        <time>2026-05-13T02:46:16Z</time>
      </trkpt>
      <trkpt lat="46.21407" lon="5.85852">
        <ele>603</ele>
        <time>2026-05-13T02:46:23Z</time>
      </trkpt>
      <trkpt lat="46.21417" lon="5.85852">
        <ele>602.8</ele>
        <time>2026-05-13T02:46:25Z</time>
      </trkpt>
      <trkpt lat="46.21439" lon="5.85846">
        <ele>602.4</ele>
        <time>2026-05-13T02:46:29Z</time>
      </trkpt>
      <trkpt lat="46.21465" lon="5.85829">
        <ele>601.8</ele>
        <time>2026-05-13T02:46:34Z</time>
      </trkpt>
      <trkpt lat="46.2147" lon="5.85826">
        <ele>601.8</ele>
        <time>2026-05-13T02:46:35Z</time>
      </trkpt>
      <trkpt lat="46.21474" lon="5.85822">
        <ele>601.8</ele>
        <time>2026-05-13T02:46:36Z</time>
      </trkpt>
      <trkpt lat="46.21482" lon="5.85815">
        <ele>601.4</ele>
        <time>2026-05-13T02:46:38Z</time>
      </trkpt>
      <trkpt lat="46.21487" lon="5.85811">
        <ele>601.4</ele>
        <time>2026-05-13T02:46:39Z</time>
      </trkpt>
      <trkpt lat="46.21525" lon="5.85784">
        <ele>600.6</ele>
        <time>2026-05-13T02:46:47Z</time>
      </trkpt>
      <trkpt lat="46.2153" lon="5.85781">
        <ele>600.4</ele>
        <time>2026-05-13T02:46:48Z</time>
      </trkpt>
      <trkpt lat="46.21541" lon="5.85775">
        <ele>600.4</ele>
        <time>2026-05-13T02:46:50Z</time>
      </trkpt>
      <trkpt lat="46.21552" lon="5.85773">
        <ele>600.2</ele>
        <time>2026-05-13T02:46:52Z</time>
      </trkpt>
      <trkpt lat="46.21558" lon="5.85773">
        <ele>600</ele>
        <time>2026-05-13T02:46:53Z</time>
      </trkpt>
      <trkpt lat="46.21573" lon="5.85778">
        <ele>600</ele>
        <time>2026-05-13T02:46:56Z</time>
      </trkpt>
      <trkpt lat="46.21581" lon="5.85785">
        <ele>600</ele>
        <time>2026-05-13T02:46:58Z</time>
      </trkpt>
      <trkpt lat="46.21592" lon="5.85797">
        <ele>600.2</ele>
        <time>2026-05-13T02:47:01Z</time>
      </trkpt>
      <trkpt lat="46.21598" lon="5.85805">
        <ele>600.4</ele>
        <time>2026-05-13T02:47:03Z</time>
      </trkpt>
      <trkpt lat="46.21615" lon="5.85827">
        <ele>601</ele>
        <time>2026-05-13T02:47:09Z</time>
      </trkpt>
      <trkpt lat="46.21621" lon="5.85832">
        <ele>601.4</ele>
        <time>2026-05-13T02:47:11Z</time>
      </trkpt>
      <trkpt lat="46.21624" lon="5.85837">
        <ele>601.6</ele>
        <time>2026-05-13T02:47:12Z</time>
      </trkpt>
      <trkpt lat="46.21648" lon="5.85872">
        <ele>602.6</ele>
        <time>2026-05-13T02:47:20Z</time>
      </trkpt>
      <trkpt lat="46.21654" lon="5.85881">
        <ele>602.8</ele>
        <time>2026-05-13T02:47:22Z</time>
      </trkpt>
      <trkpt lat="46.21675" lon="5.85913">
        <ele>603</ele>
        <time>2026-05-13T02:47:28Z</time>
      </trkpt>
      <trkpt lat="46.21701" lon="5.85953">
        <ele>602.4</ele>
        <time>2026-05-13T02:47:35Z</time>
      </trkpt>
      <trkpt lat="46.21729" lon="5.8601">
        <ele>601.6</ele>
        <time>2026-05-13T02:47:43Z</time>
      </trkpt>
      <trkpt lat="46.21764" lon="5.86082">
        <ele>600.4</ele>
        <time>2026-05-13T02:47:52Z</time>
      </trkpt>
      <trkpt lat="46.21788" lon="5.86122">
        <ele>599.4</ele>
        <time>2026-05-13T02:47:57Z</time>
      </trkpt>
      <trkpt lat="46.21793" lon="5.8613">
        <ele>599</ele>
        <time>2026-05-13T02:47:58Z</time>
      </trkpt>
      <trkpt lat="46.21804" lon="5.86147">
        <ele>598.4</ele>
        <time>2026-05-13T02:48:00Z</time>
      </trkpt>
      <trkpt lat="46.21809" lon="5.86156">
        <ele>598.2</ele>
        <time>2026-05-13T02:48:01Z</time>
      </trkpt>
      <trkpt lat="46.21831" lon="5.86191">
        <ele>597.2</ele>
        <time>2026-05-13T02:48:05Z</time>
      </trkpt>
      <trkpt lat="46.21854" lon="5.86224">
        <ele>596</ele>
        <time>2026-05-13T02:48:09Z</time>
      </trkpt>
      <trkpt lat="46.21867" lon="5.86242">
        <ele>595</ele>
        <time>2026-05-13T02:48:11Z</time>
      </trkpt>
      <trkpt lat="46.21885" lon="5.86267">
        <ele>593.8</ele>
        <time>2026-05-13T02:48:14Z</time>
      </trkpt>
      <trkpt lat="46.21905" lon="5.86292">
        <ele>592.6</ele>
        <time>2026-05-13T02:48:17Z</time>
      </trkpt>
      <trkpt lat="46.21912" lon="5.86301">
        <ele>592.2</ele>
        <time>2026-05-13T02:48:18Z</time>
      </trkpt>
      <trkpt lat="46.21925" lon="5.86316">
        <ele>591.4</ele>
        <time>2026-05-13T02:48:20Z</time>
      </trkpt>
      <trkpt lat="46.21948" lon="5.86338">
        <ele>590.4</ele>
        <time>2026-05-13T02:48:23Z</time>
      </trkpt>
      <trkpt lat="46.21956" lon="5.86345">
        <ele>590.2</ele>
        <time>2026-05-13T02:48:24Z</time>
      </trkpt>
      <trkpt lat="46.21971" lon="5.86357">
        <ele>588.8</ele>
        <time>2026-05-13T02:48:26Z</time>
      </trkpt>
      <trkpt lat="46.22002" lon="5.86381">
        <ele>587.6</ele>
        <time>2026-05-13T02:48:30Z</time>
      </trkpt>
      <trkpt lat="46.22026" lon="5.86399">
        <ele>586.6</ele>
        <time>2026-05-13T02:48:33Z</time>
      </trkpt>
      <trkpt lat="46.22049" lon="5.86418">
        <ele>585.2</ele>
        <time>2026-05-13T02:48:36Z</time>
      </trkpt>
      <trkpt lat="46.22064" lon="5.86432">
        <ele>584.4</ele>
        <time>2026-05-13T02:48:38Z</time>
      </trkpt>
      <trkpt lat="46.2207" lon="5.8644">
        <ele>584.2</ele>
        <time>2026-05-13T02:48:39Z</time>
      </trkpt>
      <trkpt lat="46.22089" lon="5.86465">
        <ele>583</ele>
        <time>2026-05-13T02:48:42Z</time>
      </trkpt>
      <trkpt lat="46.22105" lon="5.86493">
        <ele>581.8</ele>
        <time>2026-05-13T02:48:45Z</time>
      </trkpt>
      <trkpt lat="46.22124" lon="5.86518">
        <ele>580.8</ele>
        <time>2026-05-13T02:48:48Z</time>
      </trkpt>
      <trkpt lat="46.22136" lon="5.8653">
        <ele>580.2</ele>
        <time>2026-05-13T02:48:50Z</time>
      </trkpt>
      <trkpt lat="46.22149" lon="5.8654">
        <ele>579.8</ele>
        <time>2026-05-13T02:48:52Z</time>
      </trkpt>
      <trkpt lat="46.22166" lon="5.86552">
        <ele>579.6</ele>
        <time>2026-05-13T02:48:55Z</time>
      </trkpt>
      <trkpt lat="46.22175" lon="5.86559">
        <ele>579.6</ele>
        <time>2026-05-13T02:48:57Z</time>
      </trkpt>
      <trkpt lat="46.22182" lon="5.8657">
        <ele>579.6</ele>
        <time>2026-05-13T02:48:59Z</time>
      </trkpt>
      <trkpt lat="46.22187" lon="5.86597">
        <ele>580</ele>
        <time>2026-05-13T02:49:03Z</time>
      </trkpt>
      <trkpt lat="46.22189" lon="5.86604">
        <ele>580</ele>
        <time>2026-05-13T02:49:04Z</time>
      </trkpt>
      <trkpt lat="46.22192" lon="5.86612">
        <ele>580</ele>
        <time>2026-05-13T02:49:05Z</time>
      </trkpt>
      <trkpt lat="46.22211" lon="5.86645">
        <ele>579.8</ele>
        <time>2026-05-13T02:49:10Z</time>
      </trkpt>
      <trkpt lat="46.22231" lon="5.86678">
        <ele>579.4</ele>
        <time>2026-05-13T02:49:16Z</time>
      </trkpt>
      <trkpt lat="46.2225" lon="5.86713">
        <ele>579.8</ele>
        <time>2026-05-13T02:49:22Z</time>
      </trkpt>
      <trkpt lat="46.22252" lon="5.86719">
        <ele>579.8</ele>
        <time>2026-05-13T02:49:23Z</time>
      </trkpt>
      <trkpt lat="46.22267" lon="5.86747">
        <ele>580.4</ele>
        <time>2026-05-13T02:49:29Z</time>
      </trkpt>
      <trkpt lat="46.22272" lon="5.86755">
        <ele>580.6</ele>
        <time>2026-05-13T02:49:31Z</time>
      </trkpt>
      <trkpt lat="46.22275" lon="5.86758">
        <ele>580.8</ele>
        <time>2026-05-13T02:49:32Z</time>
      </trkpt>
      <trkpt lat="46.22281" lon="5.86764">
        <ele>581.2</ele>
        <time>2026-05-13T02:49:34Z</time>
      </trkpt>
      <trkpt lat="46.22292" lon="5.8678">
        <ele>582</ele>
        <time>2026-05-13T02:49:38Z</time>
      </trkpt>
      <trkpt lat="46.22295" lon="5.86784">
        <ele>582.2</ele>
        <time>2026-05-13T02:49:39Z</time>
      </trkpt>
      <trkpt lat="46.22315" lon="5.86819">
        <ele>582.8</ele>
        <time>2026-05-13T02:49:47Z</time>
      </trkpt>
      <trkpt lat="46.22318" lon="5.86823">
        <ele>583</ele>
        <time>2026-05-13T02:49:48Z</time>
      </trkpt>
      <trkpt lat="46.22338" lon="5.86854">
        <ele>583.4</ele>
        <time>2026-05-13T02:49:55Z</time>
      </trkpt>
      <trkpt lat="46.22361" lon="5.86895">
        <ele>583.8</ele>
        <time>2026-05-13T02:50:04Z</time>
      </trkpt>
      <trkpt lat="46.22366" lon="5.86909">
        <ele>584.2</ele>
        <time>2026-05-13T02:50:07Z</time>
      </trkpt>
      <trkpt lat="46.22372" lon="5.86928">
        <ele>584.8</ele>
        <time>2026-05-13T02:50:11Z</time>
      </trkpt>
      <trkpt lat="46.22375" lon="5.86942">
        <ele>585.2</ele>
        <time>2026-05-13T02:50:14Z</time>
      </trkpt>
      <trkpt lat="46.22378" lon="5.86963">
        <ele>585.6</ele>
        <time>2026-05-13T02:50:19Z</time>
      </trkpt>
      <trkpt lat="46.2238" lon="5.8698">
        <ele>586.2</ele>
        <time>2026-05-13T02:50:23Z</time>
      </trkpt>
      <trkpt lat="46.22382" lon="5.86988">
        <ele>586.4</ele>
        <time>2026-05-13T02:50:25Z</time>
      </trkpt>
      <trkpt lat="46.22389" lon="5.87006">
        <ele>587.4</ele>
        <time>2026-05-13T02:50:30Z</time>
      </trkpt>
      <trkpt lat="46.22392" lon="5.87013">
        <ele>587.8</ele>
        <time>2026-05-13T02:50:32Z</time>
      </trkpt>
      <trkpt lat="46.22398" lon="5.87036">
        <ele>588.4</ele>
        <time>2026-05-13T02:50:38Z</time>
      </trkpt>
      <trkpt lat="46.22399" lon="5.8704">
        <ele>588.6</ele>
        <time>2026-05-13T02:50:39Z</time>
      </trkpt>
      <trkpt lat="46.22401" lon="5.87059">
        <ele>589.4</ele>
        <time>2026-05-13T02:50:44Z</time>
      </trkpt>
      <trkpt lat="46.22403" lon="5.87069">
        <ele>590</ele>
        <time>2026-05-13T02:50:47Z</time>
      </trkpt>
      <trkpt lat="46.22405" lon="5.8708">
        <ele>590.6</ele>
        <time>2026-05-13T02:50:50Z</time>
      </trkpt>
      <trkpt lat="46.22408" lon="5.87098">
        <ele>591.4</ele>
        <time>2026-05-13T02:50:55Z</time>
      </trkpt>
      <trkpt lat="46.2241" lon="5.87105">
        <ele>592</ele>
        <time>2026-05-13T02:50:57Z</time>
      </trkpt>
      <trkpt lat="46.22415" lon="5.87125">
        <ele>593</ele>
        <time>2026-05-13T02:51:03Z</time>
      </trkpt>
      <trkpt lat="46.22416" lon="5.87128">
        <ele>593</ele>
        <time>2026-05-13T02:51:04Z</time>
      </trkpt>
      <trkpt lat="46.22423" lon="5.87141">
        <ele>594</ele>
        <time>2026-05-13T02:51:09Z</time>
      </trkpt>
      <trkpt lat="46.22425" lon="5.87143">
        <ele>594</ele>
        <time>2026-05-13T02:51:10Z</time>
      </trkpt>
      <trkpt lat="46.2243" lon="5.87152">
        <ele>595</ele>
        <time>2026-05-13T02:51:14Z</time>
      </trkpt>
      <trkpt lat="46.22431" lon="5.87154">
        <ele>595</ele>
        <time>2026-05-13T02:51:15Z</time>
      </trkpt>
      <trkpt lat="46.2244" lon="5.87168">
        <ele>596</ele>
        <time>2026-05-13T02:51:21Z</time>
      </trkpt>
      <trkpt lat="46.22441" lon="5.8717">
        <ele>596.2</ele>
        <time>2026-05-13T02:51:22Z</time>
      </trkpt>
      <trkpt lat="46.22451" lon="5.87183">
        <ele>596.8</ele>
        <time>2026-05-13T02:51:28Z</time>
      </trkpt>
      <trkpt lat="46.22453" lon="5.87185">
        <ele>597</ele>
        <time>2026-05-13T02:51:29Z</time>
      </trkpt>
      <trkpt lat="46.22455" lon="5.87187">
        <ele>597.2</ele>
        <time>2026-05-13T02:51:30Z</time>
      </trkpt>
      <trkpt lat="46.22461" lon="5.87197">
        <ele>597.6</ele>
        <time>2026-05-13T02:51:34Z</time>
      </trkpt>
      <trkpt lat="46.22466" lon="5.87207">
        <ele>598.2</ele>
        <time>2026-05-13T02:51:38Z</time>
      </trkpt>
      <trkpt lat="46.2247" lon="5.87216">
        <ele>598.8</ele>
        <time>2026-05-13T02:51:41Z</time>
      </trkpt>
      <trkpt lat="46.22474" lon="5.87226">
        <ele>599.4</ele>
        <time>2026-05-13T02:51:44Z</time>
      </trkpt>
      <trkpt lat="46.22477" lon="5.87242">
        <ele>600</ele>
        <time>2026-05-13T02:51:49Z</time>
      </trkpt>
      <trkpt lat="46.22478" lon="5.87249">
        <ele>600.4</ele>
        <time>2026-05-13T02:51:51Z</time>
      </trkpt>
      <trkpt lat="46.22481" lon="5.87263">
        <ele>601</ele>
        <time>2026-05-13T02:51:55Z</time>
      </trkpt>
      <trkpt lat="46.22482" lon="5.87272">
        <ele>601.4</ele>
        <time>2026-05-13T02:51:58Z</time>
      </trkpt>
      <trkpt lat="46.22484" lon="5.87282">
        <ele>602</ele>
        <time>2026-05-13T02:52:01Z</time>
      </trkpt>
      <trkpt lat="46.22486" lon="5.87291">
        <ele>602.6</ele>
        <time>2026-05-13T02:52:04Z</time>
      </trkpt>
      <trkpt lat="46.22486" lon="5.87297">
        <ele>602.8</ele>
        <time>2026-05-13T02:52:06Z</time>
      </trkpt>
      <trkpt lat="46.22486" lon="5.873">
        <ele>603</ele>
        <time>2026-05-13T02:52:07Z</time>
      </trkpt>
      <trkpt lat="46.22488" lon="5.87309">
        <ele>603.6</ele>
        <time>2026-05-13T02:52:10Z</time>
      </trkpt>
      <trkpt lat="46.22489" lon="5.87313">
        <ele>603.6</ele>
        <time>2026-05-13T02:52:11Z</time>
      </trkpt>
      <trkpt lat="46.22488" lon="5.87336">
        <ele>604.6</ele>
        <time>2026-05-13T02:52:18Z</time>
      </trkpt>
      <trkpt lat="46.22488" lon="5.87343">
        <ele>605</ele>
        <time>2026-05-13T02:52:20Z</time>
      </trkpt>
      <trkpt lat="46.22491" lon="5.87364">
        <ele>605.8</ele>
        <time>2026-05-13T02:52:26Z</time>
      </trkpt>
      <trkpt lat="46.22492" lon="5.87385">
        <ele>606.8</ele>
        <time>2026-05-13T02:52:32Z</time>
      </trkpt>
      <trkpt lat="46.22494" lon="5.87395">
        <ele>607.4</ele>
        <time>2026-05-13T02:52:35Z</time>
      </trkpt>
      <trkpt lat="46.22497" lon="5.87411">
        <ele>607.8</ele>
        <time>2026-05-13T02:52:40Z</time>
      </trkpt>
      <trkpt lat="46.22499" lon="5.87421">
        <ele>608.4</ele>
        <time>2026-05-13T02:52:43Z</time>
      </trkpt>
      <trkpt lat="46.22503" lon="5.87434">
        <ele>609.2</ele>
        <time>2026-05-13T02:52:47Z</time>
      </trkpt>
      <trkpt lat="46.22509" lon="5.87449">
        <ele>610</ele>
        <time>2026-05-13T02:52:52Z</time>
      </trkpt>
      <trkpt lat="46.22512" lon="5.87457">
        <ele>610.2</ele>
        <time>2026-05-13T02:52:55Z</time>
      </trkpt>
      <trkpt lat="46.22518" lon="5.87467">
        <ele>610.6</ele>
        <time>2026-05-13T02:52:59Z</time>
      </trkpt>
      <trkpt lat="46.22525" lon="5.87475">
        <ele>611</ele>
        <time>2026-05-13T02:53:03Z</time>
      </trkpt>
      <trkpt lat="46.22529" lon="5.87477">
        <ele>611.4</ele>
        <time>2026-05-13T02:53:05Z</time>
      </trkpt>
      <trkpt lat="46.22545" lon="5.87483">
        <ele>612.2</ele>
        <time>2026-05-13T02:53:11Z</time>
      </trkpt>
      <trkpt lat="46.22549" lon="5.87486">
        <ele>612.4</ele>
        <time>2026-05-13T02:53:13Z</time>
      </trkpt>
      <trkpt lat="46.2256" lon="5.87493">
        <ele>613.2</ele>
        <time>2026-05-13T02:53:18Z</time>
      </trkpt>
      <trkpt lat="46.22568" lon="5.875">
        <ele>613.8</ele>
        <time>2026-05-13T02:53:22Z</time>
      </trkpt>
      <trkpt lat="46.22573" lon="5.87508">
        <ele>614.4</ele>
        <time>2026-05-13T02:53:25Z</time>
      </trkpt>
      <trkpt lat="46.22581" lon="5.87523">
        <ele>615.4</ele>
        <time>2026-05-13T02:53:31Z</time>
      </trkpt>
      <trkpt lat="46.22587" lon="5.87531">
        <ele>616</ele>
        <time>2026-05-13T02:53:35Z</time>
      </trkpt>
      <trkpt lat="46.22588" lon="5.87533">
        <ele>616.2</ele>
        <time>2026-05-13T02:53:36Z</time>
      </trkpt>
      <trkpt lat="46.2259" lon="5.87538">
        <ele>616.6</ele>
        <time>2026-05-13T02:53:38Z</time>
      </trkpt>
      <trkpt lat="46.22591" lon="5.87541">
        <ele>616.8</ele>
        <time>2026-05-13T02:53:39Z</time>
      </trkpt>
      <trkpt lat="46.22592" lon="5.87543">
        <ele>617</ele>
        <time>2026-05-13T02:53:40Z</time>
      </trkpt>
      <trkpt lat="46.22594" lon="5.87555">
        <ele>617.6</ele>
        <time>2026-05-13T02:53:45Z</time>
      </trkpt>
      <trkpt lat="46.22594" lon="5.87557">
        <ele>618</ele>
        <time>2026-05-13T02:53:46Z</time>
      </trkpt>
      <trkpt lat="46.22598" lon="5.87566">
        <ele>618.4</ele>
        <time>2026-05-13T02:53:49Z</time>
      </trkpt>
      <trkpt lat="46.22601" lon="5.87575">
        <ele>618.8</ele>
        <time>2026-05-13T02:53:52Z</time>
      </trkpt>
      <trkpt lat="46.22603" lon="5.8758">
        <ele>619</ele>
        <time>2026-05-13T02:53:54Z</time>
      </trkpt>
      <trkpt lat="46.22607" lon="5.87606">
        <ele>619.8</ele>
        <time>2026-05-13T02:54:00Z</time>
      </trkpt>
      <trkpt lat="46.22608" lon="5.87608">
        <ele>620</ele>
        <time>2026-05-13T02:54:01Z</time>
      </trkpt>
      <trkpt lat="46.22609" lon="5.87628">
        <ele>620.8</ele>
        <time>2026-05-13T02:54:07Z</time>
      </trkpt>
      <trkpt lat="46.22609" lon="5.87631">
        <ele>621</ele>
        <time>2026-05-13T02:54:08Z</time>
      </trkpt>
      <trkpt lat="46.22609" lon="5.8764">
        <ele>621.2</ele>
        <time>2026-05-13T02:54:11Z</time>
      </trkpt>
      <trkpt lat="46.22611" lon="5.87652">
        <ele>621.4</ele>
        <time>2026-05-13T02:54:14Z</time>
      </trkpt>
      <trkpt lat="46.22615" lon="5.87662">
        <ele>622</ele>
        <time>2026-05-13T02:54:17Z</time>
      </trkpt>
      <trkpt lat="46.22616" lon="5.87684">
        <ele>623</ele>
        <time>2026-05-13T02:54:23Z</time>
      </trkpt>
      <trkpt lat="46.22616" lon="5.87688">
        <ele>623</ele>
        <time>2026-05-13T02:54:24Z</time>
      </trkpt>
      <trkpt lat="46.22617" lon="5.87691">
        <ele>623.2</ele>
        <time>2026-05-13T02:54:25Z</time>
      </trkpt>
      <trkpt lat="46.22619" lon="5.87699">
        <ele>623.6</ele>
        <time>2026-05-13T02:54:27Z</time>
      </trkpt>
      <trkpt lat="46.22621" lon="5.87714">
        <ele>624.2</ele>
        <time>2026-05-13T02:54:32Z</time>
      </trkpt>
      <trkpt lat="46.22624" lon="5.87726">
        <ele>625</ele>
        <time>2026-05-13T02:54:36Z</time>
      </trkpt>
      <trkpt lat="46.22625" lon="5.87733">
        <ele>625.2</ele>
        <time>2026-05-13T02:54:38Z</time>
      </trkpt>
      <trkpt lat="46.22629" lon="5.87747">
        <ele>625.8</ele>
        <time>2026-05-13T02:54:43Z</time>
      </trkpt>
      <trkpt lat="46.22631" lon="5.87755">
        <ele>626.4</ele>
        <time>2026-05-13T02:54:46Z</time>
      </trkpt>
      <trkpt lat="46.22639" lon="5.87775">
        <ele>627.6</ele>
        <time>2026-05-13T02:54:53Z</time>
      </trkpt>
      <trkpt lat="46.22646" lon="5.87794">
        <ele>628.6</ele>
        <time>2026-05-13T02:55:00Z</time>
      </trkpt>
      <trkpt lat="46.22655" lon="5.87818">
        <ele>629.6</ele>
        <time>2026-05-13T02:55:08Z</time>
      </trkpt>
      <trkpt lat="46.22656" lon="5.8782">
        <ele>629.8</ele>
        <time>2026-05-13T02:55:09Z</time>
      </trkpt>
      <trkpt lat="46.22662" lon="5.87835">
        <ele>630.6</ele>
        <time>2026-05-13T02:55:14Z</time>
      </trkpt>
      <trkpt lat="46.22668" lon="5.87847">
        <ele>631</ele>
        <time>2026-05-13T02:55:18Z</time>
      </trkpt>
      <trkpt lat="46.22674" lon="5.87858">
        <ele>631.8</ele>
        <time>2026-05-13T02:55:22Z</time>
      </trkpt>
      <trkpt lat="46.22681" lon="5.87869">
        <ele>632.4</ele>
        <time>2026-05-13T02:55:26Z</time>
      </trkpt>
      <trkpt lat="46.2269" lon="5.87882">
        <ele>632.8</ele>
        <time>2026-05-13T02:55:31Z</time>
      </trkpt>
      <trkpt lat="46.22698" lon="5.87891">
        <ele>633.2</ele>
        <time>2026-05-13T02:55:35Z</time>
      </trkpt>
      <trkpt lat="46.22705" lon="5.879">
        <ele>634</ele>
        <time>2026-05-13T02:55:39Z</time>
      </trkpt>
      <trkpt lat="46.22716" lon="5.87914">
        <ele>635</ele>
        <time>2026-05-13T02:55:45Z</time>
      </trkpt>
      <trkpt lat="46.22718" lon="5.87917">
        <ele>635.4</ele>
        <time>2026-05-13T02:55:46Z</time>
      </trkpt>
      <trkpt lat="46.22729" lon="5.87935">
        <ele>636.4</ele>
        <time>2026-05-13T02:55:53Z</time>
      </trkpt>
      <trkpt lat="46.22739" lon="5.87955">
        <ele>637.4</ele>
        <time>2026-05-13T02:56:00Z</time>
      </trkpt>
      <trkpt lat="46.22741" lon="5.87957">
        <ele>637.8</ele>
        <time>2026-05-13T02:56:01Z</time>
      </trkpt>
      <trkpt lat="46.22748" lon="5.87976">
        <ele>638.6</ele>
        <time>2026-05-13T02:56:07Z</time>
      </trkpt>
      <trkpt lat="46.22749" lon="5.87979">
        <ele>638.6</ele>
        <time>2026-05-13T02:56:08Z</time>
      </trkpt>
      <trkpt lat="46.22755" lon="5.87994">
        <ele>639.6</ele>
        <time>2026-05-13T02:56:13Z</time>
      </trkpt>
      <trkpt lat="46.2276" lon="5.88006">
        <ele>640.4</ele>
        <time>2026-05-13T02:56:17Z</time>
      </trkpt>
      <trkpt lat="46.22763" lon="5.88015">
        <ele>640.6</ele>
        <time>2026-05-13T02:56:20Z</time>
      </trkpt>
      <trkpt lat="46.2277" lon="5.88029">
        <ele>641.2</ele>
        <time>2026-05-13T02:56:25Z</time>
      </trkpt>
      <trkpt lat="46.22775" lon="5.8804">
        <ele>641.8</ele>
        <time>2026-05-13T02:56:29Z</time>
      </trkpt>
      <trkpt lat="46.2278" lon="5.88048">
        <ele>642.4</ele>
        <time>2026-05-13T02:56:32Z</time>
      </trkpt>
      <trkpt lat="46.22784" lon="5.88055">
        <ele>643</ele>
        <time>2026-05-13T02:56:35Z</time>
      </trkpt>
      <trkpt lat="46.22798" lon="5.88074">
        <ele>644</ele>
        <time>2026-05-13T02:56:43Z</time>
      </trkpt>
      <trkpt lat="46.22812" lon="5.88086">
        <ele>645.2</ele>
        <time>2026-05-13T02:56:50Z</time>
      </trkpt>
      <trkpt lat="46.22814" lon="5.88088">
        <ele>645.4</ele>
        <time>2026-05-13T02:56:51Z</time>
      </trkpt>
      <trkpt lat="46.22827" lon="5.88096">
        <ele>646.2</ele>
        <time>2026-05-13T02:56:57Z</time>
      </trkpt>
      <trkpt lat="46.22831" lon="5.88098">
        <ele>646.4</ele>
        <time>2026-05-13T02:56:59Z</time>
      </trkpt>
      <trkpt lat="46.22848" lon="5.88105">
        <ele>647.2</ele>
        <time>2026-05-13T02:57:07Z</time>
      </trkpt>
      <trkpt lat="46.2285" lon="5.88106">
        <ele>647.4</ele>
        <time>2026-05-13T02:57:08Z</time>
      </trkpt>
      <trkpt lat="46.22865" lon="5.8811">
        <ele>648.4</ele>
        <time>2026-05-13T02:57:15Z</time>
      </trkpt>
      <trkpt lat="46.22872" lon="5.88113">
        <ele>649</ele>
        <time>2026-05-13T02:57:18Z</time>
      </trkpt>
      <trkpt lat="46.22883" lon="5.88116">
        <ele>649.6</ele>
        <time>2026-05-13T02:57:23Z</time>
      </trkpt>
      <trkpt lat="46.2289" lon="5.88117">
        <ele>649.8</ele>
        <time>2026-05-13T02:57:26Z</time>
      </trkpt>
      <trkpt lat="46.22898" lon="5.88119">
        <ele>650.8</ele>
        <time>2026-05-13T02:57:30Z</time>
      </trkpt>
      <trkpt lat="46.22909" lon="5.88123">
        <ele>651.6</ele>
        <time>2026-05-13T02:57:35Z</time>
      </trkpt>
      <trkpt lat="46.22913" lon="5.88125">
        <ele>651.8</ele>
        <time>2026-05-13T02:57:37Z</time>
      </trkpt>
      <trkpt lat="46.22923" lon="5.88131">
        <ele>652.4</ele>
        <time>2026-05-13T02:57:42Z</time>
      </trkpt>
      <trkpt lat="46.22929" lon="5.88136">
        <ele>653.2</ele>
        <time>2026-05-13T02:57:45Z</time>
      </trkpt>
      <trkpt lat="46.22944" lon="5.88151">
        <ele>654.2</ele>
        <time>2026-05-13T02:57:53Z</time>
      </trkpt>
      <trkpt lat="46.22946" lon="5.88153">
        <ele>654.4</ele>
        <time>2026-05-13T02:57:54Z</time>
      </trkpt>
      <trkpt lat="46.22955" lon="5.88167">
        <ele>655.2</ele>
        <time>2026-05-13T02:58:00Z</time>
      </trkpt>
      <trkpt lat="46.22957" lon="5.88169">
        <ele>655.4</ele>
        <time>2026-05-13T02:58:01Z</time>
      </trkpt>
      <trkpt lat="46.22966" lon="5.88187">
        <ele>656.4</ele>
        <time>2026-05-13T02:58:08Z</time>
      </trkpt>
      <trkpt lat="46.22975" lon="5.88203">
        <ele>657.4</ele>
        <time>2026-05-13T02:58:15Z</time>
      </trkpt>
      <trkpt lat="46.22977" lon="5.88206">
        <ele>657.4</ele>
        <time>2026-05-13T02:58:16Z</time>
      </trkpt>
      <trkpt lat="46.22982" lon="5.88217">
        <ele>658.2</ele>
        <time>2026-05-13T02:58:21Z</time>
      </trkpt>
      <trkpt lat="46.22985" lon="5.88222">
        <ele>658.4</ele>
        <time>2026-05-13T02:58:23Z</time>
      </trkpt>
      <trkpt lat="46.22985" lon="5.88225">
        <ele>658.6</ele>
        <time>2026-05-13T02:58:24Z</time>
      </trkpt>
      <trkpt lat="46.22987" lon="5.8823">
        <ele>659</ele>
        <time>2026-05-13T02:58:26Z</time>
      </trkpt>
      <trkpt lat="46.22993" lon="5.88239">
        <ele>659.4</ele>
        <time>2026-05-13T02:58:30Z</time>
      </trkpt>
      <trkpt lat="46.22998" lon="5.88251">
        <ele>660</ele>
        <time>2026-05-13T02:58:34Z</time>
      </trkpt>
      <trkpt lat="46.23004" lon="5.88261">
        <ele>660.6</ele>
        <time>2026-05-13T02:58:38Z</time>
      </trkpt>
      <trkpt lat="46.2301" lon="5.88267">
        <ele>661</ele>
        <time>2026-05-13T02:58:41Z</time>
      </trkpt>
      <trkpt lat="46.23017" lon="5.88278">
        <ele>661.6</ele>
        <time>2026-05-13T02:58:45Z</time>
      </trkpt>
      <trkpt lat="46.23019" lon="5.88283">
        <ele>662</ele>
        <time>2026-05-13T02:58:47Z</time>
      </trkpt>
      <trkpt lat="46.23024" lon="5.88288">
        <ele>662.6</ele>
        <time>2026-05-13T02:58:52Z</time>
      </trkpt>
      <trkpt lat="46.23034" lon="5.88295">
        <ele>663.6</ele>
        <time>2026-05-13T02:58:58Z</time>
      </trkpt>
      <trkpt lat="46.23034" lon="5.88295">
        <ele>663.8</ele>
        <time>2026-05-13T02:58:59Z</time>
      </trkpt>
      <trkpt lat="46.2305" lon="5.88307">
        <ele>664.6</ele>
        <time>2026-05-13T02:59:07Z</time>
      </trkpt>
      <trkpt lat="46.23052" lon="5.88309">
        <ele>664.8</ele>
        <time>2026-05-13T02:59:08Z</time>
      </trkpt>
      <trkpt lat="46.23064" lon="5.8832">
        <ele>665.8</ele>
        <time>2026-05-13T02:59:14Z</time>
      </trkpt>
      <trkpt lat="46.23066" lon="5.88322">
        <ele>665.8</ele>
        <time>2026-05-13T02:59:15Z</time>
      </trkpt>
      <trkpt lat="46.2308" lon="5.88339">
        <ele>666.8</ele>
        <time>2026-05-13T02:59:21Z</time>
      </trkpt>
      <trkpt lat="46.23084" lon="5.88344">
        <ele>667</ele>
        <time>2026-05-13T02:59:23Z</time>
      </trkpt>
      <trkpt lat="46.23094" lon="5.88357">
        <ele>667.4</ele>
        <time>2026-05-13T02:59:28Z</time>
      </trkpt>
      <trkpt lat="46.23101" lon="5.88369">
        <ele>668</ele>
        <time>2026-05-13T02:59:33Z</time>
      </trkpt>
      <trkpt lat="46.23104" lon="5.88373">
        <ele>668.4</ele>
        <time>2026-05-13T02:59:35Z</time>
      </trkpt>
      <trkpt lat="46.23109" lon="5.88382">
        <ele>669.2</ele>
        <time>2026-05-13T02:59:39Z</time>
      </trkpt>
      <trkpt lat="46.23111" lon="5.88384">
        <ele>669.2</ele>
        <time>2026-05-13T02:59:40Z</time>
      </trkpt>
      <trkpt lat="46.23119" lon="5.88396">
        <ele>670.2</ele>
        <time>2026-05-13T02:59:45Z</time>
      </trkpt>
      <trkpt lat="46.23121" lon="5.88398">
        <ele>670.4</ele>
        <time>2026-05-13T02:59:46Z</time>
      </trkpt>
      <trkpt lat="46.23123" lon="5.88401">
        <ele>670.4</ele>
        <time>2026-05-13T02:59:47Z</time>
      </trkpt>
      <trkpt lat="46.23128" lon="5.88411">
        <ele>671</ele>
        <time>2026-05-13T02:59:51Z</time>
      </trkpt>
      <trkpt lat="46.23128" lon="5.88414">
        <ele>671</ele>
        <time>2026-05-13T02:59:52Z</time>
      </trkpt>
      <trkpt lat="46.23129" lon="5.8842">
        <ele>671.4</ele>
        <time>2026-05-13T02:59:54Z</time>
      </trkpt>
      <trkpt lat="46.23132" lon="5.88429">
        <ele>671.8</ele>
        <time>2026-05-13T02:59:57Z</time>
      </trkpt>
      <trkpt lat="46.23135" lon="5.88444">
        <ele>672.4</ele>
        <time>2026-05-13T03:00:01Z</time>
      </trkpt>
      <trkpt lat="46.23135" lon="5.88448">
        <ele>672.6</ele>
        <time>2026-05-13T03:00:02Z</time>
      </trkpt>
      <trkpt lat="46.2314" lon="5.88469">
        <ele>673.4</ele>
        <time>2026-05-13T03:00:08Z</time>
      </trkpt>
      <trkpt lat="46.23141" lon="5.88478">
        <ele>674</ele>
        <time>2026-05-13T03:00:11Z</time>
      </trkpt>
      <trkpt lat="46.23142" lon="5.88481">
        <ele>674.2</ele>
        <time>2026-05-13T03:00:12Z</time>
      </trkpt>
      <trkpt lat="46.23142" lon="5.88487">
        <ele>674.4</ele>
        <time>2026-05-13T03:00:14Z</time>
      </trkpt>
      <trkpt lat="46.23142" lon="5.88493">
        <ele>675</ele>
        <time>2026-05-13T03:00:16Z</time>
      </trkpt>
      <trkpt lat="46.23144" lon="5.88499">
        <ele>675.2</ele>
        <time>2026-05-13T03:00:18Z</time>
      </trkpt>
      <trkpt lat="46.23145" lon="5.88507">
        <ele>675.6</ele>
        <time>2026-05-13T03:00:21Z</time>
      </trkpt>
      <trkpt lat="46.2315" lon="5.88516">
        <ele>676</ele>
        <time>2026-05-13T03:00:24Z</time>
      </trkpt>
      <trkpt lat="46.23152" lon="5.88532">
        <ele>676.6</ele>
        <time>2026-05-13T03:00:29Z</time>
      </trkpt>
      <trkpt lat="46.23153" lon="5.88549">
        <ele>677.8</ele>
        <time>2026-05-13T03:00:34Z</time>
      </trkpt>
      <trkpt lat="46.23154" lon="5.88552">
        <ele>677.8</ele>
        <time>2026-05-13T03:00:35Z</time>
      </trkpt>
      <trkpt lat="46.23154" lon="5.88572">
        <ele>678.8</ele>
        <time>2026-05-13T03:00:40Z</time>
      </trkpt>
      <trkpt lat="46.23155" lon="5.88579">
        <ele>679</ele>
        <time>2026-05-13T03:00:42Z</time>
      </trkpt>
      <trkpt lat="46.23162" lon="5.88594">
        <ele>679.8</ele>
        <time>2026-05-13T03:00:47Z</time>
      </trkpt>
      <trkpt lat="46.2317" lon="5.88611">
        <ele>680.8</ele>
        <time>2026-05-13T03:00:52Z</time>
      </trkpt>
      <trkpt lat="46.23175" lon="5.88616">
        <ele>681</ele>
        <time>2026-05-13T03:00:54Z</time>
      </trkpt>
      <trkpt lat="46.23178" lon="5.88618">
        <ele>681.2</ele>
        <time>2026-05-13T03:00:55Z</time>
      </trkpt>
      <trkpt lat="46.23184" lon="5.88627">
        <ele>681.4</ele>
        <time>2026-05-13T03:00:58Z</time>
      </trkpt>
      <trkpt lat="46.23191" lon="5.88636">
        <ele>682</ele>
        <time>2026-05-13T03:01:02Z</time>
      </trkpt>
      <trkpt lat="46.23192" lon="5.88639">
        <ele>682.2</ele>
        <time>2026-05-13T03:01:03Z</time>
      </trkpt>
      <trkpt lat="46.23198" lon="5.88655">
        <ele>683</ele>
        <time>2026-05-13T03:01:10Z</time>
      </trkpt>
      <trkpt lat="46.23199" lon="5.88657">
        <ele>683.2</ele>
        <time>2026-05-13T03:01:11Z</time>
      </trkpt>
      <trkpt lat="46.23203" lon="5.88666">
        <ele>683.6</ele>
        <time>2026-05-13T03:01:16Z</time>
      </trkpt>
      <trkpt lat="46.23205" lon="5.8867">
        <ele>684.2</ele>
        <time>2026-05-13T03:01:20Z</time>
      </trkpt>
      <trkpt lat="46.23206" lon="5.88672">
        <ele>684.4</ele>
        <time>2026-05-13T03:01:22Z</time>
      </trkpt>
      <trkpt lat="46.23207" lon="5.88675">
        <ele>684.8</ele>
        <time>2026-05-13T03:01:24Z</time>
      </trkpt>
      <trkpt lat="46.23215" lon="5.88684">
        <ele>685.4</ele>
        <time>2026-05-13T03:01:27Z</time>
      </trkpt>
      <trkpt lat="46.23229" lon="5.88701">
        <ele>686</ele>
        <time>2026-05-13T03:01:32Z</time>
      </trkpt>
      <trkpt lat="46.23232" lon="5.88707">
        <ele>686.4</ele>
        <time>2026-05-13T03:01:35Z</time>
      </trkpt>
      <trkpt lat="46.23236" lon="5.8871">
        <ele>686.6</ele>
        <time>2026-05-13T03:01:37Z</time>
      </trkpt>
      <trkpt lat="46.2324" lon="5.88714">
        <ele>686.8</ele>
        <time>2026-05-13T03:01:39Z</time>
      </trkpt>
      <trkpt lat="46.23249" lon="5.88721">
        <ele>687.4</ele>
        <time>2026-05-13T03:01:43Z</time>
      </trkpt>
      <trkpt lat="46.23259" lon="5.88727">
        <ele>688.2</ele>
        <time>2026-05-13T03:01:48Z</time>
      </trkpt>
      <trkpt lat="46.23262" lon="5.88729">
        <ele>688.2</ele>
        <time>2026-05-13T03:01:49Z</time>
      </trkpt>
      <trkpt lat="46.23264" lon="5.8873">
        <ele>688.6</ele>
        <time>2026-05-13T03:01:50Z</time>
      </trkpt>
      <trkpt lat="46.23274" lon="5.88738">
        <ele>689.6</ele>
        <time>2026-05-13T03:01:56Z</time>
      </trkpt>
      <trkpt lat="46.23287" lon="5.88752">
        <ele>690.6</ele>
        <time>2026-05-13T03:02:02Z</time>
      </trkpt>
      <trkpt lat="46.23291" lon="5.88759">
        <ele>690.8</ele>
        <time>2026-05-13T03:02:04Z</time>
      </trkpt>
      <trkpt lat="46.23298" lon="5.88768">
        <ele>691</ele>
        <time>2026-05-13T03:02:07Z</time>
      </trkpt>
      <trkpt lat="46.23302" lon="5.88781">
        <ele>691.8</ele>
        <time>2026-05-13T03:02:11Z</time>
      </trkpt>
      <trkpt lat="46.23305" lon="5.8879">
        <ele>692.4</ele>
        <time>2026-05-13T03:02:14Z</time>
      </trkpt>
      <trkpt lat="46.23309" lon="5.88798">
        <ele>692.8</ele>
        <time>2026-05-13T03:02:17Z</time>
      </trkpt>
      <trkpt lat="46.23312" lon="5.88806">
        <ele>693.4</ele>
        <time>2026-05-13T03:02:20Z</time>
      </trkpt>
      <trkpt lat="46.23316" lon="5.88815">
        <ele>693.8</ele>
        <time>2026-05-13T03:02:23Z</time>
      </trkpt>
      <trkpt lat="46.23323" lon="5.88829">
        <ele>694.2</ele>
        <time>2026-05-13T03:02:28Z</time>
      </trkpt>
      <trkpt lat="46.23328" lon="5.8884">
        <ele>694.8</ele>
        <time>2026-05-13T03:02:32Z</time>
      </trkpt>
      <trkpt lat="46.23332" lon="5.88845">
        <ele>695.2</ele>
        <time>2026-05-13T03:02:34Z</time>
      </trkpt>
      <trkpt lat="46.23341" lon="5.88858">
        <ele>696</ele>
        <time>2026-05-13T03:02:39Z</time>
      </trkpt>
      <trkpt lat="46.23347" lon="5.88863">
        <ele>696.4</ele>
        <time>2026-05-13T03:02:42Z</time>
      </trkpt>
      <trkpt lat="46.23358" lon="5.88871">
        <ele>697</ele>
        <time>2026-05-13T03:02:47Z</time>
      </trkpt>
      <trkpt lat="46.2336" lon="5.88872">
        <ele>697</ele>
        <time>2026-05-13T03:02:48Z</time>
      </trkpt>
      <trkpt lat="46.23362" lon="5.88873">
        <ele>697.2</ele>
        <time>2026-05-13T03:02:49Z</time>
      </trkpt>
      <trkpt lat="46.23366" lon="5.88877">
        <ele>697.4</ele>
        <time>2026-05-13T03:02:51Z</time>
      </trkpt>
      <trkpt lat="46.23368" lon="5.88879">
        <ele>698</ele>
        <time>2026-05-13T03:02:52Z</time>
      </trkpt>
      <trkpt lat="46.23376" lon="5.88885">
        <ele>698.6</ele>
        <time>2026-05-13T03:02:56Z</time>
      </trkpt>
      <trkpt lat="46.23381" lon="5.88888">
        <ele>699</ele>
        <time>2026-05-13T03:02:58Z</time>
      </trkpt>
      <trkpt lat="46.2339" lon="5.88894">
        <ele>699.6</ele>
        <time>2026-05-13T03:03:02Z</time>
      </trkpt>
      <trkpt lat="46.23393" lon="5.88898">
        <ele>700</ele>
        <time>2026-05-13T03:03:04Z</time>
      </trkpt>
      <trkpt lat="46.23403" lon="5.88906">
        <ele>700.6</ele>
        <time>2026-05-13T03:03:09Z</time>
      </trkpt>
      <trkpt lat="46.23406" lon="5.8891">
        <ele>701.2</ele>
        <time>2026-05-13T03:03:11Z</time>
      </trkpt>
      <trkpt lat="46.23412" lon="5.88915">
        <ele>701.4</ele>
        <time>2026-05-13T03:03:14Z</time>
      </trkpt>
      <trkpt lat="46.23422" lon="5.88924">
        <ele>702</ele>
        <time>2026-05-13T03:03:19Z</time>
      </trkpt>
      <trkpt lat="46.23427" lon="5.88929">
        <ele>702.4</ele>
        <time>2026-05-13T03:03:22Z</time>
      </trkpt>
      <trkpt lat="46.23432" lon="5.88935">
        <ele>702.8</ele>
        <time>2026-05-13T03:03:25Z</time>
      </trkpt>
      <trkpt lat="46.23433" lon="5.88937">
        <ele>703</ele>
        <time>2026-05-13T03:03:26Z</time>
      </trkpt>
      <trkpt lat="46.23435" lon="5.88939">
        <ele>703.2</ele>
        <time>2026-05-13T03:03:27Z</time>
      </trkpt>
      <trkpt lat="46.23445" lon="5.88949">
        <ele>704.2</ele>
        <time>2026-05-13T03:03:33Z</time>
      </trkpt>
      <trkpt lat="46.23448" lon="5.88952">
        <ele>704.6</ele>
        <time>2026-05-13T03:03:35Z</time>
      </trkpt>
      <trkpt lat="46.23449" lon="5.88954">
        <ele>704.6</ele>
        <time>2026-05-13T03:03:36Z</time>
      </trkpt>
      <trkpt lat="46.23451" lon="5.88956">
        <ele>704.8</ele>
        <time>2026-05-13T03:03:37Z</time>
      </trkpt>
      <trkpt lat="46.23458" lon="5.88963">
        <ele>705.2</ele>
        <time>2026-05-13T03:03:41Z</time>
      </trkpt>
      <trkpt lat="46.2346" lon="5.88968">
        <ele>705.6</ele>
        <time>2026-05-13T03:03:44Z</time>
      </trkpt>
      <trkpt lat="46.23463" lon="5.88971">
        <ele>705.8</ele>
        <time>2026-05-13T03:03:46Z</time>
      </trkpt>
      <trkpt lat="46.23467" lon="5.88977">
        <ele>706.2</ele>
        <time>2026-05-13T03:03:49Z</time>
      </trkpt>
      <trkpt lat="46.2347" lon="5.88978">
        <ele>706.4</ele>
        <time>2026-05-13T03:03:50Z</time>
      </trkpt>
      <trkpt lat="46.23485" lon="5.88986">
        <ele>707.2</ele>
        <time>2026-05-13T03:03:56Z</time>
      </trkpt>
      <trkpt lat="46.23491" lon="5.8899">
        <ele>707.4</ele>
        <time>2026-05-13T03:03:58Z</time>
      </trkpt>
      <trkpt lat="46.23503" lon="5.88998">
        <ele>708.2</ele>
        <time>2026-05-13T03:04:03Z</time>
      </trkpt>
      <trkpt lat="46.23505" lon="5.88998">
        <ele>708.4</ele>
        <time>2026-05-13T03:04:04Z</time>
      </trkpt>
      <trkpt lat="46.23521" lon="5.89005">
        <ele>709.8</ele>
        <time>2026-05-13T03:04:11Z</time>
      </trkpt>
      <trkpt lat="46.23523" lon="5.89006">
        <ele>709.8</ele>
        <time>2026-05-13T03:04:12Z</time>
      </trkpt>
      <trkpt lat="46.2354" lon="5.89011">
        <ele>710.8</ele>
        <time>2026-05-13T03:04:20Z</time>
      </trkpt>
      <trkpt lat="46.23555" lon="5.89016">
        <ele>711.8</ele>
        <time>2026-05-13T03:04:27Z</time>
      </trkpt>
      <trkpt lat="46.23556" lon="5.89016">
        <ele>712</ele>
        <time>2026-05-13T03:04:28Z</time>
      </trkpt>
      <trkpt lat="46.23564" lon="5.89021">
        <ele>712.8</ele>
        <time>2026-05-13T03:04:33Z</time>
      </trkpt>
      <trkpt lat="46.23566" lon="5.89022">
        <ele>713.2</ele>
        <time>2026-05-13T03:04:34Z</time>
      </trkpt>
      <trkpt lat="46.23578" lon="5.89029">
        <ele>714</ele>
        <time>2026-05-13T03:04:40Z</time>
      </trkpt>
      <trkpt lat="46.23589" lon="5.8904">
        <ele>714.8</ele>
        <time>2026-05-13T03:04:46Z</time>
      </trkpt>
      <trkpt lat="46.23592" lon="5.89044">
        <ele>715.2</ele>
        <time>2026-05-13T03:04:48Z</time>
      </trkpt>
      <trkpt lat="46.23601" lon="5.89053">
        <ele>715.8</ele>
        <time>2026-05-13T03:04:52Z</time>
      </trkpt>
      <trkpt lat="46.23606" lon="5.89057">
        <ele>716.2</ele>
        <time>2026-05-13T03:04:54Z</time>
      </trkpt>
      <trkpt lat="46.23612" lon="5.89062">
        <ele>716.4</ele>
        <time>2026-05-13T03:04:57Z</time>
      </trkpt>
      <trkpt lat="46.2362" lon="5.89067">
        <ele>717</ele>
        <time>2026-05-13T03:05:01Z</time>
      </trkpt>
      <trkpt lat="46.23622" lon="5.89069">
        <ele>717.2</ele>
        <time>2026-05-13T03:05:02Z</time>
      </trkpt>
      <trkpt lat="46.23637" lon="5.89078">
        <ele>718.2</ele>
        <time>2026-05-13T03:05:09Z</time>
      </trkpt>
      <trkpt lat="46.23639" lon="5.89079">
        <ele>718.4</ele>
        <time>2026-05-13T03:05:10Z</time>
      </trkpt>
      <trkpt lat="46.23651" lon="5.89082">
        <ele>719.4</ele>
        <time>2026-05-13T03:05:17Z</time>
      </trkpt>
      <trkpt lat="46.23669" lon="5.89086">
        <ele>720</ele>
        <time>2026-05-13T03:05:24Z</time>
      </trkpt>
      <trkpt lat="46.23677" lon="5.8909">
        <ele>720.6</ele>
        <time>2026-05-13T03:05:27Z</time>
      </trkpt>
      <trkpt lat="46.23688" lon="5.89099">
        <ele>721.2</ele>
        <time>2026-05-13T03:05:32Z</time>
      </trkpt>
      <trkpt lat="46.23695" lon="5.8911">
        <ele>721.6</ele>
        <time>2026-05-13T03:05:36Z</time>
      </trkpt>
      <trkpt lat="46.23699" lon="5.89116">
        <ele>722</ele>
        <time>2026-05-13T03:05:38Z</time>
      </trkpt>
      <trkpt lat="46.23706" lon="5.89129">
        <ele>722.8</ele>
        <time>2026-05-13T03:05:43Z</time>
      </trkpt>
      <trkpt lat="46.23709" lon="5.89136">
        <ele>723.2</ele>
        <time>2026-05-13T03:05:45Z</time>
      </trkpt>
      <trkpt lat="46.23713" lon="5.89155">
        <ele>723.8</ele>
        <time>2026-05-13T03:05:50Z</time>
      </trkpt>
      <trkpt lat="46.23714" lon="5.89158">
        <ele>724</ele>
        <time>2026-05-13T03:05:51Z</time>
      </trkpt>
      <trkpt lat="46.23722" lon="5.89174">
        <ele>724.8</ele>
        <time>2026-05-13T03:05:56Z</time>
      </trkpt>
      <trkpt lat="46.23724" lon="5.89178">
        <ele>725</ele>
        <time>2026-05-13T03:05:57Z</time>
      </trkpt>
      <trkpt lat="46.23735" lon="5.89198">
        <ele>725</ele>
        <time>2026-05-13T03:06:02Z</time>
      </trkpt>
      <trkpt lat="46.23738" lon="5.89203">
        <ele>725</ele>
        <time>2026-05-13T03:06:03Z</time>
      </trkpt>
      <trkpt lat="46.23751" lon="5.89229">
        <ele>724.4</ele>
        <time>2026-05-13T03:06:07Z</time>
      </trkpt>
      <trkpt lat="46.23758" lon="5.89242">
        <ele>723.8</ele>
        <time>2026-05-13T03:06:09Z</time>
      </trkpt>
      <trkpt lat="46.2377" lon="5.89264">
        <ele>723</ele>
        <time>2026-05-13T03:06:12Z</time>
      </trkpt>
      <trkpt lat="46.23778" lon="5.89281">
        <ele>722.6</ele>
        <time>2026-05-13T03:06:14Z</time>
      </trkpt>
      <trkpt lat="46.2379" lon="5.8931">
        <ele>721.6</ele>
        <time>2026-05-13T03:06:17Z</time>
      </trkpt>
      <trkpt lat="46.23794" lon="5.8932">
        <ele>721.2</ele>
        <time>2026-05-13T03:06:18Z</time>
      </trkpt>
      <trkpt lat="46.23799" lon="5.89329">
        <ele>720.8</ele>
        <time>2026-05-13T03:06:19Z</time>
      </trkpt>
      <trkpt lat="46.23805" lon="5.89337">
        <ele>720.2</ele>
        <time>2026-05-13T03:06:20Z</time>
      </trkpt>
      <trkpt lat="46.23811" lon="5.89344">
        <ele>719.8</ele>
        <time>2026-05-13T03:06:21Z</time>
      </trkpt>
      <trkpt lat="46.23831" lon="5.89363">
        <ele>718.8</ele>
        <time>2026-05-13T03:06:24Z</time>
      </trkpt>
      <trkpt lat="46.23852" lon="5.8938">
        <ele>717.8</ele>
        <time>2026-05-13T03:06:27Z</time>
      </trkpt>
      <trkpt lat="46.23876" lon="5.894">
        <ele>716.6</ele>
        <time>2026-05-13T03:06:31Z</time>
      </trkpt>
      <trkpt lat="46.23882" lon="5.89405">
        <ele>716.2</ele>
        <time>2026-05-13T03:06:32Z</time>
      </trkpt>
      <trkpt lat="46.23909" lon="5.89429">
        <ele>715.6</ele>
        <time>2026-05-13T03:06:37Z</time>
      </trkpt>
      <trkpt lat="46.23914" lon="5.89434">
        <ele>715.6</ele>
        <time>2026-05-13T03:06:38Z</time>
      </trkpt>
      <trkpt lat="46.23935" lon="5.89455">
        <ele>715</ele>
        <time>2026-05-13T03:06:42Z</time>
      </trkpt>
      <trkpt lat="46.2397" lon="5.89486">
        <ele>715</ele>
        <time>2026-05-13T03:06:49Z</time>
      </trkpt>
      <trkpt lat="46.23994" lon="5.89508">
        <ele>715.6</ele>
        <time>2026-05-13T03:06:55Z</time>
      </trkpt>
      <trkpt lat="46.24021" lon="5.89531">
        <ele>716.8</ele>
        <time>2026-05-13T03:07:03Z</time>
      </trkpt>
      <trkpt lat="46.24041" lon="5.89548">
        <ele>717.4</ele>
        <time>2026-05-13T03:07:10Z</time>
      </trkpt>
      <trkpt lat="46.2405" lon="5.89555">
        <ele>717.8</ele>
        <time>2026-05-13T03:07:13Z</time>
      </trkpt>
      <trkpt lat="46.24059" lon="5.89562">
        <ele>718.2</ele>
        <time>2026-05-13T03:07:17Z</time>
      </trkpt>
      <trkpt lat="46.24077" lon="5.89577">
        <ele>718.6</ele>
        <time>2026-05-13T03:07:24Z</time>
      </trkpt>
      <trkpt lat="46.24084" lon="5.89583">
        <ele>718.6</ele>
        <time>2026-05-13T03:07:27Z</time>
      </trkpt>
      <trkpt lat="46.24085" lon="5.89585">
        <ele>718.6</ele>
        <time>2026-05-13T03:07:28Z</time>
      </trkpt>
      <trkpt lat="46.24086" lon="5.89585">
        <ele>718.6</ele>
        <time>2026-05-13T03:07:29Z</time>
      </trkpt>
      <trkpt lat="46.24087" lon="5.89581">
        <ele>718.6</ele>
        <time>2026-05-13T03:07:31Z</time>
      </trkpt>
      <trkpt lat="46.24083" lon="5.89571">
        <ele>718.6</ele>
        <time>2026-05-13T03:07:36Z</time>
      </trkpt>
      <trkpt lat="46.24083" lon="5.89571">
        <ele>718.6</ele>
        <time>2026-05-13T03:07:39Z</time>
      </trkpt>
      <trkpt lat="46.24082" lon="5.89578">
        <ele>719</ele>
        <time>2026-05-13T03:08:12Z</time>
      </trkpt>
      <trkpt lat="46.24089" lon="5.8959">
        <ele>719</ele>
        <time>2026-05-13T03:08:16Z</time>
      </trkpt>
      <trkpt lat="46.24104" lon="5.89617">
        <ele>718.8</ele>
        <time>2026-05-13T03:08:21Z</time>
      </trkpt>
      <trkpt lat="46.24115" lon="5.89631">
        <ele>718.2</ele>
        <time>2026-05-13T03:08:24Z</time>
      </trkpt>
      <trkpt lat="46.24122" lon="5.89638">
        <ele>718</ele>
        <time>2026-05-13T03:08:26Z</time>
      </trkpt>
      <trkpt lat="46.24126" lon="5.89641">
        <ele>717.8</ele>
        <time>2026-05-13T03:08:27Z</time>
      </trkpt>
      <trkpt lat="46.2413" lon="5.89643">
        <ele>717.8</ele>
        <time>2026-05-13T03:08:28Z</time>
      </trkpt>
      <trkpt lat="46.24139" lon="5.89646">
        <ele>717.6</ele>
        <time>2026-05-13T03:08:30Z</time>
      </trkpt>
      <trkpt lat="46.24148" lon="5.89648">
        <ele>717.4</ele>
        <time>2026-05-13T03:08:32Z</time>
      </trkpt>
      <trkpt lat="46.24163" lon="5.89649">
        <ele>717</ele>
        <time>2026-05-13T03:08:37Z</time>
      </trkpt>
      <trkpt lat="46.24165" lon="5.89649">
        <ele>717</ele>
        <time>2026-05-13T03:08:38Z</time>
      </trkpt>
      <trkpt lat="46.24179" lon="5.89649">
        <ele>716.8</ele>
        <time>2026-05-13T03:08:43Z</time>
      </trkpt>
      <trkpt lat="46.2419" lon="5.89649">
        <ele>717</ele>
        <time>2026-05-13T03:08:49Z</time>
      </trkpt>
      <trkpt lat="46.2419" lon="5.89649">
        <ele>717</ele>
        <time>2026-05-13T03:08:50Z</time>
      </trkpt>
      <trkpt lat="46.24199" lon="5.89648">
        <ele>717.2</ele>
        <time>2026-05-13T03:23:14Z</time>
      </trkpt>
      <trkpt lat="46.24201" lon="5.89648">
        <ele>717.4</ele>
        <time>2026-05-13T03:23:16Z</time>
      </trkpt>
      <trkpt lat="46.24221" lon="5.89647">
        <ele>717.8</ele>
        <time>2026-05-13T03:23:23Z</time>
      </trkpt>
      <trkpt lat="46.24237" lon="5.89652">
        <ele>718.2</ele>
        <time>2026-05-13T03:23:29Z</time>
      </trkpt>
      <trkpt lat="46.24245" lon="5.89655">
        <ele>718.4</ele>
        <time>2026-05-13T03:23:32Z</time>
      </trkpt>
      <trkpt lat="46.24259" lon="5.89659">
        <ele>718.8</ele>
        <time>2026-05-13T03:23:38Z</time>
      </trkpt>
      <trkpt lat="46.24267" lon="5.89662">
        <ele>719.6</ele>
        <time>2026-05-13T03:23:41Z</time>
      </trkpt>
      <trkpt lat="46.24283" lon="5.89671">
        <ele>720</ele>
        <time>2026-05-13T03:23:46Z</time>
      </trkpt>
      <trkpt lat="46.24294" lon="5.89677">
        <ele>720.6</ele>
        <time>2026-05-13T03:23:50Z</time>
      </trkpt>
      <trkpt lat="46.2431" lon="5.89688">
        <ele>721.2</ele>
        <time>2026-05-13T03:23:56Z</time>
      </trkpt>
      <trkpt lat="46.24313" lon="5.8969">
        <ele>721.8</ele>
        <time>2026-05-13T03:23:58Z</time>
      </trkpt>
      <trkpt lat="46.24329" lon="5.89703">
        <ele>722.6</ele>
        <time>2026-05-13T03:24:03Z</time>
      </trkpt>
      <trkpt lat="46.24334" lon="5.89707">
        <ele>723</ele>
        <time>2026-05-13T03:24:05Z</time>
      </trkpt>
      <trkpt lat="46.24352" lon="5.89721">
        <ele>724.2</ele>
        <time>2026-05-13T03:24:13Z</time>
      </trkpt>
      <trkpt lat="46.24374" lon="5.89735">
        <ele>725.4</ele>
        <time>2026-05-13T03:24:20Z</time>
      </trkpt>
      <trkpt lat="46.2438" lon="5.89736">
        <ele>725.8</ele>
        <time>2026-05-13T03:24:23Z</time>
      </trkpt>
      <trkpt lat="46.24394" lon="5.8974">
        <ele>726.4</ele>
        <time>2026-05-13T03:24:27Z</time>
      </trkpt>
      <trkpt lat="46.24406" lon="5.8974">
        <ele>727.2</ele>
        <time>2026-05-13T03:24:32Z</time>
      </trkpt>
      <trkpt lat="46.24414" lon="5.89738">
        <ele>727.4</ele>
        <time>2026-05-13T03:24:34Z</time>
      </trkpt>
      <trkpt lat="46.24425" lon="5.89735">
        <ele>728.4</ele>
        <time>2026-05-13T03:24:39Z</time>
      </trkpt>
      <trkpt lat="46.24431" lon="5.89734">
        <ele>728.6</ele>
        <time>2026-05-13T03:24:40Z</time>
      </trkpt>
      <trkpt lat="46.2445" lon="5.89727">
        <ele>729.4</ele>
        <time>2026-05-13T03:24:47Z</time>
      </trkpt>
      <trkpt lat="46.24455" lon="5.89725">
        <ele>730</ele>
        <time>2026-05-13T03:24:49Z</time>
      </trkpt>
      <trkpt lat="46.24466" lon="5.89721">
        <ele>730.6</ele>
        <time>2026-05-13T03:24:53Z</time>
      </trkpt>
      <trkpt lat="46.24476" lon="5.89717">
        <ele>731.4</ele>
        <time>2026-05-13T03:24:58Z</time>
      </trkpt>
      <trkpt lat="46.24481" lon="5.89715">
        <ele>731.6</ele>
        <time>2026-05-13T03:25:00Z</time>
      </trkpt>
      <trkpt lat="46.24496" lon="5.8971">
        <ele>732.6</ele>
        <time>2026-05-13T03:25:06Z</time>
      </trkpt>
      <trkpt lat="46.24501" lon="5.89708">
        <ele>732.8</ele>
        <time>2026-05-13T03:25:07Z</time>
      </trkpt>
      <trkpt lat="46.24515" lon="5.89706">
        <ele>733.4</ele>
        <time>2026-05-13T03:25:12Z</time>
      </trkpt>
      <trkpt lat="46.24523" lon="5.89705">
        <ele>733.8</ele>
        <time>2026-05-13T03:25:15Z</time>
      </trkpt>
      <trkpt lat="46.24542" lon="5.89707">
        <ele>734.8</ele>
        <time>2026-05-13T03:25:22Z</time>
      </trkpt>
      <trkpt lat="46.24542" lon="5.89707">
        <ele>735.2</ele>
        <time>2026-05-13T03:25:23Z</time>
      </trkpt>
      <trkpt lat="46.24562" lon="5.89707">
        <ele>735.8</ele>
        <time>2026-05-13T03:25:29Z</time>
      </trkpt>
      <trkpt lat="46.24562" lon="5.89707">
        <ele>736</ele>
        <time>2026-05-13T03:25:30Z</time>
      </trkpt>
      <trkpt lat="46.24573" lon="5.89707">
        <ele>736.8</ele>
        <time>2026-05-13T03:25:34Z</time>
      </trkpt>
      <trkpt lat="46.24591" lon="5.89704">
        <ele>737.8</ele>
        <time>2026-05-13T03:25:41Z</time>
      </trkpt>
      <trkpt lat="46.24596" lon="5.89703">
        <ele>737.8</ele>
        <time>2026-05-13T03:25:42Z</time>
      </trkpt>
      <trkpt lat="46.24611" lon="5.89693">
        <ele>739</ele>
        <time>2026-05-13T03:25:48Z</time>
      </trkpt>
      <trkpt lat="46.24623" lon="5.89674">
        <ele>739.8</ele>
        <time>2026-05-13T03:25:55Z</time>
      </trkpt>
      <trkpt lat="46.24627" lon="5.89663">
        <ele>740.2</ele>
        <time>2026-05-13T03:25:58Z</time>
      </trkpt>
      <trkpt lat="46.2463" lon="5.89644">
        <ele>741.2</ele>
        <time>2026-05-13T03:26:03Z</time>
      </trkpt>
      <trkpt lat="46.24631" lon="5.89637">
        <ele>741.6</ele>
        <time>2026-05-13T03:26:05Z</time>
      </trkpt>
      <trkpt lat="46.2463" lon="5.89616">
        <ele>742.2</ele>
        <time>2026-05-13T03:26:10Z</time>
      </trkpt>
      <trkpt lat="46.24627" lon="5.89604">
        <ele>742.8</ele>
        <time>2026-05-13T03:26:13Z</time>
      </trkpt>
      <trkpt lat="46.24624" lon="5.89594">
        <ele>743.2</ele>
        <time>2026-05-13T03:26:16Z</time>
      </trkpt>
      <trkpt lat="46.24615" lon="5.89575">
        <ele>744.2</ele>
        <time>2026-05-13T03:26:22Z</time>
      </trkpt>
      <trkpt lat="46.24613" lon="5.89571">
        <ele>744.2</ele>
        <time>2026-05-13T03:26:23Z</time>
      </trkpt>
      <trkpt lat="46.24603" lon="5.89551">
        <ele>745</ele>
        <time>2026-05-13T03:26:29Z</time>
      </trkpt>
      <trkpt lat="46.24601" lon="5.89544">
        <ele>745.2</ele>
        <time>2026-05-13T03:26:31Z</time>
      </trkpt>
      <trkpt lat="46.24596" lon="5.89524">
        <ele>746</ele>
        <time>2026-05-13T03:26:36Z</time>
      </trkpt>
      <trkpt lat="46.24595" lon="5.89515">
        <ele>746.4</ele>
        <time>2026-05-13T03:26:38Z</time>
      </trkpt>
      <trkpt lat="46.24598" lon="5.89495">
        <ele>747.4</ele>
        <time>2026-05-13T03:26:43Z</time>
      </trkpt>
      <trkpt lat="46.246" lon="5.89491">
        <ele>747.8</ele>
        <time>2026-05-13T03:26:44Z</time>
      </trkpt>
      <trkpt lat="46.2461" lon="5.89477">
        <ele>748.4</ele>
        <time>2026-05-13T03:26:49Z</time>
      </trkpt>
      <trkpt lat="46.24621" lon="5.89465">
        <ele>748.8</ele>
        <time>2026-05-13T03:26:54Z</time>
      </trkpt>
      <trkpt lat="46.24632" lon="5.89454">
        <ele>749.4</ele>
        <time>2026-05-13T03:26:58Z</time>
      </trkpt>
      <trkpt lat="46.24636" lon="5.8945">
        <ele>749.6</ele>
        <time>2026-05-13T03:27:00Z</time>
      </trkpt>
      <trkpt lat="46.24638" lon="5.89448">
        <ele>749.4</ele>
        <time>2026-05-13T03:27:02Z</time>
      </trkpt>
      <trkpt lat="46.24642" lon="5.89445">
        <ele>749.8</ele>
        <time>2026-05-13T03:27:05Z</time>
      </trkpt>
      <trkpt lat="46.24815" lon="5.89301">
        <ele>750.8</ele>
        <time>2026-05-13T03:27:46Z</time>
      </trkpt>
      <trkpt lat="46.24817" lon="5.89289">
        <ele>751</ele>
        <time>2026-05-13T03:27:47Z</time>
      </trkpt>
      <trkpt lat="46.24823" lon="5.89287">
        <ele>751</ele>
        <time>2026-05-13T03:27:48Z</time>
      </trkpt>
      <trkpt lat="46.24838" lon="5.89281">
        <ele>751.2</ele>
        <time>2026-05-13T03:27:51Z</time>
      </trkpt>
      <trkpt lat="46.24845" lon="5.89281">
        <ele>751.2</ele>
        <time>2026-05-13T03:27:52Z</time>
      </trkpt>
      <trkpt lat="46.24867" lon="5.89287">
        <ele>751.2</ele>
        <time>2026-05-13T03:27:56Z</time>
      </trkpt>
      <trkpt lat="46.2488" lon="5.89289">
        <ele>751</ele>
        <time>2026-05-13T03:27:58Z</time>
      </trkpt>
      <trkpt lat="46.2489" lon="5.89291">
        <ele>751</ele>
        <time>2026-05-13T03:28:00Z</time>
      </trkpt>
      <trkpt lat="46.24898" lon="5.89294">
        <ele>751</ele>
        <time>2026-05-13T03:28:02Z</time>
      </trkpt>
      <trkpt lat="46.24911" lon="5.893">
        <ele>750.8</ele>
        <time>2026-05-13T03:28:05Z</time>
      </trkpt>
      <trkpt lat="46.24913" lon="5.89303">
        <ele>750.8</ele>
        <time>2026-05-13T03:28:06Z</time>
      </trkpt>
      <trkpt lat="46.24918" lon="5.89308">
        <ele>750.8</ele>
        <time>2026-05-13T03:28:08Z</time>
      </trkpt>
      <trkpt lat="46.24922" lon="5.8931">
        <ele>750.8</ele>
        <time>2026-05-13T03:28:09Z</time>
      </trkpt>
      <trkpt lat="46.24938" lon="5.89316">
        <ele>750.8</ele>
        <time>2026-05-13T03:28:12Z</time>
      </trkpt>
      <trkpt lat="46.24941" lon="5.89317">
        <ele>750.6</ele>
        <time>2026-05-13T03:28:13Z</time>
      </trkpt>
      <trkpt lat="46.24952" lon="5.89323">
        <ele>750.8</ele>
        <time>2026-05-13T03:28:16Z</time>
      </trkpt>
      <trkpt lat="46.24964" lon="5.89324">
        <ele>750.8</ele>
        <time>2026-05-13T03:28:18Z</time>
      </trkpt>
      <trkpt lat="46.24974" lon="5.89325">
        <ele>750.8</ele>
        <time>2026-05-13T03:28:20Z</time>
      </trkpt>
      <trkpt lat="46.24983" lon="5.89327">
        <ele>750.8</ele>
        <time>2026-05-13T03:28:22Z</time>
      </trkpt>
      <trkpt lat="46.24993" lon="5.89326">
        <ele>750.8</ele>
        <time>2026-05-13T03:28:23Z</time>
      </trkpt>
      <trkpt lat="46.25004" lon="5.89329">
        <ele>750.8</ele>
        <time>2026-05-13T03:28:25Z</time>
      </trkpt>
      <trkpt lat="46.25029" lon="5.89339">
        <ele>750.6</ele>
        <time>2026-05-13T03:28:28Z</time>
      </trkpt>
      <trkpt lat="46.2507" lon="5.89362">
        <ele>750</ele>
        <time>2026-05-13T03:28:36Z</time>
      </trkpt>
      <trkpt lat="46.25102" lon="5.89372">
        <ele>750</ele>
        <time>2026-05-13T03:28:42Z</time>
      </trkpt>
      <trkpt lat="46.25132" lon="5.89376">
        <ele>750</ele>
        <time>2026-05-13T03:28:48Z</time>
      </trkpt>
      <trkpt lat="46.25152" lon="5.89376">
        <ele>750.2</ele>
        <time>2026-05-13T03:28:52Z</time>
      </trkpt>
      <trkpt lat="46.25166" lon="5.8938">
        <ele>750.4</ele>
        <time>2026-05-13T03:28:55Z</time>
      </trkpt>
      <trkpt lat="46.2518" lon="5.89384">
        <ele>750.6</ele>
        <time>2026-05-13T03:28:58Z</time>
      </trkpt>
      <trkpt lat="46.25211" lon="5.89392">
        <ele>750.8</ele>
        <time>2026-05-13T03:29:05Z</time>
      </trkpt>
      <trkpt lat="46.2524" lon="5.89399">
        <ele>751.2</ele>
        <time>2026-05-13T03:29:11Z</time>
      </trkpt>
      <trkpt lat="46.25248" lon="5.89401">
        <ele>751.2</ele>
        <time>2026-05-13T03:29:13Z</time>
      </trkpt>
      <trkpt lat="46.25253" lon="5.89402">
        <ele>751.2</ele>
        <time>2026-05-13T03:29:14Z</time>
      </trkpt>
      <trkpt lat="46.25266" lon="5.89403">
        <ele>751.4</ele>
        <time>2026-05-13T03:29:17Z</time>
      </trkpt>
      <trkpt lat="46.2527" lon="5.89405">
        <ele>751.4</ele>
        <time>2026-05-13T03:29:18Z</time>
      </trkpt>
      <trkpt lat="46.25274" lon="5.89408">
        <ele>751.4</ele>
        <time>2026-05-13T03:29:19Z</time>
      </trkpt>
      <trkpt lat="46.25285" lon="5.89416">
        <ele>751.6</ele>
        <time>2026-05-13T03:29:22Z</time>
      </trkpt>
      <trkpt lat="46.25291" lon="5.89423">
        <ele>751.6</ele>
        <time>2026-05-13T03:29:24Z</time>
      </trkpt>
      <trkpt lat="46.2531" lon="5.89441">
        <ele>752.2</ele>
        <time>2026-05-13T03:29:30Z</time>
      </trkpt>
      <trkpt lat="46.25319" lon="5.8945">
        <ele>752.8</ele>
        <time>2026-05-13T03:29:33Z</time>
      </trkpt>
      <trkpt lat="46.25331" lon="5.89461">
        <ele>753.4</ele>
        <time>2026-05-13T03:29:37Z</time>
      </trkpt>
      <trkpt lat="46.25345" lon="5.89472">
        <ele>753.8</ele>
        <time>2026-05-13T03:29:41Z</time>
      </trkpt>
      <trkpt lat="46.25357" lon="5.89477">
        <ele>754</ele>
        <time>2026-05-13T03:29:44Z</time>
      </trkpt>
      <trkpt lat="46.25386" lon="5.89489">
        <ele>754.8</ele>
        <time>2026-05-13T03:29:51Z</time>
      </trkpt>
      <trkpt lat="46.25389" lon="5.8949">
        <ele>755</ele>
        <time>2026-05-13T03:29:52Z</time>
      </trkpt>
      <trkpt lat="46.25394" lon="5.89494">
        <ele>755.2</ele>
        <time>2026-05-13T03:29:54Z</time>
      </trkpt>
      <trkpt lat="46.25416" lon="5.89505">
        <ele>755.6</ele>
        <time>2026-05-13T03:30:00Z</time>
      </trkpt>
      <trkpt lat="46.25423" lon="5.89509">
        <ele>755.8</ele>
        <time>2026-05-13T03:30:02Z</time>
      </trkpt>
      <trkpt lat="46.25434" lon="5.89514">
        <ele>756</ele>
        <time>2026-05-13T03:30:05Z</time>
      </trkpt>
      <trkpt lat="46.25442" lon="5.89517">
        <ele>756.2</ele>
        <time>2026-05-13T03:30:07Z</time>
      </trkpt>
      <trkpt lat="46.25474" lon="5.89542">
        <ele>756.6</ele>
        <time>2026-05-13T03:30:16Z</time>
      </trkpt>
      <trkpt lat="46.25485" lon="5.89554">
        <ele>756.6</ele>
        <time>2026-05-13T03:30:20Z</time>
      </trkpt>
      <trkpt lat="46.25491" lon="5.89559">
        <ele>756.8</ele>
        <time>2026-05-13T03:30:22Z</time>
      </trkpt>
      <trkpt lat="46.25497" lon="5.89566">
        <ele>757.2</ele>
        <time>2026-05-13T03:30:25Z</time>
      </trkpt>
      <trkpt lat="46.25498" lon="5.8957">
        <ele>757.4</ele>
        <time>2026-05-13T03:30:27Z</time>
      </trkpt>
      <trkpt lat="46.25499" lon="5.89572">
        <ele>757.6</ele>
        <time>2026-05-13T03:30:29Z</time>
      </trkpt>
      <trkpt lat="46.25501" lon="5.89578">
        <ele>758.2</ele>
        <time>2026-05-13T03:30:32Z</time>
      </trkpt>
      <trkpt lat="46.25504" lon="5.89586">
        <ele>759</ele>
        <time>2026-05-13T03:30:35Z</time>
      </trkpt>
      <trkpt lat="46.25509" lon="5.89592">
        <ele>759.4</ele>
        <time>2026-05-13T03:30:38Z</time>
      </trkpt>
      <trkpt lat="46.25511" lon="5.89595">
        <ele>759.6</ele>
        <time>2026-05-13T03:30:39Z</time>
      </trkpt>
      <trkpt lat="46.25517" lon="5.89603">
        <ele>760</ele>
        <time>2026-05-13T03:30:42Z</time>
      </trkpt>
      <trkpt lat="46.25518" lon="5.89606">
        <ele>760.4</ele>
        <time>2026-05-13T03:30:44Z</time>
      </trkpt>
      <trkpt lat="46.25526" lon="5.8961">
        <ele>760.8</ele>
        <time>2026-05-13T03:30:46Z</time>
      </trkpt>
      <trkpt lat="46.25527" lon="5.89611">
        <ele>761.2</ele>
        <time>2026-05-13T03:30:48Z</time>
      </trkpt>
      <trkpt lat="46.25529" lon="5.89613">
        <ele>761.4</ele>
        <time>2026-05-13T03:30:49Z</time>
      </trkpt>
      <trkpt lat="46.2553" lon="5.89616">
        <ele>762</ele>
        <time>2026-05-13T03:30:51Z</time>
      </trkpt>
      <trkpt lat="46.25532" lon="5.89619">
        <ele>762.2</ele>
        <time>2026-05-13T03:30:52Z</time>
      </trkpt>
      <trkpt lat="46.25533" lon="5.89622">
        <ele>762.4</ele>
        <time>2026-05-13T03:30:54Z</time>
      </trkpt>
      <trkpt lat="46.25545" lon="5.89636">
        <ele>763</ele>
        <time>2026-05-13T03:30:58Z</time>
      </trkpt>
      <trkpt lat="46.25548" lon="5.89639">
        <ele>763.2</ele>
        <time>2026-05-13T03:30:59Z</time>
      </trkpt>
      <trkpt lat="46.25555" lon="5.89648">
        <ele>763.6</ele>
        <time>2026-05-13T03:31:01Z</time>
      </trkpt>
      <trkpt lat="46.25562" lon="5.89651">
        <ele>763.8</ele>
        <time>2026-05-13T03:31:02Z</time>
      </trkpt>
      <trkpt lat="46.25582" lon="5.89662">
        <ele>764.6</ele>
        <time>2026-05-13T03:31:06Z</time>
      </trkpt>
      <trkpt lat="46.25584" lon="5.89665">
        <ele>764.6</ele>
        <time>2026-05-13T03:31:07Z</time>
      </trkpt>
      <trkpt lat="46.25595" lon="5.89677">
        <ele>765.6</ele>
        <time>2026-05-13T03:31:12Z</time>
      </trkpt>
      <trkpt lat="46.25598" lon="5.89681">
        <ele>765.6</ele>
        <time>2026-05-13T03:31:13Z</time>
      </trkpt>
      <trkpt lat="46.25611" lon="5.89696">
        <ele>766.6</ele>
        <time>2026-05-13T03:31:19Z</time>
      </trkpt>
      <trkpt lat="46.25618" lon="5.89704">
        <ele>767</ele>
        <time>2026-05-13T03:31:22Z</time>
      </trkpt>
      <trkpt lat="46.25621" lon="5.89707">
        <ele>767</ele>
        <time>2026-05-13T03:31:23Z</time>
      </trkpt>
      <trkpt lat="46.25623" lon="5.89715">
        <ele>767.6</ele>
        <time>2026-05-13T03:31:26Z</time>
      </trkpt>
      <trkpt lat="46.25631" lon="5.89721">
        <ele>768.2</ele>
        <time>2026-05-13T03:31:29Z</time>
      </trkpt>
      <trkpt lat="46.25635" lon="5.89731">
        <ele>768.8</ele>
        <time>2026-05-13T03:31:33Z</time>
      </trkpt>
      <trkpt lat="46.25635" lon="5.89733">
        <ele>768.8</ele>
        <time>2026-05-13T03:31:34Z</time>
      </trkpt>
      <trkpt lat="46.25641" lon="5.89743">
        <ele>769.8</ele>
        <time>2026-05-13T03:31:38Z</time>
      </trkpt>
      <trkpt lat="46.25647" lon="5.89746">
        <ele>770.4</ele>
        <time>2026-05-13T03:31:40Z</time>
      </trkpt>
      <trkpt lat="46.2565" lon="5.89752">
        <ele>771</ele>
        <time>2026-05-13T03:31:42Z</time>
      </trkpt>
      <trkpt lat="46.25653" lon="5.89758">
        <ele>771.2</ele>
        <time>2026-05-13T03:31:44Z</time>
      </trkpt>
      <trkpt lat="46.25658" lon="5.89766">
        <ele>771.8</ele>
        <time>2026-05-13T03:31:47Z</time>
      </trkpt>
      <trkpt lat="46.2566" lon="5.89771">
        <ele>772</ele>
        <time>2026-05-13T03:31:49Z</time>
      </trkpt>
      <trkpt lat="46.25666" lon="5.89776">
        <ele>772.2</ele>
        <time>2026-05-13T03:31:51Z</time>
      </trkpt>
      <trkpt lat="46.25668" lon="5.89781">
        <ele>772.6</ele>
        <time>2026-05-13T03:31:53Z</time>
      </trkpt>
      <trkpt lat="46.25675" lon="5.89789">
        <ele>773</ele>
        <time>2026-05-13T03:31:56Z</time>
      </trkpt>
      <trkpt lat="46.25678" lon="5.89796">
        <ele>773.2</ele>
        <time>2026-05-13T03:31:58Z</time>
      </trkpt>
      <trkpt lat="46.25679" lon="5.89799">
        <ele>773.4</ele>
        <time>2026-05-13T03:31:59Z</time>
      </trkpt>
      <trkpt lat="46.25685" lon="5.89803">
        <ele>773.6</ele>
        <time>2026-05-13T03:32:01Z</time>
      </trkpt>
      <trkpt lat="46.25692" lon="5.89806">
        <ele>774</ele>
        <time>2026-05-13T03:32:04Z</time>
      </trkpt>
      <trkpt lat="46.25698" lon="5.89805">
        <ele>774</ele>
        <time>2026-05-13T03:32:05Z</time>
      </trkpt>
      <trkpt lat="46.25703" lon="5.89805">
        <ele>774</ele>
        <time>2026-05-13T03:32:06Z</time>
      </trkpt>
      <trkpt lat="46.25712" lon="5.89814">
        <ele>774.8</ele>
        <time>2026-05-13T03:32:11Z</time>
      </trkpt>
      <trkpt lat="46.25714" lon="5.89818">
        <ele>775</ele>
        <time>2026-05-13T03:32:12Z</time>
      </trkpt>
      <trkpt lat="46.25719" lon="5.89826">
        <ele>775.4</ele>
        <time>2026-05-13T03:32:15Z</time>
      </trkpt>
      <trkpt lat="46.25723" lon="5.89828">
        <ele>775.4</ele>
        <time>2026-05-13T03:32:16Z</time>
      </trkpt>
      <trkpt lat="46.25727" lon="5.89833">
        <ele>775.8</ele>
        <time>2026-05-13T03:32:18Z</time>
      </trkpt>
      <trkpt lat="46.25728" lon="5.89835">
        <ele>775.8</ele>
        <time>2026-05-13T03:32:19Z</time>
      </trkpt>
      <trkpt lat="46.25731" lon="5.89839">
        <ele>776.2</ele>
        <time>2026-05-13T03:32:21Z</time>
      </trkpt>
      <trkpt lat="46.25737" lon="5.89851">
        <ele>776.6</ele>
        <time>2026-05-13T03:32:25Z</time>
      </trkpt>
      <trkpt lat="46.25744" lon="5.89862">
        <ele>777.2</ele>
        <time>2026-05-13T03:32:29Z</time>
      </trkpt>
      <trkpt lat="46.25747" lon="5.89872">
        <ele>777.6</ele>
        <time>2026-05-13T03:32:32Z</time>
      </trkpt>
      <trkpt lat="46.25755" lon="5.8988">
        <ele>777.8</ele>
        <time>2026-05-13T03:32:34Z</time>
      </trkpt>
      <trkpt lat="46.25764" lon="5.89891">
        <ele>778.2</ele>
        <time>2026-05-13T03:32:37Z</time>
      </trkpt>
      <trkpt lat="46.25767" lon="5.89893">
        <ele>778.2</ele>
        <time>2026-05-13T03:32:38Z</time>
      </trkpt>
      <trkpt lat="46.25773" lon="5.89898">
        <ele>778.4</ele>
        <time>2026-05-13T03:32:40Z</time>
      </trkpt>
      <trkpt lat="46.25791" lon="5.89916">
        <ele>778.6</ele>
        <time>2026-05-13T03:32:46Z</time>
      </trkpt>
      <trkpt lat="46.25807" lon="5.89932">
        <ele>779</ele>
        <time>2026-05-13T03:32:51Z</time>
      </trkpt>
      <trkpt lat="46.25809" lon="5.89935">
        <ele>779.2</ele>
        <time>2026-05-13T03:32:52Z</time>
      </trkpt>
      <trkpt lat="46.25817" lon="5.89948">
        <ele>779.6</ele>
        <time>2026-05-13T03:32:56Z</time>
      </trkpt>
      <trkpt lat="46.25819" lon="5.89951">
        <ele>779.4</ele>
        <time>2026-05-13T03:32:57Z</time>
      </trkpt>
      <trkpt lat="46.25824" lon="5.89956">
        <ele>779.6</ele>
        <time>2026-05-13T03:32:59Z</time>
      </trkpt>
      <trkpt lat="46.25832" lon="5.8996">
        <ele>779.8</ele>
        <time>2026-05-13T03:33:01Z</time>
      </trkpt>
      <trkpt lat="46.25837" lon="5.89965">
        <ele>779.8</ele>
        <time>2026-05-13T03:33:03Z</time>
      </trkpt>
      <trkpt lat="46.25839" lon="5.89969">
        <ele>780</ele>
        <time>2026-05-13T03:33:04Z</time>
      </trkpt>
      <trkpt lat="46.25847" lon="5.89984">
        <ele>780.4</ele>
        <time>2026-05-13T03:33:07Z</time>
      </trkpt>
      <trkpt lat="46.25852" lon="5.89993">
        <ele>780.8</ele>
        <time>2026-05-13T03:33:09Z</time>
      </trkpt>
      <trkpt lat="46.2586" lon="5.9001">
        <ele>781</ele>
        <time>2026-05-13T03:33:13Z</time>
      </trkpt>
      <trkpt lat="46.25861" lon="5.90015">
        <ele>781.2</ele>
        <time>2026-05-13T03:33:14Z</time>
      </trkpt>
      <trkpt lat="46.2588" lon="5.90035">
        <ele>781.6</ele>
        <time>2026-05-13T03:33:20Z</time>
      </trkpt>
      <trkpt lat="46.25885" lon="5.90037">
        <ele>781.8</ele>
        <time>2026-05-13T03:33:21Z</time>
      </trkpt>
      <trkpt lat="46.25914" lon="5.90042">
        <ele>782.4</ele>
        <time>2026-05-13T03:33:26Z</time>
      </trkpt>
      <trkpt lat="46.25931" lon="5.9005">
        <ele>782.4</ele>
        <time>2026-05-13T03:33:31Z</time>
      </trkpt>
      <trkpt lat="46.25948" lon="5.90059">
        <ele>782.8</ele>
        <time>2026-05-13T03:33:36Z</time>
      </trkpt>
      <trkpt lat="46.25949" lon="5.90061">
        <ele>782.8</ele>
        <time>2026-05-13T03:33:37Z</time>
      </trkpt>
      <trkpt lat="46.2595" lon="5.90062">
        <ele>783</ele>
        <time>2026-05-13T03:33:38Z</time>
      </trkpt>
      <trkpt lat="46.2595" lon="5.90064">
        <ele>783.2</ele>
        <time>2026-05-13T03:33:41Z</time>
      </trkpt>
      <trkpt lat="46.25959" lon="5.90077">
        <ele>783.4</ele>
        <time>2026-05-13T03:33:45Z</time>
      </trkpt>
      <trkpt lat="46.25963" lon="5.90086">
        <ele>783.6</ele>
        <time>2026-05-13T03:33:47Z</time>
      </trkpt>
      <trkpt lat="46.25966" lon="5.90097">
        <ele>783.6</ele>
        <time>2026-05-13T03:33:49Z</time>
      </trkpt>
      <trkpt lat="46.25973" lon="5.90112">
        <ele>784</ele>
        <time>2026-05-13T03:33:52Z</time>
      </trkpt>
      <trkpt lat="46.25975" lon="5.90116">
        <ele>784</ele>
        <time>2026-05-13T03:33:53Z</time>
      </trkpt>
      <trkpt lat="46.25989" lon="5.90139">
        <ele>784.4</ele>
        <time>2026-05-13T03:33:57Z</time>
      </trkpt>
      <trkpt lat="46.25996" lon="5.9015">
        <ele>784.6</ele>
        <time>2026-05-13T03:33:59Z</time>
      </trkpt>
      <trkpt lat="46.25999" lon="5.90155">
        <ele>784.8</ele>
        <time>2026-05-13T03:34:00Z</time>
      </trkpt>
      <trkpt lat="46.26013" lon="5.90164">
        <ele>785</ele>
        <time>2026-05-13T03:34:03Z</time>
      </trkpt>
      <trkpt lat="46.26022" lon="5.90189">
        <ele>785.4</ele>
        <time>2026-05-13T03:34:07Z</time>
      </trkpt>
      <trkpt lat="46.26036" lon="5.90204">
        <ele>786</ele>
        <time>2026-05-13T03:34:11Z</time>
      </trkpt>
      <trkpt lat="46.26038" lon="5.90208">
        <ele>786.2</ele>
        <time>2026-05-13T03:34:12Z</time>
      </trkpt>
      <trkpt lat="46.26041" lon="5.90217">
        <ele>786.4</ele>
        <time>2026-05-13T03:34:14Z</time>
      </trkpt>
      <trkpt lat="46.26042" lon="5.90223">
        <ele>786.2</ele>
        <time>2026-05-13T03:34:15Z</time>
      </trkpt>
      <trkpt lat="46.26049" lon="5.90235">
        <ele>786.6</ele>
        <time>2026-05-13T03:34:18Z</time>
      </trkpt>
      <trkpt lat="46.26053" lon="5.9024">
        <ele>786.6</ele>
        <time>2026-05-13T03:34:19Z</time>
      </trkpt>
      <trkpt lat="46.26057" lon="5.90244">
        <ele>786.8</ele>
        <time>2026-05-13T03:34:20Z</time>
      </trkpt>
      <trkpt lat="46.26067" lon="5.90255">
        <ele>786.8</ele>
        <time>2026-05-13T03:34:23Z</time>
      </trkpt>
      <trkpt lat="46.26083" lon="5.90264">
        <ele>786.8</ele>
        <time>2026-05-13T03:34:26Z</time>
      </trkpt>
      <trkpt lat="46.26089" lon="5.9027">
        <ele>786.8</ele>
        <time>2026-05-13T03:34:28Z</time>
      </trkpt>
      <trkpt lat="46.26099" lon="5.90276">
        <ele>786.6</ele>
        <time>2026-05-13T03:34:31Z</time>
      </trkpt>
      <trkpt lat="46.26115" lon="5.90282">
        <ele>786.4</ele>
        <time>2026-05-13T03:34:34Z</time>
      </trkpt>
      <trkpt lat="46.26135" lon="5.90291">
        <ele>786.2</ele>
        <time>2026-05-13T03:34:37Z</time>
      </trkpt>
      <trkpt lat="46.2616" lon="5.90301">
        <ele>786.2</ele>
        <time>2026-05-13T03:34:41Z</time>
      </trkpt>
      <trkpt lat="46.26188" lon="5.90316">
        <ele>786.2</ele>
        <time>2026-05-13T03:34:47Z</time>
      </trkpt>
      <trkpt lat="46.2621" lon="5.90329">
        <ele>786.4</ele>
        <time>2026-05-13T03:34:52Z</time>
      </trkpt>
      <trkpt lat="46.26213" lon="5.90338">
        <ele>786.6</ele>
        <time>2026-05-13T03:34:54Z</time>
      </trkpt>
      <trkpt lat="46.26216" lon="5.9034">
        <ele>786.8</ele>
        <time>2026-05-13T03:34:55Z</time>
      </trkpt>
      <trkpt lat="46.26218" lon="5.90341">
        <ele>786.8</ele>
        <time>2026-05-13T03:34:56Z</time>
      </trkpt>
      <trkpt lat="46.26229" lon="5.90347">
        <ele>787</ele>
        <time>2026-05-13T03:34:59Z</time>
      </trkpt>
      <trkpt lat="46.26241" lon="5.9035">
        <ele>787</ele>
        <time>2026-05-13T03:35:01Z</time>
      </trkpt>
      <trkpt lat="46.26243" lon="5.90351">
        <ele>787</ele>
        <time>2026-05-13T03:35:02Z</time>
      </trkpt>
      <trkpt lat="46.26261" lon="5.90352">
        <ele>787.2</ele>
        <time>2026-05-13T03:35:05Z</time>
      </trkpt>
      <trkpt lat="46.26267" lon="5.90352">
        <ele>787.2</ele>
        <time>2026-05-13T03:35:06Z</time>
      </trkpt>
      <trkpt lat="46.26288" lon="5.90357">
        <ele>787.2</ele>
        <time>2026-05-13T03:35:10Z</time>
      </trkpt>
      <trkpt lat="46.26301" lon="5.90367">
        <ele>787.2</ele>
        <time>2026-05-13T03:35:13Z</time>
      </trkpt>
      <trkpt lat="46.26309" lon="5.90375">
        <ele>787.2</ele>
        <time>2026-05-13T03:35:15Z</time>
      </trkpt>
      <trkpt lat="46.26326" lon="5.90389">
        <ele>787</ele>
        <time>2026-05-13T03:35:18Z</time>
      </trkpt>
      <trkpt lat="46.26346" lon="5.90415">
        <ele>786.6</ele>
        <time>2026-05-13T03:35:23Z</time>
      </trkpt>
      <trkpt lat="46.26378" lon="5.90442">
        <ele>786</ele>
        <time>2026-05-13T03:35:28Z</time>
      </trkpt>
      <trkpt lat="46.26388" lon="5.90452">
        <ele>786</ele>
        <time>2026-05-13T03:35:30Z</time>
      </trkpt>
      <trkpt lat="46.26392" lon="5.90456">
        <ele>785.8</ele>
        <time>2026-05-13T03:35:31Z</time>
      </trkpt>
      <trkpt lat="46.26396" lon="5.9046">
        <ele>785.6</ele>
        <time>2026-05-13T03:35:32Z</time>
      </trkpt>
      <trkpt lat="46.264" lon="5.90465">
        <ele>785.4</ele>
        <time>2026-05-13T03:35:33Z</time>
      </trkpt>
      <trkpt lat="46.26404" lon="5.90467">
        <ele>785.4</ele>
        <time>2026-05-13T03:35:34Z</time>
      </trkpt>
      <trkpt lat="46.26409" lon="5.90469">
        <ele>785.2</ele>
        <time>2026-05-13T03:35:35Z</time>
      </trkpt>
      <trkpt lat="46.26413" lon="5.90472">
        <ele>785.2</ele>
        <time>2026-05-13T03:35:36Z</time>
      </trkpt>
      <trkpt lat="46.26423" lon="5.90477">
        <ele>785</ele>
        <time>2026-05-13T03:35:38Z</time>
      </trkpt>
      <trkpt lat="46.26432" lon="5.90483">
        <ele>784.8</ele>
        <time>2026-05-13T03:35:40Z</time>
      </trkpt>
      <trkpt lat="46.26442" lon="5.9049">
        <ele>784.6</ele>
        <time>2026-05-13T03:35:42Z</time>
      </trkpt>
      <trkpt lat="46.26444" lon="5.90494">
        <ele>784.4</ele>
        <time>2026-05-13T03:35:43Z</time>
      </trkpt>
      <trkpt lat="46.26447" lon="5.90498">
        <ele>784.2</ele>
        <time>2026-05-13T03:35:45Z</time>
      </trkpt>
      <trkpt lat="46.26455" lon="5.90506">
        <ele>784</ele>
        <time>2026-05-13T03:35:47Z</time>
      </trkpt>
      <trkpt lat="46.26461" lon="5.90508">
        <ele>783.8</ele>
        <time>2026-05-13T03:35:48Z</time>
      </trkpt>
      <trkpt lat="46.26478" lon="5.90512">
        <ele>783.8</ele>
        <time>2026-05-13T03:35:50Z</time>
      </trkpt>
      <trkpt lat="46.26498" lon="5.90519">
        <ele>783.6</ele>
        <time>2026-05-13T03:35:53Z</time>
      </trkpt>
      <trkpt lat="46.26504" lon="5.90521">
        <ele>783.2</ele>
        <time>2026-05-13T03:35:54Z</time>
      </trkpt>
      <trkpt lat="46.2651" lon="5.90522">
        <ele>783.2</ele>
        <time>2026-05-13T03:35:55Z</time>
      </trkpt>
      <trkpt lat="46.26516" lon="5.90523">
        <ele>783</ele>
        <time>2026-05-13T03:35:56Z</time>
      </trkpt>
      <trkpt lat="46.2653" lon="5.90522">
        <ele>782.6</ele>
        <time>2026-05-13T03:35:58Z</time>
      </trkpt>
      <trkpt lat="46.26536" lon="5.90523">
        <ele>782.4</ele>
        <time>2026-05-13T03:35:59Z</time>
      </trkpt>
      <trkpt lat="46.26555" lon="5.90532">
        <ele>782</ele>
        <time>2026-05-13T03:36:02Z</time>
      </trkpt>
      <trkpt lat="46.26557" lon="5.90535">
        <ele>781.8</ele>
        <time>2026-05-13T03:36:03Z</time>
      </trkpt>
      <trkpt lat="46.26575" lon="5.90556">
        <ele>781.4</ele>
        <time>2026-05-13T03:36:07Z</time>
      </trkpt>
      <trkpt lat="46.26583" lon="5.90568">
        <ele>781.2</ele>
        <time>2026-05-13T03:36:09Z</time>
      </trkpt>
      <trkpt lat="46.26586" lon="5.90572">
        <ele>781.2</ele>
        <time>2026-05-13T03:36:10Z</time>
      </trkpt>
      <trkpt lat="46.26589" lon="5.90574">
        <ele>781</ele>
        <time>2026-05-13T03:36:11Z</time>
      </trkpt>
      <trkpt lat="46.266" lon="5.90583">
        <ele>781</ele>
        <time>2026-05-13T03:36:13Z</time>
      </trkpt>
      <trkpt lat="46.26613" lon="5.906">
        <ele>780.8</ele>
        <time>2026-05-13T03:36:16Z</time>
      </trkpt>
      <trkpt lat="46.26617" lon="5.90608">
        <ele>780.8</ele>
        <time>2026-05-13T03:36:17Z</time>
      </trkpt>
      <trkpt lat="46.26618" lon="5.90615">
        <ele>780.8</ele>
        <time>2026-05-13T03:36:18Z</time>
      </trkpt>
      <trkpt lat="46.26622" lon="5.90628">
        <ele>781</ele>
        <time>2026-05-13T03:36:20Z</time>
      </trkpt>
      <trkpt lat="46.26629" lon="5.90637">
        <ele>781</ele>
        <time>2026-05-13T03:36:22Z</time>
      </trkpt>
      <trkpt lat="46.26631" lon="5.90641">
        <ele>781</ele>
        <time>2026-05-13T03:36:23Z</time>
      </trkpt>
      <trkpt lat="46.26631" lon="5.90647">
        <ele>781</ele>
        <time>2026-05-13T03:36:24Z</time>
      </trkpt>
      <trkpt lat="46.26636" lon="5.90657">
        <ele>781.2</ele>
        <time>2026-05-13T03:36:26Z</time>
      </trkpt>
      <trkpt lat="46.2664" lon="5.90662">
        <ele>781.2</ele>
        <time>2026-05-13T03:36:27Z</time>
      </trkpt>
      <trkpt lat="46.26642" lon="5.90666">
        <ele>781.2</ele>
        <time>2026-05-13T03:36:28Z</time>
      </trkpt>
      <trkpt lat="46.26647" lon="5.90675">
        <ele>781.4</ele>
        <time>2026-05-13T03:36:30Z</time>
      </trkpt>
      <trkpt lat="46.26648" lon="5.9068">
        <ele>781.4</ele>
        <time>2026-05-13T03:36:31Z</time>
      </trkpt>
      <trkpt lat="46.2665" lon="5.90686">
        <ele>781.6</ele>
        <time>2026-05-13T03:36:32Z</time>
      </trkpt>
      <trkpt lat="46.26655" lon="5.90695">
        <ele>781.8</ele>
        <time>2026-05-13T03:36:34Z</time>
      </trkpt>
      <trkpt lat="46.26657" lon="5.907">
        <ele>781.8</ele>
        <time>2026-05-13T03:36:35Z</time>
      </trkpt>
      <trkpt lat="46.26659" lon="5.90705">
        <ele>782</ele>
        <time>2026-05-13T03:36:36Z</time>
      </trkpt>
      <trkpt lat="46.26661" lon="5.9071">
        <ele>782.2</ele>
        <time>2026-05-13T03:36:37Z</time>
      </trkpt>
      <trkpt lat="46.26673" lon="5.90732">
        <ele>782.8</ele>
        <time>2026-05-13T03:36:42Z</time>
      </trkpt>
      <trkpt lat="46.26677" lon="5.9074">
        <ele>783</ele>
        <time>2026-05-13T03:36:44Z</time>
      </trkpt>
      <trkpt lat="46.26691" lon="5.90758">
        <ele>783.8</ele>
        <time>2026-05-13T03:36:49Z</time>
      </trkpt>
      <trkpt lat="46.26694" lon="5.90761">
        <ele>784.2</ele>
        <time>2026-05-13T03:36:50Z</time>
      </trkpt>
      <trkpt lat="46.26709" lon="5.90773">
        <ele>785</ele>
        <time>2026-05-13T03:36:55Z</time>
      </trkpt>
      <trkpt lat="46.26715" lon="5.90778">
        <ele>785.2</ele>
        <time>2026-05-13T03:36:57Z</time>
      </trkpt>
      <trkpt lat="46.26736" lon="5.90792">
        <ele>786.2</ele>
        <time>2026-05-13T03:37:03Z</time>
      </trkpt>
      <trkpt lat="46.26747" lon="5.90798">
        <ele>786.8</ele>
        <time>2026-05-13T03:37:06Z</time>
      </trkpt>
      <trkpt lat="46.26752" lon="5.90804">
        <ele>787.2</ele>
        <time>2026-05-13T03:37:08Z</time>
      </trkpt>
      <trkpt lat="46.26756" lon="5.90813">
        <ele>787.8</ele>
        <time>2026-05-13T03:37:11Z</time>
      </trkpt>
      <trkpt lat="46.26759" lon="5.90818">
        <ele>788</ele>
        <time>2026-05-13T03:37:13Z</time>
      </trkpt>
      <trkpt lat="46.26762" lon="5.9082">
        <ele>788.2</ele>
        <time>2026-05-13T03:37:14Z</time>
      </trkpt>
      <trkpt lat="46.26771" lon="5.90829">
        <ele>789</ele>
        <time>2026-05-13T03:37:18Z</time>
      </trkpt>
      <trkpt lat="46.26776" lon="5.90831">
        <ele>789.2</ele>
        <time>2026-05-13T03:37:19Z</time>
      </trkpt>
      <trkpt lat="46.26784" lon="5.90841">
        <ele>790</ele>
        <time>2026-05-13T03:37:23Z</time>
      </trkpt>
      <trkpt lat="46.26786" lon="5.90845">
        <ele>790.6</ele>
        <time>2026-05-13T03:37:25Z</time>
      </trkpt>
      <trkpt lat="46.26798" lon="5.90853">
        <ele>791.4</ele>
        <time>2026-05-13T03:37:29Z</time>
      </trkpt>
      <trkpt lat="46.26801" lon="5.90857">
        <ele>791.6</ele>
        <time>2026-05-13T03:37:31Z</time>
      </trkpt>
      <trkpt lat="46.26809" lon="5.90867">
        <ele>792.8</ele>
        <time>2026-05-13T03:37:35Z</time>
      </trkpt>
      <trkpt lat="46.2681" lon="5.9087">
        <ele>792.6</ele>
        <time>2026-05-13T03:37:36Z</time>
      </trkpt>
      <trkpt lat="46.26817" lon="5.90885">
        <ele>793.6</ele>
        <time>2026-05-13T03:37:41Z</time>
      </trkpt>
      <trkpt lat="46.26818" lon="5.90888">
        <ele>793.8</ele>
        <time>2026-05-13T03:37:42Z</time>
      </trkpt>
      <trkpt lat="46.26821" lon="5.90897">
        <ele>794.6</ele>
        <time>2026-05-13T03:37:45Z</time>
      </trkpt>
      <trkpt lat="46.26824" lon="5.90903">
        <ele>795</ele>
        <time>2026-05-13T03:37:47Z</time>
      </trkpt>
      <trkpt lat="46.26828" lon="5.90912">
        <ele>795.6</ele>
        <time>2026-05-13T03:37:50Z</time>
      </trkpt>
      <trkpt lat="46.26836" lon="5.90929">
        <ele>796.6</ele>
        <time>2026-05-13T03:37:55Z</time>
      </trkpt>
      <trkpt lat="46.26838" lon="5.90932">
        <ele>796.6</ele>
        <time>2026-05-13T03:37:56Z</time>
      </trkpt>
      <trkpt lat="46.26846" lon="5.90945">
        <ele>797.8</ele>
        <time>2026-05-13T03:38:01Z</time>
      </trkpt>
      <trkpt lat="46.26848" lon="5.90948">
        <ele>797.8</ele>
        <time>2026-05-13T03:38:02Z</time>
      </trkpt>
      <trkpt lat="46.26857" lon="5.90965">
        <ele>799</ele>
        <time>2026-05-13T03:38:08Z</time>
      </trkpt>
      <trkpt lat="46.26861" lon="5.90969">
        <ele>799.2</ele>
        <time>2026-05-13T03:38:10Z</time>
      </trkpt>
      <trkpt lat="46.26869" lon="5.90983">
        <ele>800</ele>
        <time>2026-05-13T03:38:15Z</time>
      </trkpt>
      <trkpt lat="46.2687" lon="5.90986">
        <ele>800.4</ele>
        <time>2026-05-13T03:38:16Z</time>
      </trkpt>
      <trkpt lat="46.26882" lon="5.90999">
        <ele>801.2</ele>
        <time>2026-05-13T03:38:21Z</time>
      </trkpt>
      <trkpt lat="46.26886" lon="5.91009">
        <ele>801.6</ele>
        <time>2026-05-13T03:38:24Z</time>
      </trkpt>
      <trkpt lat="46.26889" lon="5.91015">
        <ele>802.2</ele>
        <time>2026-05-13T03:38:26Z</time>
      </trkpt>
      <trkpt lat="46.26896" lon="5.9103">
        <ele>803</ele>
        <time>2026-05-13T03:38:31Z</time>
      </trkpt>
      <trkpt lat="46.26899" lon="5.91036">
        <ele>803.2</ele>
        <time>2026-05-13T03:38:33Z</time>
      </trkpt>
      <trkpt lat="46.26904" lon="5.9105">
        <ele>803.8</ele>
        <time>2026-05-13T03:38:37Z</time>
      </trkpt>
      <trkpt lat="46.26905" lon="5.91053">
        <ele>804.2</ele>
        <time>2026-05-13T03:38:38Z</time>
      </trkpt>
      <trkpt lat="46.26906" lon="5.91056">
        <ele>804.2</ele>
        <time>2026-05-13T03:38:39Z</time>
      </trkpt>
      <trkpt lat="46.2691" lon="5.9108">
        <ele>805.4</ele>
        <time>2026-05-13T03:38:46Z</time>
      </trkpt>
      <trkpt lat="46.26914" lon="5.91097">
        <ele>806.6</ele>
        <time>2026-05-13T03:38:51Z</time>
      </trkpt>
      <trkpt lat="46.26916" lon="5.91104">
        <ele>807</ele>
        <time>2026-05-13T03:38:53Z</time>
      </trkpt>
      <trkpt lat="46.26919" lon="5.91115">
        <ele>807.8</ele>
        <time>2026-05-13T03:38:56Z</time>
      </trkpt>
      <trkpt lat="46.26924" lon="5.91136">
        <ele>808.4</ele>
        <time>2026-05-13T03:39:02Z</time>
      </trkpt>
      <trkpt lat="46.26925" lon="5.91139">
        <ele>808.8</ele>
        <time>2026-05-13T03:39:03Z</time>
      </trkpt>
      <trkpt lat="46.26929" lon="5.91155">
        <ele>809.8</ele>
        <time>2026-05-13T03:39:08Z</time>
      </trkpt>
      <trkpt lat="46.2693" lon="5.91162">
        <ele>810</ele>
        <time>2026-05-13T03:39:10Z</time>
      </trkpt>
      <trkpt lat="46.26932" lon="5.9118">
        <ele>810.8</ele>
        <time>2026-05-13T03:39:15Z</time>
      </trkpt>
      <trkpt lat="46.26932" lon="5.91184">
        <ele>811.2</ele>
        <time>2026-05-13T03:39:16Z</time>
      </trkpt>
      <trkpt lat="46.26932" lon="5.91204">
        <ele>811.8</ele>
        <time>2026-05-13T03:39:21Z</time>
      </trkpt>
      <trkpt lat="46.26932" lon="5.91209">
        <ele>812</ele>
        <time>2026-05-13T03:39:22Z</time>
      </trkpt>
      <trkpt lat="46.26929" lon="5.91232">
        <ele>812.6</ele>
        <time>2026-05-13T03:39:28Z</time>
      </trkpt>
      <trkpt lat="46.26927" lon="5.9124">
        <ele>813</ele>
        <time>2026-05-13T03:39:30Z</time>
      </trkpt>
      <trkpt lat="46.26925" lon="5.91247">
        <ele>813.2</ele>
        <time>2026-05-13T03:39:32Z</time>
      </trkpt>
      <trkpt lat="46.26923" lon="5.91267">
        <ele>814.2</ele>
        <time>2026-05-13T03:39:37Z</time>
      </trkpt>
      <trkpt lat="46.26923" lon="5.91276">
        <ele>814.4</ele>
        <time>2026-05-13T03:39:39Z</time>
      </trkpt>
      <trkpt lat="46.26932" lon="5.91307">
        <ele>815.2</ele>
        <time>2026-05-13T03:39:46Z</time>
      </trkpt>
      <trkpt lat="46.26934" lon="5.91311">
        <ele>815.2</ele>
        <time>2026-05-13T03:39:47Z</time>
      </trkpt>
      <trkpt lat="46.26947" lon="5.91353">
        <ele>816</ele>
        <time>2026-05-13T03:39:56Z</time>
      </trkpt>
      <trkpt lat="46.26949" lon="5.91363">
        <ele>816</ele>
        <time>2026-05-13T03:39:58Z</time>
      </trkpt>
      <trkpt lat="46.26952" lon="5.91392">
        <ele>816.4</ele>
        <time>2026-05-13T03:40:04Z</time>
      </trkpt>
      <trkpt lat="46.26959" lon="5.9141">
        <ele>817</ele>
        <time>2026-05-13T03:40:08Z</time>
      </trkpt>
      <trkpt lat="46.26977" lon="5.91422">
        <ele>817.6</ele>
        <time>2026-05-13T03:40:13Z</time>
      </trkpt>
      <trkpt lat="46.27" lon="5.91432">
        <ele>817.6</ele>
        <time>2026-05-13T03:40:20Z</time>
      </trkpt>
      <trkpt lat="46.27021" lon="5.9145">
        <ele>817.8</ele>
        <time>2026-05-13T03:40:27Z</time>
      </trkpt>
      <trkpt lat="46.27031" lon="5.91462">
        <ele>818</ele>
        <time>2026-05-13T03:40:31Z</time>
      </trkpt>
      <trkpt lat="46.27052" lon="5.91481">
        <ele>818.8</ele>
        <time>2026-05-13T03:40:38Z</time>
      </trkpt>
      <trkpt lat="46.27061" lon="5.91492">
        <ele>819.2</ele>
        <time>2026-05-13T03:40:42Z</time>
      </trkpt>
      <trkpt lat="46.27063" lon="5.91494">
        <ele>819.2</ele>
        <time>2026-05-13T03:40:43Z</time>
      </trkpt>
      <trkpt lat="46.2708" lon="5.91507">
        <ele>819.8</ele>
        <time>2026-05-13T03:40:48Z</time>
      </trkpt>
      <trkpt lat="46.27089" lon="5.91519">
        <ele>820.2</ele>
        <time>2026-05-13T03:40:52Z</time>
      </trkpt>
      <trkpt lat="46.27096" lon="5.91527">
        <ele>820.6</ele>
        <time>2026-05-13T03:40:55Z</time>
      </trkpt>
      <trkpt lat="46.27105" lon="5.91536">
        <ele>821.2</ele>
        <time>2026-05-13T03:40:59Z</time>
      </trkpt>
      <trkpt lat="46.27108" lon="5.91542">
        <ele>821.8</ele>
        <time>2026-05-13T03:41:01Z</time>
      </trkpt>
      <trkpt lat="46.27114" lon="5.91553">
        <ele>822.4</ele>
        <time>2026-05-13T03:41:05Z</time>
      </trkpt>
      <trkpt lat="46.27118" lon="5.91558">
        <ele>822.8</ele>
        <time>2026-05-13T03:41:07Z</time>
      </trkpt>
      <trkpt lat="46.27123" lon="5.91567">
        <ele>823.4</ele>
        <time>2026-05-13T03:41:10Z</time>
      </trkpt>
      <trkpt lat="46.27133" lon="5.91578">
        <ele>824</ele>
        <time>2026-05-13T03:41:14Z</time>
      </trkpt>
      <trkpt lat="46.27141" lon="5.91588">
        <ele>824.6</ele>
        <time>2026-05-13T03:41:18Z</time>
      </trkpt>
      <trkpt lat="46.27154" lon="5.91601">
        <ele>825.4</ele>
        <time>2026-05-13T03:41:23Z</time>
      </trkpt>
      <trkpt lat="46.27158" lon="5.91606">
        <ele>825.6</ele>
        <time>2026-05-13T03:41:25Z</time>
      </trkpt>
      <trkpt lat="46.27172" lon="5.91621">
        <ele>826.6</ele>
        <time>2026-05-13T03:41:31Z</time>
      </trkpt>
      <trkpt lat="46.27175" lon="5.91623">
        <ele>826.4</ele>
        <time>2026-05-13T03:41:32Z</time>
      </trkpt>
      <trkpt lat="46.27191" lon="5.91635">
        <ele>827.4</ele>
        <time>2026-05-13T03:41:38Z</time>
      </trkpt>
      <trkpt lat="46.27193" lon="5.91637">
        <ele>827.6</ele>
        <time>2026-05-13T03:41:39Z</time>
      </trkpt>
      <trkpt lat="46.2721" lon="5.91649">
        <ele>828.6</ele>
        <time>2026-05-13T03:41:46Z</time>
      </trkpt>
      <trkpt lat="46.27212" lon="5.9165">
        <ele>828.6</ele>
        <time>2026-05-13T03:41:47Z</time>
      </trkpt>
      <trkpt lat="46.27228" lon="5.91666">
        <ele>829.8</ele>
        <time>2026-05-13T03:41:54Z</time>
      </trkpt>
      <trkpt lat="46.27231" lon="5.91668">
        <ele>830</ele>
        <time>2026-05-13T03:41:55Z</time>
      </trkpt>
      <trkpt lat="46.27235" lon="5.91672">
        <ele>830.8</ele>
        <time>2026-05-13T03:41:57Z</time>
      </trkpt>
      <trkpt lat="46.27251" lon="5.91682">
        <ele>831.6</ele>
        <time>2026-05-13T03:42:02Z</time>
      </trkpt>
      <trkpt lat="46.27259" lon="5.91688">
        <ele>832</ele>
        <time>2026-05-13T03:42:05Z</time>
      </trkpt>
      <trkpt lat="46.27265" lon="5.91693">
        <ele>832.4</ele>
        <time>2026-05-13T03:42:08Z</time>
      </trkpt>
      <trkpt lat="46.27275" lon="5.91701">
        <ele>833</ele>
        <time>2026-05-13T03:42:12Z</time>
      </trkpt>
      <trkpt lat="46.2728" lon="5.91706">
        <ele>833.2</ele>
        <time>2026-05-13T03:42:14Z</time>
      </trkpt>
      <trkpt lat="46.27292" lon="5.91717">
        <ele>834</ele>
        <time>2026-05-13T03:42:19Z</time>
      </trkpt>
      <trkpt lat="46.27301" lon="5.91726">
        <ele>834.8</ele>
        <time>2026-05-13T03:42:23Z</time>
      </trkpt>
      <trkpt lat="46.27305" lon="5.9173">
        <ele>835.4</ele>
        <time>2026-05-13T03:42:25Z</time>
      </trkpt>
      <trkpt lat="46.2732" lon="5.91745">
        <ele>836.4</ele>
        <time>2026-05-13T03:42:32Z</time>
      </trkpt>
      <trkpt lat="46.27331" lon="5.91758">
        <ele>837.4</ele>
        <time>2026-05-13T03:42:38Z</time>
      </trkpt>
      <trkpt lat="46.27336" lon="5.91763">
        <ele>838</ele>
        <time>2026-05-13T03:42:40Z</time>
      </trkpt>
      <trkpt lat="46.27338" lon="5.91768">
        <ele>838.6</ele>
        <time>2026-05-13T03:42:42Z</time>
      </trkpt>
      <trkpt lat="46.27344" lon="5.91781">
        <ele>839</ele>
        <time>2026-05-13T03:42:46Z</time>
      </trkpt>
      <trkpt lat="46.27346" lon="5.91791">
        <ele>839.6</ele>
        <time>2026-05-13T03:42:49Z</time>
      </trkpt>
      <trkpt lat="46.27346" lon="5.91794">
        <ele>840.2</ele>
        <time>2026-05-13T03:42:50Z</time>
      </trkpt>
      <trkpt lat="46.27346" lon="5.918">
        <ele>840.6</ele>
        <time>2026-05-13T03:42:52Z</time>
      </trkpt>
      <trkpt lat="46.27348" lon="5.91811">
        <ele>841.2</ele>
        <time>2026-05-13T03:42:55Z</time>
      </trkpt>
      <trkpt lat="46.27349" lon="5.91818">
        <ele>841.4</ele>
        <time>2026-05-13T03:42:57Z</time>
      </trkpt>
      <trkpt lat="46.27349" lon="5.91834">
        <ele>842.2</ele>
        <time>2026-05-13T03:43:01Z</time>
      </trkpt>
      <trkpt lat="46.27349" lon="5.91841">
        <ele>842.6</ele>
        <time>2026-05-13T03:43:03Z</time>
      </trkpt>
      <trkpt lat="46.2735" lon="5.91848">
        <ele>843.2</ele>
        <time>2026-05-13T03:43:05Z</time>
      </trkpt>
      <trkpt lat="46.27355" lon="5.91859">
        <ele>843.6</ele>
        <time>2026-05-13T03:43:08Z</time>
      </trkpt>
      <trkpt lat="46.27358" lon="5.91866">
        <ele>843.8</ele>
        <time>2026-05-13T03:43:10Z</time>
      </trkpt>
      <trkpt lat="46.27362" lon="5.91875">
        <ele>844.2</ele>
        <time>2026-05-13T03:43:13Z</time>
      </trkpt>
      <trkpt lat="46.27373" lon="5.91883">
        <ele>844.6</ele>
        <time>2026-05-13T03:43:17Z</time>
      </trkpt>
      <trkpt lat="46.27381" lon="5.9189">
        <ele>845.2</ele>
        <time>2026-05-13T03:43:20Z</time>
      </trkpt>
      <trkpt lat="46.2739" lon="5.91896">
        <ele>845.8</ele>
        <time>2026-05-13T03:43:24Z</time>
      </trkpt>
      <trkpt lat="46.27395" lon="5.919">
        <ele>846.2</ele>
        <time>2026-05-13T03:43:26Z</time>
      </trkpt>
      <trkpt lat="46.27402" lon="5.91909">
        <ele>847</ele>
        <time>2026-05-13T03:43:30Z</time>
      </trkpt>
      <trkpt lat="46.27409" lon="5.91913">
        <ele>847.4</ele>
        <time>2026-05-13T03:43:33Z</time>
      </trkpt>
      <trkpt lat="46.27414" lon="5.91919">
        <ele>847.8</ele>
        <time>2026-05-13T03:43:36Z</time>
      </trkpt>
      <trkpt lat="46.2742" lon="5.91932">
        <ele>848.6</ele>
        <time>2026-05-13T03:43:40Z</time>
      </trkpt>
      <trkpt lat="46.27422" lon="5.91935">
        <ele>848.6</ele>
        <time>2026-05-13T03:43:41Z</time>
      </trkpt>
      <trkpt lat="46.27423" lon="5.91938">
        <ele>848.8</ele>
        <time>2026-05-13T03:43:42Z</time>
      </trkpt>
      <trkpt lat="46.27425" lon="5.91945">
        <ele>849.2</ele>
        <time>2026-05-13T03:43:44Z</time>
      </trkpt>
      <trkpt lat="46.27425" lon="5.91949">
        <ele>849.4</ele>
        <time>2026-05-13T03:43:45Z</time>
      </trkpt>
      <trkpt lat="46.27428" lon="5.91959">
        <ele>849.6</ele>
        <time>2026-05-13T03:43:48Z</time>
      </trkpt>
      <trkpt lat="46.27429" lon="5.91963">
        <ele>849.8</ele>
        <time>2026-05-13T03:43:49Z</time>
      </trkpt>
      <trkpt lat="46.27448" lon="5.91985">
        <ele>850.8</ele>
        <time>2026-05-13T03:43:56Z</time>
      </trkpt>
      <trkpt lat="46.27451" lon="5.91988">
        <ele>851</ele>
        <time>2026-05-13T03:43:57Z</time>
      </trkpt>
      <trkpt lat="46.27459" lon="5.91996">
        <ele>851.6</ele>
        <time>2026-05-13T03:44:00Z</time>
      </trkpt>
      <trkpt lat="46.27464" lon="5.92004">
        <ele>852</ele>
        <time>2026-05-13T03:44:03Z</time>
      </trkpt>
      <trkpt lat="46.27474" lon="5.92017">
        <ele>853</ele>
        <time>2026-05-13T03:44:08Z</time>
      </trkpt>
      <trkpt lat="46.27476" lon="5.9202">
        <ele>853.2</ele>
        <time>2026-05-13T03:44:09Z</time>
      </trkpt>
      <trkpt lat="46.27487" lon="5.92034">
        <ele>854.2</ele>
        <time>2026-05-13T03:44:14Z</time>
      </trkpt>
      <trkpt lat="46.2749" lon="5.9204">
        <ele>854.6</ele>
        <time>2026-05-13T03:44:16Z</time>
      </trkpt>
      <trkpt lat="46.275" lon="5.92051">
        <ele>855.2</ele>
        <time>2026-05-13T03:44:21Z</time>
      </trkpt>
      <trkpt lat="46.27505" lon="5.92054">
        <ele>855.8</ele>
        <time>2026-05-13T03:44:23Z</time>
      </trkpt>
      <trkpt lat="46.27518" lon="5.92068">
        <ele>856.4</ele>
        <time>2026-05-13T03:44:29Z</time>
      </trkpt>
      <trkpt lat="46.27535" lon="5.92085">
        <ele>857.4</ele>
        <time>2026-05-13T03:44:36Z</time>
      </trkpt>
      <trkpt lat="46.2755" lon="5.92101">
        <ele>858.6</ele>
        <time>2026-05-13T03:44:43Z</time>
      </trkpt>
      <trkpt lat="46.27552" lon="5.92103">
        <ele>858.6</ele>
        <time>2026-05-13T03:44:44Z</time>
      </trkpt>
      <trkpt lat="46.27565" lon="5.9212">
        <ele>859.6</ele>
        <time>2026-05-13T03:44:50Z</time>
      </trkpt>
      <trkpt lat="46.27574" lon="5.92134">
        <ele>860.4</ele>
        <time>2026-05-13T03:44:55Z</time>
      </trkpt>
      <trkpt lat="46.27577" lon="5.92141">
        <ele>860.6</ele>
        <time>2026-05-13T03:44:57Z</time>
      </trkpt>
      <trkpt lat="46.27586" lon="5.92163">
        <ele>862</ele>
        <time>2026-05-13T03:45:04Z</time>
      </trkpt>
      <trkpt lat="46.27588" lon="5.92167">
        <ele>862.2</ele>
        <time>2026-05-13T03:45:05Z</time>
      </trkpt>
      <trkpt lat="46.27594" lon="5.92188">
        <ele>863</ele>
        <time>2026-05-13T03:45:11Z</time>
      </trkpt>
      <trkpt lat="46.27598" lon="5.92203">
        <ele>863.6</ele>
        <time>2026-05-13T03:45:15Z</time>
      </trkpt>
      <trkpt lat="46.27601" lon="5.92217">
        <ele>864</ele>
        <time>2026-05-13T03:45:19Z</time>
      </trkpt>
      <trkpt lat="46.27605" lon="5.92236">
        <ele>864.6</ele>
        <time>2026-05-13T03:45:24Z</time>
      </trkpt>
      <trkpt lat="46.27606" lon="5.92249">
        <ele>865</ele>
        <time>2026-05-13T03:45:27Z</time>
      </trkpt>
      <trkpt lat="46.27608" lon="5.92265">
        <ele>865.8</ele>
        <time>2026-05-13T03:45:31Z</time>
      </trkpt>
      <trkpt lat="46.27609" lon="5.92281">
        <ele>866.2</ele>
        <time>2026-05-13T03:45:35Z</time>
      </trkpt>
      <trkpt lat="46.2761" lon="5.92293">
        <ele>866.6</ele>
        <time>2026-05-13T03:45:38Z</time>
      </trkpt>
      <trkpt lat="46.27612" lon="5.92315">
        <ele>867.4</ele>
        <time>2026-05-13T03:45:44Z</time>
      </trkpt>
      <trkpt lat="46.27619" lon="5.92344">
        <ele>868.4</ele>
        <time>2026-05-13T03:45:51Z</time>
      </trkpt>
      <trkpt lat="46.2762" lon="5.92348">
        <ele>868.6</ele>
        <time>2026-05-13T03:45:52Z</time>
      </trkpt>
      <trkpt lat="46.27629" lon="5.9237">
        <ele>869.4</ele>
        <time>2026-05-13T03:45:58Z</time>
      </trkpt>
      <trkpt lat="46.27646" lon="5.92391">
        <ele>870.6</ele>
        <time>2026-05-13T03:46:05Z</time>
      </trkpt>
      <trkpt lat="46.27651" lon="5.92395">
        <ele>870.8</ele>
        <time>2026-05-13T03:46:07Z</time>
      </trkpt>
      <trkpt lat="46.27671" lon="5.9241">
        <ele>871.6</ele>
        <time>2026-05-13T03:46:14Z</time>
      </trkpt>
      <trkpt lat="46.27693" lon="5.92425">
        <ele>872.6</ele>
        <time>2026-05-13T03:46:22Z</time>
      </trkpt>
      <trkpt lat="46.27698" lon="5.92429">
        <ele>872.8</ele>
        <time>2026-05-13T03:46:24Z</time>
      </trkpt>
      <trkpt lat="46.27711" lon="5.92439">
        <ele>873.6</ele>
        <time>2026-05-13T03:46:29Z</time>
      </trkpt>
      <trkpt lat="46.27713" lon="5.92441">
        <ele>873.8</ele>
        <time>2026-05-13T03:46:30Z</time>
      </trkpt>
      <trkpt lat="46.27733" lon="5.92456">
        <ele>874.4</ele>
        <time>2026-05-13T03:46:37Z</time>
      </trkpt>
      <trkpt lat="46.27739" lon="5.92461">
        <ele>874.8</ele>
        <time>2026-05-13T03:46:39Z</time>
      </trkpt>
      <trkpt lat="46.27756" lon="5.92477">
        <ele>875.4</ele>
        <time>2026-05-13T03:46:45Z</time>
      </trkpt>
      <trkpt lat="46.27772" lon="5.92494">
        <ele>875.8</ele>
        <time>2026-05-13T03:46:51Z</time>
      </trkpt>
      <trkpt lat="46.27793" lon="5.92521">
        <ele>876.6</ele>
        <time>2026-05-13T03:46:59Z</time>
      </trkpt>
      <trkpt lat="46.27812" lon="5.92542">
        <ele>877</ele>
        <time>2026-05-13T03:47:06Z</time>
      </trkpt>
      <trkpt lat="46.27844" lon="5.92563">
        <ele>878</ele>
        <time>2026-05-13T03:47:16Z</time>
      </trkpt>
      <trkpt lat="46.2787" lon="5.9257">
        <ele>879.2</ele>
        <time>2026-05-13T03:47:24Z</time>
      </trkpt>
      <trkpt lat="46.27873" lon="5.9257">
        <ele>879.2</ele>
        <time>2026-05-13T03:47:25Z</time>
      </trkpt>
      <trkpt lat="46.27895" lon="5.92572">
        <ele>880.2</ele>
        <time>2026-05-13T03:47:32Z</time>
      </trkpt>
      <trkpt lat="46.27902" lon="5.92572">
        <ele>880.4</ele>
        <time>2026-05-13T03:47:34Z</time>
      </trkpt>
      <trkpt lat="46.27923" lon="5.92576">
        <ele>881.2</ele>
        <time>2026-05-13T03:47:40Z</time>
      </trkpt>
      <trkpt lat="46.27941" lon="5.92577">
        <ele>882</ele>
        <time>2026-05-13T03:47:45Z</time>
      </trkpt>
      <trkpt lat="46.27956" lon="5.92575">
        <ele>882.2</ele>
        <time>2026-05-13T03:47:49Z</time>
      </trkpt>
      <trkpt lat="46.27967" lon="5.92574">
        <ele>882.8</ele>
        <time>2026-05-13T03:47:52Z</time>
      </trkpt>
      <trkpt lat="46.27987" lon="5.9257">
        <ele>883.4</ele>
        <time>2026-05-13T03:47:58Z</time>
      </trkpt>
      <trkpt lat="46.2799" lon="5.92569">
        <ele>883.6</ele>
        <time>2026-05-13T03:47:59Z</time>
      </trkpt>
      <trkpt lat="46.28021" lon="5.92561">
        <ele>884.4</ele>
        <time>2026-05-13T03:48:08Z</time>
      </trkpt>
      <trkpt lat="46.28054" lon="5.9255">
        <ele>885.6</ele>
        <time>2026-05-13T03:48:18Z</time>
      </trkpt>
      <trkpt lat="46.28082" lon="5.9255">
        <ele>886.6</ele>
        <time>2026-05-13T03:48:26Z</time>
      </trkpt>
      <trkpt lat="46.28107" lon="5.92557">
        <ele>887.6</ele>
        <time>2026-05-13T03:48:33Z</time>
      </trkpt>
      <trkpt lat="46.28117" lon="5.9256">
        <ele>888</ele>
        <time>2026-05-13T03:48:36Z</time>
      </trkpt>
      <trkpt lat="46.28136" lon="5.92564">
        <ele>888.8</ele>
        <time>2026-05-13T03:48:41Z</time>
      </trkpt>
      <trkpt lat="46.2815" lon="5.92566">
        <ele>889</ele>
        <time>2026-05-13T03:48:45Z</time>
      </trkpt>
      <trkpt lat="46.28173" lon="5.92569">
        <ele>889.8</ele>
        <time>2026-05-13T03:48:52Z</time>
      </trkpt>
      <trkpt lat="46.2819" lon="5.92569">
        <ele>890.4</ele>
        <time>2026-05-13T03:48:57Z</time>
      </trkpt>
      <trkpt lat="46.28196" lon="5.92569">
        <ele>890.8</ele>
        <time>2026-05-13T03:48:59Z</time>
      </trkpt>
      <trkpt lat="46.2821" lon="5.9257">
        <ele>891.6</ele>
        <time>2026-05-13T03:49:04Z</time>
      </trkpt>
      <trkpt lat="46.28214" lon="5.9257">
        <ele>891.6</ele>
        <time>2026-05-13T03:49:05Z</time>
      </trkpt>
      <trkpt lat="46.28217" lon="5.92571">
        <ele>891.8</ele>
        <time>2026-05-13T03:49:06Z</time>
      </trkpt>
      <trkpt lat="46.28242" lon="5.92578">
        <ele>892.8</ele>
        <time>2026-05-13T03:49:13Z</time>
      </trkpt>
      <trkpt lat="46.28245" lon="5.92579">
        <ele>893</ele>
        <time>2026-05-13T03:49:14Z</time>
      </trkpt>
      <trkpt lat="46.28266" lon="5.92593">
        <ele>893.4</ele>
        <time>2026-05-13T03:49:20Z</time>
      </trkpt>
      <trkpt lat="46.28287" lon="5.92606">
        <ele>893.8</ele>
        <time>2026-05-13T03:49:26Z</time>
      </trkpt>
      <trkpt lat="46.28291" lon="5.92607">
        <ele>894</ele>
        <time>2026-05-13T03:49:27Z</time>
      </trkpt>
      <trkpt lat="46.28318" lon="5.92621">
        <ele>894.4</ele>
        <time>2026-05-13T03:49:34Z</time>
      </trkpt>
      <trkpt lat="46.28339" lon="5.92633">
        <ele>894.4</ele>
        <time>2026-05-13T03:49:39Z</time>
      </trkpt>
      <trkpt lat="46.28368" lon="5.92659">
        <ele>894.8</ele>
        <time>2026-05-13T03:49:46Z</time>
      </trkpt>
      <trkpt lat="46.28376" lon="5.92666">
        <ele>894.8</ele>
        <time>2026-05-13T03:49:48Z</time>
      </trkpt>
      <trkpt lat="46.2838" lon="5.92671">
        <ele>895</ele>
        <time>2026-05-13T03:49:49Z</time>
      </trkpt>
      <trkpt lat="46.28391" lon="5.92683">
        <ele>895.2</ele>
        <time>2026-05-13T03:49:52Z</time>
      </trkpt>
      <trkpt lat="46.28418" lon="5.927">
        <ele>895.4</ele>
        <time>2026-05-13T03:49:58Z</time>
      </trkpt>
      <trkpt lat="46.28451" lon="5.92714">
        <ele>895.6</ele>
        <time>2026-05-13T03:50:05Z</time>
      </trkpt>
      <trkpt lat="46.28456" lon="5.92716">
        <ele>895.6</ele>
        <time>2026-05-13T03:50:06Z</time>
      </trkpt>
      <trkpt lat="46.2848" lon="5.92728">
        <ele>895.8</ele>
        <time>2026-05-13T03:50:11Z</time>
      </trkpt>
      <trkpt lat="46.28507" lon="5.92739">
        <ele>895.8</ele>
        <time>2026-05-13T03:50:17Z</time>
      </trkpt>
      <trkpt lat="46.28512" lon="5.92742">
        <ele>895.8</ele>
        <time>2026-05-13T03:50:18Z</time>
      </trkpt>
      <trkpt lat="46.28516" lon="5.92743">
        <ele>896</ele>
        <time>2026-05-13T03:50:19Z</time>
      </trkpt>
      <trkpt lat="46.28555" lon="5.92758">
        <ele>896.4</ele>
        <time>2026-05-13T03:50:27Z</time>
      </trkpt>
      <trkpt lat="46.28603" lon="5.92775">
        <ele>896.8</ele>
        <time>2026-05-13T03:50:37Z</time>
      </trkpt>
      <trkpt lat="46.28612" lon="5.92777">
        <ele>897</ele>
        <time>2026-05-13T03:50:39Z</time>
      </trkpt>
      <trkpt lat="46.2864" lon="5.92785">
        <ele>897</ele>
        <time>2026-05-13T03:50:45Z</time>
      </trkpt>
      <trkpt lat="46.2865" lon="5.92787">
        <ele>897</ele>
        <time>2026-05-13T03:50:47Z</time>
      </trkpt>
      <trkpt lat="46.28672" lon="5.92793">
        <ele>897.2</ele>
        <time>2026-05-13T03:50:52Z</time>
      </trkpt>
      <trkpt lat="46.28721" lon="5.92803">
        <ele>897.6</ele>
        <time>2026-05-13T03:51:02Z</time>
      </trkpt>
      <trkpt lat="46.28762" lon="5.92818">
        <ele>898.2</ele>
        <time>2026-05-13T03:51:11Z</time>
      </trkpt>
      <trkpt lat="46.28794" lon="5.92844">
        <ele>899</ele>
        <time>2026-05-13T03:51:19Z</time>
      </trkpt>
      <trkpt lat="46.28801" lon="5.92852">
        <ele>899.2</ele>
        <time>2026-05-13T03:51:21Z</time>
      </trkpt>
      <trkpt lat="46.28811" lon="5.92861">
        <ele>899.6</ele>
        <time>2026-05-13T03:51:24Z</time>
      </trkpt>
      <trkpt lat="46.28819" lon="5.92869">
        <ele>899.8</ele>
        <time>2026-05-13T03:51:26Z</time>
      </trkpt>
      <trkpt lat="46.28826" lon="5.92876">
        <ele>900</ele>
        <time>2026-05-13T03:51:28Z</time>
      </trkpt>
      <trkpt lat="46.28833" lon="5.92881">
        <ele>900.2</ele>
        <time>2026-05-13T03:51:30Z</time>
      </trkpt>
      <trkpt lat="46.28841" lon="5.92886">
        <ele>900.4</ele>
        <time>2026-05-13T03:51:32Z</time>
      </trkpt>
      <trkpt lat="46.28845" lon="5.92887">
        <ele>900.4</ele>
        <time>2026-05-13T03:51:33Z</time>
      </trkpt>
      <trkpt lat="46.28867" lon="5.92889">
        <ele>901</ele>
        <time>2026-05-13T03:51:38Z</time>
      </trkpt>
      <trkpt lat="46.28875" lon="5.92889">
        <ele>901.2</ele>
        <time>2026-05-13T03:51:40Z</time>
      </trkpt>
      <trkpt lat="46.2888" lon="5.92889">
        <ele>901.4</ele>
        <time>2026-05-13T03:51:41Z</time>
      </trkpt>
      <trkpt lat="46.28893" lon="5.92887">
        <ele>901.6</ele>
        <time>2026-05-13T03:51:44Z</time>
      </trkpt>
      <trkpt lat="46.2892" lon="5.9289">
        <ele>902.6</ele>
        <time>2026-05-13T03:51:51Z</time>
      </trkpt>
      <trkpt lat="46.28944" lon="5.92897">
        <ele>903.6</ele>
        <time>2026-05-13T03:51:58Z</time>
      </trkpt>
      <trkpt lat="46.28947" lon="5.92899">
        <ele>903.8</ele>
        <time>2026-05-13T03:51:59Z</time>
      </trkpt>
      <trkpt lat="46.28962" lon="5.92912">
        <ele>904.8</ele>
        <time>2026-05-13T03:52:04Z</time>
      </trkpt>
      <trkpt lat="46.28968" lon="5.92918">
        <ele>905.2</ele>
        <time>2026-05-13T03:52:06Z</time>
      </trkpt>
      <trkpt lat="46.28976" lon="5.92927">
        <ele>905.8</ele>
        <time>2026-05-13T03:52:09Z</time>
      </trkpt>
      <trkpt lat="46.29002" lon="5.92954">
        <ele>906.8</ele>
        <time>2026-05-13T03:52:17Z</time>
      </trkpt>
      <trkpt lat="46.29027" lon="5.92973">
        <ele>907</ele>
        <time>2026-05-13T03:52:24Z</time>
      </trkpt>
      <trkpt lat="46.29066" lon="5.92993">
        <ele>907.6</ele>
        <time>2026-05-13T03:52:34Z</time>
      </trkpt>
      <trkpt lat="46.2907" lon="5.92995">
        <ele>907.6</ele>
        <time>2026-05-13T03:52:35Z</time>
      </trkpt>
      <trkpt lat="46.2911" lon="5.93014">
        <ele>908.2</ele>
        <time>2026-05-13T03:52:45Z</time>
      </trkpt>
      <trkpt lat="46.29122" lon="5.93019">
        <ele>908.4</ele>
        <time>2026-05-13T03:52:48Z</time>
      </trkpt>
      <trkpt lat="46.29143" lon="5.93025">
        <ele>908.6</ele>
        <time>2026-05-13T03:52:53Z</time>
      </trkpt>
      <trkpt lat="46.29179" lon="5.93041">
        <ele>908.6</ele>
        <time>2026-05-13T03:53:01Z</time>
      </trkpt>
      <trkpt lat="46.29204" lon="5.93069">
        <ele>908</ele>
        <time>2026-05-13T03:53:07Z</time>
      </trkpt>
      <trkpt lat="46.29208" lon="5.93075">
        <ele>907.8</ele>
        <time>2026-05-13T03:53:08Z</time>
      </trkpt>
      <trkpt lat="46.29219" lon="5.93105">
        <ele>907.2</ele>
        <time>2026-05-13T03:53:12Z</time>
      </trkpt>
      <trkpt lat="46.29238" lon="5.9315">
        <ele>906</ele>
        <time>2026-05-13T03:53:18Z</time>
      </trkpt>
      <trkpt lat="46.29242" lon="5.93156">
        <ele>906</ele>
        <time>2026-05-13T03:53:19Z</time>
      </trkpt>
      <trkpt lat="46.29262" lon="5.93178">
        <ele>905.4</ele>
        <time>2026-05-13T03:53:23Z</time>
      </trkpt>
      <trkpt lat="46.29279" lon="5.93192">
        <ele>905</ele>
        <time>2026-05-13T03:53:26Z</time>
      </trkpt>
      <trkpt lat="46.29305" lon="5.93209">
        <ele>904.2</ele>
        <time>2026-05-13T03:53:30Z</time>
      </trkpt>
      <trkpt lat="46.29312" lon="5.93213">
        <ele>904</ele>
        <time>2026-05-13T03:53:31Z</time>
      </trkpt>
      <trkpt lat="46.29339" lon="5.93222">
        <ele>903.2</ele>
        <time>2026-05-13T03:53:35Z</time>
      </trkpt>
      <trkpt lat="46.29361" lon="5.93225">
        <ele>902.8</ele>
        <time>2026-05-13T03:53:38Z</time>
      </trkpt>
      <trkpt lat="46.29383" lon="5.93228">
        <ele>902</ele>
        <time>2026-05-13T03:53:41Z</time>
      </trkpt>
      <trkpt lat="46.29392" lon="5.93229">
        <ele>901.6</ele>
        <time>2026-05-13T03:53:42Z</time>
      </trkpt>
      <trkpt lat="46.29399" lon="5.93231">
        <ele>901.6</ele>
        <time>2026-05-13T03:53:43Z</time>
      </trkpt>
      <trkpt lat="46.29414" lon="5.93238">
        <ele>901.2</ele>
        <time>2026-05-13T03:53:45Z</time>
      </trkpt>
      <trkpt lat="46.29428" lon="5.93248">
        <ele>900.8</ele>
        <time>2026-05-13T03:53:47Z</time>
      </trkpt>
      <trkpt lat="46.29434" lon="5.93254">
        <ele>900.8</ele>
        <time>2026-05-13T03:53:48Z</time>
      </trkpt>
      <trkpt lat="46.2944" lon="5.93261">
        <ele>900.2</ele>
        <time>2026-05-13T03:53:49Z</time>
      </trkpt>
      <trkpt lat="46.29451" lon="5.93278">
        <ele>899.8</ele>
        <time>2026-05-13T03:53:51Z</time>
      </trkpt>
      <trkpt lat="46.29457" lon="5.93287">
        <ele>899.4</ele>
        <time>2026-05-13T03:53:52Z</time>
      </trkpt>
      <trkpt lat="46.2947" lon="5.93316">
        <ele>898.6</ele>
        <time>2026-05-13T03:53:55Z</time>
      </trkpt>
      <trkpt lat="46.2948" lon="5.93336">
        <ele>897.6</ele>
        <time>2026-05-13T03:53:57Z</time>
      </trkpt>
      <trkpt lat="46.29502" lon="5.93375">
        <ele>896.6</ele>
        <time>2026-05-13T03:54:01Z</time>
      </trkpt>
      <trkpt lat="46.29516" lon="5.93392">
        <ele>895.6</ele>
        <time>2026-05-13T03:54:03Z</time>
      </trkpt>
      <trkpt lat="46.29524" lon="5.934">
        <ele>895</ele>
        <time>2026-05-13T03:54:04Z</time>
      </trkpt>
      <trkpt lat="46.29547" lon="5.93423">
        <ele>893.6</ele>
        <time>2026-05-13T03:54:07Z</time>
      </trkpt>
      <trkpt lat="46.29554" lon="5.93432">
        <ele>893.2</ele>
        <time>2026-05-13T03:54:08Z</time>
      </trkpt>
      <trkpt lat="46.29561" lon="5.93441">
        <ele>892.6</ele>
        <time>2026-05-13T03:54:09Z</time>
      </trkpt>
      <trkpt lat="46.29566" lon="5.93452">
        <ele>892</ele>
        <time>2026-05-13T03:54:10Z</time>
      </trkpt>
      <trkpt lat="46.29571" lon="5.93464">
        <ele>891.8</ele>
        <time>2026-05-13T03:54:11Z</time>
      </trkpt>
      <trkpt lat="46.29579" lon="5.93485">
        <ele>890.8</ele>
        <time>2026-05-13T03:54:13Z</time>
      </trkpt>
      <trkpt lat="46.29585" lon="5.93498">
        <ele>890.2</ele>
        <time>2026-05-13T03:54:14Z</time>
      </trkpt>
      <trkpt lat="46.29597" lon="5.93518">
        <ele>889.4</ele>
        <time>2026-05-13T03:54:16Z</time>
      </trkpt>
      <trkpt lat="46.29619" lon="5.93541">
        <ele>888.2</ele>
        <time>2026-05-13T03:54:19Z</time>
      </trkpt>
      <trkpt lat="46.29626" lon="5.93547">
        <ele>888</ele>
        <time>2026-05-13T03:54:20Z</time>
      </trkpt>
      <trkpt lat="46.29648" lon="5.93565">
        <ele>887.2</ele>
        <time>2026-05-13T03:54:23Z</time>
      </trkpt>
      <trkpt lat="46.29662" lon="5.93576">
        <ele>886.6</ele>
        <time>2026-05-13T03:54:25Z</time>
      </trkpt>
      <trkpt lat="46.29675" lon="5.93585">
        <ele>886</ele>
        <time>2026-05-13T03:54:27Z</time>
      </trkpt>
      <trkpt lat="46.29708" lon="5.93612">
        <ele>885.6</ele>
        <time>2026-05-13T03:54:32Z</time>
      </trkpt>
      <trkpt lat="46.29757" lon="5.93652">
        <ele>885.4</ele>
        <time>2026-05-13T03:54:40Z</time>
      </trkpt>
      <trkpt lat="46.2977" lon="5.93662">
        <ele>885.2</ele>
        <time>2026-05-13T03:54:42Z</time>
      </trkpt>
      <trkpt lat="46.29801" lon="5.93694">
        <ele>884.4</ele>
        <time>2026-05-13T03:54:47Z</time>
      </trkpt>
      <trkpt lat="46.29806" lon="5.93702">
        <ele>884.2</ele>
        <time>2026-05-13T03:54:48Z</time>
      </trkpt>
      <trkpt lat="46.29833" lon="5.93753">
        <ele>883.6</ele>
        <time>2026-05-13T03:54:54Z</time>
      </trkpt>
      <trkpt lat="46.29843" lon="5.93769">
        <ele>883</ele>
        <time>2026-05-13T03:54:56Z</time>
      </trkpt>
      <trkpt lat="46.29865" lon="5.93798">
        <ele>882.4</ele>
        <time>2026-05-13T03:55:00Z</time>
      </trkpt>
      <trkpt lat="46.29878" lon="5.9381">
        <ele>882</ele>
        <time>2026-05-13T03:55:02Z</time>
      </trkpt>
      <trkpt lat="46.29918" lon="5.93849">
        <ele>881.8</ele>
        <time>2026-05-13T03:55:09Z</time>
      </trkpt>
      <trkpt lat="46.29955" lon="5.93876">
        <ele>881.8</ele>
        <time>2026-05-13T03:55:16Z</time>
      </trkpt>
      <trkpt lat="46.29983" lon="5.9389">
        <ele>882.6</ele>
        <time>2026-05-13T03:55:22Z</time>
      </trkpt>
      <trkpt lat="46.29991" lon="5.93893">
        <ele>883</ele>
        <time>2026-05-13T03:55:24Z</time>
      </trkpt>
      <trkpt lat="46.30008" lon="5.93896">
        <ele>883.6</ele>
        <time>2026-05-13T03:55:28Z</time>
      </trkpt>
      <trkpt lat="46.3002" lon="5.939">
        <ele>884</ele>
        <time>2026-05-13T03:55:31Z</time>
      </trkpt>
      <trkpt lat="46.30045" lon="5.93907">
        <ele>885</ele>
        <time>2026-05-13T03:55:37Z</time>
      </trkpt>
      <trkpt lat="46.30066" lon="5.93915">
        <ele>886.2</ele>
        <time>2026-05-13T03:55:42Z</time>
      </trkpt>
      <trkpt lat="46.30082" lon="5.93924">
        <ele>886.6</ele>
        <time>2026-05-13T03:55:46Z</time>
      </trkpt>
      <trkpt lat="46.30086" lon="5.93927">
        <ele>886.6</ele>
        <time>2026-05-13T03:55:47Z</time>
      </trkpt>
      <trkpt lat="46.30102" lon="5.9394">
        <ele>887.4</ele>
        <time>2026-05-13T03:55:51Z</time>
      </trkpt>
      <trkpt lat="46.30109" lon="5.93946">
        <ele>887.4</ele>
        <time>2026-05-13T03:55:53Z</time>
      </trkpt>
      <trkpt lat="46.3012" lon="5.93956">
        <ele>887.6</ele>
        <time>2026-05-13T03:55:56Z</time>
      </trkpt>
      <trkpt lat="46.30132" lon="5.93966">
        <ele>887.8</ele>
        <time>2026-05-13T03:55:59Z</time>
      </trkpt>
      <trkpt lat="46.30139" lon="5.93973">
        <ele>887.8</ele>
        <time>2026-05-13T03:56:01Z</time>
      </trkpt>
      <trkpt lat="46.30155" lon="5.93988">
        <ele>888.2</ele>
        <time>2026-05-13T03:56:05Z</time>
      </trkpt>
      <trkpt lat="46.30172" lon="5.93999">
        <ele>888.6</ele>
        <time>2026-05-13T03:56:09Z</time>
      </trkpt>
      <trkpt lat="46.30184" lon="5.94008">
        <ele>888.6</ele>
        <time>2026-05-13T03:56:12Z</time>
      </trkpt>
      <trkpt lat="46.30212" lon="5.94032">
        <ele>889</ele>
        <time>2026-05-13T03:56:19Z</time>
      </trkpt>
      <trkpt lat="46.30234" lon="5.94054">
        <ele>889.4</ele>
        <time>2026-05-13T03:56:26Z</time>
      </trkpt>
      <trkpt lat="46.30236" lon="5.94057">
        <ele>889.8</ele>
        <time>2026-05-13T03:56:27Z</time>
      </trkpt>
      <trkpt lat="46.30249" lon="5.94074">
        <ele>890.8</ele>
        <time>2026-05-13T03:56:32Z</time>
      </trkpt>
      <trkpt lat="46.30259" lon="5.94093">
        <ele>892</ele>
        <time>2026-05-13T03:56:37Z</time>
      </trkpt>
      <trkpt lat="46.30261" lon="5.94097">
        <ele>892.2</ele>
        <time>2026-05-13T03:56:38Z</time>
      </trkpt>
      <trkpt lat="46.30269" lon="5.94112">
        <ele>893.2</ele>
        <time>2026-05-13T03:56:42Z</time>
      </trkpt>
      <trkpt lat="46.30273" lon="5.94117">
        <ele>893.8</ele>
        <time>2026-05-13T03:56:44Z</time>
      </trkpt>
      <trkpt lat="46.30279" lon="5.94128">
        <ele>894.2</ele>
        <time>2026-05-13T03:56:47Z</time>
      </trkpt>
      <trkpt lat="46.30289" lon="5.94147">
        <ele>895.2</ele>
        <time>2026-05-13T03:56:52Z</time>
      </trkpt>
      <trkpt lat="46.30291" lon="5.94152">
        <ele>895.4</ele>
        <time>2026-05-13T03:56:53Z</time>
      </trkpt>
      <trkpt lat="46.30302" lon="5.94172">
        <ele>896.4</ele>
        <time>2026-05-13T03:56:58Z</time>
      </trkpt>
      <trkpt lat="46.30307" lon="5.9418">
        <ele>896.8</ele>
        <time>2026-05-13T03:57:00Z</time>
      </trkpt>
      <trkpt lat="46.30319" lon="5.94199">
        <ele>897.2</ele>
        <time>2026-05-13T03:57:05Z</time>
      </trkpt>
      <trkpt lat="46.30344" lon="5.94232">
        <ele>897.6</ele>
        <time>2026-05-13T03:57:14Z</time>
      </trkpt>
      <trkpt lat="46.3035" lon="5.94238">
        <ele>897.8</ele>
        <time>2026-05-13T03:57:16Z</time>
      </trkpt>
      <trkpt lat="46.30368" lon="5.94257">
        <ele>898.2</ele>
        <time>2026-05-13T03:57:22Z</time>
      </trkpt>
      <trkpt lat="46.30384" lon="5.94274">
        <ele>898.4</ele>
        <time>2026-05-13T03:57:27Z</time>
      </trkpt>
      <trkpt lat="46.30396" lon="5.94286">
        <ele>898.8</ele>
        <time>2026-05-13T03:57:31Z</time>
      </trkpt>
      <trkpt lat="46.30405" lon="5.94296">
        <ele>899.2</ele>
        <time>2026-05-13T03:57:34Z</time>
      </trkpt>
      <trkpt lat="46.30423" lon="5.94317">
        <ele>899.8</ele>
        <time>2026-05-13T03:57:41Z</time>
      </trkpt>
      <trkpt lat="46.30426" lon="5.94321">
        <ele>899.8</ele>
        <time>2026-05-13T03:57:42Z</time>
      </trkpt>
      <trkpt lat="46.30442" lon="5.94343">
        <ele>900.8</ele>
        <time>2026-05-13T03:57:48Z</time>
      </trkpt>
      <trkpt lat="46.30463" lon="5.94367">
        <ele>900.8</ele>
        <time>2026-05-13T03:57:54Z</time>
      </trkpt>
      <trkpt lat="46.30468" lon="5.94372">
        <ele>900.8</ele>
        <time>2026-05-13T03:57:55Z</time>
      </trkpt>
      <trkpt lat="46.30487" lon="5.94387">
        <ele>900.4</ele>
        <time>2026-05-13T03:58:00Z</time>
      </trkpt>
      <trkpt lat="46.30516" lon="5.94407">
        <ele>900</ele>
        <time>2026-05-13T03:58:06Z</time>
      </trkpt>
      <trkpt lat="46.30528" lon="5.94413">
        <ele>899.8</ele>
        <time>2026-05-13T03:58:09Z</time>
      </trkpt>
      <trkpt lat="46.30534" lon="5.94416">
        <ele>899.8</ele>
        <time>2026-05-13T03:58:10Z</time>
      </trkpt>
      <trkpt lat="46.3056" lon="5.94432">
        <ele>899.6</ele>
        <time>2026-05-13T03:58:16Z</time>
      </trkpt>
      <trkpt lat="46.30602" lon="5.9446">
        <ele>900.2</ele>
        <time>2026-05-13T03:58:26Z</time>
      </trkpt>
      <trkpt lat="46.30648" lon="5.9449">
        <ele>901</ele>
        <time>2026-05-13T03:58:37Z</time>
      </trkpt>
      <trkpt lat="46.30655" lon="5.94496">
        <ele>901.2</ele>
        <time>2026-05-13T03:58:39Z</time>
      </trkpt>
      <trkpt lat="46.30682" lon="5.94515">
        <ele>901.4</ele>
        <time>2026-05-13T03:58:45Z</time>
      </trkpt>
      <trkpt lat="46.30723" lon="5.94542">
        <ele>901</ele>
        <time>2026-05-13T03:58:54Z</time>
      </trkpt>
      <trkpt lat="46.30769" lon="5.94558">
        <ele>900.2</ele>
        <time>2026-05-13T03:59:03Z</time>
      </trkpt>
      <trkpt lat="46.30785" lon="5.94564">
        <ele>900.2</ele>
        <time>2026-05-13T03:59:06Z</time>
      </trkpt>
      <trkpt lat="46.3081" lon="5.94573">
        <ele>900</ele>
        <time>2026-05-13T03:59:11Z</time>
      </trkpt>
      <trkpt lat="46.30846" lon="5.94584">
        <ele>900</ele>
        <time>2026-05-13T03:59:19Z</time>
      </trkpt>
      <trkpt lat="46.30881" lon="5.94596">
        <ele>900.6</ele>
        <time>2026-05-13T03:59:27Z</time>
      </trkpt>
      <trkpt lat="46.30907" lon="5.94605">
        <ele>901.2</ele>
        <time>2026-05-13T03:59:34Z</time>
      </trkpt>
      <trkpt lat="46.30915" lon="5.94608">
        <ele>901.4</ele>
        <time>2026-05-13T03:59:36Z</time>
      </trkpt>
      <trkpt lat="46.30932" lon="5.94614">
        <ele>902.4</ele>
        <time>2026-05-13T03:59:41Z</time>
      </trkpt>
      <trkpt lat="46.30935" lon="5.94615">
        <ele>902.4</ele>
        <time>2026-05-13T03:59:42Z</time>
      </trkpt>
      <trkpt lat="46.30952" lon="5.94621">
        <ele>903.6</ele>
        <time>2026-05-13T03:59:47Z</time>
      </trkpt>
      <trkpt lat="46.3098" lon="5.94632">
        <ele>904.8</ele>
        <time>2026-05-13T03:59:54Z</time>
      </trkpt>
      <trkpt lat="46.30987" lon="5.94636">
        <ele>905</ele>
        <time>2026-05-13T03:59:56Z</time>
      </trkpt>
      <trkpt lat="46.31026" lon="5.94656">
        <ele>905.8</ele>
        <time>2026-05-13T04:00:06Z</time>
      </trkpt>
      <trkpt lat="46.31053" lon="5.94674">
        <ele>906.4</ele>
        <time>2026-05-13T04:00:13Z</time>
      </trkpt>
      <trkpt lat="46.31082" lon="5.94691">
        <ele>906.6</ele>
        <time>2026-05-13T04:00:20Z</time>
      </trkpt>
      <trkpt lat="46.31115" lon="5.947">
        <ele>906.4</ele>
        <time>2026-05-13T04:00:27Z</time>
      </trkpt>
      <trkpt lat="46.31152" lon="5.94708">
        <ele>906.6</ele>
        <time>2026-05-13T04:00:35Z</time>
      </trkpt>
      <trkpt lat="46.31157" lon="5.9471">
        <ele>906.6</ele>
        <time>2026-05-13T04:00:36Z</time>
      </trkpt>
      <trkpt lat="46.31198" lon="5.94728">
        <ele>906.6</ele>
        <time>2026-05-13T04:00:44Z</time>
      </trkpt>
      <trkpt lat="46.31239" lon="5.94749">
        <ele>905.2</ele>
        <time>2026-05-13T04:00:50Z</time>
      </trkpt>
      <trkpt lat="46.31252" lon="5.94756">
        <ele>904.8</ele>
        <time>2026-05-13T04:00:52Z</time>
      </trkpt>
      <trkpt lat="46.31272" lon="5.94767">
        <ele>903.8</ele>
        <time>2026-05-13T04:00:55Z</time>
      </trkpt>
      <trkpt lat="46.31289" lon="5.94777">
        <ele>903</ele>
        <time>2026-05-13T04:00:58Z</time>
      </trkpt>
      <trkpt lat="46.31308" lon="5.94786">
        <ele>902.6</ele>
        <time>2026-05-13T04:01:01Z</time>
      </trkpt>
      <trkpt lat="46.31319" lon="5.94792">
        <ele>902.4</ele>
        <time>2026-05-13T04:01:03Z</time>
      </trkpt>
      <trkpt lat="46.31368" lon="5.94829">
        <ele>902</ele>
        <time>2026-05-13T04:01:12Z</time>
      </trkpt>
      <trkpt lat="46.31392" lon="5.94847">
        <ele>901.6</ele>
        <time>2026-05-13T04:01:16Z</time>
      </trkpt>
      <trkpt lat="46.31435" lon="5.9488">
        <ele>900.6</ele>
        <time>2026-05-13T04:01:24Z</time>
      </trkpt>
      <trkpt lat="46.31465" lon="5.949">
        <ele>900.6</ele>
        <time>2026-05-13T04:01:30Z</time>
      </trkpt>
      <trkpt lat="46.31469" lon="5.94903">
        <ele>900.6</ele>
        <time>2026-05-13T04:01:31Z</time>
      </trkpt>
      <trkpt lat="46.31513" lon="5.94936">
        <ele>901</ele>
        <time>2026-05-13T04:01:41Z</time>
      </trkpt>
      <trkpt lat="46.31542" lon="5.94956">
        <ele>901.4</ele>
        <time>2026-05-13T04:01:48Z</time>
      </trkpt>
      <trkpt lat="46.31558" lon="5.94967">
        <ele>901.8</ele>
        <time>2026-05-13T04:01:52Z</time>
      </trkpt>
      <trkpt lat="46.31577" lon="5.9498">
        <ele>902.2</ele>
        <time>2026-05-13T04:01:57Z</time>
      </trkpt>
      <trkpt lat="46.31601" lon="5.94999">
        <ele>902.8</ele>
        <time>2026-05-13T04:02:04Z</time>
      </trkpt>
      <trkpt lat="46.31608" lon="5.95005">
        <ele>903</ele>
        <time>2026-05-13T04:02:06Z</time>
      </trkpt>
      <trkpt lat="46.31611" lon="5.95008">
        <ele>903</ele>
        <time>2026-05-13T04:02:07Z</time>
      </trkpt>
      <trkpt lat="46.31629" lon="5.95021">
        <ele>903.4</ele>
        <time>2026-05-13T04:02:12Z</time>
      </trkpt>
      <trkpt lat="46.31642" lon="5.95027">
        <ele>903.6</ele>
        <time>2026-05-13T04:02:15Z</time>
      </trkpt>
      <trkpt lat="46.31663" lon="5.95037">
        <ele>903.8</ele>
        <time>2026-05-13T04:02:20Z</time>
      </trkpt>
      <trkpt lat="46.31685" lon="5.95047">
        <ele>904.2</ele>
        <time>2026-05-13T04:02:25Z</time>
      </trkpt>
      <trkpt lat="46.31699" lon="5.95054">
        <ele>904.4</ele>
        <time>2026-05-13T04:02:28Z</time>
      </trkpt>
      <trkpt lat="46.3174" lon="5.95076">
        <ele>904.4</ele>
        <time>2026-05-13T04:02:37Z</time>
      </trkpt>
      <trkpt lat="46.31792" lon="5.95107">
        <ele>904.2</ele>
        <time>2026-05-13T04:02:48Z</time>
      </trkpt>
      <trkpt lat="46.31822" lon="5.95127">
        <ele>904.2</ele>
        <time>2026-05-13T04:02:55Z</time>
      </trkpt>
      <trkpt lat="46.31854" lon="5.95153">
        <ele>904.6</ele>
        <time>2026-05-13T04:03:03Z</time>
      </trkpt>
      <trkpt lat="46.31858" lon="5.95156">
        <ele>904.6</ele>
        <time>2026-05-13T04:03:04Z</time>
      </trkpt>
      <trkpt lat="46.31869" lon="5.95169">
        <ele>904.4</ele>
        <time>2026-05-13T04:03:07Z</time>
      </trkpt>
      <trkpt lat="46.31881" lon="5.95183">
        <ele>904.4</ele>
        <time>2026-05-13T04:03:10Z</time>
      </trkpt>
      <trkpt lat="46.31912" lon="5.95231">
        <ele>904.4</ele>
        <time>2026-05-13T04:03:19Z</time>
      </trkpt>
      <trkpt lat="46.31923" lon="5.95246">
        <ele>904.4</ele>
        <time>2026-05-13T04:03:22Z</time>
      </trkpt>
      <trkpt lat="46.31944" lon="5.95264">
        <ele>904.4</ele>
        <time>2026-05-13T04:03:27Z</time>
      </trkpt>
      <trkpt lat="46.31974" lon="5.95292">
        <ele>904.6</ele>
        <time>2026-05-13T04:03:35Z</time>
      </trkpt>
      <trkpt lat="46.32012" lon="5.95326">
        <ele>905</ele>
        <time>2026-05-13T04:03:45Z</time>
      </trkpt>
      <trkpt lat="46.32045" lon="5.95358">
        <ele>905.2</ele>
        <time>2026-05-13T04:03:54Z</time>
      </trkpt>
      <trkpt lat="46.32055" lon="5.95368">
        <ele>905.4</ele>
        <time>2026-05-13T04:03:57Z</time>
      </trkpt>
      <trkpt lat="46.32073" lon="5.95384">
        <ele>905.6</ele>
        <time>2026-05-13T04:04:02Z</time>
      </trkpt>
      <trkpt lat="46.32101" lon="5.95407">
        <ele>905.8</ele>
        <time>2026-05-13T04:04:09Z</time>
      </trkpt>
      <trkpt lat="46.32106" lon="5.95413">
        <ele>906</ele>
        <time>2026-05-13T04:04:10Z</time>
      </trkpt>
      <trkpt lat="46.32131" lon="5.95447">
        <ele>906.2</ele>
        <time>2026-05-13T04:04:17Z</time>
      </trkpt>
      <trkpt lat="46.32153" lon="5.95475">
        <ele>906.6</ele>
        <time>2026-05-13T04:04:23Z</time>
      </trkpt>
      <trkpt lat="46.32163" lon="5.95485">
        <ele>906.8</ele>
        <time>2026-05-13T04:04:26Z</time>
      </trkpt>
      <trkpt lat="46.322" lon="5.95508">
        <ele>907.6</ele>
        <time>2026-05-13T04:04:35Z</time>
      </trkpt>
      <trkpt lat="46.32204" lon="5.9551">
        <ele>907.8</ele>
        <time>2026-05-13T04:04:36Z</time>
      </trkpt>
      <trkpt lat="46.32216" lon="5.95517">
        <ele>908</ele>
        <time>2026-05-13T04:04:39Z</time>
      </trkpt>
      <trkpt lat="46.32232" lon="5.95526">
        <ele>908.4</ele>
        <time>2026-05-13T04:04:43Z</time>
      </trkpt>
      <trkpt lat="46.32246" lon="5.95534">
        <ele>908.6</ele>
        <time>2026-05-13T04:04:47Z</time>
      </trkpt>
      <trkpt lat="46.32261" lon="5.95545">
        <ele>909</ele>
        <time>2026-05-13T04:04:51Z</time>
      </trkpt>
      <trkpt lat="46.32286" lon="5.95568">
        <ele>909.4</ele>
        <time>2026-05-13T04:04:58Z</time>
      </trkpt>
      <trkpt lat="46.3229" lon="5.95571">
        <ele>909.6</ele>
        <time>2026-05-13T04:04:59Z</time>
      </trkpt>
      <trkpt lat="46.32304" lon="5.95587">
        <ele>909.8</ele>
        <time>2026-05-13T04:05:03Z</time>
      </trkpt>
      <trkpt lat="46.3231" lon="5.95593">
        <ele>909.8</ele>
        <time>2026-05-13T04:05:05Z</time>
      </trkpt>
      <trkpt lat="46.32327" lon="5.95612">
        <ele>910.6</ele>
        <time>2026-05-13T04:05:11Z</time>
      </trkpt>
      <trkpt lat="46.32332" lon="5.95617">
        <ele>911</ele>
        <time>2026-05-13T04:05:13Z</time>
      </trkpt>
      <trkpt lat="46.3235" lon="5.95628">
        <ele>912</ele>
        <time>2026-05-13T04:05:19Z</time>
      </trkpt>
      <trkpt lat="46.32353" lon="5.95628">
        <ele>912.2</ele>
        <time>2026-05-13T04:05:20Z</time>
      </trkpt>
      <trkpt lat="46.32368" lon="5.95629">
        <ele>913.2</ele>
        <time>2026-05-13T04:05:24Z</time>
      </trkpt>
      <trkpt lat="46.32381" lon="5.95628">
        <ele>913.6</ele>
        <time>2026-05-13T04:05:28Z</time>
      </trkpt>
      <trkpt lat="46.32391" lon="5.95626">
        <ele>914.4</ele>
        <time>2026-05-13T04:05:31Z</time>
      </trkpt>
      <trkpt lat="46.32404" lon="5.95622">
        <ele>914.8</ele>
        <time>2026-05-13T04:05:35Z</time>
      </trkpt>
      <trkpt lat="46.32412" lon="5.9562">
        <ele>915.4</ele>
        <time>2026-05-13T04:05:38Z</time>
      </trkpt>
      <trkpt lat="46.32429" lon="5.95615">
        <ele>916.2</ele>
        <time>2026-05-13T04:05:44Z</time>
      </trkpt>
      <trkpt lat="46.32433" lon="5.95614">
        <ele>916.4</ele>
        <time>2026-05-13T04:05:46Z</time>
      </trkpt>
      <trkpt lat="46.32446" lon="5.95613">
        <ele>916.8</ele>
        <time>2026-05-13T04:05:51Z</time>
      </trkpt>
      <trkpt lat="46.32457" lon="5.95614">
        <ele>917.4</ele>
        <time>2026-05-13T04:05:55Z</time>
      </trkpt>
      <trkpt lat="46.32466" lon="5.95618">
        <ele>918</ele>
        <time>2026-05-13T04:05:59Z</time>
      </trkpt>
      <trkpt lat="46.32473" lon="5.95621">
        <ele>918.4</ele>
        <time>2026-05-13T04:06:02Z</time>
      </trkpt>
      <trkpt lat="46.32479" lon="5.95626">
        <ele>918.8</ele>
        <time>2026-05-13T04:06:05Z</time>
      </trkpt>
      <trkpt lat="46.3249" lon="5.95634">
        <ele>919.6</ele>
        <time>2026-05-13T04:06:10Z</time>
      </trkpt>
      <trkpt lat="46.32496" lon="5.95637">
        <ele>920</ele>
        <time>2026-05-13T04:06:13Z</time>
      </trkpt>
      <trkpt lat="46.32507" lon="5.95645">
        <ele>920.6</ele>
        <time>2026-05-13T04:06:18Z</time>
      </trkpt>
      <trkpt lat="46.32509" lon="5.95647">
        <ele>920.8</ele>
        <time>2026-05-13T04:06:19Z</time>
      </trkpt>
      <trkpt lat="46.32528" lon="5.95662">
        <ele>921.6</ele>
        <time>2026-05-13T04:06:27Z</time>
      </trkpt>
      <trkpt lat="46.32544" lon="5.95672">
        <ele>922.8</ele>
        <time>2026-05-13T04:06:33Z</time>
      </trkpt>
      <trkpt lat="46.3255" lon="5.95675">
        <ele>923</ele>
        <time>2026-05-13T04:06:35Z</time>
      </trkpt>
      <trkpt lat="46.32567" lon="5.95688">
        <ele>924</ele>
        <time>2026-05-13T04:06:42Z</time>
      </trkpt>
      <trkpt lat="46.32574" lon="5.95694">
        <ele>924.4</ele>
        <time>2026-05-13T04:06:45Z</time>
      </trkpt>
      <trkpt lat="46.32587" lon="5.95702">
        <ele>925</ele>
        <time>2026-05-13T04:06:50Z</time>
      </trkpt>
      <trkpt lat="46.32592" lon="5.95705">
        <ele>925.4</ele>
        <time>2026-05-13T04:06:53Z</time>
      </trkpt>
      <trkpt lat="46.32605" lon="5.95713">
        <ele>926.2</ele>
        <time>2026-05-13T04:06:58Z</time>
      </trkpt>
      <trkpt lat="46.32607" lon="5.95714">
        <ele>926.4</ele>
        <time>2026-05-13T04:06:59Z</time>
      </trkpt>
      <trkpt lat="46.32621" lon="5.95721">
        <ele>927.2</ele>
        <time>2026-05-13T04:07:04Z</time>
      </trkpt>
      <trkpt lat="46.32629" lon="5.95724">
        <ele>927.8</ele>
        <time>2026-05-13T04:07:07Z</time>
      </trkpt>
      <trkpt lat="46.3264" lon="5.95728">
        <ele>928.4</ele>
        <time>2026-05-13T04:07:11Z</time>
      </trkpt>
      <trkpt lat="46.32649" lon="5.9573">
        <ele>928.8</ele>
        <time>2026-05-13T04:07:14Z</time>
      </trkpt>
      <trkpt lat="46.32665" lon="5.95732">
        <ele>929.4</ele>
        <time>2026-05-13T04:07:20Z</time>
      </trkpt>
      <trkpt lat="46.32675" lon="5.95734">
        <ele>929.8</ele>
        <time>2026-05-13T04:07:24Z</time>
      </trkpt>
      <trkpt lat="46.32689" lon="5.95736">
        <ele>930.4</ele>
        <time>2026-05-13T04:07:29Z</time>
      </trkpt>
      <trkpt lat="46.32714" lon="5.95747">
        <ele>931.4</ele>
        <time>2026-05-13T04:07:38Z</time>
      </trkpt>
      <trkpt lat="46.32717" lon="5.95749">
        <ele>931.6</ele>
        <time>2026-05-13T04:07:39Z</time>
      </trkpt>
      <trkpt lat="46.32731" lon="5.95765">
        <ele>932.2</ele>
        <time>2026-05-13T04:07:45Z</time>
      </trkpt>
      <trkpt lat="46.3274" lon="5.95779">
        <ele>932.6</ele>
        <time>2026-05-13T04:07:49Z</time>
      </trkpt>
      <trkpt lat="46.32746" lon="5.9579">
        <ele>932.8</ele>
        <time>2026-05-13T04:07:52Z</time>
      </trkpt>
      <trkpt lat="46.32764" lon="5.95816">
        <ele>933.2</ele>
        <time>2026-05-13T04:08:00Z</time>
      </trkpt>
      <trkpt lat="46.32789" lon="5.95842">
        <ele>933.4</ele>
        <time>2026-05-13T04:08:07Z</time>
      </trkpt>
      <trkpt lat="46.32801" lon="5.95846">
        <ele>933.6</ele>
        <time>2026-05-13T04:08:10Z</time>
      </trkpt>
      <trkpt lat="46.32809" lon="5.95846">
        <ele>933.8</ele>
        <time>2026-05-13T04:08:12Z</time>
      </trkpt>
      <trkpt lat="46.32816" lon="5.95847">
        <ele>933.8</ele>
        <time>2026-05-13T04:08:14Z</time>
      </trkpt>
      <trkpt lat="46.3282" lon="5.95847">
        <ele>933.8</ele>
        <time>2026-05-13T04:08:15Z</time>
      </trkpt>
      <trkpt lat="46.32844" lon="5.95846">
        <ele>933.8</ele>
        <time>2026-05-13T04:08:21Z</time>
      </trkpt>
      <trkpt lat="46.32857" lon="5.95848">
        <ele>934</ele>
        <time>2026-05-13T04:08:24Z</time>
      </trkpt>
      <trkpt lat="46.32874" lon="5.95855">
        <ele>934</ele>
        <time>2026-05-13T04:08:28Z</time>
      </trkpt>
      <trkpt lat="46.32878" lon="5.95858">
        <ele>934</ele>
        <time>2026-05-13T04:08:29Z</time>
      </trkpt>
      <trkpt lat="46.32886" lon="5.95865">
        <ele>934</ele>
        <time>2026-05-13T04:08:31Z</time>
      </trkpt>
      <trkpt lat="46.32894" lon="5.95874">
        <ele>933.8</ele>
        <time>2026-05-13T04:08:33Z</time>
      </trkpt>
      <trkpt lat="46.32909" lon="5.95892">
        <ele>933.8</ele>
        <time>2026-05-13T04:08:37Z</time>
      </trkpt>
      <trkpt lat="46.32924" lon="5.959">
        <ele>933.6</ele>
        <time>2026-05-13T04:08:40Z</time>
      </trkpt>
      <trkpt lat="46.32928" lon="5.95901">
        <ele>933.6</ele>
        <time>2026-05-13T04:08:41Z</time>
      </trkpt>
      <trkpt lat="46.32938" lon="5.95901">
        <ele>933.6</ele>
        <time>2026-05-13T04:08:43Z</time>
      </trkpt>
      <trkpt lat="46.32943" lon="5.95899">
        <ele>933.6</ele>
        <time>2026-05-13T04:08:44Z</time>
      </trkpt>
      <trkpt lat="46.32968" lon="5.95887">
        <ele>933.8</ele>
        <time>2026-05-13T04:08:50Z</time>
      </trkpt>
      <trkpt lat="46.3299" lon="5.95868">
        <ele>934.4</ele>
        <time>2026-05-13T04:08:57Z</time>
      </trkpt>
      <trkpt lat="46.32996" lon="5.95865">
        <ele>934.6</ele>
        <time>2026-05-13T04:08:59Z</time>
      </trkpt>
      <trkpt lat="46.33004" lon="5.95862">
        <ele>935.2</ele>
        <time>2026-05-13T04:09:02Z</time>
      </trkpt>
      <trkpt lat="46.33009" lon="5.95862">
        <ele>935.6</ele>
        <time>2026-05-13T04:09:04Z</time>
      </trkpt>
      <trkpt lat="46.33018" lon="5.95865">
        <ele>936.4</ele>
        <time>2026-05-13T04:09:08Z</time>
      </trkpt>
      <trkpt lat="46.33021" lon="5.95866">
        <ele>936.8</ele>
        <time>2026-05-13T04:09:09Z</time>
      </trkpt>
      <trkpt lat="46.3303" lon="5.95874">
        <ele>937.2</ele>
        <time>2026-05-13T04:09:13Z</time>
      </trkpt>
      <trkpt lat="46.33036" lon="5.95878">
        <ele>937.8</ele>
        <time>2026-05-13T04:09:15Z</time>
      </trkpt>
      <trkpt lat="46.33048" lon="5.95892">
        <ele>938.6</ele>
        <time>2026-05-13T04:09:20Z</time>
      </trkpt>
      <trkpt lat="46.33052" lon="5.95898">
        <ele>938.8</ele>
        <time>2026-05-13T04:09:22Z</time>
      </trkpt>
      <trkpt lat="46.33059" lon="5.95912">
        <ele>940</ele>
        <time>2026-05-13T04:09:27Z</time>
      </trkpt>
      <trkpt lat="46.33061" lon="5.95916">
        <ele>940</ele>
        <time>2026-05-13T04:09:28Z</time>
      </trkpt>
      <trkpt lat="46.33065" lon="5.95928">
        <ele>940.8</ele>
        <time>2026-05-13T04:09:33Z</time>
      </trkpt>
      <trkpt lat="46.33069" lon="5.95938">
        <ele>941</ele>
        <time>2026-05-13T04:09:35Z</time>
      </trkpt>
      <trkpt lat="46.3308" lon="5.95961">
        <ele>941.6</ele>
        <time>2026-05-13T04:09:42Z</time>
      </trkpt>
      <trkpt lat="46.33086" lon="5.9597">
        <ele>942.2</ele>
        <time>2026-05-13T04:09:45Z</time>
      </trkpt>
      <trkpt lat="46.33094" lon="5.95981">
        <ele>942.4</ele>
        <time>2026-05-13T04:09:49Z</time>
      </trkpt>
      <trkpt lat="46.33101" lon="5.95989">
        <ele>943</ele>
        <time>2026-05-13T04:09:52Z</time>
      </trkpt>
      <trkpt lat="46.33112" lon="5.96">
        <ele>943.6</ele>
        <time>2026-05-13T04:09:57Z</time>
      </trkpt>
      <trkpt lat="46.33119" lon="5.96006">
        <ele>944</ele>
        <time>2026-05-13T04:10:00Z</time>
      </trkpt>
      <trkpt lat="46.33131" lon="5.96016">
        <ele>944.4</ele>
        <time>2026-05-13T04:10:05Z</time>
      </trkpt>
      <trkpt lat="46.33147" lon="5.96024">
        <ele>945.2</ele>
        <time>2026-05-13T04:10:11Z</time>
      </trkpt>
      <trkpt lat="46.33149" lon="5.96025">
        <ele>945.4</ele>
        <time>2026-05-13T04:10:12Z</time>
      </trkpt>
      <trkpt lat="46.33166" lon="5.96033">
        <ele>946.4</ele>
        <time>2026-05-13T04:10:18Z</time>
      </trkpt>
      <trkpt lat="46.33174" lon="5.96036">
        <ele>946.6</ele>
        <time>2026-05-13T04:10:21Z</time>
      </trkpt>
      <trkpt lat="46.33193" lon="5.96048">
        <ele>947.2</ele>
        <time>2026-05-13T04:10:28Z</time>
      </trkpt>
      <trkpt lat="46.33199" lon="5.96053">
        <ele>947.4</ele>
        <time>2026-05-13T04:10:30Z</time>
      </trkpt>
      <trkpt lat="46.33212" lon="5.96061">
        <ele>947.6</ele>
        <time>2026-05-13T04:10:34Z</time>
      </trkpt>
      <trkpt lat="46.33242" lon="5.96076">
        <ele>947.4</ele>
        <time>2026-05-13T04:10:41Z</time>
      </trkpt>
      <trkpt lat="46.33271" lon="5.96089">
        <ele>946.8</ele>
        <time>2026-05-13T04:10:48Z</time>
      </trkpt>
      <trkpt lat="46.33317" lon="5.9611">
        <ele>947</ele>
        <time>2026-05-13T04:11:00Z</time>
      </trkpt>
      <trkpt lat="46.33345" lon="5.96131">
        <ele>947.8</ele>
        <time>2026-05-13T04:11:09Z</time>
      </trkpt>
      <trkpt lat="46.33349" lon="5.96134">
        <ele>948.4</ele>
        <time>2026-05-13T04:11:10Z</time>
      </trkpt>
      <trkpt lat="46.33371" lon="5.96155">
        <ele>949.6</ele>
        <time>2026-05-13T04:11:18Z</time>
      </trkpt>
      <trkpt lat="46.33377" lon="5.96161">
        <ele>949.8</ele>
        <time>2026-05-13T04:11:20Z</time>
      </trkpt>
      <trkpt lat="46.33404" lon="5.96185">
        <ele>950.2</ele>
        <time>2026-05-13T04:11:29Z</time>
      </trkpt>
      <trkpt lat="46.33423" lon="5.96202">
        <ele>950.6</ele>
        <time>2026-05-13T04:11:35Z</time>
      </trkpt>
      <trkpt lat="46.33438" lon="5.96215">
        <ele>951</ele>
        <time>2026-05-13T04:11:40Z</time>
      </trkpt>
      <trkpt lat="46.33462" lon="5.96236">
        <ele>951.2</ele>
        <time>2026-05-13T04:11:47Z</time>
      </trkpt>
      <trkpt lat="46.33491" lon="5.96264">
        <ele>951</ele>
        <time>2026-05-13T04:11:54Z</time>
      </trkpt>
      <trkpt lat="46.33528" lon="5.96301">
        <ele>950</ele>
        <time>2026-05-13T04:12:02Z</time>
      </trkpt>
      <trkpt lat="46.33538" lon="5.96312">
        <ele>949.6</ele>
        <time>2026-05-13T04:12:04Z</time>
      </trkpt>
      <trkpt lat="46.33561" lon="5.96338">
        <ele>949</ele>
        <time>2026-05-13T04:12:09Z</time>
      </trkpt>
      <trkpt lat="46.33573" lon="5.96356">
        <ele>948.6</ele>
        <time>2026-05-13T04:12:12Z</time>
      </trkpt>
      <trkpt lat="46.33597" lon="5.96385">
        <ele>948</ele>
        <time>2026-05-13T04:12:17Z</time>
      </trkpt>
      <trkpt lat="46.33614" lon="5.964">
        <ele>947.4</ele>
        <time>2026-05-13T04:12:20Z</time>
      </trkpt>
      <trkpt lat="46.33636" lon="5.96418">
        <ele>947</ele>
        <time>2026-05-13T04:12:24Z</time>
      </trkpt>
      <trkpt lat="46.3365" lon="5.96437">
        <ele>946.4</ele>
        <time>2026-05-13T04:12:27Z</time>
      </trkpt>
      <trkpt lat="46.33669" lon="5.96464">
        <ele>946</ele>
        <time>2026-05-13T04:12:31Z</time>
      </trkpt>
      <trkpt lat="46.33682" lon="5.96487">
        <ele>945.4</ele>
        <time>2026-05-13T04:12:34Z</time>
      </trkpt>
      <trkpt lat="46.33696" lon="5.96506">
        <ele>944.6</ele>
        <time>2026-05-13T04:12:37Z</time>
      </trkpt>
      <trkpt lat="46.33703" lon="5.96514">
        <ele>944.4</ele>
        <time>2026-05-13T04:12:38Z</time>
      </trkpt>
      <trkpt lat="46.33709" lon="5.96519">
        <ele>944</ele>
        <time>2026-05-13T04:12:39Z</time>
      </trkpt>
      <trkpt lat="46.33715" lon="5.96524">
        <ele>943.8</ele>
        <time>2026-05-13T04:12:40Z</time>
      </trkpt>
      <trkpt lat="46.33726" lon="5.96531">
        <ele>943.2</ele>
        <time>2026-05-13T04:12:42Z</time>
      </trkpt>
      <trkpt lat="46.3374" lon="5.9654">
        <ele>942.8</ele>
        <time>2026-05-13T04:12:44Z</time>
      </trkpt>
      <trkpt lat="46.33766" lon="5.96558">
        <ele>942.4</ele>
        <time>2026-05-13T04:12:49Z</time>
      </trkpt>
      <trkpt lat="46.33771" lon="5.96562">
        <ele>942.2</ele>
        <time>2026-05-13T04:12:50Z</time>
      </trkpt>
      <trkpt lat="46.33793" lon="5.96585">
        <ele>942.2</ele>
        <time>2026-05-13T04:12:55Z</time>
      </trkpt>
      <trkpt lat="46.33822" lon="5.96626">
        <ele>942.8</ele>
        <time>2026-05-13T04:13:03Z</time>
      </trkpt>
      <trkpt lat="46.33854" lon="5.96656">
        <ele>942.6</ele>
        <time>2026-05-13T04:13:10Z</time>
      </trkpt>
      <trkpt lat="46.33891" lon="5.96684">
        <ele>942.4</ele>
        <time>2026-05-13T04:13:18Z</time>
      </trkpt>
      <trkpt lat="46.33944" lon="5.9672">
        <ele>942.6</ele>
        <time>2026-05-13T04:13:29Z</time>
      </trkpt>
      <trkpt lat="46.33953" lon="5.96726">
        <ele>942.6</ele>
        <time>2026-05-13T04:13:31Z</time>
      </trkpt>
      <trkpt lat="46.33996" lon="5.96751">
        <ele>943</ele>
        <time>2026-05-13T04:13:40Z</time>
      </trkpt>
      <trkpt lat="46.34042" lon="5.96772">
        <ele>942.8</ele>
        <time>2026-05-13T04:13:49Z</time>
      </trkpt>
      <trkpt lat="46.34085" lon="5.96787">
        <ele>943</ele>
        <time>2026-05-13T04:13:58Z</time>
      </trkpt>
      <trkpt lat="46.34131" lon="5.96802">
        <ele>943.4</ele>
        <time>2026-05-13T04:14:08Z</time>
      </trkpt>
      <trkpt lat="46.34164" lon="5.96814">
        <ele>943.8</ele>
        <time>2026-05-13T04:14:16Z</time>
      </trkpt>
      <trkpt lat="46.34177" lon="5.96821">
        <ele>944.2</ele>
        <time>2026-05-13T04:14:19Z</time>
      </trkpt>
      <trkpt lat="46.34201" lon="5.96838">
        <ele>944.8</ele>
        <time>2026-05-13T04:14:25Z</time>
      </trkpt>
      <trkpt lat="46.3422" lon="5.96859">
        <ele>945.2</ele>
        <time>2026-05-13T04:14:30Z</time>
      </trkpt>
      <trkpt lat="46.34223" lon="5.96864">
        <ele>945.2</ele>
        <time>2026-05-13T04:14:31Z</time>
      </trkpt>
      <trkpt lat="46.34253" lon="5.96911">
        <ele>945.2</ele>
        <time>2026-05-13T04:14:40Z</time>
      </trkpt>
      <trkpt lat="46.34257" lon="5.96915">
        <ele>945.2</ele>
        <time>2026-05-13T04:14:41Z</time>
      </trkpt>
      <trkpt lat="46.3426" lon="5.96919">
        <ele>945.2</ele>
        <time>2026-05-13T04:14:42Z</time>
      </trkpt>
      <trkpt lat="46.3427" lon="5.96937">
        <ele>944.8</ele>
        <time>2026-05-13T04:14:45Z</time>
      </trkpt>
      <trkpt lat="46.34273" lon="5.96942">
        <ele>944.8</ele>
        <time>2026-05-13T04:14:46Z</time>
      </trkpt>
      <trkpt lat="46.34283" lon="5.96959">
        <ele>944.4</ele>
        <time>2026-05-13T04:14:49Z</time>
      </trkpt>
      <trkpt lat="46.34286" lon="5.96965">
        <ele>944.4</ele>
        <time>2026-05-13T04:14:50Z</time>
      </trkpt>
      <trkpt lat="46.34289" lon="5.9697">
        <ele>944.4</ele>
        <time>2026-05-13T04:14:51Z</time>
      </trkpt>
      <trkpt lat="46.34306" lon="5.96998">
        <ele>944.2</ele>
        <time>2026-05-13T04:14:55Z</time>
      </trkpt>
      <trkpt lat="46.34313" lon="5.9701">
        <ele>943.8</ele>
        <time>2026-05-13T04:14:57Z</time>
      </trkpt>
      <trkpt lat="46.34329" lon="5.97034">
        <ele>943.6</ele>
        <time>2026-05-13T04:15:01Z</time>
      </trkpt>
      <trkpt lat="46.34337" lon="5.97046">
        <ele>943.4</ele>
        <time>2026-05-13T04:15:03Z</time>
      </trkpt>
      <trkpt lat="46.34339" lon="5.97049">
        <ele>943.4</ele>
        <time>2026-05-13T04:15:04Z</time>
      </trkpt>
      <trkpt lat="46.34345" lon="5.97056">
        <ele>943</ele>
        <time>2026-05-13T04:15:06Z</time>
      </trkpt>
      <trkpt lat="46.34353" lon="5.97062">
        <ele>942.8</ele>
        <time>2026-05-13T04:15:08Z</time>
      </trkpt>
      <trkpt lat="46.34358" lon="5.97066">
        <ele>942.8</ele>
        <time>2026-05-13T04:15:09Z</time>
      </trkpt>
      <trkpt lat="46.34363" lon="5.97071">
        <ele>942.8</ele>
        <time>2026-05-13T04:15:10Z</time>
      </trkpt>
      <trkpt lat="46.34381" lon="5.97084">
        <ele>942.2</ele>
        <time>2026-05-13T04:15:13Z</time>
      </trkpt>
      <trkpt lat="46.344" lon="5.97098">
        <ele>942</ele>
        <time>2026-05-13T04:15:16Z</time>
      </trkpt>
      <trkpt lat="46.34406" lon="5.97103">
        <ele>942</ele>
        <time>2026-05-13T04:15:17Z</time>
      </trkpt>
      <trkpt lat="46.34419" lon="5.97114">
        <ele>941.8</ele>
        <time>2026-05-13T04:15:19Z</time>
      </trkpt>
      <trkpt lat="46.34426" lon="5.97121">
        <ele>941.6</ele>
        <time>2026-05-13T04:15:20Z</time>
      </trkpt>
      <trkpt lat="46.34436" lon="5.97135">
        <ele>941.4</ele>
        <time>2026-05-13T04:15:22Z</time>
      </trkpt>
      <trkpt lat="46.34473" lon="5.97175">
        <ele>940.6</ele>
        <time>2026-05-13T04:15:29Z</time>
      </trkpt>
      <trkpt lat="46.34485" lon="5.97183">
        <ele>940.6</ele>
        <time>2026-05-13T04:15:31Z</time>
      </trkpt>
      <trkpt lat="46.34517" lon="5.97207">
        <ele>940.2</ele>
        <time>2026-05-13T04:15:37Z</time>
      </trkpt>
      <trkpt lat="46.34526" lon="5.97215">
        <ele>940.2</ele>
        <time>2026-05-13T04:15:39Z</time>
      </trkpt>
      <trkpt lat="46.34545" lon="5.97235">
        <ele>940.2</ele>
        <time>2026-05-13T04:15:44Z</time>
      </trkpt>
      <trkpt lat="46.3458" lon="5.97276">
        <ele>940.8</ele>
        <time>2026-05-13T04:15:54Z</time>
      </trkpt>
      <trkpt lat="46.34613" lon="5.97311">
        <ele>941.4</ele>
        <time>2026-05-13T04:16:03Z</time>
      </trkpt>
      <trkpt lat="46.34625" lon="5.97321">
        <ele>941.6</ele>
        <time>2026-05-13T04:16:06Z</time>
      </trkpt>
      <trkpt lat="46.34629" lon="5.97325">
        <ele>941.6</ele>
        <time>2026-05-13T04:16:07Z</time>
      </trkpt>
      <trkpt lat="46.34635" lon="5.97331">
        <ele>941.8</ele>
        <time>2026-05-13T04:16:09Z</time>
      </trkpt>
      <trkpt lat="46.34673" lon="5.97368">
        <ele>942.6</ele>
        <time>2026-05-13T04:16:20Z</time>
      </trkpt>
      <trkpt lat="46.34677" lon="5.97371">
        <ele>942.6</ele>
        <time>2026-05-13T04:16:21Z</time>
      </trkpt>
      <trkpt lat="46.34716" lon="5.97405">
        <ele>943.8</ele>
        <time>2026-05-13T04:16:32Z</time>
      </trkpt>
      <trkpt lat="46.34748" lon="5.9743">
        <ele>944.2</ele>
        <time>2026-05-13T04:16:40Z</time>
      </trkpt>
      <trkpt lat="46.34793" lon="5.9746">
        <ele>944.2</ele>
        <time>2026-05-13T04:16:50Z</time>
      </trkpt>
      <trkpt lat="46.34834" lon="5.9749">
        <ele>944.8</ele>
        <time>2026-05-13T04:17:00Z</time>
      </trkpt>
      <trkpt lat="46.34865" lon="5.97517">
        <ele>945.6</ele>
        <time>2026-05-13T04:17:08Z</time>
      </trkpt>
      <trkpt lat="46.34888" lon="5.97536">
        <ele>946</ele>
        <time>2026-05-13T04:17:14Z</time>
      </trkpt>
      <trkpt lat="46.34895" lon="5.97542">
        <ele>946.2</ele>
        <time>2026-05-13T04:17:16Z</time>
      </trkpt>
      <trkpt lat="46.34923" lon="5.97567">
        <ele>947</ele>
        <time>2026-05-13T04:17:24Z</time>
      </trkpt>
      <trkpt lat="46.3493" lon="5.97574">
        <ele>947.2</ele>
        <time>2026-05-13T04:17:26Z</time>
      </trkpt>
      <trkpt lat="46.34958" lon="5.97597">
        <ele>947.8</ele>
        <time>2026-05-13T04:17:34Z</time>
      </trkpt>
      <trkpt lat="46.34978" lon="5.97616">
        <ele>948</ele>
        <time>2026-05-13T04:17:40Z</time>
      </trkpt>
      <trkpt lat="46.34982" lon="5.97618">
        <ele>948.2</ele>
        <time>2026-05-13T04:17:41Z</time>
      </trkpt>
      <trkpt lat="46.35005" lon="5.97639">
        <ele>948.8</ele>
        <time>2026-05-13T04:17:48Z</time>
      </trkpt>
      <trkpt lat="46.35019" lon="5.97648">
        <ele>949.2</ele>
        <time>2026-05-13T04:17:52Z</time>
      </trkpt>
      <trkpt lat="46.35039" lon="5.97662">
        <ele>950.2</ele>
        <time>2026-05-13T04:17:58Z</time>
      </trkpt>
      <trkpt lat="46.35057" lon="5.97673">
        <ele>950.8</ele>
        <time>2026-05-13T04:18:03Z</time>
      </trkpt>
      <trkpt lat="46.35063" lon="5.97679">
        <ele>951.2</ele>
        <time>2026-05-13T04:18:05Z</time>
      </trkpt>
      <trkpt lat="46.35088" lon="5.97701">
        <ele>952.2</ele>
        <time>2026-05-13T04:18:13Z</time>
      </trkpt>
      <trkpt lat="46.35093" lon="5.97708">
        <ele>952.4</ele>
        <time>2026-05-13T04:18:15Z</time>
      </trkpt>
      <trkpt lat="46.35112" lon="5.97731">
        <ele>953.4</ele>
        <time>2026-05-13T04:18:22Z</time>
      </trkpt>
      <trkpt lat="46.35115" lon="5.97734">
        <ele>953.4</ele>
        <time>2026-05-13T04:18:23Z</time>
      </trkpt>
      <trkpt lat="46.35135" lon="5.9776">
        <ele>954.4</ele>
        <time>2026-05-13T04:18:31Z</time>
      </trkpt>
      <trkpt lat="46.3514" lon="5.97766">
        <ele>954.8</ele>
        <time>2026-05-13T04:18:33Z</time>
      </trkpt>
      <trkpt lat="46.35153" lon="5.97781">
        <ele>955.4</ele>
        <time>2026-05-13T04:18:38Z</time>
      </trkpt>
      <trkpt lat="46.35155" lon="5.97784">
        <ele>955.6</ele>
        <time>2026-05-13T04:18:39Z</time>
      </trkpt>
      <trkpt lat="46.35171" lon="5.97801">
        <ele>956.8</ele>
        <time>2026-05-13T04:18:45Z</time>
      </trkpt>
      <trkpt lat="46.35193" lon="5.97822">
        <ele>957.8</ele>
        <time>2026-05-13T04:18:53Z</time>
      </trkpt>
      <trkpt lat="46.35199" lon="5.97827">
        <ele>958</ele>
        <time>2026-05-13T04:18:55Z</time>
      </trkpt>
      <trkpt lat="46.35218" lon="5.97844">
        <ele>959</ele>
        <time>2026-05-13T04:19:02Z</time>
      </trkpt>
      <trkpt lat="46.35221" lon="5.97847">
        <ele>959</ele>
        <time>2026-05-13T04:19:03Z</time>
      </trkpt>
      <trkpt lat="46.35243" lon="5.97866">
        <ele>960</ele>
        <time>2026-05-13T04:19:11Z</time>
      </trkpt>
      <trkpt lat="46.35246" lon="5.97869">
        <ele>960</ele>
        <time>2026-05-13T04:19:12Z</time>
      </trkpt>
      <trkpt lat="46.35268" lon="5.97892">
        <ele>961</ele>
        <time>2026-05-13T04:19:20Z</time>
      </trkpt>
      <trkpt lat="46.35271" lon="5.97895">
        <ele>961</ele>
        <time>2026-05-13T04:19:21Z</time>
      </trkpt>
      <trkpt lat="46.35289" lon="5.9792">
        <ele>961.4</ele>
        <time>2026-05-13T04:19:27Z</time>
      </trkpt>
      <trkpt lat="46.35295" lon="5.9793">
        <ele>961.4</ele>
        <time>2026-05-13T04:19:29Z</time>
      </trkpt>
      <trkpt lat="46.35308" lon="5.97952">
        <ele>961.2</ele>
        <time>2026-05-13T04:19:33Z</time>
      </trkpt>
      <trkpt lat="46.3532" lon="5.97967">
        <ele>961</ele>
        <time>2026-05-13T04:19:36Z</time>
      </trkpt>
      <trkpt lat="46.35333" lon="5.9798">
        <ele>960.8</ele>
        <time>2026-05-13T04:19:39Z</time>
      </trkpt>
      <trkpt lat="46.35362" lon="5.97998">
        <ele>960.4</ele>
        <time>2026-05-13T04:19:45Z</time>
      </trkpt>
      <trkpt lat="46.35366" lon="5.97999">
        <ele>960.4</ele>
        <time>2026-05-13T04:19:46Z</time>
      </trkpt>
      <trkpt lat="46.35377" lon="5.98004">
        <ele>960.4</ele>
        <time>2026-05-13T04:19:48Z</time>
      </trkpt>
      <trkpt lat="46.35403" lon="5.98019">
        <ele>960.4</ele>
        <time>2026-05-13T04:19:53Z</time>
      </trkpt>
      <trkpt lat="46.35418" lon="5.98029">
        <ele>960.2</ele>
        <time>2026-05-13T04:19:56Z</time>
      </trkpt>
      <trkpt lat="46.35444" lon="5.98049">
        <ele>959.6</ele>
        <time>2026-05-13T04:20:01Z</time>
      </trkpt>
      <trkpt lat="46.35476" lon="5.98074">
        <ele>959.2</ele>
        <time>2026-05-13T04:20:07Z</time>
      </trkpt>
      <trkpt lat="46.35496" lon="5.9809">
        <ele>959</ele>
        <time>2026-05-13T04:20:11Z</time>
      </trkpt>
      <trkpt lat="46.35535" lon="5.98117">
        <ele>958.8</ele>
        <time>2026-05-13T04:20:19Z</time>
      </trkpt>
      <trkpt lat="46.35567" lon="5.98134">
        <ele>959</ele>
        <time>2026-05-13T04:20:26Z</time>
      </trkpt>
      <trkpt lat="46.35583" lon="5.98144">
        <ele>959.2</ele>
        <time>2026-05-13T04:20:30Z</time>
      </trkpt>
      <trkpt lat="46.35594" lon="5.98151">
        <ele>959.6</ele>
        <time>2026-05-13T04:20:33Z</time>
      </trkpt>
      <trkpt lat="46.35613" lon="5.98165">
        <ele>960.4</ele>
        <time>2026-05-13T04:20:39Z</time>
      </trkpt>
      <trkpt lat="46.35616" lon="5.98168">
        <ele>960.4</ele>
        <time>2026-05-13T04:20:40Z</time>
      </trkpt>
      <trkpt lat="46.3563" lon="5.98179">
        <ele>961.2</ele>
        <time>2026-05-13T04:20:45Z</time>
      </trkpt>
      <trkpt lat="46.35632" lon="5.98181">
        <ele>961.6</ele>
        <time>2026-05-13T04:20:46Z</time>
      </trkpt>
      <trkpt lat="46.35645" lon="5.98192">
        <ele>962.6</ele>
        <time>2026-05-13T04:20:51Z</time>
      </trkpt>
      <trkpt lat="46.35647" lon="5.98193">
        <ele>962.8</ele>
        <time>2026-05-13T04:20:52Z</time>
      </trkpt>
      <trkpt lat="46.35655" lon="5.98198">
        <ele>963.6</ele>
        <time>2026-05-13T04:20:55Z</time>
      </trkpt>
      <trkpt lat="46.3567" lon="5.98208">
        <ele>964.4</ele>
        <time>2026-05-13T04:21:01Z</time>
      </trkpt>
      <trkpt lat="46.35673" lon="5.98209">
        <ele>964.6</ele>
        <time>2026-05-13T04:21:02Z</time>
      </trkpt>
      <trkpt lat="46.3569" lon="5.98216">
        <ele>965.8</ele>
        <time>2026-05-13T04:21:08Z</time>
      </trkpt>
      <trkpt lat="46.35692" lon="5.98217">
        <ele>965.8</ele>
        <time>2026-05-13T04:21:09Z</time>
      </trkpt>
      <trkpt lat="46.35702" lon="5.98222">
        <ele>966.8</ele>
        <time>2026-05-13T04:21:13Z</time>
      </trkpt>
      <trkpt lat="46.3571" lon="5.98225">
        <ele>967.2</ele>
        <time>2026-05-13T04:21:16Z</time>
      </trkpt>
      <trkpt lat="46.35715" lon="5.98227">
        <ele>967.8</ele>
        <time>2026-05-13T04:21:18Z</time>
      </trkpt>
      <trkpt lat="46.35728" lon="5.98233">
        <ele>968.8</ele>
        <time>2026-05-13T04:21:23Z</time>
      </trkpt>
      <trkpt lat="46.35735" lon="5.98238">
        <ele>969.4</ele>
        <time>2026-05-13T04:21:26Z</time>
      </trkpt>
      <trkpt lat="46.35745" lon="5.98243">
        <ele>969.8</ele>
        <time>2026-05-13T04:21:30Z</time>
      </trkpt>
      <trkpt lat="46.35753" lon="5.98248">
        <ele>970.2</ele>
        <time>2026-05-13T04:21:33Z</time>
      </trkpt>
      <trkpt lat="46.35762" lon="5.98256">
        <ele>970.8</ele>
        <time>2026-05-13T04:21:37Z</time>
      </trkpt>
      <trkpt lat="46.35768" lon="5.98262">
        <ele>971.4</ele>
        <time>2026-05-13T04:21:40Z</time>
      </trkpt>
      <trkpt lat="46.35775" lon="5.98268">
        <ele>972</ele>
        <time>2026-05-13T04:21:43Z</time>
      </trkpt>
      <trkpt lat="46.35786" lon="5.9828">
        <ele>972.8</ele>
        <time>2026-05-13T04:21:48Z</time>
      </trkpt>
      <trkpt lat="46.35789" lon="5.98282">
        <ele>973</ele>
        <time>2026-05-13T04:21:49Z</time>
      </trkpt>
      <trkpt lat="46.35803" lon="5.983">
        <ele>974.2</ele>
        <time>2026-05-13T04:21:56Z</time>
      </trkpt>
      <trkpt lat="46.35816" lon="5.98318">
        <ele>975.4</ele>
        <time>2026-05-13T04:22:03Z</time>
      </trkpt>
      <trkpt lat="46.35819" lon="5.98324">
        <ele>975.6</ele>
        <time>2026-05-13T04:22:05Z</time>
      </trkpt>
      <trkpt lat="46.35827" lon="5.98336">
        <ele>976.4</ele>
        <time>2026-05-13T04:22:09Z</time>
      </trkpt>
      <trkpt lat="46.35832" lon="5.98345">
        <ele>977</ele>
        <time>2026-05-13T04:22:12Z</time>
      </trkpt>
      <trkpt lat="46.35838" lon="5.98353">
        <ele>977.6</ele>
        <time>2026-05-13T04:22:15Z</time>
      </trkpt>
      <trkpt lat="46.35845" lon="5.98365">
        <ele>978.2</ele>
        <time>2026-05-13T04:22:19Z</time>
      </trkpt>
      <trkpt lat="46.35854" lon="5.9838">
        <ele>978.8</ele>
        <time>2026-05-13T04:22:24Z</time>
      </trkpt>
      <trkpt lat="46.35856" lon="5.98383">
        <ele>979</ele>
        <time>2026-05-13T04:22:25Z</time>
      </trkpt>
      <trkpt lat="46.35863" lon="5.98389">
        <ele>979.2</ele>
        <time>2026-05-13T04:22:28Z</time>
      </trkpt>
      <trkpt lat="46.35864" lon="5.98392">
        <ele>979.4</ele>
        <time>2026-05-13T04:22:29Z</time>
      </trkpt>
      <trkpt lat="46.35871" lon="5.98399">
        <ele>979.8</ele>
        <time>2026-05-13T04:22:32Z</time>
      </trkpt>
      <trkpt lat="46.35879" lon="5.98405">
        <ele>980</ele>
        <time>2026-05-13T04:22:35Z</time>
      </trkpt>
      <trkpt lat="46.35898" lon="5.98425">
        <ele>981</ele>
        <time>2026-05-13T04:22:43Z</time>
      </trkpt>
      <trkpt lat="46.3592" lon="5.98445">
        <ele>982</ele>
        <time>2026-05-13T04:22:52Z</time>
      </trkpt>
      <trkpt lat="46.35922" lon="5.98448">
        <ele>982.2</ele>
        <time>2026-05-13T04:22:53Z</time>
      </trkpt>
      <trkpt lat="46.35937" lon="5.9847">
        <ele>983</ele>
        <time>2026-05-13T04:23:00Z</time>
      </trkpt>
      <trkpt lat="46.35939" lon="5.98474">
        <ele>983.2</ele>
        <time>2026-05-13T04:23:01Z</time>
      </trkpt>
      <trkpt lat="46.3595" lon="5.98498">
        <ele>983.8</ele>
        <time>2026-05-13T04:23:08Z</time>
      </trkpt>
      <trkpt lat="46.35953" lon="5.98505">
        <ele>984.2</ele>
        <time>2026-05-13T04:23:10Z</time>
      </trkpt>
      <trkpt lat="46.35964" lon="5.98527">
        <ele>985.4</ele>
        <time>2026-05-13T04:23:16Z</time>
      </trkpt>
      <trkpt lat="46.35977" lon="5.9855">
        <ele>986.6</ele>
        <time>2026-05-13T04:23:23Z</time>
      </trkpt>
      <trkpt lat="46.35979" lon="5.98553">
        <ele>986.6</ele>
        <time>2026-05-13T04:23:24Z</time>
      </trkpt>
      <trkpt lat="46.35994" lon="5.98572">
        <ele>987.4</ele>
        <time>2026-05-13T04:23:31Z</time>
      </trkpt>
      <trkpt lat="46.36001" lon="5.98581">
        <ele>987.6</ele>
        <time>2026-05-13T04:23:34Z</time>
      </trkpt>
      <trkpt lat="46.36014" lon="5.98596">
        <ele>988.4</ele>
        <time>2026-05-13T04:23:40Z</time>
      </trkpt>
      <trkpt lat="46.36018" lon="5.98601">
        <ele>988.6</ele>
        <time>2026-05-13T04:23:42Z</time>
      </trkpt>
      <trkpt lat="46.36027" lon="5.98612">
        <ele>989.4</ele>
        <time>2026-05-13T04:23:46Z</time>
      </trkpt>
      <trkpt lat="46.36034" lon="5.9862">
        <ele>989.8</ele>
        <time>2026-05-13T04:23:49Z</time>
      </trkpt>
      <trkpt lat="46.36043" lon="5.98631">
        <ele>990.2</ele>
        <time>2026-05-13T04:23:53Z</time>
      </trkpt>
      <trkpt lat="46.36053" lon="5.98643">
        <ele>990.8</ele>
        <time>2026-05-13T04:23:57Z</time>
      </trkpt>
      <trkpt lat="46.36065" lon="5.9866">
        <ele>991.2</ele>
        <time>2026-05-13T04:24:02Z</time>
      </trkpt>
      <trkpt lat="46.36083" lon="5.98683">
        <ele>991.6</ele>
        <time>2026-05-13T04:24:09Z</time>
      </trkpt>
      <trkpt lat="46.36088" lon="5.9869">
        <ele>991.8</ele>
        <time>2026-05-13T04:24:11Z</time>
      </trkpt>
      <trkpt lat="46.36105" lon="5.98711">
        <ele>992</ele>
        <time>2026-05-13T04:24:17Z</time>
      </trkpt>
      <trkpt lat="46.36121" lon="5.98731">
        <ele>992.2</ele>
        <time>2026-05-13T04:24:22Z</time>
      </trkpt>
      <trkpt lat="46.36124" lon="5.98735">
        <ele>992.2</ele>
        <time>2026-05-13T04:24:23Z</time>
      </trkpt>
      <trkpt lat="46.3615" lon="5.98771">
        <ele>992.6</ele>
        <time>2026-05-13T04:24:32Z</time>
      </trkpt>
      <trkpt lat="46.36162" lon="5.98784">
        <ele>992.8</ele>
        <time>2026-05-13T04:24:36Z</time>
      </trkpt>
      <trkpt lat="46.36168" lon="5.98791">
        <ele>992.8</ele>
        <time>2026-05-13T04:24:38Z</time>
      </trkpt>
      <trkpt lat="46.36193" lon="5.98829">
        <ele>993.4</ele>
        <time>2026-05-13T04:24:47Z</time>
      </trkpt>
      <trkpt lat="46.36215" lon="5.98864">
        <ele>993.4</ele>
        <time>2026-05-13T04:24:55Z</time>
      </trkpt>
      <trkpt lat="46.36243" lon="5.98894">
        <ele>994</ele>
        <time>2026-05-13T04:25:04Z</time>
      </trkpt>
      <trkpt lat="46.36266" lon="5.98923">
        <ele>994.6</ele>
        <time>2026-05-13T04:25:12Z</time>
      </trkpt>
      <trkpt lat="46.36286" lon="5.98964">
        <ele>995</ele>
        <time>2026-05-13T04:25:21Z</time>
      </trkpt>
      <trkpt lat="46.36306" lon="5.99014">
        <ele>995.8</ele>
        <time>2026-05-13T04:25:32Z</time>
      </trkpt>
      <trkpt lat="46.3631" lon="5.99023">
        <ele>996</ele>
        <time>2026-05-13T04:25:34Z</time>
      </trkpt>
      <trkpt lat="46.36324" lon="5.99047">
        <ele>997.2</ele>
        <time>2026-05-13T04:25:40Z</time>
      </trkpt>
      <trkpt lat="46.36343" lon="5.99075">
        <ele>997.4</ele>
        <time>2026-05-13T04:25:48Z</time>
      </trkpt>
      <trkpt lat="46.36359" lon="5.99095">
        <ele>998.4</ele>
        <time>2026-05-13T04:25:54Z</time>
      </trkpt>
      <trkpt lat="46.36365" lon="5.99102">
        <ele>998.8</ele>
        <time>2026-05-13T04:25:56Z</time>
      </trkpt>
      <trkpt lat="46.36379" lon="5.99119">
        <ele>999</ele>
        <time>2026-05-13T04:26:02Z</time>
      </trkpt>
      <trkpt lat="46.36394" lon="5.99134">
        <ele>999</ele>
        <time>2026-05-13T04:26:08Z</time>
      </trkpt>
      <trkpt lat="46.36407" lon="5.9915">
        <ele>999.4</ele>
        <time>2026-05-13T04:26:14Z</time>
      </trkpt>
      <trkpt lat="46.36408" lon="5.99153">
        <ele>999.6</ele>
        <time>2026-05-13T04:26:15Z</time>
      </trkpt>
      <trkpt lat="46.36411" lon="5.9916">
        <ele>999.8</ele>
        <time>2026-05-13T04:26:19Z</time>
      </trkpt>
      <trkpt lat="46.36411" lon="5.9916">
        <ele>999.8</ele>
        <time>2026-05-13T04:26:21Z</time>
      </trkpt>
      <trkpt lat="46.36413" lon="5.99162">
        <ele>999.8</ele>
        <time>2026-05-13T04:30:49Z</time>
      </trkpt>
      <trkpt lat="46.36415" lon="5.99164">
        <ele>999.8</ele>
        <time>2026-05-13T04:30:50Z</time>
      </trkpt>
      <trkpt lat="46.36426" lon="5.9918">
        <ele>999.8</ele>
        <time>2026-05-13T04:30:55Z</time>
      </trkpt>
      <trkpt lat="46.36443" lon="5.99206">
        <ele>1000.4</ele>
        <time>2026-05-13T04:31:02Z</time>
      </trkpt>
      <trkpt lat="46.36454" lon="5.9923">
        <ele>1001.2</ele>
        <time>2026-05-13T04:31:09Z</time>
      </trkpt>
      <trkpt lat="46.36473" lon="5.99268">
        <ele>1001.4</ele>
        <time>2026-05-13T04:31:19Z</time>
      </trkpt>
      <trkpt lat="46.36493" lon="5.99311">
        <ele>1001.6</ele>
        <time>2026-05-13T04:31:29Z</time>
      </trkpt>
      <trkpt lat="46.36498" lon="5.99323">
        <ele>1001.4</ele>
        <time>2026-05-13T04:31:31Z</time>
      </trkpt>
      <trkpt lat="46.36505" lon="5.99339">
        <ele>1001.2</ele>
        <time>2026-05-13T04:31:34Z</time>
      </trkpt>
      <trkpt lat="46.36508" lon="5.99344">
        <ele>1001.2</ele>
        <time>2026-05-13T04:31:35Z</time>
      </trkpt>
      <trkpt lat="46.3652" lon="5.99371">
        <ele>1000.6</ele>
        <time>2026-05-13T04:31:40Z</time>
      </trkpt>
      <trkpt lat="46.36526" lon="5.99382">
        <ele>1000.4</ele>
        <time>2026-05-13T04:31:42Z</time>
      </trkpt>
      <trkpt lat="46.36533" lon="5.99393">
        <ele>1000.2</ele>
        <time>2026-05-13T04:31:44Z</time>
      </trkpt>
      <trkpt lat="46.36535" lon="5.99399">
        <ele>1000.2</ele>
        <time>2026-05-13T04:31:45Z</time>
      </trkpt>
      <trkpt lat="46.36544" lon="5.99425">
        <ele>999.4</ele>
        <time>2026-05-13T04:31:49Z</time>
      </trkpt>
      <trkpt lat="46.36546" lon="5.99431">
        <ele>999.4</ele>
        <time>2026-05-13T04:31:50Z</time>
      </trkpt>
      <trkpt lat="46.36547" lon="5.99437">
        <ele>999.2</ele>
        <time>2026-05-13T04:31:51Z</time>
      </trkpt>
      <trkpt lat="46.36549" lon="5.99443">
        <ele>999</ele>
        <time>2026-05-13T04:31:52Z</time>
      </trkpt>
      <trkpt lat="46.36552" lon="5.99449">
        <ele>999</ele>
        <time>2026-05-13T04:31:53Z</time>
      </trkpt>
      <trkpt lat="46.36561" lon="5.99467">
        <ele>998.8</ele>
        <time>2026-05-13T04:31:56Z</time>
      </trkpt>
      <trkpt lat="46.36562" lon="5.99473">
        <ele>998.6</ele>
        <time>2026-05-13T04:31:57Z</time>
      </trkpt>
      <trkpt lat="46.3657" lon="5.99503">
        <ele>998.4</ele>
        <time>2026-05-13T04:32:02Z</time>
      </trkpt>
      <trkpt lat="46.36572" lon="5.99508">
        <ele>998.4</ele>
        <time>2026-05-13T04:32:03Z</time>
      </trkpt>
      <trkpt lat="46.36575" lon="5.99513">
        <ele>998.4</ele>
        <time>2026-05-13T04:32:04Z</time>
      </trkpt>
      <trkpt lat="46.36583" lon="5.99528">
        <ele>998.2</ele>
        <time>2026-05-13T04:32:07Z</time>
      </trkpt>
      <trkpt lat="46.36588" lon="5.99537">
        <ele>997.8</ele>
        <time>2026-05-13T04:32:09Z</time>
      </trkpt>
      <trkpt lat="46.36595" lon="5.99554">
        <ele>997.4</ele>
        <time>2026-05-13T04:32:12Z</time>
      </trkpt>
      <trkpt lat="46.36605" lon="5.99579">
        <ele>997</ele>
        <time>2026-05-13T04:32:16Z</time>
      </trkpt>
      <trkpt lat="46.36613" lon="5.99598">
        <ele>996.2</ele>
        <time>2026-05-13T04:32:20Z</time>
      </trkpt>
      <trkpt lat="46.36616" lon="5.99606">
        <ele>996</ele>
        <time>2026-05-13T04:32:22Z</time>
      </trkpt>
      <trkpt lat="46.36622" lon="5.99618">
        <ele>995.2</ele>
        <time>2026-05-13T04:32:26Z</time>
      </trkpt>
      <trkpt lat="46.36623" lon="5.9962">
        <ele>995</ele>
        <time>2026-05-13T04:32:27Z</time>
      </trkpt>
      <trkpt lat="46.36628" lon="5.99635">
        <ele>994.6</ele>
        <time>2026-05-13T04:32:32Z</time>
      </trkpt>
      <trkpt lat="46.36629" lon="5.99636">
        <ele>994.6</ele>
        <time>2026-05-13T04:32:33Z</time>
      </trkpt>
      <trkpt lat="46.36646" lon="5.99656">
        <ele>994.2</ele>
        <time>2026-05-13T04:32:41Z</time>
      </trkpt>
      <trkpt lat="46.36655" lon="5.99668">
        <ele>994.2</ele>
        <time>2026-05-13T04:32:45Z</time>
      </trkpt>
      <trkpt lat="46.36657" lon="5.99671">
        <ele>994</ele>
        <time>2026-05-13T04:32:46Z</time>
      </trkpt>
      <trkpt lat="46.36674" lon="5.99695">
        <ele>994</ele>
        <time>2026-05-13T04:32:53Z</time>
      </trkpt>
      <trkpt lat="46.36685" lon="5.9971">
        <ele>993.2</ele>
        <time>2026-05-13T04:32:57Z</time>
      </trkpt>
      <trkpt lat="46.36688" lon="5.99711">
        <ele>993.2</ele>
        <time>2026-05-13T04:32:58Z</time>
      </trkpt>
      <trkpt lat="46.36697" lon="5.99718">
        <ele>993</ele>
        <time>2026-05-13T04:33:02Z</time>
      </trkpt>
      <trkpt lat="46.36706" lon="5.99727">
        <ele>992.6</ele>
        <time>2026-05-13T04:33:05Z</time>
      </trkpt>
      <trkpt lat="46.36722" lon="5.99749">
        <ele>992.2</ele>
        <time>2026-05-13T04:33:10Z</time>
      </trkpt>
      <trkpt lat="46.36731" lon="5.99763">
        <ele>991.8</ele>
        <time>2026-05-13T04:33:13Z</time>
      </trkpt>
      <trkpt lat="46.36746" lon="5.99781">
        <ele>991.4</ele>
        <time>2026-05-13T04:33:17Z</time>
      </trkpt>
      <trkpt lat="46.36765" lon="5.99801">
        <ele>990.8</ele>
        <time>2026-05-13T04:33:22Z</time>
      </trkpt>
      <trkpt lat="46.36777" lon="5.99812">
        <ele>990.6</ele>
        <time>2026-05-13T04:33:25Z</time>
      </trkpt>
      <trkpt lat="46.36809" lon="5.9984">
        <ele>990.2</ele>
        <time>2026-05-13T04:33:33Z</time>
      </trkpt>
      <trkpt lat="46.36829" lon="5.99858">
        <ele>990.2</ele>
        <time>2026-05-13T04:33:38Z</time>
      </trkpt>
      <trkpt lat="46.36837" lon="5.99866">
        <ele>990.2</ele>
        <time>2026-05-13T04:33:40Z</time>
      </trkpt>
      <trkpt lat="46.36849" lon="5.99878">
        <ele>990.2</ele>
        <time>2026-05-13T04:33:43Z</time>
      </trkpt>
      <trkpt lat="46.36856" lon="5.99887">
        <ele>990</ele>
        <time>2026-05-13T04:33:45Z</time>
      </trkpt>
      <trkpt lat="46.36864" lon="5.99897">
        <ele>990</ele>
        <time>2026-05-13T04:33:47Z</time>
      </trkpt>
      <trkpt lat="46.36872" lon="5.99914">
        <ele>990</ele>
        <time>2026-05-13T04:33:50Z</time>
      </trkpt>
      <trkpt lat="46.36878" lon="5.99926">
        <ele>990</ele>
        <time>2026-05-13T04:33:52Z</time>
      </trkpt>
      <trkpt lat="46.36879" lon="5.99944">
        <ele>990.2</ele>
        <time>2026-05-13T04:33:54Z</time>
      </trkpt>
      <trkpt lat="46.3688" lon="5.99977">
        <ele>990.6</ele>
        <time>2026-05-13T04:33:59Z</time>
      </trkpt>
      <trkpt lat="46.36883" lon="5.99988">
        <ele>990.8</ele>
        <time>2026-05-13T04:34:01Z</time>
      </trkpt>
      <trkpt lat="46.36885" lon="6.00021">
        <ele>991.4</ele>
        <time>2026-05-13T04:34:06Z</time>
      </trkpt>
      <trkpt lat="46.36887" lon="6.00035">
        <ele>992</ele>
        <time>2026-05-13T04:34:09Z</time>
      </trkpt>
      <trkpt lat="46.36886" lon="6.00065">
        <ele>992.6</ele>
        <time>2026-05-13T04:34:14Z</time>
      </trkpt>
      <trkpt lat="46.36889" lon="6.00095">
        <ele>993</ele>
        <time>2026-05-13T04:34:19Z</time>
      </trkpt>
      <trkpt lat="46.36891" lon="6.00105">
        <ele>993</ele>
        <time>2026-05-13T04:34:21Z</time>
      </trkpt>
      <trkpt lat="46.36895" lon="6.00133">
        <ele>993.4</ele>
        <time>2026-05-13T04:34:26Z</time>
      </trkpt>
      <trkpt lat="46.36898" lon="6.0015">
        <ele>994</ele>
        <time>2026-05-13T04:34:29Z</time>
      </trkpt>
      <trkpt lat="46.36902" lon="6.00163">
        <ele>994.2</ele>
        <time>2026-05-13T04:34:31Z</time>
      </trkpt>
      <trkpt lat="46.36915" lon="6.00213">
        <ele>994.2</ele>
        <time>2026-05-13T04:34:39Z</time>
      </trkpt>
      <trkpt lat="46.36933" lon="6.00267">
        <ele>994.2</ele>
        <time>2026-05-13T04:34:49Z</time>
      </trkpt>
      <trkpt lat="46.36943" lon="6.0031">
        <ele>994.8</ele>
        <time>2026-05-13T04:34:57Z</time>
      </trkpt>
      <trkpt lat="46.36944" lon="6.00316">
        <ele>995</ele>
        <time>2026-05-13T04:34:58Z</time>
      </trkpt>
      <trkpt lat="46.3695" lon="6.00344">
        <ele>995.4</ele>
        <time>2026-05-13T04:35:03Z</time>
      </trkpt>
      <trkpt lat="46.36953" lon="6.00354">
        <ele>995.6</ele>
        <time>2026-05-13T04:35:05Z</time>
      </trkpt>
      <trkpt lat="46.36963" lon="6.00378">
        <ele>996.2</ele>
        <time>2026-05-13T04:35:10Z</time>
      </trkpt>
      <trkpt lat="46.36965" lon="6.00381">
        <ele>996.4</ele>
        <time>2026-05-13T04:35:11Z</time>
      </trkpt>
      <trkpt lat="46.3698" lon="6.00399">
        <ele>997.2</ele>
        <time>2026-05-13T04:35:17Z</time>
      </trkpt>
      <trkpt lat="46.36983" lon="6.00402">
        <ele>997.4</ele>
        <time>2026-05-13T04:35:18Z</time>
      </trkpt>
      <trkpt lat="46.36998" lon="6.00421">
        <ele>998.4</ele>
        <time>2026-05-13T04:35:24Z</time>
      </trkpt>
      <trkpt lat="46.37001" lon="6.00424">
        <ele>998.6</ele>
        <time>2026-05-13T04:35:25Z</time>
      </trkpt>
      <trkpt lat="46.37012" lon="6.00443">
        <ele>999.6</ele>
        <time>2026-05-13T04:35:30Z</time>
      </trkpt>
      <trkpt lat="46.37014" lon="6.00446">
        <ele>999.8</ele>
        <time>2026-05-13T04:35:31Z</time>
      </trkpt>
      <trkpt lat="46.37027" lon="6.00479">
        <ele>1000.8</ele>
        <time>2026-05-13T04:35:39Z</time>
      </trkpt>
      <trkpt lat="46.3703" lon="6.00487">
        <ele>1001.2</ele>
        <time>2026-05-13T04:35:41Z</time>
      </trkpt>
      <trkpt lat="46.37033" lon="6.00497">
        <ele>1002.2</ele>
        <time>2026-05-13T04:35:43Z</time>
      </trkpt>
      <trkpt lat="46.37046" lon="6.00527">
        <ele>1002.4</ele>
        <time>2026-05-13T04:35:49Z</time>
      </trkpt>
      <trkpt lat="46.37065" lon="6.00574">
        <ele>1002</ele>
        <time>2026-05-13T04:35:58Z</time>
      </trkpt>
      <trkpt lat="46.37084" lon="6.00614">
        <ele>1003.4</ele>
        <time>2026-05-13T04:36:07Z</time>
      </trkpt>
      <trkpt lat="46.37105" lon="6.0065">
        <ele>1004.2</ele>
        <time>2026-05-13T04:36:15Z</time>
      </trkpt>
      <trkpt lat="46.37112" lon="6.00658">
        <ele>1004.4</ele>
        <time>2026-05-13T04:36:17Z</time>
      </trkpt>
      <trkpt lat="46.37132" lon="6.00677">
        <ele>1004.6</ele>
        <time>2026-05-13T04:36:22Z</time>
      </trkpt>
      <trkpt lat="46.37174" lon="6.00716">
        <ele>1005</ele>
        <time>2026-05-13T04:36:33Z</time>
      </trkpt>
      <trkpt lat="46.37183" lon="6.00732">
        <ele>1005.4</ele>
        <time>2026-05-13T04:36:36Z</time>
      </trkpt>
      <trkpt lat="46.37192" lon="6.00751">
        <ele>1005.6</ele>
        <time>2026-05-13T04:36:39Z</time>
      </trkpt>
      <trkpt lat="46.37213" lon="6.00805">
        <ele>1005.8</ele>
        <time>2026-05-13T04:36:48Z</time>
      </trkpt>
      <trkpt lat="46.37228" lon="6.00847">
        <ele>1006.4</ele>
        <time>2026-05-13T04:36:55Z</time>
      </trkpt>
      <trkpt lat="46.37232" lon="6.00858">
        <ele>1006.6</ele>
        <time>2026-05-13T04:36:57Z</time>
      </trkpt>
      <trkpt lat="46.37246" lon="6.00905">
        <ele>1007.2</ele>
        <time>2026-05-13T04:37:04Z</time>
      </trkpt>
      <trkpt lat="46.37252" lon="6.00916">
        <ele>1007.2</ele>
        <time>2026-05-13T04:37:06Z</time>
      </trkpt>
      <trkpt lat="46.37268" lon="6.00941">
        <ele>1007.6</ele>
        <time>2026-05-13T04:37:11Z</time>
      </trkpt>
      <trkpt lat="46.37279" lon="6.00956">
        <ele>1007.8</ele>
        <time>2026-05-13T04:37:14Z</time>
      </trkpt>
      <trkpt lat="46.37306" lon="6.00984">
        <ele>1008</ele>
        <time>2026-05-13T04:37:21Z</time>
      </trkpt>
      <trkpt lat="46.3731" lon="6.00989">
        <ele>1008.2</ele>
        <time>2026-05-13T04:37:22Z</time>
      </trkpt>
      <trkpt lat="46.37327" lon="6.01015">
        <ele>1008.4</ele>
        <time>2026-05-13T04:37:27Z</time>
      </trkpt>
      <trkpt lat="46.37332" lon="6.01027">
        <ele>1008.6</ele>
        <time>2026-05-13T04:37:29Z</time>
      </trkpt>
      <trkpt lat="46.37335" lon="6.01033">
        <ele>1008.6</ele>
        <time>2026-05-13T04:37:30Z</time>
      </trkpt>
      <trkpt lat="46.37338" lon="6.01037">
        <ele>1008.6</ele>
        <time>2026-05-13T04:37:31Z</time>
      </trkpt>
      <trkpt lat="46.37343" lon="6.01049">
        <ele>1008.6</ele>
        <time>2026-05-13T04:37:33Z</time>
      </trkpt>
      <trkpt lat="46.37347" lon="6.01054">
        <ele>1008.8</ele>
        <time>2026-05-13T04:37:34Z</time>
      </trkpt>
      <trkpt lat="46.37366" lon="6.01076">
        <ele>1009.2</ele>
        <time>2026-05-13T04:37:39Z</time>
      </trkpt>
      <trkpt lat="46.37374" lon="6.01088">
        <ele>1009.2</ele>
        <time>2026-05-13T04:37:41Z</time>
      </trkpt>
      <trkpt lat="46.37384" lon="6.01107">
        <ele>1009.2</ele>
        <time>2026-05-13T04:37:44Z</time>
      </trkpt>
      <trkpt lat="46.37388" lon="6.01115">
        <ele>1009.2</ele>
        <time>2026-05-13T04:37:45Z</time>
      </trkpt>
      <trkpt lat="46.37397" lon="6.01139">
        <ele>1009.2</ele>
        <time>2026-05-13T04:37:48Z</time>
      </trkpt>
      <trkpt lat="46.37392" lon="6.01153">
        <ele>1009.4</ele>
        <time>2026-05-13T04:37:50Z</time>
      </trkpt>
      <trkpt lat="46.37392" lon="6.01193">
        <ele>1009.4</ele>
        <time>2026-05-13T04:37:55Z</time>
      </trkpt>
      <trkpt lat="46.37392" lon="6.01201">
        <ele>1009.4</ele>
        <time>2026-05-13T04:37:56Z</time>
      </trkpt>
      <trkpt lat="46.37393" lon="6.01209">
        <ele>1009.4</ele>
        <time>2026-05-13T04:37:57Z</time>
      </trkpt>
      <trkpt lat="46.37406" lon="6.01256">
        <ele>1009.2</ele>
        <time>2026-05-13T04:38:03Z</time>
      </trkpt>
      <trkpt lat="46.37417" lon="6.01285">
        <ele>1008.8</ele>
        <time>2026-05-13T04:38:07Z</time>
      </trkpt>
      <trkpt lat="46.37424" lon="6.013">
        <ele>1008.8</ele>
        <time>2026-05-13T04:38:09Z</time>
      </trkpt>
      <trkpt lat="46.37437" lon="6.01327">
        <ele>1008.4</ele>
        <time>2026-05-13T04:38:13Z</time>
      </trkpt>
      <trkpt lat="46.37455" lon="6.01354">
        <ele>1008</ele>
        <time>2026-05-13T04:38:17Z</time>
      </trkpt>
      <trkpt lat="46.37479" lon="6.01385">
        <ele>1007.8</ele>
        <time>2026-05-13T04:38:22Z</time>
      </trkpt>
      <trkpt lat="46.37493" lon="6.01402">
        <ele>1007.2</ele>
        <time>2026-05-13T04:38:25Z</time>
      </trkpt>
      <trkpt lat="46.375" lon="6.01414">
        <ele>1007</ele>
        <time>2026-05-13T04:38:27Z</time>
      </trkpt>
      <trkpt lat="46.37503" lon="6.0142">
        <ele>1007</ele>
        <time>2026-05-13T04:38:28Z</time>
      </trkpt>
      <trkpt lat="46.37508" lon="6.01434">
        <ele>1007</ele>
        <time>2026-05-13T04:38:30Z</time>
      </trkpt>
      <trkpt lat="46.37509" lon="6.01441">
        <ele>1007</ele>
        <time>2026-05-13T04:38:31Z</time>
      </trkpt>
      <trkpt lat="46.37518" lon="6.01494">
        <ele>1007.4</ele>
        <time>2026-05-13T04:38:38Z</time>
      </trkpt>
      <trkpt lat="46.37529" lon="6.0154">
        <ele>1007.4</ele>
        <time>2026-05-13T04:38:44Z</time>
      </trkpt>
      <trkpt lat="46.37535" lon="6.01554">
        <ele>1007.4</ele>
        <time>2026-05-13T04:38:46Z</time>
      </trkpt>
      <trkpt lat="46.37539" lon="6.01566">
        <ele>1007.4</ele>
        <time>2026-05-13T04:38:48Z</time>
      </trkpt>
      <trkpt lat="46.3755" lon="6.01579">
        <ele>1007.2</ele>
        <time>2026-05-13T04:38:50Z</time>
      </trkpt>
      <trkpt lat="46.37558" lon="6.01592">
        <ele>1007.2</ele>
        <time>2026-05-13T04:38:52Z</time>
      </trkpt>
      <trkpt lat="46.37566" lon="6.01603">
        <ele>1007.2</ele>
        <time>2026-05-13T04:38:54Z</time>
      </trkpt>
      <trkpt lat="46.37575" lon="6.01613">
        <ele>1007.2</ele>
        <time>2026-05-13T04:38:56Z</time>
      </trkpt>
      <trkpt lat="46.37602" lon="6.01647">
        <ele>1007.2</ele>
        <time>2026-05-13T04:39:03Z</time>
      </trkpt>
      <trkpt lat="46.3761" lon="6.01657">
        <ele>1007.4</ele>
        <time>2026-05-13T04:39:05Z</time>
      </trkpt>
      <trkpt lat="46.37616" lon="6.01668">
        <ele>1007.2</ele>
        <time>2026-05-13T04:39:07Z</time>
      </trkpt>
      <trkpt lat="46.37621" lon="6.01678">
        <ele>1007.6</ele>
        <time>2026-05-13T04:39:09Z</time>
      </trkpt>
      <trkpt lat="46.37628" lon="6.01699">
        <ele>1007.8</ele>
        <time>2026-05-13T04:39:12Z</time>
      </trkpt>
      <trkpt lat="46.37631" lon="6.01704">
        <ele>1007.8</ele>
        <time>2026-05-13T04:39:13Z</time>
      </trkpt>
      <trkpt lat="46.3764" lon="6.01722">
        <ele>1008.2</ele>
        <time>2026-05-13T04:39:16Z</time>
      </trkpt>
      <trkpt lat="46.37659" lon="6.01753">
        <ele>1009</ele>
        <time>2026-05-13T04:39:22Z</time>
      </trkpt>
      <trkpt lat="46.37661" lon="6.01758">
        <ele>1009.2</ele>
        <time>2026-05-13T04:39:23Z</time>
      </trkpt>
      <trkpt lat="46.37664" lon="6.01765">
        <ele>1009.2</ele>
        <time>2026-05-13T04:39:24Z</time>
      </trkpt>
      <trkpt lat="46.3768" lon="6.01794">
        <ele>1009.8</ele>
        <time>2026-05-13T04:39:29Z</time>
      </trkpt>
      <trkpt lat="46.37683" lon="6.01801">
        <ele>1009.8</ele>
        <time>2026-05-13T04:39:30Z</time>
      </trkpt>
      <trkpt lat="46.37695" lon="6.01831">
        <ele>1010</ele>
        <time>2026-05-13T04:39:36Z</time>
      </trkpt>
      <trkpt lat="46.37705" lon="6.01853">
        <ele>1010.2</ele>
        <time>2026-05-13T04:39:40Z</time>
      </trkpt>
      <trkpt lat="46.37712" lon="6.01868">
        <ele>1010.4</ele>
        <time>2026-05-13T04:39:43Z</time>
      </trkpt>
      <trkpt lat="46.3772" lon="6.01885">
        <ele>1010.6</ele>
        <time>2026-05-13T04:39:46Z</time>
      </trkpt>
      <trkpt lat="46.37727" lon="6.01895">
        <ele>1010.8</ele>
        <time>2026-05-13T04:39:48Z</time>
      </trkpt>
      <trkpt lat="46.37739" lon="6.019">
        <ele>1011</ele>
        <time>2026-05-13T04:39:50Z</time>
      </trkpt>
      <trkpt lat="46.37749" lon="6.01902">
        <ele>1011</ele>
        <time>2026-05-13T04:39:52Z</time>
      </trkpt>
      <trkpt lat="46.37786" lon="6.01899">
        <ele>1010.4</ele>
        <time>2026-05-13T04:39:57Z</time>
      </trkpt>
      <trkpt lat="46.37817" lon="6.01893">
        <ele>1009.2</ele>
        <time>2026-05-13T04:40:01Z</time>
      </trkpt>
      <trkpt lat="46.37831" lon="6.01891">
        <ele>1008.4</ele>
        <time>2026-05-13T04:40:03Z</time>
      </trkpt>
      <trkpt lat="46.37849" lon="6.01886">
        <ele>1007.8</ele>
        <time>2026-05-13T04:40:05Z</time>
      </trkpt>
      <trkpt lat="46.37866" lon="6.01877">
        <ele>1007</ele>
        <time>2026-05-13T04:40:07Z</time>
      </trkpt>
      <trkpt lat="46.37874" lon="6.01871">
        <ele>1006.2</ele>
        <time>2026-05-13T04:40:08Z</time>
      </trkpt>
      <trkpt lat="46.37888" lon="6.01859">
        <ele>1005.2</ele>
        <time>2026-05-13T04:40:10Z</time>
      </trkpt>
      <trkpt lat="46.37906" lon="6.0184">
        <ele>1004.2</ele>
        <time>2026-05-13T04:40:12Z</time>
      </trkpt>
      <trkpt lat="46.37919" lon="6.01824">
        <ele>1002.8</ele>
        <time>2026-05-13T04:40:14Z</time>
      </trkpt>
      <trkpt lat="46.37928" lon="6.01813">
        <ele>1001.8</ele>
        <time>2026-05-13T04:40:15Z</time>
      </trkpt>
      <trkpt lat="46.37942" lon="6.01794">
        <ele>1000.2</ele>
        <time>2026-05-13T04:40:17Z</time>
      </trkpt>
      <trkpt lat="46.37947" lon="6.01786">
        <ele>999</ele>
        <time>2026-05-13T04:40:18Z</time>
      </trkpt>
      <trkpt lat="46.37959" lon="6.01767">
        <ele>997.8</ele>
        <time>2026-05-13T04:40:20Z</time>
      </trkpt>
      <trkpt lat="46.37979" lon="6.01735">
        <ele>996.8</ele>
        <time>2026-05-13T04:40:24Z</time>
      </trkpt>
      <trkpt lat="46.37984" lon="6.01727">
        <ele>996.6</ele>
        <time>2026-05-13T04:40:25Z</time>
      </trkpt>
      <trkpt lat="46.38008" lon="6.01675">
        <ele>995.8</ele>
        <time>2026-05-13T04:40:31Z</time>
      </trkpt>
      <trkpt lat="46.38013" lon="6.0166">
        <ele>995.6</ele>
        <time>2026-05-13T04:40:33Z</time>
      </trkpt>
      <trkpt lat="46.3802" lon="6.01636">
        <ele>995.4</ele>
        <time>2026-05-13T04:40:36Z</time>
      </trkpt>
      <trkpt lat="46.38022" lon="6.0163">
        <ele>995.4</ele>
        <time>2026-05-13T04:40:37Z</time>
      </trkpt>
      <trkpt lat="46.38028" lon="6.01617">
        <ele>995.6</ele>
        <time>2026-05-13T04:40:40Z</time>
      </trkpt>
      <trkpt lat="46.38038" lon="6.01608">
        <ele>996.4</ele>
        <time>2026-05-13T04:40:44Z</time>
      </trkpt>
      <trkpt lat="46.38041" lon="6.01609">
        <ele>996.6</ele>
        <time>2026-05-13T04:40:45Z</time>
      </trkpt>
      <trkpt lat="46.38056" lon="6.01615">
        <ele>998</ele>
        <time>2026-05-13T04:40:49Z</time>
      </trkpt>
      <trkpt lat="46.38064" lon="6.01619">
        <ele>998.2</ele>
        <time>2026-05-13T04:40:51Z</time>
      </trkpt>
      <trkpt lat="46.38091" lon="6.0163">
        <ele>998.4</ele>
        <time>2026-05-13T04:40:57Z</time>
      </trkpt>
      <trkpt lat="46.38142" lon="6.01655">
        <ele>998.8</ele>
        <time>2026-05-13T04:41:08Z</time>
      </trkpt>
      <trkpt lat="46.38155" lon="6.01664">
        <ele>999</ele>
        <time>2026-05-13T04:41:11Z</time>
      </trkpt>
      <trkpt lat="46.3817" lon="6.01679">
        <ele>999.4</ele>
        <time>2026-05-13T04:41:15Z</time>
      </trkpt>
      <trkpt lat="46.38204" lon="6.01727">
        <ele>999.8</ele>
        <time>2026-05-13T04:41:25Z</time>
      </trkpt>
      <trkpt lat="46.38221" lon="6.01754">
        <ele>1000</ele>
        <time>2026-05-13T04:41:30Z</time>
      </trkpt>
      <trkpt lat="46.38231" lon="6.01768">
        <ele>1000.2</ele>
        <time>2026-05-13T04:41:33Z</time>
      </trkpt>
      <trkpt lat="46.38258" lon="6.01805">
        <ele>1000.8</ele>
        <time>2026-05-13T04:41:41Z</time>
      </trkpt>
      <trkpt lat="46.38263" lon="6.01812">
        <ele>1001.2</ele>
        <time>2026-05-13T04:41:43Z</time>
      </trkpt>
      <trkpt lat="46.38278" lon="6.01838">
        <ele>1001.6</ele>
        <time>2026-05-13T04:41:49Z</time>
      </trkpt>
      <trkpt lat="46.38286" lon="6.01855">
        <ele>1002.2</ele>
        <time>2026-05-13T04:41:53Z</time>
      </trkpt>
      <trkpt lat="46.38291" lon="6.01868">
        <ele>1002.6</ele>
        <time>2026-05-13T04:41:56Z</time>
      </trkpt>
      <trkpt lat="46.38297" lon="6.01886">
        <ele>1003.4</ele>
        <time>2026-05-13T04:42:00Z</time>
      </trkpt>
      <trkpt lat="46.38302" lon="6.019">
        <ele>1003.8</ele>
        <time>2026-05-13T04:42:03Z</time>
      </trkpt>
      <trkpt lat="46.38307" lon="6.01914">
        <ele>1004.4</ele>
        <time>2026-05-13T04:42:06Z</time>
      </trkpt>
      <trkpt lat="46.38313" lon="6.01931">
        <ele>1005</ele>
        <time>2026-05-13T04:42:10Z</time>
      </trkpt>
      <trkpt lat="46.38319" lon="6.01945">
        <ele>1005.4</ele>
        <time>2026-05-13T04:42:13Z</time>
      </trkpt>
      <trkpt lat="46.38329" lon="6.01966">
        <ele>1006.4</ele>
        <time>2026-05-13T04:42:19Z</time>
      </trkpt>
      <trkpt lat="46.38331" lon="6.01971">
        <ele>1006.4</ele>
        <time>2026-05-13T04:42:20Z</time>
      </trkpt>
      <trkpt lat="46.38346" lon="6.01999">
        <ele>1007.6</ele>
        <time>2026-05-13T04:42:28Z</time>
      </trkpt>
      <trkpt lat="46.3835" lon="6.02007">
        <ele>1007.8</ele>
        <time>2026-05-13T04:42:30Z</time>
      </trkpt>
      <trkpt lat="46.38366" lon="6.02024">
        <ele>1008.8</ele>
        <time>2026-05-13T04:42:37Z</time>
      </trkpt>
      <trkpt lat="46.38388" lon="6.02035">
        <ele>1010</ele>
        <time>2026-05-13T04:42:44Z</time>
      </trkpt>
      <trkpt lat="46.38421" lon="6.02047">
        <ele>1011.2</ele>
        <time>2026-05-13T04:42:54Z</time>
      </trkpt>
      <trkpt lat="46.38427" lon="6.0205">
        <ele>1011.4</ele>
        <time>2026-05-13T04:42:56Z</time>
      </trkpt>
      <trkpt lat="46.38445" lon="6.02057">
        <ele>1012.2</ele>
        <time>2026-05-13T04:43:02Z</time>
      </trkpt>
      <trkpt lat="46.38458" lon="6.02062">
        <ele>1012.6</ele>
        <time>2026-05-13T04:43:06Z</time>
      </trkpt>
      <trkpt lat="46.38477" lon="6.02069">
        <ele>1013.6</ele>
        <time>2026-05-13T04:43:12Z</time>
      </trkpt>
      <trkpt lat="46.38487" lon="6.02073">
        <ele>1015</ele>
        <time>2026-05-13T04:43:15Z</time>
      </trkpt>
      <trkpt lat="46.38495" lon="6.02075">
        <ele>1015.4</ele>
        <time>2026-05-13T04:43:18Z</time>
      </trkpt>
      <trkpt lat="46.38524" lon="6.02087">
        <ele>1016</ele>
        <time>2026-05-13T04:43:27Z</time>
      </trkpt>
      <trkpt lat="46.38527" lon="6.02088">
        <ele>1016.2</ele>
        <time>2026-05-13T04:43:28Z</time>
      </trkpt>
      <trkpt lat="46.38545" lon="6.02095">
        <ele>1017.2</ele>
        <time>2026-05-13T04:43:35Z</time>
      </trkpt>
      <trkpt lat="46.38548" lon="6.02095">
        <ele>1017.4</ele>
        <time>2026-05-13T04:43:36Z</time>
      </trkpt>
      <trkpt lat="46.38569" lon="6.02103">
        <ele>1018.2</ele>
        <time>2026-05-13T04:43:43Z</time>
      </trkpt>
      <trkpt lat="46.38574" lon="6.02105">
        <ele>1018.4</ele>
        <time>2026-05-13T04:43:45Z</time>
      </trkpt>
      <trkpt lat="46.38587" lon="6.02109">
        <ele>1019</ele>
        <time>2026-05-13T04:43:49Z</time>
      </trkpt>
      <trkpt lat="46.38606" lon="6.02117">
        <ele>1019.6</ele>
        <time>2026-05-13T04:43:55Z</time>
      </trkpt>
      <trkpt lat="46.38611" lon="6.0212">
        <ele>1019.8</ele>
        <time>2026-05-13T04:43:57Z</time>
      </trkpt>
      <trkpt lat="46.38631" lon="6.02139">
        <ele>1021.2</ele>
        <time>2026-05-13T04:44:04Z</time>
      </trkpt>
      <trkpt lat="46.38645" lon="6.02161">
        <ele>1022.2</ele>
        <time>2026-05-13T04:44:11Z</time>
      </trkpt>
      <trkpt lat="46.38647" lon="6.02164">
        <ele>1022.2</ele>
        <time>2026-05-13T04:44:12Z</time>
      </trkpt>
      <trkpt lat="46.38657" lon="6.02191">
        <ele>1023</ele>
        <time>2026-05-13T04:44:19Z</time>
      </trkpt>
      <trkpt lat="46.38658" lon="6.02199">
        <ele>1023.4</ele>
        <time>2026-05-13T04:44:21Z</time>
      </trkpt>
      <trkpt lat="46.38663" lon="6.02217">
        <ele>1024.4</ele>
        <time>2026-05-13T04:44:25Z</time>
      </trkpt>
      <trkpt lat="46.38664" lon="6.02221">
        <ele>1024.8</ele>
        <time>2026-05-13T04:44:26Z</time>
      </trkpt>
      <trkpt lat="46.38668" lon="6.02234">
        <ele>1025.6</ele>
        <time>2026-05-13T04:44:29Z</time>
      </trkpt>
      <trkpt lat="46.38673" lon="6.02244">
        <ele>1026.2</ele>
        <time>2026-05-13T04:44:32Z</time>
      </trkpt>
      <trkpt lat="46.38677" lon="6.02252">
        <ele>1026.6</ele>
        <time>2026-05-13T04:44:34Z</time>
      </trkpt>
      <trkpt lat="46.38687" lon="6.02263">
        <ele>1027.2</ele>
        <time>2026-05-13T04:44:38Z</time>
      </trkpt>
      <trkpt lat="46.38693" lon="6.02272">
        <ele>1027.8</ele>
        <time>2026-05-13T04:44:41Z</time>
      </trkpt>
      <trkpt lat="46.38707" lon="6.02288">
        <ele>1028.6</ele>
        <time>2026-05-13T04:44:47Z</time>
      </trkpt>
      <trkpt lat="46.38712" lon="6.02293">
        <ele>1029</ele>
        <time>2026-05-13T04:44:49Z</time>
      </trkpt>
      <trkpt lat="46.38729" lon="6.02306">
        <ele>1030</ele>
        <time>2026-05-13T04:44:55Z</time>
      </trkpt>
      <trkpt lat="46.38735" lon="6.02309">
        <ele>1030.4</ele>
        <time>2026-05-13T04:44:57Z</time>
      </trkpt>
      <trkpt lat="46.38749" lon="6.02319">
        <ele>1031.2</ele>
        <time>2026-05-13T04:45:02Z</time>
      </trkpt>
      <trkpt lat="46.38757" lon="6.02325">
        <ele>1031.6</ele>
        <time>2026-05-13T04:45:05Z</time>
      </trkpt>
      <trkpt lat="46.38771" lon="6.02337">
        <ele>1032.2</ele>
        <time>2026-05-13T04:45:10Z</time>
      </trkpt>
      <trkpt lat="46.38783" lon="6.02348">
        <ele>1032.2</ele>
        <time>2026-05-13T04:45:14Z</time>
      </trkpt>
      <trkpt lat="46.38807" lon="6.02371">
        <ele>1032.8</ele>
        <time>2026-05-13T04:45:22Z</time>
      </trkpt>
      <trkpt lat="46.38819" lon="6.02382">
        <ele>1033.2</ele>
        <time>2026-05-13T04:45:26Z</time>
      </trkpt>
      <trkpt lat="46.38837" lon="6.024">
        <ele>1033.8</ele>
        <time>2026-05-13T04:45:32Z</time>
      </trkpt>
      <trkpt lat="46.38851" lon="6.02418">
        <ele>1034.2</ele>
        <time>2026-05-13T04:45:37Z</time>
      </trkpt>
      <trkpt lat="46.38855" lon="6.02427">
        <ele>1034.4</ele>
        <time>2026-05-13T04:45:39Z</time>
      </trkpt>
      <trkpt lat="46.38864" lon="6.02452">
        <ele>1035.2</ele>
        <time>2026-05-13T04:45:44Z</time>
      </trkpt>
      <trkpt lat="46.38868" lon="6.02468">
        <ele>1035.4</ele>
        <time>2026-05-13T04:45:47Z</time>
      </trkpt>
      <trkpt lat="46.38878" lon="6.02498">
        <ele>1036.4</ele>
        <time>2026-05-13T04:45:53Z</time>
      </trkpt>
      <trkpt lat="46.3888" lon="6.02502">
        <ele>1036.6</ele>
        <time>2026-05-13T04:45:54Z</time>
      </trkpt>
      <trkpt lat="46.38899" lon="6.02523">
        <ele>1037.2</ele>
        <time>2026-05-13T04:46:00Z</time>
      </trkpt>
      <trkpt lat="46.38906" lon="6.02529">
        <ele>1037.4</ele>
        <time>2026-05-13T04:46:02Z</time>
      </trkpt>
      <trkpt lat="46.38931" lon="6.0255">
        <ele>1038</ele>
        <time>2026-05-13T04:46:10Z</time>
      </trkpt>
      <trkpt lat="46.38943" lon="6.0256">
        <ele>1038.6</ele>
        <time>2026-05-13T04:46:14Z</time>
      </trkpt>
      <trkpt lat="46.38963" lon="6.02579">
        <ele>1039.8</ele>
        <time>2026-05-13T04:46:21Z</time>
      </trkpt>
      <trkpt lat="46.38978" lon="6.02593">
        <ele>1040.4</ele>
        <time>2026-05-13T04:46:26Z</time>
      </trkpt>
      <trkpt lat="46.38989" lon="6.02605">
        <ele>1040.8</ele>
        <time>2026-05-13T04:46:30Z</time>
      </trkpt>
      <trkpt lat="46.39" lon="6.02616">
        <ele>1041.8</ele>
        <time>2026-05-13T04:46:34Z</time>
      </trkpt>
      <trkpt lat="46.39002" lon="6.0262">
        <ele>1042</ele>
        <time>2026-05-13T04:46:35Z</time>
      </trkpt>
      <trkpt lat="46.39017" lon="6.02635">
        <ele>1043.2</ele>
        <time>2026-05-13T04:46:41Z</time>
      </trkpt>
      <trkpt lat="46.39033" lon="6.02642">
        <ele>1044.2</ele>
        <time>2026-05-13T04:46:46Z</time>
      </trkpt>
      <trkpt lat="46.39036" lon="6.02643">
        <ele>1044.6</ele>
        <time>2026-05-13T04:46:47Z</time>
      </trkpt>
      <trkpt lat="46.39063" lon="6.02646">
        <ele>1045.8</ele>
        <time>2026-05-13T04:46:55Z</time>
      </trkpt>
      <trkpt lat="46.39066" lon="6.02646">
        <ele>1046</ele>
        <time>2026-05-13T04:46:56Z</time>
      </trkpt>
      <trkpt lat="46.39085" lon="6.02646">
        <ele>1047</ele>
        <time>2026-05-13T04:47:02Z</time>
      </trkpt>
      <trkpt lat="46.39097" lon="6.02645">
        <ele>1047.8</ele>
        <time>2026-05-13T04:47:06Z</time>
      </trkpt>
      <trkpt lat="46.39103" lon="6.02645">
        <ele>1048</ele>
        <time>2026-05-13T04:47:08Z</time>
      </trkpt>
      <trkpt lat="46.39125" lon="6.02645">
        <ele>1049.2</ele>
        <time>2026-05-13T04:47:15Z</time>
      </trkpt>
      <trkpt lat="46.39128" lon="6.02645">
        <ele>1049.4</ele>
        <time>2026-05-13T04:47:16Z</time>
      </trkpt>
      <trkpt lat="46.39143" lon="6.02652">
        <ele>1050.4</ele>
        <time>2026-05-13T04:47:21Z</time>
      </trkpt>
      <trkpt lat="46.39155" lon="6.02662">
        <ele>1051.2</ele>
        <time>2026-05-13T04:47:26Z</time>
      </trkpt>
      <trkpt lat="46.3916" lon="6.02667">
        <ele>1051.4</ele>
        <time>2026-05-13T04:47:28Z</time>
      </trkpt>
      <trkpt lat="46.3917" lon="6.02681">
        <ele>1052.6</ele>
        <time>2026-05-13T04:47:33Z</time>
      </trkpt>
      <trkpt lat="46.39182" lon="6.02701">
        <ele>1053.8</ele>
        <time>2026-05-13T04:47:39Z</time>
      </trkpt>
      <trkpt lat="46.39185" lon="6.02708">
        <ele>1054</ele>
        <time>2026-05-13T04:47:41Z</time>
      </trkpt>
      <trkpt lat="46.39192" lon="6.02727">
        <ele>1054.8</ele>
        <time>2026-05-13T04:47:46Z</time>
      </trkpt>
      <trkpt lat="46.392" lon="6.02751">
        <ele>1056</ele>
        <time>2026-05-13T04:47:52Z</time>
      </trkpt>
      <trkpt lat="46.3921" lon="6.02777">
        <ele>1057.2</ele>
        <time>2026-05-13T04:47:59Z</time>
      </trkpt>
      <trkpt lat="46.39213" lon="6.02785">
        <ele>1057.4</ele>
        <time>2026-05-13T04:48:01Z</time>
      </trkpt>
      <trkpt lat="46.39218" lon="6.02805">
        <ele>1058.2</ele>
        <time>2026-05-13T04:48:06Z</time>
      </trkpt>
      <trkpt lat="46.39219" lon="6.02809">
        <ele>1058.4</ele>
        <time>2026-05-13T04:48:07Z</time>
      </trkpt>
      <trkpt lat="46.39223" lon="6.0283">
        <ele>1059.2</ele>
        <time>2026-05-13T04:48:12Z</time>
      </trkpt>
      <trkpt lat="46.39229" lon="6.0285">
        <ele>1060</ele>
        <time>2026-05-13T04:48:17Z</time>
      </trkpt>
      <trkpt lat="46.39233" lon="6.02861">
        <ele>1060.4</ele>
        <time>2026-05-13T04:48:20Z</time>
      </trkpt>
      <trkpt lat="46.39242" lon="6.0288">
        <ele>1061.2</ele>
        <time>2026-05-13T04:48:25Z</time>
      </trkpt>
      <trkpt lat="46.39246" lon="6.02887">
        <ele>1061.6</ele>
        <time>2026-05-13T04:48:27Z</time>
      </trkpt>
      <trkpt lat="46.39257" lon="6.0291">
        <ele>1062.4</ele>
        <time>2026-05-13T04:48:33Z</time>
      </trkpt>
      <trkpt lat="46.3926" lon="6.02918">
        <ele>1062.6</ele>
        <time>2026-05-13T04:48:35Z</time>
      </trkpt>
      <trkpt lat="46.39269" lon="6.02941">
        <ele>1063</ele>
        <time>2026-05-13T04:48:41Z</time>
      </trkpt>
      <trkpt lat="46.39275" lon="6.02958">
        <ele>1063.8</ele>
        <time>2026-05-13T04:48:45Z</time>
      </trkpt>
      <trkpt lat="46.39282" lon="6.02978">
        <ele>1064.8</ele>
        <time>2026-05-13T04:48:50Z</time>
      </trkpt>
      <trkpt lat="46.39285" lon="6.02986">
        <ele>1065</ele>
        <time>2026-05-13T04:48:52Z</time>
      </trkpt>
      <trkpt lat="46.39302" lon="6.03022">
        <ele>1066</ele>
        <time>2026-05-13T04:49:01Z</time>
      </trkpt>
      <trkpt lat="46.39325" lon="6.03071">
        <ele>1067</ele>
        <time>2026-05-13T04:49:13Z</time>
      </trkpt>
      <trkpt lat="46.39328" lon="6.03075">
        <ele>1067.2</ele>
        <time>2026-05-13T04:49:14Z</time>
      </trkpt>
      <trkpt lat="46.39349" lon="6.03102">
        <ele>1067.8</ele>
        <time>2026-05-13T04:49:22Z</time>
      </trkpt>
      <trkpt lat="46.39362" lon="6.03114">
        <ele>1068.2</ele>
        <time>2026-05-13T04:49:26Z</time>
      </trkpt>
      <trkpt lat="46.3938" lon="6.03132">
        <ele>1068.6</ele>
        <time>2026-05-13T04:49:32Z</time>
      </trkpt>
      <trkpt lat="46.39392" lon="6.03158">
        <ele>1069</ele>
        <time>2026-05-13T04:49:38Z</time>
      </trkpt>
      <trkpt lat="46.39406" lon="6.03189">
        <ele>1069.6</ele>
        <time>2026-05-13T04:49:45Z</time>
      </trkpt>
      <trkpt lat="46.39412" lon="6.03196">
        <ele>1069.8</ele>
        <time>2026-05-13T04:49:47Z</time>
      </trkpt>
      <trkpt lat="46.39437" lon="6.03222">
        <ele>1070.4</ele>
        <time>2026-05-13T04:49:55Z</time>
      </trkpt>
      <trkpt lat="46.39444" lon="6.03229">
        <ele>1070.6</ele>
        <time>2026-05-13T04:49:57Z</time>
      </trkpt>
      <trkpt lat="46.39461" lon="6.03245">
        <ele>1070.8</ele>
        <time>2026-05-13T04:50:02Z</time>
      </trkpt>
      <trkpt lat="46.39485" lon="6.03254">
        <ele>1071.2</ele>
        <time>2026-05-13T04:50:08Z</time>
      </trkpt>
      <trkpt lat="46.39498" lon="6.03254">
        <ele>1071.4</ele>
        <time>2026-05-13T04:50:11Z</time>
      </trkpt>
      <trkpt lat="46.39516" lon="6.0325">
        <ele>1071.4</ele>
        <time>2026-05-13T04:50:15Z</time>
      </trkpt>
      <trkpt lat="46.39524" lon="6.03249">
        <ele>1071.8</ele>
        <time>2026-05-13T04:50:17Z</time>
      </trkpt>
      <trkpt lat="46.39559" lon="6.03241">
        <ele>1072.2</ele>
        <time>2026-05-13T04:50:25Z</time>
      </trkpt>
      <trkpt lat="46.39593" lon="6.03235">
        <ele>1072.8</ele>
        <time>2026-05-13T04:50:33Z</time>
      </trkpt>
      <trkpt lat="46.39636" lon="6.03233">
        <ele>1073.6</ele>
        <time>2026-05-13T04:50:43Z</time>
      </trkpt>
      <trkpt lat="46.39654" lon="6.03235">
        <ele>1073.8</ele>
        <time>2026-05-13T04:50:47Z</time>
      </trkpt>
      <trkpt lat="46.39658" lon="6.03237">
        <ele>1074</ele>
        <time>2026-05-13T04:50:48Z</time>
      </trkpt>
      <trkpt lat="46.3967" lon="6.03244">
        <ele>1074</ele>
        <time>2026-05-13T04:50:51Z</time>
      </trkpt>
      <trkpt lat="46.39701" lon="6.03273">
        <ele>1074.8</ele>
        <time>2026-05-13T04:51:00Z</time>
      </trkpt>
      <trkpt lat="46.39705" lon="6.03277">
        <ele>1075</ele>
        <time>2026-05-13T04:51:01Z</time>
      </trkpt>
      <trkpt lat="46.39736" lon="6.0331">
        <ele>1075.4</ele>
        <time>2026-05-13T04:51:10Z</time>
      </trkpt>
      <trkpt lat="46.3976" lon="6.03342">
        <ele>1076</ele>
        <time>2026-05-13T04:51:18Z</time>
      </trkpt>
      <trkpt lat="46.39762" lon="6.03346">
        <ele>1076</ele>
        <time>2026-05-13T04:51:19Z</time>
      </trkpt>
      <trkpt lat="46.39783" lon="6.03389">
        <ele>1077</ele>
        <time>2026-05-13T04:51:28Z</time>
      </trkpt>
      <trkpt lat="46.39785" lon="6.03393">
        <ele>1077.2</ele>
        <time>2026-05-13T04:51:29Z</time>
      </trkpt>
      <trkpt lat="46.39799" lon="6.03429">
        <ele>1078</ele>
        <time>2026-05-13T04:51:36Z</time>
      </trkpt>
      <trkpt lat="46.39801" lon="6.03434">
        <ele>1078.2</ele>
        <time>2026-05-13T04:51:37Z</time>
      </trkpt>
      <trkpt lat="46.39816" lon="6.0348">
        <ele>1079</ele>
        <time>2026-05-13T04:51:46Z</time>
      </trkpt>
      <trkpt lat="46.39819" lon="6.03491">
        <ele>1079.4</ele>
        <time>2026-05-13T04:51:48Z</time>
      </trkpt>
      <trkpt lat="46.39824" lon="6.03513">
        <ele>1079.6</ele>
        <time>2026-05-13T04:51:52Z</time>
      </trkpt>
      <trkpt lat="46.39826" lon="6.03524">
        <ele>1079.8</ele>
        <time>2026-05-13T04:51:54Z</time>
      </trkpt>
      <trkpt lat="46.3983" lon="6.03553">
        <ele>1080.4</ele>
        <time>2026-05-13T04:51:59Z</time>
      </trkpt>
      <trkpt lat="46.39837" lon="6.0358">
        <ele>1080.8</ele>
        <time>2026-05-13T04:52:04Z</time>
      </trkpt>
      <trkpt lat="46.39839" lon="6.03585">
        <ele>1081</ele>
        <time>2026-05-13T04:52:05Z</time>
      </trkpt>
      <trkpt lat="46.39846" lon="6.036">
        <ele>1081.4</ele>
        <time>2026-05-13T04:52:08Z</time>
      </trkpt>
      <trkpt lat="46.39852" lon="6.03614">
        <ele>1081.8</ele>
        <time>2026-05-13T04:52:11Z</time>
      </trkpt>
      <trkpt lat="46.39864" lon="6.03636">
        <ele>1082.4</ele>
        <time>2026-05-13T04:52:16Z</time>
      </trkpt>
      <trkpt lat="46.39872" lon="6.03647">
        <ele>1082.8</ele>
        <time>2026-05-13T04:52:19Z</time>
      </trkpt>
      <trkpt lat="46.39887" lon="6.03669">
        <ele>1083.4</ele>
        <time>2026-05-13T04:52:25Z</time>
      </trkpt>
      <trkpt lat="46.3989" lon="6.03672">
        <ele>1083.6</ele>
        <time>2026-05-13T04:52:26Z</time>
      </trkpt>
      <trkpt lat="46.39908" lon="6.03699">
        <ele>1084.4</ele>
        <time>2026-05-13T04:52:34Z</time>
      </trkpt>
      <trkpt lat="46.39911" lon="6.03702">
        <ele>1084.6</ele>
        <time>2026-05-13T04:52:35Z</time>
      </trkpt>
      <trkpt lat="46.39926" lon="6.03719">
        <ele>1085.4</ele>
        <time>2026-05-13T04:52:41Z</time>
      </trkpt>
      <trkpt lat="46.39931" lon="6.03723">
        <ele>1086</ele>
        <time>2026-05-13T04:52:43Z</time>
      </trkpt>
      <trkpt lat="46.39947" lon="6.03735">
        <ele>1087</ele>
        <time>2026-05-13T04:52:49Z</time>
      </trkpt>
      <trkpt lat="46.39952" lon="6.0374">
        <ele>1087.2</ele>
        <time>2026-05-13T04:52:51Z</time>
      </trkpt>
      <trkpt lat="46.39963" lon="6.03753">
        <ele>1088</ele>
        <time>2026-05-13T04:52:56Z</time>
      </trkpt>
      <trkpt lat="46.39968" lon="6.0376">
        <ele>1088.4</ele>
        <time>2026-05-13T04:52:58Z</time>
      </trkpt>
      <trkpt lat="46.39976" lon="6.03772">
        <ele>1089.2</ele>
        <time>2026-05-13T04:53:02Z</time>
      </trkpt>
      <trkpt lat="46.3998" lon="6.03782">
        <ele>1089.6</ele>
        <time>2026-05-13T04:53:05Z</time>
      </trkpt>
      <trkpt lat="46.39988" lon="6.03794">
        <ele>1090.4</ele>
        <time>2026-05-13T04:53:09Z</time>
      </trkpt>
      <trkpt lat="46.39991" lon="6.038">
        <ele>1090.6</ele>
        <time>2026-05-13T04:53:11Z</time>
      </trkpt>
      <trkpt lat="46.40002" lon="6.03815">
        <ele>1091.4</ele>
        <time>2026-05-13T04:53:16Z</time>
      </trkpt>
      <trkpt lat="46.40005" lon="6.03821">
        <ele>1091.8</ele>
        <time>2026-05-13T04:53:18Z</time>
      </trkpt>
      <trkpt lat="46.40012" lon="6.03829">
        <ele>1092.4</ele>
        <time>2026-05-13T04:53:21Z</time>
      </trkpt>
      <trkpt lat="46.40025" lon="6.03846">
        <ele>1093.4</ele>
        <time>2026-05-13T04:53:27Z</time>
      </trkpt>
      <trkpt lat="46.40027" lon="6.03849">
        <ele>1093.6</ele>
        <time>2026-05-13T04:53:28Z</time>
      </trkpt>
      <trkpt lat="46.40046" lon="6.0387">
        <ele>1094.6</ele>
        <time>2026-05-13T04:53:36Z</time>
      </trkpt>
      <trkpt lat="46.40048" lon="6.03873">
        <ele>1095</ele>
        <time>2026-05-13T04:53:37Z</time>
      </trkpt>
      <trkpt lat="46.40059" lon="6.03885">
        <ele>1095.8</ele>
        <time>2026-05-13T04:53:42Z</time>
      </trkpt>
      <trkpt lat="46.40067" lon="6.03896">
        <ele>1096.2</ele>
        <time>2026-05-13T04:53:46Z</time>
      </trkpt>
      <trkpt lat="46.40076" lon="6.03906">
        <ele>1096.8</ele>
        <time>2026-05-13T04:53:50Z</time>
      </trkpt>
      <trkpt lat="46.40086" lon="6.03919">
        <ele>1098</ele>
        <time>2026-05-13T04:53:55Z</time>
      </trkpt>
      <trkpt lat="46.401" lon="6.03937">
        <ele>1099</ele>
        <time>2026-05-13T04:54:02Z</time>
      </trkpt>
      <trkpt lat="46.40108" lon="6.03948">
        <ele>1099.6</ele>
        <time>2026-05-13T04:54:06Z</time>
      </trkpt>
      <trkpt lat="46.40115" lon="6.03955">
        <ele>1100.2</ele>
        <time>2026-05-13T04:54:09Z</time>
      </trkpt>
      <trkpt lat="46.40131" lon="6.03974">
        <ele>1101.2</ele>
        <time>2026-05-13T04:54:17Z</time>
      </trkpt>
      <trkpt lat="46.40146" lon="6.0399">
        <ele>1102.6</ele>
        <time>2026-05-13T04:54:24Z</time>
      </trkpt>
      <trkpt lat="46.40151" lon="6.03994">
        <ele>1102.8</ele>
        <time>2026-05-13T04:54:26Z</time>
      </trkpt>
      <trkpt lat="46.40163" lon="6.04008">
        <ele>1103.8</ele>
        <time>2026-05-13T04:54:32Z</time>
      </trkpt>
      <trkpt lat="46.40165" lon="6.0401">
        <ele>1103.8</ele>
        <time>2026-05-13T04:54:33Z</time>
      </trkpt>
      <trkpt lat="46.40178" lon="6.04025">
        <ele>1104.8</ele>
        <time>2026-05-13T04:54:39Z</time>
      </trkpt>
      <trkpt lat="46.40181" lon="6.04029">
        <ele>1105</ele>
        <time>2026-05-13T04:54:41Z</time>
      </trkpt>
      <trkpt lat="46.40193" lon="6.04045">
        <ele>1105.8</ele>
        <time>2026-05-13T04:54:47Z</time>
      </trkpt>
      <trkpt lat="46.40196" lon="6.04052">
        <ele>1106.2</ele>
        <time>2026-05-13T04:54:49Z</time>
      </trkpt>
      <trkpt lat="46.40205" lon="6.04067">
        <ele>1107.2</ele>
        <time>2026-05-13T04:54:54Z</time>
      </trkpt>
      <trkpt lat="46.40211" lon="6.04076">
        <ele>1107.4</ele>
        <time>2026-05-13T04:54:57Z</time>
      </trkpt>
      <trkpt lat="46.40218" lon="6.04088">
        <ele>1108.2</ele>
        <time>2026-05-13T04:55:01Z</time>
      </trkpt>
      <trkpt lat="46.40227" lon="6.04105">
        <ele>1109</ele>
        <time>2026-05-13T04:55:06Z</time>
      </trkpt>
      <trkpt lat="46.4023" lon="6.04111">
        <ele>1109.2</ele>
        <time>2026-05-13T04:55:08Z</time>
      </trkpt>
      <trkpt lat="46.4024" lon="6.04125">
        <ele>1110</ele>
        <time>2026-05-13T04:55:13Z</time>
      </trkpt>
      <trkpt lat="46.40244" lon="6.04129">
        <ele>1110.4</ele>
        <time>2026-05-13T04:55:15Z</time>
      </trkpt>
      <trkpt lat="46.40259" lon="6.04148">
        <ele>1111.4</ele>
        <time>2026-05-13T04:55:22Z</time>
      </trkpt>
      <trkpt lat="46.40273" lon="6.04169">
        <ele>1112.6</ele>
        <time>2026-05-13T04:55:30Z</time>
      </trkpt>
      <trkpt lat="46.40288" lon="6.04194">
        <ele>1113.6</ele>
        <time>2026-05-13T04:55:38Z</time>
      </trkpt>
      <trkpt lat="46.40299" lon="6.04217">
        <ele>1114.8</ele>
        <time>2026-05-13T04:55:45Z</time>
      </trkpt>
      <trkpt lat="46.40303" lon="6.04227">
        <ele>1115.4</ele>
        <time>2026-05-13T04:55:48Z</time>
      </trkpt>
      <trkpt lat="46.40309" lon="6.04236">
        <ele>1116</ele>
        <time>2026-05-13T04:55:51Z</time>
      </trkpt>
      <trkpt lat="46.40323" lon="6.04255">
        <ele>1117</ele>
        <time>2026-05-13T04:55:58Z</time>
      </trkpt>
      <trkpt lat="46.40326" lon="6.04257">
        <ele>1117.2</ele>
        <time>2026-05-13T04:55:59Z</time>
      </trkpt>
      <trkpt lat="46.40346" lon="6.04273">
        <ele>1118.2</ele>
        <time>2026-05-13T04:56:07Z</time>
      </trkpt>
      <trkpt lat="46.40349" lon="6.04275">
        <ele>1118.2</ele>
        <time>2026-05-13T04:56:08Z</time>
      </trkpt>
      <trkpt lat="46.40368" lon="6.04293">
        <ele>1119</ele>
        <time>2026-05-13T04:56:16Z</time>
      </trkpt>
      <trkpt lat="46.40373" lon="6.04298">
        <ele>1119.2</ele>
        <time>2026-05-13T04:56:18Z</time>
      </trkpt>
      <trkpt lat="46.40389" lon="6.04316">
        <ele>1120.2</ele>
        <time>2026-05-13T04:56:25Z</time>
      </trkpt>
      <trkpt lat="46.4041" lon="6.04341">
        <ele>1121.2</ele>
        <time>2026-05-13T04:56:34Z</time>
      </trkpt>
      <trkpt lat="46.40412" lon="6.04344">
        <ele>1121.4</ele>
        <time>2026-05-13T04:56:35Z</time>
      </trkpt>
      <trkpt lat="46.40427" lon="6.04366">
        <ele>1122</ele>
        <time>2026-05-13T04:56:42Z</time>
      </trkpt>
      <trkpt lat="46.40431" lon="6.04376">
        <ele>1122.4</ele>
        <time>2026-05-13T04:56:45Z</time>
      </trkpt>
      <trkpt lat="46.40442" lon="6.04398">
        <ele>1123</ele>
        <time>2026-05-13T04:56:51Z</time>
      </trkpt>
      <trkpt lat="46.4045" lon="6.04412">
        <ele>1123.6</ele>
        <time>2026-05-13T04:56:55Z</time>
      </trkpt>
      <trkpt lat="46.40464" lon="6.04433">
        <ele>1124</ele>
        <time>2026-05-13T04:57:01Z</time>
      </trkpt>
      <trkpt lat="46.40474" lon="6.0445">
        <ele>1124.6</ele>
        <time>2026-05-13T04:57:06Z</time>
      </trkpt>
      <trkpt lat="46.40477" lon="6.04457">
        <ele>1124.6</ele>
        <time>2026-05-13T04:57:08Z</time>
      </trkpt>
      <trkpt lat="46.40488" lon="6.04478">
        <ele>1125.2</ele>
        <time>2026-05-13T04:57:14Z</time>
      </trkpt>
      <trkpt lat="46.40499" lon="6.04499">
        <ele>1125.8</ele>
        <time>2026-05-13T04:57:20Z</time>
      </trkpt>
      <trkpt lat="46.4051" lon="6.0453">
        <ele>1126.6</ele>
        <time>2026-05-13T04:57:28Z</time>
      </trkpt>
      <trkpt lat="46.40513" lon="6.04542">
        <ele>1126.8</ele>
        <time>2026-05-13T04:57:31Z</time>
      </trkpt>
      <trkpt lat="46.40522" lon="6.04573">
        <ele>1127.8</ele>
        <time>2026-05-13T04:57:39Z</time>
      </trkpt>
      <trkpt lat="46.40529" lon="6.04591">
        <ele>1128</ele>
        <time>2026-05-13T04:57:44Z</time>
      </trkpt>
      <trkpt lat="46.4053" lon="6.04595">
        <ele>1128.2</ele>
        <time>2026-05-13T04:57:45Z</time>
      </trkpt>
      <trkpt lat="46.40544" lon="6.04625">
        <ele>1129</ele>
        <time>2026-05-13T04:57:53Z</time>
      </trkpt>
      <trkpt lat="46.40546" lon="6.04628">
        <ele>1129.2</ele>
        <time>2026-05-13T04:57:54Z</time>
      </trkpt>
      <trkpt lat="46.40563" lon="6.04642">
        <ele>1129.8</ele>
        <time>2026-05-13T04:58:00Z</time>
      </trkpt>
      <trkpt lat="46.40573" lon="6.04651">
        <ele>1130.4</ele>
        <time>2026-05-13T04:58:04Z</time>
      </trkpt>
      <trkpt lat="46.40578" lon="6.04655">
        <ele>1130.6</ele>
        <time>2026-05-13T04:58:06Z</time>
      </trkpt>
      <trkpt lat="46.40593" lon="6.04669">
        <ele>1131.2</ele>
        <time>2026-05-13T04:58:12Z</time>
      </trkpt>
      <trkpt lat="46.40598" lon="6.04675">
        <ele>1131.4</ele>
        <time>2026-05-13T04:58:14Z</time>
      </trkpt>
      <trkpt lat="46.40615" lon="6.04695">
        <ele>1132.2</ele>
        <time>2026-05-13T04:58:21Z</time>
      </trkpt>
      <trkpt lat="46.40626" lon="6.04712">
        <ele>1132.6</ele>
        <time>2026-05-13T04:58:26Z</time>
      </trkpt>
      <trkpt lat="46.40634" lon="6.04724">
        <ele>1133</ele>
        <time>2026-05-13T04:58:30Z</time>
      </trkpt>
      <trkpt lat="46.4065" lon="6.04741">
        <ele>1133.6</ele>
        <time>2026-05-13T04:58:36Z</time>
      </trkpt>
      <trkpt lat="46.40654" lon="6.04747">
        <ele>1133.8</ele>
        <time>2026-05-13T04:58:38Z</time>
      </trkpt>
      <trkpt lat="46.40673" lon="6.04766">
        <ele>1134.6</ele>
        <time>2026-05-13T04:58:46Z</time>
      </trkpt>
      <trkpt lat="46.4068" lon="6.04774">
        <ele>1135</ele>
        <time>2026-05-13T04:58:49Z</time>
      </trkpt>
      <trkpt lat="46.40701" lon="6.04794">
        <ele>1135.6</ele>
        <time>2026-05-13T04:58:57Z</time>
      </trkpt>
      <trkpt lat="46.40704" lon="6.04797">
        <ele>1135.8</ele>
        <time>2026-05-13T04:58:58Z</time>
      </trkpt>
      <trkpt lat="46.40723" lon="6.04816">
        <ele>1136.4</ele>
        <time>2026-05-13T04:59:05Z</time>
      </trkpt>
      <trkpt lat="46.40729" lon="6.04821">
        <ele>1136.8</ele>
        <time>2026-05-13T04:59:07Z</time>
      </trkpt>
      <trkpt lat="46.40751" lon="6.04842">
        <ele>1137.6</ele>
        <time>2026-05-13T04:59:15Z</time>
      </trkpt>
      <trkpt lat="46.40762" lon="6.04852">
        <ele>1137.8</ele>
        <time>2026-05-13T04:59:19Z</time>
      </trkpt>
      <trkpt lat="46.40772" lon="6.04865">
        <ele>1138.4</ele>
        <time>2026-05-13T04:59:23Z</time>
      </trkpt>
      <trkpt lat="46.40781" lon="6.04876">
        <ele>1139</ele>
        <time>2026-05-13T04:59:27Z</time>
      </trkpt>
      <trkpt lat="46.40789" lon="6.04885">
        <ele>1139.4</ele>
        <time>2026-05-13T04:59:30Z</time>
      </trkpt>
      <trkpt lat="46.40808" lon="6.04903">
        <ele>1140.2</ele>
        <time>2026-05-13T04:59:37Z</time>
      </trkpt>
      <trkpt lat="46.40816" lon="6.0491">
        <ele>1140.4</ele>
        <time>2026-05-13T04:59:40Z</time>
      </trkpt>
      <trkpt lat="46.40829" lon="6.04921">
        <ele>1141.2</ele>
        <time>2026-05-13T04:59:45Z</time>
      </trkpt>
      <trkpt lat="46.40832" lon="6.04923">
        <ele>1141.2</ele>
        <time>2026-05-13T04:59:46Z</time>
      </trkpt>
      <trkpt lat="46.40856" lon="6.04939">
        <ele>1142.2</ele>
        <time>2026-05-13T04:59:54Z</time>
      </trkpt>
      <trkpt lat="46.40865" lon="6.04944">
        <ele>1142.6</ele>
        <time>2026-05-13T04:59:57Z</time>
      </trkpt>
      <trkpt lat="46.40884" lon="6.04957">
        <ele>1143.2</ele>
        <time>2026-05-13T05:00:03Z</time>
      </trkpt>
      <trkpt lat="46.40893" lon="6.04966">
        <ele>1143.6</ele>
        <time>2026-05-13T05:00:06Z</time>
      </trkpt>
      <trkpt lat="46.40908" lon="6.04997">
        <ele>1144.2</ele>
        <time>2026-05-13T05:00:14Z</time>
      </trkpt>
      <trkpt lat="46.4091" lon="6.05001">
        <ele>1144.2</ele>
        <time>2026-05-13T05:00:15Z</time>
      </trkpt>
      <trkpt lat="46.40921" lon="6.05024">
        <ele>1145.2</ele>
        <time>2026-05-13T05:00:21Z</time>
      </trkpt>
      <trkpt lat="46.40924" lon="6.05027">
        <ele>1145.2</ele>
        <time>2026-05-13T05:00:22Z</time>
      </trkpt>
      <trkpt lat="46.40935" lon="6.0504">
        <ele>1146.4</ele>
        <time>2026-05-13T05:00:26Z</time>
      </trkpt>
      <trkpt lat="46.40947" lon="6.0505">
        <ele>1146.6</ele>
        <time>2026-05-13T05:00:30Z</time>
      </trkpt>
      <trkpt lat="46.4097" lon="6.05064">
        <ele>1146.8</ele>
        <time>2026-05-13T05:00:37Z</time>
      </trkpt>
      <trkpt lat="46.40993" lon="6.05074">
        <ele>1147.2</ele>
        <time>2026-05-13T05:00:44Z</time>
      </trkpt>
      <trkpt lat="46.41" lon="6.05075">
        <ele>1147.4</ele>
        <time>2026-05-13T05:00:46Z</time>
      </trkpt>
      <trkpt lat="46.41023" lon="6.0508">
        <ele>1147.8</ele>
        <time>2026-05-13T05:00:52Z</time>
      </trkpt>
      <trkpt lat="46.41058" lon="6.05084">
        <ele>1148.4</ele>
        <time>2026-05-13T05:01:01Z</time>
      </trkpt>
      <trkpt lat="46.4107" lon="6.05084">
        <ele>1148.8</ele>
        <time>2026-05-13T05:01:04Z</time>
      </trkpt>
      <trkpt lat="46.41102" lon="6.05085">
        <ele>1149.4</ele>
        <time>2026-05-13T05:01:12Z</time>
      </trkpt>
      <trkpt lat="46.4111" lon="6.05086">
        <ele>1149.6</ele>
        <time>2026-05-13T05:01:14Z</time>
      </trkpt>
      <trkpt lat="46.41125" lon="6.0509">
        <ele>1149.8</ele>
        <time>2026-05-13T05:01:18Z</time>
      </trkpt>
      <trkpt lat="46.41154" lon="6.05088">
        <ele>1150.4</ele>
        <time>2026-05-13T05:01:25Z</time>
      </trkpt>
      <trkpt lat="46.41163" lon="6.05089">
        <ele>1150.6</ele>
        <time>2026-05-13T05:01:27Z</time>
      </trkpt>
      <trkpt lat="46.41167" lon="6.05091">
        <ele>1150.6</ele>
        <time>2026-05-13T05:01:28Z</time>
      </trkpt>
      <trkpt lat="46.41171" lon="6.05094">
        <ele>1150.4</ele>
        <time>2026-05-13T05:01:29Z</time>
      </trkpt>
      <trkpt lat="46.41176" lon="6.05101">
        <ele>1150.6</ele>
        <time>2026-05-13T05:01:31Z</time>
      </trkpt>
      <trkpt lat="46.41186" lon="6.05119">
        <ele>1151</ele>
        <time>2026-05-13T05:01:35Z</time>
      </trkpt>
      <trkpt lat="46.41191" lon="6.05126">
        <ele>1151.4</ele>
        <time>2026-05-13T05:01:37Z</time>
      </trkpt>
      <trkpt lat="46.41194" lon="6.05129">
        <ele>1151.6</ele>
        <time>2026-05-13T05:01:38Z</time>
      </trkpt>
      <trkpt lat="46.41215" lon="6.05153">
        <ele>1152.6</ele>
        <time>2026-05-13T05:01:45Z</time>
      </trkpt>
      <trkpt lat="46.41218" lon="6.05157">
        <ele>1152.6</ele>
        <time>2026-05-13T05:01:46Z</time>
      </trkpt>
      <trkpt lat="46.41235" lon="6.05185">
        <ele>1153.4</ele>
        <time>2026-05-13T05:01:53Z</time>
      </trkpt>
      <trkpt lat="46.41243" lon="6.05199">
        <ele>1153.6</ele>
        <time>2026-05-13T05:01:56Z</time>
      </trkpt>
      <trkpt lat="46.41255" lon="6.05213">
        <ele>1154.2</ele>
        <time>2026-05-13T05:02:00Z</time>
      </trkpt>
      <trkpt lat="46.41269" lon="6.05222">
        <ele>1154.6</ele>
        <time>2026-05-13T05:02:04Z</time>
      </trkpt>
      <trkpt lat="46.41281" lon="6.05228">
        <ele>1155.2</ele>
        <time>2026-05-13T05:02:07Z</time>
      </trkpt>
      <trkpt lat="46.41303" lon="6.05235">
        <ele>1155.8</ele>
        <time>2026-05-13T05:02:13Z</time>
      </trkpt>
      <trkpt lat="46.41318" lon="6.05241">
        <ele>1156</ele>
        <time>2026-05-13T05:02:17Z</time>
      </trkpt>
      <trkpt lat="46.41339" lon="6.05246">
        <ele>1157</ele>
        <time>2026-05-13T05:02:23Z</time>
      </trkpt>
      <trkpt lat="46.41348" lon="6.05246">
        <ele>1157.2</ele>
        <time>2026-05-13T05:02:25Z</time>
      </trkpt>
      <trkpt lat="46.41376" lon="6.05241">
        <ele>1157.6</ele>
        <time>2026-05-13T05:02:32Z</time>
      </trkpt>
      <trkpt lat="46.41399" lon="6.05237">
        <ele>1158</ele>
        <time>2026-05-13T05:02:38Z</time>
      </trkpt>
      <trkpt lat="46.41403" lon="6.05238">
        <ele>1158</ele>
        <time>2026-05-13T05:02:39Z</time>
      </trkpt>
      <trkpt lat="46.41411" lon="6.0524">
        <ele>1158.2</ele>
        <time>2026-05-13T05:02:41Z</time>
      </trkpt>
      <trkpt lat="46.41422" lon="6.05246">
        <ele>1158.4</ele>
        <time>2026-05-13T05:02:44Z</time>
      </trkpt>
      <trkpt lat="46.41426" lon="6.05249">
        <ele>1158.4</ele>
        <time>2026-05-13T05:02:45Z</time>
      </trkpt>
      <trkpt lat="46.41444" lon="6.05269">
        <ele>1159</ele>
        <time>2026-05-13T05:02:51Z</time>
      </trkpt>
      <trkpt lat="46.41447" lon="6.05273">
        <ele>1159.2</ele>
        <time>2026-05-13T05:02:52Z</time>
      </trkpt>
      <trkpt lat="46.41468" lon="6.05288">
        <ele>1159.6</ele>
        <time>2026-05-13T05:02:58Z</time>
      </trkpt>
      <trkpt lat="46.4148" lon="6.0529">
        <ele>1160.2</ele>
        <time>2026-05-13T05:03:01Z</time>
      </trkpt>
      <trkpt lat="46.41504" lon="6.05293">
        <ele>1160.4</ele>
        <time>2026-05-13T05:03:07Z</time>
      </trkpt>
      <trkpt lat="46.41533" lon="6.05305">
        <ele>1160.8</ele>
        <time>2026-05-13T05:03:15Z</time>
      </trkpt>
      <trkpt lat="46.41556" lon="6.05313">
        <ele>1161.4</ele>
        <time>2026-05-13T05:03:21Z</time>
      </trkpt>
      <trkpt lat="46.41571" lon="6.05319">
        <ele>1161.4</ele>
        <time>2026-05-13T05:03:25Z</time>
      </trkpt>
      <trkpt lat="46.41579" lon="6.05323">
        <ele>1161.4</ele>
        <time>2026-05-13T05:03:27Z</time>
      </trkpt>
      <trkpt lat="46.41592" lon="6.05338">
        <ele>1162</ele>
        <time>2026-05-13T05:03:31Z</time>
      </trkpt>
      <trkpt lat="46.41598" lon="6.05351">
        <ele>1162.2</ele>
        <time>2026-05-13T05:03:34Z</time>
      </trkpt>
      <trkpt lat="46.41601" lon="6.05361">
        <ele>1162.6</ele>
        <time>2026-05-13T05:03:36Z</time>
      </trkpt>
      <trkpt lat="46.41607" lon="6.05392">
        <ele>1163.2</ele>
        <time>2026-05-13T05:03:42Z</time>
      </trkpt>
      <trkpt lat="46.41609" lon="6.05429">
        <ele>1163.8</ele>
        <time>2026-05-13T05:03:49Z</time>
      </trkpt>
      <trkpt lat="46.41618" lon="6.0546">
        <ele>1164.2</ele>
        <time>2026-05-13T05:03:55Z</time>
      </trkpt>
      <trkpt lat="46.41641" lon="6.05517">
        <ele>1165.2</ele>
        <time>2026-05-13T05:04:07Z</time>
      </trkpt>
      <trkpt lat="46.41645" lon="6.05526">
        <ele>1165.4</ele>
        <time>2026-05-13T05:04:09Z</time>
      </trkpt>
      <trkpt lat="46.41657" lon="6.0556">
        <ele>1166.4</ele>
        <time>2026-05-13T05:04:16Z</time>
      </trkpt>
      <trkpt lat="46.41665" lon="6.05599">
        <ele>1167.6</ele>
        <time>2026-05-13T05:04:24Z</time>
      </trkpt>
      <trkpt lat="46.41669" lon="6.05615">
        <ele>1168</ele>
        <time>2026-05-13T05:04:27Z</time>
      </trkpt>
      <trkpt lat="46.41678" lon="6.05638">
        <ele>1168.6</ele>
        <time>2026-05-13T05:04:32Z</time>
      </trkpt>
      <trkpt lat="46.41683" lon="6.05647">
        <ele>1168.8</ele>
        <time>2026-05-13T05:04:34Z</time>
      </trkpt>
      <trkpt lat="46.41701" lon="6.05678">
        <ele>1169.8</ele>
        <time>2026-05-13T05:04:42Z</time>
      </trkpt>
      <trkpt lat="46.41713" lon="6.05698">
        <ele>1170.2</ele>
        <time>2026-05-13T05:04:47Z</time>
      </trkpt>
      <trkpt lat="46.41719" lon="6.05709">
        <ele>1170.8</ele>
        <time>2026-05-13T05:04:50Z</time>
      </trkpt>
      <trkpt lat="46.41737" lon="6.05739">
        <ele>1171.8</ele>
        <time>2026-05-13T05:04:57Z</time>
      </trkpt>
      <trkpt lat="46.41739" lon="6.05743">
        <ele>1171.8</ele>
        <time>2026-05-13T05:04:58Z</time>
      </trkpt>
      <trkpt lat="46.41755" lon="6.05771">
        <ele>1172.6</ele>
        <time>2026-05-13T05:05:05Z</time>
      </trkpt>
      <trkpt lat="46.41761" lon="6.05778">
        <ele>1172.8</ele>
        <time>2026-05-13T05:05:07Z</time>
      </trkpt>
      <trkpt lat="46.41775" lon="6.05799">
        <ele>1173.6</ele>
        <time>2026-05-13T05:05:13Z</time>
      </trkpt>
      <trkpt lat="46.41781" lon="6.05805">
        <ele>1173.8</ele>
        <time>2026-05-13T05:05:15Z</time>
      </trkpt>
      <trkpt lat="46.41801" lon="6.05827">
        <ele>1174.6</ele>
        <time>2026-05-13T05:05:22Z</time>
      </trkpt>
      <trkpt lat="46.41809" lon="6.05837">
        <ele>1174.8</ele>
        <time>2026-05-13T05:05:25Z</time>
      </trkpt>
      <trkpt lat="46.41815" lon="6.05849">
        <ele>1175.4</ele>
        <time>2026-05-13T05:05:28Z</time>
      </trkpt>
      <trkpt lat="46.41822" lon="6.05866">
        <ele>1175.8</ele>
        <time>2026-05-13T05:05:32Z</time>
      </trkpt>
      <trkpt lat="46.41831" lon="6.05886">
        <ele>1176.4</ele>
        <time>2026-05-13T05:05:37Z</time>
      </trkpt>
      <trkpt lat="46.41838" lon="6.05902">
        <ele>1177</ele>
        <time>2026-05-13T05:05:41Z</time>
      </trkpt>
      <trkpt lat="46.41849" lon="6.05923">
        <ele>1177.6</ele>
        <time>2026-05-13T05:05:46Z</time>
      </trkpt>
      <trkpt lat="46.41856" lon="6.05936">
        <ele>1178</ele>
        <time>2026-05-13T05:05:49Z</time>
      </trkpt>
      <trkpt lat="46.41874" lon="6.0597">
        <ele>1178.6</ele>
        <time>2026-05-13T05:05:57Z</time>
      </trkpt>
      <trkpt lat="46.41883" lon="6.05986">
        <ele>1179</ele>
        <time>2026-05-13T05:06:01Z</time>
      </trkpt>
      <trkpt lat="46.41894" lon="6.06">
        <ele>1179.6</ele>
        <time>2026-05-13T05:06:05Z</time>
      </trkpt>
      <trkpt lat="46.41906" lon="6.06012">
        <ele>1180</ele>
        <time>2026-05-13T05:06:09Z</time>
      </trkpt>
      <trkpt lat="46.41917" lon="6.06023">
        <ele>1180.6</ele>
        <time>2026-05-13T05:06:13Z</time>
      </trkpt>
      <trkpt lat="46.41933" lon="6.06037">
        <ele>1181</ele>
        <time>2026-05-13T05:06:18Z</time>
      </trkpt>
      <trkpt lat="46.41939" lon="6.06043">
        <ele>1181.4</ele>
        <time>2026-05-13T05:06:20Z</time>
      </trkpt>
      <trkpt lat="46.41955" lon="6.0606">
        <ele>1182</ele>
        <time>2026-05-13T05:06:26Z</time>
      </trkpt>
      <trkpt lat="46.41965" lon="6.06073">
        <ele>1182.8</ele>
        <time>2026-05-13T05:06:30Z</time>
      </trkpt>
      <trkpt lat="46.41972" lon="6.06083">
        <ele>1183</ele>
        <time>2026-05-13T05:06:33Z</time>
      </trkpt>
      <trkpt lat="46.41983" lon="6.06099">
        <ele>1184.2</ele>
        <time>2026-05-13T05:06:38Z</time>
      </trkpt>
      <trkpt lat="46.41988" lon="6.06104">
        <ele>1184.6</ele>
        <time>2026-05-13T05:06:40Z</time>
      </trkpt>
      <trkpt lat="46.42003" lon="6.06121">
        <ele>1185.6</ele>
        <time>2026-05-13T05:06:46Z</time>
      </trkpt>
      <trkpt lat="46.42005" lon="6.06124">
        <ele>1185.6</ele>
        <time>2026-05-13T05:06:47Z</time>
      </trkpt>
      <trkpt lat="46.42022" lon="6.06145">
        <ele>1186.6</ele>
        <time>2026-05-13T05:06:54Z</time>
      </trkpt>
      <trkpt lat="46.42025" lon="6.06149">
        <ele>1186.8</ele>
        <time>2026-05-13T05:06:55Z</time>
      </trkpt>
      <trkpt lat="46.42037" lon="6.06167">
        <ele>1188</ele>
        <time>2026-05-13T05:07:01Z</time>
      </trkpt>
      <trkpt lat="46.42044" lon="6.06176">
        <ele>1188.6</ele>
        <time>2026-05-13T05:07:04Z</time>
      </trkpt>
      <trkpt lat="46.42054" lon="6.06186">
        <ele>1189.2</ele>
        <time>2026-05-13T05:07:08Z</time>
      </trkpt>
      <trkpt lat="46.42069" lon="6.062">
        <ele>1190.4</ele>
        <time>2026-05-13T05:07:14Z</time>
      </trkpt>
      <trkpt lat="46.42072" lon="6.06202">
        <ele>1190.4</ele>
        <time>2026-05-13T05:07:15Z</time>
      </trkpt>
      <trkpt lat="46.42088" lon="6.06216">
        <ele>1191.4</ele>
        <time>2026-05-13T05:07:21Z</time>
      </trkpt>
      <trkpt lat="46.42093" lon="6.06221">
        <ele>1191.8</ele>
        <time>2026-05-13T05:07:23Z</time>
      </trkpt>
      <trkpt lat="46.42101" lon="6.06228">
        <ele>1192.4</ele>
        <time>2026-05-13T05:07:26Z</time>
      </trkpt>
      <trkpt lat="46.42117" lon="6.06239">
        <ele>1193.4</ele>
        <time>2026-05-13T05:07:32Z</time>
      </trkpt>
      <trkpt lat="46.4212" lon="6.0624">
        <ele>1193.6</ele>
        <time>2026-05-13T05:07:33Z</time>
      </trkpt>
      <trkpt lat="46.42144" lon="6.06247">
        <ele>1194.6</ele>
        <time>2026-05-13T05:07:41Z</time>
      </trkpt>
      <trkpt lat="46.42147" lon="6.06249">
        <ele>1195</ele>
        <time>2026-05-13T05:07:42Z</time>
      </trkpt>
      <trkpt lat="46.42162" lon="6.06258">
        <ele>1195.8</ele>
        <time>2026-05-13T05:07:47Z</time>
      </trkpt>
      <trkpt lat="46.42167" lon="6.06262">
        <ele>1196</ele>
        <time>2026-05-13T05:07:49Z</time>
      </trkpt>
      <trkpt lat="46.42178" lon="6.06274">
        <ele>1196.8</ele>
        <time>2026-05-13T05:07:54Z</time>
      </trkpt>
      <trkpt lat="46.42183" lon="6.0628">
        <ele>1197.2</ele>
        <time>2026-05-13T05:07:56Z</time>
      </trkpt>
      <trkpt lat="46.4219" lon="6.06291">
        <ele>1198.2</ele>
        <time>2026-05-13T05:08:00Z</time>
      </trkpt>
      <trkpt lat="46.42195" lon="6.06296">
        <ele>1198.4</ele>
        <time>2026-05-13T05:08:02Z</time>
      </trkpt>
      <trkpt lat="46.42208" lon="6.06307">
        <ele>1199.2</ele>
        <time>2026-05-13T05:08:07Z</time>
      </trkpt>
      <trkpt lat="46.42214" lon="6.06311">
        <ele>1199.4</ele>
        <time>2026-05-13T05:08:09Z</time>
      </trkpt>
      <trkpt lat="46.42225" lon="6.06318">
        <ele>1200.2</ele>
        <time>2026-05-13T05:08:13Z</time>
      </trkpt>
      <trkpt lat="46.42238" lon="6.06329">
        <ele>1201.2</ele>
        <time>2026-05-13T05:08:18Z</time>
      </trkpt>
      <trkpt lat="46.42256" lon="6.06345">
        <ele>1202.2</ele>
        <time>2026-05-13T05:08:25Z</time>
      </trkpt>
      <trkpt lat="46.42264" lon="6.06352">
        <ele>1202.6</ele>
        <time>2026-05-13T05:08:28Z</time>
      </trkpt>
      <trkpt lat="46.42274" lon="6.06362">
        <ele>1203.2</ele>
        <time>2026-05-13T05:08:32Z</time>
      </trkpt>
      <trkpt lat="46.42287" lon="6.06374">
        <ele>1204.2</ele>
        <time>2026-05-13T05:08:37Z</time>
      </trkpt>
      <trkpt lat="46.4229" lon="6.06377">
        <ele>1204.4</ele>
        <time>2026-05-13T05:08:38Z</time>
      </trkpt>
      <trkpt lat="46.42303" lon="6.06389">
        <ele>1205.4</ele>
        <time>2026-05-13T05:08:43Z</time>
      </trkpt>
      <trkpt lat="46.42315" lon="6.06404">
        <ele>1206</ele>
        <time>2026-05-13T05:08:48Z</time>
      </trkpt>
      <trkpt lat="46.42319" lon="6.06409">
        <ele>1206.4</ele>
        <time>2026-05-13T05:08:50Z</time>
      </trkpt>
      <trkpt lat="46.42327" lon="6.0642">
        <ele>1207.2</ele>
        <time>2026-05-13T05:08:54Z</time>
      </trkpt>
      <trkpt lat="46.42332" lon="6.06425">
        <ele>1207.6</ele>
        <time>2026-05-13T05:08:56Z</time>
      </trkpt>
      <trkpt lat="46.42344" lon="6.0644">
        <ele>1208.8</ele>
        <time>2026-05-13T05:09:01Z</time>
      </trkpt>
      <trkpt lat="46.42358" lon="6.06462">
        <ele>1209.6</ele>
        <time>2026-05-13T05:09:08Z</time>
      </trkpt>
      <trkpt lat="46.42365" lon="6.0647">
        <ele>1210</ele>
        <time>2026-05-13T05:09:11Z</time>
      </trkpt>
      <trkpt lat="46.42374" lon="6.06482">
        <ele>1210.8</ele>
        <time>2026-05-13T05:09:15Z</time>
      </trkpt>
      <trkpt lat="46.42386" lon="6.06496">
        <ele>1211.6</ele>
        <time>2026-05-13T05:09:20Z</time>
      </trkpt>
      <trkpt lat="46.4239" lon="6.06502">
        <ele>1212</ele>
        <time>2026-05-13T05:09:22Z</time>
      </trkpt>
      <trkpt lat="46.42402" lon="6.0652">
        <ele>1213.2</ele>
        <time>2026-05-13T05:09:28Z</time>
      </trkpt>
      <trkpt lat="46.42416" lon="6.06538">
        <ele>1214</ele>
        <time>2026-05-13T05:09:34Z</time>
      </trkpt>
      <trkpt lat="46.42428" lon="6.06551">
        <ele>1214.8</ele>
        <time>2026-05-13T05:09:39Z</time>
      </trkpt>
      <trkpt lat="46.42434" lon="6.06556">
        <ele>1215.2</ele>
        <time>2026-05-13T05:09:41Z</time>
      </trkpt>
      <trkpt lat="46.42452" lon="6.06571">
        <ele>1216.2</ele>
        <time>2026-05-13T05:09:48Z</time>
      </trkpt>
      <trkpt lat="46.42469" lon="6.06587">
        <ele>1217.2</ele>
        <time>2026-05-13T05:09:55Z</time>
      </trkpt>
      <trkpt lat="46.42477" lon="6.06594">
        <ele>1217.8</ele>
        <time>2026-05-13T05:09:58Z</time>
      </trkpt>
      <trkpt lat="46.42486" lon="6.06606">
        <ele>1218.2</ele>
        <time>2026-05-13T05:10:02Z</time>
      </trkpt>
      <trkpt lat="46.425" lon="6.06624">
        <ele>1219.4</ele>
        <time>2026-05-13T05:10:08Z</time>
      </trkpt>
      <trkpt lat="46.42502" lon="6.06627">
        <ele>1219.6</ele>
        <time>2026-05-13T05:10:09Z</time>
      </trkpt>
      <trkpt lat="46.42514" lon="6.06639">
        <ele>1220.2</ele>
        <time>2026-05-13T05:10:14Z</time>
      </trkpt>
      <trkpt lat="46.42521" lon="6.06647">
        <ele>1220.8</ele>
        <time>2026-05-13T05:10:17Z</time>
      </trkpt>
      <trkpt lat="46.4253" lon="6.06657">
        <ele>1221.4</ele>
        <time>2026-05-13T05:10:21Z</time>
      </trkpt>
      <trkpt lat="46.4254" lon="6.06667">
        <ele>1222</ele>
        <time>2026-05-13T05:10:25Z</time>
      </trkpt>
      <trkpt lat="46.4255" lon="6.06679">
        <ele>1222.6</ele>
        <time>2026-05-13T05:10:29Z</time>
      </trkpt>
      <trkpt lat="46.42556" lon="6.06688">
        <ele>1223</ele>
        <time>2026-05-13T05:10:32Z</time>
      </trkpt>
      <trkpt lat="46.42563" lon="6.06697">
        <ele>1223.6</ele>
        <time>2026-05-13T05:10:35Z</time>
      </trkpt>
      <trkpt lat="46.42576" lon="6.06715">
        <ele>1224.4</ele>
        <time>2026-05-13T05:10:41Z</time>
      </trkpt>
      <trkpt lat="46.42583" lon="6.06725">
        <ele>1225</ele>
        <time>2026-05-13T05:10:44Z</time>
      </trkpt>
      <trkpt lat="46.42589" lon="6.06733">
        <ele>1225.6</ele>
        <time>2026-05-13T05:10:47Z</time>
      </trkpt>
      <trkpt lat="46.42606" lon="6.06754">
        <ele>1226.6</ele>
        <time>2026-05-13T05:10:54Z</time>
      </trkpt>
      <trkpt lat="46.42608" lon="6.06757">
        <ele>1226.8</ele>
        <time>2026-05-13T05:10:55Z</time>
      </trkpt>
      <trkpt lat="46.42621" lon="6.06774">
        <ele>1227.6</ele>
        <time>2026-05-13T05:11:01Z</time>
      </trkpt>
      <trkpt lat="46.42626" lon="6.0678">
        <ele>1228</ele>
        <time>2026-05-13T05:11:03Z</time>
      </trkpt>
      <trkpt lat="46.42634" lon="6.06792">
        <ele>1228.6</ele>
        <time>2026-05-13T05:11:07Z</time>
      </trkpt>
      <trkpt lat="46.42643" lon="6.06802">
        <ele>1229.2</ele>
        <time>2026-05-13T05:11:11Z</time>
      </trkpt>
      <trkpt lat="46.42649" lon="6.06811">
        <ele>1229.6</ele>
        <time>2026-05-13T05:11:14Z</time>
      </trkpt>
      <trkpt lat="46.42663" lon="6.06829">
        <ele>1230.8</ele>
        <time>2026-05-13T05:11:20Z</time>
      </trkpt>
      <trkpt lat="46.42676" lon="6.06846">
        <ele>1231.6</ele>
        <time>2026-05-13T05:11:26Z</time>
      </trkpt>
      <trkpt lat="46.4268" lon="6.06852">
        <ele>1232</ele>
        <time>2026-05-13T05:11:28Z</time>
      </trkpt>
      <trkpt lat="46.42691" lon="6.06868">
        <ele>1232.8</ele>
        <time>2026-05-13T05:11:33Z</time>
      </trkpt>
      <trkpt lat="46.42698" lon="6.06878">
        <ele>1233.2</ele>
        <time>2026-05-13T05:11:36Z</time>
      </trkpt>
      <trkpt lat="46.42707" lon="6.06892">
        <ele>1233.8</ele>
        <time>2026-05-13T05:11:40Z</time>
      </trkpt>
      <trkpt lat="46.42718" lon="6.06909">
        <ele>1234.6</ele>
        <time>2026-05-13T05:11:45Z</time>
      </trkpt>
      <trkpt lat="46.4272" lon="6.06912">
        <ele>1234.8</ele>
        <time>2026-05-13T05:11:46Z</time>
      </trkpt>
      <trkpt lat="46.42734" lon="6.06931">
        <ele>1235.8</ele>
        <time>2026-05-13T05:11:52Z</time>
      </trkpt>
      <trkpt lat="46.4274" lon="6.0694">
        <ele>1236.4</ele>
        <time>2026-05-13T05:11:55Z</time>
      </trkpt>
      <trkpt lat="46.42745" lon="6.06946">
        <ele>1236.8</ele>
        <time>2026-05-13T05:11:57Z</time>
      </trkpt>
      <trkpt lat="46.42761" lon="6.0697">
        <ele>1238</ele>
        <time>2026-05-13T05:12:04Z</time>
      </trkpt>
      <trkpt lat="46.42762" lon="6.06974">
        <ele>1238.2</ele>
        <time>2026-05-13T05:12:05Z</time>
      </trkpt>
      <trkpt lat="46.42768" lon="6.07004">
        <ele>1239.2</ele>
        <time>2026-05-13T05:12:12Z</time>
      </trkpt>
      <trkpt lat="46.42771" lon="6.07027">
        <ele>1240</ele>
        <time>2026-05-13T05:12:17Z</time>
      </trkpt>
      <trkpt lat="46.42774" lon="6.07035">
        <ele>1240.2</ele>
        <time>2026-05-13T05:12:19Z</time>
      </trkpt>
      <trkpt lat="46.42785" lon="6.07057">
        <ele>1241</ele>
        <time>2026-05-13T05:12:25Z</time>
      </trkpt>
      <trkpt lat="46.42787" lon="6.0706">
        <ele>1241.4</ele>
        <time>2026-05-13T05:12:26Z</time>
      </trkpt>
      <trkpt lat="46.42799" lon="6.0708">
        <ele>1242.4</ele>
        <time>2026-05-13T05:12:32Z</time>
      </trkpt>
      <trkpt lat="46.428" lon="6.07084">
        <ele>1242.6</ele>
        <time>2026-05-13T05:12:33Z</time>
      </trkpt>
      <trkpt lat="46.42808" lon="6.07099">
        <ele>1243.6</ele>
        <time>2026-05-13T05:12:38Z</time>
      </trkpt>
      <trkpt lat="46.4281" lon="6.07103">
        <ele>1243.8</ele>
        <time>2026-05-13T05:12:39Z</time>
      </trkpt>
      <trkpt lat="46.42817" lon="6.07116">
        <ele>1244.6</ele>
        <time>2026-05-13T05:12:43Z</time>
      </trkpt>
      <trkpt lat="46.42822" lon="6.07123">
        <ele>1245</ele>
        <time>2026-05-13T05:12:45Z</time>
      </trkpt>
      <trkpt lat="46.42832" lon="6.07139">
        <ele>1245.8</ele>
        <time>2026-05-13T05:12:50Z</time>
      </trkpt>
      <trkpt lat="46.42851" lon="6.07158">
        <ele>1247</ele>
        <time>2026-05-13T05:12:57Z</time>
      </trkpt>
      <trkpt lat="46.42856" lon="6.07163">
        <ele>1247</ele>
        <time>2026-05-13T05:12:59Z</time>
      </trkpt>
      <trkpt lat="46.42867" lon="6.07174">
        <ele>1248</ele>
        <time>2026-05-13T05:13:03Z</time>
      </trkpt>
      <trkpt lat="46.42871" lon="6.07179">
        <ele>1248.2</ele>
        <time>2026-05-13T05:13:05Z</time>
      </trkpt>
      <trkpt lat="46.42881" lon="6.07197">
        <ele>1249</ele>
        <time>2026-05-13T05:13:11Z</time>
      </trkpt>
      <trkpt lat="46.42883" lon="6.072">
        <ele>1249.2</ele>
        <time>2026-05-13T05:13:12Z</time>
      </trkpt>
      <trkpt lat="46.4289" lon="6.07212">
        <ele>1250.2</ele>
        <time>2026-05-13T05:13:16Z</time>
      </trkpt>
      <trkpt lat="46.42904" lon="6.0723">
        <ele>1251</ele>
        <time>2026-05-13T05:13:22Z</time>
      </trkpt>
      <trkpt lat="46.42909" lon="6.07237">
        <ele>1251.2</ele>
        <time>2026-05-13T05:13:24Z</time>
      </trkpt>
      <trkpt lat="46.42922" lon="6.07247">
        <ele>1252</ele>
        <time>2026-05-13T05:13:29Z</time>
      </trkpt>
      <trkpt lat="46.42926" lon="6.07251">
        <ele>1252.4</ele>
        <time>2026-05-13T05:13:31Z</time>
      </trkpt>
      <trkpt lat="46.42934" lon="6.07257">
        <ele>1252.8</ele>
        <time>2026-05-13T05:13:34Z</time>
      </trkpt>
      <trkpt lat="46.42948" lon="6.07262">
        <ele>1253.4</ele>
        <time>2026-05-13T05:13:39Z</time>
      </trkpt>
      <trkpt lat="46.42961" lon="6.07265">
        <ele>1253.8</ele>
        <time>2026-05-13T05:13:43Z</time>
      </trkpt>
      <trkpt lat="46.42967" lon="6.07265">
        <ele>1254.6</ele>
        <time>2026-05-13T05:13:45Z</time>
      </trkpt>
      <trkpt lat="46.42986" lon="6.07263">
        <ele>1255.4</ele>
        <time>2026-05-13T05:13:51Z</time>
      </trkpt>
      <trkpt lat="46.4299" lon="6.07263">
        <ele>1255.6</ele>
        <time>2026-05-13T05:13:52Z</time>
      </trkpt>
      <trkpt lat="46.4301" lon="6.07268">
        <ele>1256.2</ele>
        <time>2026-05-13T05:13:58Z</time>
      </trkpt>
      <trkpt lat="46.43023" lon="6.0727">
        <ele>1256.4</ele>
        <time>2026-05-13T05:14:03Z</time>
      </trkpt>
      <trkpt lat="46.4303" lon="6.07265">
        <ele>1256.8</ele>
        <time>2026-05-13T05:14:07Z</time>
      </trkpt>
      <trkpt lat="46.43031" lon="6.07264">
        <ele>1256.8</ele>
        <time>2026-05-13T05:14:08Z</time>
      </trkpt>
      <trkpt lat="46.43032" lon="6.07263">
        <ele>1257</ele>
        <time>2026-05-13T05:14:11Z</time>
      </trkpt>
      <trkpt lat="46.43036" lon="6.07262">
        <ele>1256.6</ele>
        <time>2026-05-13T05:29:27Z</time>
      </trkpt>
      <trkpt lat="46.43042" lon="6.07269">
        <ele>1256.6</ele>
        <time>2026-05-13T05:29:31Z</time>
      </trkpt>
      <trkpt lat="46.43056" lon="6.07273">
        <ele>1256.6</ele>
        <time>2026-05-13T05:29:36Z</time>
      </trkpt>
      <trkpt lat="46.43079" lon="6.0728">
        <ele>1256.4</ele>
        <time>2026-05-13T05:29:42Z</time>
      </trkpt>
      <trkpt lat="46.43106" lon="6.07287">
        <ele>1256.4</ele>
        <time>2026-05-13T05:29:49Z</time>
      </trkpt>
      <trkpt lat="46.43145" lon="6.07298">
        <ele>1257</ele>
        <time>2026-05-13T05:29:58Z</time>
      </trkpt>
      <trkpt lat="46.43184" lon="6.07309">
        <ele>1257</ele>
        <time>2026-05-13T05:30:06Z</time>
      </trkpt>
      <trkpt lat="46.43194" lon="6.07314">
        <ele>1257</ele>
        <time>2026-05-13T05:30:08Z</time>
      </trkpt>
      <trkpt lat="46.43208" lon="6.07325">
        <ele>1257</ele>
        <time>2026-05-13T05:30:11Z</time>
      </trkpt>
      <trkpt lat="46.43213" lon="6.07329">
        <ele>1256.8</ele>
        <time>2026-05-13T05:30:12Z</time>
      </trkpt>
      <trkpt lat="46.43229" lon="6.07353">
        <ele>1256.8</ele>
        <time>2026-05-13T05:30:16Z</time>
      </trkpt>
      <trkpt lat="46.43268" lon="6.07406">
        <ele>1256.6</ele>
        <time>2026-05-13T05:30:25Z</time>
      </trkpt>
      <trkpt lat="46.43294" lon="6.07428">
        <ele>1256.4</ele>
        <time>2026-05-13T05:30:30Z</time>
      </trkpt>
      <trkpt lat="46.433" lon="6.07431">
        <ele>1256.4</ele>
        <time>2026-05-13T05:30:31Z</time>
      </trkpt>
      <trkpt lat="46.43341" lon="6.07442">
        <ele>1256</ele>
        <time>2026-05-13T05:30:38Z</time>
      </trkpt>
      <trkpt lat="46.43364" lon="6.07449">
        <ele>1255.8</ele>
        <time>2026-05-13T05:30:42Z</time>
      </trkpt>
      <trkpt lat="46.43374" lon="6.07456">
        <ele>1255.8</ele>
        <time>2026-05-13T05:30:44Z</time>
      </trkpt>
      <trkpt lat="46.43384" lon="6.07467">
        <ele>1255.8</ele>
        <time>2026-05-13T05:30:46Z</time>
      </trkpt>
      <trkpt lat="46.43392" lon="6.07479">
        <ele>1255.8</ele>
        <time>2026-05-13T05:30:48Z</time>
      </trkpt>
      <trkpt lat="46.43395" lon="6.07486">
        <ele>1255.8</ele>
        <time>2026-05-13T05:30:49Z</time>
      </trkpt>
      <trkpt lat="46.43422" lon="6.07539">
        <ele>1256.6</ele>
        <time>2026-05-13T05:30:57Z</time>
      </trkpt>
      <trkpt lat="46.4346" lon="6.07603">
        <ele>1256.2</ele>
        <time>2026-05-13T05:31:07Z</time>
      </trkpt>
      <trkpt lat="46.43468" lon="6.07616">
        <ele>1256.2</ele>
        <time>2026-05-13T05:31:09Z</time>
      </trkpt>
      <trkpt lat="46.43499" lon="6.07656">
        <ele>1256.2</ele>
        <time>2026-05-13T05:31:16Z</time>
      </trkpt>
      <trkpt lat="46.43545" lon="6.07702">
        <ele>1256</ele>
        <time>2026-05-13T05:31:25Z</time>
      </trkpt>
      <trkpt lat="46.4355" lon="6.07707">
        <ele>1256</ele>
        <time>2026-05-13T05:31:26Z</time>
      </trkpt>
      <trkpt lat="46.43593" lon="6.07759">
        <ele>1255.8</ele>
        <time>2026-05-13T05:31:35Z</time>
      </trkpt>
      <trkpt lat="46.43622" lon="6.07806">
        <ele>1256</ele>
        <time>2026-05-13T05:31:42Z</time>
      </trkpt>
      <trkpt lat="46.4363" lon="6.07819">
        <ele>1256</ele>
        <time>2026-05-13T05:31:44Z</time>
      </trkpt>
      <trkpt lat="46.4364" lon="6.0783">
        <ele>1256</ele>
        <time>2026-05-13T05:31:46Z</time>
      </trkpt>
      <trkpt lat="46.43646" lon="6.07834">
        <ele>1256</ele>
        <time>2026-05-13T05:31:47Z</time>
      </trkpt>
      <trkpt lat="46.43684" lon="6.07847">
        <ele>1256</ele>
        <time>2026-05-13T05:31:53Z</time>
      </trkpt>
      <trkpt lat="46.4374" lon="6.07874">
        <ele>1255.8</ele>
        <time>2026-05-13T05:32:02Z</time>
      </trkpt>
      <trkpt lat="46.43794" lon="6.07901">
        <ele>1255.8</ele>
        <time>2026-05-13T05:32:11Z</time>
      </trkpt>
      <trkpt lat="46.438" lon="6.07905">
        <ele>1255.8</ele>
        <time>2026-05-13T05:32:12Z</time>
      </trkpt>
      <trkpt lat="46.4385" lon="6.07943">
        <ele>1255.6</ele>
        <time>2026-05-13T05:32:21Z</time>
      </trkpt>
      <trkpt lat="46.43883" lon="6.07988">
        <ele>1255.6</ele>
        <time>2026-05-13T05:32:28Z</time>
      </trkpt>
      <trkpt lat="46.43918" lon="6.08039">
        <ele>1255.8</ele>
        <time>2026-05-13T05:32:36Z</time>
      </trkpt>
      <trkpt lat="46.43961" lon="6.08079">
        <ele>1256</ele>
        <time>2026-05-13T05:32:44Z</time>
      </trkpt>
      <trkpt lat="46.43977" lon="6.08094">
        <ele>1255.8</ele>
        <time>2026-05-13T05:32:47Z</time>
      </trkpt>
      <trkpt lat="46.44014" lon="6.08132">
        <ele>1255.4</ele>
        <time>2026-05-13T05:32:54Z</time>
      </trkpt>
      <trkpt lat="46.44037" lon="6.08173">
        <ele>1255.2</ele>
        <time>2026-05-13T05:33:00Z</time>
      </trkpt>
      <trkpt lat="46.44069" lon="6.08238">
        <ele>1255.4</ele>
        <time>2026-05-13T05:33:09Z</time>
      </trkpt>
      <trkpt lat="46.44072" lon="6.08243">
        <ele>1255.4</ele>
        <time>2026-05-13T05:33:10Z</time>
      </trkpt>
      <trkpt lat="46.44111" lon="6.08302">
        <ele>1256</ele>
        <time>2026-05-13T05:33:19Z</time>
      </trkpt>
      <trkpt lat="46.4415" lon="6.08358">
        <ele>1255.6</ele>
        <time>2026-05-13T05:33:27Z</time>
      </trkpt>
      <trkpt lat="46.4418" lon="6.08388">
        <ele>1254.8</ele>
        <time>2026-05-13T05:33:32Z</time>
      </trkpt>
      <trkpt lat="46.44194" lon="6.08402">
        <ele>1254.4</ele>
        <time>2026-05-13T05:33:34Z</time>
      </trkpt>
      <trkpt lat="46.44219" lon="6.08433">
        <ele>1253.6</ele>
        <time>2026-05-13T05:33:38Z</time>
      </trkpt>
      <trkpt lat="46.44229" lon="6.08448">
        <ele>1253</ele>
        <time>2026-05-13T05:33:40Z</time>
      </trkpt>
      <trkpt lat="46.44241" lon="6.08465">
        <ele>1252.6</ele>
        <time>2026-05-13T05:33:42Z</time>
      </trkpt>
      <trkpt lat="46.44273" lon="6.08502">
        <ele>1251.6</ele>
        <time>2026-05-13T05:33:47Z</time>
      </trkpt>
      <trkpt lat="46.44281" lon="6.08509">
        <ele>1251.6</ele>
        <time>2026-05-13T05:33:48Z</time>
      </trkpt>
      <trkpt lat="46.44297" lon="6.08516">
        <ele>1251.2</ele>
        <time>2026-05-13T05:33:50Z</time>
      </trkpt>
      <trkpt lat="46.44314" lon="6.08516">
        <ele>1250.8</ele>
        <time>2026-05-13T05:33:52Z</time>
      </trkpt>
      <trkpt lat="46.44322" lon="6.08514">
        <ele>1250.6</ele>
        <time>2026-05-13T05:33:53Z</time>
      </trkpt>
      <trkpt lat="46.4433" lon="6.0851">
        <ele>1250.4</ele>
        <time>2026-05-13T05:33:54Z</time>
      </trkpt>
      <trkpt lat="46.44351" lon="6.08493">
        <ele>1250</ele>
        <time>2026-05-13T05:33:57Z</time>
      </trkpt>
      <trkpt lat="46.4437" lon="6.0847">
        <ele>1249.4</ele>
        <time>2026-05-13T05:34:00Z</time>
      </trkpt>
      <trkpt lat="46.44384" lon="6.08449">
        <ele>1248.8</ele>
        <time>2026-05-13T05:34:02Z</time>
      </trkpt>
      <trkpt lat="46.44396" lon="6.08429">
        <ele>1248.2</ele>
        <time>2026-05-13T05:34:04Z</time>
      </trkpt>
      <trkpt lat="46.44406" lon="6.08408">
        <ele>1247.4</ele>
        <time>2026-05-13T05:34:06Z</time>
      </trkpt>
      <trkpt lat="46.4441" lon="6.08396">
        <ele>1247</ele>
        <time>2026-05-13T05:34:07Z</time>
      </trkpt>
      <trkpt lat="46.44412" lon="6.08384">
        <ele>1246.6</ele>
        <time>2026-05-13T05:34:08Z</time>
      </trkpt>
      <trkpt lat="46.44415" lon="6.08361">
        <ele>1245.8</ele>
        <time>2026-05-13T05:34:10Z</time>
      </trkpt>
      <trkpt lat="46.44416" lon="6.08348">
        <ele>1245.4</ele>
        <time>2026-05-13T05:34:11Z</time>
      </trkpt>
      <trkpt lat="46.44417" lon="6.08334">
        <ele>1244.6</ele>
        <time>2026-05-13T05:34:12Z</time>
      </trkpt>
      <trkpt lat="46.44419" lon="6.08304">
        <ele>1243.8</ele>
        <time>2026-05-13T05:34:14Z</time>
      </trkpt>
      <trkpt lat="46.4442" lon="6.08294">
        <ele>1242.8</ele>
        <time>2026-05-13T05:34:15Z</time>
      </trkpt>
      <trkpt lat="46.44423" lon="6.0828">
        <ele>1242.6</ele>
        <time>2026-05-13T05:34:16Z</time>
      </trkpt>
      <trkpt lat="46.44431" lon="6.08255">
        <ele>1241</ele>
        <time>2026-05-13T05:34:18Z</time>
      </trkpt>
      <trkpt lat="46.4444" lon="6.0823">
        <ele>1240</ele>
        <time>2026-05-13T05:34:20Z</time>
      </trkpt>
      <trkpt lat="46.44445" lon="6.08218">
        <ele>1239.8</ele>
        <time>2026-05-13T05:34:21Z</time>
      </trkpt>
      <trkpt lat="46.44449" lon="6.08205">
        <ele>1239</ele>
        <time>2026-05-13T05:34:22Z</time>
      </trkpt>
      <trkpt lat="46.44463" lon="6.08168">
        <ele>1237.4</ele>
        <time>2026-05-13T05:34:25Z</time>
      </trkpt>
      <trkpt lat="46.44479" lon="6.08128">
        <ele>1235.6</ele>
        <time>2026-05-13T05:34:28Z</time>
      </trkpt>
      <trkpt lat="46.44489" lon="6.08106">
        <ele>1234.4</ele>
        <time>2026-05-13T05:34:30Z</time>
      </trkpt>
      <trkpt lat="46.44504" lon="6.08085">
        <ele>1233.2</ele>
        <time>2026-05-13T05:34:32Z</time>
      </trkpt>
      <trkpt lat="46.44522" lon="6.08066">
        <ele>1232.4</ele>
        <time>2026-05-13T05:34:34Z</time>
      </trkpt>
      <trkpt lat="46.4453" lon="6.08058">
        <ele>1231.6</ele>
        <time>2026-05-13T05:34:35Z</time>
      </trkpt>
      <trkpt lat="46.44545" lon="6.08044">
        <ele>1230.6</ele>
        <time>2026-05-13T05:34:37Z</time>
      </trkpt>
      <trkpt lat="46.44573" lon="6.08022">
        <ele>1229</ele>
        <time>2026-05-13T05:34:40Z</time>
      </trkpt>
      <trkpt lat="46.4459" lon="6.08012">
        <ele>1228</ele>
        <time>2026-05-13T05:34:42Z</time>
      </trkpt>
      <trkpt lat="46.44612" lon="6.08008">
        <ele>1226.8</ele>
        <time>2026-05-13T05:34:44Z</time>
      </trkpt>
      <trkpt lat="46.44623" lon="6.08009">
        <ele>1226.2</ele>
        <time>2026-05-13T05:34:45Z</time>
      </trkpt>
      <trkpt lat="46.44631" lon="6.08011">
        <ele>1225.4</ele>
        <time>2026-05-13T05:34:46Z</time>
      </trkpt>
      <trkpt lat="46.44651" lon="6.08025">
        <ele>1224.4</ele>
        <time>2026-05-13T05:34:48Z</time>
      </trkpt>
      <trkpt lat="46.44659" lon="6.08033">
        <ele>1224.2</ele>
        <time>2026-05-13T05:34:49Z</time>
      </trkpt>
      <trkpt lat="46.44676" lon="6.08045">
        <ele>1222.8</ele>
        <time>2026-05-13T05:34:51Z</time>
      </trkpt>
      <trkpt lat="46.44693" lon="6.0805">
        <ele>1222</ele>
        <time>2026-05-13T05:34:53Z</time>
      </trkpt>
      <trkpt lat="46.44709" lon="6.08046">
        <ele>1221.6</ele>
        <time>2026-05-13T05:34:55Z</time>
      </trkpt>
      <trkpt lat="46.44715" lon="6.08043">
        <ele>1221.4</ele>
        <time>2026-05-13T05:34:56Z</time>
      </trkpt>
      <trkpt lat="46.44722" lon="6.08038">
        <ele>1221.2</ele>
        <time>2026-05-13T05:34:57Z</time>
      </trkpt>
      <trkpt lat="46.44743" lon="6.08019">
        <ele>1221</ele>
        <time>2026-05-13T05:35:00Z</time>
      </trkpt>
      <trkpt lat="46.44767" lon="6.07992">
        <ele>1220.4</ele>
        <time>2026-05-13T05:35:04Z</time>
      </trkpt>
      <trkpt lat="46.44785" lon="6.07972">
        <ele>1220</ele>
        <time>2026-05-13T05:35:07Z</time>
      </trkpt>
      <trkpt lat="46.44811" lon="6.07943">
        <ele>1219.4</ele>
        <time>2026-05-13T05:35:11Z</time>
      </trkpt>
      <trkpt lat="46.44838" lon="6.07907">
        <ele>1219.2</ele>
        <time>2026-05-13T05:35:16Z</time>
      </trkpt>
      <trkpt lat="46.44857" lon="6.07863">
        <ele>1218.8</ele>
        <time>2026-05-13T05:35:21Z</time>
      </trkpt>
      <trkpt lat="46.44864" lon="6.07824">
        <ele>1218.6</ele>
        <time>2026-05-13T05:35:25Z</time>
      </trkpt>
      <trkpt lat="46.44864" lon="6.07814">
        <ele>1218.4</ele>
        <time>2026-05-13T05:35:26Z</time>
      </trkpt>
      <trkpt lat="46.44867" lon="6.07754">
        <ele>1218</ele>
        <time>2026-05-13T05:35:32Z</time>
      </trkpt>
      <trkpt lat="46.44869" lon="6.07744">
        <ele>1218</ele>
        <time>2026-05-13T05:35:33Z</time>
      </trkpt>
      <trkpt lat="46.44889" lon="6.07671">
        <ele>1217.6</ele>
        <time>2026-05-13T05:35:41Z</time>
      </trkpt>
      <trkpt lat="46.44891" lon="6.07662">
        <ele>1217.6</ele>
        <time>2026-05-13T05:35:42Z</time>
      </trkpt>
      <trkpt lat="46.44896" lon="6.07643">
        <ele>1217.4</ele>
        <time>2026-05-13T05:35:44Z</time>
      </trkpt>
      <trkpt lat="46.44915" lon="6.07579">
        <ele>1216.4</ele>
        <time>2026-05-13T05:35:51Z</time>
      </trkpt>
      <trkpt lat="46.44921" lon="6.07561">
        <ele>1216.2</ele>
        <time>2026-05-13T05:35:53Z</time>
      </trkpt>
      <trkpt lat="46.44941" lon="6.07516">
        <ele>1215.6</ele>
        <time>2026-05-13T05:35:58Z</time>
      </trkpt>
      <trkpt lat="46.44956" lon="6.0749">
        <ele>1215.2</ele>
        <time>2026-05-13T05:36:01Z</time>
      </trkpt>
      <trkpt lat="46.44972" lon="6.07467">
        <ele>1214.6</ele>
        <time>2026-05-13T05:36:04Z</time>
      </trkpt>
      <trkpt lat="46.44985" lon="6.07453">
        <ele>1214.4</ele>
        <time>2026-05-13T05:36:06Z</time>
      </trkpt>
      <trkpt lat="46.4501" lon="6.07425">
        <ele>1213.8</ele>
        <time>2026-05-13T05:36:10Z</time>
      </trkpt>
      <trkpt lat="46.45021" lon="6.07408">
        <ele>1213.4</ele>
        <time>2026-05-13T05:36:12Z</time>
      </trkpt>
      <trkpt lat="46.45036" lon="6.0738">
        <ele>1212.6</ele>
        <time>2026-05-13T05:36:15Z</time>
      </trkpt>
      <trkpt lat="46.45045" lon="6.07363">
        <ele>1212</ele>
        <time>2026-05-13T05:36:17Z</time>
      </trkpt>
      <trkpt lat="46.45071" lon="6.07314">
        <ele>1211</ele>
        <time>2026-05-13T05:36:22Z</time>
      </trkpt>
      <trkpt lat="46.45089" lon="6.07282">
        <ele>1209.6</ele>
        <time>2026-05-13T05:36:25Z</time>
      </trkpt>
      <trkpt lat="46.45112" lon="6.07241">
        <ele>1208.4</ele>
        <time>2026-05-13T05:36:29Z</time>
      </trkpt>
      <trkpt lat="46.4513" lon="6.07209">
        <ele>1207</ele>
        <time>2026-05-13T05:36:32Z</time>
      </trkpt>
      <trkpt lat="46.45141" lon="6.07188">
        <ele>1205.8</ele>
        <time>2026-05-13T05:36:34Z</time>
      </trkpt>
      <trkpt lat="46.45153" lon="6.07167">
        <ele>1204.8</ele>
        <time>2026-05-13T05:36:36Z</time>
      </trkpt>
      <trkpt lat="46.45174" lon="6.0714">
        <ele>1203.6</ele>
        <time>2026-05-13T05:36:39Z</time>
      </trkpt>
      <trkpt lat="46.45194" lon="6.07116">
        <ele>1202.4</ele>
        <time>2026-05-13T05:36:42Z</time>
      </trkpt>
      <trkpt lat="46.45219" lon="6.07088">
        <ele>1200.8</ele>
        <time>2026-05-13T05:36:45Z</time>
      </trkpt>
      <trkpt lat="46.45225" lon="6.07082">
        <ele>1200.4</ele>
        <time>2026-05-13T05:36:46Z</time>
      </trkpt>
      <trkpt lat="46.45236" lon="6.07076">
        <ele>1199.8</ele>
        <time>2026-05-13T05:36:47Z</time>
      </trkpt>
      <trkpt lat="46.45255" lon="6.0707">
        <ele>1198.6</ele>
        <time>2026-05-13T05:36:49Z</time>
      </trkpt>
      <trkpt lat="46.45265" lon="6.07068">
        <ele>1198</ele>
        <time>2026-05-13T05:36:50Z</time>
      </trkpt>
      <trkpt lat="46.45285" lon="6.07067">
        <ele>1197.2</ele>
        <time>2026-05-13T05:36:52Z</time>
      </trkpt>
      <trkpt lat="46.45305" lon="6.0707">
        <ele>1196.2</ele>
        <time>2026-05-13T05:36:54Z</time>
      </trkpt>
      <trkpt lat="46.45315" lon="6.07074">
        <ele>1195.8</ele>
        <time>2026-05-13T05:36:55Z</time>
      </trkpt>
      <trkpt lat="46.45343" lon="6.07087">
        <ele>1194.2</ele>
        <time>2026-05-13T05:36:58Z</time>
      </trkpt>
      <trkpt lat="46.45369" lon="6.07101">
        <ele>1193.2</ele>
        <time>2026-05-13T05:37:01Z</time>
      </trkpt>
      <trkpt lat="46.45388" lon="6.07111">
        <ele>1191.8</ele>
        <time>2026-05-13T05:37:03Z</time>
      </trkpt>
      <trkpt lat="46.45409" lon="6.07121">
        <ele>1190.6</ele>
        <time>2026-05-13T05:37:05Z</time>
      </trkpt>
      <trkpt lat="46.45428" lon="6.07132">
        <ele>1189.4</ele>
        <time>2026-05-13T05:37:07Z</time>
      </trkpt>
      <trkpt lat="46.45447" lon="6.07142">
        <ele>1188.4</ele>
        <time>2026-05-13T05:37:09Z</time>
      </trkpt>
      <trkpt lat="46.45474" lon="6.07155">
        <ele>1187</ele>
        <time>2026-05-13T05:37:12Z</time>
      </trkpt>
      <trkpt lat="46.45494" lon="6.07168">
        <ele>1186</ele>
        <time>2026-05-13T05:37:14Z</time>
      </trkpt>
      <trkpt lat="46.45503" lon="6.07176">
        <ele>1185.2</ele>
        <time>2026-05-13T05:37:15Z</time>
      </trkpt>
      <trkpt lat="46.4551" lon="6.07186">
        <ele>1184.4</ele>
        <time>2026-05-13T05:37:16Z</time>
      </trkpt>
      <trkpt lat="46.45515" lon="6.07195">
        <ele>1184.2</ele>
        <time>2026-05-13T05:37:17Z</time>
      </trkpt>
      <trkpt lat="46.45535" lon="6.07229">
        <ele>1182.8</ele>
        <time>2026-05-13T05:37:20Z</time>
      </trkpt>
      <trkpt lat="46.45542" lon="6.07239">
        <ele>1182.4</ele>
        <time>2026-05-13T05:37:21Z</time>
      </trkpt>
      <trkpt lat="46.45551" lon="6.07248">
        <ele>1182</ele>
        <time>2026-05-13T05:37:22Z</time>
      </trkpt>
      <trkpt lat="46.45559" lon="6.07257">
        <ele>1181.4</ele>
        <time>2026-05-13T05:37:23Z</time>
      </trkpt>
      <trkpt lat="46.45577" lon="6.07276">
        <ele>1180.2</ele>
        <time>2026-05-13T05:37:25Z</time>
      </trkpt>
      <trkpt lat="46.45585" lon="6.07287">
        <ele>1179.6</ele>
        <time>2026-05-13T05:37:26Z</time>
      </trkpt>
      <trkpt lat="46.45592" lon="6.07298">
        <ele>1179.2</ele>
        <time>2026-05-13T05:37:27Z</time>
      </trkpt>
      <trkpt lat="46.45599" lon="6.0731">
        <ele>1178.6</ele>
        <time>2026-05-13T05:37:28Z</time>
      </trkpt>
      <trkpt lat="46.45622" lon="6.07339">
        <ele>1177.2</ele>
        <time>2026-05-13T05:37:31Z</time>
      </trkpt>
      <trkpt lat="46.45631" lon="6.07347">
        <ele>1176.8</ele>
        <time>2026-05-13T05:37:32Z</time>
      </trkpt>
      <trkpt lat="46.4564" lon="6.07354">
        <ele>1176.2</ele>
        <time>2026-05-13T05:37:33Z</time>
      </trkpt>
      <trkpt lat="46.45658" lon="6.07369">
        <ele>1175.2</ele>
        <time>2026-05-13T05:37:35Z</time>
      </trkpt>
      <trkpt lat="46.45666" lon="6.07378">
        <ele>1174.4</ele>
        <time>2026-05-13T05:37:36Z</time>
      </trkpt>
      <trkpt lat="46.45674" lon="6.07388">
        <ele>1174.2</ele>
        <time>2026-05-13T05:37:37Z</time>
      </trkpt>
      <trkpt lat="46.45681" lon="6.074">
        <ele>1173.4</ele>
        <time>2026-05-13T05:37:38Z</time>
      </trkpt>
      <trkpt lat="46.45694" lon="6.07423">
        <ele>1172.8</ele>
        <time>2026-05-13T05:37:40Z</time>
      </trkpt>
      <trkpt lat="46.45701" lon="6.07435">
        <ele>1172.2</ele>
        <time>2026-05-13T05:37:41Z</time>
      </trkpt>
      <trkpt lat="46.45719" lon="6.07469">
        <ele>1170.4</ele>
        <time>2026-05-13T05:37:44Z</time>
      </trkpt>
      <trkpt lat="46.45738" lon="6.07502">
        <ele>1169.6</ele>
        <time>2026-05-13T05:37:47Z</time>
      </trkpt>
      <trkpt lat="46.45744" lon="6.07512">
        <ele>1169</ele>
        <time>2026-05-13T05:37:48Z</time>
      </trkpt>
      <trkpt lat="46.45757" lon="6.07527">
        <ele>1168.6</ele>
        <time>2026-05-13T05:37:50Z</time>
      </trkpt>
      <trkpt lat="46.45766" lon="6.07534">
        <ele>1168.2</ele>
        <time>2026-05-13T05:37:51Z</time>
      </trkpt>
      <trkpt lat="46.45772" lon="6.07537">
        <ele>1168</ele>
        <time>2026-05-13T05:37:52Z</time>
      </trkpt>
      <trkpt lat="46.4579" lon="6.0754">
        <ele>1167.2</ele>
        <time>2026-05-13T05:37:54Z</time>
      </trkpt>
      <trkpt lat="46.45804" lon="6.07537">
        <ele>1167</ele>
        <time>2026-05-13T05:37:56Z</time>
      </trkpt>
      <trkpt lat="46.45811" lon="6.07533">
        <ele>1166.8</ele>
        <time>2026-05-13T05:37:57Z</time>
      </trkpt>
      <trkpt lat="46.45818" lon="6.07527">
        <ele>1166.6</ele>
        <time>2026-05-13T05:37:58Z</time>
      </trkpt>
      <trkpt lat="46.45831" lon="6.07511">
        <ele>1166.6</ele>
        <time>2026-05-13T05:38:00Z</time>
      </trkpt>
      <trkpt lat="46.4584" lon="6.07492">
        <ele>1166.2</ele>
        <time>2026-05-13T05:38:02Z</time>
      </trkpt>
      <trkpt lat="46.45846" lon="6.0747">
        <ele>1166</ele>
        <time>2026-05-13T05:38:04Z</time>
      </trkpt>
      <trkpt lat="46.4585" lon="6.07447">
        <ele>1165.8</ele>
        <time>2026-05-13T05:38:06Z</time>
      </trkpt>
      <trkpt lat="46.4586" lon="6.07383">
        <ele>1165.2</ele>
        <time>2026-05-13T05:38:12Z</time>
      </trkpt>
      <trkpt lat="46.45874" lon="6.07331">
        <ele>1164.8</ele>
        <time>2026-05-13T05:38:17Z</time>
      </trkpt>
      <trkpt lat="46.45879" lon="6.07321">
        <ele>1164.6</ele>
        <time>2026-05-13T05:38:18Z</time>
      </trkpt>
      <trkpt lat="46.45885" lon="6.07311">
        <ele>1164.6</ele>
        <time>2026-05-13T05:38:19Z</time>
      </trkpt>
      <trkpt lat="46.45902" lon="6.07291">
        <ele>1163.8</ele>
        <time>2026-05-13T05:38:22Z</time>
      </trkpt>
      <trkpt lat="46.4591" lon="6.07284">
        <ele>1163.6</ele>
        <time>2026-05-13T05:38:23Z</time>
      </trkpt>
      <trkpt lat="46.45941" lon="6.07257">
        <ele>1163.2</ele>
        <time>2026-05-13T05:38:28Z</time>
      </trkpt>
      <trkpt lat="46.45961" lon="6.07223">
        <ele>1163</ele>
        <time>2026-05-13T05:38:32Z</time>
      </trkpt>
      <trkpt lat="46.45985" lon="6.07173">
        <ele>1162.8</ele>
        <time>2026-05-13T05:38:38Z</time>
      </trkpt>
      <trkpt lat="46.45991" lon="6.07164">
        <ele>1162.6</ele>
        <time>2026-05-13T05:38:39Z</time>
      </trkpt>
      <trkpt lat="46.45997" lon="6.07157">
        <ele>1162.6</ele>
        <time>2026-05-13T05:38:40Z</time>
      </trkpt>
      <trkpt lat="46.46008" lon="6.07148">
        <ele>1162.4</ele>
        <time>2026-05-13T05:38:42Z</time>
      </trkpt>
      <trkpt lat="46.46015" lon="6.07144">
        <ele>1162.4</ele>
        <time>2026-05-13T05:38:43Z</time>
      </trkpt>
      <trkpt lat="46.46036" lon="6.07137">
        <ele>1162</ele>
        <time>2026-05-13T05:38:46Z</time>
      </trkpt>
      <trkpt lat="46.46086" lon="6.07134">
        <ele>1161.6</ele>
        <time>2026-05-13T05:38:53Z</time>
      </trkpt>
      <trkpt lat="46.46093" lon="6.07134">
        <ele>1161.6</ele>
        <time>2026-05-13T05:38:54Z</time>
      </trkpt>
      <trkpt lat="46.46121" lon="6.07141">
        <ele>1161.2</ele>
        <time>2026-05-13T05:38:58Z</time>
      </trkpt>
      <trkpt lat="46.46128" lon="6.07145">
        <ele>1161.2</ele>
        <time>2026-05-13T05:38:59Z</time>
      </trkpt>
      <trkpt lat="46.46146" lon="6.0716">
        <ele>1161</ele>
        <time>2026-05-13T05:39:02Z</time>
      </trkpt>
      <trkpt lat="46.4618" lon="6.07193">
        <ele>1160.4</ele>
        <time>2026-05-13T05:39:08Z</time>
      </trkpt>
      <trkpt lat="46.46193" lon="6.07205">
        <ele>1160.4</ele>
        <time>2026-05-13T05:39:10Z</time>
      </trkpt>
      <trkpt lat="46.46234" lon="6.0723">
        <ele>1160.2</ele>
        <time>2026-05-13T05:39:17Z</time>
      </trkpt>
      <trkpt lat="46.46272" lon="6.07235">
        <ele>1160</ele>
        <time>2026-05-13T05:39:23Z</time>
      </trkpt>
      <trkpt lat="46.46278" lon="6.07236">
        <ele>1160</ele>
        <time>2026-05-13T05:39:24Z</time>
      </trkpt>
      <trkpt lat="46.46289" lon="6.07242">
        <ele>1160.4</ele>
        <time>2026-05-13T05:39:26Z</time>
      </trkpt>
      <trkpt lat="46.46317" lon="6.07255">
        <ele>1160.6</ele>
        <time>2026-05-13T05:39:31Z</time>
      </trkpt>
      <trkpt lat="46.46327" lon="6.07259">
        <ele>1161</ele>
        <time>2026-05-13T05:39:33Z</time>
      </trkpt>
      <trkpt lat="46.46345" lon="6.07262">
        <ele>1161.2</ele>
        <time>2026-05-13T05:39:36Z</time>
      </trkpt>
      <trkpt lat="46.46363" lon="6.07268">
        <ele>1162</ele>
        <time>2026-05-13T05:39:40Z</time>
      </trkpt>
      <trkpt lat="46.46372" lon="6.0727">
        <ele>1162.4</ele>
        <time>2026-05-13T05:39:42Z</time>
      </trkpt>
      <trkpt lat="46.46409" lon="6.07279">
        <ele>1162.6</ele>
        <time>2026-05-13T05:39:49Z</time>
      </trkpt>
      <trkpt lat="46.46456" lon="6.07279">
        <ele>1161.8</ele>
        <time>2026-05-13T05:39:56Z</time>
      </trkpt>
      <trkpt lat="46.46478" lon="6.07278">
        <ele>1160.8</ele>
        <time>2026-05-13T05:39:59Z</time>
      </trkpt>
      <trkpt lat="46.46491" lon="6.07277">
        <ele>1159.8</ele>
        <time>2026-05-13T05:40:01Z</time>
      </trkpt>
      <trkpt lat="46.46503" lon="6.07276">
        <ele>1158.8</ele>
        <time>2026-05-13T05:40:03Z</time>
      </trkpt>
      <trkpt lat="46.46506" lon="6.07275">
        <ele>1158.4</ele>
        <time>2026-05-13T05:40:04Z</time>
      </trkpt>
      <trkpt lat="46.46517" lon="6.07279">
        <ele>1157.6</ele>
        <time>2026-05-13T05:40:07Z</time>
      </trkpt>
      <trkpt lat="46.46521" lon="6.07281">
        <ele>1157.2</ele>
        <time>2026-05-13T05:40:08Z</time>
      </trkpt>
      <trkpt lat="46.46536" lon="6.07281">
        <ele>1156.8</ele>
        <time>2026-05-13T05:40:12Z</time>
      </trkpt>
      <trkpt lat="46.46555" lon="6.07279">
        <ele>1156.2</ele>
        <time>2026-05-13T05:40:16Z</time>
      </trkpt>
      <trkpt lat="46.4656" lon="6.07278">
        <ele>1156</ele>
        <time>2026-05-13T05:40:17Z</time>
      </trkpt>
      <trkpt lat="46.46572" lon="6.0728">
        <ele>1155.6</ele>
        <time>2026-05-13T05:40:19Z</time>
      </trkpt>
      <trkpt lat="46.46607" lon="6.07298">
        <ele>1155.2</ele>
        <time>2026-05-13T05:40:25Z</time>
      </trkpt>
      <trkpt lat="46.46646" lon="6.0732">
        <ele>1154.4</ele>
        <time>2026-05-13T05:40:31Z</time>
      </trkpt>
      <trkpt lat="46.46652" lon="6.07325">
        <ele>1154</ele>
        <time>2026-05-13T05:40:32Z</time>
      </trkpt>
      <trkpt lat="46.46665" lon="6.07336">
        <ele>1153.8</ele>
        <time>2026-05-13T05:40:34Z</time>
      </trkpt>
      <trkpt lat="46.4667" lon="6.07342">
        <ele>1153.6</ele>
        <time>2026-05-13T05:40:35Z</time>
      </trkpt>
      <trkpt lat="46.46676" lon="6.07348">
        <ele>1153.4</ele>
        <time>2026-05-13T05:40:36Z</time>
      </trkpt>
      <trkpt lat="46.46699" lon="6.07374">
        <ele>1153</ele>
        <time>2026-05-13T05:40:40Z</time>
      </trkpt>
      <trkpt lat="46.46705" lon="6.07379">
        <ele>1153</ele>
        <time>2026-05-13T05:40:41Z</time>
      </trkpt>
      <trkpt lat="46.46711" lon="6.07384">
        <ele>1153</ele>
        <time>2026-05-13T05:40:42Z</time>
      </trkpt>
      <trkpt lat="46.46725" lon="6.07391">
        <ele>1153</ele>
        <time>2026-05-13T05:40:44Z</time>
      </trkpt>
      <trkpt lat="46.4677" lon="6.07413">
        <ele>1152.8</ele>
        <time>2026-05-13T05:40:51Z</time>
      </trkpt>
      <trkpt lat="46.46813" lon="6.0744">
        <ele>1152.6</ele>
        <time>2026-05-13T05:40:58Z</time>
      </trkpt>
      <trkpt lat="46.46863" lon="6.07488">
        <ele>1152.6</ele>
        <time>2026-05-13T05:41:07Z</time>
      </trkpt>
      <trkpt lat="46.46889" lon="6.07531">
        <ele>1152</ele>
        <time>2026-05-13T05:41:13Z</time>
      </trkpt>
      <trkpt lat="46.46893" lon="6.07539">
        <ele>1152</ele>
        <time>2026-05-13T05:41:14Z</time>
      </trkpt>
      <trkpt lat="46.46924" lon="6.07593">
        <ele>1151.2</ele>
        <time>2026-05-13T05:41:21Z</time>
      </trkpt>
      <trkpt lat="46.4694" lon="6.07613">
        <ele>1150.8</ele>
        <time>2026-05-13T05:41:24Z</time>
      </trkpt>
      <trkpt lat="46.46958" lon="6.07631">
        <ele>1150.6</ele>
        <time>2026-05-13T05:41:27Z</time>
      </trkpt>
      <trkpt lat="46.4698" lon="6.0766">
        <ele>1150</ele>
        <time>2026-05-13T05:41:31Z</time>
      </trkpt>
      <trkpt lat="46.46996" lon="6.07683">
        <ele>1149.2</ele>
        <time>2026-05-13T05:41:34Z</time>
      </trkpt>
      <trkpt lat="46.47006" lon="6.07699">
        <ele>1148.8</ele>
        <time>2026-05-13T05:41:36Z</time>
      </trkpt>
      <trkpt lat="46.47038" lon="6.07738">
        <ele>1148.2</ele>
        <time>2026-05-13T05:41:41Z</time>
      </trkpt>
      <trkpt lat="46.47052" lon="6.07754">
        <ele>1147.4</ele>
        <time>2026-05-13T05:41:43Z</time>
      </trkpt>
      <trkpt lat="46.47074" lon="6.07778">
        <ele>1146.4</ele>
        <time>2026-05-13T05:41:46Z</time>
      </trkpt>
      <trkpt lat="46.47089" lon="6.07795">
        <ele>1145.2</ele>
        <time>2026-05-13T05:41:48Z</time>
      </trkpt>
      <trkpt lat="46.47111" lon="6.07819">
        <ele>1144.2</ele>
        <time>2026-05-13T05:41:51Z</time>
      </trkpt>
      <trkpt lat="46.47127" lon="6.07836">
        <ele>1142.8</ele>
        <time>2026-05-13T05:41:53Z</time>
      </trkpt>
      <trkpt lat="46.47154" lon="6.07866">
        <ele>1141.4</ele>
        <time>2026-05-13T05:41:57Z</time>
      </trkpt>
      <trkpt lat="46.4719" lon="6.07906">
        <ele>1140.2</ele>
        <time>2026-05-13T05:42:02Z</time>
      </trkpt>
      <trkpt lat="46.47211" lon="6.0793">
        <ele>1139.2</ele>
        <time>2026-05-13T05:42:05Z</time>
      </trkpt>
      <trkpt lat="46.47218" lon="6.07938">
        <ele>1138.8</ele>
        <time>2026-05-13T05:42:06Z</time>
      </trkpt>
      <trkpt lat="46.47232" lon="6.07955">
        <ele>1138.4</ele>
        <time>2026-05-13T05:42:08Z</time>
      </trkpt>
      <trkpt lat="46.47254" lon="6.07979">
        <ele>1137.6</ele>
        <time>2026-05-13T05:42:11Z</time>
      </trkpt>
      <trkpt lat="46.47278" lon="6.07999">
        <ele>1136.4</ele>
        <time>2026-05-13T05:42:14Z</time>
      </trkpt>
      <trkpt lat="46.47286" lon="6.08004">
        <ele>1136.2</ele>
        <time>2026-05-13T05:42:15Z</time>
      </trkpt>
      <trkpt lat="46.47312" lon="6.08019">
        <ele>1134.8</ele>
        <time>2026-05-13T05:42:18Z</time>
      </trkpt>
      <trkpt lat="46.47338" lon="6.08033">
        <ele>1133.6</ele>
        <time>2026-05-13T05:42:21Z</time>
      </trkpt>
      <trkpt lat="46.47346" lon="6.08037">
        <ele>1133.2</ele>
        <time>2026-05-13T05:42:22Z</time>
      </trkpt>
      <trkpt lat="46.47363" lon="6.08045">
        <ele>1132.4</ele>
        <time>2026-05-13T05:42:24Z</time>
      </trkpt>
      <trkpt lat="46.47409" lon="6.08069">
        <ele>1131.4</ele>
        <time>2026-05-13T05:42:30Z</time>
      </trkpt>
      <trkpt lat="46.47453" lon="6.08098">
        <ele>1130.8</ele>
        <time>2026-05-13T05:42:36Z</time>
      </trkpt>
      <trkpt lat="46.47481" lon="6.08135">
        <ele>1130.6</ele>
        <time>2026-05-13T05:42:41Z</time>
      </trkpt>
      <trkpt lat="46.47516" lon="6.08197">
        <ele>1130.2</ele>
        <time>2026-05-13T05:42:48Z</time>
      </trkpt>
      <trkpt lat="46.4752" lon="6.08206">
        <ele>1130.2</ele>
        <time>2026-05-13T05:42:49Z</time>
      </trkpt>
      <trkpt lat="46.47546" lon="6.08278">
        <ele>1129.4</ele>
        <time>2026-05-13T05:42:56Z</time>
      </trkpt>
      <trkpt lat="46.4755" lon="6.08288">
        <ele>1129.2</ele>
        <time>2026-05-13T05:42:57Z</time>
      </trkpt>
      <trkpt lat="46.47581" lon="6.08361">
        <ele>1128.2</ele>
        <time>2026-05-13T05:43:04Z</time>
      </trkpt>
      <trkpt lat="46.47588" lon="6.08372">
        <ele>1128.2</ele>
        <time>2026-05-13T05:43:05Z</time>
      </trkpt>
      <trkpt lat="46.47602" lon="6.08386">
        <ele>1127.8</ele>
        <time>2026-05-13T05:43:07Z</time>
      </trkpt>
      <trkpt lat="46.4761" lon="6.08393">
        <ele>1127.6</ele>
        <time>2026-05-13T05:43:08Z</time>
      </trkpt>
      <trkpt lat="46.47632" lon="6.08413">
        <ele>1127</ele>
        <time>2026-05-13T05:43:11Z</time>
      </trkpt>
      <trkpt lat="46.47644" lon="6.08432">
        <ele>1126.6</ele>
        <time>2026-05-13T05:43:13Z</time>
      </trkpt>
      <trkpt lat="46.4766" lon="6.08462">
        <ele>1126</ele>
        <time>2026-05-13T05:43:16Z</time>
      </trkpt>
      <trkpt lat="46.47683" lon="6.08511">
        <ele>1125</ele>
        <time>2026-05-13T05:43:21Z</time>
      </trkpt>
      <trkpt lat="46.47689" lon="6.08524">
        <ele>1124.6</ele>
        <time>2026-05-13T05:43:22Z</time>
      </trkpt>
      <trkpt lat="46.47719" lon="6.08586">
        <ele>1123.6</ele>
        <time>2026-05-13T05:43:28Z</time>
      </trkpt>
      <trkpt lat="46.47725" lon="6.08596">
        <ele>1123.4</ele>
        <time>2026-05-13T05:43:29Z</time>
      </trkpt>
      <trkpt lat="46.47732" lon="6.08604">
        <ele>1123.2</ele>
        <time>2026-05-13T05:43:30Z</time>
      </trkpt>
      <trkpt lat="46.47739" lon="6.08611">
        <ele>1123.2</ele>
        <time>2026-05-13T05:43:31Z</time>
      </trkpt>
      <trkpt lat="46.47757" lon="6.08619">
        <ele>1122.6</ele>
        <time>2026-05-13T05:43:33Z</time>
      </trkpt>
      <trkpt lat="46.47785" lon="6.08622">
        <ele>1121.6</ele>
        <time>2026-05-13T05:43:36Z</time>
      </trkpt>
      <trkpt lat="46.47804" lon="6.08622">
        <ele>1120.8</ele>
        <time>2026-05-13T05:43:38Z</time>
      </trkpt>
      <trkpt lat="46.47814" lon="6.08622">
        <ele>1120.2</ele>
        <time>2026-05-13T05:43:39Z</time>
      </trkpt>
      <trkpt lat="46.47844" lon="6.08623">
        <ele>1118.8</ele>
        <time>2026-05-13T05:43:42Z</time>
      </trkpt>
      <trkpt lat="46.47861" lon="6.08626">
        <ele>1118.2</ele>
        <time>2026-05-13T05:43:44Z</time>
      </trkpt>
      <trkpt lat="46.47871" lon="6.08628">
        <ele>1117.6</ele>
        <time>2026-05-13T05:43:45Z</time>
      </trkpt>
      <trkpt lat="46.479" lon="6.08642">
        <ele>1116.4</ele>
        <time>2026-05-13T05:43:48Z</time>
      </trkpt>
      <trkpt lat="46.47916" lon="6.08652">
        <ele>1115.4</ele>
        <time>2026-05-13T05:43:50Z</time>
      </trkpt>
      <trkpt lat="46.4795" lon="6.08673">
        <ele>1114.2</ele>
        <time>2026-05-13T05:43:54Z</time>
      </trkpt>
      <trkpt lat="46.47977" lon="6.0869">
        <ele>1113.6</ele>
        <time>2026-05-13T05:43:57Z</time>
      </trkpt>
      <trkpt lat="46.47992" lon="6.08699">
        <ele>1113.2</ele>
        <time>2026-05-13T05:43:59Z</time>
      </trkpt>
      <trkpt lat="46.48033" lon="6.08725">
        <ele>1112.2</ele>
        <time>2026-05-13T05:44:04Z</time>
      </trkpt>
      <trkpt lat="46.48052" lon="6.08737">
        <ele>1111.8</ele>
        <time>2026-05-13T05:44:06Z</time>
      </trkpt>
      <trkpt lat="46.48066" lon="6.08748">
        <ele>1111</ele>
        <time>2026-05-13T05:44:08Z</time>
      </trkpt>
      <trkpt lat="46.48089" lon="6.08775">
        <ele>1109.6</ele>
        <time>2026-05-13T05:44:11Z</time>
      </trkpt>
      <trkpt lat="46.48114" lon="6.08814">
        <ele>1108.6</ele>
        <time>2026-05-13T05:44:15Z</time>
      </trkpt>
      <trkpt lat="46.48126" lon="6.08834">
        <ele>1108</ele>
        <time>2026-05-13T05:44:17Z</time>
      </trkpt>
      <trkpt lat="46.48131" lon="6.08842">
        <ele>1107.6</ele>
        <time>2026-05-13T05:44:18Z</time>
      </trkpt>
      <trkpt lat="46.48145" lon="6.08863">
        <ele>1107</ele>
        <time>2026-05-13T05:44:20Z</time>
      </trkpt>
      <trkpt lat="46.48161" lon="6.08876">
        <ele>1106.4</ele>
        <time>2026-05-13T05:44:22Z</time>
      </trkpt>
      <trkpt lat="46.48177" lon="6.08883">
        <ele>1105.8</ele>
        <time>2026-05-13T05:44:24Z</time>
      </trkpt>
      <trkpt lat="46.48196" lon="6.08887">
        <ele>1105.2</ele>
        <time>2026-05-13T05:44:26Z</time>
      </trkpt>
      <trkpt lat="46.48231" lon="6.08893">
        <ele>1104</ele>
        <time>2026-05-13T05:44:30Z</time>
      </trkpt>
      <trkpt lat="46.48274" lon="6.089">
        <ele>1103.2</ele>
        <time>2026-05-13T05:44:35Z</time>
      </trkpt>
      <trkpt lat="46.48283" lon="6.08901">
        <ele>1103</ele>
        <time>2026-05-13T05:44:36Z</time>
      </trkpt>
      <trkpt lat="46.48334" lon="6.08904">
        <ele>1102</ele>
        <time>2026-05-13T05:44:42Z</time>
      </trkpt>
      <trkpt lat="46.48341" lon="6.08902">
        <ele>1101.8</ele>
        <time>2026-05-13T05:44:43Z</time>
      </trkpt>
      <trkpt lat="46.48375" lon="6.0889">
        <ele>1100.8</ele>
        <time>2026-05-13T05:44:47Z</time>
      </trkpt>
      <trkpt lat="46.48382" lon="6.08888">
        <ele>1100.6</ele>
        <time>2026-05-13T05:44:48Z</time>
      </trkpt>
      <trkpt lat="46.484" lon="6.08882">
        <ele>1100</ele>
        <time>2026-05-13T05:44:50Z</time>
      </trkpt>
      <trkpt lat="46.48415" lon="6.08873">
        <ele>1099.6</ele>
        <time>2026-05-13T05:44:52Z</time>
      </trkpt>
      <trkpt lat="46.4842" lon="6.08867">
        <ele>1099.4</ele>
        <time>2026-05-13T05:44:53Z</time>
      </trkpt>
      <trkpt lat="46.48448" lon="6.08836">
        <ele>1098.8</ele>
        <time>2026-05-13T05:44:57Z</time>
      </trkpt>
      <trkpt lat="46.48464" lon="6.0883">
        <ele>1098.4</ele>
        <time>2026-05-13T05:44:59Z</time>
      </trkpt>
      <trkpt lat="46.48473" lon="6.08831">
        <ele>1098.2</ele>
        <time>2026-05-13T05:45:00Z</time>
      </trkpt>
      <trkpt lat="46.48482" lon="6.08834">
        <ele>1097.8</ele>
        <time>2026-05-13T05:45:01Z</time>
      </trkpt>
      <trkpt lat="46.48496" lon="6.08846">
        <ele>1097.2</ele>
        <time>2026-05-13T05:45:03Z</time>
      </trkpt>
      <trkpt lat="46.48517" lon="6.08875">
        <ele>1095.8</ele>
        <time>2026-05-13T05:45:06Z</time>
      </trkpt>
      <trkpt lat="46.48522" lon="6.08883">
        <ele>1095</ele>
        <time>2026-05-13T05:45:07Z</time>
      </trkpt>
      <trkpt lat="46.48535" lon="6.08904">
        <ele>1094.6</ele>
        <time>2026-05-13T05:45:09Z</time>
      </trkpt>
      <trkpt lat="46.48567" lon="6.08949">
        <ele>1093.8</ele>
        <time>2026-05-13T05:45:14Z</time>
      </trkpt>
      <trkpt lat="46.48575" lon="6.08959">
        <ele>1093.6</ele>
        <time>2026-05-13T05:45:15Z</time>
      </trkpt>
      <trkpt lat="46.48583" lon="6.08966">
        <ele>1093.2</ele>
        <time>2026-05-13T05:45:16Z</time>
      </trkpt>
      <trkpt lat="46.48599" lon="6.08976">
        <ele>1092.4</ele>
        <time>2026-05-13T05:45:18Z</time>
      </trkpt>
      <trkpt lat="46.4861" lon="6.08982">
        <ele>1091.2</ele>
        <time>2026-05-13T05:45:19Z</time>
      </trkpt>
      <trkpt lat="46.48628" lon="6.08988">
        <ele>1090</ele>
        <time>2026-05-13T05:45:21Z</time>
      </trkpt>
      <trkpt lat="46.48646" lon="6.08993">
        <ele>1089</ele>
        <time>2026-05-13T05:45:23Z</time>
      </trkpt>
      <trkpt lat="46.48678" lon="6.09004">
        <ele>1087.2</ele>
        <time>2026-05-13T05:45:26Z</time>
      </trkpt>
      <trkpt lat="46.48695" lon="6.0901">
        <ele>1086</ele>
        <time>2026-05-13T05:45:28Z</time>
      </trkpt>
      <trkpt lat="46.48718" lon="6.09015">
        <ele>1085</ele>
        <time>2026-05-13T05:45:30Z</time>
      </trkpt>
      <trkpt lat="46.48746" lon="6.09016">
        <ele>1083.6</ele>
        <time>2026-05-13T05:45:33Z</time>
      </trkpt>
      <trkpt lat="46.48767" lon="6.09013">
        <ele>1082.2</ele>
        <time>2026-05-13T05:45:35Z</time>
      </trkpt>
      <trkpt lat="46.48803" lon="6.09008">
        <ele>1081</ele>
        <time>2026-05-13T05:45:39Z</time>
      </trkpt>
      <trkpt lat="46.48817" lon="6.09007">
        <ele>1080.8</ele>
        <time>2026-05-13T05:45:41Z</time>
      </trkpt>
      <trkpt lat="46.48825" lon="6.09008">
        <ele>1080.6</ele>
        <time>2026-05-13T05:45:42Z</time>
      </trkpt>
      <trkpt lat="46.48848" lon="6.09016">
        <ele>1080.4</ele>
        <time>2026-05-13T05:45:45Z</time>
      </trkpt>
      <trkpt lat="46.48883" lon="6.09037">
        <ele>1081</ele>
        <time>2026-05-13T05:45:51Z</time>
      </trkpt>
      <trkpt lat="46.4892" lon="6.09061">
        <ele>1082.2</ele>
        <time>2026-05-13T05:45:58Z</time>
      </trkpt>
      <trkpt lat="46.48925" lon="6.09064">
        <ele>1082.2</ele>
        <time>2026-05-13T05:45:59Z</time>
      </trkpt>
      <trkpt lat="46.48962" lon="6.09087">
        <ele>1083</ele>
        <time>2026-05-13T05:46:07Z</time>
      </trkpt>
      <trkpt lat="46.48978" lon="6.09097">
        <ele>1083.2</ele>
        <time>2026-05-13T05:46:10Z</time>
      </trkpt>
      <trkpt lat="46.49" lon="6.09113">
        <ele>1083.8</ele>
        <time>2026-05-13T05:46:15Z</time>
      </trkpt>
      <trkpt lat="46.49018" lon="6.09126">
        <ele>1084.2</ele>
        <time>2026-05-13T05:46:19Z</time>
      </trkpt>
      <trkpt lat="46.49029" lon="6.09135">
        <ele>1084.4</ele>
        <time>2026-05-13T05:46:22Z</time>
      </trkpt>
      <trkpt lat="46.49049" lon="6.0915">
        <ele>1085.2</ele>
        <time>2026-05-13T05:46:27Z</time>
      </trkpt>
      <trkpt lat="46.49057" lon="6.09157">
        <ele>1085.4</ele>
        <time>2026-05-13T05:46:29Z</time>
      </trkpt>
      <trkpt lat="46.4906" lon="6.0916">
        <ele>1085.6</ele>
        <time>2026-05-13T05:46:30Z</time>
      </trkpt>
      <trkpt lat="46.49072" lon="6.09171">
        <ele>1086.4</ele>
        <time>2026-05-13T05:46:33Z</time>
      </trkpt>
      <trkpt lat="46.49077" lon="6.0918">
        <ele>1086.6</ele>
        <time>2026-05-13T05:46:35Z</time>
      </trkpt>
      <trkpt lat="46.49083" lon="6.09188">
        <ele>1086.6</ele>
        <time>2026-05-13T05:46:37Z</time>
      </trkpt>
      <trkpt lat="46.49091" lon="6.09191">
        <ele>1087</ele>
        <time>2026-05-13T05:46:39Z</time>
      </trkpt>
      <trkpt lat="46.491" lon="6.09192">
        <ele>1087.6</ele>
        <time>2026-05-13T05:46:41Z</time>
      </trkpt>
      <trkpt lat="46.49114" lon="6.09198">
        <ele>1088.2</ele>
        <time>2026-05-13T05:46:44Z</time>
      </trkpt>
      <trkpt lat="46.49134" lon="6.09211">
        <ele>1088.6</ele>
        <time>2026-05-13T05:46:49Z</time>
      </trkpt>
      <trkpt lat="46.49145" lon="6.0922">
        <ele>1089.2</ele>
        <time>2026-05-13T05:46:52Z</time>
      </trkpt>
      <trkpt lat="46.49155" lon="6.0923">
        <ele>1089.6</ele>
        <time>2026-05-13T05:46:55Z</time>
      </trkpt>
      <trkpt lat="46.49167" lon="6.09243">
        <ele>1090.2</ele>
        <time>2026-05-13T05:46:58Z</time>
      </trkpt>
      <trkpt lat="46.49174" lon="6.0925">
        <ele>1090.6</ele>
        <time>2026-05-13T05:47:00Z</time>
      </trkpt>
      <trkpt lat="46.49178" lon="6.09254">
        <ele>1090.8</ele>
        <time>2026-05-13T05:47:01Z</time>
      </trkpt>
      <trkpt lat="46.49189" lon="6.09267">
        <ele>1091.2</ele>
        <time>2026-05-13T05:47:04Z</time>
      </trkpt>
      <trkpt lat="46.4923" lon="6.09308">
        <ele>1091.6</ele>
        <time>2026-05-13T05:47:13Z</time>
      </trkpt>
      <trkpt lat="46.49277" lon="6.0936">
        <ele>1091.4</ele>
        <time>2026-05-13T05:47:23Z</time>
      </trkpt>
      <trkpt lat="46.49323" lon="6.09409">
        <ele>1090.2</ele>
        <time>2026-05-13T05:47:32Z</time>
      </trkpt>
      <trkpt lat="46.49349" lon="6.09437">
        <ele>1092.2</ele>
        <time>2026-05-13T05:47:37Z</time>
      </trkpt>
      <trkpt lat="46.4937" lon="6.09458">
        <ele>1091.8</ele>
        <time>2026-05-13T05:47:41Z</time>
      </trkpt>
      <trkpt lat="46.49385" lon="6.09474">
        <ele>1090</ele>
        <time>2026-05-13T05:47:44Z</time>
      </trkpt>
      <trkpt lat="46.49389" lon="6.09478">
        <ele>1087.2</ele>
        <time>2026-05-13T05:47:45Z</time>
      </trkpt>
      <trkpt lat="46.494" lon="6.0949">
        <ele>1085.8</ele>
        <time>2026-05-13T05:47:47Z</time>
      </trkpt>
      <trkpt lat="46.49405" lon="6.09495">
        <ele>1088</ele>
        <time>2026-05-13T05:47:48Z</time>
      </trkpt>
      <trkpt lat="46.49409" lon="6.095">
        <ele>1089.4</ele>
        <time>2026-05-13T05:47:49Z</time>
      </trkpt>
      <trkpt lat="46.49414" lon="6.09505">
        <ele>1091.6</ele>
        <time>2026-05-13T05:47:50Z</time>
      </trkpt>
      <trkpt lat="46.49423" lon="6.09515">
        <ele>1092.8</ele>
        <time>2026-05-13T05:47:52Z</time>
      </trkpt>
      <trkpt lat="46.49433" lon="6.09525">
        <ele>1093.4</ele>
        <time>2026-05-13T05:47:54Z</time>
      </trkpt>
      <trkpt lat="46.49443" lon="6.09534">
        <ele>1093.2</ele>
        <time>2026-05-13T05:47:56Z</time>
      </trkpt>
      <trkpt lat="46.49464" lon="6.09554">
        <ele>1091.6</ele>
        <time>2026-05-13T05:48:00Z</time>
      </trkpt>
      <trkpt lat="46.49475" lon="6.09565">
        <ele>1090.4</ele>
        <time>2026-05-13T05:48:02Z</time>
      </trkpt>
      <trkpt lat="46.4948" lon="6.0957">
        <ele>1089.6</ele>
        <time>2026-05-13T05:48:03Z</time>
      </trkpt>
      <trkpt lat="46.49494" lon="6.09583">
        <ele>1089.4</ele>
        <time>2026-05-13T05:48:05Z</time>
      </trkpt>
      <trkpt lat="46.49522" lon="6.09608">
        <ele>1088.2</ele>
        <time>2026-05-13T05:48:09Z</time>
      </trkpt>
      <trkpt lat="46.49536" lon="6.0962">
        <ele>1087.2</ele>
        <time>2026-05-13T05:48:11Z</time>
      </trkpt>
      <trkpt lat="46.49571" lon="6.0965">
        <ele>1086</ele>
        <time>2026-05-13T05:48:16Z</time>
      </trkpt>
      <trkpt lat="46.49578" lon="6.09656">
        <ele>1086</ele>
        <time>2026-05-13T05:48:17Z</time>
      </trkpt>
      <trkpt lat="46.49612" lon="6.09684">
        <ele>1086.4</ele>
        <time>2026-05-13T05:48:23Z</time>
      </trkpt>
      <trkpt lat="46.49664" lon="6.09729">
        <ele>1086.4</ele>
        <time>2026-05-13T05:48:31Z</time>
      </trkpt>
      <trkpt lat="46.49669" lon="6.09734">
        <ele>1086.2</ele>
        <time>2026-05-13T05:48:32Z</time>
      </trkpt>
      <trkpt lat="46.49703" lon="6.09762">
        <ele>1085.2</ele>
        <time>2026-05-13T05:48:37Z</time>
      </trkpt>
      <trkpt lat="46.49737" lon="6.09792">
        <ele>1084.2</ele>
        <time>2026-05-13T05:48:42Z</time>
      </trkpt>
      <trkpt lat="46.49744" lon="6.09798">
        <ele>1084</ele>
        <time>2026-05-13T05:48:43Z</time>
      </trkpt>
      <trkpt lat="46.49772" lon="6.09822">
        <ele>1082.8</ele>
        <time>2026-05-13T05:48:47Z</time>
      </trkpt>
      <trkpt lat="46.49787" lon="6.09835">
        <ele>1082.4</ele>
        <time>2026-05-13T05:48:49Z</time>
      </trkpt>
      <trkpt lat="46.49837" lon="6.09877">
        <ele>1081.8</ele>
        <time>2026-05-13T05:48:57Z</time>
      </trkpt>
      <trkpt lat="46.4985" lon="6.09888">
        <ele>1081.8</ele>
        <time>2026-05-13T05:48:59Z</time>
      </trkpt>
      <trkpt lat="46.4988" lon="6.09913">
        <ele>1082.4</ele>
        <time>2026-05-13T05:49:05Z</time>
      </trkpt>
      <trkpt lat="46.49887" lon="6.0992">
        <ele>1083</ele>
        <time>2026-05-13T05:49:07Z</time>
      </trkpt>
      <trkpt lat="46.49907" lon="6.09936">
        <ele>1083.8</ele>
        <time>2026-05-13T05:49:12Z</time>
      </trkpt>
      <trkpt lat="46.49911" lon="6.09939">
        <ele>1084.2</ele>
        <time>2026-05-13T05:49:13Z</time>
      </trkpt>
      <trkpt lat="46.4992" lon="6.09946">
        <ele>1085.2</ele>
        <time>2026-05-13T05:49:16Z</time>
      </trkpt>
      <trkpt lat="46.49932" lon="6.09956">
        <ele>1086.2</ele>
        <time>2026-05-13T05:49:19Z</time>
      </trkpt>
      <trkpt lat="46.49951" lon="6.09973">
        <ele>1087.4</ele>
        <time>2026-05-13T05:49:25Z</time>
      </trkpt>
      <trkpt lat="46.49955" lon="6.09976">
        <ele>1087.6</ele>
        <time>2026-05-13T05:49:26Z</time>
      </trkpt>
      <trkpt lat="46.49972" lon="6.0999">
        <ele>1088.6</ele>
        <time>2026-05-13T05:49:31Z</time>
      </trkpt>
      <trkpt lat="46.49979" lon="6.09997">
        <ele>1089</ele>
        <time>2026-05-13T05:49:33Z</time>
      </trkpt>
      <trkpt lat="46.49987" lon="6.10003">
        <ele>1089.8</ele>
        <time>2026-05-13T05:49:35Z</time>
      </trkpt>
      <trkpt lat="46.50003" lon="6.10016">
        <ele>1090.2</ele>
        <time>2026-05-13T05:49:39Z</time>
      </trkpt>
      <trkpt lat="46.50007" lon="6.1002">
        <ele>1090.2</ele>
        <time>2026-05-13T05:49:40Z</time>
      </trkpt>
      <trkpt lat="46.50026" lon="6.10037">
        <ele>1090.2</ele>
        <time>2026-05-13T05:49:44Z</time>
      </trkpt>
      <trkpt lat="46.50036" lon="6.10045">
        <ele>1089.8</ele>
        <time>2026-05-13T05:49:46Z</time>
      </trkpt>
      <trkpt lat="46.50083" lon="6.10084">
        <ele>1088.8</ele>
        <time>2026-05-13T05:49:55Z</time>
      </trkpt>
      <trkpt lat="46.50099" lon="6.10097">
        <ele>1088.8</ele>
        <time>2026-05-13T05:49:58Z</time>
      </trkpt>
      <trkpt lat="46.50124" lon="6.10117">
        <ele>1088.8</ele>
        <time>2026-05-13T05:50:03Z</time>
      </trkpt>
      <trkpt lat="46.5016" lon="6.10148">
        <ele>1089.8</ele>
        <time>2026-05-13T05:50:11Z</time>
      </trkpt>
      <trkpt lat="46.50203" lon="6.10185">
        <ele>1090.4</ele>
        <time>2026-05-13T05:50:20Z</time>
      </trkpt>
      <trkpt lat="46.50226" lon="6.10205">
        <ele>1090.8</ele>
        <time>2026-05-13T05:50:25Z</time>
      </trkpt>
      <trkpt lat="46.5025" lon="6.10225">
        <ele>1091.2</ele>
        <time>2026-05-13T05:50:30Z</time>
      </trkpt>
      <trkpt lat="46.50296" lon="6.10264">
        <ele>1091.8</ele>
        <time>2026-05-13T05:50:40Z</time>
      </trkpt>
      <trkpt lat="46.50311" lon="6.10277">
        <ele>1092</ele>
        <time>2026-05-13T05:50:43Z</time>
      </trkpt>
      <trkpt lat="46.50359" lon="6.10318">
        <ele>1092.2</ele>
        <time>2026-05-13T05:50:52Z</time>
      </trkpt>
      <trkpt lat="46.50375" lon="6.10332">
        <ele>1092.2</ele>
        <time>2026-05-13T05:50:55Z</time>
      </trkpt>
      <trkpt lat="46.50427" lon="6.10375">
        <ele>1092.2</ele>
        <time>2026-05-13T05:51:06Z</time>
      </trkpt>
      <trkpt lat="46.50459" lon="6.10403">
        <ele>1092</ele>
        <time>2026-05-13T05:51:11Z</time>
      </trkpt>
      <trkpt lat="46.50485" lon="6.10426">
        <ele>1092</ele>
        <time>2026-05-13T05:51:16Z</time>
      </trkpt>
      <trkpt lat="46.5051" lon="6.10451">
        <ele>1092</ele>
        <time>2026-05-13T05:51:21Z</time>
      </trkpt>
      <trkpt lat="46.50556" lon="6.10504">
        <ele>1091.6</ele>
        <time>2026-05-13T05:51:30Z</time>
      </trkpt>
      <trkpt lat="46.50566" lon="6.10517">
        <ele>1091.6</ele>
        <time>2026-05-13T05:51:32Z</time>
      </trkpt>
      <trkpt lat="46.50606" lon="6.10564">
        <ele>1090.6</ele>
        <time>2026-05-13T05:51:40Z</time>
      </trkpt>
      <trkpt lat="46.50625" lon="6.10586">
        <ele>1090.2</ele>
        <time>2026-05-13T05:51:42Z</time>
      </trkpt>
      <trkpt lat="46.50633" lon="6.10596">
        <ele>1089.6</ele>
        <time>2026-05-13T05:51:44Z</time>
      </trkpt>
      <trkpt lat="46.50663" lon="6.10631">
        <ele>1088.4</ele>
        <time>2026-05-13T05:51:48Z</time>
      </trkpt>
      <trkpt lat="46.50686" lon="6.10657">
        <ele>1087.4</ele>
        <time>2026-05-13T05:51:50Z</time>
      </trkpt>
      <trkpt lat="46.50686" lon="6.10657">
        <ele>1087</ele>
        <time>2026-05-13T05:51:51Z</time>
      </trkpt>
      <trkpt lat="46.50717" lon="6.10693">
        <ele>1085.4</ele>
        <time>2026-05-13T05:51:54Z</time>
      </trkpt>
      <trkpt lat="46.50739" lon="6.10718">
        <ele>1084.2</ele>
        <time>2026-05-13T05:51:57Z</time>
      </trkpt>
      <trkpt lat="46.50752" lon="6.10733">
        <ele>1083.4</ele>
        <time>2026-05-13T05:51:59Z</time>
      </trkpt>
      <trkpt lat="46.50765" lon="6.10748">
        <ele>1083</ele>
        <time>2026-05-13T05:52:01Z</time>
      </trkpt>
      <trkpt lat="46.50795" lon="6.10783">
        <ele>1083</ele>
        <time>2026-05-13T05:52:06Z</time>
      </trkpt>
      <trkpt lat="46.50833" lon="6.10827">
        <ele>1083.2</ele>
        <time>2026-05-13T05:52:14Z</time>
      </trkpt>
      <trkpt lat="46.50865" lon="6.10865">
        <ele>1084.4</ele>
        <time>2026-05-13T05:52:21Z</time>
      </trkpt>
      <trkpt lat="46.50909" lon="6.10917">
        <ele>1084.6</ele>
        <time>2026-05-13T05:52:29Z</time>
      </trkpt>
      <trkpt lat="46.5092" lon="6.10929">
        <ele>1084.6</ele>
        <time>2026-05-13T05:52:32Z</time>
      </trkpt>
      <trkpt lat="46.50967" lon="6.10984">
        <ele>1084.6</ele>
        <time>2026-05-13T05:52:41Z</time>
      </trkpt>
      <trkpt lat="46.50979" lon="6.10998">
        <ele>1085.4</ele>
        <time>2026-05-13T05:52:45Z</time>
      </trkpt>
      <trkpt lat="46.50987" lon="6.11008">
        <ele>1085.8</ele>
        <time>2026-05-13T05:52:47Z</time>
      </trkpt>
      <trkpt lat="46.50998" lon="6.11021">
        <ele>1086.2</ele>
        <time>2026-05-13T05:52:50Z</time>
      </trkpt>
      <trkpt lat="46.51022" lon="6.11048">
        <ele>1087.6</ele>
        <time>2026-05-13T05:52:55Z</time>
      </trkpt>
      <trkpt lat="46.51053" lon="6.11084">
        <ele>1088</ele>
        <time>2026-05-13T05:53:03Z</time>
      </trkpt>
      <trkpt lat="46.51094" lon="6.11131">
        <ele>1087.4</ele>
        <time>2026-05-13T05:53:10Z</time>
      </trkpt>
      <trkpt lat="46.51127" lon="6.11169">
        <ele>1086.4</ele>
        <time>2026-05-13T05:53:16Z</time>
      </trkpt>
      <trkpt lat="46.51138" lon="6.11182">
        <ele>1086</ele>
        <time>2026-05-13T05:53:18Z</time>
      </trkpt>
      <trkpt lat="46.51165" lon="6.11212">
        <ele>1085.4</ele>
        <time>2026-05-13T05:53:23Z</time>
      </trkpt>
      <trkpt lat="46.51192" lon="6.11243">
        <ele>1085</ele>
        <time>2026-05-13T05:53:28Z</time>
      </trkpt>
      <trkpt lat="46.51225" lon="6.1128">
        <ele>1083.8</ele>
        <time>2026-05-13T05:53:34Z</time>
      </trkpt>
      <trkpt lat="46.51231" lon="6.11286">
        <ele>1083.6</ele>
        <time>2026-05-13T05:53:35Z</time>
      </trkpt>
      <trkpt lat="46.5124" lon="6.11294">
        <ele>1082.6</ele>
        <time>2026-05-13T05:53:37Z</time>
      </trkpt>
      <trkpt lat="46.51251" lon="6.11294">
        <ele>1082</ele>
        <time>2026-05-13T05:53:39Z</time>
      </trkpt>
      <trkpt lat="46.51259" lon="6.11286">
        <ele>1081.6</ele>
        <time>2026-05-13T05:53:41Z</time>
      </trkpt>
      <trkpt lat="46.51263" lon="6.1128">
        <ele>1080.4</ele>
        <time>2026-05-13T05:53:43Z</time>
      </trkpt>
      <trkpt lat="46.5128" lon="6.11259">
        <ele>1079.2</ele>
        <time>2026-05-13T05:53:47Z</time>
      </trkpt>
      <trkpt lat="46.51292" lon="6.11242">
        <ele>1078.8</ele>
        <time>2026-05-13T05:53:49Z</time>
      </trkpt>
      <trkpt lat="46.513" lon="6.11232">
        <ele>1078.2</ele>
        <time>2026-05-13T05:53:52Z</time>
      </trkpt>
      <trkpt lat="46.5132" lon="6.11204">
        <ele>1077.8</ele>
        <time>2026-05-13T05:53:55Z</time>
      </trkpt>
      <trkpt lat="46.51332" lon="6.11189">
        <ele>1076.8</ele>
        <time>2026-05-13T05:53:57Z</time>
      </trkpt>
      <trkpt lat="46.51357" lon="6.11154">
        <ele>1075.2</ele>
        <time>2026-05-13T05:54:01Z</time>
      </trkpt>
      <trkpt lat="46.51376" lon="6.11126">
        <ele>1074.2</ele>
        <time>2026-05-13T05:54:04Z</time>
      </trkpt>
      <trkpt lat="46.51396" lon="6.11096">
        <ele>1072.4</ele>
        <time>2026-05-13T05:54:07Z</time>
      </trkpt>
      <trkpt lat="46.51402" lon="6.11086">
        <ele>1072.2</ele>
        <time>2026-05-13T05:54:08Z</time>
      </trkpt>
      <trkpt lat="46.51408" lon="6.11079">
        <ele>1071.4</ele>
        <time>2026-05-13T05:54:09Z</time>
      </trkpt>
      <trkpt lat="46.51421" lon="6.11059">
        <ele>1070.2</ele>
        <time>2026-05-13T05:54:11Z</time>
      </trkpt>
      <trkpt lat="46.5144" lon="6.1103">
        <ele>1068.8</ele>
        <time>2026-05-13T05:54:14Z</time>
      </trkpt>
      <trkpt lat="46.51447" lon="6.11021">
        <ele>1068</ele>
        <time>2026-05-13T05:54:15Z</time>
      </trkpt>
      <trkpt lat="46.51453" lon="6.11012">
        <ele>1067.8</ele>
        <time>2026-05-13T05:54:16Z</time>
      </trkpt>
      <trkpt lat="46.51476" lon="6.10976">
        <ele>1066.2</ele>
        <time>2026-05-13T05:54:20Z</time>
      </trkpt>
      <trkpt lat="46.51476" lon="6.10976">
        <ele>1066.2</ele>
        <time>2026-05-13T05:54:21Z</time>
      </trkpt>
      <trkpt lat="46.51505" lon="6.10933">
        <ele>1065.2</ele>
        <time>2026-05-13T05:54:25Z</time>
      </trkpt>
      <trkpt lat="46.5154" lon="6.10883">
        <ele>1064.6</ele>
        <time>2026-05-13T05:54:31Z</time>
      </trkpt>
      <trkpt lat="46.51562" lon="6.1085">
        <ele>1064</ele>
        <time>2026-05-13T05:54:35Z</time>
      </trkpt>
      <trkpt lat="46.51579" lon="6.10828">
        <ele>1063.6</ele>
        <time>2026-05-13T05:54:39Z</time>
      </trkpt>
      <trkpt lat="46.51592" lon="6.10815">
        <ele>1063.2</ele>
        <time>2026-05-13T05:54:40Z</time>
      </trkpt>
      <trkpt lat="46.51605" lon="6.10805">
        <ele>1063</ele>
        <time>2026-05-13T05:54:42Z</time>
      </trkpt>
      <trkpt lat="46.51605" lon="6.10805">
        <ele>1063</ele>
        <time>2026-05-13T05:54:43Z</time>
      </trkpt>
      <trkpt lat="46.51658" lon="6.10766">
        <ele>1062.6</ele>
        <time>2026-05-13T05:54:50Z</time>
      </trkpt>
      <trkpt lat="46.51671" lon="6.10757">
        <ele>1062.4</ele>
        <time>2026-05-13T05:54:52Z</time>
      </trkpt>
      <trkpt lat="46.51691" lon="6.10743">
        <ele>1062</ele>
        <time>2026-05-13T05:54:55Z</time>
      </trkpt>
      <trkpt lat="46.51702" lon="6.10735">
        <ele>1061.8</ele>
        <time>2026-05-13T05:54:58Z</time>
      </trkpt>
      <trkpt lat="46.51724" lon="6.10717">
        <ele>1061.6</ele>
        <time>2026-05-13T05:55:02Z</time>
      </trkpt>
      <trkpt lat="46.51757" lon="6.1069">
        <ele>1061.2</ele>
        <time>2026-05-13T05:55:09Z</time>
      </trkpt>
      <trkpt lat="46.51789" lon="6.10653">
        <ele>1061.2</ele>
        <time>2026-05-13T05:55:17Z</time>
      </trkpt>
      <trkpt lat="46.51809" lon="6.10627">
        <ele>1061.8</ele>
        <time>2026-05-13T05:55:25Z</time>
      </trkpt>
      <trkpt lat="46.51817" lon="6.10617">
        <ele>1063</ele>
        <time>2026-05-13T05:55:30Z</time>
      </trkpt>
      <trkpt lat="46.51821" lon="6.10613">
        <ele>1063.4</ele>
        <time>2026-05-13T05:55:32Z</time>
      </trkpt>
      <trkpt lat="46.51824" lon="6.10607">
        <ele>1064.4</ele>
        <time>2026-05-13T05:55:34Z</time>
      </trkpt>
      <trkpt lat="46.51835" lon="6.10598">
        <ele>1065.6</ele>
        <time>2026-05-13T05:55:39Z</time>
      </trkpt>
      <trkpt lat="46.51838" lon="6.10594">
        <ele>1066</ele>
        <time>2026-05-13T05:55:41Z</time>
      </trkpt>
      <trkpt lat="46.51845" lon="6.10589">
        <ele>1066.8</ele>
        <time>2026-05-13T05:55:44Z</time>
      </trkpt>
      <trkpt lat="46.51851" lon="6.10585">
        <ele>1067.8</ele>
        <time>2026-05-13T05:55:47Z</time>
      </trkpt>
      <trkpt lat="46.51851" lon="6.10585">
        <ele>1068.2</ele>
        <time>2026-05-13T05:55:48Z</time>
      </trkpt>
      <trkpt lat="46.51864" lon="6.10574">
        <ele>1069.2</ele>
        <time>2026-05-13T05:55:53Z</time>
      </trkpt>
      <trkpt lat="46.51866" lon="6.10572">
        <ele>1069.6</ele>
        <time>2026-05-13T05:55:54Z</time>
      </trkpt>
      <trkpt lat="46.51874" lon="6.10564">
        <ele>1070.6</ele>
        <time>2026-05-13T05:55:58Z</time>
      </trkpt>
      <trkpt lat="46.51882" lon="6.10555">
        <ele>1071.6</ele>
        <time>2026-05-13T05:56:02Z</time>
      </trkpt>
      <trkpt lat="46.5189" lon="6.10547">
        <ele>1072.6</ele>
        <time>2026-05-13T05:56:07Z</time>
      </trkpt>
      <trkpt lat="46.51895" lon="6.10546">
        <ele>1073</ele>
        <time>2026-05-13T05:56:09Z</time>
      </trkpt>
      <trkpt lat="46.51906" lon="6.10557">
        <ele>1073.4</ele>
        <time>2026-05-13T05:56:13Z</time>
      </trkpt>
      <trkpt lat="46.51914" lon="6.10567">
        <ele>1073.8</ele>
        <time>2026-05-13T05:56:16Z</time>
      </trkpt>
      <trkpt lat="46.51926" lon="6.10583">
        <ele>1073.8</ele>
        <time>2026-05-13T05:56:20Z</time>
      </trkpt>
      <trkpt lat="46.51952" lon="6.10614">
        <ele>1074.6</ele>
        <time>2026-05-13T05:56:29Z</time>
      </trkpt>
      <trkpt lat="46.51961" lon="6.10625">
        <ele>1075</ele>
        <time>2026-05-13T05:56:32Z</time>
      </trkpt>
      <trkpt lat="46.51975" lon="6.10643">
        <ele>1076</ele>
        <time>2026-05-13T05:56:37Z</time>
      </trkpt>
      <trkpt lat="46.51979" lon="6.10647">
        <ele>1076</ele>
        <time>2026-05-13T05:56:38Z</time>
      </trkpt>
      <trkpt lat="46.51996" lon="6.10675">
        <ele>1076.8</ele>
        <time>2026-05-13T05:56:45Z</time>
      </trkpt>
      <trkpt lat="46.52002" lon="6.10686">
        <ele>1077</ele>
        <time>2026-05-13T05:56:48Z</time>
      </trkpt>
      <trkpt lat="46.52009" lon="6.10699">
        <ele>1078</ele>
        <time>2026-05-13T05:56:52Z</time>
      </trkpt>
      <trkpt lat="46.52011" lon="6.10703">
        <ele>1078.2</ele>
        <time>2026-05-13T05:56:53Z</time>
      </trkpt>
      <trkpt lat="46.52016" lon="6.10716">
        <ele>1079.2</ele>
        <time>2026-05-13T05:56:57Z</time>
      </trkpt>
      <trkpt lat="46.5202" lon="6.10723">
        <ele>1079.8</ele>
        <time>2026-05-13T05:56:59Z</time>
      </trkpt>
      <trkpt lat="46.52021" lon="6.10727">
        <ele>1080.2</ele>
        <time>2026-05-13T05:57:00Z</time>
      </trkpt>
      <trkpt lat="46.52029" lon="6.10743">
        <ele>1081.4</ele>
        <time>2026-05-13T05:57:04Z</time>
      </trkpt>
      <trkpt lat="46.52039" lon="6.10766">
        <ele>1082.2</ele>
        <time>2026-05-13T05:57:09Z</time>
      </trkpt>
      <trkpt lat="46.52045" lon="6.10778">
        <ele>1082.4</ele>
        <time>2026-05-13T05:57:12Z</time>
      </trkpt>
      <trkpt lat="46.52054" lon="6.10796">
        <ele>1082.6</ele>
        <time>2026-05-13T05:57:16Z</time>
      </trkpt>
      <trkpt lat="46.52076" lon="6.10823">
        <ele>1083</ele>
        <time>2026-05-13T05:57:23Z</time>
      </trkpt>
      <trkpt lat="46.5211" lon="6.10859">
        <ele>1083.4</ele>
        <time>2026-05-13T05:57:33Z</time>
      </trkpt>
      <trkpt lat="46.52153" lon="6.10907">
        <ele>1084.4</ele>
        <time>2026-05-13T05:57:46Z</time>
      </trkpt>
      <trkpt lat="46.5217" lon="6.10927">
        <ele>1084.4</ele>
        <time>2026-05-13T05:57:51Z</time>
      </trkpt>
      <trkpt lat="46.52182" lon="6.10939">
        <ele>1084.4</ele>
        <time>2026-05-13T05:57:54Z</time>
      </trkpt>
      <trkpt lat="46.52222" lon="6.10983">
        <ele>1084</ele>
        <time>2026-05-13T05:58:04Z</time>
      </trkpt>
      <trkpt lat="46.52246" lon="6.11011">
        <ele>1083.8</ele>
        <time>2026-05-13T05:58:11Z</time>
      </trkpt>
      <trkpt lat="46.52248" lon="6.11014">
        <ele>1083.8</ele>
        <time>2026-05-13T05:58:12Z</time>
      </trkpt>
      <trkpt lat="46.52263" lon="6.1103">
        <ele>1084.2</ele>
        <time>2026-05-13T05:58:16Z</time>
      </trkpt>
      <trkpt lat="46.52266" lon="6.11035">
        <ele>1084.4</ele>
        <time>2026-05-13T05:58:17Z</time>
      </trkpt>
      <trkpt lat="46.52268" lon="6.11039">
        <ele>1084.6</ele>
        <time>2026-05-13T05:58:18Z</time>
      </trkpt>
      <trkpt lat="46.52273" lon="6.11048">
        <ele>1084.8</ele>
        <time>2026-05-13T05:58:20Z</time>
      </trkpt>
      <trkpt lat="46.52282" lon="6.11068">
        <ele>1085.2</ele>
        <time>2026-05-13T05:58:24Z</time>
      </trkpt>
      <trkpt lat="46.52287" lon="6.11085">
        <ele>1085.6</ele>
        <time>2026-05-13T05:58:27Z</time>
      </trkpt>
      <trkpt lat="46.5229" lon="6.11091">
        <ele>1085.8</ele>
        <time>2026-05-13T05:58:28Z</time>
      </trkpt>
      <trkpt lat="46.52305" lon="6.11126">
        <ele>1086.2</ele>
        <time>2026-05-13T05:58:34Z</time>
      </trkpt>
      <trkpt lat="46.52309" lon="6.11132">
        <ele>1086.2</ele>
        <time>2026-05-13T05:58:35Z</time>
      </trkpt>
      <trkpt lat="46.52334" lon="6.11175">
        <ele>1085.6</ele>
        <time>2026-05-13T05:58:42Z</time>
      </trkpt>
      <trkpt lat="46.52364" lon="6.11229">
        <ele>1084.6</ele>
        <time>2026-05-13T05:58:50Z</time>
      </trkpt>
      <trkpt lat="46.52382" lon="6.11263">
        <ele>1083.4</ele>
        <time>2026-05-13T05:58:55Z</time>
      </trkpt>
      <trkpt lat="46.52394" lon="6.11279">
        <ele>1083.2</ele>
        <time>2026-05-13T05:58:58Z</time>
      </trkpt>
      <trkpt lat="46.52422" lon="6.1131">
        <ele>1082.2</ele>
        <time>2026-05-13T05:59:04Z</time>
      </trkpt>
      <trkpt lat="46.52426" lon="6.11316">
        <ele>1082.2</ele>
        <time>2026-05-13T05:59:05Z</time>
      </trkpt>
      <trkpt lat="46.52442" lon="6.11337">
        <ele>1081</ele>
        <time>2026-05-13T05:59:09Z</time>
      </trkpt>
      <trkpt lat="46.52446" lon="6.11341">
        <ele>1081</ele>
        <time>2026-05-13T05:59:10Z</time>
      </trkpt>
      <trkpt lat="46.52449" lon="6.11343">
        <ele>1080.6</ele>
        <time>2026-05-13T05:59:11Z</time>
      </trkpt>
      <trkpt lat="46.52452" lon="6.11343">
        <ele>1080.4</ele>
        <time>2026-05-13T05:59:12Z</time>
      </trkpt>
      <trkpt lat="46.52458" lon="6.11339">
        <ele>1080</ele>
        <time>2026-05-13T05:59:14Z</time>
      </trkpt>
      <trkpt lat="46.52464" lon="6.11322">
        <ele>1080</ele>
        <time>2026-05-13T05:59:19Z</time>
      </trkpt>
      <trkpt lat="46.52468" lon="6.11304">
        <ele>1081.2</ele>
        <time>2026-05-13T05:59:25Z</time>
      </trkpt>
      <trkpt lat="46.52468" lon="6.11304">
        <ele>1081.2</ele>
        <time>2026-05-13T05:59:26Z</time>
      </trkpt>
      <trkpt lat="46.52468" lon="6.11292">
        <ele>1082.2</ele>
        <time>2026-05-13T05:59:29Z</time>
      </trkpt>
      <trkpt lat="46.52466" lon="6.11281">
        <ele>1082.8</ele>
        <time>2026-05-13T05:59:33Z</time>
      </trkpt>
      <trkpt lat="46.52465" lon="6.11279">
        <ele>1083.2</ele>
        <time>2026-05-13T05:59:34Z</time>
      </trkpt>
      <trkpt lat="46.5246" lon="6.11272">
        <ele>1084.4</ele>
        <time>2026-05-13T05:59:38Z</time>
      </trkpt>
      <trkpt lat="46.52456" lon="6.11264">
        <ele>1085.2</ele>
        <time>2026-05-13T05:59:40Z</time>
      </trkpt>
      <trkpt lat="46.52456" lon="6.11264">
        <ele>1085.4</ele>
        <time>2026-05-13T05:59:41Z</time>
      </trkpt>
      <trkpt lat="46.52451" lon="6.11255">
        <ele>1086.6</ele>
        <time>2026-05-13T05:59:44Z</time>
      </trkpt>
      <trkpt lat="46.52447" lon="6.11249">
        <ele>1087.4</ele>
        <time>2026-05-13T05:59:47Z</time>
      </trkpt>
      <trkpt lat="46.52445" lon="6.11247">
        <ele>1087.8</ele>
        <time>2026-05-13T05:59:48Z</time>
      </trkpt>
      <trkpt lat="46.52437" lon="6.11237">
        <ele>1089</ele>
        <time>2026-05-13T05:59:53Z</time>
      </trkpt>
      <trkpt lat="46.52429" lon="6.11225">
        <ele>1089.8</ele>
        <time>2026-05-13T05:59:57Z</time>
      </trkpt>
      <trkpt lat="46.52428" lon="6.11219">
        <ele>1090</ele>
        <time>2026-05-13T05:59:59Z</time>
      </trkpt>
      <trkpt lat="46.52425" lon="6.11209">
        <ele>1091</ele>
        <time>2026-05-13T06:00:03Z</time>
      </trkpt>
      <trkpt lat="46.52422" lon="6.11205">
        <ele>1091.4</ele>
        <time>2026-05-13T06:00:05Z</time>
      </trkpt>
      <trkpt lat="46.52419" lon="6.11199">
        <ele>1092.2</ele>
        <time>2026-05-13T06:00:08Z</time>
      </trkpt>
      <trkpt lat="46.52417" lon="6.11193">
        <ele>1093</ele>
        <time>2026-05-13T06:00:11Z</time>
      </trkpt>
      <trkpt lat="46.52414" lon="6.11188">
        <ele>1093.6</ele>
        <time>2026-05-13T06:00:13Z</time>
      </trkpt>
      <trkpt lat="46.52406" lon="6.11176">
        <ele>1094.4</ele>
        <time>2026-05-13T06:00:19Z</time>
      </trkpt>
      <trkpt lat="46.52405" lon="6.11174">
        <ele>1094.6</ele>
        <time>2026-05-13T06:00:20Z</time>
      </trkpt>
      <trkpt lat="46.52404" lon="6.1117">
        <ele>1095</ele>
        <time>2026-05-13T06:00:22Z</time>
      </trkpt>
      <trkpt lat="46.52402" lon="6.11163">
        <ele>1095.8</ele>
        <time>2026-05-13T06:00:25Z</time>
      </trkpt>
      <trkpt lat="46.52399" lon="6.11159">
        <ele>1096.2</ele>
        <time>2026-05-13T06:00:27Z</time>
      </trkpt>
      <trkpt lat="46.52396" lon="6.11153">
        <ele>1096.8</ele>
        <time>2026-05-13T06:00:29Z</time>
      </trkpt>
      <trkpt lat="46.52395" lon="6.11151">
        <ele>1097.2</ele>
        <time>2026-05-13T06:00:30Z</time>
      </trkpt>
      <trkpt lat="46.52392" lon="6.11142">
        <ele>1098</ele>
        <time>2026-05-13T06:00:33Z</time>
      </trkpt>
      <trkpt lat="46.5239" lon="6.11137">
        <ele>1098.2</ele>
        <time>2026-05-13T06:00:35Z</time>
      </trkpt>
      <trkpt lat="46.5239" lon="6.11134">
        <ele>1098.8</ele>
        <time>2026-05-13T06:00:36Z</time>
      </trkpt>
      <trkpt lat="46.52389" lon="6.11128">
        <ele>1099.2</ele>
        <time>2026-05-13T06:00:38Z</time>
      </trkpt>
      <trkpt lat="46.52388" lon="6.11126">
        <ele>1099.4</ele>
        <time>2026-05-13T06:00:39Z</time>
      </trkpt>
      <trkpt lat="46.52383" lon="6.11114">
        <ele>1100.6</ele>
        <time>2026-05-13T06:00:44Z</time>
      </trkpt>
      <trkpt lat="46.52382" lon="6.11109">
        <ele>1101</ele>
        <time>2026-05-13T06:00:46Z</time>
      </trkpt>
      <trkpt lat="46.52379" lon="6.11104">
        <ele>1101.6</ele>
        <time>2026-05-13T06:00:48Z</time>
      </trkpt>
      <trkpt lat="46.52377" lon="6.11102">
        <ele>1102</ele>
        <time>2026-05-13T06:00:49Z</time>
      </trkpt>
      <trkpt lat="46.5237" lon="6.11087">
        <ele>1103</ele>
        <time>2026-05-13T06:00:55Z</time>
      </trkpt>
      <trkpt lat="46.52369" lon="6.11084">
        <ele>1103.2</ele>
        <time>2026-05-13T06:00:56Z</time>
      </trkpt>
      <trkpt lat="46.52367" lon="6.11076">
        <ele>1104</ele>
        <time>2026-05-13T06:00:59Z</time>
      </trkpt>
      <trkpt lat="46.52367" lon="6.11074">
        <ele>1104</ele>
        <time>2026-05-13T06:01:00Z</time>
      </trkpt>
      <trkpt lat="46.52364" lon="6.11064">
        <ele>1105</ele>
        <time>2026-05-13T06:01:04Z</time>
      </trkpt>
      <trkpt lat="46.52363" lon="6.11061">
        <ele>1105.2</ele>
        <time>2026-05-13T06:01:05Z</time>
      </trkpt>
      <trkpt lat="46.52362" lon="6.11055">
        <ele>1105.8</ele>
        <time>2026-05-13T06:01:07Z</time>
      </trkpt>
      <trkpt lat="46.52361" lon="6.11049">
        <ele>1106.4</ele>
        <time>2026-05-13T06:01:09Z</time>
      </trkpt>
      <trkpt lat="46.52358" lon="6.11037">
        <ele>1107.2</ele>
        <time>2026-05-13T06:01:13Z</time>
      </trkpt>
      <trkpt lat="46.52357" lon="6.11035">
        <ele>1107.4</ele>
        <time>2026-05-13T06:01:14Z</time>
      </trkpt>
      <trkpt lat="46.52355" lon="6.11034">
        <ele>1107.6</ele>
        <time>2026-05-13T06:01:15Z</time>
      </trkpt>
      <trkpt lat="46.52353" lon="6.11021">
        <ele>1108.4</ele>
        <time>2026-05-13T06:01:20Z</time>
      </trkpt>
      <trkpt lat="46.52352" lon="6.11016">
        <ele>1108.8</ele>
        <time>2026-05-13T06:01:22Z</time>
      </trkpt>
      <trkpt lat="46.5235" lon="6.11012">
        <ele>1109.4</ele>
        <time>2026-05-13T06:01:24Z</time>
      </trkpt>
      <trkpt lat="46.52348" lon="6.11004">
        <ele>1109.8</ele>
        <time>2026-05-13T06:01:27Z</time>
      </trkpt>
      <trkpt lat="46.52347" lon="6.10999">
        <ele>1110.2</ele>
        <time>2026-05-13T06:01:29Z</time>
      </trkpt>
      <trkpt lat="46.52346" lon="6.10997">
        <ele>1110.4</ele>
        <time>2026-05-13T06:01:30Z</time>
      </trkpt>
      <trkpt lat="46.52343" lon="6.10989">
        <ele>1111</ele>
        <time>2026-05-13T06:01:33Z</time>
      </trkpt>
      <trkpt lat="46.52343" lon="6.10987">
        <ele>1111.4</ele>
        <time>2026-05-13T06:01:34Z</time>
      </trkpt>
      <trkpt lat="46.52342" lon="6.10984">
        <ele>1111.6</ele>
        <time>2026-05-13T06:01:35Z</time>
      </trkpt>
      <trkpt lat="46.52342" lon="6.10982">
        <ele>1111.8</ele>
        <time>2026-05-13T06:01:36Z</time>
      </trkpt>
      <trkpt lat="46.52341" lon="6.10973">
        <ele>1112.6</ele>
        <time>2026-05-13T06:01:39Z</time>
      </trkpt>
      <trkpt lat="46.52337" lon="6.10962">
        <ele>1113.6</ele>
        <time>2026-05-13T06:01:43Z</time>
      </trkpt>
      <trkpt lat="46.52337" lon="6.10957">
        <ele>1114.2</ele>
        <time>2026-05-13T06:01:45Z</time>
      </trkpt>
      <trkpt lat="46.52337" lon="6.10951">
        <ele>1114.8</ele>
        <time>2026-05-13T06:01:47Z</time>
      </trkpt>
      <trkpt lat="46.52335" lon="6.10942">
        <ele>1115.4</ele>
        <time>2026-05-13T06:01:50Z</time>
      </trkpt>
      <trkpt lat="46.52334" lon="6.10935">
        <ele>1116</ele>
        <time>2026-05-13T06:01:52Z</time>
      </trkpt>
      <trkpt lat="46.52334" lon="6.10928">
        <ele>1116.6</ele>
        <time>2026-05-13T06:01:54Z</time>
      </trkpt>
      <trkpt lat="46.52334" lon="6.10922">
        <ele>1116.8</ele>
        <time>2026-05-13T06:01:56Z</time>
      </trkpt>
      <trkpt lat="46.52333" lon="6.10917">
        <ele>1117.2</ele>
        <time>2026-05-13T06:01:58Z</time>
      </trkpt>
      <trkpt lat="46.52332" lon="6.10906">
        <ele>1118</ele>
        <time>2026-05-13T06:02:01Z</time>
      </trkpt>
      <trkpt lat="46.5233" lon="6.10892">
        <ele>1119.2</ele>
        <time>2026-05-13T06:02:05Z</time>
      </trkpt>
      <trkpt lat="46.5233" lon="6.10889">
        <ele>1119.2</ele>
        <time>2026-05-13T06:02:06Z</time>
      </trkpt>
      <trkpt lat="46.52326" lon="6.1087">
        <ele>1120.2</ele>
        <time>2026-05-13T06:02:11Z</time>
      </trkpt>
      <trkpt lat="46.52325" lon="6.10868">
        <ele>1120.4</ele>
        <time>2026-05-13T06:02:12Z</time>
      </trkpt>
      <trkpt lat="46.52324" lon="6.10866">
        <ele>1120.6</ele>
        <time>2026-05-13T06:02:13Z</time>
      </trkpt>
      <trkpt lat="46.52323" lon="6.10865">
        <ele>1121.4</ele>
        <time>2026-05-13T06:02:15Z</time>
      </trkpt>
      <trkpt lat="46.52322" lon="6.10861">
        <ele>1121.4</ele>
        <time>2026-05-13T06:02:16Z</time>
      </trkpt>
      <trkpt lat="46.52321" lon="6.10856">
        <ele>1122.2</ele>
        <time>2026-05-13T06:02:18Z</time>
      </trkpt>
      <trkpt lat="46.5232" lon="6.10854">
        <ele>1122.4</ele>
        <time>2026-05-13T06:02:19Z</time>
      </trkpt>
      <trkpt lat="46.52318" lon="6.1085">
        <ele>1123</ele>
        <time>2026-05-13T06:02:21Z</time>
      </trkpt>
      <trkpt lat="46.52318" lon="6.1085">
        <ele>1123.6</ele>
        <time>2026-05-13T06:02:22Z</time>
      </trkpt>
      <trkpt lat="46.52317" lon="6.10846">
        <ele>1123.8</ele>
        <time>2026-05-13T06:02:23Z</time>
      </trkpt>
      <trkpt lat="46.52317" lon="6.10843">
        <ele>1124.2</ele>
        <time>2026-05-13T06:02:25Z</time>
      </trkpt>
      <trkpt lat="46.52317" lon="6.1084">
        <ele>1124.4</ele>
        <time>2026-05-13T06:02:26Z</time>
      </trkpt>
      <trkpt lat="46.52317" lon="6.10838">
        <ele>1124.6</ele>
        <time>2026-05-13T06:02:27Z</time>
      </trkpt>
      <trkpt lat="46.52317" lon="6.10835">
        <ele>1124.8</ele>
        <time>2026-05-13T06:02:28Z</time>
      </trkpt>
      <trkpt lat="46.52316" lon="6.10831">
        <ele>1125.2</ele>
        <time>2026-05-13T06:02:30Z</time>
      </trkpt>
      <trkpt lat="46.52316" lon="6.10829">
        <ele>1125.4</ele>
        <time>2026-05-13T06:02:31Z</time>
      </trkpt>
      <trkpt lat="46.52316" lon="6.10829">
        <ele>1125.6</ele>
        <time>2026-05-13T06:02:32Z</time>
      </trkpt>
      <trkpt lat="46.52314" lon="6.10818">
        <ele>1126.2</ele>
        <time>2026-05-13T06:02:35Z</time>
      </trkpt>
      <trkpt lat="46.52313" lon="6.10812">
        <ele>1126.6</ele>
        <time>2026-05-13T06:02:37Z</time>
      </trkpt>
      <trkpt lat="46.52313" lon="6.10808">
        <ele>1126.8</ele>
        <time>2026-05-13T06:02:38Z</time>
      </trkpt>
      <trkpt lat="46.52309" lon="6.10794">
        <ele>1127.6</ele>
        <time>2026-05-13T06:02:42Z</time>
      </trkpt>
      <trkpt lat="46.52307" lon="6.1079">
        <ele>1127.8</ele>
        <time>2026-05-13T06:02:43Z</time>
      </trkpt>
      <trkpt lat="46.52299" lon="6.10779">
        <ele>1128.8</ele>
        <time>2026-05-13T06:02:47Z</time>
      </trkpt>
      <trkpt lat="46.52299" lon="6.10776">
        <ele>1129.2</ele>
        <time>2026-05-13T06:02:48Z</time>
      </trkpt>
      <trkpt lat="46.52299" lon="6.10774">
        <ele>1129.4</ele>
        <time>2026-05-13T06:02:49Z</time>
      </trkpt>
      <trkpt lat="46.52295" lon="6.10765">
        <ele>1130</ele>
        <time>2026-05-13T06:02:52Z</time>
      </trkpt>
      <trkpt lat="46.52293" lon="6.10762">
        <ele>1130.6</ele>
        <time>2026-05-13T06:02:54Z</time>
      </trkpt>
      <trkpt lat="46.52291" lon="6.10754">
        <ele>1131.2</ele>
        <time>2026-05-13T06:02:57Z</time>
      </trkpt>
      <trkpt lat="46.52288" lon="6.10745">
        <ele>1131.8</ele>
        <time>2026-05-13T06:03:00Z</time>
      </trkpt>
      <trkpt lat="46.52288" lon="6.10743">
        <ele>1132.2</ele>
        <time>2026-05-13T06:03:01Z</time>
      </trkpt>
      <trkpt lat="46.52285" lon="6.1073">
        <ele>1133.6</ele>
        <time>2026-05-13T06:03:06Z</time>
      </trkpt>
      <trkpt lat="46.52285" lon="6.10728">
        <ele>1133.8</ele>
        <time>2026-05-13T06:03:07Z</time>
      </trkpt>
      <trkpt lat="46.52281" lon="6.10719">
        <ele>1134.6</ele>
        <time>2026-05-13T06:03:11Z</time>
      </trkpt>
      <trkpt lat="46.52281" lon="6.10716">
        <ele>1134.8</ele>
        <time>2026-05-13T06:03:12Z</time>
      </trkpt>
      <trkpt lat="46.52281" lon="6.10714">
        <ele>1135.2</ele>
        <time>2026-05-13T06:03:13Z</time>
      </trkpt>
      <trkpt lat="46.52278" lon="6.10709">
        <ele>1135.6</ele>
        <time>2026-05-13T06:03:15Z</time>
      </trkpt>
      <trkpt lat="46.52275" lon="6.10701">
        <ele>1136.4</ele>
        <time>2026-05-13T06:03:18Z</time>
      </trkpt>
      <trkpt lat="46.52274" lon="6.10699">
        <ele>1136.4</ele>
        <time>2026-05-13T06:03:19Z</time>
      </trkpt>
      <trkpt lat="46.52273" lon="6.10697">
        <ele>1136.8</ele>
        <time>2026-05-13T06:03:20Z</time>
      </trkpt>
      <trkpt lat="46.52271" lon="6.10689">
        <ele>1137.2</ele>
        <time>2026-05-13T06:03:23Z</time>
      </trkpt>
      <trkpt lat="46.52269" lon="6.10684">
        <ele>1137.8</ele>
        <time>2026-05-13T06:03:25Z</time>
      </trkpt>
      <trkpt lat="46.52264" lon="6.10671">
        <ele>1138.8</ele>
        <time>2026-05-13T06:03:29Z</time>
      </trkpt>
      <trkpt lat="46.52263" lon="6.10668">
        <ele>1139</ele>
        <time>2026-05-13T06:03:30Z</time>
      </trkpt>
      <trkpt lat="46.52259" lon="6.10652">
        <ele>1140</ele>
        <time>2026-05-13T06:03:35Z</time>
      </trkpt>
      <trkpt lat="46.52259" lon="6.1065">
        <ele>1140.4</ele>
        <time>2026-05-13T06:03:36Z</time>
      </trkpt>
      <trkpt lat="46.52257" lon="6.10644">
        <ele>1141.2</ele>
        <time>2026-05-13T06:03:39Z</time>
      </trkpt>
      <trkpt lat="46.52254" lon="6.10636">
        <ele>1141.4</ele>
        <time>2026-05-13T06:03:42Z</time>
      </trkpt>
      <trkpt lat="46.52253" lon="6.1063">
        <ele>1142.2</ele>
        <time>2026-05-13T06:03:44Z</time>
      </trkpt>
      <trkpt lat="46.52249" lon="6.10619">
        <ele>1143</ele>
        <time>2026-05-13T06:03:48Z</time>
      </trkpt>
      <trkpt lat="46.52248" lon="6.10617">
        <ele>1143.4</ele>
        <time>2026-05-13T06:03:49Z</time>
      </trkpt>
      <trkpt lat="46.52244" lon="6.10604">
        <ele>1144.2</ele>
        <time>2026-05-13T06:03:54Z</time>
      </trkpt>
      <trkpt lat="46.52244" lon="6.10601">
        <ele>1144.4</ele>
        <time>2026-05-13T06:03:55Z</time>
      </trkpt>
      <trkpt lat="46.52241" lon="6.10592">
        <ele>1145.2</ele>
        <time>2026-05-13T06:03:59Z</time>
      </trkpt>
      <trkpt lat="46.5224" lon="6.10587">
        <ele>1145.4</ele>
        <time>2026-05-13T06:04:00Z</time>
      </trkpt>
      <trkpt lat="46.52241" lon="6.10578">
        <ele>1146.4</ele>
        <time>2026-05-13T06:04:04Z</time>
      </trkpt>
      <trkpt lat="46.52237" lon="6.1057">
        <ele>1147</ele>
        <time>2026-05-13T06:04:07Z</time>
      </trkpt>
      <trkpt lat="46.52234" lon="6.10567">
        <ele>1147.4</ele>
        <time>2026-05-13T06:04:09Z</time>
      </trkpt>
      <trkpt lat="46.52231" lon="6.10559">
        <ele>1148.4</ele>
        <time>2026-05-13T06:04:13Z</time>
      </trkpt>
      <trkpt lat="46.52228" lon="6.10553">
        <ele>1149.4</ele>
        <time>2026-05-13T06:04:16Z</time>
      </trkpt>
      <trkpt lat="46.52222" lon="6.10541">
        <ele>1150.4</ele>
        <time>2026-05-13T06:04:21Z</time>
      </trkpt>
      <trkpt lat="46.5222" lon="6.10533">
        <ele>1151.2</ele>
        <time>2026-05-13T06:04:24Z</time>
      </trkpt>
      <trkpt lat="46.52219" lon="6.10529">
        <ele>1151.8</ele>
        <time>2026-05-13T06:04:26Z</time>
      </trkpt>
      <trkpt lat="46.52216" lon="6.10522">
        <ele>1152.6</ele>
        <time>2026-05-13T06:04:29Z</time>
      </trkpt>
      <trkpt lat="46.52215" lon="6.1052">
        <ele>1152.8</ele>
        <time>2026-05-13T06:04:30Z</time>
      </trkpt>
      <trkpt lat="46.52215" lon="6.10517">
        <ele>1153</ele>
        <time>2026-05-13T06:04:31Z</time>
      </trkpt>
      <trkpt lat="46.52213" lon="6.10513">
        <ele>1153.6</ele>
        <time>2026-05-13T06:04:33Z</time>
      </trkpt>
      <trkpt lat="46.52212" lon="6.1051">
        <ele>1153.6</ele>
        <time>2026-05-13T06:04:34Z</time>
      </trkpt>
      <trkpt lat="46.5221" lon="6.10505">
        <ele>1154.4</ele>
        <time>2026-05-13T06:04:36Z</time>
      </trkpt>
      <trkpt lat="46.52208" lon="6.105">
        <ele>1154.6</ele>
        <time>2026-05-13T06:04:38Z</time>
      </trkpt>
      <trkpt lat="46.52207" lon="6.10498">
        <ele>1154.8</ele>
        <time>2026-05-13T06:04:39Z</time>
      </trkpt>
      <trkpt lat="46.52204" lon="6.10492">
        <ele>1155.4</ele>
        <time>2026-05-13T06:04:41Z</time>
      </trkpt>
      <trkpt lat="46.522" lon="6.10484">
        <ele>1156</ele>
        <time>2026-05-13T06:04:44Z</time>
      </trkpt>
      <trkpt lat="46.52198" lon="6.10479">
        <ele>1156.4</ele>
        <time>2026-05-13T06:04:46Z</time>
      </trkpt>
      <trkpt lat="46.52196" lon="6.10476">
        <ele>1156.8</ele>
        <time>2026-05-13T06:04:47Z</time>
      </trkpt>
      <trkpt lat="46.52195" lon="6.10474">
        <ele>1157</ele>
        <time>2026-05-13T06:04:48Z</time>
      </trkpt>
      <trkpt lat="46.52189" lon="6.10462">
        <ele>1158</ele>
        <time>2026-05-13T06:04:53Z</time>
      </trkpt>
      <trkpt lat="46.52187" lon="6.10457">
        <ele>1158.4</ele>
        <time>2026-05-13T06:04:55Z</time>
      </trkpt>
      <trkpt lat="46.52181" lon="6.10447">
        <ele>1159</ele>
        <time>2026-05-13T06:05:00Z</time>
      </trkpt>
      <trkpt lat="46.52178" lon="6.10442">
        <ele>1159.6</ele>
        <time>2026-05-13T06:05:02Z</time>
      </trkpt>
      <trkpt lat="46.52174" lon="6.10436">
        <ele>1160.2</ele>
        <time>2026-05-13T06:05:05Z</time>
      </trkpt>
      <trkpt lat="46.52172" lon="6.10433">
        <ele>1160.4</ele>
        <time>2026-05-13T06:05:06Z</time>
      </trkpt>
      <trkpt lat="46.52169" lon="6.10429">
        <ele>1160.6</ele>
        <time>2026-05-13T06:05:08Z</time>
      </trkpt>
      <trkpt lat="46.52166" lon="6.10423">
        <ele>1161.2</ele>
        <time>2026-05-13T06:05:10Z</time>
      </trkpt>
      <trkpt lat="46.52164" lon="6.10422">
        <ele>1161.4</ele>
        <time>2026-05-13T06:05:11Z</time>
      </trkpt>
      <trkpt lat="46.52164" lon="6.10419">
        <ele>1161.6</ele>
        <time>2026-05-13T06:05:12Z</time>
      </trkpt>
      <trkpt lat="46.52164" lon="6.10416">
        <ele>1161.8</ele>
        <time>2026-05-13T06:05:13Z</time>
      </trkpt>
      <trkpt lat="46.52163" lon="6.1041">
        <ele>1162.2</ele>
        <time>2026-05-13T06:05:15Z</time>
      </trkpt>
      <trkpt lat="46.52164" lon="6.10405">
        <ele>1162.4</ele>
        <time>2026-05-13T06:05:17Z</time>
      </trkpt>
      <trkpt lat="46.52164" lon="6.10403">
        <ele>1162.6</ele>
        <time>2026-05-13T06:05:18Z</time>
      </trkpt>
      <trkpt lat="46.52165" lon="6.10395">
        <ele>1163.6</ele>
        <time>2026-05-13T06:05:22Z</time>
      </trkpt>
      <trkpt lat="46.52167" lon="6.10393">
        <ele>1163.8</ele>
        <time>2026-05-13T06:05:24Z</time>
      </trkpt>
      <trkpt lat="46.5217" lon="6.1039">
        <ele>1164.6</ele>
        <time>2026-05-13T06:05:27Z</time>
      </trkpt>
      <trkpt lat="46.52173" lon="6.10391">
        <ele>1165</ele>
        <time>2026-05-13T06:05:29Z</time>
      </trkpt>
      <trkpt lat="46.52181" lon="6.10392">
        <ele>1165.6</ele>
        <time>2026-05-13T06:05:32Z</time>
      </trkpt>
      <trkpt lat="46.52183" lon="6.10393">
        <ele>1166</ele>
        <time>2026-05-13T06:05:33Z</time>
      </trkpt>
      <trkpt lat="46.52191" lon="6.10398">
        <ele>1166.4</ele>
        <time>2026-05-13T06:05:36Z</time>
      </trkpt>
      <trkpt lat="46.52199" lon="6.10401">
        <ele>1166.8</ele>
        <time>2026-05-13T06:05:39Z</time>
      </trkpt>
      <trkpt lat="46.52211" lon="6.10405">
        <ele>1167.8</ele>
        <time>2026-05-13T06:05:44Z</time>
      </trkpt>
      <trkpt lat="46.52213" lon="6.10405">
        <ele>1167.8</ele>
        <time>2026-05-13T06:05:45Z</time>
      </trkpt>
      <trkpt lat="46.52219" lon="6.10405">
        <ele>1168.8</ele>
        <time>2026-05-13T06:05:48Z</time>
      </trkpt>
      <trkpt lat="46.52228" lon="6.10405">
        <ele>1169.4</ele>
        <time>2026-05-13T06:05:52Z</time>
      </trkpt>
      <trkpt lat="46.5223" lon="6.10405">
        <ele>1169.6</ele>
        <time>2026-05-13T06:05:53Z</time>
      </trkpt>
      <trkpt lat="46.52241" lon="6.10408">
        <ele>1170.8</ele>
        <time>2026-05-13T06:05:59Z</time>
      </trkpt>
      <trkpt lat="46.52242" lon="6.10408">
        <ele>1171</ele>
        <time>2026-05-13T06:06:00Z</time>
      </trkpt>
      <trkpt lat="46.52248" lon="6.10411">
        <ele>1171.8</ele>
        <time>2026-05-13T06:06:04Z</time>
      </trkpt>
      <trkpt lat="46.52254" lon="6.10412">
        <ele>1172.4</ele>
        <time>2026-05-13T06:06:07Z</time>
      </trkpt>
      <trkpt lat="46.52257" lon="6.10414">
        <ele>1173.2</ele>
        <time>2026-05-13T06:06:09Z</time>
      </trkpt>
      <trkpt lat="46.52265" lon="6.10417">
        <ele>1174.2</ele>
        <time>2026-05-13T06:06:14Z</time>
      </trkpt>
      <trkpt lat="46.52267" lon="6.10418">
        <ele>1174.4</ele>
        <time>2026-05-13T06:06:15Z</time>
      </trkpt>
      <trkpt lat="46.52275" lon="6.10422">
        <ele>1175.6</ele>
        <time>2026-05-13T06:06:19Z</time>
      </trkpt>
      <trkpt lat="46.52283" lon="6.10431">
        <ele>1176.2</ele>
        <time>2026-05-13T06:06:23Z</time>
      </trkpt>
      <trkpt lat="46.52284" lon="6.10433">
        <ele>1176.6</ele>
        <time>2026-05-13T06:06:24Z</time>
      </trkpt>
      <trkpt lat="46.52293" lon="6.10442">
        <ele>1177.8</ele>
        <time>2026-05-13T06:06:29Z</time>
      </trkpt>
      <trkpt lat="46.52294" lon="6.10443">
        <ele>1178</ele>
        <time>2026-05-13T06:06:30Z</time>
      </trkpt>
      <trkpt lat="46.52303" lon="6.10451">
        <ele>1179</ele>
        <time>2026-05-13T06:06:34Z</time>
      </trkpt>
      <trkpt lat="46.52309" lon="6.10454">
        <ele>1179.6</ele>
        <time>2026-05-13T06:06:38Z</time>
      </trkpt>
      <trkpt lat="46.52311" lon="6.10456">
        <ele>1180.2</ele>
        <time>2026-05-13T06:06:40Z</time>
      </trkpt>
      <trkpt lat="46.52314" lon="6.10458">
        <ele>1181</ele>
        <time>2026-05-13T06:06:43Z</time>
      </trkpt>
      <trkpt lat="46.52316" lon="6.10459">
        <ele>1181.4</ele>
        <time>2026-05-13T06:06:44Z</time>
      </trkpt>
      <trkpt lat="46.52317" lon="6.10459">
        <ele>1181.6</ele>
        <time>2026-05-13T06:06:45Z</time>
      </trkpt>
      <trkpt lat="46.52326" lon="6.10462">
        <ele>1182.6</ele>
        <time>2026-05-13T06:06:50Z</time>
      </trkpt>
      <trkpt lat="46.52328" lon="6.10462">
        <ele>1183</ele>
        <time>2026-05-13T06:06:51Z</time>
      </trkpt>
      <trkpt lat="46.52336" lon="6.10464">
        <ele>1183.6</ele>
        <time>2026-05-13T06:06:55Z</time>
      </trkpt>
      <trkpt lat="46.52348" lon="6.10467">
        <ele>1184.8</ele>
        <time>2026-05-13T06:07:00Z</time>
      </trkpt>
      <trkpt lat="46.52351" lon="6.10468">
        <ele>1185</ele>
        <time>2026-05-13T06:07:01Z</time>
      </trkpt>
      <trkpt lat="46.5236" lon="6.10471">
        <ele>1185.8</ele>
        <time>2026-05-13T06:07:04Z</time>
      </trkpt>
      <trkpt lat="46.52372" lon="6.10478">
        <ele>1186.8</ele>
        <time>2026-05-13T06:07:08Z</time>
      </trkpt>
      <trkpt lat="46.52374" lon="6.10479">
        <ele>1187.2</ele>
        <time>2026-05-13T06:07:09Z</time>
      </trkpt>
      <trkpt lat="46.52376" lon="6.10479">
        <ele>1187.8</ele>
        <time>2026-05-13T06:07:11Z</time>
      </trkpt>
      <trkpt lat="46.52377" lon="6.10479">
        <ele>1188</ele>
        <time>2026-05-13T06:07:12Z</time>
      </trkpt>
      <trkpt lat="46.52382" lon="6.10481">
        <ele>1188.6</ele>
        <time>2026-05-13T06:07:14Z</time>
      </trkpt>
      <trkpt lat="46.52384" lon="6.10482">
        <ele>1189</ele>
        <time>2026-05-13T06:07:15Z</time>
      </trkpt>
      <trkpt lat="46.52396" lon="6.10488">
        <ele>1190</ele>
        <time>2026-05-13T06:07:20Z</time>
      </trkpt>
      <trkpt lat="46.52404" lon="6.10494">
        <ele>1191</ele>
        <time>2026-05-13T06:07:24Z</time>
      </trkpt>
      <trkpt lat="46.52406" lon="6.10495">
        <ele>1191.4</ele>
        <time>2026-05-13T06:07:25Z</time>
      </trkpt>
      <trkpt lat="46.52413" lon="6.105">
        <ele>1192.6</ele>
        <time>2026-05-13T06:07:30Z</time>
      </trkpt>
      <trkpt lat="46.52418" lon="6.10503">
        <ele>1193</ele>
        <time>2026-05-13T06:07:33Z</time>
      </trkpt>
      <trkpt lat="46.5242" lon="6.10504">
        <ele>1193.6</ele>
        <time>2026-05-13T06:07:34Z</time>
      </trkpt>
      <trkpt lat="46.52421" lon="6.10504">
        <ele>1194</ele>
        <time>2026-05-13T06:07:35Z</time>
      </trkpt>
      <trkpt lat="46.52423" lon="6.10505">
        <ele>1194</ele>
        <time>2026-05-13T06:07:36Z</time>
      </trkpt>
      <trkpt lat="46.52427" lon="6.10508">
        <ele>1194.2</ele>
        <time>2026-05-13T06:07:38Z</time>
      </trkpt>
      <trkpt lat="46.52433" lon="6.10513">
        <ele>1195</ele>
        <time>2026-05-13T06:07:42Z</time>
      </trkpt>
      <trkpt lat="46.52436" lon="6.10516">
        <ele>1195.4</ele>
        <time>2026-05-13T06:07:44Z</time>
      </trkpt>
      <trkpt lat="46.5244" lon="6.10519">
        <ele>1196</ele>
        <time>2026-05-13T06:07:46Z</time>
      </trkpt>
      <trkpt lat="46.52447" lon="6.10528">
        <ele>1197</ele>
        <time>2026-05-13T06:07:51Z</time>
      </trkpt>
      <trkpt lat="46.52455" lon="6.10533">
        <ele>1198.2</ele>
        <time>2026-05-13T06:07:56Z</time>
      </trkpt>
      <trkpt lat="46.52459" lon="6.10536">
        <ele>1198.6</ele>
        <time>2026-05-13T06:07:58Z</time>
      </trkpt>
      <trkpt lat="46.52464" lon="6.10539">
        <ele>1199</ele>
        <time>2026-05-13T06:08:01Z</time>
      </trkpt>
      <trkpt lat="46.52465" lon="6.1054">
        <ele>1199.4</ele>
        <time>2026-05-13T06:08:02Z</time>
      </trkpt>
      <trkpt lat="46.52468" lon="6.10542">
        <ele>1200</ele>
        <time>2026-05-13T06:08:04Z</time>
      </trkpt>
      <trkpt lat="46.52474" lon="6.10543">
        <ele>1200.6</ele>
        <time>2026-05-13T06:08:07Z</time>
      </trkpt>
      <trkpt lat="46.52481" lon="6.10546">
        <ele>1201.4</ele>
        <time>2026-05-13T06:08:11Z</time>
      </trkpt>
      <trkpt lat="46.52483" lon="6.10548">
        <ele>1201.6</ele>
        <time>2026-05-13T06:08:12Z</time>
      </trkpt>
      <trkpt lat="46.52485" lon="6.1055">
        <ele>1202</ele>
        <time>2026-05-13T06:08:13Z</time>
      </trkpt>
      <trkpt lat="46.52489" lon="6.10556">
        <ele>1202.6</ele>
        <time>2026-05-13T06:08:16Z</time>
      </trkpt>
      <trkpt lat="46.52494" lon="6.10565">
        <ele>1203.8</ele>
        <time>2026-05-13T06:08:20Z</time>
      </trkpt>
      <trkpt lat="46.52497" lon="6.10568">
        <ele>1204.4</ele>
        <time>2026-05-13T06:08:22Z</time>
      </trkpt>
      <trkpt lat="46.52502" lon="6.10575">
        <ele>1205</ele>
        <time>2026-05-13T06:08:25Z</time>
      </trkpt>
      <trkpt lat="46.52507" lon="6.1058">
        <ele>1205.8</ele>
        <time>2026-05-13T06:08:28Z</time>
      </trkpt>
      <trkpt lat="46.52509" lon="6.10584">
        <ele>1206.2</ele>
        <time>2026-05-13T06:08:30Z</time>
      </trkpt>
      <trkpt lat="46.52515" lon="6.10589">
        <ele>1207</ele>
        <time>2026-05-13T06:08:33Z</time>
      </trkpt>
      <trkpt lat="46.52521" lon="6.10597">
        <ele>1208</ele>
        <time>2026-05-13T06:08:37Z</time>
      </trkpt>
      <trkpt lat="46.52525" lon="6.10604">
        <ele>1208.6</ele>
        <time>2026-05-13T06:08:39Z</time>
      </trkpt>
      <trkpt lat="46.52533" lon="6.10611">
        <ele>1209.2</ele>
        <time>2026-05-13T06:08:43Z</time>
      </trkpt>
      <trkpt lat="46.5254" lon="6.10618">
        <ele>1210.2</ele>
        <time>2026-05-13T06:08:48Z</time>
      </trkpt>
      <trkpt lat="46.52542" lon="6.10619">
        <ele>1210.2</ele>
        <time>2026-05-13T06:08:49Z</time>
      </trkpt>
      <trkpt lat="46.52548" lon="6.10623">
        <ele>1211.2</ele>
        <time>2026-05-13T06:08:52Z</time>
      </trkpt>
      <trkpt lat="46.52551" lon="6.10629">
        <ele>1212</ele>
        <time>2026-05-13T06:08:55Z</time>
      </trkpt>
      <trkpt lat="46.52552" lon="6.10631">
        <ele>1212.4</ele>
        <time>2026-05-13T06:08:56Z</time>
      </trkpt>
      <trkpt lat="46.52558" lon="6.10638">
        <ele>1213.4</ele>
        <time>2026-05-13T06:09:01Z</time>
      </trkpt>
      <trkpt lat="46.52559" lon="6.1064">
        <ele>1213.6</ele>
        <time>2026-05-13T06:09:02Z</time>
      </trkpt>
      <trkpt lat="46.5256" lon="6.10641">
        <ele>1214</ele>
        <time>2026-05-13T06:09:03Z</time>
      </trkpt>
      <trkpt lat="46.52562" lon="6.10643">
        <ele>1214.2</ele>
        <time>2026-05-13T06:09:05Z</time>
      </trkpt>
      <trkpt lat="46.52563" lon="6.10644">
        <ele>1214.6</ele>
        <time>2026-05-13T06:09:06Z</time>
      </trkpt>
      <trkpt lat="46.5257" lon="6.10652">
        <ele>1215.2</ele>
        <time>2026-05-13T06:09:11Z</time>
      </trkpt>
      <trkpt lat="46.52573" lon="6.10656">
        <ele>1215.8</ele>
        <time>2026-05-13T06:09:13Z</time>
      </trkpt>
      <trkpt lat="46.52581" lon="6.10666">
        <ele>1216.6</ele>
        <time>2026-05-13T06:09:17Z</time>
      </trkpt>
      <trkpt lat="46.52586" lon="6.10671">
        <ele>1216.8</ele>
        <time>2026-05-13T06:09:19Z</time>
      </trkpt>
      <trkpt lat="46.52598" lon="6.10681">
        <ele>1217.4</ele>
        <time>2026-05-13T06:09:24Z</time>
      </trkpt>
      <trkpt lat="46.52606" lon="6.10684">
        <ele>1217.8</ele>
        <time>2026-05-13T06:09:28Z</time>
      </trkpt>
      <trkpt lat="46.52611" lon="6.10683">
        <ele>1218</ele>
        <time>2026-05-13T06:09:30Z</time>
      </trkpt>
      <trkpt lat="46.52618" lon="6.1068">
        <ele>1219</ele>
        <time>2026-05-13T06:09:34Z</time>
      </trkpt>
      <trkpt lat="46.52623" lon="6.10674">
        <ele>1219.6</ele>
        <time>2026-05-13T06:09:37Z</time>
      </trkpt>
      <trkpt lat="46.52625" lon="6.10669">
        <ele>1220</ele>
        <time>2026-05-13T06:09:39Z</time>
      </trkpt>
      <trkpt lat="46.52627" lon="6.10656">
        <ele>1220.6</ele>
        <time>2026-05-13T06:09:43Z</time>
      </trkpt>
      <trkpt lat="46.52624" lon="6.1064">
        <ele>1221.2</ele>
        <time>2026-05-13T06:09:47Z</time>
      </trkpt>
      <trkpt lat="46.52621" lon="6.10634">
        <ele>1221.4</ele>
        <time>2026-05-13T06:09:49Z</time>
      </trkpt>
      <trkpt lat="46.52615" lon="6.10622">
        <ele>1222</ele>
        <time>2026-05-13T06:09:54Z</time>
      </trkpt>
      <trkpt lat="46.52612" lon="6.10618">
        <ele>1222.2</ele>
        <time>2026-05-13T06:09:56Z</time>
      </trkpt>
      <trkpt lat="46.52609" lon="6.10613">
        <ele>1222.6</ele>
        <time>2026-05-13T06:09:58Z</time>
      </trkpt>
      <trkpt lat="46.52609" lon="6.10612">
        <ele>1222.6</ele>
        <time>2026-05-13T06:09:59Z</time>
      </trkpt>
      <trkpt lat="46.52604" lon="6.10603">
        <ele>1223.4</ele>
        <time>2026-05-13T06:10:02Z</time>
      </trkpt>
      <trkpt lat="46.52598" lon="6.10593">
        <ele>1223.8</ele>
        <time>2026-05-13T06:10:06Z</time>
      </trkpt>
      <trkpt lat="46.52596" lon="6.10585">
        <ele>1224.4</ele>
        <time>2026-05-13T06:10:08Z</time>
      </trkpt>
      <trkpt lat="46.52595" lon="6.10578">
        <ele>1225</ele>
        <time>2026-05-13T06:10:10Z</time>
      </trkpt>
      <trkpt lat="46.52597" lon="6.10571">
        <ele>1226</ele>
        <time>2026-05-13T06:10:12Z</time>
      </trkpt>
      <trkpt lat="46.52599" lon="6.10556">
        <ele>1226.8</ele>
        <time>2026-05-13T06:10:17Z</time>
      </trkpt>
      <trkpt lat="46.52601" lon="6.10553">
        <ele>1226.8</ele>
        <time>2026-05-13T06:10:18Z</time>
      </trkpt>
      <trkpt lat="46.52601" lon="6.10549">
        <ele>1227</ele>
        <time>2026-05-13T06:10:19Z</time>
      </trkpt>
      <trkpt lat="46.52603" lon="6.10537">
        <ele>1228</ele>
        <time>2026-05-13T06:10:22Z</time>
      </trkpt>
      <trkpt lat="46.52605" lon="6.10534">
        <ele>1228</ele>
        <time>2026-05-13T06:10:23Z</time>
      </trkpt>
      <trkpt lat="46.52607" lon="6.10527">
        <ele>1228.8</ele>
        <time>2026-05-13T06:10:25Z</time>
      </trkpt>
      <trkpt lat="46.52611" lon="6.10521">
        <ele>1228.8</ele>
        <time>2026-05-13T06:10:27Z</time>
      </trkpt>
      <trkpt lat="46.52615" lon="6.10512">
        <ele>1230.2</ele>
        <time>2026-05-13T06:10:30Z</time>
      </trkpt>
      <trkpt lat="46.52624" lon="6.10501">
        <ele>1231.4</ele>
        <time>2026-05-13T06:10:35Z</time>
      </trkpt>
      <trkpt lat="46.52628" lon="6.10494">
        <ele>1232</ele>
        <time>2026-05-13T06:10:38Z</time>
      </trkpt>
      <trkpt lat="46.52629" lon="6.10492">
        <ele>1232.2</ele>
        <time>2026-05-13T06:10:39Z</time>
      </trkpt>
      <trkpt lat="46.52634" lon="6.10477">
        <ele>1233.6</ele>
        <time>2026-05-13T06:10:44Z</time>
      </trkpt>
      <trkpt lat="46.52635" lon="6.10474">
        <ele>1233.8</ele>
        <time>2026-05-13T06:10:45Z</time>
      </trkpt>
      <trkpt lat="46.52635" lon="6.10459">
        <ele>1234.6</ele>
        <time>2026-05-13T06:10:49Z</time>
      </trkpt>
      <trkpt lat="46.52633" lon="6.1045">
        <ele>1235.4</ele>
        <time>2026-05-13T06:10:52Z</time>
      </trkpt>
      <trkpt lat="46.52632" lon="6.10447">
        <ele>1235.6</ele>
        <time>2026-05-13T06:10:53Z</time>
      </trkpt>
      <trkpt lat="46.52627" lon="6.10435">
        <ele>1236.8</ele>
        <time>2026-05-13T06:10:58Z</time>
      </trkpt>
      <trkpt lat="46.52626" lon="6.10433">
        <ele>1237</ele>
        <time>2026-05-13T06:10:59Z</time>
      </trkpt>
      <trkpt lat="46.52622" lon="6.10422">
        <ele>1238</ele>
        <time>2026-05-13T06:11:03Z</time>
      </trkpt>
      <trkpt lat="46.5262" lon="6.10413">
        <ele>1238.8</ele>
        <time>2026-05-13T06:11:06Z</time>
      </trkpt>
      <trkpt lat="46.52619" lon="6.1041">
        <ele>1239</ele>
        <time>2026-05-13T06:11:07Z</time>
      </trkpt>
      <trkpt lat="46.52618" lon="6.10398">
        <ele>1240</ele>
        <time>2026-05-13T06:11:11Z</time>
      </trkpt>
      <trkpt lat="46.52618" lon="6.10395">
        <ele>1240.2</ele>
        <time>2026-05-13T06:11:12Z</time>
      </trkpt>
      <trkpt lat="46.52618" lon="6.10389">
        <ele>1240.6</ele>
        <time>2026-05-13T06:11:14Z</time>
      </trkpt>
      <trkpt lat="46.52619" lon="6.10382">
        <ele>1241.4</ele>
        <time>2026-05-13T06:11:17Z</time>
      </trkpt>
      <trkpt lat="46.5262" lon="6.10373">
        <ele>1242</ele>
        <time>2026-05-13T06:11:20Z</time>
      </trkpt>
      <trkpt lat="46.52621" lon="6.10365">
        <ele>1242.2</ele>
        <time>2026-05-13T06:11:23Z</time>
      </trkpt>
      <trkpt lat="46.52621" lon="6.10353">
        <ele>1243</ele>
        <time>2026-05-13T06:11:27Z</time>
      </trkpt>
      <trkpt lat="46.52623" lon="6.10351">
        <ele>1243.4</ele>
        <time>2026-05-13T06:11:28Z</time>
      </trkpt>
      <trkpt lat="46.5263" lon="6.10343">
        <ele>1244.8</ele>
        <time>2026-05-13T06:11:33Z</time>
      </trkpt>
      <trkpt lat="46.5264" lon="6.10336">
        <ele>1246</ele>
        <time>2026-05-13T06:11:38Z</time>
      </trkpt>
      <trkpt lat="46.52642" lon="6.10335">
        <ele>1246.2</ele>
        <time>2026-05-13T06:11:39Z</time>
      </trkpt>
      <trkpt lat="46.5265" lon="6.10331">
        <ele>1247</ele>
        <time>2026-05-13T06:11:43Z</time>
      </trkpt>
      <trkpt lat="46.52657" lon="6.10326">
        <ele>1247.6</ele>
        <time>2026-05-13T06:11:46Z</time>
      </trkpt>
      <trkpt lat="46.52663" lon="6.10321">
        <ele>1248.2</ele>
        <time>2026-05-13T06:11:49Z</time>
      </trkpt>
      <trkpt lat="46.52675" lon="6.10312">
        <ele>1249.2</ele>
        <time>2026-05-13T06:11:55Z</time>
      </trkpt>
      <trkpt lat="46.52688" lon="6.10306">
        <ele>1250.2</ele>
        <time>2026-05-13T06:12:01Z</time>
      </trkpt>
      <trkpt lat="46.52693" lon="6.10304">
        <ele>1250.6</ele>
        <time>2026-05-13T06:12:03Z</time>
      </trkpt>
      <trkpt lat="46.52707" lon="6.10293">
        <ele>1251</ele>
        <time>2026-05-13T06:12:10Z</time>
      </trkpt>
      <trkpt lat="46.52714" lon="6.10289">
        <ele>1251.4</ele>
        <time>2026-05-13T06:12:13Z</time>
      </trkpt>
      <trkpt lat="46.52726" lon="6.10277">
        <ele>1251.6</ele>
        <time>2026-05-13T06:12:19Z</time>
      </trkpt>
      <trkpt lat="46.52739" lon="6.10259">
        <ele>1251.6</ele>
        <time>2026-05-13T06:12:26Z</time>
      </trkpt>
      <trkpt lat="46.52753" lon="6.10239">
        <ele>1251.4</ele>
        <time>2026-05-13T06:12:34Z</time>
      </trkpt>
      <trkpt lat="46.52754" lon="6.10237">
        <ele>1251.4</ele>
        <time>2026-05-13T06:12:39Z</time>
      </trkpt>
      <trkpt lat="46.52785" lon="6.10193">
        <ele>1252</ele>
        <time>2026-05-13T06:16:37Z</time>
      </trkpt>
      <trkpt lat="46.52788" lon="6.10185">
        <ele>1252.2</ele>
        <time>2026-05-13T06:16:40Z</time>
      </trkpt>
      <trkpt lat="46.52794" lon="6.10159">
        <ele>1252.4</ele>
        <time>2026-05-13T06:16:47Z</time>
      </trkpt>
      <trkpt lat="46.52792" lon="6.10139">
        <ele>1252.6</ele>
        <time>2026-05-13T06:16:52Z</time>
      </trkpt>
      <trkpt lat="46.52792" lon="6.10126">
        <ele>1252.8</ele>
        <time>2026-05-13T06:16:55Z</time>
      </trkpt>
      <trkpt lat="46.52792" lon="6.10114">
        <ele>1253.4</ele>
        <time>2026-05-13T06:16:58Z</time>
      </trkpt>
      <trkpt lat="46.52793" lon="6.10095">
        <ele>1254</ele>
        <time>2026-05-13T06:17:02Z</time>
      </trkpt>
      <trkpt lat="46.52795" lon="6.10086">
        <ele>1254.2</ele>
        <time>2026-05-13T06:17:04Z</time>
      </trkpt>
      <trkpt lat="46.52798" lon="6.10068">
        <ele>1255</ele>
        <time>2026-05-13T06:17:08Z</time>
      </trkpt>
      <trkpt lat="46.52801" lon="6.10047">
        <ele>1256.2</ele>
        <time>2026-05-13T06:17:13Z</time>
      </trkpt>
      <trkpt lat="46.52802" lon="6.10043">
        <ele>1256.6</ele>
        <time>2026-05-13T06:17:14Z</time>
      </trkpt>
      <trkpt lat="46.52804" lon="6.10028">
        <ele>1257.4</ele>
        <time>2026-05-13T06:17:18Z</time>
      </trkpt>
      <trkpt lat="46.52804" lon="6.10008">
        <ele>1258.2</ele>
        <time>2026-05-13T06:17:23Z</time>
      </trkpt>
      <trkpt lat="46.52806" lon="6.10004">
        <ele>1258.6</ele>
        <time>2026-05-13T06:17:24Z</time>
      </trkpt>
      <trkpt lat="46.52808" lon="6.0999">
        <ele>1259.4</ele>
        <time>2026-05-13T06:17:28Z</time>
      </trkpt>
      <trkpt lat="46.52808" lon="6.09987">
        <ele>1259.6</ele>
        <time>2026-05-13T06:17:29Z</time>
      </trkpt>
      <trkpt lat="46.52808" lon="6.09968">
        <ele>1260.2</ele>
        <time>2026-05-13T06:17:34Z</time>
      </trkpt>
      <trkpt lat="46.52807" lon="6.09949">
        <ele>1260.6</ele>
        <time>2026-05-13T06:17:39Z</time>
      </trkpt>
      <trkpt lat="46.52806" lon="6.09939">
        <ele>1261.2</ele>
        <time>2026-05-13T06:17:42Z</time>
      </trkpt>
      <trkpt lat="46.52806" lon="6.09933">
        <ele>1261.8</ele>
        <time>2026-05-13T06:17:44Z</time>
      </trkpt>
      <trkpt lat="46.52804" lon="6.09923">
        <ele>1262.8</ele>
        <time>2026-05-13T06:17:48Z</time>
      </trkpt>
      <trkpt lat="46.52803" lon="6.09919">
        <ele>1262.8</ele>
        <time>2026-05-13T06:17:49Z</time>
      </trkpt>
      <trkpt lat="46.52802" lon="6.09908">
        <ele>1263.4</ele>
        <time>2026-05-13T06:17:53Z</time>
      </trkpt>
      <trkpt lat="46.52802" lon="6.09906">
        <ele>1263.6</ele>
        <time>2026-05-13T06:17:54Z</time>
      </trkpt>
      <trkpt lat="46.52803" lon="6.099">
        <ele>1264</ele>
        <time>2026-05-13T06:17:56Z</time>
      </trkpt>
      <trkpt lat="46.52803" lon="6.09896">
        <ele>1264.4</ele>
        <time>2026-05-13T06:17:57Z</time>
      </trkpt>
      <trkpt lat="46.52802" lon="6.09885">
        <ele>1264.8</ele>
        <time>2026-05-13T06:18:00Z</time>
      </trkpt>
      <trkpt lat="46.52801" lon="6.09882">
        <ele>1265.2</ele>
        <time>2026-05-13T06:18:01Z</time>
      </trkpt>
      <trkpt lat="46.52798" lon="6.09872">
        <ele>1266</ele>
        <time>2026-05-13T06:18:04Z</time>
      </trkpt>
      <trkpt lat="46.52797" lon="6.09868">
        <ele>1266.2</ele>
        <time>2026-05-13T06:18:05Z</time>
      </trkpt>
      <trkpt lat="46.52794" lon="6.09856">
        <ele>1266.8</ele>
        <time>2026-05-13T06:18:09Z</time>
      </trkpt>
      <trkpt lat="46.52792" lon="6.09852">
        <ele>1266.8</ele>
        <time>2026-05-13T06:18:10Z</time>
      </trkpt>
      <trkpt lat="46.52792" lon="6.09848">
        <ele>1267</ele>
        <time>2026-05-13T06:18:11Z</time>
      </trkpt>
      <trkpt lat="46.52792" lon="6.09843">
        <ele>1267.2</ele>
        <time>2026-05-13T06:18:12Z</time>
      </trkpt>
      <trkpt lat="46.52789" lon="6.09834">
        <ele>1267.6</ele>
        <time>2026-05-13T06:18:14Z</time>
      </trkpt>
      <trkpt lat="46.52785" lon="6.09828">
        <ele>1268.2</ele>
        <time>2026-05-13T06:18:17Z</time>
      </trkpt>
      <trkpt lat="46.52782" lon="6.09818">
        <ele>1269</ele>
        <time>2026-05-13T06:18:21Z</time>
      </trkpt>
      <trkpt lat="46.52778" lon="6.09809">
        <ele>1269.6</ele>
        <time>2026-05-13T06:18:24Z</time>
      </trkpt>
      <trkpt lat="46.52775" lon="6.09799">
        <ele>1269.8</ele>
        <time>2026-05-13T06:18:27Z</time>
      </trkpt>
      <trkpt lat="46.52771" lon="6.09777">
        <ele>1270.4</ele>
        <time>2026-05-13T06:18:33Z</time>
      </trkpt>
      <trkpt lat="46.52769" lon="6.09774">
        <ele>1270.8</ele>
        <time>2026-05-13T06:18:34Z</time>
      </trkpt>
      <trkpt lat="46.52768" lon="6.0977">
        <ele>1271.2</ele>
        <time>2026-05-13T06:18:35Z</time>
      </trkpt>
      <trkpt lat="46.52765" lon="6.09759">
        <ele>1271.6</ele>
        <time>2026-05-13T06:18:38Z</time>
      </trkpt>
      <trkpt lat="46.52762" lon="6.09752">
        <ele>1271.8</ele>
        <time>2026-05-13T06:18:40Z</time>
      </trkpt>
      <trkpt lat="46.52754" lon="6.09735">
        <ele>1272.8</ele>
        <time>2026-05-13T06:18:46Z</time>
      </trkpt>
      <trkpt lat="46.52748" lon="6.0972">
        <ele>1273.8</ele>
        <time>2026-05-13T06:18:51Z</time>
      </trkpt>
      <trkpt lat="46.52747" lon="6.09717">
        <ele>1274.2</ele>
        <time>2026-05-13T06:18:52Z</time>
      </trkpt>
      <trkpt lat="46.52744" lon="6.09708">
        <ele>1275</ele>
        <time>2026-05-13T06:18:55Z</time>
      </trkpt>
      <trkpt lat="46.52744" lon="6.09701">
        <ele>1275.2</ele>
        <time>2026-05-13T06:18:57Z</time>
      </trkpt>
      <trkpt lat="46.5275" lon="6.09681">
        <ele>1275.4</ele>
        <time>2026-05-13T06:19:03Z</time>
      </trkpt>
      <trkpt lat="46.5276" lon="6.09668">
        <ele>1275.2</ele>
        <time>2026-05-13T06:19:07Z</time>
      </trkpt>
      <trkpt lat="46.52769" lon="6.09657">
        <ele>1274.8</ele>
        <time>2026-05-13T06:19:10Z</time>
      </trkpt>
      <trkpt lat="46.52771" lon="6.09654">
        <ele>1274.8</ele>
        <time>2026-05-13T06:19:11Z</time>
      </trkpt>
      <trkpt lat="46.52779" lon="6.09648">
        <ele>1274.6</ele>
        <time>2026-05-13T06:19:13Z</time>
      </trkpt>
      <trkpt lat="46.52787" lon="6.0964">
        <ele>1274</ele>
        <time>2026-05-13T06:19:15Z</time>
      </trkpt>
      <trkpt lat="46.5279" lon="6.09636">
        <ele>1273.6</ele>
        <time>2026-05-13T06:19:16Z</time>
      </trkpt>
      <trkpt lat="46.52813" lon="6.09617">
        <ele>1272.6</ele>
        <time>2026-05-13T06:19:21Z</time>
      </trkpt>
      <trkpt lat="46.52828" lon="6.09603">
        <ele>1271.4</ele>
        <time>2026-05-13T06:19:24Z</time>
      </trkpt>
      <trkpt lat="46.52834" lon="6.09597">
        <ele>1271</ele>
        <time>2026-05-13T06:19:25Z</time>
      </trkpt>
      <trkpt lat="46.52845" lon="6.09586">
        <ele>1270.6</ele>
        <time>2026-05-13T06:19:27Z</time>
      </trkpt>
      <trkpt lat="46.52851" lon="6.09581">
        <ele>1270.2</ele>
        <time>2026-05-13T06:19:28Z</time>
      </trkpt>
      <trkpt lat="46.52869" lon="6.09566">
        <ele>1269.8</ele>
        <time>2026-05-13T06:19:31Z</time>
      </trkpt>
      <trkpt lat="46.52873" lon="6.09563">
        <ele>1269.4</ele>
        <time>2026-05-13T06:19:32Z</time>
      </trkpt>
      <trkpt lat="46.52878" lon="6.0956">
        <ele>1269.2</ele>
        <time>2026-05-13T06:19:33Z</time>
      </trkpt>
      <trkpt lat="46.52902" lon="6.0955">
        <ele>1268.2</ele>
        <time>2026-05-13T06:19:38Z</time>
      </trkpt>
      <trkpt lat="46.52926" lon="6.0953">
        <ele>1268.2</ele>
        <time>2026-05-13T06:19:45Z</time>
      </trkpt>
      <trkpt lat="46.52928" lon="6.09524">
        <ele>1268</ele>
        <time>2026-05-13T06:19:46Z</time>
      </trkpt>
      <trkpt lat="46.52929" lon="6.09507">
        <ele>1267.8</ele>
        <time>2026-05-13T06:19:49Z</time>
      </trkpt>
      <trkpt lat="46.52923" lon="6.09485">
        <ele>1266.8</ele>
        <time>2026-05-13T06:19:53Z</time>
      </trkpt>
      <trkpt lat="46.52921" lon="6.09479">
        <ele>1266.8</ele>
        <time>2026-05-13T06:19:54Z</time>
      </trkpt>
      <trkpt lat="46.52918" lon="6.09463">
        <ele>1265.6</ele>
        <time>2026-05-13T06:19:57Z</time>
      </trkpt>
      <trkpt lat="46.52915" lon="6.0945">
        <ele>1264.8</ele>
        <time>2026-05-13T06:19:59Z</time>
      </trkpt>
      <trkpt lat="46.52915" lon="6.09447">
        <ele>1264.6</ele>
        <time>2026-05-13T06:20:00Z</time>
      </trkpt>
      <trkpt lat="46.52907" lon="6.09417">
        <ele>1263.2</ele>
        <time>2026-05-13T06:20:05Z</time>
      </trkpt>
      <trkpt lat="46.52906" lon="6.0941">
        <ele>1263</ele>
        <time>2026-05-13T06:20:06Z</time>
      </trkpt>
      <trkpt lat="46.529" lon="6.09386">
        <ele>1262.2</ele>
        <time>2026-05-13T06:20:09Z</time>
      </trkpt>
      <trkpt lat="46.52893" lon="6.09361">
        <ele>1261.2</ele>
        <time>2026-05-13T06:20:12Z</time>
      </trkpt>
      <trkpt lat="46.52891" lon="6.09353">
        <ele>1260.8</ele>
        <time>2026-05-13T06:20:13Z</time>
      </trkpt>
      <trkpt lat="46.52886" lon="6.09335">
        <ele>1259.8</ele>
        <time>2026-05-13T06:20:15Z</time>
      </trkpt>
      <trkpt lat="46.5288" lon="6.09317">
        <ele>1259</ele>
        <time>2026-05-13T06:20:17Z</time>
      </trkpt>
      <trkpt lat="46.52877" lon="6.09308">
        <ele>1258.4</ele>
        <time>2026-05-13T06:20:18Z</time>
      </trkpt>
      <trkpt lat="46.52868" lon="6.09278">
        <ele>1256.8</ele>
        <time>2026-05-13T06:20:21Z</time>
      </trkpt>
      <trkpt lat="46.52864" lon="6.09267">
        <ele>1256.6</ele>
        <time>2026-05-13T06:20:22Z</time>
      </trkpt>
      <trkpt lat="46.52855" lon="6.09246">
        <ele>1255.6</ele>
        <time>2026-05-13T06:20:24Z</time>
      </trkpt>
      <trkpt lat="46.52844" lon="6.09223">
        <ele>1254</ele>
        <time>2026-05-13T06:20:26Z</time>
      </trkpt>
      <trkpt lat="46.52839" lon="6.09212">
        <ele>1253.8</ele>
        <time>2026-05-13T06:20:27Z</time>
      </trkpt>
      <trkpt lat="46.52827" lon="6.09192">
        <ele>1253</ele>
        <time>2026-05-13T06:20:29Z</time>
      </trkpt>
      <trkpt lat="46.52815" lon="6.09173">
        <ele>1250.8</ele>
        <time>2026-05-13T06:20:31Z</time>
      </trkpt>
      <trkpt lat="46.52799" lon="6.09147">
        <ele>1249.8</ele>
        <time>2026-05-13T06:20:34Z</time>
      </trkpt>
      <trkpt lat="46.52794" lon="6.09138">
        <ele>1249.4</ele>
        <time>2026-05-13T06:20:35Z</time>
      </trkpt>
      <trkpt lat="46.52781" lon="6.09116">
        <ele>1249</ele>
        <time>2026-05-13T06:20:38Z</time>
      </trkpt>
      <trkpt lat="46.52777" lon="6.09109">
        <ele>1249</ele>
        <time>2026-05-13T06:20:39Z</time>
      </trkpt>
      <trkpt lat="46.52767" lon="6.09098">
        <ele>1248.8</ele>
        <time>2026-05-13T06:20:41Z</time>
      </trkpt>
      <trkpt lat="46.52757" lon="6.0909">
        <ele>1248.6</ele>
        <time>2026-05-13T06:20:43Z</time>
      </trkpt>
      <trkpt lat="46.52746" lon="6.09084">
        <ele>1248.4</ele>
        <time>2026-05-13T06:20:45Z</time>
      </trkpt>
      <trkpt lat="46.5273" lon="6.0907">
        <ele>1248</ele>
        <time>2026-05-13T06:20:48Z</time>
      </trkpt>
      <trkpt lat="46.52713" lon="6.09048">
        <ele>1247.4</ele>
        <time>2026-05-13T06:20:51Z</time>
      </trkpt>
      <trkpt lat="46.52701" lon="6.09034">
        <ele>1246.4</ele>
        <time>2026-05-13T06:20:53Z</time>
      </trkpt>
      <trkpt lat="46.52689" lon="6.09018">
        <ele>1245.2</ele>
        <time>2026-05-13T06:20:55Z</time>
      </trkpt>
      <trkpt lat="46.5267" lon="6.08994">
        <ele>1243.6</ele>
        <time>2026-05-13T06:20:58Z</time>
      </trkpt>
      <trkpt lat="46.52664" lon="6.08986">
        <ele>1243.2</ele>
        <time>2026-05-13T06:20:59Z</time>
      </trkpt>
      <trkpt lat="46.52658" lon="6.08979">
        <ele>1242.2</ele>
        <time>2026-05-13T06:21:00Z</time>
      </trkpt>
      <trkpt lat="46.52653" lon="6.08973">
        <ele>1241.2</ele>
        <time>2026-05-13T06:21:01Z</time>
      </trkpt>
      <trkpt lat="46.52649" lon="6.08966">
        <ele>1240.6</ele>
        <time>2026-05-13T06:21:02Z</time>
      </trkpt>
      <trkpt lat="46.52644" lon="6.0896">
        <ele>1239.8</ele>
        <time>2026-05-13T06:21:03Z</time>
      </trkpt>
      <trkpt lat="46.52641" lon="6.08953">
        <ele>1239.2</ele>
        <time>2026-05-13T06:21:04Z</time>
      </trkpt>
      <trkpt lat="46.52639" lon="6.08946">
        <ele>1238.4</ele>
        <time>2026-05-13T06:21:05Z</time>
      </trkpt>
      <trkpt lat="46.52638" lon="6.08938">
        <ele>1237.6</ele>
        <time>2026-05-13T06:21:06Z</time>
      </trkpt>
      <trkpt lat="46.52638" lon="6.0893">
        <ele>1237.2</ele>
        <time>2026-05-13T06:21:07Z</time>
      </trkpt>
      <trkpt lat="46.52639" lon="6.08922">
        <ele>1236</ele>
        <time>2026-05-13T06:21:08Z</time>
      </trkpt>
      <trkpt lat="46.52644" lon="6.08909">
        <ele>1234.8</ele>
        <time>2026-05-13T06:21:10Z</time>
      </trkpt>
      <trkpt lat="46.52655" lon="6.08896">
        <ele>1233.6</ele>
        <time>2026-05-13T06:21:13Z</time>
      </trkpt>
      <trkpt lat="46.52658" lon="6.08893">
        <ele>1233.2</ele>
        <time>2026-05-13T06:21:14Z</time>
      </trkpt>
      <trkpt lat="46.52665" lon="6.08886">
        <ele>1232.8</ele>
        <time>2026-05-13T06:21:16Z</time>
      </trkpt>
      <trkpt lat="46.52678" lon="6.08875">
        <ele>1232.2</ele>
        <time>2026-05-13T06:21:19Z</time>
      </trkpt>
      <trkpt lat="46.52687" lon="6.0887">
        <ele>1232</ele>
        <time>2026-05-13T06:21:21Z</time>
      </trkpt>
      <trkpt lat="46.52696" lon="6.08866">
        <ele>1231.6</ele>
        <time>2026-05-13T06:21:24Z</time>
      </trkpt>
      <trkpt lat="46.52706" lon="6.08861">
        <ele>1231.6</ele>
        <time>2026-05-13T06:21:25Z</time>
      </trkpt>
      <trkpt lat="46.52716" lon="6.08857">
        <ele>1231.2</ele>
        <time>2026-05-13T06:21:27Z</time>
      </trkpt>
      <trkpt lat="46.52726" lon="6.08852">
        <ele>1230.4</ele>
        <time>2026-05-13T06:21:29Z</time>
      </trkpt>
      <trkpt lat="46.52736" lon="6.08847">
        <ele>1230.2</ele>
        <time>2026-05-13T06:21:31Z</time>
      </trkpt>
      <trkpt lat="46.52769" lon="6.08831">
        <ele>1228.8</ele>
        <time>2026-05-13T06:21:36Z</time>
      </trkpt>
      <trkpt lat="46.52783" lon="6.08824">
        <ele>1227.6</ele>
        <time>2026-05-13T06:21:38Z</time>
      </trkpt>
      <trkpt lat="46.52805" lon="6.08813">
        <ele>1226.2</ele>
        <time>2026-05-13T06:21:41Z</time>
      </trkpt>
      <trkpt lat="46.5283" lon="6.08804">
        <ele>1224.8</ele>
        <time>2026-05-13T06:21:44Z</time>
      </trkpt>
      <trkpt lat="46.52846" lon="6.08799">
        <ele>1223.8</ele>
        <time>2026-05-13T06:21:46Z</time>
      </trkpt>
      <trkpt lat="46.52852" lon="6.08798">
        <ele>1223.6</ele>
        <time>2026-05-13T06:21:47Z</time>
      </trkpt>
      <trkpt lat="46.52858" lon="6.08796">
        <ele>1223.4</ele>
        <time>2026-05-13T06:21:48Z</time>
      </trkpt>
      <trkpt lat="46.52863" lon="6.08794">
        <ele>1223</ele>
        <time>2026-05-13T06:21:49Z</time>
      </trkpt>
      <trkpt lat="46.5288" lon="6.08784">
        <ele>1222.4</ele>
        <time>2026-05-13T06:21:52Z</time>
      </trkpt>
      <trkpt lat="46.52887" lon="6.08779">
        <ele>1222</ele>
        <time>2026-05-13T06:21:53Z</time>
      </trkpt>
      <trkpt lat="46.52905" lon="6.08758">
        <ele>1220.8</ele>
        <time>2026-05-13T06:21:56Z</time>
      </trkpt>
      <trkpt lat="46.52918" lon="6.08732">
        <ele>1219.6</ele>
        <time>2026-05-13T06:21:59Z</time>
      </trkpt>
      <trkpt lat="46.52926" lon="6.08718">
        <ele>1219</ele>
        <time>2026-05-13T06:22:01Z</time>
      </trkpt>
      <trkpt lat="46.52929" lon="6.08711">
        <ele>1218.4</ele>
        <time>2026-05-13T06:22:02Z</time>
      </trkpt>
      <trkpt lat="46.52938" lon="6.08689">
        <ele>1217.8</ele>
        <time>2026-05-13T06:22:05Z</time>
      </trkpt>
      <trkpt lat="46.52944" lon="6.08678">
        <ele>1217.4</ele>
        <time>2026-05-13T06:22:07Z</time>
      </trkpt>
      <trkpt lat="46.5295" lon="6.0867">
        <ele>1217.2</ele>
        <time>2026-05-13T06:22:09Z</time>
      </trkpt>
      <trkpt lat="46.52957" lon="6.0866">
        <ele>1217.2</ele>
        <time>2026-05-13T06:22:11Z</time>
      </trkpt>
      <trkpt lat="46.5296" lon="6.08645">
        <ele>1217.2</ele>
        <time>2026-05-13T06:22:13Z</time>
      </trkpt>
      <trkpt lat="46.52959" lon="6.08616">
        <ele>1217</ele>
        <time>2026-05-13T06:22:16Z</time>
      </trkpt>
      <trkpt lat="46.5296" lon="6.08606">
        <ele>1216.8</ele>
        <time>2026-05-13T06:22:17Z</time>
      </trkpt>
      <trkpt lat="46.52962" lon="6.08597">
        <ele>1216.8</ele>
        <time>2026-05-13T06:22:18Z</time>
      </trkpt>
      <trkpt lat="46.52966" lon="6.08589">
        <ele>1216</ele>
        <time>2026-05-13T06:22:20Z</time>
      </trkpt>
      <trkpt lat="46.52977" lon="6.08579">
        <ele>1215.4</ele>
        <time>2026-05-13T06:22:21Z</time>
      </trkpt>
      <trkpt lat="46.52983" lon="6.08575">
        <ele>1214.6</ele>
        <time>2026-05-13T06:22:22Z</time>
      </trkpt>
      <trkpt lat="46.52988" lon="6.08571">
        <ele>1214.4</ele>
        <time>2026-05-13T06:22:23Z</time>
      </trkpt>
      <trkpt lat="46.52994" lon="6.08567">
        <ele>1213.6</ele>
        <time>2026-05-13T06:22:24Z</time>
      </trkpt>
      <trkpt lat="46.53014" lon="6.08553">
        <ele>1212.4</ele>
        <time>2026-05-13T06:22:27Z</time>
      </trkpt>
      <trkpt lat="46.53027" lon="6.08542">
        <ele>1211</ele>
        <time>2026-05-13T06:22:29Z</time>
      </trkpt>
      <trkpt lat="46.53043" lon="6.08531">
        <ele>1209.8</ele>
        <time>2026-05-13T06:22:31Z</time>
      </trkpt>
      <trkpt lat="46.53058" lon="6.08521">
        <ele>1208.6</ele>
        <time>2026-05-13T06:22:33Z</time>
      </trkpt>
      <trkpt lat="46.53066" lon="6.08517">
        <ele>1207.4</ele>
        <time>2026-05-13T06:22:34Z</time>
      </trkpt>
      <trkpt lat="46.53082" lon="6.08516">
        <ele>1205.8</ele>
        <time>2026-05-13T06:22:36Z</time>
      </trkpt>
      <trkpt lat="46.53101" lon="6.08525">
        <ele>1204.4</ele>
        <time>2026-05-13T06:22:38Z</time>
      </trkpt>
      <trkpt lat="46.53109" lon="6.08529">
        <ele>1203.4</ele>
        <time>2026-05-13T06:22:39Z</time>
      </trkpt>
      <trkpt lat="46.53117" lon="6.08532">
        <ele>1202.6</ele>
        <time>2026-05-13T06:22:40Z</time>
      </trkpt>
      <trkpt lat="46.53125" lon="6.08533">
        <ele>1202.2</ele>
        <time>2026-05-13T06:22:41Z</time>
      </trkpt>
      <trkpt lat="46.53134" lon="6.08531">
        <ele>1201.8</ele>
        <time>2026-05-13T06:22:42Z</time>
      </trkpt>
      <trkpt lat="46.53149" lon="6.08524">
        <ele>1200.4</ele>
        <time>2026-05-13T06:22:44Z</time>
      </trkpt>
      <trkpt lat="46.53165" lon="6.08516">
        <ele>1199.4</ele>
        <time>2026-05-13T06:22:46Z</time>
      </trkpt>
      <trkpt lat="46.53172" lon="6.08511">
        <ele>1198.6</ele>
        <time>2026-05-13T06:22:47Z</time>
      </trkpt>
      <trkpt lat="46.5319" lon="6.08498">
        <ele>1197.2</ele>
        <time>2026-05-13T06:22:50Z</time>
      </trkpt>
      <trkpt lat="46.53215" lon="6.08481">
        <ele>1197</ele>
        <time>2026-05-13T06:22:55Z</time>
      </trkpt>
      <trkpt lat="46.53232" lon="6.08468">
        <ele>1197.8</ele>
        <time>2026-05-13T06:23:00Z</time>
      </trkpt>
      <trkpt lat="46.5324" lon="6.08463">
        <ele>1198.4</ele>
        <time>2026-05-13T06:23:02Z</time>
      </trkpt>
      <trkpt lat="46.53247" lon="6.0846">
        <ele>1199</ele>
        <time>2026-05-13T06:23:04Z</time>
      </trkpt>
      <trkpt lat="46.53251" lon="6.08458">
        <ele>1199.4</ele>
        <time>2026-05-13T06:23:05Z</time>
      </trkpt>
      <trkpt lat="46.53267" lon="6.08449">
        <ele>1200.2</ele>
        <time>2026-05-13T06:23:10Z</time>
      </trkpt>
      <trkpt lat="46.53273" lon="6.08447">
        <ele>1200.4</ele>
        <time>2026-05-13T06:23:12Z</time>
      </trkpt>
      <trkpt lat="46.53283" lon="6.08439">
        <ele>1201.2</ele>
        <time>2026-05-13T06:23:16Z</time>
      </trkpt>
      <trkpt lat="46.53285" lon="6.08436">
        <ele>1201.6</ele>
        <time>2026-05-13T06:23:17Z</time>
      </trkpt>
      <trkpt lat="46.53289" lon="6.08423">
        <ele>1202.4</ele>
        <time>2026-05-13T06:23:21Z</time>
      </trkpt>
      <trkpt lat="46.53292" lon="6.08419">
        <ele>1202.6</ele>
        <time>2026-05-13T06:23:22Z</time>
      </trkpt>
      <trkpt lat="46.53298" lon="6.084">
        <ele>1203.4</ele>
        <time>2026-05-13T06:23:26Z</time>
      </trkpt>
      <trkpt lat="46.53301" lon="6.08392">
        <ele>1204</ele>
        <time>2026-05-13T06:23:28Z</time>
      </trkpt>
      <trkpt lat="46.533" lon="6.08371">
        <ele>1204.6</ele>
        <time>2026-05-13T06:23:33Z</time>
      </trkpt>
      <trkpt lat="46.53299" lon="6.08367">
        <ele>1204.8</ele>
        <time>2026-05-13T06:23:34Z</time>
      </trkpt>
      <trkpt lat="46.53294" lon="6.08356">
        <ele>1205.6</ele>
        <time>2026-05-13T06:23:38Z</time>
      </trkpt>
      <trkpt lat="46.53292" lon="6.08353">
        <ele>1205.8</ele>
        <time>2026-05-13T06:23:39Z</time>
      </trkpt>
      <trkpt lat="46.53287" lon="6.08341">
        <ele>1206.8</ele>
        <time>2026-05-13T06:23:43Z</time>
      </trkpt>
      <trkpt lat="46.53286" lon="6.08339">
        <ele>1207</ele>
        <time>2026-05-13T06:23:44Z</time>
      </trkpt>
      <trkpt lat="46.53282" lon="6.08329">
        <ele>1208</ele>
        <time>2026-05-13T06:23:47Z</time>
      </trkpt>
      <trkpt lat="46.53278" lon="6.08319">
        <ele>1209</ele>
        <time>2026-05-13T06:23:50Z</time>
      </trkpt>
      <trkpt lat="46.53276" lon="6.08312">
        <ele>1209.6</ele>
        <time>2026-05-13T06:23:52Z</time>
      </trkpt>
      <trkpt lat="46.53273" lon="6.08304">
        <ele>1210</ele>
        <time>2026-05-13T06:23:54Z</time>
      </trkpt>
      <trkpt lat="46.53274" lon="6.08288">
        <ele>1211.2</ele>
        <time>2026-05-13T06:23:58Z</time>
      </trkpt>
      <trkpt lat="46.53275" lon="6.08285">
        <ele>1211.4</ele>
        <time>2026-05-13T06:23:59Z</time>
      </trkpt>
      <trkpt lat="46.53283" lon="6.08278">
        <ele>1211.6</ele>
        <time>2026-05-13T06:24:02Z</time>
      </trkpt>
      <trkpt lat="46.5329" lon="6.08272">
        <ele>1212.2</ele>
        <time>2026-05-13T06:24:05Z</time>
      </trkpt>
      <trkpt lat="46.533" lon="6.08272">
        <ele>1212.8</ele>
        <time>2026-05-13T06:24:09Z</time>
      </trkpt>
      <trkpt lat="46.53306" lon="6.08271">
        <ele>1213.2</ele>
        <time>2026-05-13T06:24:11Z</time>
      </trkpt>
      <trkpt lat="46.53322" lon="6.08274">
        <ele>1214.2</ele>
        <time>2026-05-13T06:24:17Z</time>
      </trkpt>
      <trkpt lat="46.53324" lon="6.08276">
        <ele>1214.4</ele>
        <time>2026-05-13T06:24:18Z</time>
      </trkpt>
      <trkpt lat="46.53334" lon="6.0829">
        <ele>1214.8</ele>
        <time>2026-05-13T06:24:23Z</time>
      </trkpt>
      <trkpt lat="46.53341" lon="6.08301">
        <ele>1215.2</ele>
        <time>2026-05-13T06:24:27Z</time>
      </trkpt>
      <trkpt lat="46.53342" lon="6.08303">
        <ele>1215.2</ele>
        <time>2026-05-13T06:24:28Z</time>
      </trkpt>
      <trkpt lat="46.53352" lon="6.08317">
        <ele>1216.4</ele>
        <time>2026-05-13T06:24:33Z</time>
      </trkpt>
      <trkpt lat="46.53354" lon="6.08318">
        <ele>1216.4</ele>
        <time>2026-05-13T06:24:34Z</time>
      </trkpt>
      <trkpt lat="46.53363" lon="6.08325">
        <ele>1217.2</ele>
        <time>2026-05-13T06:24:39Z</time>
      </trkpt>
      <trkpt lat="46.53365" lon="6.08326">
        <ele>1217.8</ele>
        <time>2026-05-13T06:24:40Z</time>
      </trkpt>
      <trkpt lat="46.53377" lon="6.08329">
        <ele>1218.8</ele>
        <time>2026-05-13T06:24:45Z</time>
      </trkpt>
      <trkpt lat="46.53381" lon="6.08328">
        <ele>1219.4</ele>
        <time>2026-05-13T06:24:47Z</time>
      </trkpt>
      <trkpt lat="46.53389" lon="6.08327">
        <ele>1220</ele>
        <time>2026-05-13T06:24:51Z</time>
      </trkpt>
      <trkpt lat="46.53394" lon="6.08328">
        <ele>1220.2</ele>
        <time>2026-05-13T06:24:53Z</time>
      </trkpt>
      <trkpt lat="46.53403" lon="6.08332">
        <ele>1221</ele>
        <time>2026-05-13T06:24:56Z</time>
      </trkpt>
      <trkpt lat="46.53415" lon="6.0834">
        <ele>1222</ele>
        <time>2026-05-13T06:25:00Z</time>
      </trkpt>
      <trkpt lat="46.53418" lon="6.08343">
        <ele>1222.4</ele>
        <time>2026-05-13T06:25:01Z</time>
      </trkpt>
      <trkpt lat="46.53425" lon="6.08353">
        <ele>1222.6</ele>
        <time>2026-05-13T06:25:04Z</time>
      </trkpt>
      <trkpt lat="46.53425" lon="6.08362">
        <ele>1222.8</ele>
        <time>2026-05-13T06:25:06Z</time>
      </trkpt>
      <trkpt lat="46.53424" lon="6.08366">
        <ele>1222.8</ele>
        <time>2026-05-13T06:25:07Z</time>
      </trkpt>
      <trkpt lat="46.53422" lon="6.0837">
        <ele>1222.8</ele>
        <time>2026-05-13T06:25:08Z</time>
      </trkpt>
      <trkpt lat="46.53411" lon="6.08383">
        <ele>1223</ele>
        <time>2026-05-13T06:25:13Z</time>
      </trkpt>
      <trkpt lat="46.53398" lon="6.08398">
        <ele>1223.2</ele>
        <time>2026-05-13T06:25:18Z</time>
      </trkpt>
      <trkpt lat="46.53394" lon="6.08404">
        <ele>1223.2</ele>
        <time>2026-05-13T06:25:20Z</time>
      </trkpt>
      <trkpt lat="46.53392" lon="6.08407">
        <ele>1223.2</ele>
        <time>2026-05-13T06:25:21Z</time>
      </trkpt>
      <trkpt lat="46.5338" lon="6.08429">
        <ele>1223.2</ele>
        <time>2026-05-13T06:25:27Z</time>
      </trkpt>
      <trkpt lat="46.53366" lon="6.08457">
        <ele>1223</ele>
        <time>2026-05-13T06:25:32Z</time>
      </trkpt>
      <trkpt lat="46.53356" lon="6.08492">
        <ele>1222.2</ele>
        <time>2026-05-13T06:25:38Z</time>
      </trkpt>
      <trkpt lat="46.53358" lon="6.08509">
        <ele>1222.2</ele>
        <time>2026-05-13T06:25:42Z</time>
      </trkpt>
      <trkpt lat="46.53367" lon="6.08539">
        <ele>1222.4</ele>
        <time>2026-05-13T06:25:49Z</time>
      </trkpt>
      <trkpt lat="46.53378" lon="6.08565">
        <ele>1222.8</ele>
        <time>2026-05-13T06:25:56Z</time>
      </trkpt>
      <trkpt lat="46.53392" lon="6.08587">
        <ele>1223.4</ele>
        <time>2026-05-13T06:26:02Z</time>
      </trkpt>
      <trkpt lat="46.53408" lon="6.08608">
        <ele>1224</ele>
        <time>2026-05-13T06:26:08Z</time>
      </trkpt>
      <trkpt lat="46.53418" lon="6.08617">
        <ele>1224.4</ele>
        <time>2026-05-13T06:26:11Z</time>
      </trkpt>
      <trkpt lat="46.53428" lon="6.08627">
        <ele>1224.6</ele>
        <time>2026-05-13T06:26:14Z</time>
      </trkpt>
      <trkpt lat="46.53443" lon="6.08655">
        <ele>1225</ele>
        <time>2026-05-13T06:26:21Z</time>
      </trkpt>
      <trkpt lat="46.53458" lon="6.08681">
        <ele>1225.4</ele>
        <time>2026-05-13T06:26:27Z</time>
      </trkpt>
      <trkpt lat="46.53466" lon="6.08687">
        <ele>1225.4</ele>
        <time>2026-05-13T06:26:29Z</time>
      </trkpt>
      <trkpt lat="46.53478" lon="6.08696">
        <ele>1225.6</ele>
        <time>2026-05-13T06:26:32Z</time>
      </trkpt>
      <trkpt lat="46.53497" lon="6.08704">
        <ele>1225.6</ele>
        <time>2026-05-13T06:26:36Z</time>
      </trkpt>
      <trkpt lat="46.535" lon="6.08707">
        <ele>1225.6</ele>
        <time>2026-05-13T06:26:37Z</time>
      </trkpt>
      <trkpt lat="46.53508" lon="6.08722">
        <ele>1225.4</ele>
        <time>2026-05-13T06:26:40Z</time>
      </trkpt>
      <trkpt lat="46.53512" lon="6.08734">
        <ele>1225.2</ele>
        <time>2026-05-13T06:26:42Z</time>
      </trkpt>
      <trkpt lat="46.53528" lon="6.0878">
        <ele>1224.8</ele>
        <time>2026-05-13T06:26:49Z</time>
      </trkpt>
      <trkpt lat="46.53539" lon="6.08797">
        <ele>1224.6</ele>
        <time>2026-05-13T06:26:52Z</time>
      </trkpt>
      <trkpt lat="46.53548" lon="6.08807">
        <ele>1224.4</ele>
        <time>2026-05-13T06:26:54Z</time>
      </trkpt>
      <trkpt lat="46.53554" lon="6.08812">
        <ele>1224.4</ele>
        <time>2026-05-13T06:26:55Z</time>
      </trkpt>
      <trkpt lat="46.53566" lon="6.08822">
        <ele>1224.4</ele>
        <time>2026-05-13T06:26:58Z</time>
      </trkpt>
      <trkpt lat="46.5358" lon="6.08831">
        <ele>1225</ele>
        <time>2026-05-13T06:27:02Z</time>
      </trkpt>
      <trkpt lat="46.53591" lon="6.08835">
        <ele>1225.6</ele>
        <time>2026-05-13T06:27:06Z</time>
      </trkpt>
      <trkpt lat="46.53596" lon="6.08836">
        <ele>1226.4</ele>
        <time>2026-05-13T06:27:08Z</time>
      </trkpt>
      <trkpt lat="46.53598" lon="6.08836">
        <ele>1226.4</ele>
        <time>2026-05-13T06:27:09Z</time>
      </trkpt>
      <trkpt lat="46.536" lon="6.08836">
        <ele>1226.8</ele>
        <time>2026-05-13T06:27:10Z</time>
      </trkpt>
      <trkpt lat="46.53605" lon="6.08837">
        <ele>1227.4</ele>
        <time>2026-05-13T06:27:12Z</time>
      </trkpt>
      <trkpt lat="46.53612" lon="6.0884">
        <ele>1227.8</ele>
        <time>2026-05-13T06:27:14Z</time>
      </trkpt>
      <trkpt lat="46.53624" lon="6.0885">
        <ele>1228.6</ele>
        <time>2026-05-13T06:27:18Z</time>
      </trkpt>
      <trkpt lat="46.53627" lon="6.08854">
        <ele>1228.6</ele>
        <time>2026-05-13T06:27:19Z</time>
      </trkpt>
      <trkpt lat="46.53645" lon="6.08865">
        <ele>1229.6</ele>
        <time>2026-05-13T06:27:24Z</time>
      </trkpt>
      <trkpt lat="46.53652" lon="6.08868">
        <ele>1230</ele>
        <time>2026-05-13T06:27:26Z</time>
      </trkpt>
      <trkpt lat="46.53672" lon="6.08874">
        <ele>1230.8</ele>
        <time>2026-05-13T06:27:32Z</time>
      </trkpt>
      <trkpt lat="46.53675" lon="6.08875">
        <ele>1231</ele>
        <time>2026-05-13T06:27:33Z</time>
      </trkpt>
      <trkpt lat="46.53692" lon="6.08882">
        <ele>1231.2</ele>
        <time>2026-05-13T06:27:37Z</time>
      </trkpt>
      <trkpt lat="46.53707" lon="6.08899">
        <ele>1231.6</ele>
        <time>2026-05-13T06:27:42Z</time>
      </trkpt>
      <trkpt lat="46.53718" lon="6.08919">
        <ele>1232</ele>
        <time>2026-05-13T06:27:46Z</time>
      </trkpt>
      <trkpt lat="46.53726" lon="6.08933">
        <ele>1232.2</ele>
        <time>2026-05-13T06:27:49Z</time>
      </trkpt>
      <trkpt lat="46.5374" lon="6.08976">
        <ele>1232.2</ele>
        <time>2026-05-13T06:27:57Z</time>
      </trkpt>
      <trkpt lat="46.53742" lon="6.09012">
        <ele>1232.6</ele>
        <time>2026-05-13T06:28:03Z</time>
      </trkpt>
      <trkpt lat="46.53744" lon="6.09029">
        <ele>1233.2</ele>
        <time>2026-05-13T06:28:06Z</time>
      </trkpt>
      <trkpt lat="46.53751" lon="6.09047">
        <ele>1233.6</ele>
        <time>2026-05-13T06:28:09Z</time>
      </trkpt>
      <trkpt lat="46.53765" lon="6.09065">
        <ele>1234.2</ele>
        <time>2026-05-13T06:28:13Z</time>
      </trkpt>
      <trkpt lat="46.53772" lon="6.09073">
        <ele>1234.4</ele>
        <time>2026-05-13T06:28:15Z</time>
      </trkpt>
      <trkpt lat="46.53798" lon="6.09096">
        <ele>1235.2</ele>
        <time>2026-05-13T06:28:22Z</time>
      </trkpt>
      <trkpt lat="46.53801" lon="6.09098">
        <ele>1235.4</ele>
        <time>2026-05-13T06:28:23Z</time>
      </trkpt>
      <trkpt lat="46.53814" lon="6.09108">
        <ele>1236</ele>
        <time>2026-05-13T06:28:27Z</time>
      </trkpt>
      <trkpt lat="46.53826" lon="6.09115">
        <ele>1236.4</ele>
        <time>2026-05-13T06:28:30Z</time>
      </trkpt>
      <trkpt lat="46.53837" lon="6.09123">
        <ele>1236.8</ele>
        <time>2026-05-13T06:28:33Z</time>
      </trkpt>
      <trkpt lat="46.53853" lon="6.09137">
        <ele>1237.4</ele>
        <time>2026-05-13T06:28:37Z</time>
      </trkpt>
      <trkpt lat="46.53857" lon="6.09141">
        <ele>1237.6</ele>
        <time>2026-05-13T06:28:38Z</time>
      </trkpt>
      <trkpt lat="46.53863" lon="6.09149">
        <ele>1238</ele>
        <time>2026-05-13T06:28:40Z</time>
      </trkpt>
      <trkpt lat="46.53874" lon="6.09157">
        <ele>1238.4</ele>
        <time>2026-05-13T06:28:43Z</time>
      </trkpt>
      <trkpt lat="46.53886" lon="6.09162">
        <ele>1238.8</ele>
        <time>2026-05-13T06:28:46Z</time>
      </trkpt>
      <trkpt lat="46.53903" lon="6.09166">
        <ele>1239</ele>
        <time>2026-05-13T06:28:50Z</time>
      </trkpt>
      <trkpt lat="46.53936" lon="6.09171">
        <ele>1239</ele>
        <time>2026-05-13T06:28:57Z</time>
      </trkpt>
      <trkpt lat="46.53945" lon="6.09171">
        <ele>1239</ele>
        <time>2026-05-13T06:28:59Z</time>
      </trkpt>
      <trkpt lat="46.53964" lon="6.09172">
        <ele>1238.6</ele>
        <time>2026-05-13T06:29:03Z</time>
      </trkpt>
      <trkpt lat="46.53998" lon="6.09179">
        <ele>1238.4</ele>
        <time>2026-05-13T06:29:10Z</time>
      </trkpt>
      <trkpt lat="46.54025" lon="6.09187">
        <ele>1237.8</ele>
        <time>2026-05-13T06:29:15Z</time>
      </trkpt>
      <trkpt lat="46.54036" lon="6.09191">
        <ele>1237.4</ele>
        <time>2026-05-13T06:29:17Z</time>
      </trkpt>
      <trkpt lat="46.54071" lon="6.092">
        <ele>1236.2</ele>
        <time>2026-05-13T06:29:22Z</time>
      </trkpt>
      <trkpt lat="46.54103" lon="6.09209">
        <ele>1234.8</ele>
        <time>2026-05-13T06:29:26Z</time>
      </trkpt>
      <trkpt lat="46.54119" lon="6.09212">
        <ele>1233.8</ele>
        <time>2026-05-13T06:29:28Z</time>
      </trkpt>
      <trkpt lat="46.54132" lon="6.09215">
        <ele>1233</ele>
        <time>2026-05-13T06:29:30Z</time>
      </trkpt>
      <trkpt lat="46.54138" lon="6.09218">
        <ele>1232.6</ele>
        <time>2026-05-13T06:29:31Z</time>
      </trkpt>
      <trkpt lat="46.54144" lon="6.09222">
        <ele>1232</ele>
        <time>2026-05-13T06:29:32Z</time>
      </trkpt>
      <trkpt lat="46.54154" lon="6.09233">
        <ele>1231.6</ele>
        <time>2026-05-13T06:29:34Z</time>
      </trkpt>
      <trkpt lat="46.54177" lon="6.09258">
        <ele>1230.8</ele>
        <time>2026-05-13T06:29:39Z</time>
      </trkpt>
      <trkpt lat="46.54182" lon="6.09264">
        <ele>1230.4</ele>
        <time>2026-05-13T06:29:40Z</time>
      </trkpt>
      <trkpt lat="46.54204" lon="6.09288">
        <ele>1230</ele>
        <time>2026-05-13T06:29:45Z</time>
      </trkpt>
      <trkpt lat="46.54219" lon="6.09304">
        <ele>1230.2</ele>
        <time>2026-05-13T06:29:49Z</time>
      </trkpt>
      <trkpt lat="46.54223" lon="6.09307">
        <ele>1230.2</ele>
        <time>2026-05-13T06:29:50Z</time>
      </trkpt>
      <trkpt lat="46.54234" lon="6.09316">
        <ele>1230.4</ele>
        <time>2026-05-13T06:29:53Z</time>
      </trkpt>
      <trkpt lat="46.5424" lon="6.09322">
        <ele>1230.8</ele>
        <time>2026-05-13T06:29:56Z</time>
      </trkpt>
      <trkpt lat="46.54254" lon="6.09329">
        <ele>1231.6</ele>
        <time>2026-05-13T06:30:00Z</time>
      </trkpt>
      <trkpt lat="46.54257" lon="6.09331">
        <ele>1231.6</ele>
        <time>2026-05-13T06:30:01Z</time>
      </trkpt>
      <trkpt lat="46.54267" lon="6.09332">
        <ele>1232.6</ele>
        <time>2026-05-13T06:30:05Z</time>
      </trkpt>
      <trkpt lat="46.54269" lon="6.09332">
        <ele>1232.8</ele>
        <time>2026-05-13T06:30:06Z</time>
      </trkpt>
      <trkpt lat="46.5428" lon="6.09331">
        <ele>1233.6</ele>
        <time>2026-05-13T06:30:10Z</time>
      </trkpt>
      <trkpt lat="46.54291" lon="6.09332">
        <ele>1234.2</ele>
        <time>2026-05-13T06:30:13Z</time>
      </trkpt>
      <trkpt lat="46.54308" lon="6.09343">
        <ele>1234.4</ele>
        <time>2026-05-13T06:30:17Z</time>
      </trkpt>
      <trkpt lat="46.54311" lon="6.09347">
        <ele>1234.6</ele>
        <time>2026-05-13T06:30:18Z</time>
      </trkpt>
      <trkpt lat="46.54338" lon="6.09373">
        <ele>1233.8</ele>
        <time>2026-05-13T06:30:24Z</time>
      </trkpt>
      <trkpt lat="46.54349" lon="6.09383">
        <ele>1233.2</ele>
        <time>2026-05-13T06:30:26Z</time>
      </trkpt>
      <trkpt lat="46.54361" lon="6.09392">
        <ele>1232.8</ele>
        <time>2026-05-13T06:30:28Z</time>
      </trkpt>
      <trkpt lat="46.54368" lon="6.09397">
        <ele>1232.6</ele>
        <time>2026-05-13T06:30:29Z</time>
      </trkpt>
      <trkpt lat="46.54381" lon="6.09407">
        <ele>1232.4</ele>
        <time>2026-05-13T06:30:31Z</time>
      </trkpt>
      <trkpt lat="46.54391" lon="6.09418">
        <ele>1231.4</ele>
        <time>2026-05-13T06:30:33Z</time>
      </trkpt>
      <trkpt lat="46.54396" lon="6.09424">
        <ele>1231</ele>
        <time>2026-05-13T06:30:34Z</time>
      </trkpt>
      <trkpt lat="46.54401" lon="6.09431">
        <ele>1230</ele>
        <time>2026-05-13T06:30:35Z</time>
      </trkpt>
      <trkpt lat="46.54411" lon="6.09447">
        <ele>1228.8</ele>
        <time>2026-05-13T06:30:37Z</time>
      </trkpt>
      <trkpt lat="46.5442" lon="6.09462">
        <ele>1227.6</ele>
        <time>2026-05-13T06:30:39Z</time>
      </trkpt>
      <trkpt lat="46.54433" lon="6.09473">
        <ele>1226.6</ele>
        <time>2026-05-13T06:30:41Z</time>
      </trkpt>
      <trkpt lat="46.54439" lon="6.09474">
        <ele>1225.8</ele>
        <time>2026-05-13T06:30:42Z</time>
      </trkpt>
      <trkpt lat="46.54445" lon="6.09474">
        <ele>1225</ele>
        <time>2026-05-13T06:30:43Z</time>
      </trkpt>
      <trkpt lat="46.54457" lon="6.09469">
        <ele>1224.4</ele>
        <time>2026-05-13T06:30:45Z</time>
      </trkpt>
      <trkpt lat="46.54472" lon="6.09457">
        <ele>1224</ele>
        <time>2026-05-13T06:30:48Z</time>
      </trkpt>
      <trkpt lat="46.5448" lon="6.09449">
        <ele>1224</ele>
        <time>2026-05-13T06:30:50Z</time>
      </trkpt>
      <trkpt lat="46.5451" lon="6.09434">
        <ele>1224.8</ele>
        <time>2026-05-13T06:30:57Z</time>
      </trkpt>
      <trkpt lat="46.54514" lon="6.09433">
        <ele>1225</ele>
        <time>2026-05-13T06:30:58Z</time>
      </trkpt>
      <trkpt lat="46.54522" lon="6.09432">
        <ele>1225.4</ele>
        <time>2026-05-13T06:31:00Z</time>
      </trkpt>
      <trkpt lat="46.54534" lon="6.09428">
        <ele>1225.8</ele>
        <time>2026-05-13T06:31:03Z</time>
      </trkpt>
      <trkpt lat="46.54544" lon="6.09423">
        <ele>1226.2</ele>
        <time>2026-05-13T06:31:06Z</time>
      </trkpt>
      <trkpt lat="46.54549" lon="6.0942">
        <ele>1226.4</ele>
        <time>2026-05-13T06:31:08Z</time>
      </trkpt>
      <trkpt lat="46.54561" lon="6.0941">
        <ele>1227.2</ele>
        <time>2026-05-13T06:31:13Z</time>
      </trkpt>
      <trkpt lat="46.54564" lon="6.09409">
        <ele>1227.4</ele>
        <time>2026-05-13T06:31:14Z</time>
      </trkpt>
      <trkpt lat="46.54571" lon="6.09407">
        <ele>1228.2</ele>
        <time>2026-05-13T06:31:17Z</time>
      </trkpt>
      <trkpt lat="46.54579" lon="6.09405">
        <ele>1229.2</ele>
        <time>2026-05-13T06:31:20Z</time>
      </trkpt>
      <trkpt lat="46.54584" lon="6.09404">
        <ele>1229.8</ele>
        <time>2026-05-13T06:31:22Z</time>
      </trkpt>
      <trkpt lat="46.54587" lon="6.09402">
        <ele>1230.6</ele>
        <time>2026-05-13T06:31:24Z</time>
      </trkpt>
      <trkpt lat="46.54593" lon="6.09399">
        <ele>1231.4</ele>
        <time>2026-05-13T06:31:27Z</time>
      </trkpt>
      <trkpt lat="46.54595" lon="6.09397">
        <ele>1232</ele>
        <time>2026-05-13T06:31:28Z</time>
      </trkpt>
      <trkpt lat="46.54603" lon="6.09389">
        <ele>1233.2</ele>
        <time>2026-05-13T06:31:33Z</time>
      </trkpt>
      <trkpt lat="46.54605" lon="6.09385">
        <ele>1233.4</ele>
        <time>2026-05-13T06:31:34Z</time>
      </trkpt>
      <trkpt lat="46.54607" lon="6.09379">
        <ele>1233.8</ele>
        <time>2026-05-13T06:31:36Z</time>
      </trkpt>
      <trkpt lat="46.54607" lon="6.09376">
        <ele>1234</ele>
        <time>2026-05-13T06:31:37Z</time>
      </trkpt>
      <trkpt lat="46.54608" lon="6.09373">
        <ele>1234.4</ele>
        <time>2026-05-13T06:31:38Z</time>
      </trkpt>
      <trkpt lat="46.54609" lon="6.0937">
        <ele>1234.6</ele>
        <time>2026-05-13T06:31:39Z</time>
      </trkpt>
      <trkpt lat="46.54609" lon="6.09356">
        <ele>1235.6</ele>
        <time>2026-05-13T06:31:43Z</time>
      </trkpt>
      <trkpt lat="46.5461" lon="6.09353">
        <ele>1235.8</ele>
        <time>2026-05-13T06:31:44Z</time>
      </trkpt>
      <trkpt lat="46.5461" lon="6.09349">
        <ele>1236</ele>
        <time>2026-05-13T06:31:45Z</time>
      </trkpt>
      <trkpt lat="46.5461" lon="6.09341">
        <ele>1236.6</ele>
        <time>2026-05-13T06:31:48Z</time>
      </trkpt>
      <trkpt lat="46.5461" lon="6.09338">
        <ele>1237</ele>
        <time>2026-05-13T06:31:49Z</time>
      </trkpt>
      <trkpt lat="46.5461" lon="6.09332">
        <ele>1237.6</ele>
        <time>2026-05-13T06:31:51Z</time>
      </trkpt>
      <trkpt lat="46.54611" lon="6.09329">
        <ele>1237.8</ele>
        <time>2026-05-13T06:31:52Z</time>
      </trkpt>
      <trkpt lat="46.54613" lon="6.09315">
        <ele>1239</ele>
        <time>2026-05-13T06:31:56Z</time>
      </trkpt>
      <trkpt lat="46.54614" lon="6.09309">
        <ele>1239.6</ele>
        <time>2026-05-13T06:31:58Z</time>
      </trkpt>
      <trkpt lat="46.54615" lon="6.093">
        <ele>1240.4</ele>
        <time>2026-05-13T06:32:01Z</time>
      </trkpt>
      <trkpt lat="46.54619" lon="6.09294">
        <ele>1241.4</ele>
        <time>2026-05-13T06:32:04Z</time>
      </trkpt>
      <trkpt lat="46.5462" lon="6.09291">
        <ele>1241.6</ele>
        <time>2026-05-13T06:32:05Z</time>
      </trkpt>
      <trkpt lat="46.54627" lon="6.09282">
        <ele>1242.6</ele>
        <time>2026-05-13T06:32:10Z</time>
      </trkpt>
      <trkpt lat="46.54629" lon="6.0928">
        <ele>1242.8</ele>
        <time>2026-05-13T06:32:11Z</time>
      </trkpt>
      <trkpt lat="46.54637" lon="6.09269">
        <ele>1243.6</ele>
        <time>2026-05-13T06:32:16Z</time>
      </trkpt>
      <trkpt lat="46.54647" lon="6.09258">
        <ele>1244.8</ele>
        <time>2026-05-13T06:32:22Z</time>
      </trkpt>
      <trkpt lat="46.54655" lon="6.09252">
        <ele>1245.8</ele>
        <time>2026-05-13T06:32:27Z</time>
      </trkpt>
      <trkpt lat="46.54663" lon="6.09248">
        <ele>1247</ele>
        <time>2026-05-13T06:32:31Z</time>
      </trkpt>
      <trkpt lat="46.5467" lon="6.09242">
        <ele>1247.8</ele>
        <time>2026-05-13T06:32:35Z</time>
      </trkpt>
      <trkpt lat="46.54672" lon="6.0924">
        <ele>1248</ele>
        <time>2026-05-13T06:32:36Z</time>
      </trkpt>
      <trkpt lat="46.54683" lon="6.09228">
        <ele>1249.2</ele>
        <time>2026-05-13T06:32:42Z</time>
      </trkpt>
      <trkpt lat="46.54684" lon="6.09225">
        <ele>1249.2</ele>
        <time>2026-05-13T06:32:43Z</time>
      </trkpt>
      <trkpt lat="46.5469" lon="6.09212">
        <ele>1250.2</ele>
        <time>2026-05-13T06:32:48Z</time>
      </trkpt>
      <trkpt lat="46.54692" lon="6.09207">
        <ele>1250.6</ele>
        <time>2026-05-13T06:32:50Z</time>
      </trkpt>
      <trkpt lat="46.54696" lon="6.09197">
        <ele>1251.2</ele>
        <time>2026-05-13T06:32:55Z</time>
      </trkpt>
      <trkpt lat="46.54697" lon="6.09192">
        <ele>1251.2</ele>
        <time>2026-05-13T06:32:57Z</time>
      </trkpt>
      <trkpt lat="46.54698" lon="6.09189">
        <ele>1251.4</ele>
        <time>2026-05-13T06:32:59Z</time>
      </trkpt>
      <trkpt lat="46.547" lon="6.09181">
        <ele>1251.4</ele>
        <time>2026-05-13T06:33:03Z</time>
      </trkpt>
      <trkpt lat="46.54701" lon="6.0918">
        <ele>1251.4</ele>
        <time>2026-05-13T06:33:04Z</time>
      </trkpt>
      <trkpt lat="46.54703" lon="6.09173">
        <ele>1251.2</ele>
        <time>2026-05-13T06:33:07Z</time>
      </trkpt>
      <trkpt lat="46.54711" lon="6.09159">
        <ele>1250.8</ele>
        <time>2026-05-13T06:33:14Z</time>
      </trkpt>
      <trkpt lat="46.54724" lon="6.09152">
        <ele>1250.2</ele>
        <time>2026-05-13T06:33:20Z</time>
      </trkpt>
      <trkpt lat="46.54726" lon="6.09152">
        <ele>1250.2</ele>
        <time>2026-05-13T06:33:21Z</time>
      </trkpt>
      <trkpt lat="46.54728" lon="6.0915">
        <ele>1250.2</ele>
        <time>2026-05-13T06:33:22Z</time>
      </trkpt>
      <trkpt lat="46.54743" lon="6.09141">
        <ele>1249</ele>
        <time>2026-05-13T06:33:28Z</time>
      </trkpt>
      <trkpt lat="46.54754" lon="6.09133">
        <ele>1247.8</ele>
        <time>2026-05-13T06:33:32Z</time>
      </trkpt>
      <trkpt lat="46.54759" lon="6.0913">
        <ele>1247.4</ele>
        <time>2026-05-13T06:33:33Z</time>
      </trkpt>
      <trkpt lat="46.54764" lon="6.09126">
        <ele>1247.4</ele>
        <time>2026-05-13T06:33:34Z</time>
      </trkpt>
      <trkpt lat="46.54775" lon="6.09118">
        <ele>1246.8</ele>
        <time>2026-05-13T06:33:36Z</time>
      </trkpt>
      <trkpt lat="46.5478" lon="6.09115">
        <ele>1246.6</ele>
        <time>2026-05-13T06:33:37Z</time>
      </trkpt>
      <trkpt lat="46.54792" lon="6.09107">
        <ele>1246.2</ele>
        <time>2026-05-13T06:33:39Z</time>
      </trkpt>
      <trkpt lat="46.54804" lon="6.09097">
        <ele>1245.4</ele>
        <time>2026-05-13T06:33:41Z</time>
      </trkpt>
      <trkpt lat="46.54809" lon="6.09093">
        <ele>1244.6</ele>
        <time>2026-05-13T06:33:42Z</time>
      </trkpt>
      <trkpt lat="46.54814" lon="6.09088">
        <ele>1244.2</ele>
        <time>2026-05-13T06:33:43Z</time>
      </trkpt>
      <trkpt lat="46.54818" lon="6.09083">
        <ele>1244</ele>
        <time>2026-05-13T06:33:44Z</time>
      </trkpt>
      <trkpt lat="46.54824" lon="6.09073">
        <ele>1243.2</ele>
        <time>2026-05-13T06:33:46Z</time>
      </trkpt>
      <trkpt lat="46.54829" lon="6.09068">
        <ele>1242.6</ele>
        <time>2026-05-13T06:33:47Z</time>
      </trkpt>
      <trkpt lat="46.54832" lon="6.09063">
        <ele>1242</ele>
        <time>2026-05-13T06:33:48Z</time>
      </trkpt>
      <trkpt lat="46.54838" lon="6.09049">
        <ele>1241.4</ele>
        <time>2026-05-13T06:33:51Z</time>
      </trkpt>
      <trkpt lat="46.5484" lon="6.09046">
        <ele>1240.8</ele>
        <time>2026-05-13T06:33:52Z</time>
      </trkpt>
      <trkpt lat="46.54847" lon="6.09037">
        <ele>1240</ele>
        <time>2026-05-13T06:33:56Z</time>
      </trkpt>
      <trkpt lat="46.54847" lon="6.09036">
        <ele>1239.8</ele>
        <time>2026-05-13T06:33:57Z</time>
      </trkpt>
      <trkpt lat="46.54847" lon="6.09036">
        <ele>1239.4</ele>
        <time>2026-05-13T06:33:58Z</time>
      </trkpt>
      <trkpt lat="46.54854" lon="6.09028">
        <ele>1238</ele>
        <time>2026-05-13T06:51:22Z</time>
      </trkpt>
      <trkpt lat="46.54856" lon="6.09026">
        <ele>1238</ele>
        <time>2026-05-13T06:51:23Z</time>
      </trkpt>
      <trkpt lat="46.54863" lon="6.09014">
        <ele>1237.8</ele>
        <time>2026-05-13T06:51:27Z</time>
      </trkpt>
      <trkpt lat="46.54874" lon="6.08998">
        <ele>1237</ele>
        <time>2026-05-13T06:51:32Z</time>
      </trkpt>
      <trkpt lat="46.54877" lon="6.08993">
        <ele>1236.6</ele>
        <time>2026-05-13T06:51:33Z</time>
      </trkpt>
      <trkpt lat="46.54885" lon="6.08979">
        <ele>1235.4</ele>
        <time>2026-05-13T06:51:36Z</time>
      </trkpt>
      <trkpt lat="46.54889" lon="6.08974">
        <ele>1235.4</ele>
        <time>2026-05-13T06:51:37Z</time>
      </trkpt>
      <trkpt lat="46.54904" lon="6.08959">
        <ele>1234.2</ele>
        <time>2026-05-13T06:51:40Z</time>
      </trkpt>
      <trkpt lat="46.5491" lon="6.08953">
        <ele>1233.6</ele>
        <time>2026-05-13T06:51:41Z</time>
      </trkpt>
      <trkpt lat="46.54916" lon="6.08947">
        <ele>1232.8</ele>
        <time>2026-05-13T06:51:42Z</time>
      </trkpt>
      <trkpt lat="46.54929" lon="6.08936">
        <ele>1232</ele>
        <time>2026-05-13T06:51:44Z</time>
      </trkpt>
      <trkpt lat="46.54941" lon="6.08925">
        <ele>1230.8</ele>
        <time>2026-05-13T06:51:46Z</time>
      </trkpt>
      <trkpt lat="46.54958" lon="6.08907">
        <ele>1229.6</ele>
        <time>2026-05-13T06:51:49Z</time>
      </trkpt>
      <trkpt lat="46.54968" lon="6.08895">
        <ele>1228.8</ele>
        <time>2026-05-13T06:51:51Z</time>
      </trkpt>
      <trkpt lat="46.54974" lon="6.08888">
        <ele>1228.4</ele>
        <time>2026-05-13T06:51:52Z</time>
      </trkpt>
      <trkpt lat="46.54996" lon="6.08861">
        <ele>1228</ele>
        <time>2026-05-13T06:51:56Z</time>
      </trkpt>
      <trkpt lat="46.55013" lon="6.08847">
        <ele>1227</ele>
        <time>2026-05-13T06:51:59Z</time>
      </trkpt>
      <trkpt lat="46.55032" lon="6.08833">
        <ele>1226.2</ele>
        <time>2026-05-13T06:52:02Z</time>
      </trkpt>
      <trkpt lat="46.55039" lon="6.08831">
        <ele>1226</ele>
        <time>2026-05-13T06:52:03Z</time>
      </trkpt>
      <trkpt lat="46.55063" lon="6.08825">
        <ele>1225</ele>
        <time>2026-05-13T06:52:06Z</time>
      </trkpt>
      <trkpt lat="46.55092" lon="6.08825">
        <ele>1224.2</ele>
        <time>2026-05-13T06:52:10Z</time>
      </trkpt>
      <trkpt lat="46.55098" lon="6.08822">
        <ele>1223.8</ele>
        <time>2026-05-13T06:52:11Z</time>
      </trkpt>
      <trkpt lat="46.55105" lon="6.08817">
        <ele>1223.8</ele>
        <time>2026-05-13T06:52:12Z</time>
      </trkpt>
      <trkpt lat="46.5511" lon="6.08812">
        <ele>1223.8</ele>
        <time>2026-05-13T06:52:13Z</time>
      </trkpt>
      <trkpt lat="46.55128" lon="6.08787">
        <ele>1223.6</ele>
        <time>2026-05-13T06:52:17Z</time>
      </trkpt>
      <trkpt lat="46.55133" lon="6.08783">
        <ele>1223.6</ele>
        <time>2026-05-13T06:52:18Z</time>
      </trkpt>
      <trkpt lat="46.55138" lon="6.08781">
        <ele>1223.6</ele>
        <time>2026-05-13T06:52:19Z</time>
      </trkpt>
      <trkpt lat="46.55149" lon="6.08778">
        <ele>1223.6</ele>
        <time>2026-05-13T06:52:21Z</time>
      </trkpt>
      <trkpt lat="46.55155" lon="6.0878">
        <ele>1223.2</ele>
        <time>2026-05-13T06:52:22Z</time>
      </trkpt>
      <trkpt lat="46.55175" lon="6.08782">
        <ele>1223.2</ele>
        <time>2026-05-13T06:52:26Z</time>
      </trkpt>
      <trkpt lat="46.55197" lon="6.08785">
        <ele>1223.8</ele>
        <time>2026-05-13T06:52:30Z</time>
      </trkpt>
      <trkpt lat="46.5521" lon="6.08781">
        <ele>1223.8</ele>
        <time>2026-05-13T06:52:32Z</time>
      </trkpt>
      <trkpt lat="46.55222" lon="6.08776">
        <ele>1224.2</ele>
        <time>2026-05-13T06:52:34Z</time>
      </trkpt>
      <trkpt lat="46.5524" lon="6.08765">
        <ele>1224.2</ele>
        <time>2026-05-13T06:52:37Z</time>
      </trkpt>
      <trkpt lat="46.55251" lon="6.08754">
        <ele>1224.2</ele>
        <time>2026-05-13T06:52:39Z</time>
      </trkpt>
      <trkpt lat="46.55263" lon="6.08744">
        <ele>1223.8</ele>
        <time>2026-05-13T06:52:41Z</time>
      </trkpt>
      <trkpt lat="46.55305" lon="6.08718">
        <ele>1223.2</ele>
        <time>2026-05-13T06:52:48Z</time>
      </trkpt>
      <trkpt lat="46.55321" lon="6.08719">
        <ele>1223.2</ele>
        <time>2026-05-13T06:52:52Z</time>
      </trkpt>
      <trkpt lat="46.55341" lon="6.08718">
        <ele>1224.8</ele>
        <time>2026-05-13T06:52:58Z</time>
      </trkpt>
      <trkpt lat="46.55352" lon="6.08711">
        <ele>1226.2</ele>
        <time>2026-05-13T06:53:02Z</time>
      </trkpt>
      <trkpt lat="46.55355" lon="6.08708">
        <ele>1226.4</ele>
        <time>2026-05-13T06:53:03Z</time>
      </trkpt>
      <trkpt lat="46.55374" lon="6.08679">
        <ele>1227.4</ele>
        <time>2026-05-13T06:53:10Z</time>
      </trkpt>
      <trkpt lat="46.55388" lon="6.08659">
        <ele>1228.4</ele>
        <time>2026-05-13T06:53:15Z</time>
      </trkpt>
      <trkpt lat="46.55395" lon="6.08651">
        <ele>1228.6</ele>
        <time>2026-05-13T06:53:17Z</time>
      </trkpt>
      <trkpt lat="46.5541" lon="6.0862">
        <ele>1228.8</ele>
        <time>2026-05-13T06:53:23Z</time>
      </trkpt>
      <trkpt lat="46.55423" lon="6.08586">
        <ele>1228.6</ele>
        <time>2026-05-13T06:53:28Z</time>
      </trkpt>
      <trkpt lat="46.55431" lon="6.08568">
        <ele>1228.4</ele>
        <time>2026-05-13T06:53:31Z</time>
      </trkpt>
      <trkpt lat="46.55441" lon="6.08554">
        <ele>1228</ele>
        <time>2026-05-13T06:53:34Z</time>
      </trkpt>
      <trkpt lat="46.55462" lon="6.08536">
        <ele>1227.8</ele>
        <time>2026-05-13T06:53:39Z</time>
      </trkpt>
      <trkpt lat="46.55471" lon="6.08529">
        <ele>1227.8</ele>
        <time>2026-05-13T06:53:41Z</time>
      </trkpt>
      <trkpt lat="46.55495" lon="6.08517">
        <ele>1228</ele>
        <time>2026-05-13T06:53:46Z</time>
      </trkpt>
      <trkpt lat="46.55509" lon="6.08511">
        <ele>1228</ele>
        <time>2026-05-13T06:53:49Z</time>
      </trkpt>
      <trkpt lat="46.55519" lon="6.08506">
        <ele>1228</ele>
        <time>2026-05-13T06:53:51Z</time>
      </trkpt>
      <trkpt lat="46.55528" lon="6.08498">
        <ele>1228</ele>
        <time>2026-05-13T06:53:53Z</time>
      </trkpt>
      <trkpt lat="46.55534" lon="6.08487">
        <ele>1228</ele>
        <time>2026-05-13T06:53:55Z</time>
      </trkpt>
      <trkpt lat="46.55537" lon="6.08482">
        <ele>1228</ele>
        <time>2026-05-13T06:53:56Z</time>
      </trkpt>
      <trkpt lat="46.55552" lon="6.08448">
        <ele>1227.6</ele>
        <time>2026-05-13T06:54:01Z</time>
      </trkpt>
      <trkpt lat="46.55559" lon="6.08434">
        <ele>1227.4</ele>
        <time>2026-05-13T06:54:03Z</time>
      </trkpt>
      <trkpt lat="46.55563" lon="6.08428">
        <ele>1227</ele>
        <time>2026-05-13T06:54:04Z</time>
      </trkpt>
      <trkpt lat="46.55567" lon="6.08419">
        <ele>1226.6</ele>
        <time>2026-05-13T06:54:06Z</time>
      </trkpt>
      <trkpt lat="46.55573" lon="6.0841">
        <ele>1225.4</ele>
        <time>2026-05-13T06:54:09Z</time>
      </trkpt>
      <trkpt lat="46.55573" lon="6.0841">
        <ele>1224.8</ele>
        <time>2026-05-13T06:54:10Z</time>
      </trkpt>
      <trkpt lat="46.55573" lon="6.0841">
        <ele>1224</ele>
        <time>2026-05-13T06:54:12Z</time>
      </trkpt>
      <trkpt lat="46.55577" lon="6.08408">
        <ele>1222.2</ele>
        <time>2026-05-13T06:56:36Z</time>
      </trkpt>
      <trkpt lat="46.5558" lon="6.08407">
        <ele>1222.2</ele>
        <time>2026-05-13T06:56:37Z</time>
      </trkpt>
      <trkpt lat="46.55594" lon="6.08405">
        <ele>1221.8</ele>
        <time>2026-05-13T06:56:41Z</time>
      </trkpt>
      <trkpt lat="46.55611" lon="6.08414">
        <ele>1221</ele>
        <time>2026-05-13T06:56:45Z</time>
      </trkpt>
      <trkpt lat="46.55616" lon="6.08417">
        <ele>1220.6</ele>
        <time>2026-05-13T06:56:46Z</time>
      </trkpt>
      <trkpt lat="46.55621" lon="6.08419">
        <ele>1220.2</ele>
        <time>2026-05-13T06:56:47Z</time>
      </trkpt>
      <trkpt lat="46.55627" lon="6.0842">
        <ele>1219.6</ele>
        <time>2026-05-13T06:56:48Z</time>
      </trkpt>
      <trkpt lat="46.55647" lon="6.08423">
        <ele>1218.2</ele>
        <time>2026-05-13T06:56:51Z</time>
      </trkpt>
      <trkpt lat="46.55653" lon="6.08424">
        <ele>1218</ele>
        <time>2026-05-13T06:56:52Z</time>
      </trkpt>
      <trkpt lat="46.5567" lon="6.0843">
        <ele>1217</ele>
        <time>2026-05-13T06:56:54Z</time>
      </trkpt>
      <trkpt lat="46.55679" lon="6.08432">
        <ele>1216.4</ele>
        <time>2026-05-13T06:56:55Z</time>
      </trkpt>
      <trkpt lat="46.55688" lon="6.08434">
        <ele>1215.8</ele>
        <time>2026-05-13T06:56:56Z</time>
      </trkpt>
      <trkpt lat="46.55697" lon="6.08438">
        <ele>1215.2</ele>
        <time>2026-05-13T06:56:57Z</time>
      </trkpt>
      <trkpt lat="46.55707" lon="6.08444">
        <ele>1214.4</ele>
        <time>2026-05-13T06:56:58Z</time>
      </trkpt>
      <trkpt lat="46.55715" lon="6.08449">
        <ele>1214</ele>
        <time>2026-05-13T06:56:59Z</time>
      </trkpt>
      <trkpt lat="46.5572" lon="6.08454">
        <ele>1213</ele>
        <time>2026-05-13T06:57:00Z</time>
      </trkpt>
      <trkpt lat="46.55733" lon="6.08465">
        <ele>1211.4</ele>
        <time>2026-05-13T06:57:02Z</time>
      </trkpt>
      <trkpt lat="46.5574" lon="6.0847">
        <ele>1210.2</ele>
        <time>2026-05-13T06:57:03Z</time>
      </trkpt>
      <trkpt lat="46.55748" lon="6.08473">
        <ele>1209.4</ele>
        <time>2026-05-13T06:57:04Z</time>
      </trkpt>
      <trkpt lat="46.55755" lon="6.08475">
        <ele>1208.4</ele>
        <time>2026-05-13T06:57:05Z</time>
      </trkpt>
      <trkpt lat="46.55771" lon="6.08476">
        <ele>1207</ele>
        <time>2026-05-13T06:57:07Z</time>
      </trkpt>
      <trkpt lat="46.5578" lon="6.08475">
        <ele>1206</ele>
        <time>2026-05-13T06:57:08Z</time>
      </trkpt>
      <trkpt lat="46.55785" lon="6.08474">
        <ele>1205.2</ele>
        <time>2026-05-13T06:57:09Z</time>
      </trkpt>
      <trkpt lat="46.55791" lon="6.0847">
        <ele>1205</ele>
        <time>2026-05-13T06:57:10Z</time>
      </trkpt>
      <trkpt lat="46.55795" lon="6.08464">
        <ele>1204.2</ele>
        <time>2026-05-13T06:57:11Z</time>
      </trkpt>
      <trkpt lat="46.55796" lon="6.08458">
        <ele>1203.6</ele>
        <time>2026-05-13T06:57:12Z</time>
      </trkpt>
      <trkpt lat="46.55793" lon="6.08449">
        <ele>1202.6</ele>
        <time>2026-05-13T06:57:13Z</time>
      </trkpt>
      <trkpt lat="46.55788" lon="6.08441">
        <ele>1202</ele>
        <time>2026-05-13T06:57:14Z</time>
      </trkpt>
      <trkpt lat="46.55782" lon="6.08435">
        <ele>1201.2</ele>
        <time>2026-05-13T06:57:15Z</time>
      </trkpt>
      <trkpt lat="46.55775" lon="6.0843">
        <ele>1200.4</ele>
        <time>2026-05-13T06:57:16Z</time>
      </trkpt>
      <trkpt lat="46.55768" lon="6.08426">
        <ele>1200</ele>
        <time>2026-05-13T06:57:17Z</time>
      </trkpt>
      <trkpt lat="46.55761" lon="6.08423">
        <ele>1199.4</ele>
        <time>2026-05-13T06:57:18Z</time>
      </trkpt>
      <trkpt lat="46.55754" lon="6.08421">
        <ele>1198.8</ele>
        <time>2026-05-13T06:57:19Z</time>
      </trkpt>
      <trkpt lat="46.55746" lon="6.08419">
        <ele>1198.6</ele>
        <time>2026-05-13T06:57:20Z</time>
      </trkpt>
      <trkpt lat="46.55724" lon="6.08417">
        <ele>1197.6</ele>
        <time>2026-05-13T06:57:23Z</time>
      </trkpt>
      <trkpt lat="46.55713" lon="6.08411">
        <ele>1196.8</ele>
        <time>2026-05-13T06:57:25Z</time>
      </trkpt>
      <trkpt lat="46.55711" lon="6.08404">
        <ele>1196.6</ele>
        <time>2026-05-13T06:57:26Z</time>
      </trkpt>
      <trkpt lat="46.55709" lon="6.08396">
        <ele>1196.4</ele>
        <time>2026-05-13T06:57:27Z</time>
      </trkpt>
      <trkpt lat="46.55708" lon="6.08387">
        <ele>1196</ele>
        <time>2026-05-13T06:57:28Z</time>
      </trkpt>
      <trkpt lat="46.5571" lon="6.0838">
        <ele>1195.4</ele>
        <time>2026-05-13T06:57:29Z</time>
      </trkpt>
      <trkpt lat="46.55715" lon="6.08376">
        <ele>1195.2</ele>
        <time>2026-05-13T06:57:30Z</time>
      </trkpt>
      <trkpt lat="46.55722" lon="6.08374">
        <ele>1194.6</ele>
        <time>2026-05-13T06:57:31Z</time>
      </trkpt>
      <trkpt lat="46.55728" lon="6.08375">
        <ele>1194</ele>
        <time>2026-05-13T06:57:32Z</time>
      </trkpt>
      <trkpt lat="46.55736" lon="6.08378">
        <ele>1193.2</ele>
        <time>2026-05-13T06:57:33Z</time>
      </trkpt>
      <trkpt lat="46.55743" lon="6.08383">
        <ele>1192.2</ele>
        <time>2026-05-13T06:57:34Z</time>
      </trkpt>
      <trkpt lat="46.55755" lon="6.08389">
        <ele>1191.4</ele>
        <time>2026-05-13T06:57:36Z</time>
      </trkpt>
      <trkpt lat="46.55762" lon="6.08391">
        <ele>1191</ele>
        <time>2026-05-13T06:57:37Z</time>
      </trkpt>
      <trkpt lat="46.55777" lon="6.08391">
        <ele>1189.8</ele>
        <time>2026-05-13T06:57:39Z</time>
      </trkpt>
      <trkpt lat="46.5579" lon="6.08391">
        <ele>1188.4</ele>
        <time>2026-05-13T06:57:41Z</time>
      </trkpt>
      <trkpt lat="46.55804" lon="6.08389">
        <ele>1186.8</ele>
        <time>2026-05-13T06:57:43Z</time>
      </trkpt>
      <trkpt lat="46.55809" lon="6.0839">
        <ele>1185.8</ele>
        <time>2026-05-13T06:57:44Z</time>
      </trkpt>
      <trkpt lat="46.55816" lon="6.08391">
        <ele>1184.4</ele>
        <time>2026-05-13T06:57:46Z</time>
      </trkpt>
      <trkpt lat="46.5582" lon="6.08391">
        <ele>1183.8</ele>
        <time>2026-05-13T06:57:47Z</time>
      </trkpt>
      <trkpt lat="46.55824" lon="6.08392">
        <ele>1183</ele>
        <time>2026-05-13T06:57:48Z</time>
      </trkpt>
      <trkpt lat="46.5584" lon="6.084">
        <ele>1181.4</ele>
        <time>2026-05-13T06:57:51Z</time>
      </trkpt>
      <trkpt lat="46.55847" lon="6.08405">
        <ele>1181.2</ele>
        <time>2026-05-13T06:57:52Z</time>
      </trkpt>
      <trkpt lat="46.55858" lon="6.08417">
        <ele>1180</ele>
        <time>2026-05-13T06:57:54Z</time>
      </trkpt>
      <trkpt lat="46.55875" lon="6.08439">
        <ele>1178.6</ele>
        <time>2026-05-13T06:57:57Z</time>
      </trkpt>
      <trkpt lat="46.55881" lon="6.08444">
        <ele>1177.8</ele>
        <time>2026-05-13T06:57:58Z</time>
      </trkpt>
      <trkpt lat="46.55886" lon="6.08448">
        <ele>1176.8</ele>
        <time>2026-05-13T06:57:59Z</time>
      </trkpt>
      <trkpt lat="46.55892" lon="6.08452">
        <ele>1176.8</ele>
        <time>2026-05-13T06:58:00Z</time>
      </trkpt>
      <trkpt lat="46.55897" lon="6.08458">
        <ele>1175.6</ele>
        <time>2026-05-13T06:58:01Z</time>
      </trkpt>
      <trkpt lat="46.55903" lon="6.08466">
        <ele>1175.2</ele>
        <time>2026-05-13T06:58:02Z</time>
      </trkpt>
      <trkpt lat="46.55909" lon="6.08475">
        <ele>1174.4</ele>
        <time>2026-05-13T06:58:03Z</time>
      </trkpt>
      <trkpt lat="46.55916" lon="6.08482">
        <ele>1173.2</ele>
        <time>2026-05-13T06:58:04Z</time>
      </trkpt>
      <trkpt lat="46.55925" lon="6.08487">
        <ele>1172.6</ele>
        <time>2026-05-13T06:58:05Z</time>
      </trkpt>
      <trkpt lat="46.55935" lon="6.0849">
        <ele>1171.6</ele>
        <time>2026-05-13T06:58:06Z</time>
      </trkpt>
      <trkpt lat="46.55942" lon="6.0849">
        <ele>1171.4</ele>
        <time>2026-05-13T06:58:07Z</time>
      </trkpt>
      <trkpt lat="46.55949" lon="6.08489">
        <ele>1170.2</ele>
        <time>2026-05-13T06:58:08Z</time>
      </trkpt>
      <trkpt lat="46.55954" lon="6.08488">
        <ele>1169.8</ele>
        <time>2026-05-13T06:58:09Z</time>
      </trkpt>
      <trkpt lat="46.5596" lon="6.08488">
        <ele>1168.8</ele>
        <time>2026-05-13T06:58:10Z</time>
      </trkpt>
      <trkpt lat="46.55965" lon="6.08489">
        <ele>1167.6</ele>
        <time>2026-05-13T06:58:11Z</time>
      </trkpt>
      <trkpt lat="46.55971" lon="6.08492">
        <ele>1167.2</ele>
        <time>2026-05-13T06:58:12Z</time>
      </trkpt>
      <trkpt lat="46.55978" lon="6.08498">
        <ele>1166.4</ele>
        <time>2026-05-13T06:58:13Z</time>
      </trkpt>
      <trkpt lat="46.55984" lon="6.08506">
        <ele>1165.4</ele>
        <time>2026-05-13T06:58:14Z</time>
      </trkpt>
      <trkpt lat="46.55989" lon="6.08512">
        <ele>1164.8</ele>
        <time>2026-05-13T06:58:15Z</time>
      </trkpt>
      <trkpt lat="46.55998" lon="6.08522">
        <ele>1164</ele>
        <time>2026-05-13T06:58:16Z</time>
      </trkpt>
      <trkpt lat="46.56008" lon="6.08529">
        <ele>1163.4</ele>
        <time>2026-05-13T06:58:17Z</time>
      </trkpt>
      <trkpt lat="46.56017" lon="6.08535">
        <ele>1162.4</ele>
        <time>2026-05-13T06:58:18Z</time>
      </trkpt>
      <trkpt lat="46.56035" lon="6.08544">
        <ele>1161.2</ele>
        <time>2026-05-13T06:58:20Z</time>
      </trkpt>
      <trkpt lat="46.56054" lon="6.08549">
        <ele>1160.6</ele>
        <time>2026-05-13T06:58:22Z</time>
      </trkpt>
      <trkpt lat="46.56062" lon="6.08547">
        <ele>1159.4</ele>
        <time>2026-05-13T06:58:23Z</time>
      </trkpt>
      <trkpt lat="46.56079" lon="6.08539">
        <ele>1158.6</ele>
        <time>2026-05-13T06:58:25Z</time>
      </trkpt>
      <trkpt lat="46.56089" lon="6.08535">
        <ele>1157.8</ele>
        <time>2026-05-13T06:58:26Z</time>
      </trkpt>
      <trkpt lat="46.56105" lon="6.08524">
        <ele>1157</ele>
        <time>2026-05-13T06:58:28Z</time>
      </trkpt>
      <trkpt lat="46.5611" lon="6.08517">
        <ele>1156.4</ele>
        <time>2026-05-13T06:58:29Z</time>
      </trkpt>
      <trkpt lat="46.56115" lon="6.08508">
        <ele>1156.2</ele>
        <time>2026-05-13T06:58:30Z</time>
      </trkpt>
      <trkpt lat="46.56126" lon="6.08486">
        <ele>1155.4</ele>
        <time>2026-05-13T06:58:32Z</time>
      </trkpt>
      <trkpt lat="46.56138" lon="6.08469">
        <ele>1154</ele>
        <time>2026-05-13T06:58:34Z</time>
      </trkpt>
      <trkpt lat="46.56157" lon="6.08439">
        <ele>1152.8</ele>
        <time>2026-05-13T06:58:37Z</time>
      </trkpt>
      <trkpt lat="46.5616" lon="6.08431">
        <ele>1152.2</ele>
        <time>2026-05-13T06:58:38Z</time>
      </trkpt>
      <trkpt lat="46.56163" lon="6.08421">
        <ele>1151</ele>
        <time>2026-05-13T06:58:39Z</time>
      </trkpt>
      <trkpt lat="46.56167" lon="6.084">
        <ele>1149.6</ele>
        <time>2026-05-13T06:58:41Z</time>
      </trkpt>
      <trkpt lat="46.56168" lon="6.0839">
        <ele>1149.2</ele>
        <time>2026-05-13T06:58:42Z</time>
      </trkpt>
      <trkpt lat="46.56166" lon="6.08381">
        <ele>1148</ele>
        <time>2026-05-13T06:58:43Z</time>
      </trkpt>
      <trkpt lat="46.56161" lon="6.08355">
        <ele>1146.8</ele>
        <time>2026-05-13T06:58:45Z</time>
      </trkpt>
      <trkpt lat="46.56154" lon="6.08326">
        <ele>1145.4</ele>
        <time>2026-05-13T06:58:47Z</time>
      </trkpt>
      <trkpt lat="46.56151" lon="6.08303">
        <ele>1143.6</ele>
        <time>2026-05-13T06:58:49Z</time>
      </trkpt>
      <trkpt lat="46.5615" lon="6.08276">
        <ele>1142.4</ele>
        <time>2026-05-13T06:58:51Z</time>
      </trkpt>
      <trkpt lat="46.56152" lon="6.08248">
        <ele>1140.8</ele>
        <time>2026-05-13T06:58:53Z</time>
      </trkpt>
      <trkpt lat="46.56153" lon="6.08222">
        <ele>1139.4</ele>
        <time>2026-05-13T06:58:55Z</time>
      </trkpt>
      <trkpt lat="46.56153" lon="6.08204">
        <ele>1138</ele>
        <time>2026-05-13T06:58:56Z</time>
      </trkpt>
      <trkpt lat="46.56152" lon="6.08191">
        <ele>1136.8</ele>
        <time>2026-05-13T06:58:57Z</time>
      </trkpt>
      <trkpt lat="46.56151" lon="6.08178">
        <ele>1136.4</ele>
        <time>2026-05-13T06:58:58Z</time>
      </trkpt>
      <trkpt lat="46.56151" lon="6.08167">
        <ele>1135.4</ele>
        <time>2026-05-13T06:58:59Z</time>
      </trkpt>
      <trkpt lat="46.56149" lon="6.08153">
        <ele>1135</ele>
        <time>2026-05-13T06:59:00Z</time>
      </trkpt>
      <trkpt lat="46.56146" lon="6.08135">
        <ele>1133.6</ele>
        <time>2026-05-13T06:59:01Z</time>
      </trkpt>
      <trkpt lat="46.56144" lon="6.08121">
        <ele>1132.4</ele>
        <time>2026-05-13T06:59:02Z</time>
      </trkpt>
      <trkpt lat="46.56142" lon="6.08092">
        <ele>1131</ele>
        <time>2026-05-13T06:59:04Z</time>
      </trkpt>
      <trkpt lat="46.5614" lon="6.08062">
        <ele>1129.6</ele>
        <time>2026-05-13T06:59:06Z</time>
      </trkpt>
      <trkpt lat="46.56139" lon="6.08042">
        <ele>1128.2</ele>
        <time>2026-05-13T06:59:07Z</time>
      </trkpt>
      <trkpt lat="46.56138" lon="6.08031">
        <ele>1127.6</ele>
        <time>2026-05-13T06:59:08Z</time>
      </trkpt>
      <trkpt lat="46.56138" lon="6.08016">
        <ele>1126.4</ele>
        <time>2026-05-13T06:59:09Z</time>
      </trkpt>
      <trkpt lat="46.5614" lon="6.07984">
        <ele>1124.4</ele>
        <time>2026-05-13T06:59:11Z</time>
      </trkpt>
      <trkpt lat="46.56141" lon="6.0797">
        <ele>1123.6</ele>
        <time>2026-05-13T06:59:12Z</time>
      </trkpt>
      <trkpt lat="46.56142" lon="6.07961">
        <ele>1123</ele>
        <time>2026-05-13T06:59:13Z</time>
      </trkpt>
      <trkpt lat="46.56145" lon="6.07949">
        <ele>1121.8</ele>
        <time>2026-05-13T06:59:14Z</time>
      </trkpt>
      <trkpt lat="46.56149" lon="6.07939">
        <ele>1121.2</ele>
        <time>2026-05-13T06:59:15Z</time>
      </trkpt>
      <trkpt lat="46.56155" lon="6.07927">
        <ele>1120.2</ele>
        <time>2026-05-13T06:59:16Z</time>
      </trkpt>
      <trkpt lat="46.56161" lon="6.07917">
        <ele>1118.4</ele>
        <time>2026-05-13T06:59:17Z</time>
      </trkpt>
      <trkpt lat="46.56166" lon="6.0791">
        <ele>1117.8</ele>
        <time>2026-05-13T06:59:18Z</time>
      </trkpt>
      <trkpt lat="46.56172" lon="6.07903">
        <ele>1116.6</ele>
        <time>2026-05-13T06:59:19Z</time>
      </trkpt>
      <trkpt lat="46.56185" lon="6.07886">
        <ele>1115</ele>
        <time>2026-05-13T06:59:21Z</time>
      </trkpt>
      <trkpt lat="46.56196" lon="6.07865">
        <ele>1114</ele>
        <time>2026-05-13T06:59:23Z</time>
      </trkpt>
      <trkpt lat="46.56207" lon="6.07838">
        <ele>1112.6</ele>
        <time>2026-05-13T06:59:25Z</time>
      </trkpt>
      <trkpt lat="46.56214" lon="6.07813">
        <ele>1110.4</ele>
        <time>2026-05-13T06:59:27Z</time>
      </trkpt>
      <trkpt lat="46.56221" lon="6.07786">
        <ele>1108.8</ele>
        <time>2026-05-13T06:59:29Z</time>
      </trkpt>
      <trkpt lat="46.56227" lon="6.07758">
        <ele>1107.2</ele>
        <time>2026-05-13T06:59:31Z</time>
      </trkpt>
      <trkpt lat="46.56234" lon="6.0773">
        <ele>1106.4</ele>
        <time>2026-05-13T06:59:33Z</time>
      </trkpt>
      <trkpt lat="46.56237" lon="6.07716">
        <ele>1105.2</ele>
        <time>2026-05-13T06:59:34Z</time>
      </trkpt>
      <trkpt lat="46.56239" lon="6.07702">
        <ele>1104.2</ele>
        <time>2026-05-13T06:59:35Z</time>
      </trkpt>
      <trkpt lat="46.56242" lon="6.07689">
        <ele>1102.8</ele>
        <time>2026-05-13T06:59:36Z</time>
      </trkpt>
      <trkpt lat="46.56248" lon="6.07662">
        <ele>1101.2</ele>
        <time>2026-05-13T06:59:38Z</time>
      </trkpt>
      <trkpt lat="46.56251" lon="6.07649">
        <ele>1099.8</ele>
        <time>2026-05-13T06:59:39Z</time>
      </trkpt>
      <trkpt lat="46.56259" lon="6.07622">
        <ele>1098</ele>
        <time>2026-05-13T06:59:41Z</time>
      </trkpt>
      <trkpt lat="46.56263" lon="6.0761">
        <ele>1096.4</ele>
        <time>2026-05-13T06:59:42Z</time>
      </trkpt>
      <trkpt lat="46.56272" lon="6.07589">
        <ele>1094.4</ele>
        <time>2026-05-13T06:59:44Z</time>
      </trkpt>
      <trkpt lat="46.56281" lon="6.0757">
        <ele>1092.4</ele>
        <time>2026-05-13T06:59:46Z</time>
      </trkpt>
      <trkpt lat="46.56286" lon="6.07562">
        <ele>1091.2</ele>
        <time>2026-05-13T06:59:47Z</time>
      </trkpt>
      <trkpt lat="46.56292" lon="6.07555">
        <ele>1090.6</ele>
        <time>2026-05-13T06:59:48Z</time>
      </trkpt>
      <trkpt lat="46.56299" lon="6.07551">
        <ele>1090</ele>
        <time>2026-05-13T06:59:49Z</time>
      </trkpt>
      <trkpt lat="46.56312" lon="6.07549">
        <ele>1088.2</ele>
        <time>2026-05-13T06:59:51Z</time>
      </trkpt>
      <trkpt lat="46.56322" lon="6.07554">
        <ele>1087</ele>
        <time>2026-05-13T06:59:53Z</time>
      </trkpt>
      <trkpt lat="46.56325" lon="6.07559">
        <ele>1085.8</ele>
        <time>2026-05-13T06:59:54Z</time>
      </trkpt>
      <trkpt lat="46.56327" lon="6.07566">
        <ele>1085.2</ele>
        <time>2026-05-13T06:59:55Z</time>
      </trkpt>
      <trkpt lat="46.56327" lon="6.07573">
        <ele>1084.2</ele>
        <time>2026-05-13T06:59:56Z</time>
      </trkpt>
      <trkpt lat="46.56324" lon="6.07581">
        <ele>1083.2</ele>
        <time>2026-05-13T06:59:57Z</time>
      </trkpt>
      <trkpt lat="46.56322" lon="6.07586">
        <ele>1082.8</ele>
        <time>2026-05-13T06:59:58Z</time>
      </trkpt>
      <trkpt lat="46.56315" lon="6.076">
        <ele>1081.6</ele>
        <time>2026-05-13T07:00:00Z</time>
      </trkpt>
      <trkpt lat="46.5631" lon="6.07612">
        <ele>1081</ele>
        <time>2026-05-13T07:00:02Z</time>
      </trkpt>
      <trkpt lat="46.56308" lon="6.07617">
        <ele>1081</ele>
        <time>2026-05-13T07:00:03Z</time>
      </trkpt>
      <trkpt lat="46.56305" lon="6.0763">
        <ele>1081</ele>
        <time>2026-05-13T07:00:05Z</time>
      </trkpt>
      <trkpt lat="46.56299" lon="6.07653">
        <ele>1081</ele>
        <time>2026-05-13T07:00:09Z</time>
      </trkpt>
      <trkpt lat="46.56299" lon="6.07678">
        <ele>1082</ele>
        <time>2026-05-13T07:00:13Z</time>
      </trkpt>
      <trkpt lat="46.563" lon="6.07684">
        <ele>1082.2</ele>
        <time>2026-05-13T07:00:14Z</time>
      </trkpt>
      <trkpt lat="46.56306" lon="6.07717">
        <ele>1083</ele>
        <time>2026-05-13T07:00:19Z</time>
      </trkpt>
      <trkpt lat="46.5631" lon="6.07732">
        <ele>1083.2</ele>
        <time>2026-05-13T07:00:21Z</time>
      </trkpt>
      <trkpt lat="46.56322" lon="6.07784">
        <ele>1082.8</ele>
        <time>2026-05-13T07:00:27Z</time>
      </trkpt>
      <trkpt lat="46.56333" lon="6.07811">
        <ele>1082.4</ele>
        <time>2026-05-13T07:00:30Z</time>
      </trkpt>
      <trkpt lat="46.56338" lon="6.07819">
        <ele>1082.2</ele>
        <time>2026-05-13T07:00:31Z</time>
      </trkpt>
      <trkpt lat="46.56344" lon="6.07826">
        <ele>1081.8</ele>
        <time>2026-05-13T07:00:32Z</time>
      </trkpt>
      <trkpt lat="46.56365" lon="6.07842">
        <ele>1081.4</ele>
        <time>2026-05-13T07:00:35Z</time>
      </trkpt>
      <trkpt lat="46.56389" lon="6.07855">
        <ele>1080.6</ele>
        <time>2026-05-13T07:00:38Z</time>
      </trkpt>
      <trkpt lat="46.56407" lon="6.07865">
        <ele>1079.4</ele>
        <time>2026-05-13T07:00:40Z</time>
      </trkpt>
      <trkpt lat="46.56416" lon="6.07868">
        <ele>1079</ele>
        <time>2026-05-13T07:00:41Z</time>
      </trkpt>
      <trkpt lat="46.5644" lon="6.07874">
        <ele>1078</ele>
        <time>2026-05-13T07:00:44Z</time>
      </trkpt>
      <trkpt lat="46.5645" lon="6.07874">
        <ele>1077.8</ele>
        <time>2026-05-13T07:00:45Z</time>
      </trkpt>
      <trkpt lat="46.56476" lon="6.07864">
        <ele>1077.8</ele>
        <time>2026-05-13T07:00:49Z</time>
      </trkpt>
      <trkpt lat="46.56502" lon="6.07852">
        <ele>1078.2</ele>
        <time>2026-05-13T07:00:54Z</time>
      </trkpt>
      <trkpt lat="46.56516" lon="6.07848">
        <ele>1079</ele>
        <time>2026-05-13T07:00:58Z</time>
      </trkpt>
      <trkpt lat="46.56519" lon="6.07847">
        <ele>1079.4</ele>
        <time>2026-05-13T07:00:59Z</time>
      </trkpt>
      <trkpt lat="46.56535" lon="6.07848">
        <ele>1080.4</ele>
        <time>2026-05-13T07:01:04Z</time>
      </trkpt>
      <trkpt lat="46.56546" lon="6.07858">
        <ele>1081.6</ele>
        <time>2026-05-13T07:01:09Z</time>
      </trkpt>
      <trkpt lat="46.56554" lon="6.07873">
        <ele>1082.8</ele>
        <time>2026-05-13T07:01:14Z</time>
      </trkpt>
      <trkpt lat="46.56558" lon="6.07879">
        <ele>1083.2</ele>
        <time>2026-05-13T07:01:16Z</time>
      </trkpt>
      <trkpt lat="46.56561" lon="6.07884">
        <ele>1083.8</ele>
        <time>2026-05-13T07:01:18Z</time>
      </trkpt>
      <trkpt lat="46.56566" lon="6.07895">
        <ele>1084.8</ele>
        <time>2026-05-13T07:01:22Z</time>
      </trkpt>
      <trkpt lat="46.56567" lon="6.07898">
        <ele>1085</ele>
        <time>2026-05-13T07:01:23Z</time>
      </trkpt>
      <trkpt lat="46.56574" lon="6.07909">
        <ele>1086</ele>
        <time>2026-05-13T07:01:27Z</time>
      </trkpt>
      <trkpt lat="46.56579" lon="6.07919">
        <ele>1086.8</ele>
        <time>2026-05-13T07:01:30Z</time>
      </trkpt>
      <trkpt lat="46.56581" lon="6.07922">
        <ele>1087</ele>
        <time>2026-05-13T07:01:31Z</time>
      </trkpt>
      <trkpt lat="46.5659" lon="6.07941">
        <ele>1088.2</ele>
        <time>2026-05-13T07:01:37Z</time>
      </trkpt>
      <trkpt lat="46.56596" lon="6.07957">
        <ele>1089.2</ele>
        <time>2026-05-13T07:01:42Z</time>
      </trkpt>
      <trkpt lat="46.566" lon="6.07966">
        <ele>1089.8</ele>
        <time>2026-05-13T07:01:45Z</time>
      </trkpt>
      <trkpt lat="46.56603" lon="6.07973">
        <ele>1090.4</ele>
        <time>2026-05-13T07:01:47Z</time>
      </trkpt>
      <trkpt lat="46.56607" lon="6.07983">
        <ele>1091.4</ele>
        <time>2026-05-13T07:01:50Z</time>
      </trkpt>
      <trkpt lat="46.56608" lon="6.07986">
        <ele>1091.4</ele>
        <time>2026-05-13T07:01:51Z</time>
      </trkpt>
      <trkpt lat="46.56615" lon="6.07997">
        <ele>1092.8</ele>
        <time>2026-05-13T07:01:55Z</time>
      </trkpt>
      <trkpt lat="46.56619" lon="6.08003">
        <ele>1093</ele>
        <time>2026-05-13T07:01:57Z</time>
      </trkpt>
      <trkpt lat="46.56626" lon="6.08008">
        <ele>1093.8</ele>
        <time>2026-05-13T07:02:00Z</time>
      </trkpt>
      <trkpt lat="46.56635" lon="6.08009">
        <ele>1094.2</ele>
        <time>2026-05-13T07:02:03Z</time>
      </trkpt>
      <trkpt lat="46.56647" lon="6.08006">
        <ele>1095</ele>
        <time>2026-05-13T07:02:07Z</time>
      </trkpt>
      <trkpt lat="46.56649" lon="6.08005">
        <ele>1095</ele>
        <time>2026-05-13T07:02:08Z</time>
      </trkpt>
      <trkpt lat="46.56661" lon="6.07995">
        <ele>1096</ele>
        <time>2026-05-13T07:02:13Z</time>
      </trkpt>
      <trkpt lat="46.56666" lon="6.0799">
        <ele>1096.2</ele>
        <time>2026-05-13T07:02:15Z</time>
      </trkpt>
      <trkpt lat="46.56677" lon="6.07974">
        <ele>1097.2</ele>
        <time>2026-05-13T07:02:20Z</time>
      </trkpt>
      <trkpt lat="46.56685" lon="6.07965">
        <ele>1097.4</ele>
        <time>2026-05-13T07:02:23Z</time>
      </trkpt>
      <trkpt lat="46.56708" lon="6.07934">
        <ele>1098</ele>
        <time>2026-05-13T07:02:33Z</time>
      </trkpt>
      <trkpt lat="46.56717" lon="6.0792">
        <ele>1098.2</ele>
        <time>2026-05-13T07:02:37Z</time>
      </trkpt>
      <trkpt lat="46.56729" lon="6.07904">
        <ele>1098.4</ele>
        <time>2026-05-13T07:02:42Z</time>
      </trkpt>
      <trkpt lat="46.56747" lon="6.07878">
        <ele>1099.2</ele>
        <time>2026-05-13T07:02:49Z</time>
      </trkpt>
      <trkpt lat="46.56749" lon="6.07874">
        <ele>1099.2</ele>
        <time>2026-05-13T07:02:50Z</time>
      </trkpt>
      <trkpt lat="46.5677" lon="6.07847">
        <ele>1099.4</ele>
        <time>2026-05-13T07:02:57Z</time>
      </trkpt>
      <trkpt lat="46.56801" lon="6.07802">
        <ele>1100</ele>
        <time>2026-05-13T07:03:07Z</time>
      </trkpt>
      <trkpt lat="46.56804" lon="6.07797">
        <ele>1100.2</ele>
        <time>2026-05-13T07:03:08Z</time>
      </trkpt>
      <trkpt lat="46.56822" lon="6.0777">
        <ele>1100.6</ele>
        <time>2026-05-13T07:03:13Z</time>
      </trkpt>
      <trkpt lat="46.56829" lon="6.0776">
        <ele>1100.8</ele>
        <time>2026-05-13T07:03:15Z</time>
      </trkpt>
      <trkpt lat="46.56846" lon="6.07741">
        <ele>1101.2</ele>
        <time>2026-05-13T07:03:19Z</time>
      </trkpt>
      <trkpt lat="46.56857" lon="6.07734">
        <ele>1101.2</ele>
        <time>2026-05-13T07:03:21Z</time>
      </trkpt>
      <trkpt lat="46.56861" lon="6.07733">
        <ele>1101.4</ele>
        <time>2026-05-13T07:03:22Z</time>
      </trkpt>
      <trkpt lat="46.56872" lon="6.07731">
        <ele>1101.4</ele>
        <time>2026-05-13T07:03:24Z</time>
      </trkpt>
      <trkpt lat="46.56883" lon="6.07732">
        <ele>1101.4</ele>
        <time>2026-05-13T07:03:26Z</time>
      </trkpt>
      <trkpt lat="46.56887" lon="6.07734">
        <ele>1101.6</ele>
        <time>2026-05-13T07:03:27Z</time>
      </trkpt>
      <trkpt lat="46.56892" lon="6.07736">
        <ele>1101.6</ele>
        <time>2026-05-13T07:03:28Z</time>
      </trkpt>
      <trkpt lat="46.56901" lon="6.07741">
        <ele>1101.6</ele>
        <time>2026-05-13T07:03:30Z</time>
      </trkpt>
      <trkpt lat="46.56913" lon="6.07752">
        <ele>1102</ele>
        <time>2026-05-13T07:03:33Z</time>
      </trkpt>
      <trkpt lat="46.56926" lon="6.07761">
        <ele>1102.6</ele>
        <time>2026-05-13T07:03:36Z</time>
      </trkpt>
      <trkpt lat="46.56944" lon="6.07771">
        <ele>1103.2</ele>
        <time>2026-05-13T07:03:40Z</time>
      </trkpt>
      <trkpt lat="46.56954" lon="6.07776">
        <ele>1103.6</ele>
        <time>2026-05-13T07:03:42Z</time>
      </trkpt>
      <trkpt lat="46.56959" lon="6.07778">
        <ele>1103.6</ele>
        <time>2026-05-13T07:03:43Z</time>
      </trkpt>
      <trkpt lat="46.56978" lon="6.07786">
        <ele>1104</ele>
        <time>2026-05-13T07:03:47Z</time>
      </trkpt>
      <trkpt lat="46.57007" lon="6.07802">
        <ele>1104.2</ele>
        <time>2026-05-13T07:03:53Z</time>
      </trkpt>
      <trkpt lat="46.57011" lon="6.07807">
        <ele>1104.2</ele>
        <time>2026-05-13T07:03:54Z</time>
      </trkpt>
      <trkpt lat="46.57019" lon="6.07817">
        <ele>1104.4</ele>
        <time>2026-05-13T07:03:56Z</time>
      </trkpt>
      <trkpt lat="46.57024" lon="6.0783">
        <ele>1104.6</ele>
        <time>2026-05-13T07:03:58Z</time>
      </trkpt>
      <trkpt lat="46.57026" lon="6.07836">
        <ele>1104.6</ele>
        <time>2026-05-13T07:03:59Z</time>
      </trkpt>
      <trkpt lat="46.57028" lon="6.07842">
        <ele>1104.8</ele>
        <time>2026-05-13T07:04:00Z</time>
      </trkpt>
      <trkpt lat="46.5703" lon="6.07859">
        <ele>1105.4</ele>
        <time>2026-05-13T07:04:03Z</time>
      </trkpt>
      <trkpt lat="46.5703" lon="6.07865">
        <ele>1105.8</ele>
        <time>2026-05-13T07:04:04Z</time>
      </trkpt>
      <trkpt lat="46.57029" lon="6.07893">
        <ele>1107</ele>
        <time>2026-05-13T07:04:09Z</time>
      </trkpt>
      <trkpt lat="46.57031" lon="6.07925">
        <ele>1108.2</ele>
        <time>2026-05-13T07:04:15Z</time>
      </trkpt>
      <trkpt lat="46.57033" lon="6.07932">
        <ele>1108.4</ele>
        <time>2026-05-13T07:04:16Z</time>
      </trkpt>
      <trkpt lat="46.57046" lon="6.07971">
        <ele>1109.2</ele>
        <time>2026-05-13T07:04:23Z</time>
      </trkpt>
      <trkpt lat="46.57048" lon="6.07976">
        <ele>1109.2</ele>
        <time>2026-05-13T07:04:24Z</time>
      </trkpt>
      <trkpt lat="46.57061" lon="6.08009">
        <ele>1110.4</ele>
        <time>2026-05-13T07:04:30Z</time>
      </trkpt>
      <trkpt lat="46.57062" lon="6.08014">
        <ele>1110.4</ele>
        <time>2026-05-13T07:04:31Z</time>
      </trkpt>
      <trkpt lat="46.57074" lon="6.08047">
        <ele>1111.4</ele>
        <time>2026-05-13T07:04:37Z</time>
      </trkpt>
      <trkpt lat="46.57078" lon="6.08058">
        <ele>1111.8</ele>
        <time>2026-05-13T07:04:39Z</time>
      </trkpt>
      <trkpt lat="46.57092" lon="6.08095">
        <ele>1112.8</ele>
        <time>2026-05-13T07:04:46Z</time>
      </trkpt>
      <trkpt lat="46.57096" lon="6.08105">
        <ele>1113</ele>
        <time>2026-05-13T07:04:48Z</time>
      </trkpt>
      <trkpt lat="46.57112" lon="6.08143">
        <ele>1113.8</ele>
        <time>2026-05-13T07:04:55Z</time>
      </trkpt>
      <trkpt lat="46.57119" lon="6.08154">
        <ele>1113.8</ele>
        <time>2026-05-13T07:04:57Z</time>
      </trkpt>
      <trkpt lat="46.57142" lon="6.08175">
        <ele>1113.6</ele>
        <time>2026-05-13T07:05:02Z</time>
      </trkpt>
      <trkpt lat="46.57157" lon="6.0818">
        <ele>1113.4</ele>
        <time>2026-05-13T07:05:04Z</time>
      </trkpt>
      <trkpt lat="46.57172" lon="6.0818">
        <ele>1113.2</ele>
        <time>2026-05-13T07:05:06Z</time>
      </trkpt>
      <trkpt lat="46.57189" lon="6.08177">
        <ele>1112.6</ele>
        <time>2026-05-13T07:05:08Z</time>
      </trkpt>
      <trkpt lat="46.57197" lon="6.08174">
        <ele>1112.2</ele>
        <time>2026-05-13T07:05:09Z</time>
      </trkpt>
      <trkpt lat="46.57206" lon="6.0817">
        <ele>1112</ele>
        <time>2026-05-13T07:05:10Z</time>
      </trkpt>
      <trkpt lat="46.57215" lon="6.08164">
        <ele>1112</ele>
        <time>2026-05-13T07:05:11Z</time>
      </trkpt>
      <trkpt lat="46.57223" lon="6.08158">
        <ele>1111.2</ele>
        <time>2026-05-13T07:05:12Z</time>
      </trkpt>
      <trkpt lat="46.57231" lon="6.0815">
        <ele>1110.8</ele>
        <time>2026-05-13T07:05:13Z</time>
      </trkpt>
      <trkpt lat="46.57238" lon="6.0814">
        <ele>1110.2</ele>
        <time>2026-05-13T07:05:14Z</time>
      </trkpt>
      <trkpt lat="46.57244" lon="6.0813">
        <ele>1109.8</ele>
        <time>2026-05-13T07:05:15Z</time>
      </trkpt>
      <trkpt lat="46.57267" lon="6.08103">
        <ele>1108.4</ele>
        <time>2026-05-13T07:05:18Z</time>
      </trkpt>
      <trkpt lat="46.57274" lon="6.08097">
        <ele>1108</ele>
        <time>2026-05-13T07:05:19Z</time>
      </trkpt>
      <trkpt lat="46.57283" lon="6.08092">
        <ele>1107.4</ele>
        <time>2026-05-13T07:05:20Z</time>
      </trkpt>
      <trkpt lat="46.57293" lon="6.08088">
        <ele>1107.2</ele>
        <time>2026-05-13T07:05:21Z</time>
      </trkpt>
      <trkpt lat="46.57312" lon="6.08083">
        <ele>1106.2</ele>
        <time>2026-05-13T07:05:23Z</time>
      </trkpt>
      <trkpt lat="46.57334" lon="6.08081">
        <ele>1104.8</ele>
        <time>2026-05-13T07:05:25Z</time>
      </trkpt>
      <trkpt lat="46.57352" lon="6.08086">
        <ele>1103.8</ele>
        <time>2026-05-13T07:05:27Z</time>
      </trkpt>
      <trkpt lat="46.57371" lon="6.08098">
        <ele>1102.4</ele>
        <time>2026-05-13T07:05:29Z</time>
      </trkpt>
      <trkpt lat="46.57378" lon="6.08107">
        <ele>1102</ele>
        <time>2026-05-13T07:05:30Z</time>
      </trkpt>
      <trkpt lat="46.57388" lon="6.08123">
        <ele>1101.2</ele>
        <time>2026-05-13T07:05:32Z</time>
      </trkpt>
      <trkpt lat="46.57399" lon="6.08142">
        <ele>1101.2</ele>
        <time>2026-05-13T07:05:34Z</time>
      </trkpt>
      <trkpt lat="46.57427" lon="6.08198">
        <ele>1101.2</ele>
        <time>2026-05-13T07:05:41Z</time>
      </trkpt>
      <trkpt lat="46.57453" lon="6.08245">
        <ele>1102.4</ele>
        <time>2026-05-13T07:05:48Z</time>
      </trkpt>
      <trkpt lat="46.57457" lon="6.08251">
        <ele>1102.4</ele>
        <time>2026-05-13T07:05:49Z</time>
      </trkpt>
      <trkpt lat="46.57469" lon="6.08268">
        <ele>1103</ele>
        <time>2026-05-13T07:05:52Z</time>
      </trkpt>
      <trkpt lat="46.57473" lon="6.08273">
        <ele>1103.2</ele>
        <time>2026-05-13T07:05:53Z</time>
      </trkpt>
      <trkpt lat="46.57481" lon="6.08282">
        <ele>1103.4</ele>
        <time>2026-05-13T07:05:55Z</time>
      </trkpt>
      <trkpt lat="46.57506" lon="6.08307">
        <ele>1104.4</ele>
        <time>2026-05-13T07:06:01Z</time>
      </trkpt>
      <trkpt lat="46.57511" lon="6.08311">
        <ele>1104.6</ele>
        <time>2026-05-13T07:06:02Z</time>
      </trkpt>
      <trkpt lat="46.57516" lon="6.08315">
        <ele>1104.6</ele>
        <time>2026-05-13T07:06:03Z</time>
      </trkpt>
      <trkpt lat="46.57551" lon="6.0834">
        <ele>1105.4</ele>
        <time>2026-05-13T07:06:10Z</time>
      </trkpt>
      <trkpt lat="46.57562" lon="6.08347">
        <ele>1105.6</ele>
        <time>2026-05-13T07:06:13Z</time>
      </trkpt>
      <trkpt lat="46.57595" lon="6.08367">
        <ele>1106</ele>
        <time>2026-05-13T07:06:19Z</time>
      </trkpt>
      <trkpt lat="46.57642" lon="6.08392">
        <ele>1106.6</ele>
        <time>2026-05-13T07:06:28Z</time>
      </trkpt>
      <trkpt lat="46.57658" lon="6.08397">
        <ele>1107.2</ele>
        <time>2026-05-13T07:06:31Z</time>
      </trkpt>
      <trkpt lat="46.57673" lon="6.08402">
        <ele>1107.6</ele>
        <time>2026-05-13T07:06:34Z</time>
      </trkpt>
      <trkpt lat="46.57677" lon="6.08403">
        <ele>1107.8</ele>
        <time>2026-05-13T07:06:35Z</time>
      </trkpt>
      <trkpt lat="46.57693" lon="6.0841">
        <ele>1108.4</ele>
        <time>2026-05-13T07:06:38Z</time>
      </trkpt>
      <trkpt lat="46.57708" lon="6.08423">
        <ele>1108.8</ele>
        <time>2026-05-13T07:06:41Z</time>
      </trkpt>
      <trkpt lat="46.57712" lon="6.08428">
        <ele>1109</ele>
        <time>2026-05-13T07:06:42Z</time>
      </trkpt>
      <trkpt lat="46.57718" lon="6.08439">
        <ele>1109.8</ele>
        <time>2026-05-13T07:06:44Z</time>
      </trkpt>
      <trkpt lat="46.5772" lon="6.08445">
        <ele>1109.8</ele>
        <time>2026-05-13T07:06:45Z</time>
      </trkpt>
      <trkpt lat="46.57722" lon="6.08451">
        <ele>1110</ele>
        <time>2026-05-13T07:06:46Z</time>
      </trkpt>
      <trkpt lat="46.57727" lon="6.08471">
        <ele>1110.6</ele>
        <time>2026-05-13T07:06:49Z</time>
      </trkpt>
      <trkpt lat="46.5773" lon="6.08484">
        <ele>1110.8</ele>
        <time>2026-05-13T07:06:51Z</time>
      </trkpt>
      <trkpt lat="46.57734" lon="6.08495">
        <ele>1111.2</ele>
        <time>2026-05-13T07:06:53Z</time>
      </trkpt>
      <trkpt lat="46.57741" lon="6.08518">
        <ele>1111.8</ele>
        <time>2026-05-13T07:06:57Z</time>
      </trkpt>
      <trkpt lat="46.57745" lon="6.08531">
        <ele>1112.4</ele>
        <time>2026-05-13T07:06:59Z</time>
      </trkpt>
      <trkpt lat="46.5776" lon="6.08558">
        <ele>1112.8</ele>
        <time>2026-05-13T07:07:04Z</time>
      </trkpt>
      <trkpt lat="46.57777" lon="6.08581">
        <ele>1113</ele>
        <time>2026-05-13T07:07:08Z</time>
      </trkpt>
      <trkpt lat="46.57786" lon="6.0859">
        <ele>1113</ele>
        <time>2026-05-13T07:07:10Z</time>
      </trkpt>
      <trkpt lat="46.57818" lon="6.0861">
        <ele>1112.8</ele>
        <time>2026-05-13T07:07:15Z</time>
      </trkpt>
      <trkpt lat="46.57852" lon="6.08616">
        <ele>1112</ele>
        <time>2026-05-13T07:07:19Z</time>
      </trkpt>
      <trkpt lat="46.57868" lon="6.08616">
        <ele>1111.2</ele>
        <time>2026-05-13T07:07:21Z</time>
      </trkpt>
      <trkpt lat="46.57898" lon="6.08618">
        <ele>1110.2</ele>
        <time>2026-05-13T07:07:24Z</time>
      </trkpt>
      <trkpt lat="46.57916" lon="6.08619">
        <ele>1109.4</ele>
        <time>2026-05-13T07:07:26Z</time>
      </trkpt>
      <trkpt lat="46.57926" lon="6.0862">
        <ele>1109</ele>
        <time>2026-05-13T07:07:27Z</time>
      </trkpt>
      <trkpt lat="46.57937" lon="6.08623">
        <ele>1108.6</ele>
        <time>2026-05-13T07:07:28Z</time>
      </trkpt>
      <trkpt lat="46.57947" lon="6.08627">
        <ele>1108</ele>
        <time>2026-05-13T07:07:29Z</time>
      </trkpt>
      <trkpt lat="46.57954" lon="6.0863">
        <ele>1107.8</ele>
        <time>2026-05-13T07:07:30Z</time>
      </trkpt>
      <trkpt lat="46.57975" lon="6.08639">
        <ele>1106.8</ele>
        <time>2026-05-13T07:07:32Z</time>
      </trkpt>
      <trkpt lat="46.58002" lon="6.08651">
        <ele>1105.8</ele>
        <time>2026-05-13T07:07:35Z</time>
      </trkpt>
      <trkpt lat="46.58029" lon="6.08664">
        <ele>1104.8</ele>
        <time>2026-05-13T07:07:38Z</time>
      </trkpt>
      <trkpt lat="46.58039" lon="6.0867">
        <ele>1104.6</ele>
        <time>2026-05-13T07:07:39Z</time>
      </trkpt>
      <trkpt lat="46.58069" lon="6.08692">
        <ele>1103.6</ele>
        <time>2026-05-13T07:07:43Z</time>
      </trkpt>
      <trkpt lat="46.58101" lon="6.08719">
        <ele>1102.6</ele>
        <time>2026-05-13T07:07:47Z</time>
      </trkpt>
      <trkpt lat="46.58115" lon="6.08734">
        <ele>1102</ele>
        <time>2026-05-13T07:07:49Z</time>
      </trkpt>
      <trkpt lat="46.58133" lon="6.08761">
        <ele>1101.4</ele>
        <time>2026-05-13T07:07:52Z</time>
      </trkpt>
      <trkpt lat="46.58142" lon="6.08778">
        <ele>1101.2</ele>
        <time>2026-05-13T07:07:54Z</time>
      </trkpt>
      <trkpt lat="46.58146" lon="6.08789">
        <ele>1101</ele>
        <time>2026-05-13T07:07:55Z</time>
      </trkpt>
      <trkpt lat="46.58159" lon="6.08836">
        <ele>1100.4</ele>
        <time>2026-05-13T07:07:59Z</time>
      </trkpt>
      <trkpt lat="46.58174" lon="6.08903">
        <ele>1099.4</ele>
        <time>2026-05-13T07:08:05Z</time>
      </trkpt>
      <trkpt lat="46.5818" lon="6.08928">
        <ele>1099</ele>
        <time>2026-05-13T07:08:07Z</time>
      </trkpt>
      <trkpt lat="46.5819" lon="6.08971">
        <ele>1098</ele>
        <time>2026-05-13T07:08:11Z</time>
      </trkpt>
      <trkpt lat="46.58206" lon="6.09041">
        <ele>1097.2</ele>
        <time>2026-05-13T07:08:17Z</time>
      </trkpt>
      <trkpt lat="46.58209" lon="6.09055">
        <ele>1096.8</ele>
        <time>2026-05-13T07:08:18Z</time>
      </trkpt>
      <trkpt lat="46.58213" lon="6.09075">
        <ele>1095.8</ele>
        <time>2026-05-13T07:08:20Z</time>
      </trkpt>
      <trkpt lat="46.58225" lon="6.09129">
        <ele>1095.2</ele>
        <time>2026-05-13T07:08:25Z</time>
      </trkpt>
      <trkpt lat="46.58238" lon="6.09183">
        <ele>1095.6</ele>
        <time>2026-05-13T07:08:31Z</time>
      </trkpt>
      <trkpt lat="46.58251" lon="6.09232">
        <ele>1096.8</ele>
        <time>2026-05-13T07:08:38Z</time>
      </trkpt>
      <trkpt lat="46.58256" lon="6.09245">
        <ele>1097.2</ele>
        <time>2026-05-13T07:08:40Z</time>
      </trkpt>
      <trkpt lat="46.58269" lon="6.09276">
        <ele>1098</ele>
        <time>2026-05-13T07:08:45Z</time>
      </trkpt>
      <trkpt lat="46.58273" lon="6.09284">
        <ele>1098.2</ele>
        <time>2026-05-13T07:08:46Z</time>
      </trkpt>
      <trkpt lat="46.58291" lon="6.09322">
        <ele>1098.8</ele>
        <time>2026-05-13T07:08:52Z</time>
      </trkpt>
      <trkpt lat="46.58309" lon="6.09359">
        <ele>1099.2</ele>
        <time>2026-05-13T07:08:58Z</time>
      </trkpt>
      <trkpt lat="46.58315" lon="6.09372">
        <ele>1099.4</ele>
        <time>2026-05-13T07:09:00Z</time>
      </trkpt>
      <trkpt lat="46.58319" lon="6.0938">
        <ele>1099.4</ele>
        <time>2026-05-13T07:09:01Z</time>
      </trkpt>
      <trkpt lat="46.58341" lon="6.09429">
        <ele>1100.4</ele>
        <time>2026-05-13T07:09:09Z</time>
      </trkpt>
      <trkpt lat="46.58343" lon="6.09436">
        <ele>1100.4</ele>
        <time>2026-05-13T07:09:10Z</time>
      </trkpt>
      <trkpt lat="46.58352" lon="6.09473">
        <ele>1101.4</ele>
        <time>2026-05-13T07:09:16Z</time>
      </trkpt>
      <trkpt lat="46.58354" lon="6.09483">
        <ele>1102</ele>
        <time>2026-05-13T07:09:18Z</time>
      </trkpt>
      <trkpt lat="46.58357" lon="6.09502">
        <ele>1102.4</ele>
        <time>2026-05-13T07:09:21Z</time>
      </trkpt>
      <trkpt lat="46.58361" lon="6.0953">
        <ele>1103.4</ele>
        <time>2026-05-13T07:09:26Z</time>
      </trkpt>
      <trkpt lat="46.58364" lon="6.09539">
        <ele>1103.6</ele>
        <time>2026-05-13T07:09:28Z</time>
      </trkpt>
      <trkpt lat="46.5837" lon="6.09555">
        <ele>1104.8</ele>
        <time>2026-05-13T07:09:31Z</time>
      </trkpt>
      <trkpt lat="46.58374" lon="6.09565">
        <ele>1105.6</ele>
        <time>2026-05-13T07:09:33Z</time>
      </trkpt>
      <trkpt lat="46.58379" lon="6.09575">
        <ele>1106</ele>
        <time>2026-05-13T07:09:35Z</time>
      </trkpt>
      <trkpt lat="46.58392" lon="6.09599">
        <ele>1107</ele>
        <time>2026-05-13T07:09:40Z</time>
      </trkpt>
      <trkpt lat="46.58399" lon="6.09613">
        <ele>1107.4</ele>
        <time>2026-05-13T07:09:43Z</time>
      </trkpt>
      <trkpt lat="46.58409" lon="6.09631">
        <ele>1108.2</ele>
        <time>2026-05-13T07:09:47Z</time>
      </trkpt>
      <trkpt lat="46.58418" lon="6.09649">
        <ele>1108.8</ele>
        <time>2026-05-13T07:09:51Z</time>
      </trkpt>
      <trkpt lat="46.5842" lon="6.09652">
        <ele>1109.2</ele>
        <time>2026-05-13T07:09:52Z</time>
      </trkpt>
      <trkpt lat="46.58431" lon="6.09673">
        <ele>1110.4</ele>
        <time>2026-05-13T07:09:57Z</time>
      </trkpt>
      <trkpt lat="46.58433" lon="6.09677">
        <ele>1110.8</ele>
        <time>2026-05-13T07:09:58Z</time>
      </trkpt>
      <trkpt lat="46.58442" lon="6.09693">
        <ele>1111.6</ele>
        <time>2026-05-13T07:10:02Z</time>
      </trkpt>
      <trkpt lat="46.58447" lon="6.09708">
        <ele>1112.4</ele>
        <time>2026-05-13T07:10:05Z</time>
      </trkpt>
      <trkpt lat="46.5845" lon="6.09713">
        <ele>1112.6</ele>
        <time>2026-05-13T07:10:06Z</time>
      </trkpt>
      <trkpt lat="46.58459" lon="6.09735">
        <ele>1113.6</ele>
        <time>2026-05-13T07:10:11Z</time>
      </trkpt>
      <trkpt lat="46.58461" lon="6.0974">
        <ele>1113.8</ele>
        <time>2026-05-13T07:10:12Z</time>
      </trkpt>
      <trkpt lat="46.58471" lon="6.09761">
        <ele>1114.6</ele>
        <time>2026-05-13T07:10:16Z</time>
      </trkpt>
      <trkpt lat="46.58477" lon="6.09776">
        <ele>1115.4</ele>
        <time>2026-05-13T07:10:19Z</time>
      </trkpt>
      <trkpt lat="46.58481" lon="6.09785">
        <ele>1115.8</ele>
        <time>2026-05-13T07:10:21Z</time>
      </trkpt>
      <trkpt lat="46.58483" lon="6.09789">
        <ele>1116</ele>
        <time>2026-05-13T07:10:22Z</time>
      </trkpt>
      <trkpt lat="46.58493" lon="6.09813">
        <ele>1117</ele>
        <time>2026-05-13T07:10:27Z</time>
      </trkpt>
      <trkpt lat="46.58503" lon="6.09837">
        <ele>1118.2</ele>
        <time>2026-05-13T07:10:32Z</time>
      </trkpt>
      <trkpt lat="46.58523" lon="6.09883">
        <ele>1119.2</ele>
        <time>2026-05-13T07:10:41Z</time>
      </trkpt>
      <trkpt lat="46.58529" lon="6.09899">
        <ele>1119.4</ele>
        <time>2026-05-13T07:10:44Z</time>
      </trkpt>
      <trkpt lat="46.58555" lon="6.09961">
        <ele>1119.4</ele>
        <time>2026-05-13T07:10:54Z</time>
      </trkpt>
      <trkpt lat="46.58563" lon="6.09983">
        <ele>1119.2</ele>
        <time>2026-05-13T07:10:57Z</time>
      </trkpt>
      <trkpt lat="46.58569" lon="6.09999">
        <ele>1119</ele>
        <time>2026-05-13T07:10:59Z</time>
      </trkpt>
      <trkpt lat="46.58585" lon="6.10044">
        <ele>1118.2</ele>
        <time>2026-05-13T07:11:04Z</time>
      </trkpt>
      <trkpt lat="46.58588" lon="6.10053">
        <ele>1118</ele>
        <time>2026-05-13T07:11:05Z</time>
      </trkpt>
      <trkpt lat="46.58603" lon="6.10096">
        <ele>1117</ele>
        <time>2026-05-13T07:11:09Z</time>
      </trkpt>
      <trkpt lat="46.58611" lon="6.10119">
        <ele>1116.8</ele>
        <time>2026-05-13T07:11:11Z</time>
      </trkpt>
      <trkpt lat="46.58622" lon="6.10154">
        <ele>1115.8</ele>
        <time>2026-05-13T07:11:14Z</time>
      </trkpt>
      <trkpt lat="46.58634" lon="6.10188">
        <ele>1114.8</ele>
        <time>2026-05-13T07:11:17Z</time>
      </trkpt>
      <trkpt lat="46.58641" lon="6.10207">
        <ele>1114.4</ele>
        <time>2026-05-13T07:11:19Z</time>
      </trkpt>
      <trkpt lat="46.58652" lon="6.1023">
        <ele>1113.8</ele>
        <time>2026-05-13T07:11:21Z</time>
      </trkpt>
      <trkpt lat="46.58663" lon="6.10249">
        <ele>1113.4</ele>
        <time>2026-05-13T07:11:23Z</time>
      </trkpt>
      <trkpt lat="46.58669" lon="6.10257">
        <ele>1113.4</ele>
        <time>2026-05-13T07:11:24Z</time>
      </trkpt>
      <trkpt lat="46.5869" lon="6.10278">
        <ele>1113</ele>
        <time>2026-05-13T07:11:27Z</time>
      </trkpt>
      <trkpt lat="46.58705" lon="6.10291">
        <ele>1112.8</ele>
        <time>2026-05-13T07:11:29Z</time>
      </trkpt>
      <trkpt lat="46.58737" lon="6.10319">
        <ele>1111.6</ele>
        <time>2026-05-13T07:11:33Z</time>
      </trkpt>
      <trkpt lat="46.58744" lon="6.10325">
        <ele>1111.2</ele>
        <time>2026-05-13T07:11:34Z</time>
      </trkpt>
      <trkpt lat="46.58772" lon="6.10348">
        <ele>1110.2</ele>
        <time>2026-05-13T07:11:37Z</time>
      </trkpt>
      <trkpt lat="46.58789" lon="6.10362">
        <ele>1109</ele>
        <time>2026-05-13T07:11:39Z</time>
      </trkpt>
      <trkpt lat="46.58812" lon="6.10376">
        <ele>1108</ele>
        <time>2026-05-13T07:11:41Z</time>
      </trkpt>
      <trkpt lat="46.58834" lon="6.10386">
        <ele>1106.8</ele>
        <time>2026-05-13T07:11:43Z</time>
      </trkpt>
      <trkpt lat="46.58855" lon="6.10394">
        <ele>1105.6</ele>
        <time>2026-05-13T07:11:45Z</time>
      </trkpt>
      <trkpt lat="46.58873" lon="6.10401">
        <ele>1104</ele>
        <time>2026-05-13T07:11:47Z</time>
      </trkpt>
      <trkpt lat="46.58913" lon="6.10414">
        <ele>1103.2</ele>
        <time>2026-05-13T07:11:51Z</time>
      </trkpt>
      <trkpt lat="46.5893" lon="6.10422">
        <ele>1103</ele>
        <time>2026-05-13T07:11:53Z</time>
      </trkpt>
      <trkpt lat="46.58962" lon="6.10446">
        <ele>1102.6</ele>
        <time>2026-05-13T07:11:57Z</time>
      </trkpt>
      <trkpt lat="46.58977" lon="6.10461">
        <ele>1102</ele>
        <time>2026-05-13T07:11:59Z</time>
      </trkpt>
      <trkpt lat="46.59" lon="6.10484">
        <ele>1100.8</ele>
        <time>2026-05-13T07:12:02Z</time>
      </trkpt>
      <trkpt lat="46.59033" lon="6.10515">
        <ele>1100</ele>
        <time>2026-05-13T07:12:06Z</time>
      </trkpt>
      <trkpt lat="46.59042" lon="6.10521">
        <ele>1099.8</ele>
        <time>2026-05-13T07:12:07Z</time>
      </trkpt>
      <trkpt lat="46.59077" lon="6.10542">
        <ele>1098.8</ele>
        <time>2026-05-13T07:12:11Z</time>
      </trkpt>
      <trkpt lat="46.59103" lon="6.10555">
        <ele>1097.2</ele>
        <time>2026-05-13T07:12:14Z</time>
      </trkpt>
      <trkpt lat="46.59136" lon="6.10573">
        <ele>1096.2</ele>
        <time>2026-05-13T07:12:18Z</time>
      </trkpt>
      <trkpt lat="46.59176" lon="6.10601">
        <ele>1095.8</ele>
        <time>2026-05-13T07:12:24Z</time>
      </trkpt>
      <trkpt lat="46.59229" lon="6.1064">
        <ele>1095.8</ele>
        <time>2026-05-13T07:12:32Z</time>
      </trkpt>
      <trkpt lat="46.59256" lon="6.1066">
        <ele>1095.6</ele>
        <time>2026-05-13T07:12:36Z</time>
      </trkpt>
      <trkpt lat="46.59263" lon="6.10664">
        <ele>1095.4</ele>
        <time>2026-05-13T07:12:37Z</time>
      </trkpt>
      <trkpt lat="46.59276" lon="6.10674">
        <ele>1095</ele>
        <time>2026-05-13T07:12:39Z</time>
      </trkpt>
      <trkpt lat="46.59299" lon="6.1069">
        <ele>1094.4</ele>
        <time>2026-05-13T07:12:42Z</time>
      </trkpt>
      <trkpt lat="46.59323" lon="6.10708">
        <ele>1093.4</ele>
        <time>2026-05-13T07:12:45Z</time>
      </trkpt>
      <trkpt lat="46.59331" lon="6.10714">
        <ele>1093.2</ele>
        <time>2026-05-13T07:12:46Z</time>
      </trkpt>
      <trkpt lat="46.59358" lon="6.10734">
        <ele>1092.2</ele>
        <time>2026-05-13T07:12:49Z</time>
      </trkpt>
      <trkpt lat="46.59376" lon="6.1075">
        <ele>1090.2</ele>
        <time>2026-05-13T07:12:51Z</time>
      </trkpt>
      <trkpt lat="46.59399" lon="6.10778">
        <ele>1088.8</ele>
        <time>2026-05-13T07:12:54Z</time>
      </trkpt>
      <trkpt lat="46.59413" lon="6.10798">
        <ele>1087.4</ele>
        <time>2026-05-13T07:12:56Z</time>
      </trkpt>
      <trkpt lat="46.59439" lon="6.10838">
        <ele>1086.4</ele>
        <time>2026-05-13T07:13:00Z</time>
      </trkpt>
      <trkpt lat="46.59445" lon="6.10848">
        <ele>1086.2</ele>
        <time>2026-05-13T07:13:01Z</time>
      </trkpt>
      <trkpt lat="46.59475" lon="6.10892">
        <ele>1085.4</ele>
        <time>2026-05-13T07:13:06Z</time>
      </trkpt>
      <trkpt lat="46.59484" lon="6.10902">
        <ele>1085.2</ele>
        <time>2026-05-13T07:13:07Z</time>
      </trkpt>
      <trkpt lat="46.59517" lon="6.10936">
        <ele>1084.4</ele>
        <time>2026-05-13T07:13:11Z</time>
      </trkpt>
      <trkpt lat="46.59533" lon="6.10953">
        <ele>1083</ele>
        <time>2026-05-13T07:13:13Z</time>
      </trkpt>
      <trkpt lat="46.59557" lon="6.10979">
        <ele>1081.2</ele>
        <time>2026-05-13T07:13:16Z</time>
      </trkpt>
      <trkpt lat="46.59589" lon="6.11012">
        <ele>1080.2</ele>
        <time>2026-05-13T07:13:20Z</time>
      </trkpt>
      <trkpt lat="46.59611" lon="6.11036">
        <ele>1079.6</ele>
        <time>2026-05-13T07:13:23Z</time>
      </trkpt>
      <trkpt lat="46.59633" lon="6.11062">
        <ele>1079.2</ele>
        <time>2026-05-13T07:13:26Z</time>
      </trkpt>
      <trkpt lat="46.5965" lon="6.11088">
        <ele>1078.6</ele>
        <time>2026-05-13T07:13:29Z</time>
      </trkpt>
      <trkpt lat="46.59683" lon="6.11144">
        <ele>1078.6</ele>
        <time>2026-05-13T07:13:35Z</time>
      </trkpt>
      <trkpt lat="46.59702" lon="6.11192">
        <ele>1079</ele>
        <time>2026-05-13T07:13:40Z</time>
      </trkpt>
      <trkpt lat="46.59713" lon="6.11233">
        <ele>1080.2</ele>
        <time>2026-05-13T07:13:45Z</time>
      </trkpt>
      <trkpt lat="46.59717" lon="6.11246">
        <ele>1080.6</ele>
        <time>2026-05-13T07:13:47Z</time>
      </trkpt>
      <trkpt lat="46.59723" lon="6.11268">
        <ele>1081.8</ele>
        <time>2026-05-13T07:13:51Z</time>
      </trkpt>
      <trkpt lat="46.59729" lon="6.11288">
        <ele>1083.2</ele>
        <time>2026-05-13T07:13:55Z</time>
      </trkpt>
      <trkpt lat="46.5973" lon="6.11293">
        <ele>1083.6</ele>
        <time>2026-05-13T07:13:56Z</time>
      </trkpt>
      <trkpt lat="46.59732" lon="6.11302">
        <ele>1084.6</ele>
        <time>2026-05-13T07:13:58Z</time>
      </trkpt>
      <trkpt lat="46.59735" lon="6.1131">
        <ele>1085.6</ele>
        <time>2026-05-13T07:14:00Z</time>
      </trkpt>
      <trkpt lat="46.59737" lon="6.11318">
        <ele>1086.4</ele>
        <time>2026-05-13T07:14:02Z</time>
      </trkpt>
      <trkpt lat="46.59741" lon="6.11327">
        <ele>1086.8</ele>
        <time>2026-05-13T07:14:04Z</time>
      </trkpt>
      <trkpt lat="46.59751" lon="6.11344">
        <ele>1088</ele>
        <time>2026-05-13T07:14:08Z</time>
      </trkpt>
      <trkpt lat="46.59759" lon="6.11355">
        <ele>1089</ele>
        <time>2026-05-13T07:14:11Z</time>
      </trkpt>
      <trkpt lat="46.59771" lon="6.11374">
        <ele>1090</ele>
        <time>2026-05-13T07:14:16Z</time>
      </trkpt>
      <trkpt lat="46.59774" lon="6.11379">
        <ele>1090.2</ele>
        <time>2026-05-13T07:14:17Z</time>
      </trkpt>
      <trkpt lat="46.59784" lon="6.11398">
        <ele>1090.8</ele>
        <time>2026-05-13T07:14:22Z</time>
      </trkpt>
      <trkpt lat="46.59789" lon="6.11413">
        <ele>1091.4</ele>
        <time>2026-05-13T07:14:25Z</time>
      </trkpt>
      <trkpt lat="46.59796" lon="6.11437">
        <ele>1091.6</ele>
        <time>2026-05-13T07:14:30Z</time>
      </trkpt>
      <trkpt lat="46.59796" lon="6.11441">
        <ele>1091.6</ele>
        <time>2026-05-13T07:14:33Z</time>
      </trkpt>
      <trkpt lat="46.59799" lon="6.11445">
        <ele>1090.6</ele>
        <time>2026-05-13T07:17:05Z</time>
      </trkpt>
      <trkpt lat="46.59803" lon="6.11455">
        <ele>1090.4</ele>
        <time>2026-05-13T07:17:08Z</time>
      </trkpt>
      <trkpt lat="46.59815" lon="6.11483">
        <ele>1090.6</ele>
        <time>2026-05-13T07:17:15Z</time>
      </trkpt>
      <trkpt lat="46.59823" lon="6.11506">
        <ele>1090.8</ele>
        <time>2026-05-13T07:17:20Z</time>
      </trkpt>
      <trkpt lat="46.59829" lon="6.11522">
        <ele>1090.8</ele>
        <time>2026-05-13T07:17:23Z</time>
      </trkpt>
      <trkpt lat="46.59833" lon="6.11534">
        <ele>1090.6</ele>
        <time>2026-05-13T07:17:25Z</time>
      </trkpt>
      <trkpt lat="46.59854" lon="6.1157">
        <ele>1089.4</ele>
        <time>2026-05-13T07:17:31Z</time>
      </trkpt>
      <trkpt lat="46.59861" lon="6.11582">
        <ele>1089</ele>
        <time>2026-05-13T07:17:33Z</time>
      </trkpt>
      <trkpt lat="46.59875" lon="6.11602">
        <ele>1088.4</ele>
        <time>2026-05-13T07:17:36Z</time>
      </trkpt>
      <trkpt lat="46.59883" lon="6.11617">
        <ele>1088</ele>
        <time>2026-05-13T07:17:38Z</time>
      </trkpt>
      <trkpt lat="46.59895" lon="6.11643">
        <ele>1087.4</ele>
        <time>2026-05-13T07:17:41Z</time>
      </trkpt>
      <trkpt lat="46.59915" lon="6.11685">
        <ele>1086.4</ele>
        <time>2026-05-13T07:17:46Z</time>
      </trkpt>
      <trkpt lat="46.59919" lon="6.11693">
        <ele>1086.4</ele>
        <time>2026-05-13T07:17:47Z</time>
      </trkpt>
      <trkpt lat="46.59954" lon="6.11761">
        <ele>1085.6</ele>
        <time>2026-05-13T07:17:56Z</time>
      </trkpt>
      <trkpt lat="46.59957" lon="6.11768">
        <ele>1085.6</ele>
        <time>2026-05-13T07:17:57Z</time>
      </trkpt>
      <trkpt lat="46.59979" lon="6.118">
        <ele>1086.4</ele>
        <time>2026-05-13T07:18:03Z</time>
      </trkpt>
      <trkpt lat="46.60003" lon="6.11826">
        <ele>1087.6</ele>
        <time>2026-05-13T07:18:09Z</time>
      </trkpt>
      <trkpt lat="46.60008" lon="6.1183">
        <ele>1087.8</ele>
        <time>2026-05-13T07:18:10Z</time>
      </trkpt>
      <trkpt lat="46.60031" lon="6.11858">
        <ele>1088</ele>
        <time>2026-05-13T07:18:15Z</time>
      </trkpt>
      <trkpt lat="46.60062" lon="6.11902">
        <ele>1088</ele>
        <time>2026-05-13T07:18:22Z</time>
      </trkpt>
      <trkpt lat="46.60104" lon="6.11962">
        <ele>1088</ele>
        <time>2026-05-13T07:18:31Z</time>
      </trkpt>
      <trkpt lat="46.60114" lon="6.11976">
        <ele>1088</ele>
        <time>2026-05-13T07:18:33Z</time>
      </trkpt>
      <trkpt lat="46.60154" lon="6.12033">
        <ele>1087.8</ele>
        <time>2026-05-13T07:18:41Z</time>
      </trkpt>
      <trkpt lat="46.60166" lon="6.1205">
        <ele>1087.6</ele>
        <time>2026-05-13T07:18:43Z</time>
      </trkpt>
      <trkpt lat="46.60184" lon="6.12076">
        <ele>1087.4</ele>
        <time>2026-05-13T07:18:46Z</time>
      </trkpt>
      <trkpt lat="46.60201" lon="6.12101">
        <ele>1086.6</ele>
        <time>2026-05-13T07:18:49Z</time>
      </trkpt>
      <trkpt lat="46.60229" lon="6.12142">
        <ele>1086.2</ele>
        <time>2026-05-13T07:18:54Z</time>
      </trkpt>
      <trkpt lat="46.60267" lon="6.12203">
        <ele>1086.6</ele>
        <time>2026-05-13T07:19:02Z</time>
      </trkpt>
      <trkpt lat="46.60304" lon="6.12264">
        <ele>1086.8</ele>
        <time>2026-05-13T07:19:11Z</time>
      </trkpt>
      <trkpt lat="46.60336" lon="6.12315">
        <ele>1087.4</ele>
        <time>2026-05-13T07:19:19Z</time>
      </trkpt>
      <trkpt lat="46.6036" lon="6.12355">
        <ele>1087.6</ele>
        <time>2026-05-13T07:19:25Z</time>
      </trkpt>
      <trkpt lat="46.60372" lon="6.12377">
        <ele>1087.8</ele>
        <time>2026-05-13T07:19:28Z</time>
      </trkpt>
      <trkpt lat="46.60406" lon="6.12429">
        <ele>1087.4</ele>
        <time>2026-05-13T07:19:35Z</time>
      </trkpt>
      <trkpt lat="46.60448" lon="6.12491">
        <ele>1086.6</ele>
        <time>2026-05-13T07:19:43Z</time>
      </trkpt>
      <trkpt lat="46.60454" lon="6.12499">
        <ele>1086.4</ele>
        <time>2026-05-13T07:19:44Z</time>
      </trkpt>
      <trkpt lat="46.60487" lon="6.12558">
        <ele>1086</ele>
        <time>2026-05-13T07:19:51Z</time>
      </trkpt>
      <trkpt lat="46.60517" lon="6.12624">
        <ele>1086</ele>
        <time>2026-05-13T07:19:59Z</time>
      </trkpt>
      <trkpt lat="46.60522" lon="6.12634">
        <ele>1086</ele>
        <time>2026-05-13T07:20:00Z</time>
      </trkpt>
      <trkpt lat="46.60551" lon="6.12696">
        <ele>1086.4</ele>
        <time>2026-05-13T07:20:08Z</time>
      </trkpt>
      <trkpt lat="46.60578" lon="6.12752">
        <ele>1087.2</ele>
        <time>2026-05-13T07:20:15Z</time>
      </trkpt>
      <trkpt lat="46.60585" lon="6.12767">
        <ele>1087.4</ele>
        <time>2026-05-13T07:20:17Z</time>
      </trkpt>
      <trkpt lat="46.60605" lon="6.12807">
        <ele>1088.6</ele>
        <time>2026-05-13T07:20:23Z</time>
      </trkpt>
      <trkpt lat="46.60631" lon="6.12852">
        <ele>1089.6</ele>
        <time>2026-05-13T07:20:31Z</time>
      </trkpt>
      <trkpt lat="46.60655" lon="6.12898">
        <ele>1090.6</ele>
        <time>2026-05-13T07:20:39Z</time>
      </trkpt>
      <trkpt lat="46.60661" lon="6.12909">
        <ele>1091</ele>
        <time>2026-05-13T07:20:41Z</time>
      </trkpt>
      <trkpt lat="46.60668" lon="6.12919">
        <ele>1091.2</ele>
        <time>2026-05-13T07:20:43Z</time>
      </trkpt>
      <trkpt lat="46.60674" lon="6.12928">
        <ele>1091.6</ele>
        <time>2026-05-13T07:20:45Z</time>
      </trkpt>
      <trkpt lat="46.60677" lon="6.12933">
        <ele>1091.6</ele>
        <time>2026-05-13T07:20:46Z</time>
      </trkpt>
      <trkpt lat="46.60694" lon="6.12962">
        <ele>1092.8</ele>
        <time>2026-05-13T07:20:52Z</time>
      </trkpt>
      <trkpt lat="46.60698" lon="6.12967">
        <ele>1092.8</ele>
        <time>2026-05-13T07:20:53Z</time>
      </trkpt>
      <trkpt lat="46.60714" lon="6.12991">
        <ele>1093.6</ele>
        <time>2026-05-13T07:20:58Z</time>
      </trkpt>
      <trkpt lat="46.60721" lon="6.13001">
        <ele>1093.8</ele>
        <time>2026-05-13T07:21:00Z</time>
      </trkpt>
      <trkpt lat="46.60752" lon="6.13042">
        <ele>1094.2</ele>
        <time>2026-05-13T07:21:08Z</time>
      </trkpt>
      <trkpt lat="46.60789" lon="6.13094">
        <ele>1094.8</ele>
        <time>2026-05-13T07:21:18Z</time>
      </trkpt>
      <trkpt lat="46.60793" lon="6.13099">
        <ele>1095</ele>
        <time>2026-05-13T07:21:19Z</time>
      </trkpt>
      <trkpt lat="46.6081" lon="6.13124">
        <ele>1096</ele>
        <time>2026-05-13T07:21:24Z</time>
      </trkpt>
      <trkpt lat="46.60813" lon="6.13129">
        <ele>1096.2</ele>
        <time>2026-05-13T07:21:25Z</time>
      </trkpt>
      <trkpt lat="46.60827" lon="6.13148">
        <ele>1096.8</ele>
        <time>2026-05-13T07:21:29Z</time>
      </trkpt>
      <trkpt lat="46.60834" lon="6.13158">
        <ele>1097</ele>
        <time>2026-05-13T07:21:31Z</time>
      </trkpt>
      <trkpt lat="46.60837" lon="6.13162">
        <ele>1097.2</ele>
        <time>2026-05-13T07:21:32Z</time>
      </trkpt>
      <trkpt lat="46.60847" lon="6.13176">
        <ele>1097.4</ele>
        <time>2026-05-13T07:21:35Z</time>
      </trkpt>
      <trkpt lat="46.60857" lon="6.13189">
        <ele>1097.8</ele>
        <time>2026-05-13T07:21:38Z</time>
      </trkpt>
      <trkpt lat="46.60876" lon="6.13212">
        <ele>1098.2</ele>
        <time>2026-05-13T07:21:43Z</time>
      </trkpt>
      <trkpt lat="46.60893" lon="6.13228">
        <ele>1098.2</ele>
        <time>2026-05-13T07:21:47Z</time>
      </trkpt>
      <trkpt lat="46.60936" lon="6.1326">
        <ele>1098.2</ele>
        <time>2026-05-13T07:21:56Z</time>
      </trkpt>
      <trkpt lat="46.6099" lon="6.13292">
        <ele>1098.2</ele>
        <time>2026-05-13T07:22:06Z</time>
      </trkpt>
      <trkpt lat="46.61044" lon="6.13324">
        <ele>1098.4</ele>
        <time>2026-05-13T07:22:16Z</time>
      </trkpt>
      <trkpt lat="46.61056" lon="6.13331">
        <ele>1098.4</ele>
        <time>2026-05-13T07:22:18Z</time>
      </trkpt>
      <trkpt lat="46.61109" lon="6.13362">
        <ele>1098.2</ele>
        <time>2026-05-13T07:22:27Z</time>
      </trkpt>
      <trkpt lat="46.61115" lon="6.13365">
        <ele>1098.2</ele>
        <time>2026-05-13T07:22:28Z</time>
      </trkpt>
      <trkpt lat="46.61166" lon="6.13396">
        <ele>1098.2</ele>
        <time>2026-05-13T07:22:36Z</time>
      </trkpt>
      <trkpt lat="46.61173" lon="6.134">
        <ele>1098.2</ele>
        <time>2026-05-13T07:22:37Z</time>
      </trkpt>
      <trkpt lat="46.61229" lon="6.13428">
        <ele>1097.8</ele>
        <time>2026-05-13T07:22:45Z</time>
      </trkpt>
      <trkpt lat="46.61236" lon="6.13431">
        <ele>1097.8</ele>
        <time>2026-05-13T07:22:46Z</time>
      </trkpt>
      <trkpt lat="46.61279" lon="6.13448">
        <ele>1097.2</ele>
        <time>2026-05-13T07:22:52Z</time>
      </trkpt>
      <trkpt lat="46.61292" lon="6.13454">
        <ele>1097.2</ele>
        <time>2026-05-13T07:22:54Z</time>
      </trkpt>
      <trkpt lat="46.61353" lon="6.13473">
        <ele>1096.6</ele>
        <time>2026-05-13T07:23:02Z</time>
      </trkpt>
      <trkpt lat="46.61369" lon="6.13476">
        <ele>1096.2</ele>
        <time>2026-05-13T07:23:04Z</time>
      </trkpt>
      <trkpt lat="46.61402" lon="6.13482">
        <ele>1095.2</ele>
        <time>2026-05-13T07:23:08Z</time>
      </trkpt>
      <trkpt lat="46.61419" lon="6.13485">
        <ele>1094.6</ele>
        <time>2026-05-13T07:23:10Z</time>
      </trkpt>
      <trkpt lat="46.61434" lon="6.13487">
        <ele>1094.2</ele>
        <time>2026-05-13T07:23:12Z</time>
      </trkpt>
      <trkpt lat="46.61473" lon="6.13497">
        <ele>1093.8</ele>
        <time>2026-05-13T07:23:17Z</time>
      </trkpt>
      <trkpt lat="46.61522" lon="6.13517">
        <ele>1093.8</ele>
        <time>2026-05-13T07:23:24Z</time>
      </trkpt>
      <trkpt lat="46.61562" lon="6.13538">
        <ele>1094.8</ele>
        <time>2026-05-13T07:23:31Z</time>
      </trkpt>
      <trkpt lat="46.61595" lon="6.1356">
        <ele>1095.4</ele>
        <time>2026-05-13T07:23:37Z</time>
      </trkpt>
      <trkpt lat="46.61605" lon="6.13566">
        <ele>1095.6</ele>
        <time>2026-05-13T07:23:39Z</time>
      </trkpt>
      <trkpt lat="46.61648" lon="6.13595">
        <ele>1096.4</ele>
        <time>2026-05-13T07:23:47Z</time>
      </trkpt>
      <trkpt lat="46.61658" lon="6.13602">
        <ele>1096.6</ele>
        <time>2026-05-13T07:23:49Z</time>
      </trkpt>
      <trkpt lat="46.61698" lon="6.13626">
        <ele>1096.8</ele>
        <time>2026-05-13T07:23:56Z</time>
      </trkpt>
      <trkpt lat="46.61738" lon="6.13649">
        <ele>1096.6</ele>
        <time>2026-05-13T07:24:02Z</time>
      </trkpt>
      <trkpt lat="46.61789" lon="6.13679">
        <ele>1095.4</ele>
        <time>2026-05-13T07:24:09Z</time>
      </trkpt>
      <trkpt lat="46.61797" lon="6.13683">
        <ele>1095.2</ele>
        <time>2026-05-13T07:24:10Z</time>
      </trkpt>
      <trkpt lat="46.6185" lon="6.13714">
        <ele>1094.4</ele>
        <time>2026-05-13T07:24:17Z</time>
      </trkpt>
      <trkpt lat="46.61871" lon="6.13727">
        <ele>1094.4</ele>
        <time>2026-05-13T07:24:20Z</time>
      </trkpt>
      <trkpt lat="46.61878" lon="6.13731">
        <ele>1094.4</ele>
        <time>2026-05-13T07:24:21Z</time>
      </trkpt>
      <trkpt lat="46.61929" lon="6.1376">
        <ele>1093.8</ele>
        <time>2026-05-13T07:24:28Z</time>
      </trkpt>
      <trkpt lat="46.61944" lon="6.13768">
        <ele>1093.6</ele>
        <time>2026-05-13T07:24:30Z</time>
      </trkpt>
      <trkpt lat="46.61952" lon="6.13772">
        <ele>1093.6</ele>
        <time>2026-05-13T07:24:31Z</time>
      </trkpt>
      <trkpt lat="46.62007" lon="6.138">
        <ele>1092.8</ele>
        <time>2026-05-13T07:24:38Z</time>
      </trkpt>
      <trkpt lat="46.62015" lon="6.13804">
        <ele>1092.8</ele>
        <time>2026-05-13T07:24:39Z</time>
      </trkpt>
      <trkpt lat="46.62031" lon="6.13812">
        <ele>1092.6</ele>
        <time>2026-05-13T07:24:41Z</time>
      </trkpt>
      <trkpt lat="46.62083" lon="6.13838">
        <ele>1092</ele>
        <time>2026-05-13T07:24:48Z</time>
      </trkpt>
      <trkpt lat="46.62097" lon="6.13845">
        <ele>1092</ele>
        <time>2026-05-13T07:24:50Z</time>
      </trkpt>
      <trkpt lat="46.6215" lon="6.13874">
        <ele>1092.8</ele>
        <time>2026-05-13T07:24:58Z</time>
      </trkpt>
      <trkpt lat="46.62204" lon="6.13909">
        <ele>1093.6</ele>
        <time>2026-05-13T07:25:07Z</time>
      </trkpt>
      <trkpt lat="46.62236" lon="6.13929">
        <ele>1093.8</ele>
        <time>2026-05-13T07:25:12Z</time>
      </trkpt>
      <trkpt lat="46.6228" lon="6.13955">
        <ele>1093.6</ele>
        <time>2026-05-13T07:25:19Z</time>
      </trkpt>
      <trkpt lat="46.62333" lon="6.1398">
        <ele>1093.8</ele>
        <time>2026-05-13T07:25:27Z</time>
      </trkpt>
      <trkpt lat="46.62339" lon="6.13983">
        <ele>1093.8</ele>
        <time>2026-05-13T07:25:28Z</time>
      </trkpt>
      <trkpt lat="46.62396" lon="6.14009">
        <ele>1093.6</ele>
        <time>2026-05-13T07:25:37Z</time>
      </trkpt>
      <trkpt lat="46.62408" lon="6.14014">
        <ele>1093.6</ele>
        <time>2026-05-13T07:25:39Z</time>
      </trkpt>
      <trkpt lat="46.62441" lon="6.14027">
        <ele>1094.2</ele>
        <time>2026-05-13T07:25:45Z</time>
      </trkpt>
      <trkpt lat="46.62463" lon="6.14033">
        <ele>1094.8</ele>
        <time>2026-05-13T07:25:49Z</time>
      </trkpt>
      <trkpt lat="46.62485" lon="6.14038">
        <ele>1095.4</ele>
        <time>2026-05-13T07:25:53Z</time>
      </trkpt>
      <trkpt lat="46.62496" lon="6.1404">
        <ele>1095.8</ele>
        <time>2026-05-13T07:25:55Z</time>
      </trkpt>
      <trkpt lat="46.62544" lon="6.1405">
        <ele>1096.4</ele>
        <time>2026-05-13T07:26:03Z</time>
      </trkpt>
      <trkpt lat="46.6258" lon="6.14056">
        <ele>1096.8</ele>
        <time>2026-05-13T07:26:10Z</time>
      </trkpt>
      <trkpt lat="46.62609" lon="6.14061">
        <ele>1098</ele>
        <time>2026-05-13T07:26:16Z</time>
      </trkpt>
      <trkpt lat="46.62619" lon="6.14063">
        <ele>1098.2</ele>
        <time>2026-05-13T07:26:18Z</time>
      </trkpt>
      <trkpt lat="46.62633" lon="6.14066">
        <ele>1098.8</ele>
        <time>2026-05-13T07:26:21Z</time>
      </trkpt>
      <trkpt lat="46.62642" lon="6.14066">
        <ele>1099.2</ele>
        <time>2026-05-13T07:26:23Z</time>
      </trkpt>
      <trkpt lat="46.62652" lon="6.14067">
        <ele>1099.6</ele>
        <time>2026-05-13T07:26:25Z</time>
      </trkpt>
      <trkpt lat="46.62672" lon="6.14067">
        <ele>1100.2</ele>
        <time>2026-05-13T07:26:29Z</time>
      </trkpt>
      <trkpt lat="46.62698" lon="6.14068">
        <ele>1100.8</ele>
        <time>2026-05-13T07:26:34Z</time>
      </trkpt>
      <trkpt lat="46.62735" lon="6.14068">
        <ele>1101.2</ele>
        <time>2026-05-13T07:26:41Z</time>
      </trkpt>
      <trkpt lat="46.62764" lon="6.14067">
        <ele>1101.4</ele>
        <time>2026-05-13T07:26:46Z</time>
      </trkpt>
      <trkpt lat="46.62817" lon="6.14067">
        <ele>1101.2</ele>
        <time>2026-05-13T07:26:55Z</time>
      </trkpt>
      <trkpt lat="46.62871" lon="6.14064">
        <ele>1101.8</ele>
        <time>2026-05-13T07:27:04Z</time>
      </trkpt>
      <trkpt lat="46.62922" lon="6.14059">
        <ele>1102</ele>
        <time>2026-05-13T07:27:12Z</time>
      </trkpt>
      <trkpt lat="46.62965" lon="6.14066">
        <ele>1101.8</ele>
        <time>2026-05-13T07:27:19Z</time>
      </trkpt>
      <trkpt lat="46.63008" lon="6.14082">
        <ele>1102</ele>
        <time>2026-05-13T07:27:26Z</time>
      </trkpt>
      <trkpt lat="46.6306" lon="6.14103">
        <ele>1102.2</ele>
        <time>2026-05-13T07:27:35Z</time>
      </trkpt>
      <trkpt lat="46.63066" lon="6.14105">
        <ele>1102.4</ele>
        <time>2026-05-13T07:27:36Z</time>
      </trkpt>
      <trkpt lat="46.63071" lon="6.14107">
        <ele>1102.6</ele>
        <time>2026-05-13T07:27:37Z</time>
      </trkpt>
      <trkpt lat="46.63095" lon="6.14116">
        <ele>1102.8</ele>
        <time>2026-05-13T07:27:42Z</time>
      </trkpt>
      <trkpt lat="46.63114" lon="6.14123">
        <ele>1103.6</ele>
        <time>2026-05-13T07:27:46Z</time>
      </trkpt>
      <trkpt lat="46.63122" lon="6.14127">
        <ele>1104</ele>
        <time>2026-05-13T07:27:48Z</time>
      </trkpt>
      <trkpt lat="46.63135" lon="6.14131">
        <ele>1104.8</ele>
        <time>2026-05-13T07:27:51Z</time>
      </trkpt>
      <trkpt lat="46.63154" lon="6.14138">
        <ele>1105.8</ele>
        <time>2026-05-13T07:27:56Z</time>
      </trkpt>
      <trkpt lat="46.63161" lon="6.14141">
        <ele>1106.2</ele>
        <time>2026-05-13T07:27:58Z</time>
      </trkpt>
      <trkpt lat="46.63173" lon="6.14145">
        <ele>1107.2</ele>
        <time>2026-05-13T07:28:01Z</time>
      </trkpt>
      <trkpt lat="46.63194" lon="6.14156">
        <ele>1108.2</ele>
        <time>2026-05-13T07:28:06Z</time>
      </trkpt>
      <trkpt lat="46.63228" lon="6.14179">
        <ele>1108.6</ele>
        <time>2026-05-13T07:28:14Z</time>
      </trkpt>
      <trkpt lat="46.63258" lon="6.14197">
        <ele>1109.2</ele>
        <time>2026-05-13T07:28:21Z</time>
      </trkpt>
      <trkpt lat="46.63262" lon="6.14199">
        <ele>1109.4</ele>
        <time>2026-05-13T07:28:22Z</time>
      </trkpt>
      <trkpt lat="46.63296" lon="6.14206">
        <ele>1110.2</ele>
        <time>2026-05-13T07:28:30Z</time>
      </trkpt>
      <trkpt lat="46.633" lon="6.14206">
        <ele>1110.6</ele>
        <time>2026-05-13T07:28:31Z</time>
      </trkpt>
      <trkpt lat="46.63319" lon="6.14201">
        <ele>1111.6</ele>
        <time>2026-05-13T07:28:36Z</time>
      </trkpt>
      <trkpt lat="46.63338" lon="6.14198">
        <ele>1112.6</ele>
        <time>2026-05-13T07:28:41Z</time>
      </trkpt>
      <trkpt lat="46.63349" lon="6.14194">
        <ele>1113.2</ele>
        <time>2026-05-13T07:28:44Z</time>
      </trkpt>
      <trkpt lat="46.6336" lon="6.1419">
        <ele>1114</ele>
        <time>2026-05-13T07:28:47Z</time>
      </trkpt>
      <trkpt lat="46.63374" lon="6.14185">
        <ele>1115</ele>
        <time>2026-05-13T07:28:51Z</time>
      </trkpt>
      <trkpt lat="46.63391" lon="6.14179">
        <ele>1116</ele>
        <time>2026-05-13T07:28:56Z</time>
      </trkpt>
      <trkpt lat="46.63405" lon="6.14173">
        <ele>1116.8</ele>
        <time>2026-05-13T07:29:00Z</time>
      </trkpt>
      <trkpt lat="46.63414" lon="6.14167">
        <ele>1117.2</ele>
        <time>2026-05-13T07:29:03Z</time>
      </trkpt>
      <trkpt lat="46.63427" lon="6.14162">
        <ele>1118.2</ele>
        <time>2026-05-13T07:29:07Z</time>
      </trkpt>
      <trkpt lat="46.63434" lon="6.1416">
        <ele>1118.6</ele>
        <time>2026-05-13T07:29:09Z</time>
      </trkpt>
      <trkpt lat="46.63444" lon="6.14159">
        <ele>1119.4</ele>
        <time>2026-05-13T07:29:12Z</time>
      </trkpt>
      <trkpt lat="46.63457" lon="6.14161">
        <ele>1120.2</ele>
        <time>2026-05-13T07:29:16Z</time>
      </trkpt>
      <trkpt lat="46.63461" lon="6.14162">
        <ele>1120.4</ele>
        <time>2026-05-13T07:29:17Z</time>
      </trkpt>
      <trkpt lat="46.63475" lon="6.14164">
        <ele>1121.6</ele>
        <time>2026-05-13T07:29:21Z</time>
      </trkpt>
      <trkpt lat="46.63481" lon="6.14163">
        <ele>1122</ele>
        <time>2026-05-13T07:29:23Z</time>
      </trkpt>
      <trkpt lat="46.63495" lon="6.14158">
        <ele>1122.6</ele>
        <time>2026-05-13T07:29:27Z</time>
      </trkpt>
      <trkpt lat="46.63498" lon="6.14157">
        <ele>1122.8</ele>
        <time>2026-05-13T07:29:28Z</time>
      </trkpt>
      <trkpt lat="46.63504" lon="6.14153">
        <ele>1123</ele>
        <time>2026-05-13T07:29:30Z</time>
      </trkpt>
      <trkpt lat="46.63512" lon="6.14146">
        <ele>1123.8</ele>
        <time>2026-05-13T07:29:33Z</time>
      </trkpt>
      <trkpt lat="46.63531" lon="6.14135">
        <ele>1125</ele>
        <time>2026-05-13T07:29:39Z</time>
      </trkpt>
      <trkpt lat="46.63534" lon="6.14134">
        <ele>1125</ele>
        <time>2026-05-13T07:29:40Z</time>
      </trkpt>
      <trkpt lat="46.63549" lon="6.14128">
        <ele>1126</ele>
        <time>2026-05-13T07:29:45Z</time>
      </trkpt>
      <trkpt lat="46.63559" lon="6.14125">
        <ele>1126.6</ele>
        <time>2026-05-13T07:29:48Z</time>
      </trkpt>
      <trkpt lat="46.63565" lon="6.14122">
        <ele>1127</ele>
        <time>2026-05-13T07:29:50Z</time>
      </trkpt>
      <trkpt lat="46.63575" lon="6.14119">
        <ele>1128</ele>
        <time>2026-05-13T07:29:53Z</time>
      </trkpt>
      <trkpt lat="46.63584" lon="6.14117">
        <ele>1128.8</ele>
        <time>2026-05-13T07:29:56Z</time>
      </trkpt>
      <trkpt lat="46.63591" lon="6.14116">
        <ele>1129.2</ele>
        <time>2026-05-13T07:29:58Z</time>
      </trkpt>
      <trkpt lat="46.63609" lon="6.14111">
        <ele>1130.4</ele>
        <time>2026-05-13T07:30:04Z</time>
      </trkpt>
      <trkpt lat="46.63612" lon="6.1411">
        <ele>1130.4</ele>
        <time>2026-05-13T07:30:05Z</time>
      </trkpt>
      <trkpt lat="46.63625" lon="6.14107">
        <ele>1131.4</ele>
        <time>2026-05-13T07:30:09Z</time>
      </trkpt>
      <trkpt lat="46.63644" lon="6.14103">
        <ele>1132.4</ele>
        <time>2026-05-13T07:30:15Z</time>
      </trkpt>
      <trkpt lat="46.63648" lon="6.14102">
        <ele>1132.6</ele>
        <time>2026-05-13T07:30:16Z</time>
      </trkpt>
      <trkpt lat="46.63668" lon="6.14098">
        <ele>1133.6</ele>
        <time>2026-05-13T07:30:22Z</time>
      </trkpt>
      <trkpt lat="46.63678" lon="6.14098">
        <ele>1134</ele>
        <time>2026-05-13T07:30:25Z</time>
      </trkpt>
      <trkpt lat="46.63688" lon="6.14097">
        <ele>1135</ele>
        <time>2026-05-13T07:30:28Z</time>
      </trkpt>
      <trkpt lat="46.63708" lon="6.14098">
        <ele>1136</ele>
        <time>2026-05-13T07:30:34Z</time>
      </trkpt>
      <trkpt lat="46.63722" lon="6.14098">
        <ele>1136.8</ele>
        <time>2026-05-13T07:30:38Z</time>
      </trkpt>
      <trkpt lat="46.63729" lon="6.14097">
        <ele>1137</ele>
        <time>2026-05-13T07:30:40Z</time>
      </trkpt>
      <trkpt lat="46.63749" lon="6.14098">
        <ele>1138</ele>
        <time>2026-05-13T07:30:46Z</time>
      </trkpt>
      <trkpt lat="46.63756" lon="6.14098">
        <ele>1138.6</ele>
        <time>2026-05-13T07:30:48Z</time>
      </trkpt>
      <trkpt lat="46.63765" lon="6.14097">
        <ele>1139.2</ele>
        <time>2026-05-13T07:30:51Z</time>
      </trkpt>
      <trkpt lat="46.63775" lon="6.14098">
        <ele>1139.6</ele>
        <time>2026-05-13T07:30:54Z</time>
      </trkpt>
      <trkpt lat="46.63782" lon="6.14097">
        <ele>1139.8</ele>
        <time>2026-05-13T07:30:56Z</time>
      </trkpt>
      <trkpt lat="46.63793" lon="6.14096">
        <ele>1140.2</ele>
        <time>2026-05-13T07:30:59Z</time>
      </trkpt>
      <trkpt lat="46.6381" lon="6.14094">
        <ele>1141.2</ele>
        <time>2026-05-13T07:31:04Z</time>
      </trkpt>
      <trkpt lat="46.63813" lon="6.14093">
        <ele>1141.4</ele>
        <time>2026-05-13T07:31:05Z</time>
      </trkpt>
      <trkpt lat="46.63827" lon="6.14092">
        <ele>1142.4</ele>
        <time>2026-05-13T07:31:09Z</time>
      </trkpt>
      <trkpt lat="46.63841" lon="6.14091">
        <ele>1143.2</ele>
        <time>2026-05-13T07:31:13Z</time>
      </trkpt>
      <trkpt lat="46.63848" lon="6.14092">
        <ele>1143.6</ele>
        <time>2026-05-13T07:31:15Z</time>
      </trkpt>
      <trkpt lat="46.63862" lon="6.14094">
        <ele>1144.2</ele>
        <time>2026-05-13T07:31:19Z</time>
      </trkpt>
      <trkpt lat="46.63874" lon="6.14097">
        <ele>1144.6</ele>
        <time>2026-05-13T07:31:22Z</time>
      </trkpt>
      <trkpt lat="46.63899" lon="6.14105">
        <ele>1144.8</ele>
        <time>2026-05-13T07:31:28Z</time>
      </trkpt>
      <trkpt lat="46.63931" lon="6.14118">
        <ele>1145.4</ele>
        <time>2026-05-13T07:31:36Z</time>
      </trkpt>
      <trkpt lat="46.63935" lon="6.1412">
        <ele>1145.6</ele>
        <time>2026-05-13T07:31:37Z</time>
      </trkpt>
      <trkpt lat="46.63962" lon="6.14129">
        <ele>1146.4</ele>
        <time>2026-05-13T07:31:44Z</time>
      </trkpt>
      <trkpt lat="46.63966" lon="6.1413">
        <ele>1146.6</ele>
        <time>2026-05-13T07:31:45Z</time>
      </trkpt>
      <trkpt lat="46.63999" lon="6.14131">
        <ele>1147.4</ele>
        <time>2026-05-13T07:31:52Z</time>
      </trkpt>
      <trkpt lat="46.64031" lon="6.14127">
        <ele>1147.6</ele>
        <time>2026-05-13T07:31:58Z</time>
      </trkpt>
      <trkpt lat="46.64036" lon="6.14127">
        <ele>1147.4</ele>
        <time>2026-05-13T07:31:59Z</time>
      </trkpt>
      <trkpt lat="46.64053" lon="6.14129">
        <ele>1147.4</ele>
        <time>2026-05-13T07:32:02Z</time>
      </trkpt>
      <trkpt lat="46.64065" lon="6.14134">
        <ele>1147.4</ele>
        <time>2026-05-13T07:32:04Z</time>
      </trkpt>
      <trkpt lat="46.64095" lon="6.14156">
        <ele>1147</ele>
        <time>2026-05-13T07:32:09Z</time>
      </trkpt>
      <trkpt lat="46.64106" lon="6.1416">
        <ele>1146.6</ele>
        <time>2026-05-13T07:32:11Z</time>
      </trkpt>
      <trkpt lat="46.64119" lon="6.1416">
        <ele>1146.6</ele>
        <time>2026-05-13T07:32:13Z</time>
      </trkpt>
      <trkpt lat="46.64137" lon="6.14154">
        <ele>1146.2</ele>
        <time>2026-05-13T07:32:16Z</time>
      </trkpt>
      <trkpt lat="46.64143" lon="6.1415">
        <ele>1146</ele>
        <time>2026-05-13T07:32:17Z</time>
      </trkpt>
      <trkpt lat="46.6418" lon="6.14125">
        <ele>1145.6</ele>
        <time>2026-05-13T07:32:23Z</time>
      </trkpt>
      <trkpt lat="46.64195" lon="6.14118">
        <ele>1145.4</ele>
        <time>2026-05-13T07:32:25Z</time>
      </trkpt>
      <trkpt lat="46.64232" lon="6.14106">
        <ele>1144.8</ele>
        <time>2026-05-13T07:32:30Z</time>
      </trkpt>
      <trkpt lat="46.64248" lon="6.14102">
        <ele>1144</ele>
        <time>2026-05-13T07:32:32Z</time>
      </trkpt>
      <trkpt lat="46.64279" lon="6.14093">
        <ele>1143.4</ele>
        <time>2026-05-13T07:32:36Z</time>
      </trkpt>
      <trkpt lat="46.6432" lon="6.14082">
        <ele>1142.2</ele>
        <time>2026-05-13T07:32:41Z</time>
      </trkpt>
      <trkpt lat="46.64328" lon="6.14079">
        <ele>1142.2</ele>
        <time>2026-05-13T07:32:42Z</time>
      </trkpt>
      <trkpt lat="46.64366" lon="6.14062">
        <ele>1141.2</ele>
        <time>2026-05-13T07:32:47Z</time>
      </trkpt>
      <trkpt lat="46.64388" lon="6.1405">
        <ele>1140.4</ele>
        <time>2026-05-13T07:32:50Z</time>
      </trkpt>
      <trkpt lat="46.64408" lon="6.14038">
        <ele>1140.4</ele>
        <time>2026-05-13T07:32:53Z</time>
      </trkpt>
      <trkpt lat="46.64419" lon="6.14032">
        <ele>1140</ele>
        <time>2026-05-13T07:32:55Z</time>
      </trkpt>
      <trkpt lat="46.64437" lon="6.14022">
        <ele>1140</ele>
        <time>2026-05-13T07:32:58Z</time>
      </trkpt>
      <trkpt lat="46.64461" lon="6.14009">
        <ele>1140.4</ele>
        <time>2026-05-13T07:33:02Z</time>
      </trkpt>
      <trkpt lat="46.64506" lon="6.13973">
        <ele>1139.8</ele>
        <time>2026-05-13T07:33:09Z</time>
      </trkpt>
      <trkpt lat="46.64536" lon="6.1394">
        <ele>1139</ele>
        <time>2026-05-13T07:33:14Z</time>
      </trkpt>
      <trkpt lat="46.64542" lon="6.13932">
        <ele>1138.8</ele>
        <time>2026-05-13T07:33:15Z</time>
      </trkpt>
      <trkpt lat="46.64549" lon="6.13925">
        <ele>1138.6</ele>
        <time>2026-05-13T07:33:16Z</time>
      </trkpt>
      <trkpt lat="46.64565" lon="6.13917">
        <ele>1138</ele>
        <time>2026-05-13T07:33:18Z</time>
      </trkpt>
      <trkpt lat="46.64592" lon="6.13917">
        <ele>1137</ele>
        <time>2026-05-13T07:33:21Z</time>
      </trkpt>
      <trkpt lat="46.6461" lon="6.13917">
        <ele>1136.4</ele>
        <time>2026-05-13T07:33:23Z</time>
      </trkpt>
      <trkpt lat="46.64628" lon="6.1391">
        <ele>1135.8</ele>
        <time>2026-05-13T07:33:25Z</time>
      </trkpt>
      <trkpt lat="46.64653" lon="6.13897">
        <ele>1134.4</ele>
        <time>2026-05-13T07:33:28Z</time>
      </trkpt>
      <trkpt lat="46.64681" lon="6.13884">
        <ele>1132.8</ele>
        <time>2026-05-13T07:33:31Z</time>
      </trkpt>
      <trkpt lat="46.647" lon="6.13875">
        <ele>1131.8</ele>
        <time>2026-05-13T07:33:33Z</time>
      </trkpt>
      <trkpt lat="46.64727" lon="6.13859">
        <ele>1130.2</ele>
        <time>2026-05-13T07:33:36Z</time>
      </trkpt>
      <trkpt lat="46.64745" lon="6.13844">
        <ele>1129.6</ele>
        <time>2026-05-13T07:33:38Z</time>
      </trkpt>
      <trkpt lat="46.64763" lon="6.13827">
        <ele>1129</ele>
        <time>2026-05-13T07:33:40Z</time>
      </trkpt>
      <trkpt lat="46.64788" lon="6.13799">
        <ele>1128</ele>
        <time>2026-05-13T07:33:43Z</time>
      </trkpt>
      <trkpt lat="46.64821" lon="6.13763">
        <ele>1126.8</ele>
        <time>2026-05-13T07:33:47Z</time>
      </trkpt>
      <trkpt lat="46.64837" lon="6.13745">
        <ele>1126.4</ele>
        <time>2026-05-13T07:33:49Z</time>
      </trkpt>
      <trkpt lat="46.64853" lon="6.13726">
        <ele>1125.6</ele>
        <time>2026-05-13T07:33:51Z</time>
      </trkpt>
      <trkpt lat="46.64871" lon="6.13706">
        <ele>1124.8</ele>
        <time>2026-05-13T07:33:53Z</time>
      </trkpt>
      <trkpt lat="46.64887" lon="6.13689">
        <ele>1124.2</ele>
        <time>2026-05-13T07:33:55Z</time>
      </trkpt>
      <trkpt lat="46.64927" lon="6.13645">
        <ele>1123</ele>
        <time>2026-05-13T07:34:00Z</time>
      </trkpt>
      <trkpt lat="46.64942" lon="6.13628">
        <ele>1122.6</ele>
        <time>2026-05-13T07:34:02Z</time>
      </trkpt>
      <trkpt lat="46.64974" lon="6.13593">
        <ele>1122</ele>
        <time>2026-05-13T07:34:06Z</time>
      </trkpt>
      <trkpt lat="46.6502" lon="6.13543">
        <ele>1121.4</ele>
        <time>2026-05-13T07:34:12Z</time>
      </trkpt>
      <trkpt lat="46.65027" lon="6.13535">
        <ele>1121.2</ele>
        <time>2026-05-13T07:34:13Z</time>
      </trkpt>
      <trkpt lat="46.65042" lon="6.13519">
        <ele>1121</ele>
        <time>2026-05-13T07:34:15Z</time>
      </trkpt>
      <trkpt lat="46.6508" lon="6.13489">
        <ele>1120.4</ele>
        <time>2026-05-13T07:34:20Z</time>
      </trkpt>
      <trkpt lat="46.65125" lon="6.13458">
        <ele>1120</ele>
        <time>2026-05-13T07:34:26Z</time>
      </trkpt>
      <trkpt lat="46.65148" lon="6.13442">
        <ele>1119.8</ele>
        <time>2026-05-13T07:34:29Z</time>
      </trkpt>
      <trkpt lat="46.65192" lon="6.13418">
        <ele>1119.8</ele>
        <time>2026-05-13T07:34:35Z</time>
      </trkpt>
      <trkpt lat="46.65247" lon="6.13395">
        <ele>1119.4</ele>
        <time>2026-05-13T07:34:42Z</time>
      </trkpt>
      <trkpt lat="46.65255" lon="6.13392">
        <ele>1119.2</ele>
        <time>2026-05-13T07:34:43Z</time>
      </trkpt>
      <trkpt lat="46.65269" lon="6.13387">
        <ele>1118.8</ele>
        <time>2026-05-13T07:34:45Z</time>
      </trkpt>
      <trkpt lat="46.65326" lon="6.13367">
        <ele>1118.2</ele>
        <time>2026-05-13T07:34:52Z</time>
      </trkpt>
      <trkpt lat="46.65334" lon="6.13365">
        <ele>1118.2</ele>
        <time>2026-05-13T07:34:53Z</time>
      </trkpt>
      <trkpt lat="46.65366" lon="6.13355">
        <ele>1117.6</ele>
        <time>2026-05-13T07:34:57Z</time>
      </trkpt>
      <trkpt lat="46.6542" lon="6.13344">
        <ele>1117</ele>
        <time>2026-05-13T07:35:04Z</time>
      </trkpt>
      <trkpt lat="46.65469" lon="6.13343">
        <ele>1117</ele>
        <time>2026-05-13T07:35:10Z</time>
      </trkpt>
      <trkpt lat="46.65492" lon="6.13353">
        <ele>1117</ele>
        <time>2026-05-13T07:35:13Z</time>
      </trkpt>
      <trkpt lat="46.655" lon="6.13359">
        <ele>1116.8</ele>
        <time>2026-05-13T07:35:14Z</time>
      </trkpt>
      <trkpt lat="46.65547" lon="6.13403">
        <ele>1116.6</ele>
        <time>2026-05-13T07:35:21Z</time>
      </trkpt>
      <trkpt lat="46.65554" lon="6.1341">
        <ele>1116.6</ele>
        <time>2026-05-13T07:35:22Z</time>
      </trkpt>
      <trkpt lat="46.65602" lon="6.13457">
        <ele>1117</ele>
        <time>2026-05-13T07:35:30Z</time>
      </trkpt>
      <trkpt lat="46.65608" lon="6.13463">
        <ele>1117.2</ele>
        <time>2026-05-13T07:35:31Z</time>
      </trkpt>
      <trkpt lat="46.65641" lon="6.13495">
        <ele>1118</ele>
        <time>2026-05-13T07:35:37Z</time>
      </trkpt>
      <trkpt lat="46.65665" lon="6.13519">
        <ele>1119</ele>
        <time>2026-05-13T07:35:42Z</time>
      </trkpt>
      <trkpt lat="46.65669" lon="6.13523">
        <ele>1119.2</ele>
        <time>2026-05-13T07:35:43Z</time>
      </trkpt>
      <trkpt lat="46.65709" lon="6.13553">
        <ele>1120</ele>
        <time>2026-05-13T07:35:51Z</time>
      </trkpt>
      <trkpt lat="46.65714" lon="6.13557">
        <ele>1120.2</ele>
        <time>2026-05-13T07:35:52Z</time>
      </trkpt>
      <trkpt lat="46.65745" lon="6.13582">
        <ele>1120.8</ele>
        <time>2026-05-13T07:35:58Z</time>
      </trkpt>
      <trkpt lat="46.65787" lon="6.13616">
        <ele>1120.4</ele>
        <time>2026-05-13T07:36:05Z</time>
      </trkpt>
      <trkpt lat="46.65811" lon="6.13649">
        <ele>1120</ele>
        <time>2026-05-13T07:36:09Z</time>
      </trkpt>
      <trkpt lat="46.65826" lon="6.13675">
        <ele>1118.8</ele>
        <time>2026-05-13T07:36:12Z</time>
      </trkpt>
      <trkpt lat="46.65844" lon="6.13706">
        <ele>1117.8</ele>
        <time>2026-05-13T07:36:15Z</time>
      </trkpt>
      <trkpt lat="46.6585" lon="6.13716">
        <ele>1117.4</ele>
        <time>2026-05-13T07:36:16Z</time>
      </trkpt>
      <trkpt lat="46.65857" lon="6.13725">
        <ele>1117</ele>
        <time>2026-05-13T07:36:17Z</time>
      </trkpt>
      <trkpt lat="46.65871" lon="6.13741">
        <ele>1116.2</ele>
        <time>2026-05-13T07:36:19Z</time>
      </trkpt>
      <trkpt lat="46.6591" lon="6.13769">
        <ele>1114.8</ele>
        <time>2026-05-13T07:36:24Z</time>
      </trkpt>
      <trkpt lat="46.6592" lon="6.13774">
        <ele>1114.6</ele>
        <time>2026-05-13T07:36:25Z</time>
      </trkpt>
      <trkpt lat="46.65936" lon="6.1378">
        <ele>1113.8</ele>
        <time>2026-05-13T07:36:27Z</time>
      </trkpt>
      <trkpt lat="46.65963" lon="6.13786">
        <ele>1113.2</ele>
        <time>2026-05-13T07:36:30Z</time>
      </trkpt>
      <trkpt lat="46.65978" lon="6.13788">
        <ele>1112.6</ele>
        <time>2026-05-13T07:36:32Z</time>
      </trkpt>
      <trkpt lat="46.66012" lon="6.13788">
        <ele>1112.2</ele>
        <time>2026-05-13T07:36:36Z</time>
      </trkpt>
      <trkpt lat="46.66071" lon="6.13775">
        <ele>1111.6</ele>
        <time>2026-05-13T07:36:43Z</time>
      </trkpt>
      <trkpt lat="46.66079" lon="6.13775">
        <ele>1111.6</ele>
        <time>2026-05-13T07:36:44Z</time>
      </trkpt>
      <trkpt lat="46.66112" lon="6.1378">
        <ele>1111</ele>
        <time>2026-05-13T07:36:48Z</time>
      </trkpt>
      <trkpt lat="46.66136" lon="6.13789">
        <ele>1110.4</ele>
        <time>2026-05-13T07:36:51Z</time>
      </trkpt>
      <trkpt lat="46.66169" lon="6.13806">
        <ele>1109.8</ele>
        <time>2026-05-13T07:36:55Z</time>
      </trkpt>
      <trkpt lat="46.66177" lon="6.13811">
        <ele>1109.6</ele>
        <time>2026-05-13T07:36:56Z</time>
      </trkpt>
      <trkpt lat="46.66233" lon="6.13844">
        <ele>1108.6</ele>
        <time>2026-05-13T07:37:03Z</time>
      </trkpt>
      <trkpt lat="46.66242" lon="6.13848">
        <ele>1108.6</ele>
        <time>2026-05-13T07:37:04Z</time>
      </trkpt>
      <trkpt lat="46.663" lon="6.13877">
        <ele>1107.4</ele>
        <time>2026-05-13T07:37:11Z</time>
      </trkpt>
      <trkpt lat="46.66332" lon="6.13896">
        <ele>1107</ele>
        <time>2026-05-13T07:37:15Z</time>
      </trkpt>
      <trkpt lat="46.66364" lon="6.13915">
        <ele>1106.4</ele>
        <time>2026-05-13T07:37:19Z</time>
      </trkpt>
      <trkpt lat="46.66407" lon="6.1394">
        <ele>1105.2</ele>
        <time>2026-05-13T07:37:24Z</time>
      </trkpt>
      <trkpt lat="46.66423" lon="6.1395">
        <ele>1104.8</ele>
        <time>2026-05-13T07:37:26Z</time>
      </trkpt>
      <trkpt lat="46.66456" lon="6.13969">
        <ele>1104.2</ele>
        <time>2026-05-13T07:37:30Z</time>
      </trkpt>
      <trkpt lat="46.66497" lon="6.1399">
        <ele>1103.4</ele>
        <time>2026-05-13T07:37:35Z</time>
      </trkpt>
      <trkpt lat="46.66524" lon="6.13995">
        <ele>1103</ele>
        <time>2026-05-13T07:37:38Z</time>
      </trkpt>
      <trkpt lat="46.66542" lon="6.13997">
        <ele>1102.8</ele>
        <time>2026-05-13T07:37:40Z</time>
      </trkpt>
      <trkpt lat="46.66579" lon="6.13999">
        <ele>1101.8</ele>
        <time>2026-05-13T07:37:44Z</time>
      </trkpt>
      <trkpt lat="46.66598" lon="6.14001">
        <ele>1101.2</ele>
        <time>2026-05-13T07:37:46Z</time>
      </trkpt>
      <trkpt lat="46.66617" lon="6.14003">
        <ele>1100.6</ele>
        <time>2026-05-13T07:37:48Z</time>
      </trkpt>
      <trkpt lat="46.66646" lon="6.14005">
        <ele>1099.4</ele>
        <time>2026-05-13T07:37:51Z</time>
      </trkpt>
      <trkpt lat="46.66666" lon="6.14007">
        <ele>1098.8</ele>
        <time>2026-05-13T07:37:53Z</time>
      </trkpt>
      <trkpt lat="46.66676" lon="6.14008">
        <ele>1098.4</ele>
        <time>2026-05-13T07:37:54Z</time>
      </trkpt>
      <trkpt lat="46.66714" lon="6.14013">
        <ele>1097</ele>
        <time>2026-05-13T07:37:58Z</time>
      </trkpt>
      <trkpt lat="46.66723" lon="6.14016">
        <ele>1096.6</ele>
        <time>2026-05-13T07:37:59Z</time>
      </trkpt>
      <trkpt lat="46.66743" lon="6.14022">
        <ele>1096</ele>
        <time>2026-05-13T07:38:01Z</time>
      </trkpt>
      <trkpt lat="46.6678" lon="6.14036">
        <ele>1094.8</ele>
        <time>2026-05-13T07:38:05Z</time>
      </trkpt>
      <trkpt lat="46.66789" lon="6.1404">
        <ele>1094.4</ele>
        <time>2026-05-13T07:38:06Z</time>
      </trkpt>
      <trkpt lat="46.66807" lon="6.14045">
        <ele>1093.2</ele>
        <time>2026-05-13T07:38:08Z</time>
      </trkpt>
      <trkpt lat="46.66826" lon="6.14043">
        <ele>1092.2</ele>
        <time>2026-05-13T07:38:10Z</time>
      </trkpt>
      <trkpt lat="46.66835" lon="6.14043">
        <ele>1091.8</ele>
        <time>2026-05-13T07:38:11Z</time>
      </trkpt>
      <trkpt lat="46.66852" lon="6.14052">
        <ele>1091</ele>
        <time>2026-05-13T07:38:13Z</time>
      </trkpt>
      <trkpt lat="46.66861" lon="6.14076">
        <ele>1090.2</ele>
        <time>2026-05-13T07:38:15Z</time>
      </trkpt>
      <trkpt lat="46.6686" lon="6.14089">
        <ele>1089.4</ele>
        <time>2026-05-13T07:38:16Z</time>
      </trkpt>
      <trkpt lat="46.66859" lon="6.14103">
        <ele>1089.2</ele>
        <time>2026-05-13T07:38:17Z</time>
      </trkpt>
      <trkpt lat="46.66856" lon="6.14117">
        <ele>1088.4</ele>
        <time>2026-05-13T07:38:18Z</time>
      </trkpt>
      <trkpt lat="46.66851" lon="6.14144">
        <ele>1087.6</ele>
        <time>2026-05-13T07:38:20Z</time>
      </trkpt>
      <trkpt lat="46.6685" lon="6.14157">
        <ele>1086.6</ele>
        <time>2026-05-13T07:38:21Z</time>
      </trkpt>
      <trkpt lat="46.66852" lon="6.14171">
        <ele>1086.2</ele>
        <time>2026-05-13T07:38:22Z</time>
      </trkpt>
      <trkpt lat="46.66855" lon="6.14185">
        <ele>1085.6</ele>
        <time>2026-05-13T07:38:23Z</time>
      </trkpt>
      <trkpt lat="46.66865" lon="6.14206">
        <ele>1084.8</ele>
        <time>2026-05-13T07:38:25Z</time>
      </trkpt>
      <trkpt lat="46.66872" lon="6.1421">
        <ele>1083.8</ele>
        <time>2026-05-13T07:38:26Z</time>
      </trkpt>
      <trkpt lat="46.66889" lon="6.14215">
        <ele>1082.8</ele>
        <time>2026-05-13T07:38:28Z</time>
      </trkpt>
      <trkpt lat="46.66911" lon="6.14219">
        <ele>1081.6</ele>
        <time>2026-05-13T07:38:30Z</time>
      </trkpt>
      <trkpt lat="46.66943" lon="6.14226">
        <ele>1080.2</ele>
        <time>2026-05-13T07:38:33Z</time>
      </trkpt>
      <trkpt lat="46.66963" lon="6.14236">
        <ele>1079.4</ele>
        <time>2026-05-13T07:38:35Z</time>
      </trkpt>
      <trkpt lat="46.66971" lon="6.14241">
        <ele>1079</ele>
        <time>2026-05-13T07:38:36Z</time>
      </trkpt>
      <trkpt lat="46.66982" lon="6.1425">
        <ele>1078.6</ele>
        <time>2026-05-13T07:38:37Z</time>
      </trkpt>
      <trkpt lat="46.66992" lon="6.14257">
        <ele>1078.2</ele>
        <time>2026-05-13T07:38:38Z</time>
      </trkpt>
      <trkpt lat="46.67004" lon="6.14262">
        <ele>1077.4</ele>
        <time>2026-05-13T07:38:39Z</time>
      </trkpt>
      <trkpt lat="46.67015" lon="6.14264">
        <ele>1077</ele>
        <time>2026-05-13T07:38:40Z</time>
      </trkpt>
      <trkpt lat="46.67026" lon="6.14265">
        <ele>1076</ele>
        <time>2026-05-13T07:38:41Z</time>
      </trkpt>
      <trkpt lat="46.67037" lon="6.14265">
        <ele>1075.6</ele>
        <time>2026-05-13T07:38:42Z</time>
      </trkpt>
      <trkpt lat="46.67048" lon="6.14263">
        <ele>1074.8</ele>
        <time>2026-05-13T07:38:43Z</time>
      </trkpt>
      <trkpt lat="46.67059" lon="6.14261">
        <ele>1074.4</ele>
        <time>2026-05-13T07:38:44Z</time>
      </trkpt>
      <trkpt lat="46.67069" lon="6.1426">
        <ele>1073.6</ele>
        <time>2026-05-13T07:38:45Z</time>
      </trkpt>
      <trkpt lat="46.67088" lon="6.14254">
        <ele>1072.4</ele>
        <time>2026-05-13T07:38:47Z</time>
      </trkpt>
      <trkpt lat="46.671" lon="6.14248">
        <ele>1071.8</ele>
        <time>2026-05-13T07:38:48Z</time>
      </trkpt>
      <trkpt lat="46.67108" lon="6.14245">
        <ele>1071.2</ele>
        <time>2026-05-13T07:38:49Z</time>
      </trkpt>
      <trkpt lat="46.67129" lon="6.14235">
        <ele>1069.4</ele>
        <time>2026-05-13T07:38:51Z</time>
      </trkpt>
      <trkpt lat="46.67139" lon="6.1423">
        <ele>1069</ele>
        <time>2026-05-13T07:38:52Z</time>
      </trkpt>
      <trkpt lat="46.6716" lon="6.14216">
        <ele>1068.2</ele>
        <time>2026-05-13T07:38:54Z</time>
      </trkpt>
      <trkpt lat="46.67177" lon="6.14203">
        <ele>1066.6</ele>
        <time>2026-05-13T07:38:56Z</time>
      </trkpt>
      <trkpt lat="46.67198" lon="6.14192">
        <ele>1065.6</ele>
        <time>2026-05-13T07:38:58Z</time>
      </trkpt>
      <trkpt lat="46.6721" lon="6.14187">
        <ele>1065.2</ele>
        <time>2026-05-13T07:38:59Z</time>
      </trkpt>
      <trkpt lat="46.6722" lon="6.14184">
        <ele>1064.4</ele>
        <time>2026-05-13T07:39:00Z</time>
      </trkpt>
      <trkpt lat="46.67238" lon="6.14176">
        <ele>1063.2</ele>
        <time>2026-05-13T07:39:02Z</time>
      </trkpt>
      <trkpt lat="46.67261" lon="6.14163">
        <ele>1061.8</ele>
        <time>2026-05-13T07:39:04Z</time>
      </trkpt>
      <trkpt lat="46.67271" lon="6.14156">
        <ele>1060.8</ele>
        <time>2026-05-13T07:39:05Z</time>
      </trkpt>
      <trkpt lat="46.67281" lon="6.1415">
        <ele>1060</ele>
        <time>2026-05-13T07:39:06Z</time>
      </trkpt>
      <trkpt lat="46.67292" lon="6.14145">
        <ele>1059.8</ele>
        <time>2026-05-13T07:39:07Z</time>
      </trkpt>
      <trkpt lat="46.67303" lon="6.14141">
        <ele>1059</ele>
        <time>2026-05-13T07:39:08Z</time>
      </trkpt>
      <trkpt lat="46.67314" lon="6.14138">
        <ele>1058.6</ele>
        <time>2026-05-13T07:39:09Z</time>
      </trkpt>
      <trkpt lat="46.67325" lon="6.14138">
        <ele>1057.8</ele>
        <time>2026-05-13T07:39:10Z</time>
      </trkpt>
      <trkpt lat="46.67336" lon="6.14141">
        <ele>1057</ele>
        <time>2026-05-13T07:39:11Z</time>
      </trkpt>
      <trkpt lat="46.67347" lon="6.14144">
        <ele>1056.6</ele>
        <time>2026-05-13T07:39:12Z</time>
      </trkpt>
      <trkpt lat="46.67369" lon="6.14151">
        <ele>1055</ele>
        <time>2026-05-13T07:39:14Z</time>
      </trkpt>
      <trkpt lat="46.67391" lon="6.14158">
        <ele>1053.4</ele>
        <time>2026-05-13T07:39:16Z</time>
      </trkpt>
      <trkpt lat="46.67413" lon="6.14165">
        <ele>1052.2</ele>
        <time>2026-05-13T07:39:18Z</time>
      </trkpt>
      <trkpt lat="46.67424" lon="6.14168">
        <ele>1051.6</ele>
        <time>2026-05-13T07:39:19Z</time>
      </trkpt>
      <trkpt lat="46.67435" lon="6.14171">
        <ele>1050.8</ele>
        <time>2026-05-13T07:39:20Z</time>
      </trkpt>
      <trkpt lat="46.67455" lon="6.14177">
        <ele>1049.6</ele>
        <time>2026-05-13T07:39:22Z</time>
      </trkpt>
      <trkpt lat="46.6749" lon="6.14187">
        <ele>1047.8</ele>
        <time>2026-05-13T07:39:25Z</time>
      </trkpt>
      <trkpt lat="46.67512" lon="6.14192">
        <ele>1046.8</ele>
        <time>2026-05-13T07:39:27Z</time>
      </trkpt>
      <trkpt lat="46.67531" lon="6.14189">
        <ele>1045.6</ele>
        <time>2026-05-13T07:39:29Z</time>
      </trkpt>
      <trkpt lat="46.67548" lon="6.1417">
        <ele>1044</ele>
        <time>2026-05-13T07:39:31Z</time>
      </trkpt>
      <trkpt lat="46.67556" lon="6.14147">
        <ele>1042.8</ele>
        <time>2026-05-13T07:39:33Z</time>
      </trkpt>
      <trkpt lat="46.67556" lon="6.14132">
        <ele>1042.4</ele>
        <time>2026-05-13T07:39:34Z</time>
      </trkpt>
      <trkpt lat="46.67554" lon="6.14116">
        <ele>1041.8</ele>
        <time>2026-05-13T07:39:35Z</time>
      </trkpt>
      <trkpt lat="46.6755" lon="6.14105">
        <ele>1040.8</ele>
        <time>2026-05-13T07:39:36Z</time>
      </trkpt>
      <trkpt lat="46.67544" lon="6.14093">
        <ele>1040.4</ele>
        <time>2026-05-13T07:39:37Z</time>
      </trkpt>
      <trkpt lat="46.67535" lon="6.14082">
        <ele>1039.6</ele>
        <time>2026-05-13T07:39:38Z</time>
      </trkpt>
      <trkpt lat="46.67526" lon="6.14077">
        <ele>1039.2</ele>
        <time>2026-05-13T07:39:39Z</time>
      </trkpt>
      <trkpt lat="46.67516" lon="6.14074">
        <ele>1038.4</ele>
        <time>2026-05-13T07:39:40Z</time>
      </trkpt>
      <trkpt lat="46.67507" lon="6.14074">
        <ele>1037.6</ele>
        <time>2026-05-13T07:39:41Z</time>
      </trkpt>
      <trkpt lat="46.67498" lon="6.14075">
        <ele>1037</ele>
        <time>2026-05-13T07:39:42Z</time>
      </trkpt>
      <trkpt lat="46.67486" lon="6.14076">
        <ele>1035.8</ele>
        <time>2026-05-13T07:39:43Z</time>
      </trkpt>
      <trkpt lat="46.67476" lon="6.14076">
        <ele>1035.2</ele>
        <time>2026-05-13T07:39:44Z</time>
      </trkpt>
      <trkpt lat="46.67467" lon="6.14075">
        <ele>1034.2</ele>
        <time>2026-05-13T07:39:45Z</time>
      </trkpt>
      <trkpt lat="46.67448" lon="6.14067">
        <ele>1033.2</ele>
        <time>2026-05-13T07:39:47Z</time>
      </trkpt>
      <trkpt lat="46.67433" lon="6.1405">
        <ele>1032.4</ele>
        <time>2026-05-13T07:39:49Z</time>
      </trkpt>
      <trkpt lat="46.67426" lon="6.14039">
        <ele>1031.4</ele>
        <time>2026-05-13T07:39:50Z</time>
      </trkpt>
      <trkpt lat="46.67412" lon="6.14018">
        <ele>1030.2</ele>
        <time>2026-05-13T07:39:52Z</time>
      </trkpt>
      <trkpt lat="46.6739" lon="6.13988">
        <ele>1028.6</ele>
        <time>2026-05-13T07:39:55Z</time>
      </trkpt>
      <trkpt lat="46.67368" lon="6.13955">
        <ele>1026.6</ele>
        <time>2026-05-13T07:39:58Z</time>
      </trkpt>
      <trkpt lat="46.67353" lon="6.13934">
        <ele>1025.4</ele>
        <time>2026-05-13T07:40:00Z</time>
      </trkpt>
      <trkpt lat="46.6734" lon="6.13914">
        <ele>1023.8</ele>
        <time>2026-05-13T07:40:02Z</time>
      </trkpt>
      <trkpt lat="46.67335" lon="6.139">
        <ele>1022.8</ele>
        <time>2026-05-13T07:40:03Z</time>
      </trkpt>
      <trkpt lat="46.67332" lon="6.13889">
        <ele>1022.4</ele>
        <time>2026-05-13T07:40:04Z</time>
      </trkpt>
      <trkpt lat="46.67331" lon="6.13876">
        <ele>1021.6</ele>
        <time>2026-05-13T07:40:05Z</time>
      </trkpt>
      <trkpt lat="46.6733" lon="6.13863">
        <ele>1021.2</ele>
        <time>2026-05-13T07:40:06Z</time>
      </trkpt>
      <trkpt lat="46.67332" lon="6.1385">
        <ele>1020.4</ele>
        <time>2026-05-13T07:40:07Z</time>
      </trkpt>
      <trkpt lat="46.67335" lon="6.13834">
        <ele>1019.8</ele>
        <time>2026-05-13T07:40:08Z</time>
      </trkpt>
      <trkpt lat="46.67339" lon="6.13822">
        <ele>1019.4</ele>
        <time>2026-05-13T07:40:09Z</time>
      </trkpt>
      <trkpt lat="46.67345" lon="6.13812">
        <ele>1018.6</ele>
        <time>2026-05-13T07:40:10Z</time>
      </trkpt>
      <trkpt lat="46.6735" lon="6.13805">
        <ele>1018.4</ele>
        <time>2026-05-13T07:40:11Z</time>
      </trkpt>
      <trkpt lat="46.67358" lon="6.13798">
        <ele>1017.6</ele>
        <time>2026-05-13T07:40:12Z</time>
      </trkpt>
      <trkpt lat="46.67369" lon="6.13791">
        <ele>1016.6</ele>
        <time>2026-05-13T07:40:13Z</time>
      </trkpt>
      <trkpt lat="46.67387" lon="6.13782">
        <ele>1015.6</ele>
        <time>2026-05-13T07:40:15Z</time>
      </trkpt>
      <trkpt lat="46.67404" lon="6.13773">
        <ele>1014.6</ele>
        <time>2026-05-13T07:40:17Z</time>
      </trkpt>
      <trkpt lat="46.67414" lon="6.13769">
        <ele>1013.8</ele>
        <time>2026-05-13T07:40:18Z</time>
      </trkpt>
      <trkpt lat="46.67434" lon="6.13762">
        <ele>1012.6</ele>
        <time>2026-05-13T07:40:20Z</time>
      </trkpt>
      <trkpt lat="46.6745" lon="6.13757">
        <ele>1011.4</ele>
        <time>2026-05-13T07:40:22Z</time>
      </trkpt>
      <trkpt lat="46.6746" lon="6.13754">
        <ele>1010.8</ele>
        <time>2026-05-13T07:40:23Z</time>
      </trkpt>
      <trkpt lat="46.67481" lon="6.13747">
        <ele>1010</ele>
        <time>2026-05-13T07:40:25Z</time>
      </trkpt>
      <trkpt lat="46.67499" lon="6.13747">
        <ele>1009.4</ele>
        <time>2026-05-13T07:40:27Z</time>
      </trkpt>
      <trkpt lat="46.67508" lon="6.13749">
        <ele>1008.8</ele>
        <time>2026-05-13T07:40:28Z</time>
      </trkpt>
      <trkpt lat="46.67517" lon="6.13754">
        <ele>1008.6</ele>
        <time>2026-05-13T07:40:29Z</time>
      </trkpt>
      <trkpt lat="46.67542" lon="6.13774">
        <ele>1007.8</ele>
        <time>2026-05-13T07:40:32Z</time>
      </trkpt>
      <trkpt lat="46.67551" lon="6.13781">
        <ele>1007.4</ele>
        <time>2026-05-13T07:40:33Z</time>
      </trkpt>
      <trkpt lat="46.67586" lon="6.13811">
        <ele>1006.2</ele>
        <time>2026-05-13T07:40:37Z</time>
      </trkpt>
      <trkpt lat="46.67603" lon="6.13823">
        <ele>1005.4</ele>
        <time>2026-05-13T07:40:39Z</time>
      </trkpt>
      <trkpt lat="46.67613" lon="6.13828">
        <ele>1005</ele>
        <time>2026-05-13T07:40:40Z</time>
      </trkpt>
      <trkpt lat="46.67637" lon="6.13834">
        <ele>1004</ele>
        <time>2026-05-13T07:40:43Z</time>
      </trkpt>
      <trkpt lat="46.67646" lon="6.13835">
        <ele>1004</ele>
        <time>2026-05-13T07:40:44Z</time>
      </trkpt>
      <trkpt lat="46.67663" lon="6.13833">
        <ele>1003.6</ele>
        <time>2026-05-13T07:40:46Z</time>
      </trkpt>
      <trkpt lat="46.67672" lon="6.13829">
        <ele>1003.4</ele>
        <time>2026-05-13T07:40:47Z</time>
      </trkpt>
      <trkpt lat="46.67681" lon="6.13825">
        <ele>1003.2</ele>
        <time>2026-05-13T07:40:48Z</time>
      </trkpt>
      <trkpt lat="46.67696" lon="6.1381">
        <ele>1002.8</ele>
        <time>2026-05-13T07:40:50Z</time>
      </trkpt>
      <trkpt lat="46.67702" lon="6.13802">
        <ele>1002.6</ele>
        <time>2026-05-13T07:40:51Z</time>
      </trkpt>
      <trkpt lat="46.67727" lon="6.13764">
        <ele>1001.8</ele>
        <time>2026-05-13T07:40:55Z</time>
      </trkpt>
      <trkpt lat="46.67734" lon="6.13755">
        <ele>1001.8</ele>
        <time>2026-05-13T07:40:56Z</time>
      </trkpt>
      <trkpt lat="46.67756" lon="6.13714">
        <ele>1000.8</ele>
        <time>2026-05-13T07:41:00Z</time>
      </trkpt>
      <trkpt lat="46.67763" lon="6.13702">
        <ele>1000.6</ele>
        <time>2026-05-13T07:41:01Z</time>
      </trkpt>
      <trkpt lat="46.67774" lon="6.13684">
        <ele>1000.4</ele>
        <time>2026-05-13T07:41:03Z</time>
      </trkpt>
      <trkpt lat="46.67783" lon="6.13662">
        <ele>1000</ele>
        <time>2026-05-13T07:41:05Z</time>
      </trkpt>
      <trkpt lat="46.67792" lon="6.1364">
        <ele>999.6</ele>
        <time>2026-05-13T07:41:07Z</time>
      </trkpt>
      <trkpt lat="46.67812" lon="6.13586">
        <ele>999</ele>
        <time>2026-05-13T07:41:12Z</time>
      </trkpt>
      <trkpt lat="46.67816" lon="6.13576">
        <ele>999</ele>
        <time>2026-05-13T07:41:13Z</time>
      </trkpt>
      <trkpt lat="46.67833" lon="6.1354">
        <ele>998.6</ele>
        <time>2026-05-13T07:41:17Z</time>
      </trkpt>
      <trkpt lat="46.6786" lon="6.13484">
        <ele>997.8</ele>
        <time>2026-05-13T07:41:23Z</time>
      </trkpt>
      <trkpt lat="46.67869" lon="6.13466">
        <ele>997.4</ele>
        <time>2026-05-13T07:41:25Z</time>
      </trkpt>
      <trkpt lat="46.67889" lon="6.13419">
        <ele>996.2</ele>
        <time>2026-05-13T07:41:30Z</time>
      </trkpt>
      <trkpt lat="46.67894" lon="6.13407">
        <ele>996</ele>
        <time>2026-05-13T07:41:31Z</time>
      </trkpt>
      <trkpt lat="46.67912" lon="6.1337">
        <ele>995</ele>
        <time>2026-05-13T07:41:35Z</time>
      </trkpt>
      <trkpt lat="46.67926" lon="6.13345">
        <ele>994.6</ele>
        <time>2026-05-13T07:41:38Z</time>
      </trkpt>
      <trkpt lat="46.67952" lon="6.13318">
        <ele>994.2</ele>
        <time>2026-05-13T07:41:43Z</time>
      </trkpt>
      <trkpt lat="46.67959" lon="6.13315">
        <ele>994</ele>
        <time>2026-05-13T07:41:45Z</time>
      </trkpt>
      <trkpt lat="46.67961" lon="6.13316">
        <ele>994.2</ele>
        <time>2026-05-13T07:41:46Z</time>
      </trkpt>
      <trkpt lat="46.67962" lon="6.13317">
        <ele>994.2</ele>
        <time>2026-05-13T07:41:47Z</time>
      </trkpt>
      <trkpt lat="46.67965" lon="6.13324">
        <ele>994.2</ele>
        <time>2026-05-13T07:41:50Z</time>
      </trkpt>
      <trkpt lat="46.67975" lon="6.13341">
        <ele>994.2</ele>
        <time>2026-05-13T07:41:57Z</time>
      </trkpt>
      <trkpt lat="46.6799" lon="6.13358">
        <ele>994.6</ele>
        <time>2026-05-13T07:42:03Z</time>
      </trkpt>
      <trkpt lat="46.68002" lon="6.13373">
        <ele>995.2</ele>
        <time>2026-05-13T07:42:08Z</time>
      </trkpt>
      <trkpt lat="46.68008" lon="6.1338">
        <ele>995.6</ele>
        <time>2026-05-13T07:42:10Z</time>
      </trkpt>
      <trkpt lat="46.68023" lon="6.13396">
        <ele>996.4</ele>
        <time>2026-05-13T07:42:15Z</time>
      </trkpt>
      <trkpt lat="46.68027" lon="6.134">
        <ele>996.4</ele>
        <time>2026-05-13T07:42:16Z</time>
      </trkpt>
      <trkpt lat="46.68031" lon="6.13403">
        <ele>996.6</ele>
        <time>2026-05-13T07:42:17Z</time>
      </trkpt>
      <trkpt lat="46.68051" lon="6.13419">
        <ele>997.2</ele>
        <time>2026-05-13T07:42:22Z</time>
      </trkpt>
      <trkpt lat="46.68071" lon="6.13433">
        <ele>997.2</ele>
        <time>2026-05-13T07:42:26Z</time>
      </trkpt>
      <trkpt lat="46.68081" lon="6.13439">
        <ele>997.2</ele>
        <time>2026-05-13T07:42:28Z</time>
      </trkpt>
      <trkpt lat="46.68124" lon="6.13446">
        <ele>996</ele>
        <time>2026-05-13T07:42:35Z</time>
      </trkpt>
      <trkpt lat="46.6816" lon="6.13454">
        <ele>995.6</ele>
        <time>2026-05-13T07:42:41Z</time>
      </trkpt>
      <trkpt lat="46.68166" lon="6.13454">
        <ele>995.6</ele>
        <time>2026-05-13T07:42:42Z</time>
      </trkpt>
      <trkpt lat="46.68173" lon="6.13453">
        <ele>995.4</ele>
        <time>2026-05-13T07:42:43Z</time>
      </trkpt>
      <trkpt lat="46.68201" lon="6.13444">
        <ele>995.2</ele>
        <time>2026-05-13T07:42:47Z</time>
      </trkpt>
      <trkpt lat="46.68242" lon="6.13449">
        <ele>994.8</ele>
        <time>2026-05-13T07:42:53Z</time>
      </trkpt>
      <trkpt lat="46.68281" lon="6.1346">
        <ele>994.8</ele>
        <time>2026-05-13T07:42:59Z</time>
      </trkpt>
      <trkpt lat="46.68294" lon="6.13468">
        <ele>994.8</ele>
        <time>2026-05-13T07:43:01Z</time>
      </trkpt>
      <trkpt lat="46.68311" lon="6.13482">
        <ele>994.6</ele>
        <time>2026-05-13T07:43:04Z</time>
      </trkpt>
      <trkpt lat="46.68361" lon="6.13526">
        <ele>994.6</ele>
        <time>2026-05-13T07:43:13Z</time>
      </trkpt>
      <trkpt lat="46.68365" lon="6.1353">
        <ele>994.6</ele>
        <time>2026-05-13T07:43:14Z</time>
      </trkpt>
      <trkpt lat="46.68396" lon="6.13561">
        <ele>995.2</ele>
        <time>2026-05-13T07:43:20Z</time>
      </trkpt>
      <trkpt lat="46.68424" lon="6.13599">
        <ele>996</ele>
        <time>2026-05-13T07:43:27Z</time>
      </trkpt>
      <trkpt lat="46.68431" lon="6.13609">
        <ele>996.6</ele>
        <time>2026-05-13T07:43:29Z</time>
      </trkpt>
      <trkpt lat="46.68448" lon="6.13636">
        <ele>997.6</ele>
        <time>2026-05-13T07:43:34Z</time>
      </trkpt>
      <trkpt lat="46.68457" lon="6.13653">
        <ele>998.6</ele>
        <time>2026-05-13T07:43:37Z</time>
      </trkpt>
      <trkpt lat="46.6846" lon="6.13659">
        <ele>998.8</ele>
        <time>2026-05-13T07:43:38Z</time>
      </trkpt>
      <trkpt lat="46.68473" lon="6.13693">
        <ele>999.8</ele>
        <time>2026-05-13T07:43:44Z</time>
      </trkpt>
      <trkpt lat="46.68475" lon="6.13699">
        <ele>1000</ele>
        <time>2026-05-13T07:43:45Z</time>
      </trkpt>
      <trkpt lat="46.68481" lon="6.13708">
        <ele>1000.4</ele>
        <time>2026-05-13T07:43:47Z</time>
      </trkpt>
      <trkpt lat="46.68485" lon="6.1371">
        <ele>1000.6</ele>
        <time>2026-05-13T07:43:48Z</time>
      </trkpt>
      <trkpt lat="46.68489" lon="6.1371">
        <ele>1000.8</ele>
        <time>2026-05-13T07:43:49Z</time>
      </trkpt>
      <trkpt lat="46.68496" lon="6.13705">
        <ele>1001.2</ele>
        <time>2026-05-13T07:43:51Z</time>
      </trkpt>
      <trkpt lat="46.68505" lon="6.13697">
        <ele>1002</ele>
        <time>2026-05-13T07:43:54Z</time>
      </trkpt>
      <trkpt lat="46.6851" lon="6.13695">
        <ele>1002.8</ele>
        <time>2026-05-13T07:43:56Z</time>
      </trkpt>
      <trkpt lat="46.68516" lon="6.13694">
        <ele>1003</ele>
        <time>2026-05-13T07:43:58Z</time>
      </trkpt>
      <trkpt lat="46.68527" lon="6.13694">
        <ele>1004</ele>
        <time>2026-05-13T07:44:02Z</time>
      </trkpt>
      <trkpt lat="46.6853" lon="6.13695">
        <ele>1004.2</ele>
        <time>2026-05-13T07:44:03Z</time>
      </trkpt>
      <trkpt lat="46.68545" lon="6.13705">
        <ele>1005.4</ele>
        <time>2026-05-13T07:44:09Z</time>
      </trkpt>
      <trkpt lat="46.68553" lon="6.13716">
        <ele>1006.4</ele>
        <time>2026-05-13T07:44:13Z</time>
      </trkpt>
      <trkpt lat="46.68559" lon="6.13729">
        <ele>1007.4</ele>
        <time>2026-05-13T07:44:17Z</time>
      </trkpt>
      <trkpt lat="46.68569" lon="6.1375">
        <ele>1008.6</ele>
        <time>2026-05-13T07:44:23Z</time>
      </trkpt>
      <trkpt lat="46.6857" lon="6.13754">
        <ele>1008.8</ele>
        <time>2026-05-13T07:44:24Z</time>
      </trkpt>
      <trkpt lat="46.68574" lon="6.13763">
        <ele>1009.4</ele>
        <time>2026-05-13T07:44:27Z</time>
      </trkpt>
      <trkpt lat="46.68577" lon="6.13771">
        <ele>1009.8</ele>
        <time>2026-05-13T07:44:29Z</time>
      </trkpt>
      <trkpt lat="46.68583" lon="6.13785">
        <ele>1010.8</ele>
        <time>2026-05-13T07:44:33Z</time>
      </trkpt>
      <trkpt lat="46.68588" lon="6.13796">
        <ele>1011.6</ele>
        <time>2026-05-13T07:44:36Z</time>
      </trkpt>
      <trkpt lat="46.68592" lon="6.13807">
        <ele>1012</ele>
        <time>2026-05-13T07:44:39Z</time>
      </trkpt>
      <trkpt lat="46.68601" lon="6.13832">
        <ele>1013.2</ele>
        <time>2026-05-13T07:44:46Z</time>
      </trkpt>
      <trkpt lat="46.68603" lon="6.13835">
        <ele>1013.4</ele>
        <time>2026-05-13T07:44:47Z</time>
      </trkpt>
      <trkpt lat="46.68613" lon="6.13859">
        <ele>1014.2</ele>
        <time>2026-05-13T07:44:53Z</time>
      </trkpt>
      <trkpt lat="46.68623" lon="6.13879">
        <ele>1015</ele>
        <time>2026-05-13T07:44:59Z</time>
      </trkpt>
      <trkpt lat="46.68626" lon="6.13886">
        <ele>1015.2</ele>
        <time>2026-05-13T07:45:01Z</time>
      </trkpt>
      <trkpt lat="46.6864" lon="6.13914">
        <ele>1016.2</ele>
        <time>2026-05-13T07:45:09Z</time>
      </trkpt>
      <trkpt lat="46.68642" lon="6.13918">
        <ele>1016.4</ele>
        <time>2026-05-13T07:45:10Z</time>
      </trkpt>
      <trkpt lat="46.6865" lon="6.13932">
        <ele>1016.8</ele>
        <time>2026-05-13T07:45:14Z</time>
      </trkpt>
      <trkpt lat="46.68658" lon="6.13946">
        <ele>1017.4</ele>
        <time>2026-05-13T07:45:18Z</time>
      </trkpt>
      <trkpt lat="46.68659" lon="6.1395">
        <ele>1017.6</ele>
        <time>2026-05-13T07:45:19Z</time>
      </trkpt>
      <trkpt lat="46.68675" lon="6.13979">
        <ele>1018.6</ele>
        <time>2026-05-13T07:45:27Z</time>
      </trkpt>
      <trkpt lat="46.68676" lon="6.13982">
        <ele>1018.6</ele>
        <time>2026-05-13T07:45:28Z</time>
      </trkpt>
      <trkpt lat="46.68692" lon="6.14014">
        <ele>1019.6</ele>
        <time>2026-05-13T07:45:37Z</time>
      </trkpt>
      <trkpt lat="46.68693" lon="6.14017">
        <ele>1020</ele>
        <time>2026-05-13T07:45:38Z</time>
      </trkpt>
      <trkpt lat="46.68704" lon="6.14037">
        <ele>1020.8</ele>
        <time>2026-05-13T07:45:44Z</time>
      </trkpt>
      <trkpt lat="46.68711" lon="6.14052">
        <ele>1021.4</ele>
        <time>2026-05-13T07:45:48Z</time>
      </trkpt>
      <trkpt lat="46.6872" lon="6.1407">
        <ele>1021.8</ele>
        <time>2026-05-13T07:45:53Z</time>
      </trkpt>
      <trkpt lat="46.6873" lon="6.14087">
        <ele>1022.6</ele>
        <time>2026-05-13T07:45:58Z</time>
      </trkpt>
      <trkpt lat="46.68737" lon="6.14093">
        <ele>1023.4</ele>
        <time>2026-05-13T07:46:01Z</time>
      </trkpt>
      <trkpt lat="46.68748" lon="6.14097">
        <ele>1024.2</ele>
        <time>2026-05-13T07:46:05Z</time>
      </trkpt>
      <trkpt lat="46.68752" lon="6.14097">
        <ele>1024.6</ele>
        <time>2026-05-13T07:46:06Z</time>
      </trkpt>
      <trkpt lat="46.68766" lon="6.1409">
        <ele>1025.4</ele>
        <time>2026-05-13T07:46:11Z</time>
      </trkpt>
      <trkpt lat="46.68768" lon="6.14086">
        <ele>1025.6</ele>
        <time>2026-05-13T07:46:12Z</time>
      </trkpt>
      <trkpt lat="46.68777" lon="6.14068">
        <ele>1027</ele>
        <time>2026-05-13T07:46:17Z</time>
      </trkpt>
      <trkpt lat="46.68779" lon="6.14059">
        <ele>1027.6</ele>
        <time>2026-05-13T07:46:19Z</time>
      </trkpt>
      <trkpt lat="46.68783" lon="6.14047">
        <ele>1028.2</ele>
        <time>2026-05-13T07:46:22Z</time>
      </trkpt>
      <trkpt lat="46.68787" lon="6.14032">
        <ele>1028.6</ele>
        <time>2026-05-13T07:46:26Z</time>
      </trkpt>
      <trkpt lat="46.68796" lon="6.14016">
        <ele>1029.2</ele>
        <time>2026-05-13T07:46:31Z</time>
      </trkpt>
      <trkpt lat="46.68798" lon="6.14013">
        <ele>1029.4</ele>
        <time>2026-05-13T07:46:32Z</time>
      </trkpt>
      <trkpt lat="46.68818" lon="6.13996">
        <ele>1030.4</ele>
        <time>2026-05-13T07:46:40Z</time>
      </trkpt>
      <trkpt lat="46.68821" lon="6.13995">
        <ele>1030.4</ele>
        <time>2026-05-13T07:46:41Z</time>
      </trkpt>
      <trkpt lat="46.68841" lon="6.13991">
        <ele>1031.4</ele>
        <time>2026-05-13T07:46:47Z</time>
      </trkpt>
      <trkpt lat="46.6886" lon="6.13992">
        <ele>1032</ele>
        <time>2026-05-13T07:46:53Z</time>
      </trkpt>
      <trkpt lat="46.68882" lon="6.13995">
        <ele>1032</ele>
        <time>2026-05-13T07:46:59Z</time>
      </trkpt>
      <trkpt lat="46.68916" lon="6.13992">
        <ele>1032</ele>
        <time>2026-05-13T07:47:07Z</time>
      </trkpt>
      <trkpt lat="46.68945" lon="6.13981">
        <ele>1032</ele>
        <time>2026-05-13T07:47:14Z</time>
      </trkpt>
      <trkpt lat="46.68954" lon="6.13976">
        <ele>1032</ele>
        <time>2026-05-13T07:47:16Z</time>
      </trkpt>
      <trkpt lat="46.68985" lon="6.13954">
        <ele>1032</ele>
        <time>2026-05-13T07:47:23Z</time>
      </trkpt>
      <trkpt lat="46.69019" lon="6.1393">
        <ele>1032</ele>
        <time>2026-05-13T07:47:30Z</time>
      </trkpt>
      <trkpt lat="46.69065" lon="6.13896">
        <ele>1031.8</ele>
        <time>2026-05-13T07:47:39Z</time>
      </trkpt>
      <trkpt lat="46.69117" lon="6.13857">
        <ele>1031.6</ele>
        <time>2026-05-13T07:47:49Z</time>
      </trkpt>
      <trkpt lat="46.69127" lon="6.13849">
        <ele>1031.6</ele>
        <time>2026-05-13T07:47:51Z</time>
      </trkpt>
      <trkpt lat="46.69132" lon="6.13845">
        <ele>1031.4</ele>
        <time>2026-05-13T07:47:52Z</time>
      </trkpt>
      <trkpt lat="46.69154" lon="6.13829">
        <ele>1031.2</ele>
        <time>2026-05-13T07:47:56Z</time>
      </trkpt>
      <trkpt lat="46.69197" lon="6.13794">
        <ele>1030.6</ele>
        <time>2026-05-13T07:48:04Z</time>
      </trkpt>
      <trkpt lat="46.69202" lon="6.13789">
        <ele>1030.4</ele>
        <time>2026-05-13T07:48:05Z</time>
      </trkpt>
      <trkpt lat="46.69254" lon="6.13748">
        <ele>1030.2</ele>
        <time>2026-05-13T07:48:14Z</time>
      </trkpt>
      <trkpt lat="46.6926" lon="6.13743">
        <ele>1030.2</ele>
        <time>2026-05-13T07:48:15Z</time>
      </trkpt>
      <trkpt lat="46.69302" lon="6.1371">
        <ele>1029.6</ele>
        <time>2026-05-13T07:48:22Z</time>
      </trkpt>
      <trkpt lat="46.69313" lon="6.13703">
        <ele>1029.6</ele>
        <time>2026-05-13T07:48:24Z</time>
      </trkpt>
      <trkpt lat="46.69327" lon="6.13696">
        <ele>1029.8</ele>
        <time>2026-05-13T07:48:27Z</time>
      </trkpt>
      <trkpt lat="46.69332" lon="6.13694">
        <ele>1030</ele>
        <time>2026-05-13T07:48:28Z</time>
      </trkpt>
      <trkpt lat="46.69355" lon="6.1369">
        <ele>1031.4</ele>
        <time>2026-05-13T07:48:33Z</time>
      </trkpt>
      <trkpt lat="46.6936" lon="6.1369">
        <ele>1031.8</ele>
        <time>2026-05-13T07:48:34Z</time>
      </trkpt>
      <trkpt lat="46.69375" lon="6.13689">
        <ele>1032.4</ele>
        <time>2026-05-13T07:48:37Z</time>
      </trkpt>
      <trkpt lat="46.69385" lon="6.13689">
        <ele>1032.8</ele>
        <time>2026-05-13T07:48:39Z</time>
      </trkpt>
      <trkpt lat="46.6939" lon="6.13689">
        <ele>1033</ele>
        <time>2026-05-13T07:48:40Z</time>
      </trkpt>
      <trkpt lat="46.69402" lon="6.1369">
        <ele>1033.2</ele>
        <time>2026-05-13T07:48:42Z</time>
      </trkpt>
      <trkpt lat="46.69407" lon="6.13691">
        <ele>1033.2</ele>
        <time>2026-05-13T07:48:43Z</time>
      </trkpt>
      <trkpt lat="46.69446" lon="6.13696">
        <ele>1033.8</ele>
        <time>2026-05-13T07:48:50Z</time>
      </trkpt>
      <trkpt lat="46.69457" lon="6.13697">
        <ele>1034</ele>
        <time>2026-05-13T07:48:52Z</time>
      </trkpt>
      <trkpt lat="46.69462" lon="6.13698">
        <ele>1034.2</ele>
        <time>2026-05-13T07:48:53Z</time>
      </trkpt>
      <trkpt lat="46.69471" lon="6.13701">
        <ele>1034.2</ele>
        <time>2026-05-13T07:48:55Z</time>
      </trkpt>
      <trkpt lat="46.69476" lon="6.13702">
        <ele>1034.2</ele>
        <time>2026-05-13T07:48:56Z</time>
      </trkpt>
      <trkpt lat="46.69485" lon="6.13703">
        <ele>1034.2</ele>
        <time>2026-05-13T07:48:58Z</time>
      </trkpt>
      <trkpt lat="46.6949" lon="6.13704">
        <ele>1034.2</ele>
        <time>2026-05-13T07:48:59Z</time>
      </trkpt>
      <trkpt lat="46.69513" lon="6.13705">
        <ele>1034.2</ele>
        <time>2026-05-13T07:49:03Z</time>
      </trkpt>
      <trkpt lat="46.69547" lon="6.13707">
        <ele>1034.2</ele>
        <time>2026-05-13T07:49:09Z</time>
      </trkpt>
      <trkpt lat="46.69553" lon="6.13708">
        <ele>1034.2</ele>
        <time>2026-05-13T07:49:10Z</time>
      </trkpt>
      <trkpt lat="46.69591" lon="6.13709">
        <ele>1034.2</ele>
        <time>2026-05-13T07:49:17Z</time>
      </trkpt>
      <trkpt lat="46.69607" lon="6.13711">
        <ele>1034.4</ele>
        <time>2026-05-13T07:49:21Z</time>
      </trkpt>
      <trkpt lat="46.69622" lon="6.13712">
        <ele>1035.2</ele>
        <time>2026-05-13T07:49:25Z</time>
      </trkpt>
      <trkpt lat="46.69626" lon="6.13712">
        <ele>1035.6</ele>
        <time>2026-05-13T07:49:26Z</time>
      </trkpt>
      <trkpt lat="46.69642" lon="6.13711">
        <ele>1036.4</ele>
        <time>2026-05-13T07:49:30Z</time>
      </trkpt>
      <trkpt lat="46.69653" lon="6.13706">
        <ele>1037.2</ele>
        <time>2026-05-13T07:49:33Z</time>
      </trkpt>
      <trkpt lat="46.69661" lon="6.13703">
        <ele>1037.4</ele>
        <time>2026-05-13T07:49:35Z</time>
      </trkpt>
      <trkpt lat="46.69677" lon="6.13696">
        <ele>1038</ele>
        <time>2026-05-13T07:49:39Z</time>
      </trkpt>
      <trkpt lat="46.69683" lon="6.1369">
        <ele>1038.4</ele>
        <time>2026-05-13T07:49:41Z</time>
      </trkpt>
      <trkpt lat="46.69695" lon="6.13677">
        <ele>1039</ele>
        <time>2026-05-13T07:49:45Z</time>
      </trkpt>
      <trkpt lat="46.69712" lon="6.13665">
        <ele>1039.4</ele>
        <time>2026-05-13T07:49:49Z</time>
      </trkpt>
      <trkpt lat="46.69723" lon="6.13655">
        <ele>1040</ele>
        <time>2026-05-13T07:49:52Z</time>
      </trkpt>
      <trkpt lat="46.69741" lon="6.13636">
        <ele>1040.4</ele>
        <time>2026-05-13T07:49:57Z</time>
      </trkpt>
      <trkpt lat="46.69744" lon="6.13633">
        <ele>1040.4</ele>
        <time>2026-05-13T07:49:58Z</time>
      </trkpt>
      <trkpt lat="46.69747" lon="6.1363">
        <ele>1040.6</ele>
        <time>2026-05-13T07:49:59Z</time>
      </trkpt>
      <trkpt lat="46.69772" lon="6.13605">
        <ele>1041.6</ele>
        <time>2026-05-13T07:50:07Z</time>
      </trkpt>
      <trkpt lat="46.69775" lon="6.13601">
        <ele>1041.8</ele>
        <time>2026-05-13T07:50:08Z</time>
      </trkpt>
      <trkpt lat="46.69804" lon="6.13573">
        <ele>1042.8</ele>
        <time>2026-05-13T07:50:17Z</time>
      </trkpt>
      <trkpt lat="46.69816" lon="6.13557">
        <ele>1043.8</ele>
        <time>2026-05-13T07:50:22Z</time>
      </trkpt>
      <trkpt lat="46.69817" lon="6.13553">
        <ele>1043.8</ele>
        <time>2026-05-13T07:50:23Z</time>
      </trkpt>
      <trkpt lat="46.6982" lon="6.13546">
        <ele>1044.6</ele>
        <time>2026-05-13T07:50:25Z</time>
      </trkpt>
      <trkpt lat="46.69826" lon="6.13529">
        <ele>1045.6</ele>
        <time>2026-05-13T07:50:29Z</time>
      </trkpt>
      <trkpt lat="46.69827" lon="6.13525">
        <ele>1045.8</ele>
        <time>2026-05-13T07:50:30Z</time>
      </trkpt>
      <trkpt lat="46.69832" lon="6.13505">
        <ele>1047</ele>
        <time>2026-05-13T07:50:35Z</time>
      </trkpt>
      <trkpt lat="46.69836" lon="6.13487">
        <ele>1048.2</ele>
        <time>2026-05-13T07:50:39Z</time>
      </trkpt>
      <trkpt lat="46.69842" lon="6.1347">
        <ele>1049.4</ele>
        <time>2026-05-13T07:50:43Z</time>
      </trkpt>
      <trkpt lat="46.69848" lon="6.13445">
        <ele>1050.4</ele>
        <time>2026-05-13T07:50:48Z</time>
      </trkpt>
      <trkpt lat="46.69852" lon="6.13432">
        <ele>1051.4</ele>
        <time>2026-05-13T07:50:51Z</time>
      </trkpt>
      <trkpt lat="46.69853" lon="6.13428">
        <ele>1051.6</ele>
        <time>2026-05-13T07:50:52Z</time>
      </trkpt>
      <trkpt lat="46.69859" lon="6.13406">
        <ele>1052.8</ele>
        <time>2026-05-13T07:50:57Z</time>
      </trkpt>
      <trkpt lat="46.69864" lon="6.13394">
        <ele>1053.4</ele>
        <time>2026-05-13T07:51:00Z</time>
      </trkpt>
      <trkpt lat="46.69868" lon="6.13385">
        <ele>1053.8</ele>
        <time>2026-05-13T07:51:02Z</time>
      </trkpt>
      <trkpt lat="46.69871" lon="6.13377">
        <ele>1054</ele>
        <time>2026-05-13T07:51:04Z</time>
      </trkpt>
      <trkpt lat="46.69881" lon="6.13356">
        <ele>1054.8</ele>
        <time>2026-05-13T07:51:09Z</time>
      </trkpt>
      <trkpt lat="46.69883" lon="6.13352">
        <ele>1055</ele>
        <time>2026-05-13T07:51:10Z</time>
      </trkpt>
      <trkpt lat="46.69906" lon="6.13325">
        <ele>1055.8</ele>
        <time>2026-05-13T07:51:18Z</time>
      </trkpt>
      <trkpt lat="46.69909" lon="6.13322">
        <ele>1056</ele>
        <time>2026-05-13T07:51:19Z</time>
      </trkpt>
      <trkpt lat="46.69928" lon="6.133">
        <ele>1056.8</ele>
        <time>2026-05-13T07:51:26Z</time>
      </trkpt>
      <trkpt lat="46.69943" lon="6.13285">
        <ele>1058</ele>
        <time>2026-05-13T07:51:31Z</time>
      </trkpt>
      <trkpt lat="46.69952" lon="6.13276">
        <ele>1058.4</ele>
        <time>2026-05-13T07:51:34Z</time>
      </trkpt>
      <trkpt lat="46.69969" lon="6.1326">
        <ele>1059</ele>
        <time>2026-05-13T07:51:39Z</time>
      </trkpt>
      <trkpt lat="46.6998" lon="6.13252">
        <ele>1059.2</ele>
        <time>2026-05-13T07:51:42Z</time>
      </trkpt>
      <trkpt lat="46.70008" lon="6.13238">
        <ele>1059.6</ele>
        <time>2026-05-13T07:51:49Z</time>
      </trkpt>
      <trkpt lat="46.70036" lon="6.13233">
        <ele>1060</ele>
        <time>2026-05-13T07:51:56Z</time>
      </trkpt>
      <trkpt lat="46.7004" lon="6.13233">
        <ele>1060</ele>
        <time>2026-05-13T07:51:57Z</time>
      </trkpt>
      <trkpt lat="46.70066" lon="6.13237">
        <ele>1060.4</ele>
        <time>2026-05-13T07:52:03Z</time>
      </trkpt>
      <trkpt lat="46.70095" lon="6.13247">
        <ele>1060</ele>
        <time>2026-05-13T07:52:08Z</time>
      </trkpt>
      <trkpt lat="46.70115" lon="6.13263">
        <ele>1059</ele>
        <time>2026-05-13T07:52:11Z</time>
      </trkpt>
      <trkpt lat="46.70122" lon="6.1327">
        <ele>1058.8</ele>
        <time>2026-05-13T07:52:12Z</time>
      </trkpt>
      <trkpt lat="46.70135" lon="6.13286">
        <ele>1057.6</ele>
        <time>2026-05-13T07:52:14Z</time>
      </trkpt>
      <trkpt lat="46.70147" lon="6.13306">
        <ele>1056.8</ele>
        <time>2026-05-13T07:52:16Z</time>
      </trkpt>
      <trkpt lat="46.70153" lon="6.13317">
        <ele>1056.4</ele>
        <time>2026-05-13T07:52:17Z</time>
      </trkpt>
      <trkpt lat="46.70166" lon="6.1334">
        <ele>1054.8</ele>
        <time>2026-05-13T07:52:19Z</time>
      </trkpt>
      <trkpt lat="46.70178" lon="6.1336">
        <ele>1053.8</ele>
        <time>2026-05-13T07:52:21Z</time>
      </trkpt>
      <trkpt lat="46.70185" lon="6.13368">
        <ele>1053.4</ele>
        <time>2026-05-13T07:52:22Z</time>
      </trkpt>
      <trkpt lat="46.70193" lon="6.13375">
        <ele>1052.4</ele>
        <time>2026-05-13T07:52:23Z</time>
      </trkpt>
      <trkpt lat="46.70203" lon="6.13378">
        <ele>1051.8</ele>
        <time>2026-05-13T07:52:24Z</time>
      </trkpt>
      <trkpt lat="46.70212" lon="6.13379">
        <ele>1051.4</ele>
        <time>2026-05-13T07:52:25Z</time>
      </trkpt>
      <trkpt lat="46.70221" lon="6.13378">
        <ele>1050.8</ele>
        <time>2026-05-13T07:52:26Z</time>
      </trkpt>
      <trkpt lat="46.70241" lon="6.13375">
        <ele>1049.6</ele>
        <time>2026-05-13T07:52:28Z</time>
      </trkpt>
      <trkpt lat="46.70262" lon="6.13372">
        <ele>1048.4</ele>
        <time>2026-05-13T07:52:30Z</time>
      </trkpt>
      <trkpt lat="46.70284" lon="6.13369">
        <ele>1047</ele>
        <time>2026-05-13T07:52:32Z</time>
      </trkpt>
      <trkpt lat="46.70294" lon="6.1337">
        <ele>1046.2</ele>
        <time>2026-05-13T07:52:33Z</time>
      </trkpt>
      <trkpt lat="46.70304" lon="6.13373">
        <ele>1045</ele>
        <time>2026-05-13T07:52:34Z</time>
      </trkpt>
      <trkpt lat="46.70313" lon="6.1338">
        <ele>1044.6</ele>
        <time>2026-05-13T07:52:35Z</time>
      </trkpt>
      <trkpt lat="46.70322" lon="6.13389">
        <ele>1043.6</ele>
        <time>2026-05-13T07:52:36Z</time>
      </trkpt>
      <trkpt lat="46.70329" lon="6.13401">
        <ele>1043.2</ele>
        <time>2026-05-13T07:52:37Z</time>
      </trkpt>
      <trkpt lat="46.70335" lon="6.13415">
        <ele>1041.8</ele>
        <time>2026-05-13T07:52:38Z</time>
      </trkpt>
      <trkpt lat="46.70339" lon="6.1343">
        <ele>1040.6</ele>
        <time>2026-05-13T07:52:39Z</time>
      </trkpt>
      <trkpt lat="46.70341" lon="6.13445">
        <ele>1039.8</ele>
        <time>2026-05-13T07:52:40Z</time>
      </trkpt>
      <trkpt lat="46.70342" lon="6.13461">
        <ele>1038.4</ele>
        <time>2026-05-13T07:52:41Z</time>
      </trkpt>
      <trkpt lat="46.70343" lon="6.1349">
        <ele>1037</ele>
        <time>2026-05-13T07:52:43Z</time>
      </trkpt>
      <trkpt lat="46.70343" lon="6.13504">
        <ele>1036.6</ele>
        <time>2026-05-13T07:52:44Z</time>
      </trkpt>
      <trkpt lat="46.70342" lon="6.13555">
        <ele>1036.2</ele>
        <time>2026-05-13T07:52:48Z</time>
      </trkpt>
      <trkpt lat="46.70343" lon="6.13578">
        <ele>1036</ele>
        <time>2026-05-13T07:52:50Z</time>
      </trkpt>
      <trkpt lat="46.70347" lon="6.13601">
        <ele>1036</ele>
        <time>2026-05-13T07:52:52Z</time>
      </trkpt>
      <trkpt lat="46.70352" lon="6.13622">
        <ele>1035.8</ele>
        <time>2026-05-13T07:52:54Z</time>
      </trkpt>
      <trkpt lat="46.70376" lon="6.13678">
        <ele>1035</ele>
        <time>2026-05-13T07:53:00Z</time>
      </trkpt>
      <trkpt lat="46.70404" lon="6.13755">
        <ele>1034.2</ele>
        <time>2026-05-13T07:53:08Z</time>
      </trkpt>
      <trkpt lat="46.70407" lon="6.13765">
        <ele>1034.4</ele>
        <time>2026-05-13T07:53:09Z</time>
      </trkpt>
      <trkpt lat="46.70411" lon="6.13786">
        <ele>1034.2</ele>
        <time>2026-05-13T07:53:11Z</time>
      </trkpt>
      <trkpt lat="46.70413" lon="6.13798">
        <ele>1034.2</ele>
        <time>2026-05-13T07:53:12Z</time>
      </trkpt>
      <trkpt lat="46.70413" lon="6.13809">
        <ele>1034</ele>
        <time>2026-05-13T07:53:13Z</time>
      </trkpt>
      <trkpt lat="46.70408" lon="6.13868">
        <ele>1033</ele>
        <time>2026-05-13T07:53:18Z</time>
      </trkpt>
      <trkpt lat="46.70407" lon="6.1388">
        <ele>1032.8</ele>
        <time>2026-05-13T07:53:19Z</time>
      </trkpt>
      <trkpt lat="46.70403" lon="6.13915">
        <ele>1031.8</ele>
        <time>2026-05-13T07:53:22Z</time>
      </trkpt>
      <trkpt lat="46.70401" lon="6.13971">
        <ele>1031.4</ele>
        <time>2026-05-13T07:53:27Z</time>
      </trkpt>
      <trkpt lat="46.70405" lon="6.14003">
        <ele>1031.2</ele>
        <time>2026-05-13T07:53:30Z</time>
      </trkpt>
      <trkpt lat="46.70408" lon="6.14012">
        <ele>1031</ele>
        <time>2026-05-13T07:53:31Z</time>
      </trkpt>
      <trkpt lat="46.70428" lon="6.14057">
        <ele>1031</ele>
        <time>2026-05-13T07:53:36Z</time>
      </trkpt>
      <trkpt lat="46.7046" lon="6.1413">
        <ele>1031</ele>
        <time>2026-05-13T07:53:44Z</time>
      </trkpt>
      <trkpt lat="46.70464" lon="6.1414">
        <ele>1030.8</ele>
        <time>2026-05-13T07:53:45Z</time>
      </trkpt>
      <trkpt lat="46.70466" lon="6.14151">
        <ele>1030.8</ele>
        <time>2026-05-13T07:53:46Z</time>
      </trkpt>
      <trkpt lat="46.70468" lon="6.14162">
        <ele>1030.8</ele>
        <time>2026-05-13T07:53:47Z</time>
      </trkpt>
      <trkpt lat="46.7047" lon="6.14205">
        <ele>1030.4</ele>
        <time>2026-05-13T07:53:51Z</time>
      </trkpt>
      <trkpt lat="46.70475" lon="6.14269">
        <ele>1030.2</ele>
        <time>2026-05-13T07:53:57Z</time>
      </trkpt>
      <trkpt lat="46.70477" lon="6.1428">
        <ele>1030.2</ele>
        <time>2026-05-13T07:53:58Z</time>
      </trkpt>
      <trkpt lat="46.70493" lon="6.14331">
        <ele>1030.4</ele>
        <time>2026-05-13T07:54:04Z</time>
      </trkpt>
      <trkpt lat="46.70497" lon="6.14337">
        <ele>1030.4</ele>
        <time>2026-05-13T07:54:05Z</time>
      </trkpt>
      <trkpt lat="46.70504" lon="6.14347">
        <ele>1030.8</ele>
        <time>2026-05-13T07:54:07Z</time>
      </trkpt>
      <trkpt lat="46.70509" lon="6.1435">
        <ele>1031.2</ele>
        <time>2026-05-13T07:54:08Z</time>
      </trkpt>
      <trkpt lat="46.70525" lon="6.14365">
        <ele>1032</ele>
        <time>2026-05-13T07:54:12Z</time>
      </trkpt>
      <trkpt lat="46.70542" lon="6.1438">
        <ele>1033</ele>
        <time>2026-05-13T07:54:16Z</time>
      </trkpt>
      <trkpt lat="46.70547" lon="6.14383">
        <ele>1033.2</ele>
        <time>2026-05-13T07:54:17Z</time>
      </trkpt>
      <trkpt lat="46.70583" lon="6.14414">
        <ele>1034.2</ele>
        <time>2026-05-13T07:54:25Z</time>
      </trkpt>
      <trkpt lat="46.70616" lon="6.14449">
        <ele>1035.4</ele>
        <time>2026-05-13T07:54:33Z</time>
      </trkpt>
      <trkpt lat="46.7062" lon="6.14453">
        <ele>1035.4</ele>
        <time>2026-05-13T07:54:34Z</time>
      </trkpt>
      <trkpt lat="46.70645" lon="6.14488">
        <ele>1036.4</ele>
        <time>2026-05-13T07:54:41Z</time>
      </trkpt>
      <trkpt lat="46.70656" lon="6.14504">
        <ele>1036.8</ele>
        <time>2026-05-13T07:54:44Z</time>
      </trkpt>
      <trkpt lat="46.7068" lon="6.14538">
        <ele>1037</ele>
        <time>2026-05-13T07:54:50Z</time>
      </trkpt>
      <trkpt lat="46.70694" lon="6.14556">
        <ele>1037</ele>
        <time>2026-05-13T07:54:53Z</time>
      </trkpt>
      <trkpt lat="46.70732" lon="6.14611">
        <ele>1036.6</ele>
        <time>2026-05-13T07:55:01Z</time>
      </trkpt>
      <trkpt lat="46.7077" lon="6.14663">
        <ele>1035.6</ele>
        <time>2026-05-13T07:55:08Z</time>
      </trkpt>
      <trkpt lat="46.70776" lon="6.14671">
        <ele>1035.4</ele>
        <time>2026-05-13T07:55:09Z</time>
      </trkpt>
      <trkpt lat="46.70815" lon="6.14729">
        <ele>1034.4</ele>
        <time>2026-05-13T07:55:16Z</time>
      </trkpt>
      <trkpt lat="46.70826" lon="6.14746">
        <ele>1034.2</ele>
        <time>2026-05-13T07:55:18Z</time>
      </trkpt>
      <trkpt lat="46.70849" lon="6.14784">
        <ele>1033.6</ele>
        <time>2026-05-13T07:55:22Z</time>
      </trkpt>
      <trkpt lat="46.70854" lon="6.14795">
        <ele>1033.4</ele>
        <time>2026-05-13T07:55:23Z</time>
      </trkpt>
      <trkpt lat="46.70858" lon="6.14807">
        <ele>1033.2</ele>
        <time>2026-05-13T07:55:24Z</time>
      </trkpt>
      <trkpt lat="46.70861" lon="6.14834">
        <ele>1032.6</ele>
        <time>2026-05-13T07:55:26Z</time>
      </trkpt>
      <trkpt lat="46.70861" lon="6.14849">
        <ele>1032</ele>
        <time>2026-05-13T07:55:27Z</time>
      </trkpt>
      <trkpt lat="46.70858" lon="6.14894">
        <ele>1030.8</ele>
        <time>2026-05-13T07:55:30Z</time>
      </trkpt>
      <trkpt lat="46.70855" lon="6.14924">
        <ele>1029.6</ele>
        <time>2026-05-13T07:55:32Z</time>
      </trkpt>
      <trkpt lat="46.70853" lon="6.14939">
        <ele>1029.4</ele>
        <time>2026-05-13T07:55:33Z</time>
      </trkpt>
      <trkpt lat="46.70849" lon="6.14969">
        <ele>1027.6</ele>
        <time>2026-05-13T07:55:35Z</time>
      </trkpt>
      <trkpt lat="46.70843" lon="6.15014">
        <ele>1026.4</ele>
        <time>2026-05-13T07:55:38Z</time>
      </trkpt>
      <trkpt lat="46.70841" lon="6.15029">
        <ele>1025.2</ele>
        <time>2026-05-13T07:55:39Z</time>
      </trkpt>
      <trkpt lat="46.70838" lon="6.15044">
        <ele>1024.6</ele>
        <time>2026-05-13T07:55:40Z</time>
      </trkpt>
      <trkpt lat="46.70829" lon="6.15072">
        <ele>1023.8</ele>
        <time>2026-05-13T07:55:42Z</time>
      </trkpt>
      <trkpt lat="46.70817" lon="6.15111">
        <ele>1022.6</ele>
        <time>2026-05-13T07:55:45Z</time>
      </trkpt>
      <trkpt lat="46.70815" lon="6.15123">
        <ele>1022.4</ele>
        <time>2026-05-13T07:55:46Z</time>
      </trkpt>
      <trkpt lat="46.70813" lon="6.15147">
        <ele>1022</ele>
        <time>2026-05-13T07:55:48Z</time>
      </trkpt>
      <trkpt lat="46.70817" lon="6.15168">
        <ele>1021.8</ele>
        <time>2026-05-13T07:55:50Z</time>
      </trkpt>
      <trkpt lat="46.70821" lon="6.15177">
        <ele>1021.6</ele>
        <time>2026-05-13T07:55:51Z</time>
      </trkpt>
      <trkpt lat="46.70826" lon="6.15184">
        <ele>1021.6</ele>
        <time>2026-05-13T07:55:52Z</time>
      </trkpt>
      <trkpt lat="46.70838" lon="6.15195">
        <ele>1021.8</ele>
        <time>2026-05-13T07:55:54Z</time>
      </trkpt>
      <trkpt lat="46.70863" lon="6.15219">
        <ele>1022.4</ele>
        <time>2026-05-13T07:55:59Z</time>
      </trkpt>
      <trkpt lat="46.70872" lon="6.15227">
        <ele>1022.8</ele>
        <time>2026-05-13T07:56:01Z</time>
      </trkpt>
      <trkpt lat="46.70889" lon="6.15244">
        <ele>1023.8</ele>
        <time>2026-05-13T07:56:05Z</time>
      </trkpt>
      <trkpt lat="46.70893" lon="6.15248">
        <ele>1024</ele>
        <time>2026-05-13T07:56:06Z</time>
      </trkpt>
      <trkpt lat="46.70908" lon="6.15265">
        <ele>1025</ele>
        <time>2026-05-13T07:56:10Z</time>
      </trkpt>
      <trkpt lat="46.70919" lon="6.15277">
        <ele>1025.6</ele>
        <time>2026-05-13T07:56:13Z</time>
      </trkpt>
      <trkpt lat="46.70932" lon="6.1529">
        <ele>1026.2</ele>
        <time>2026-05-13T07:56:16Z</time>
      </trkpt>
      <trkpt lat="46.70952" lon="6.15316">
        <ele>1026.8</ele>
        <time>2026-05-13T07:56:21Z</time>
      </trkpt>
      <trkpt lat="46.70984" lon="6.15358">
        <ele>1027.2</ele>
        <time>2026-05-13T07:56:29Z</time>
      </trkpt>
      <trkpt lat="46.71004" lon="6.15384">
        <ele>1027.8</ele>
        <time>2026-05-13T07:56:34Z</time>
      </trkpt>
      <trkpt lat="46.71024" lon="6.15409">
        <ele>1028.4</ele>
        <time>2026-05-13T07:56:39Z</time>
      </trkpt>
      <trkpt lat="46.71046" lon="6.15436">
        <ele>1028.8</ele>
        <time>2026-05-13T07:56:44Z</time>
      </trkpt>
      <trkpt lat="46.71088" lon="6.15486">
        <ele>1029.2</ele>
        <time>2026-05-13T07:56:53Z</time>
      </trkpt>
      <trkpt lat="46.71094" lon="6.15492">
        <ele>1029.2</ele>
        <time>2026-05-13T07:56:54Z</time>
      </trkpt>
      <trkpt lat="46.71141" lon="6.15536">
        <ele>1028.6</ele>
        <time>2026-05-13T07:57:02Z</time>
      </trkpt>
      <trkpt lat="46.71181" lon="6.15585">
        <ele>1028</ele>
        <time>2026-05-13T07:57:09Z</time>
      </trkpt>
      <trkpt lat="46.71216" lon="6.15648">
        <ele>1028.2</ele>
        <time>2026-05-13T07:57:17Z</time>
      </trkpt>
      <trkpt lat="46.71248" lon="6.15714">
        <ele>1029.4</ele>
        <time>2026-05-13T07:57:26Z</time>
      </trkpt>
      <trkpt lat="46.71252" lon="6.15721">
        <ele>1029.8</ele>
        <time>2026-05-13T07:57:27Z</time>
      </trkpt>
      <trkpt lat="46.71284" lon="6.15785">
        <ele>1030.6</ele>
        <time>2026-05-13T07:57:36Z</time>
      </trkpt>
      <trkpt lat="46.71292" lon="6.158">
        <ele>1030.8</ele>
        <time>2026-05-13T07:57:38Z</time>
      </trkpt>
      <trkpt lat="46.71325" lon="6.15866">
        <ele>1030.8</ele>
        <time>2026-05-13T07:57:47Z</time>
      </trkpt>
      <trkpt lat="46.71328" lon="6.15874">
        <ele>1031</ele>
        <time>2026-05-13T07:57:48Z</time>
      </trkpt>
      <trkpt lat="46.71336" lon="6.1589">
        <ele>1031</ele>
        <time>2026-05-13T07:57:50Z</time>
      </trkpt>
      <trkpt lat="46.71354" lon="6.15947">
        <ele>1030.8</ele>
        <time>2026-05-13T07:57:56Z</time>
      </trkpt>
      <trkpt lat="46.7137" lon="6.16">
        <ele>1030.2</ele>
        <time>2026-05-13T07:58:01Z</time>
      </trkpt>
      <trkpt lat="46.71381" lon="6.16019">
        <ele>1030</ele>
        <time>2026-05-13T07:58:03Z</time>
      </trkpt>
      <trkpt lat="46.71394" lon="6.16037">
        <ele>1029.6</ele>
        <time>2026-05-13T07:58:05Z</time>
      </trkpt>
      <trkpt lat="46.71409" lon="6.16053">
        <ele>1028.8</ele>
        <time>2026-05-13T07:58:07Z</time>
      </trkpt>
      <trkpt lat="46.71433" lon="6.16073">
        <ele>1028.2</ele>
        <time>2026-05-13T07:58:10Z</time>
      </trkpt>
      <trkpt lat="46.7145" lon="6.16086">
        <ele>1027.6</ele>
        <time>2026-05-13T07:58:12Z</time>
      </trkpt>
      <trkpt lat="46.71487" lon="6.16112">
        <ele>1027</ele>
        <time>2026-05-13T07:58:17Z</time>
      </trkpt>
      <trkpt lat="46.71525" lon="6.16138">
        <ele>1027.4</ele>
        <time>2026-05-13T07:58:23Z</time>
      </trkpt>
      <trkpt lat="46.71549" lon="6.16166">
        <ele>1028.2</ele>
        <time>2026-05-13T07:58:28Z</time>
      </trkpt>
      <trkpt lat="46.71559" lon="6.16186">
        <ele>1028.8</ele>
        <time>2026-05-13T07:58:31Z</time>
      </trkpt>
      <trkpt lat="46.71567" lon="6.16207">
        <ele>1029.4</ele>
        <time>2026-05-13T07:58:34Z</time>
      </trkpt>
      <trkpt lat="46.71573" lon="6.16229">
        <ele>1030</ele>
        <time>2026-05-13T07:58:37Z</time>
      </trkpt>
      <trkpt lat="46.71579" lon="6.16252">
        <ele>1030.6</ele>
        <time>2026-05-13T07:58:40Z</time>
      </trkpt>
      <trkpt lat="46.71588" lon="6.16297">
        <ele>1030.8</ele>
        <time>2026-05-13T07:58:45Z</time>
      </trkpt>
      <trkpt lat="46.71598" lon="6.16368">
        <ele>1030.6</ele>
        <time>2026-05-13T07:58:52Z</time>
      </trkpt>
      <trkpt lat="46.71614" lon="6.16438">
        <ele>1029.4</ele>
        <time>2026-05-13T07:58:58Z</time>
      </trkpt>
      <trkpt lat="46.71617" lon="6.16449">
        <ele>1028.8</ele>
        <time>2026-05-13T07:58:59Z</time>
      </trkpt>
      <trkpt lat="46.71636" lon="6.165">
        <ele>1027.8</ele>
        <time>2026-05-13T07:59:04Z</time>
      </trkpt>
      <trkpt lat="46.7164" lon="6.16509">
        <ele>1027.8</ele>
        <time>2026-05-13T07:59:05Z</time>
      </trkpt>
      <trkpt lat="46.71672" lon="6.16574">
        <ele>1027.6</ele>
        <time>2026-05-13T07:59:12Z</time>
      </trkpt>
      <trkpt lat="46.71696" lon="6.16612">
        <ele>1027</ele>
        <time>2026-05-13T07:59:16Z</time>
      </trkpt>
      <trkpt lat="46.71703" lon="6.16622">
        <ele>1026.8</ele>
        <time>2026-05-13T07:59:17Z</time>
      </trkpt>
      <trkpt lat="46.71724" lon="6.16653">
        <ele>1025.8</ele>
        <time>2026-05-13T07:59:20Z</time>
      </trkpt>
      <trkpt lat="46.71737" lon="6.16675">
        <ele>1025</ele>
        <time>2026-05-13T07:59:22Z</time>
      </trkpt>
      <trkpt lat="46.71741" lon="6.16688">
        <ele>1024.4</ele>
        <time>2026-05-13T07:59:23Z</time>
      </trkpt>
      <trkpt lat="46.71745" lon="6.16702">
        <ele>1023.8</ele>
        <time>2026-05-13T07:59:24Z</time>
      </trkpt>
      <trkpt lat="46.71747" lon="6.16729">
        <ele>1023.2</ele>
        <time>2026-05-13T07:59:26Z</time>
      </trkpt>
      <trkpt lat="46.71747" lon="6.16756">
        <ele>1023</ele>
        <time>2026-05-13T07:59:28Z</time>
      </trkpt>
      <trkpt lat="46.7175" lon="6.16779">
        <ele>1022.8</ele>
        <time>2026-05-13T07:59:30Z</time>
      </trkpt>
      <trkpt lat="46.7176" lon="6.16828">
        <ele>1023.4</ele>
        <time>2026-05-13T07:59:35Z</time>
      </trkpt>
      <trkpt lat="46.7177" lon="6.16854">
        <ele>1024.2</ele>
        <time>2026-05-13T07:59:38Z</time>
      </trkpt>
      <trkpt lat="46.71779" lon="6.16871">
        <ele>1024.6</ele>
        <time>2026-05-13T07:59:40Z</time>
      </trkpt>
      <trkpt lat="46.71812" lon="6.16914">
        <ele>1024.4</ele>
        <time>2026-05-13T07:59:46Z</time>
      </trkpt>
      <trkpt lat="46.71832" lon="6.1695">
        <ele>1023.6</ele>
        <time>2026-05-13T07:59:50Z</time>
      </trkpt>
      <trkpt lat="46.71842" lon="6.1697">
        <ele>1023.2</ele>
        <time>2026-05-13T07:59:52Z</time>
      </trkpt>
      <trkpt lat="46.71859" lon="6.17013">
        <ele>1022</ele>
        <time>2026-05-13T07:59:56Z</time>
      </trkpt>
      <trkpt lat="46.71864" lon="6.17024">
        <ele>1021.8</ele>
        <time>2026-05-13T07:59:57Z</time>
      </trkpt>
      <trkpt lat="46.71879" lon="6.17053">
        <ele>1021</ele>
        <time>2026-05-13T08:00:00Z</time>
      </trkpt>
      <trkpt lat="46.71894" lon="6.1708">
        <ele>1019.8</ele>
        <time>2026-05-13T08:00:03Z</time>
      </trkpt>
      <trkpt lat="46.71899" lon="6.17089">
        <ele>1019.6</ele>
        <time>2026-05-13T08:00:04Z</time>
      </trkpt>
      <trkpt lat="46.71916" lon="6.17115">
        <ele>1018.8</ele>
        <time>2026-05-13T08:00:07Z</time>
      </trkpt>
      <trkpt lat="46.71928" lon="6.17132">
        <ele>1017.8</ele>
        <time>2026-05-13T08:00:09Z</time>
      </trkpt>
      <trkpt lat="46.71935" lon="6.17139">
        <ele>1017.6</ele>
        <time>2026-05-13T08:00:10Z</time>
      </trkpt>
      <trkpt lat="46.71941" lon="6.17147">
        <ele>1017.2</ele>
        <time>2026-05-13T08:00:11Z</time>
      </trkpt>
      <trkpt lat="46.71946" lon="6.17155">
        <ele>1017</ele>
        <time>2026-05-13T08:00:12Z</time>
      </trkpt>
      <trkpt lat="46.71951" lon="6.17164">
        <ele>1016.4</ele>
        <time>2026-05-13T08:00:13Z</time>
      </trkpt>
      <trkpt lat="46.71955" lon="6.17174">
        <ele>1016</ele>
        <time>2026-05-13T08:00:14Z</time>
      </trkpt>
      <trkpt lat="46.71959" lon="6.17196">
        <ele>1015.8</ele>
        <time>2026-05-13T08:00:16Z</time>
      </trkpt>
      <trkpt lat="46.7196" lon="6.17207">
        <ele>1015.6</ele>
        <time>2026-05-13T08:00:17Z</time>
      </trkpt>
      <trkpt lat="46.7196" lon="6.17219">
        <ele>1015.2</ele>
        <time>2026-05-13T08:00:18Z</time>
      </trkpt>
      <trkpt lat="46.71961" lon="6.17255">
        <ele>1014.2</ele>
        <time>2026-05-13T08:00:21Z</time>
      </trkpt>
      <trkpt lat="46.71963" lon="6.17306">
        <ele>1012.8</ele>
        <time>2026-05-13T08:00:25Z</time>
      </trkpt>
      <trkpt lat="46.71965" lon="6.17331">
        <ele>1012</ele>
        <time>2026-05-13T08:00:27Z</time>
      </trkpt>
      <trkpt lat="46.71968" lon="6.17343">
        <ele>1011.6</ele>
        <time>2026-05-13T08:00:28Z</time>
      </trkpt>
      <trkpt lat="46.71973" lon="6.17353">
        <ele>1011.4</ele>
        <time>2026-05-13T08:00:29Z</time>
      </trkpt>
      <trkpt lat="46.71985" lon="6.17371">
        <ele>1011</ele>
        <time>2026-05-13T08:00:31Z</time>
      </trkpt>
      <trkpt lat="46.71999" lon="6.17384">
        <ele>1010.2</ele>
        <time>2026-05-13T08:00:33Z</time>
      </trkpt>
      <trkpt lat="46.72028" lon="6.17413">
        <ele>1009.4</ele>
        <time>2026-05-13T08:00:37Z</time>
      </trkpt>
      <trkpt lat="46.72035" lon="6.1742">
        <ele>1009</ele>
        <time>2026-05-13T08:00:38Z</time>
      </trkpt>
      <trkpt lat="46.72076" lon="6.17465">
        <ele>1007.8</ele>
        <time>2026-05-13T08:00:44Z</time>
      </trkpt>
      <trkpt lat="46.72119" lon="6.17516">
        <ele>1006.6</ele>
        <time>2026-05-13T08:00:51Z</time>
      </trkpt>
      <trkpt lat="46.7213" lon="6.1753">
        <ele>1006.6</ele>
        <time>2026-05-13T08:00:53Z</time>
      </trkpt>
      <trkpt lat="46.72162" lon="6.17566">
        <ele>1006.8</ele>
        <time>2026-05-13T08:00:59Z</time>
      </trkpt>
      <trkpt lat="46.72198" lon="6.17606">
        <ele>1007.4</ele>
        <time>2026-05-13T08:01:06Z</time>
      </trkpt>
      <trkpt lat="46.72214" lon="6.17624">
        <ele>1007.8</ele>
        <time>2026-05-13T08:01:09Z</time>
      </trkpt>
      <trkpt lat="46.72235" lon="6.17651">
        <ele>1007.8</ele>
        <time>2026-05-13T08:01:13Z</time>
      </trkpt>
      <trkpt lat="46.7228" lon="6.17707">
        <ele>1007.6</ele>
        <time>2026-05-13T08:01:21Z</time>
      </trkpt>
      <trkpt lat="46.72286" lon="6.17715">
        <ele>1007.6</ele>
        <time>2026-05-13T08:01:22Z</time>
      </trkpt>
      <trkpt lat="46.72292" lon="6.17723">
        <ele>1007.6</ele>
        <time>2026-05-13T08:01:23Z</time>
      </trkpt>
      <trkpt lat="46.72311" lon="6.1776">
        <ele>1007.2</ele>
        <time>2026-05-13T08:01:27Z</time>
      </trkpt>
      <trkpt lat="46.72328" lon="6.17795">
        <ele>1006.6</ele>
        <time>2026-05-13T08:01:31Z</time>
      </trkpt>
      <trkpt lat="46.72347" lon="6.17832">
        <ele>1006.4</ele>
        <time>2026-05-13T08:01:35Z</time>
      </trkpt>
      <trkpt lat="46.72351" lon="6.17841">
        <ele>1006.2</ele>
        <time>2026-05-13T08:01:36Z</time>
      </trkpt>
      <trkpt lat="46.72358" lon="6.17862">
        <ele>1005.8</ele>
        <time>2026-05-13T08:01:38Z</time>
      </trkpt>
      <trkpt lat="46.7236" lon="6.17874">
        <ele>1005.8</ele>
        <time>2026-05-13T08:01:39Z</time>
      </trkpt>
      <trkpt lat="46.7236" lon="6.17885">
        <ele>1005.4</ele>
        <time>2026-05-13T08:01:40Z</time>
      </trkpt>
      <trkpt lat="46.72356" lon="6.17905">
        <ele>1004.8</ele>
        <time>2026-05-13T08:01:42Z</time>
      </trkpt>
      <trkpt lat="46.72353" lon="6.17924">
        <ele>1004.4</ele>
        <time>2026-05-13T08:01:44Z</time>
      </trkpt>
      <trkpt lat="46.72354" lon="6.17932">
        <ele>1004</ele>
        <time>2026-05-13T08:01:45Z</time>
      </trkpt>
      <trkpt lat="46.72357" lon="6.17938">
        <ele>1004</ele>
        <time>2026-05-13T08:01:46Z</time>
      </trkpt>
      <trkpt lat="46.72366" lon="6.17945">
        <ele>1003.6</ele>
        <time>2026-05-13T08:01:48Z</time>
      </trkpt>
      <trkpt lat="46.72395" lon="6.17953">
        <ele>1003.4</ele>
        <time>2026-05-13T08:01:54Z</time>
      </trkpt>
      <trkpt lat="46.72445" lon="6.17962">
        <ele>1004.4</ele>
        <time>2026-05-13T08:02:04Z</time>
      </trkpt>
      <trkpt lat="46.72465" lon="6.17967">
        <ele>1004.8</ele>
        <time>2026-05-13T08:02:09Z</time>
      </trkpt>
      <trkpt lat="46.72482" lon="6.17974">
        <ele>1005.4</ele>
        <time>2026-05-13T08:02:15Z</time>
      </trkpt>
      <trkpt lat="46.72483" lon="6.17975">
        <ele>1005.4</ele>
        <time>2026-05-13T08:02:18Z</time>
      </trkpt>
      <trkpt lat="46.72487" lon="6.17975">
        <ele>1005.4</ele>
        <time>2026-05-13T08:04:32Z</time>
      </trkpt>
      <trkpt lat="46.72503" lon="6.17981">
        <ele>1005.6</ele>
        <time>2026-05-13T08:04:38Z</time>
      </trkpt>
      <trkpt lat="46.72515" lon="6.17985">
        <ele>1005.8</ele>
        <time>2026-05-13T08:04:42Z</time>
      </trkpt>
      <trkpt lat="46.72527" lon="6.17989">
        <ele>1006</ele>
        <time>2026-05-13T08:04:46Z</time>
      </trkpt>
      <trkpt lat="46.72558" lon="6.18003">
        <ele>1006.6</ele>
        <time>2026-05-13T08:04:55Z</time>
      </trkpt>
      <trkpt lat="46.72584" lon="6.18018">
        <ele>1007</ele>
        <time>2026-05-13T08:05:01Z</time>
      </trkpt>
      <trkpt lat="46.72605" lon="6.18037">
        <ele>1007</ele>
        <time>2026-05-13T08:05:06Z</time>
      </trkpt>
      <trkpt lat="46.72617" lon="6.18048">
        <ele>1007.4</ele>
        <time>2026-05-13T08:05:09Z</time>
      </trkpt>
      <trkpt lat="46.72635" lon="6.18064">
        <ele>1008</ele>
        <time>2026-05-13T08:05:13Z</time>
      </trkpt>
      <trkpt lat="46.72649" lon="6.18074">
        <ele>1008.4</ele>
        <time>2026-05-13T08:05:16Z</time>
      </trkpt>
      <trkpt lat="46.72677" lon="6.18094">
        <ele>1009</ele>
        <time>2026-05-13T08:05:22Z</time>
      </trkpt>
      <trkpt lat="46.72693" lon="6.18104">
        <ele>1009.2</ele>
        <time>2026-05-13T08:05:25Z</time>
      </trkpt>
      <trkpt lat="46.72729" lon="6.18129">
        <ele>1010</ele>
        <time>2026-05-13T08:05:32Z</time>
      </trkpt>
      <trkpt lat="46.72739" lon="6.18136">
        <ele>1010.2</ele>
        <time>2026-05-13T08:05:34Z</time>
      </trkpt>
      <trkpt lat="46.72771" lon="6.18159">
        <ele>1010.4</ele>
        <time>2026-05-13T08:05:40Z</time>
      </trkpt>
      <trkpt lat="46.72802" lon="6.18182">
        <ele>1011.2</ele>
        <time>2026-05-13T08:05:46Z</time>
      </trkpt>
      <trkpt lat="46.72808" lon="6.18187">
        <ele>1011.2</ele>
        <time>2026-05-13T08:05:47Z</time>
      </trkpt>
      <trkpt lat="46.7285" lon="6.18217">
        <ele>1012</ele>
        <time>2026-05-13T08:05:55Z</time>
      </trkpt>
      <trkpt lat="46.72897" lon="6.18252">
        <ele>1012.8</ele>
        <time>2026-05-13T08:06:04Z</time>
      </trkpt>
      <trkpt lat="46.72913" lon="6.18266">
        <ele>1013.2</ele>
        <time>2026-05-13T08:06:07Z</time>
      </trkpt>
      <trkpt lat="46.72937" lon="6.1829">
        <ele>1013.4</ele>
        <time>2026-05-13T08:06:12Z</time>
      </trkpt>
      <trkpt lat="46.72964" lon="6.1832">
        <ele>1014.2</ele>
        <time>2026-05-13T08:06:18Z</time>
      </trkpt>
      <trkpt lat="46.72982" lon="6.18338">
        <ele>1014.6</ele>
        <time>2026-05-13T08:06:22Z</time>
      </trkpt>
      <trkpt lat="46.73011" lon="6.18357">
        <ele>1015</ele>
        <time>2026-05-13T08:06:28Z</time>
      </trkpt>
      <trkpt lat="46.73017" lon="6.18359">
        <ele>1015</ele>
        <time>2026-05-13T08:06:29Z</time>
      </trkpt>
      <trkpt lat="46.73039" lon="6.1836">
        <ele>1015.4</ele>
        <time>2026-05-13T08:06:33Z</time>
      </trkpt>
      <trkpt lat="46.73091" lon="6.18355">
        <ele>1016</ele>
        <time>2026-05-13T08:06:42Z</time>
      </trkpt>
      <trkpt lat="46.73102" lon="6.18354">
        <ele>1016.2</ele>
        <time>2026-05-13T08:06:44Z</time>
      </trkpt>
      <trkpt lat="46.73148" lon="6.18356">
        <ele>1017</ele>
        <time>2026-05-13T08:06:52Z</time>
      </trkpt>
      <trkpt lat="46.73159" lon="6.18358">
        <ele>1017.2</ele>
        <time>2026-05-13T08:06:54Z</time>
      </trkpt>
      <trkpt lat="46.73204" lon="6.1837">
        <ele>1017.6</ele>
        <time>2026-05-13T08:07:02Z</time>
      </trkpt>
      <trkpt lat="46.73235" lon="6.18378">
        <ele>1018.2</ele>
        <time>2026-05-13T08:07:08Z</time>
      </trkpt>
      <trkpt lat="46.73244" lon="6.18384">
        <ele>1018.6</ele>
        <time>2026-05-13T08:07:10Z</time>
      </trkpt>
      <trkpt lat="46.73259" lon="6.18399">
        <ele>1019.2</ele>
        <time>2026-05-13T08:07:14Z</time>
      </trkpt>
      <trkpt lat="46.73262" lon="6.18403">
        <ele>1019.6</ele>
        <time>2026-05-13T08:07:15Z</time>
      </trkpt>
      <trkpt lat="46.73271" lon="6.18416">
        <ele>1020.4</ele>
        <time>2026-05-13T08:07:18Z</time>
      </trkpt>
      <trkpt lat="46.73276" lon="6.18423">
        <ele>1021</ele>
        <time>2026-05-13T08:07:20Z</time>
      </trkpt>
      <trkpt lat="46.73279" lon="6.18427">
        <ele>1021.4</ele>
        <time>2026-05-13T08:07:21Z</time>
      </trkpt>
      <trkpt lat="46.73283" lon="6.1843">
        <ele>1021.6</ele>
        <time>2026-05-13T08:07:22Z</time>
      </trkpt>
      <trkpt lat="46.73301" lon="6.18444">
        <ele>1022.4</ele>
        <time>2026-05-13T08:07:27Z</time>
      </trkpt>
      <trkpt lat="46.73321" lon="6.18457">
        <ele>1023.4</ele>
        <time>2026-05-13T08:07:32Z</time>
      </trkpt>
      <trkpt lat="46.73326" lon="6.18459">
        <ele>1023.6</ele>
        <time>2026-05-13T08:07:33Z</time>
      </trkpt>
      <trkpt lat="46.73353" lon="6.18473">
        <ele>1025</ele>
        <time>2026-05-13T08:07:40Z</time>
      </trkpt>
      <trkpt lat="46.73368" lon="6.18484">
        <ele>1026</ele>
        <time>2026-05-13T08:07:44Z</time>
      </trkpt>
      <trkpt lat="46.73387" lon="6.18501">
        <ele>1026.8</ele>
        <time>2026-05-13T08:07:49Z</time>
      </trkpt>
      <trkpt lat="46.7339" lon="6.18505">
        <ele>1027</ele>
        <time>2026-05-13T08:07:50Z</time>
      </trkpt>
      <trkpt lat="46.7342" lon="6.18538">
        <ele>1027.8</ele>
        <time>2026-05-13T08:07:58Z</time>
      </trkpt>
      <trkpt lat="46.73428" lon="6.18547">
        <ele>1028.2</ele>
        <time>2026-05-13T08:08:00Z</time>
      </trkpt>
      <trkpt lat="46.73457" lon="6.18579">
        <ele>1028.6</ele>
        <time>2026-05-13T08:08:07Z</time>
      </trkpt>
      <trkpt lat="46.73494" lon="6.18617">
        <ele>1029</ele>
        <time>2026-05-13T08:08:15Z</time>
      </trkpt>
      <trkpt lat="46.73503" lon="6.18627">
        <ele>1029</ele>
        <time>2026-05-13T08:08:17Z</time>
      </trkpt>
      <trkpt lat="46.7355" lon="6.18673">
        <ele>1029.6</ele>
        <time>2026-05-13T08:08:27Z</time>
      </trkpt>
      <trkpt lat="46.73555" lon="6.18676">
        <ele>1029.8</ele>
        <time>2026-05-13T08:08:28Z</time>
      </trkpt>
      <trkpt lat="46.73579" lon="6.18681">
        <ele>1030</ele>
        <time>2026-05-13T08:08:32Z</time>
      </trkpt>
      <trkpt lat="46.73585" lon="6.18681">
        <ele>1030</ele>
        <time>2026-05-13T08:08:33Z</time>
      </trkpt>
      <trkpt lat="46.73642" lon="6.18677">
        <ele>1030.2</ele>
        <time>2026-05-13T08:08:42Z</time>
      </trkpt>
      <trkpt lat="46.73687" lon="6.18668">
        <ele>1030.2</ele>
        <time>2026-05-13T08:08:49Z</time>
      </trkpt>
      <trkpt lat="46.73697" lon="6.18659">
        <ele>1030.2</ele>
        <time>2026-05-13T08:08:51Z</time>
      </trkpt>
      <trkpt lat="46.73702" lon="6.18652">
        <ele>1030.4</ele>
        <time>2026-05-13T08:08:52Z</time>
      </trkpt>
      <trkpt lat="46.73707" lon="6.18645">
        <ele>1030.4</ele>
        <time>2026-05-13T08:08:53Z</time>
      </trkpt>
      <trkpt lat="46.73719" lon="6.18637">
        <ele>1030.6</ele>
        <time>2026-05-13T08:08:55Z</time>
      </trkpt>
      <trkpt lat="46.73731" lon="6.1864">
        <ele>1030.6</ele>
        <time>2026-05-13T08:08:57Z</time>
      </trkpt>
      <trkpt lat="46.73737" lon="6.18644">
        <ele>1030.8</ele>
        <time>2026-05-13T08:08:58Z</time>
      </trkpt>
      <trkpt lat="46.73755" lon="6.18653">
        <ele>1030.8</ele>
        <time>2026-05-13T08:09:01Z</time>
      </trkpt>
      <trkpt lat="46.73773" lon="6.18657">
        <ele>1031</ele>
        <time>2026-05-13T08:09:04Z</time>
      </trkpt>
      <trkpt lat="46.7378" lon="6.18657">
        <ele>1031</ele>
        <time>2026-05-13T08:09:05Z</time>
      </trkpt>
      <trkpt lat="46.73821" lon="6.18656">
        <ele>1031.4</ele>
        <time>2026-05-13T08:09:12Z</time>
      </trkpt>
      <trkpt lat="46.7388" lon="6.18656">
        <ele>1032.2</ele>
        <time>2026-05-13T08:09:22Z</time>
      </trkpt>
      <trkpt lat="46.73934" lon="6.18665">
        <ele>1032.4</ele>
        <time>2026-05-13T08:09:31Z</time>
      </trkpt>
      <trkpt lat="46.73939" lon="6.18666">
        <ele>1032.6</ele>
        <time>2026-05-13T08:09:32Z</time>
      </trkpt>
      <trkpt lat="46.73977" lon="6.18671">
        <ele>1033</ele>
        <time>2026-05-13T08:09:39Z</time>
      </trkpt>
      <trkpt lat="46.73996" lon="6.18672">
        <ele>1033</ele>
        <time>2026-05-13T08:09:42Z</time>
      </trkpt>
      <trkpt lat="46.74" lon="6.18671">
        <ele>1033.2</ele>
        <time>2026-05-13T08:09:43Z</time>
      </trkpt>
      <trkpt lat="46.74004" lon="6.18669">
        <ele>1033.4</ele>
        <time>2026-05-13T08:09:44Z</time>
      </trkpt>
      <trkpt lat="46.74016" lon="6.18667">
        <ele>1033.8</ele>
        <time>2026-05-13T08:09:46Z</time>
      </trkpt>
      <trkpt lat="46.74049" lon="6.18668">
        <ele>1034</ele>
        <time>2026-05-13T08:09:51Z</time>
      </trkpt>
      <trkpt lat="46.74055" lon="6.18669">
        <ele>1034</ele>
        <time>2026-05-13T08:09:52Z</time>
      </trkpt>
      <trkpt lat="46.74089" lon="6.18686">
        <ele>1033.8</ele>
        <time>2026-05-13T08:09:58Z</time>
      </trkpt>
      <trkpt lat="46.7412" lon="6.18706">
        <ele>1034</ele>
        <time>2026-05-13T08:10:04Z</time>
      </trkpt>
      <trkpt lat="46.74126" lon="6.18711">
        <ele>1034</ele>
        <time>2026-05-13T08:10:05Z</time>
      </trkpt>
      <trkpt lat="46.7415" lon="6.18726">
        <ele>1034.2</ele>
        <time>2026-05-13T08:10:10Z</time>
      </trkpt>
      <trkpt lat="46.74155" lon="6.1873">
        <ele>1034.2</ele>
        <time>2026-05-13T08:10:11Z</time>
      </trkpt>
      <trkpt lat="46.74171" lon="6.18741">
        <ele>1034.4</ele>
        <time>2026-05-13T08:10:14Z</time>
      </trkpt>
      <trkpt lat="46.74183" lon="6.18748">
        <ele>1034.6</ele>
        <time>2026-05-13T08:10:16Z</time>
      </trkpt>
      <trkpt lat="46.74209" lon="6.18768">
        <ele>1035</ele>
        <time>2026-05-13T08:10:22Z</time>
      </trkpt>
      <trkpt lat="46.74227" lon="6.18779">
        <ele>1035.2</ele>
        <time>2026-05-13T08:10:25Z</time>
      </trkpt>
      <trkpt lat="46.74233" lon="6.18784">
        <ele>1035.2</ele>
        <time>2026-05-13T08:10:26Z</time>
      </trkpt>
      <trkpt lat="46.74239" lon="6.18788">
        <ele>1035.2</ele>
        <time>2026-05-13T08:10:27Z</time>
      </trkpt>
      <trkpt lat="46.74266" lon="6.18806">
        <ele>1035.4</ele>
        <time>2026-05-13T08:10:32Z</time>
      </trkpt>
      <trkpt lat="46.74307" lon="6.18833">
        <ele>1035.6</ele>
        <time>2026-05-13T08:10:39Z</time>
      </trkpt>
      <trkpt lat="46.74312" lon="6.18835">
        <ele>1035.6</ele>
        <time>2026-05-13T08:10:40Z</time>
      </trkpt>
      <trkpt lat="46.74353" lon="6.18868">
        <ele>1036.4</ele>
        <time>2026-05-13T08:10:48Z</time>
      </trkpt>
      <trkpt lat="46.74384" lon="6.18889">
        <ele>1036.6</ele>
        <time>2026-05-13T08:10:54Z</time>
      </trkpt>
      <trkpt lat="46.74399" lon="6.18901">
        <ele>1036.6</ele>
        <time>2026-05-13T08:10:57Z</time>
      </trkpt>
      <trkpt lat="46.74437" lon="6.18935">
        <ele>1037</ele>
        <time>2026-05-13T08:11:05Z</time>
      </trkpt>
      <trkpt lat="46.74449" lon="6.18944">
        <ele>1037.2</ele>
        <time>2026-05-13T08:11:07Z</time>
      </trkpt>
      <trkpt lat="46.74476" lon="6.1896">
        <ele>1037.2</ele>
        <time>2026-05-13T08:11:12Z</time>
      </trkpt>
      <trkpt lat="46.74498" lon="6.18971">
        <ele>1037.6</ele>
        <time>2026-05-13T08:11:16Z</time>
      </trkpt>
      <trkpt lat="46.74514" lon="6.1898">
        <ele>1037.8</ele>
        <time>2026-05-13T08:11:19Z</time>
      </trkpt>
      <trkpt lat="46.74554" lon="6.18998">
        <ele>1038.4</ele>
        <time>2026-05-13T08:11:26Z</time>
      </trkpt>
      <trkpt lat="46.7456" lon="6.18999">
        <ele>1038.4</ele>
        <time>2026-05-13T08:11:27Z</time>
      </trkpt>
      <trkpt lat="46.74566" lon="6.18999">
        <ele>1038.6</ele>
        <time>2026-05-13T08:11:28Z</time>
      </trkpt>
      <trkpt lat="46.74585" lon="6.18994">
        <ele>1038.6</ele>
        <time>2026-05-13T08:11:31Z</time>
      </trkpt>
      <trkpt lat="46.74591" lon="6.18992">
        <ele>1038.6</ele>
        <time>2026-05-13T08:11:32Z</time>
      </trkpt>
      <trkpt lat="46.74596" lon="6.18988">
        <ele>1038.8</ele>
        <time>2026-05-13T08:11:33Z</time>
      </trkpt>
      <trkpt lat="46.74612" lon="6.18975">
        <ele>1039</ele>
        <time>2026-05-13T08:11:36Z</time>
      </trkpt>
      <trkpt lat="46.74645" lon="6.18946">
        <ele>1039.6</ele>
        <time>2026-05-13T08:11:43Z</time>
      </trkpt>
      <trkpt lat="46.74657" lon="6.18935">
        <ele>1039.8</ele>
        <time>2026-05-13T08:11:46Z</time>
      </trkpt>
      <trkpt lat="46.74663" lon="6.18927">
        <ele>1040.4</ele>
        <time>2026-05-13T08:11:48Z</time>
      </trkpt>
      <trkpt lat="46.74667" lon="6.18923">
        <ele>1040.6</ele>
        <time>2026-05-13T08:11:49Z</time>
      </trkpt>
      <trkpt lat="46.74675" lon="6.18915">
        <ele>1041</ele>
        <time>2026-05-13T08:11:51Z</time>
      </trkpt>
      <trkpt lat="46.74683" lon="6.18907">
        <ele>1041.4</ele>
        <time>2026-05-13T08:11:53Z</time>
      </trkpt>
      <trkpt lat="46.74695" lon="6.18895">
        <ele>1041.8</ele>
        <time>2026-05-13T08:11:56Z</time>
      </trkpt>
      <trkpt lat="46.74701" lon="6.18884">
        <ele>1042</ele>
        <time>2026-05-13T08:11:58Z</time>
      </trkpt>
      <trkpt lat="46.74705" lon="6.18878">
        <ele>1042.2</ele>
        <time>2026-05-13T08:11:59Z</time>
      </trkpt>
      <trkpt lat="46.74711" lon="6.18868">
        <ele>1042.6</ele>
        <time>2026-05-13T08:12:01Z</time>
      </trkpt>
      <trkpt lat="46.74718" lon="6.18851">
        <ele>1043.2</ele>
        <time>2026-05-13T08:12:04Z</time>
      </trkpt>
      <trkpt lat="46.74717" lon="6.18824">
        <ele>1043.8</ele>
        <time>2026-05-13T08:12:09Z</time>
      </trkpt>
      <trkpt lat="46.74713" lon="6.18798">
        <ele>1044.4</ele>
        <time>2026-05-13T08:12:13Z</time>
      </trkpt>
      <trkpt lat="46.74712" lon="6.18792">
        <ele>1044.6</ele>
        <time>2026-05-13T08:12:14Z</time>
      </trkpt>
      <trkpt lat="46.74707" lon="6.1875">
        <ele>1045.2</ele>
        <time>2026-05-13T08:12:20Z</time>
      </trkpt>
      <trkpt lat="46.74706" lon="6.18744">
        <ele>1045.4</ele>
        <time>2026-05-13T08:12:21Z</time>
      </trkpt>
      <trkpt lat="46.74699" lon="6.18717">
        <ele>1046</ele>
        <time>2026-05-13T08:12:25Z</time>
      </trkpt>
      <trkpt lat="46.74694" lon="6.18702">
        <ele>1046.4</ele>
        <time>2026-05-13T08:12:28Z</time>
      </trkpt>
      <trkpt lat="46.74691" lon="6.18685">
        <ele>1046.6</ele>
        <time>2026-05-13T08:12:31Z</time>
      </trkpt>
      <trkpt lat="46.74685" lon="6.18644">
        <ele>1047</ele>
        <time>2026-05-13T08:12:37Z</time>
      </trkpt>
      <trkpt lat="46.74685" lon="6.18635">
        <ele>1047.2</ele>
        <time>2026-05-13T08:12:38Z</time>
      </trkpt>
      <trkpt lat="46.74689" lon="6.18622">
        <ele>1047.2</ele>
        <time>2026-05-13T08:12:40Z</time>
      </trkpt>
      <trkpt lat="46.74693" lon="6.18616">
        <ele>1047.4</ele>
        <time>2026-05-13T08:12:41Z</time>
      </trkpt>
      <trkpt lat="46.74697" lon="6.18613">
        <ele>1047.4</ele>
        <time>2026-05-13T08:12:42Z</time>
      </trkpt>
      <trkpt lat="46.74708" lon="6.18609">
        <ele>1047.8</ele>
        <time>2026-05-13T08:12:44Z</time>
      </trkpt>
      <trkpt lat="46.74712" lon="6.18609">
        <ele>1047.8</ele>
        <time>2026-05-13T08:12:45Z</time>
      </trkpt>
      <trkpt lat="46.74717" lon="6.1861">
        <ele>1048</ele>
        <time>2026-05-13T08:12:46Z</time>
      </trkpt>
      <trkpt lat="46.74725" lon="6.18616">
        <ele>1048.4</ele>
        <time>2026-05-13T08:12:48Z</time>
      </trkpt>
      <trkpt lat="46.74728" lon="6.1862">
        <ele>1048.6</ele>
        <time>2026-05-13T08:12:49Z</time>
      </trkpt>
      <trkpt lat="46.74754" lon="6.18641">
        <ele>1049.6</ele>
        <time>2026-05-13T08:12:56Z</time>
      </trkpt>
      <trkpt lat="46.74758" lon="6.18644">
        <ele>1049.6</ele>
        <time>2026-05-13T08:12:57Z</time>
      </trkpt>
      <trkpt lat="46.74762" lon="6.18646">
        <ele>1049.8</ele>
        <time>2026-05-13T08:12:58Z</time>
      </trkpt>
      <trkpt lat="46.7477" lon="6.18649">
        <ele>1050</ele>
        <time>2026-05-13T08:13:00Z</time>
      </trkpt>
      <trkpt lat="46.74778" lon="6.18652">
        <ele>1050.2</ele>
        <time>2026-05-13T08:13:02Z</time>
      </trkpt>
      <trkpt lat="46.7479" lon="6.18655">
        <ele>1050.6</ele>
        <time>2026-05-13T08:13:05Z</time>
      </trkpt>
      <trkpt lat="46.74799" lon="6.18657">
        <ele>1050.8</ele>
        <time>2026-05-13T08:13:07Z</time>
      </trkpt>
      <trkpt lat="46.74834" lon="6.18672">
        <ele>1052.2</ele>
        <time>2026-05-13T08:13:15Z</time>
      </trkpt>
      <trkpt lat="46.7486" lon="6.18682">
        <ele>1053.2</ele>
        <time>2026-05-13T08:13:21Z</time>
      </trkpt>
      <trkpt lat="46.7487" lon="6.18684">
        <ele>1053.4</ele>
        <time>2026-05-13T08:13:23Z</time>
      </trkpt>
      <trkpt lat="46.74874" lon="6.18685">
        <ele>1053.4</ele>
        <time>2026-05-13T08:13:24Z</time>
      </trkpt>
      <trkpt lat="46.74902" lon="6.18683">
        <ele>1054.4</ele>
        <time>2026-05-13T08:13:30Z</time>
      </trkpt>
      <trkpt lat="46.74937" lon="6.1867">
        <ele>1055.2</ele>
        <time>2026-05-13T08:13:38Z</time>
      </trkpt>
      <trkpt lat="46.74948" lon="6.18665">
        <ele>1055.6</ele>
        <time>2026-05-13T08:13:41Z</time>
      </trkpt>
      <trkpt lat="46.74959" lon="6.18661">
        <ele>1055.6</ele>
        <time>2026-05-13T08:13:43Z</time>
      </trkpt>
      <trkpt lat="46.74978" lon="6.18655">
        <ele>1056</ele>
        <time>2026-05-13T08:13:47Z</time>
      </trkpt>
      <trkpt lat="46.74989" lon="6.18654">
        <ele>1056</ele>
        <time>2026-05-13T08:13:49Z</time>
      </trkpt>
      <trkpt lat="46.74994" lon="6.18656">
        <ele>1056</ele>
        <time>2026-05-13T08:13:50Z</time>
      </trkpt>
      <trkpt lat="46.75007" lon="6.1866">
        <ele>1056.4</ele>
        <time>2026-05-13T08:13:53Z</time>
      </trkpt>
      <trkpt lat="46.75036" lon="6.18666">
        <ele>1057.4</ele>
        <time>2026-05-13T08:13:59Z</time>
      </trkpt>
      <trkpt lat="46.75053" lon="6.18672">
        <ele>1058</ele>
        <time>2026-05-13T08:14:03Z</time>
      </trkpt>
      <trkpt lat="46.75058" lon="6.18672">
        <ele>1058.2</ele>
        <time>2026-05-13T08:14:04Z</time>
      </trkpt>
      <trkpt lat="46.75079" lon="6.18659">
        <ele>1058.4</ele>
        <time>2026-05-13T08:14:09Z</time>
      </trkpt>
      <trkpt lat="46.75083" lon="6.18654">
        <ele>1058.6</ele>
        <time>2026-05-13T08:14:10Z</time>
      </trkpt>
      <trkpt lat="46.75096" lon="6.18637">
        <ele>1058.6</ele>
        <time>2026-05-13T08:14:14Z</time>
      </trkpt>
      <trkpt lat="46.75102" lon="6.18628">
        <ele>1059</ele>
        <time>2026-05-13T08:14:16Z</time>
      </trkpt>
      <trkpt lat="46.75116" lon="6.18604">
        <ele>1059.4</ele>
        <time>2026-05-13T08:14:21Z</time>
      </trkpt>
      <trkpt lat="46.75121" lon="6.18593">
        <ele>1059.8</ele>
        <time>2026-05-13T08:14:23Z</time>
      </trkpt>
      <trkpt lat="46.75124" lon="6.18587">
        <ele>1060</ele>
        <time>2026-05-13T08:14:24Z</time>
      </trkpt>
      <trkpt lat="46.75133" lon="6.18565">
        <ele>1060.6</ele>
        <time>2026-05-13T08:14:28Z</time>
      </trkpt>
      <trkpt lat="46.75136" lon="6.1856">
        <ele>1060.6</ele>
        <time>2026-05-13T08:14:29Z</time>
      </trkpt>
      <trkpt lat="46.75142" lon="6.1855">
        <ele>1060.8</ele>
        <time>2026-05-13T08:14:31Z</time>
      </trkpt>
      <trkpt lat="46.75145" lon="6.18546">
        <ele>1060.8</ele>
        <time>2026-05-13T08:14:32Z</time>
      </trkpt>
      <trkpt lat="46.7516" lon="6.18527">
        <ele>1061.4</ele>
        <time>2026-05-13T08:14:36Z</time>
      </trkpt>
      <trkpt lat="46.75164" lon="6.18524">
        <ele>1061.6</ele>
        <time>2026-05-13T08:14:37Z</time>
      </trkpt>
      <trkpt lat="46.75171" lon="6.18519">
        <ele>1061.8</ele>
        <time>2026-05-13T08:14:39Z</time>
      </trkpt>
      <trkpt lat="46.75179" lon="6.18515">
        <ele>1062.4</ele>
        <time>2026-05-13T08:14:42Z</time>
      </trkpt>
      <trkpt lat="46.75182" lon="6.18513">
        <ele>1062.6</ele>
        <time>2026-05-13T08:14:43Z</time>
      </trkpt>
      <trkpt lat="46.75187" lon="6.1851">
        <ele>1063</ele>
        <time>2026-05-13T08:14:45Z</time>
      </trkpt>
      <trkpt lat="46.7519" lon="6.18506">
        <ele>1063</ele>
        <time>2026-05-13T08:14:46Z</time>
      </trkpt>
      <trkpt lat="46.75208" lon="6.18496">
        <ele>1063.8</ele>
        <time>2026-05-13T08:14:51Z</time>
      </trkpt>
      <trkpt lat="46.75224" lon="6.18489">
        <ele>1064.6</ele>
        <time>2026-05-13T08:14:55Z</time>
      </trkpt>
      <trkpt lat="46.7523" lon="6.18485">
        <ele>1064.8</ele>
        <time>2026-05-13T08:14:57Z</time>
      </trkpt>
      <trkpt lat="46.75241" lon="6.18482">
        <ele>1065.2</ele>
        <time>2026-05-13T08:14:59Z</time>
      </trkpt>
      <trkpt lat="46.75266" lon="6.1847">
        <ele>1065.8</ele>
        <time>2026-05-13T08:15:04Z</time>
      </trkpt>
      <trkpt lat="46.7527" lon="6.18469">
        <ele>1066</ele>
        <time>2026-05-13T08:15:05Z</time>
      </trkpt>
      <trkpt lat="46.75291" lon="6.18461">
        <ele>1066.6</ele>
        <time>2026-05-13T08:15:10Z</time>
      </trkpt>
      <trkpt lat="46.75304" lon="6.18459">
        <ele>1066.8</ele>
        <time>2026-05-13T08:15:13Z</time>
      </trkpt>
      <trkpt lat="46.75307" lon="6.18458">
        <ele>1066.8</ele>
        <time>2026-05-13T08:15:14Z</time>
      </trkpt>
      <trkpt lat="46.75334" lon="6.18455">
        <ele>1067.6</ele>
        <time>2026-05-13T08:15:19Z</time>
      </trkpt>
      <trkpt lat="46.7535" lon="6.18447">
        <ele>1067.8</ele>
        <time>2026-05-13T08:15:23Z</time>
      </trkpt>
      <trkpt lat="46.75355" lon="6.18446">
        <ele>1067.8</ele>
        <time>2026-05-13T08:15:24Z</time>
      </trkpt>
      <trkpt lat="46.75381" lon="6.18442">
        <ele>1068.4</ele>
        <time>2026-05-13T08:15:29Z</time>
      </trkpt>
      <trkpt lat="46.75391" lon="6.18437">
        <ele>1069</ele>
        <time>2026-05-13T08:15:32Z</time>
      </trkpt>
      <trkpt lat="46.75417" lon="6.18429">
        <ele>1069.6</ele>
        <time>2026-05-13T08:15:37Z</time>
      </trkpt>
      <trkpt lat="46.75441" lon="6.18422">
        <ele>1070.4</ele>
        <time>2026-05-13T08:15:42Z</time>
      </trkpt>
      <trkpt lat="46.75462" lon="6.18426">
        <ele>1071</ele>
        <time>2026-05-13T08:15:47Z</time>
      </trkpt>
      <trkpt lat="46.75477" lon="6.18428">
        <ele>1071.2</ele>
        <time>2026-05-13T08:15:51Z</time>
      </trkpt>
      <trkpt lat="46.7548" lon="6.18428">
        <ele>1071.4</ele>
        <time>2026-05-13T08:15:52Z</time>
      </trkpt>
      <trkpt lat="46.75495" lon="6.18425">
        <ele>1071.6</ele>
        <time>2026-05-13T08:15:55Z</time>
      </trkpt>
      <trkpt lat="46.75518" lon="6.18421">
        <ele>1072</ele>
        <time>2026-05-13T08:15:59Z</time>
      </trkpt>
      <trkpt lat="46.75527" lon="6.18423">
        <ele>1072.2</ele>
        <time>2026-05-13T08:16:01Z</time>
      </trkpt>
      <trkpt lat="46.75535" lon="6.18425">
        <ele>1072.4</ele>
        <time>2026-05-13T08:16:02Z</time>
      </trkpt>
      <trkpt lat="46.75545" lon="6.18427">
        <ele>1072.6</ele>
        <time>2026-05-13T08:16:04Z</time>
      </trkpt>
      <trkpt lat="46.75547" lon="6.18429">
        <ele>1072.8</ele>
        <time>2026-05-13T08:16:05Z</time>
      </trkpt>
      <trkpt lat="46.75561" lon="6.1844">
        <ele>1073.4</ele>
        <time>2026-05-13T08:16:09Z</time>
      </trkpt>
      <trkpt lat="46.75585" lon="6.18455">
        <ele>1074.4</ele>
        <time>2026-05-13T08:16:15Z</time>
      </trkpt>
      <trkpt lat="46.75589" lon="6.18455">
        <ele>1074.4</ele>
        <time>2026-05-13T08:16:16Z</time>
      </trkpt>
      <trkpt lat="46.7561" lon="6.18443">
        <ele>1075.2</ele>
        <time>2026-05-13T08:16:21Z</time>
      </trkpt>
      <trkpt lat="46.75618" lon="6.18436">
        <ele>1075.4</ele>
        <time>2026-05-13T08:16:23Z</time>
      </trkpt>
      <trkpt lat="46.75633" lon="6.18423">
        <ele>1076.2</ele>
        <time>2026-05-13T08:16:27Z</time>
      </trkpt>
      <trkpt lat="46.75637" lon="6.18419">
        <ele>1076.4</ele>
        <time>2026-05-13T08:16:28Z</time>
      </trkpt>
      <trkpt lat="46.7564" lon="6.18415">
        <ele>1076.4</ele>
        <time>2026-05-13T08:16:29Z</time>
      </trkpt>
      <trkpt lat="46.75643" lon="6.18412">
        <ele>1076.6</ele>
        <time>2026-05-13T08:16:30Z</time>
      </trkpt>
      <trkpt lat="46.75646" lon="6.18408">
        <ele>1076.8</ele>
        <time>2026-05-13T08:16:31Z</time>
      </trkpt>
      <trkpt lat="46.75651" lon="6.18401">
        <ele>1077.2</ele>
        <time>2026-05-13T08:16:33Z</time>
      </trkpt>
      <trkpt lat="46.75654" lon="6.18397">
        <ele>1077.2</ele>
        <time>2026-05-13T08:16:34Z</time>
      </trkpt>
      <trkpt lat="46.75668" lon="6.18383">
        <ele>1077.6</ele>
        <time>2026-05-13T08:16:38Z</time>
      </trkpt>
      <trkpt lat="46.75687" lon="6.18366">
        <ele>1079</ele>
        <time>2026-05-13T08:16:43Z</time>
      </trkpt>
      <trkpt lat="46.75695" lon="6.18361">
        <ele>1079.4</ele>
        <time>2026-05-13T08:16:45Z</time>
      </trkpt>
      <trkpt lat="46.75703" lon="6.18356">
        <ele>1079.6</ele>
        <time>2026-05-13T08:16:47Z</time>
      </trkpt>
      <trkpt lat="46.75718" lon="6.18344">
        <ele>1079.8</ele>
        <time>2026-05-13T08:16:51Z</time>
      </trkpt>
      <trkpt lat="46.75727" lon="6.18339">
        <ele>1080.2</ele>
        <time>2026-05-13T08:16:53Z</time>
      </trkpt>
      <trkpt lat="46.75757" lon="6.18319">
        <ele>1080.8</ele>
        <time>2026-05-13T08:17:00Z</time>
      </trkpt>
      <trkpt lat="46.75765" lon="6.18311">
        <ele>1080.8</ele>
        <time>2026-05-13T08:17:02Z</time>
      </trkpt>
      <trkpt lat="46.75772" lon="6.18303">
        <ele>1081</ele>
        <time>2026-05-13T08:17:04Z</time>
      </trkpt>
      <trkpt lat="46.75775" lon="6.18299">
        <ele>1081</ele>
        <time>2026-05-13T08:17:05Z</time>
      </trkpt>
      <trkpt lat="46.7578" lon="6.18291">
        <ele>1080.8</ele>
        <time>2026-05-13T08:17:08Z</time>
      </trkpt>
      <trkpt lat="46.75778" lon="6.1829">
        <ele>1080.6</ele>
        <time>2026-05-13T08:17:11Z</time>
      </trkpt>
      <trkpt lat="46.7577" lon="6.18302">
        <ele>1080.2</ele>
        <time>2026-05-13T08:17:16Z</time>
      </trkpt>
      <trkpt lat="46.75755" lon="6.18316">
        <ele>1080.2</ele>
        <time>2026-05-13T08:17:22Z</time>
      </trkpt>
      <trkpt lat="46.75742" lon="6.18323">
        <ele>1080.4</ele>
        <time>2026-05-13T08:17:28Z</time>
      </trkpt>
      <trkpt lat="46.75741" lon="6.18324">
        <ele>1080.6</ele>
        <time>2026-05-13T08:17:32Z</time>
      </trkpt>
      <trkpt lat="46.75748" lon="6.18327">
        <ele>1080.6</ele>
        <time>2026-05-13T08:21:27Z</time>
      </trkpt>
      <trkpt lat="46.7576" lon="6.18317">
        <ele>1080.6</ele>
        <time>2026-05-13T08:21:32Z</time>
      </trkpt>
      <trkpt lat="46.75773" lon="6.18304">
        <ele>1080.6</ele>
        <time>2026-05-13T08:21:37Z</time>
      </trkpt>
      <trkpt lat="46.75796" lon="6.18275">
        <ele>1080</ele>
        <time>2026-05-13T08:21:45Z</time>
      </trkpt>
      <trkpt lat="46.75799" lon="6.18271">
        <ele>1080</ele>
        <time>2026-05-13T08:21:46Z</time>
      </trkpt>
      <trkpt lat="46.75813" lon="6.18252">
        <ele>1079.4</ele>
        <time>2026-05-13T08:21:50Z</time>
      </trkpt>
      <trkpt lat="46.75817" lon="6.18247">
        <ele>1079.4</ele>
        <time>2026-05-13T08:21:51Z</time>
      </trkpt>
      <trkpt lat="46.75822" lon="6.18242">
        <ele>1079.2</ele>
        <time>2026-05-13T08:21:52Z</time>
      </trkpt>
      <trkpt lat="46.75835" lon="6.18228">
        <ele>1078.8</ele>
        <time>2026-05-13T08:21:55Z</time>
      </trkpt>
      <trkpt lat="46.75862" lon="6.18202">
        <ele>1078.2</ele>
        <time>2026-05-13T08:22:00Z</time>
      </trkpt>
      <trkpt lat="46.75889" lon="6.18182">
        <ele>1077.6</ele>
        <time>2026-05-13T08:22:04Z</time>
      </trkpt>
      <trkpt lat="46.75895" lon="6.18179">
        <ele>1077.2</ele>
        <time>2026-05-13T08:22:05Z</time>
      </trkpt>
      <trkpt lat="46.75903" lon="6.18178">
        <ele>1076.6</ele>
        <time>2026-05-13T08:22:06Z</time>
      </trkpt>
      <trkpt lat="46.75917" lon="6.18181">
        <ele>1075.8</ele>
        <time>2026-05-13T08:22:08Z</time>
      </trkpt>
      <trkpt lat="46.75932" lon="6.18185">
        <ele>1074.6</ele>
        <time>2026-05-13T08:22:10Z</time>
      </trkpt>
      <trkpt lat="46.75945" lon="6.18191">
        <ele>1073.8</ele>
        <time>2026-05-13T08:22:12Z</time>
      </trkpt>
      <trkpt lat="46.75951" lon="6.18189">
        <ele>1073.6</ele>
        <time>2026-05-13T08:22:13Z</time>
      </trkpt>
      <trkpt lat="46.75958" lon="6.18183">
        <ele>1073.2</ele>
        <time>2026-05-13T08:22:14Z</time>
      </trkpt>
      <trkpt lat="46.75968" lon="6.18166">
        <ele>1072.4</ele>
        <time>2026-05-13T08:22:16Z</time>
      </trkpt>
      <trkpt lat="46.75969" lon="6.18156">
        <ele>1072</ele>
        <time>2026-05-13T08:22:17Z</time>
      </trkpt>
      <trkpt lat="46.75969" lon="6.18145">
        <ele>1071.8</ele>
        <time>2026-05-13T08:22:18Z</time>
      </trkpt>
      <trkpt lat="46.75968" lon="6.18133">
        <ele>1071.2</ele>
        <time>2026-05-13T08:22:19Z</time>
      </trkpt>
      <trkpt lat="46.75965" lon="6.18121">
        <ele>1071</ele>
        <time>2026-05-13T08:22:20Z</time>
      </trkpt>
      <trkpt lat="46.75958" lon="6.18095">
        <ele>1069.8</ele>
        <time>2026-05-13T08:22:22Z</time>
      </trkpt>
      <trkpt lat="46.75952" lon="6.18068">
        <ele>1068.4</ele>
        <time>2026-05-13T08:22:24Z</time>
      </trkpt>
      <trkpt lat="46.75943" lon="6.1804">
        <ele>1067.2</ele>
        <time>2026-05-13T08:22:26Z</time>
      </trkpt>
      <trkpt lat="46.75931" lon="6.18021">
        <ele>1066</ele>
        <time>2026-05-13T08:22:28Z</time>
      </trkpt>
      <trkpt lat="46.75913" lon="6.1801">
        <ele>1064.6</ele>
        <time>2026-05-13T08:22:30Z</time>
      </trkpt>
      <trkpt lat="46.75903" lon="6.18006">
        <ele>1063.8</ele>
        <time>2026-05-13T08:22:31Z</time>
      </trkpt>
      <trkpt lat="46.75895" lon="6.18">
        <ele>1063</ele>
        <time>2026-05-13T08:22:32Z</time>
      </trkpt>
      <trkpt lat="46.75882" lon="6.17982">
        <ele>1062</ele>
        <time>2026-05-13T08:22:34Z</time>
      </trkpt>
      <trkpt lat="46.75876" lon="6.17973">
        <ele>1061.6</ele>
        <time>2026-05-13T08:22:35Z</time>
      </trkpt>
      <trkpt lat="46.75863" lon="6.17942">
        <ele>1060.6</ele>
        <time>2026-05-13T08:22:38Z</time>
      </trkpt>
      <trkpt lat="46.75859" lon="6.1793">
        <ele>1060.2</ele>
        <time>2026-05-13T08:22:39Z</time>
      </trkpt>
      <trkpt lat="46.75852" lon="6.1791">
        <ele>1059.8</ele>
        <time>2026-05-13T08:22:41Z</time>
      </trkpt>
      <trkpt lat="46.75841" lon="6.17892">
        <ele>1059.6</ele>
        <time>2026-05-13T08:22:43Z</time>
      </trkpt>
      <trkpt lat="46.75835" lon="6.17884">
        <ele>1059.2</ele>
        <time>2026-05-13T08:22:44Z</time>
      </trkpt>
      <trkpt lat="46.75821" lon="6.17867">
        <ele>1058.8</ele>
        <time>2026-05-13T08:22:46Z</time>
      </trkpt>
      <trkpt lat="46.75804" lon="6.17856">
        <ele>1058</ele>
        <time>2026-05-13T08:22:48Z</time>
      </trkpt>
      <trkpt lat="46.75777" lon="6.17851">
        <ele>1056.8</ele>
        <time>2026-05-13T08:22:51Z</time>
      </trkpt>
      <trkpt lat="46.75763" lon="6.17839">
        <ele>1056</ele>
        <time>2026-05-13T08:22:53Z</time>
      </trkpt>
      <trkpt lat="46.75758" lon="6.17829">
        <ele>1055.6</ele>
        <time>2026-05-13T08:22:54Z</time>
      </trkpt>
      <trkpt lat="46.75753" lon="6.17815">
        <ele>1055.4</ele>
        <time>2026-05-13T08:22:55Z</time>
      </trkpt>
      <trkpt lat="46.75749" lon="6.17789">
        <ele>1054</ele>
        <time>2026-05-13T08:22:57Z</time>
      </trkpt>
      <trkpt lat="46.75736" lon="6.17737">
        <ele>1053.2</ele>
        <time>2026-05-13T08:23:01Z</time>
      </trkpt>
      <trkpt lat="46.75734" lon="6.17724">
        <ele>1052.8</ele>
        <time>2026-05-13T08:23:02Z</time>
      </trkpt>
      <trkpt lat="46.75734" lon="6.1771">
        <ele>1052.8</ele>
        <time>2026-05-13T08:23:03Z</time>
      </trkpt>
      <trkpt lat="46.75736" lon="6.17698">
        <ele>1052.6</ele>
        <time>2026-05-13T08:23:04Z</time>
      </trkpt>
      <trkpt lat="46.75739" lon="6.17687">
        <ele>1052.2</ele>
        <time>2026-05-13T08:23:05Z</time>
      </trkpt>
      <trkpt lat="46.7575" lon="6.17668">
        <ele>1051.8</ele>
        <time>2026-05-13T08:23:07Z</time>
      </trkpt>
      <trkpt lat="46.75763" lon="6.17656">
        <ele>1051.6</ele>
        <time>2026-05-13T08:23:09Z</time>
      </trkpt>
      <trkpt lat="46.75777" lon="6.17647">
        <ele>1051.6</ele>
        <time>2026-05-13T08:23:11Z</time>
      </trkpt>
      <trkpt lat="46.75806" lon="6.17629">
        <ele>1052.2</ele>
        <time>2026-05-13T08:23:16Z</time>
      </trkpt>
      <trkpt lat="46.75821" lon="6.1762">
        <ele>1052.8</ele>
        <time>2026-05-13T08:23:19Z</time>
      </trkpt>
      <trkpt lat="46.75845" lon="6.17607">
        <ele>1053.2</ele>
        <time>2026-05-13T08:23:23Z</time>
      </trkpt>
      <trkpt lat="46.75861" lon="6.17598">
        <ele>1053.8</ele>
        <time>2026-05-13T08:23:27Z</time>
      </trkpt>
      <trkpt lat="46.75868" lon="6.17593">
        <ele>1054.2</ele>
        <time>2026-05-13T08:23:30Z</time>
      </trkpt>
      <trkpt lat="46.75883" lon="6.17581">
        <ele>1054.8</ele>
        <time>2026-05-13T08:23:35Z</time>
      </trkpt>
      <trkpt lat="46.75896" lon="6.1757">
        <ele>1056</ele>
        <time>2026-05-13T08:23:40Z</time>
      </trkpt>
      <trkpt lat="46.75904" lon="6.17562">
        <ele>1057</ele>
        <time>2026-05-13T08:23:44Z</time>
      </trkpt>
      <trkpt lat="46.7592" lon="6.17545">
        <ele>1058.2</ele>
        <time>2026-05-13T08:23:50Z</time>
      </trkpt>
      <trkpt lat="46.7592" lon="6.17545">
        <ele>1058.4</ele>
        <time>2026-05-13T08:23:51Z</time>
      </trkpt>
      <trkpt lat="46.75931" lon="6.17532">
        <ele>1059.4</ele>
        <time>2026-05-13T08:23:56Z</time>
      </trkpt>
      <trkpt lat="46.75948" lon="6.17512">
        <ele>1060.4</ele>
        <time>2026-05-13T08:24:03Z</time>
      </trkpt>
      <trkpt lat="46.75963" lon="6.17491">
        <ele>1061.6</ele>
        <time>2026-05-13T08:24:11Z</time>
      </trkpt>
      <trkpt lat="46.75967" lon="6.17486">
        <ele>1062.2</ele>
        <time>2026-05-13T08:24:14Z</time>
      </trkpt>
      <trkpt lat="46.75973" lon="6.17478">
        <ele>1062.8</ele>
        <time>2026-05-13T08:24:17Z</time>
      </trkpt>
      <trkpt lat="46.75982" lon="6.17463">
        <ele>1063.4</ele>
        <time>2026-05-13T08:24:21Z</time>
      </trkpt>
      <trkpt lat="46.75986" lon="6.17454">
        <ele>1064</ele>
        <time>2026-05-13T08:24:24Z</time>
      </trkpt>
      <trkpt lat="46.75994" lon="6.17441">
        <ele>1065</ele>
        <time>2026-05-13T08:24:29Z</time>
      </trkpt>
      <trkpt lat="46.75996" lon="6.17438">
        <ele>1065</ele>
        <time>2026-05-13T08:24:30Z</time>
      </trkpt>
      <trkpt lat="46.76005" lon="6.17419">
        <ele>1066.2</ele>
        <time>2026-05-13T08:24:36Z</time>
      </trkpt>
      <trkpt lat="46.76007" lon="6.17416">
        <ele>1066.4</ele>
        <time>2026-05-13T08:24:37Z</time>
      </trkpt>
      <trkpt lat="46.76012" lon="6.17407">
        <ele>1067.4</ele>
        <time>2026-05-13T08:24:41Z</time>
      </trkpt>
      <trkpt lat="46.76021" lon="6.17393">
        <ele>1068.2</ele>
        <time>2026-05-13T08:24:46Z</time>
      </trkpt>
      <trkpt lat="46.76027" lon="6.17383">
        <ele>1068.6</ele>
        <time>2026-05-13T08:24:48Z</time>
      </trkpt>
      <trkpt lat="46.76038" lon="6.17366">
        <ele>1069.6</ele>
        <time>2026-05-13T08:24:54Z</time>
      </trkpt>
      <trkpt lat="46.7604" lon="6.17363">
        <ele>1069.8</ele>
        <time>2026-05-13T08:24:55Z</time>
      </trkpt>
      <trkpt lat="46.76049" lon="6.17351">
        <ele>1070.8</ele>
        <time>2026-05-13T08:25:00Z</time>
      </trkpt>
      <trkpt lat="46.76056" lon="6.1734">
        <ele>1071.6</ele>
        <time>2026-05-13T08:25:04Z</time>
      </trkpt>
      <trkpt lat="46.76058" lon="6.17337">
        <ele>1071.8</ele>
        <time>2026-05-13T08:25:06Z</time>
      </trkpt>
      <trkpt lat="46.7607" lon="6.17319">
        <ele>1072.8</ele>
        <time>2026-05-13T08:25:12Z</time>
      </trkpt>
      <trkpt lat="46.76085" lon="6.17295">
        <ele>1074</ele>
        <time>2026-05-13T08:25:20Z</time>
      </trkpt>
      <trkpt lat="46.761" lon="6.17271">
        <ele>1075</ele>
        <time>2026-05-13T08:25:27Z</time>
      </trkpt>
      <trkpt lat="46.76106" lon="6.17261">
        <ele>1075.4</ele>
        <time>2026-05-13T08:25:30Z</time>
      </trkpt>
      <trkpt lat="46.76114" lon="6.17248">
        <ele>1076.2</ele>
        <time>2026-05-13T08:25:34Z</time>
      </trkpt>
      <trkpt lat="46.76118" lon="6.17241">
        <ele>1076.8</ele>
        <time>2026-05-13T08:25:37Z</time>
      </trkpt>
      <trkpt lat="46.76126" lon="6.17231">
        <ele>1077.2</ele>
        <time>2026-05-13T08:25:40Z</time>
      </trkpt>
      <trkpt lat="46.76134" lon="6.17219">
        <ele>1078.4</ele>
        <time>2026-05-13T08:25:44Z</time>
      </trkpt>
      <trkpt lat="46.76141" lon="6.1721">
        <ele>1078.8</ele>
        <time>2026-05-13T08:25:47Z</time>
      </trkpt>
      <trkpt lat="46.76149" lon="6.17197">
        <ele>1079.4</ele>
        <time>2026-05-13T08:25:51Z</time>
      </trkpt>
      <trkpt lat="46.76162" lon="6.17182">
        <ele>1079.8</ele>
        <time>2026-05-13T08:25:56Z</time>
      </trkpt>
      <trkpt lat="46.76173" lon="6.17169">
        <ele>1080</ele>
        <time>2026-05-13T08:26:00Z</time>
      </trkpt>
      <trkpt lat="46.76197" lon="6.17149">
        <ele>1080.4</ele>
        <time>2026-05-13T08:26:07Z</time>
      </trkpt>
      <trkpt lat="46.76206" lon="6.17146">
        <ele>1080.4</ele>
        <time>2026-05-13T08:26:09Z</time>
      </trkpt>
      <trkpt lat="46.76223" lon="6.17138">
        <ele>1080.6</ele>
        <time>2026-05-13T08:26:13Z</time>
      </trkpt>
      <trkpt lat="46.76228" lon="6.17138">
        <ele>1080.8</ele>
        <time>2026-05-13T08:26:14Z</time>
      </trkpt>
      <trkpt lat="46.76252" lon="6.17133">
        <ele>1081.2</ele>
        <time>2026-05-13T08:26:20Z</time>
      </trkpt>
      <trkpt lat="46.7626" lon="6.17131">
        <ele>1081.6</ele>
        <time>2026-05-13T08:26:22Z</time>
      </trkpt>
      <trkpt lat="46.76278" lon="6.17126">
        <ele>1082.2</ele>
        <time>2026-05-13T08:26:27Z</time>
      </trkpt>
      <trkpt lat="46.7629" lon="6.17124">
        <ele>1082.6</ele>
        <time>2026-05-13T08:26:30Z</time>
      </trkpt>
      <trkpt lat="46.76308" lon="6.17122">
        <ele>1083.4</ele>
        <time>2026-05-13T08:26:35Z</time>
      </trkpt>
      <trkpt lat="46.76319" lon="6.1712">
        <ele>1083.8</ele>
        <time>2026-05-13T08:26:38Z</time>
      </trkpt>
      <trkpt lat="46.76338" lon="6.17114">
        <ele>1084.2</ele>
        <time>2026-05-13T08:26:43Z</time>
      </trkpt>
      <trkpt lat="46.76359" lon="6.17095">
        <ele>1084.4</ele>
        <time>2026-05-13T08:26:49Z</time>
      </trkpt>
      <trkpt lat="46.76391" lon="6.17062">
        <ele>1084.2</ele>
        <time>2026-05-13T08:26:57Z</time>
      </trkpt>
      <trkpt lat="46.76403" lon="6.17047">
        <ele>1084.2</ele>
        <time>2026-05-13T08:27:00Z</time>
      </trkpt>
      <trkpt lat="46.76414" lon="6.17028">
        <ele>1084.2</ele>
        <time>2026-05-13T08:27:03Z</time>
      </trkpt>
      <trkpt lat="46.76436" lon="6.16985">
        <ele>1083.2</ele>
        <time>2026-05-13T08:27:08Z</time>
      </trkpt>
      <trkpt lat="46.76442" lon="6.16976">
        <ele>1083</ele>
        <time>2026-05-13T08:27:09Z</time>
      </trkpt>
      <trkpt lat="46.76449" lon="6.16968">
        <ele>1082.4</ele>
        <time>2026-05-13T08:27:10Z</time>
      </trkpt>
      <trkpt lat="46.76455" lon="6.1696">
        <ele>1081.2</ele>
        <time>2026-05-13T08:27:12Z</time>
      </trkpt>
      <trkpt lat="46.76466" lon="6.1694">
        <ele>1080.8</ele>
        <time>2026-05-13T08:27:13Z</time>
      </trkpt>
      <trkpt lat="46.76471" lon="6.16929">
        <ele>1080.4</ele>
        <time>2026-05-13T08:27:14Z</time>
      </trkpt>
      <trkpt lat="46.76475" lon="6.16917">
        <ele>1079.8</ele>
        <time>2026-05-13T08:27:15Z</time>
      </trkpt>
      <trkpt lat="46.76482" lon="6.16875">
        <ele>1078</ele>
        <time>2026-05-13T08:27:18Z</time>
      </trkpt>
      <trkpt lat="46.76484" lon="6.16861">
        <ele>1077.6</ele>
        <time>2026-05-13T08:27:19Z</time>
      </trkpt>
      <trkpt lat="46.76488" lon="6.16847">
        <ele>1076.8</ele>
        <time>2026-05-13T08:27:20Z</time>
      </trkpt>
      <trkpt lat="46.76491" lon="6.16834">
        <ele>1075.6</ele>
        <time>2026-05-13T08:27:22Z</time>
      </trkpt>
      <trkpt lat="46.76501" lon="6.16806">
        <ele>1074.8</ele>
        <time>2026-05-13T08:27:23Z</time>
      </trkpt>
      <trkpt lat="46.76512" lon="6.16779">
        <ele>1074</ele>
        <time>2026-05-13T08:27:25Z</time>
      </trkpt>
      <trkpt lat="46.76518" lon="6.16766">
        <ele>1072.8</ele>
        <time>2026-05-13T08:27:27Z</time>
      </trkpt>
      <trkpt lat="46.76538" lon="6.16729">
        <ele>1071.6</ele>
        <time>2026-05-13T08:27:29Z</time>
      </trkpt>
      <trkpt lat="46.76551" lon="6.16705">
        <ele>1070</ele>
        <time>2026-05-13T08:27:31Z</time>
      </trkpt>
      <trkpt lat="46.76564" lon="6.16682">
        <ele>1068.6</ele>
        <time>2026-05-13T08:27:33Z</time>
      </trkpt>
      <trkpt lat="46.76574" lon="6.16656">
        <ele>1067.8</ele>
        <time>2026-05-13T08:27:35Z</time>
      </trkpt>
      <trkpt lat="46.76579" lon="6.16642">
        <ele>1066.8</ele>
        <time>2026-05-13T08:27:36Z</time>
      </trkpt>
      <trkpt lat="46.76592" lon="6.16616">
        <ele>1065.6</ele>
        <time>2026-05-13T08:27:38Z</time>
      </trkpt>
      <trkpt lat="46.766" lon="6.16605">
        <ele>1065.2</ele>
        <time>2026-05-13T08:27:39Z</time>
      </trkpt>
      <trkpt lat="46.76609" lon="6.16596">
        <ele>1064.4</ele>
        <time>2026-05-13T08:27:40Z</time>
      </trkpt>
      <trkpt lat="46.76628" lon="6.16578">
        <ele>1063.2</ele>
        <time>2026-05-13T08:27:42Z</time>
      </trkpt>
      <trkpt lat="46.76638" lon="6.1657">
        <ele>1062.4</ele>
        <time>2026-05-13T08:27:43Z</time>
      </trkpt>
      <trkpt lat="46.76648" lon="6.1656">
        <ele>1062</ele>
        <time>2026-05-13T08:27:44Z</time>
      </trkpt>
      <trkpt lat="46.76658" lon="6.16551">
        <ele>1060.8</ele>
        <time>2026-05-13T08:27:45Z</time>
      </trkpt>
      <trkpt lat="46.76669" lon="6.16542">
        <ele>1059.8</ele>
        <time>2026-05-13T08:27:46Z</time>
      </trkpt>
      <trkpt lat="46.7669" lon="6.16523">
        <ele>1058.4</ele>
        <time>2026-05-13T08:27:48Z</time>
      </trkpt>
      <trkpt lat="46.76701" lon="6.16515">
        <ele>1057.8</ele>
        <time>2026-05-13T08:27:49Z</time>
      </trkpt>
      <trkpt lat="46.76713" lon="6.16507">
        <ele>1056.2</ele>
        <time>2026-05-13T08:27:50Z</time>
      </trkpt>
      <trkpt lat="46.76724" lon="6.16501">
        <ele>1055</ele>
        <time>2026-05-13T08:27:51Z</time>
      </trkpt>
      <trkpt lat="46.76746" lon="6.1649">
        <ele>1053.2</ele>
        <time>2026-05-13T08:27:53Z</time>
      </trkpt>
      <trkpt lat="46.76756" lon="6.1648">
        <ele>1052.6</ele>
        <time>2026-05-13T08:27:54Z</time>
      </trkpt>
      <trkpt lat="46.76764" lon="6.16467">
        <ele>1051.4</ele>
        <time>2026-05-13T08:27:55Z</time>
      </trkpt>
      <trkpt lat="46.76772" lon="6.16453">
        <ele>1050.2</ele>
        <time>2026-05-13T08:27:56Z</time>
      </trkpt>
      <trkpt lat="46.76785" lon="6.16422">
        <ele>1048.4</ele>
        <time>2026-05-13T08:27:58Z</time>
      </trkpt>
      <trkpt lat="46.76801" lon="6.16395">
        <ele>1046.4</ele>
        <time>2026-05-13T08:28:00Z</time>
      </trkpt>
      <trkpt lat="46.76808" lon="6.16381">
        <ele>1045.2</ele>
        <time>2026-05-13T08:28:01Z</time>
      </trkpt>
      <trkpt lat="46.76815" lon="6.16346">
        <ele>1043.6</ele>
        <time>2026-05-13T08:28:03Z</time>
      </trkpt>
      <trkpt lat="46.76817" lon="6.16326">
        <ele>1043.2</ele>
        <time>2026-05-13T08:28:04Z</time>
      </trkpt>
      <trkpt lat="46.76819" lon="6.16309">
        <ele>1041.8</ele>
        <time>2026-05-13T08:28:05Z</time>
      </trkpt>
      <trkpt lat="46.7682" lon="6.16292">
        <ele>1040</ele>
        <time>2026-05-13T08:28:06Z</time>
      </trkpt>
      <trkpt lat="46.76826" lon="6.16258">
        <ele>1038.4</ele>
        <time>2026-05-13T08:28:08Z</time>
      </trkpt>
      <trkpt lat="46.76829" lon="6.1624">
        <ele>1037.6</ele>
        <time>2026-05-13T08:28:09Z</time>
      </trkpt>
      <trkpt lat="46.76832" lon="6.16223">
        <ele>1036.4</ele>
        <time>2026-05-13T08:28:10Z</time>
      </trkpt>
      <trkpt lat="46.76836" lon="6.16206">
        <ele>1035</ele>
        <time>2026-05-13T08:28:11Z</time>
      </trkpt>
      <trkpt lat="46.7684" lon="6.1619">
        <ele>1034.2</ele>
        <time>2026-05-13T08:28:12Z</time>
      </trkpt>
      <trkpt lat="46.76845" lon="6.16174">
        <ele>1032.8</ele>
        <time>2026-05-13T08:28:13Z</time>
      </trkpt>
      <trkpt lat="46.7685" lon="6.16159">
        <ele>1032.2</ele>
        <time>2026-05-13T08:28:14Z</time>
      </trkpt>
      <trkpt lat="46.76857" lon="6.16144">
        <ele>1030.8</ele>
        <time>2026-05-13T08:28:15Z</time>
      </trkpt>
      <trkpt lat="46.76864" lon="6.16129">
        <ele>1029.2</ele>
        <time>2026-05-13T08:28:17Z</time>
      </trkpt>
      <trkpt lat="46.7687" lon="6.16113">
        <ele>1027.8</ele>
        <time>2026-05-13T08:28:18Z</time>
      </trkpt>
      <trkpt lat="46.76891" lon="6.16066">
        <ele>1025.8</ele>
        <time>2026-05-13T08:28:20Z</time>
      </trkpt>
      <trkpt lat="46.76898" lon="6.1605">
        <ele>1023.8</ele>
        <time>2026-05-13T08:28:22Z</time>
      </trkpt>
      <trkpt lat="46.76914" lon="6.16014">
        <ele>1022.6</ele>
        <time>2026-05-13T08:28:23Z</time>
      </trkpt>
      <trkpt lat="46.76929" lon="6.15982">
        <ele>1020.8</ele>
        <time>2026-05-13T08:28:25Z</time>
      </trkpt>
      <trkpt lat="46.76936" lon="6.15965">
        <ele>1018.6</ele>
        <time>2026-05-13T08:28:27Z</time>
      </trkpt>
      <trkpt lat="46.7695" lon="6.15933">
        <ele>1017.4</ele>
        <time>2026-05-13T08:28:28Z</time>
      </trkpt>
      <trkpt lat="46.76964" lon="6.15901">
        <ele>1014.8</ele>
        <time>2026-05-13T08:28:30Z</time>
      </trkpt>
      <trkpt lat="46.76971" lon="6.15884">
        <ele>1013</ele>
        <time>2026-05-13T08:28:32Z</time>
      </trkpt>
      <trkpt lat="46.76984" lon="6.15851">
        <ele>1011.8</ele>
        <time>2026-05-13T08:28:33Z</time>
      </trkpt>
      <trkpt lat="46.76998" lon="6.15818">
        <ele>1010.2</ele>
        <time>2026-05-13T08:28:35Z</time>
      </trkpt>
      <trkpt lat="46.77012" lon="6.15784">
        <ele>1007.8</ele>
        <time>2026-05-13T08:28:37Z</time>
      </trkpt>
      <trkpt lat="46.77019" lon="6.15767">
        <ele>1006.8</ele>
        <time>2026-05-13T08:28:38Z</time>
      </trkpt>
      <trkpt lat="46.77031" lon="6.15737">
        <ele>1005</ele>
        <time>2026-05-13T08:28:40Z</time>
      </trkpt>
      <trkpt lat="46.77045" lon="6.15703">
        <ele>1003</ele>
        <time>2026-05-13T08:28:42Z</time>
      </trkpt>
      <trkpt lat="46.77052" lon="6.15687">
        <ele>1001.6</ele>
        <time>2026-05-13T08:28:43Z</time>
      </trkpt>
      <trkpt lat="46.7706" lon="6.15673">
        <ele>1000.8</ele>
        <time>2026-05-13T08:28:44Z</time>
      </trkpt>
      <trkpt lat="46.77069" lon="6.1566">
        <ele>999.6</ele>
        <time>2026-05-13T08:28:45Z</time>
      </trkpt>
      <trkpt lat="46.77079" lon="6.15648">
        <ele>998.8</ele>
        <time>2026-05-13T08:28:46Z</time>
      </trkpt>
      <trkpt lat="46.77089" lon="6.15637">
        <ele>997.6</ele>
        <time>2026-05-13T08:28:47Z</time>
      </trkpt>
      <trkpt lat="46.77099" lon="6.15626">
        <ele>995.8</ele>
        <time>2026-05-13T08:28:48Z</time>
      </trkpt>
      <trkpt lat="46.77119" lon="6.15603">
        <ele>993.4</ele>
        <time>2026-05-13T08:28:50Z</time>
      </trkpt>
      <trkpt lat="46.77128" lon="6.1559">
        <ele>992.6</ele>
        <time>2026-05-13T08:28:51Z</time>
      </trkpt>
      <trkpt lat="46.77137" lon="6.15576">
        <ele>991.2</ele>
        <time>2026-05-13T08:28:52Z</time>
      </trkpt>
      <trkpt lat="46.77145" lon="6.15561">
        <ele>990</ele>
        <time>2026-05-13T08:28:53Z</time>
      </trkpt>
      <trkpt lat="46.77161" lon="6.15532">
        <ele>988.2</ele>
        <time>2026-05-13T08:28:55Z</time>
      </trkpt>
      <trkpt lat="46.77169" lon="6.15517">
        <ele>987.4</ele>
        <time>2026-05-13T08:28:56Z</time>
      </trkpt>
      <trkpt lat="46.77177" lon="6.15502">
        <ele>985.8</ele>
        <time>2026-05-13T08:28:57Z</time>
      </trkpt>
      <trkpt lat="46.77185" lon="6.15487">
        <ele>984.4</ele>
        <time>2026-05-13T08:28:58Z</time>
      </trkpt>
      <trkpt lat="46.772" lon="6.15457">
        <ele>982</ele>
        <time>2026-05-13T08:29:00Z</time>
      </trkpt>
      <trkpt lat="46.77214" lon="6.15429">
        <ele>980.2</ele>
        <time>2026-05-13T08:29:02Z</time>
      </trkpt>
      <trkpt lat="46.77222" lon="6.15415">
        <ele>979</ele>
        <time>2026-05-13T08:29:03Z</time>
      </trkpt>
      <trkpt lat="46.77237" lon="6.1539">
        <ele>977.6</ele>
        <time>2026-05-13T08:29:05Z</time>
      </trkpt>
      <trkpt lat="46.77254" lon="6.15366">
        <ele>976</ele>
        <time>2026-05-13T08:29:07Z</time>
      </trkpt>
      <trkpt lat="46.77262" lon="6.15354">
        <ele>975.4</ele>
        <time>2026-05-13T08:29:08Z</time>
      </trkpt>
      <trkpt lat="46.7727" lon="6.15342">
        <ele>975</ele>
        <time>2026-05-13T08:29:09Z</time>
      </trkpt>
      <trkpt lat="46.77283" lon="6.15314">
        <ele>973.8</ele>
        <time>2026-05-13T08:29:11Z</time>
      </trkpt>
      <trkpt lat="46.77288" lon="6.15299">
        <ele>973.2</ele>
        <time>2026-05-13T08:29:12Z</time>
      </trkpt>
      <trkpt lat="46.77291" lon="6.15282">
        <ele>972.4</ele>
        <time>2026-05-13T08:29:13Z</time>
      </trkpt>
      <trkpt lat="46.77291" lon="6.15247">
        <ele>971</ele>
        <time>2026-05-13T08:29:15Z</time>
      </trkpt>
      <trkpt lat="46.77292" lon="6.15213">
        <ele>969</ele>
        <time>2026-05-13T08:29:17Z</time>
      </trkpt>
      <trkpt lat="46.77294" lon="6.15196">
        <ele>967.8</ele>
        <time>2026-05-13T08:29:18Z</time>
      </trkpt>
      <trkpt lat="46.77296" lon="6.1518">
        <ele>967.4</ele>
        <time>2026-05-13T08:29:19Z</time>
      </trkpt>
      <trkpt lat="46.773" lon="6.15164">
        <ele>966.6</ele>
        <time>2026-05-13T08:29:20Z</time>
      </trkpt>
      <trkpt lat="46.7731" lon="6.15132">
        <ele>965.2</ele>
        <time>2026-05-13T08:29:22Z</time>
      </trkpt>
      <trkpt lat="46.77316" lon="6.15116">
        <ele>964.2</ele>
        <time>2026-05-13T08:29:23Z</time>
      </trkpt>
      <trkpt lat="46.77322" lon="6.15101">
        <ele>963.8</ele>
        <time>2026-05-13T08:29:24Z</time>
      </trkpt>
      <trkpt lat="46.77335" lon="6.15069">
        <ele>962.2</ele>
        <time>2026-05-13T08:29:26Z</time>
      </trkpt>
      <trkpt lat="46.77342" lon="6.15053">
        <ele>961.2</ele>
        <time>2026-05-13T08:29:27Z</time>
      </trkpt>
      <trkpt lat="46.77357" lon="6.15017">
        <ele>959.4</ele>
        <time>2026-05-13T08:29:29Z</time>
      </trkpt>
      <trkpt lat="46.77362" lon="6.15004">
        <ele>958</ele>
        <time>2026-05-13T08:29:30Z</time>
      </trkpt>
      <trkpt lat="46.77376" lon="6.14975">
        <ele>956</ele>
        <time>2026-05-13T08:29:32Z</time>
      </trkpt>
      <trkpt lat="46.77384" lon="6.14963">
        <ele>954.6</ele>
        <time>2026-05-13T08:29:33Z</time>
      </trkpt>
      <trkpt lat="46.77392" lon="6.14952">
        <ele>954.2</ele>
        <time>2026-05-13T08:29:34Z</time>
      </trkpt>
      <trkpt lat="46.77402" lon="6.14943">
        <ele>952.8</ele>
        <time>2026-05-13T08:29:35Z</time>
      </trkpt>
      <trkpt lat="46.77412" lon="6.14936">
        <ele>952</ele>
        <time>2026-05-13T08:29:36Z</time>
      </trkpt>
      <trkpt lat="46.77423" lon="6.14931">
        <ele>950.4</ele>
        <time>2026-05-13T08:29:37Z</time>
      </trkpt>
      <trkpt lat="46.77435" lon="6.14927">
        <ele>949</ele>
        <time>2026-05-13T08:29:38Z</time>
      </trkpt>
      <trkpt lat="46.77458" lon="6.14921">
        <ele>947</ele>
        <time>2026-05-13T08:29:40Z</time>
      </trkpt>
      <trkpt lat="46.77482" lon="6.14912">
        <ele>944.8</ele>
        <time>2026-05-13T08:29:42Z</time>
      </trkpt>
      <trkpt lat="46.77494" lon="6.14906">
        <ele>943.2</ele>
        <time>2026-05-13T08:29:43Z</time>
      </trkpt>
      <trkpt lat="46.77505" lon="6.14898">
        <ele>942.4</ele>
        <time>2026-05-13T08:29:44Z</time>
      </trkpt>
      <trkpt lat="46.77516" lon="6.14889">
        <ele>941.4</ele>
        <time>2026-05-13T08:29:45Z</time>
      </trkpt>
      <trkpt lat="46.77537" lon="6.14871">
        <ele>939.4</ele>
        <time>2026-05-13T08:29:47Z</time>
      </trkpt>
      <trkpt lat="46.77559" lon="6.14851">
        <ele>938.2</ele>
        <time>2026-05-13T08:29:49Z</time>
      </trkpt>
      <trkpt lat="46.77579" lon="6.14831">
        <ele>937</ele>
        <time>2026-05-13T08:29:51Z</time>
      </trkpt>
      <trkpt lat="46.7759" lon="6.14821">
        <ele>935.8</ele>
        <time>2026-05-13T08:29:52Z</time>
      </trkpt>
      <trkpt lat="46.776" lon="6.1481">
        <ele>934.8</ele>
        <time>2026-05-13T08:29:53Z</time>
      </trkpt>
      <trkpt lat="46.7762" lon="6.14788">
        <ele>932.8</ele>
        <time>2026-05-13T08:29:55Z</time>
      </trkpt>
      <trkpt lat="46.7764" lon="6.14766">
        <ele>931.4</ele>
        <time>2026-05-13T08:29:57Z</time>
      </trkpt>
      <trkpt lat="46.77651" lon="6.14755">
        <ele>930.4</ele>
        <time>2026-05-13T08:29:58Z</time>
      </trkpt>
      <trkpt lat="46.77672" lon="6.14732">
        <ele>928.2</ele>
        <time>2026-05-13T08:30:00Z</time>
      </trkpt>
      <trkpt lat="46.77693" lon="6.14709">
        <ele>925.8</ele>
        <time>2026-05-13T08:30:02Z</time>
      </trkpt>
      <trkpt lat="46.77703" lon="6.14698">
        <ele>924.6</ele>
        <time>2026-05-13T08:30:03Z</time>
      </trkpt>
      <trkpt lat="46.77725" lon="6.14675">
        <ele>923.2</ele>
        <time>2026-05-13T08:30:05Z</time>
      </trkpt>
      <trkpt lat="46.77746" lon="6.14652">
        <ele>922</ele>
        <time>2026-05-13T08:30:07Z</time>
      </trkpt>
      <trkpt lat="46.77769" lon="6.14629">
        <ele>920.8</ele>
        <time>2026-05-13T08:30:09Z</time>
      </trkpt>
      <trkpt lat="46.7778" lon="6.14617">
        <ele>919.8</ele>
        <time>2026-05-13T08:30:10Z</time>
      </trkpt>
      <trkpt lat="46.77802" lon="6.14593">
        <ele>918.2</ele>
        <time>2026-05-13T08:30:12Z</time>
      </trkpt>
      <trkpt lat="46.77813" lon="6.14582">
        <ele>917.2</ele>
        <time>2026-05-13T08:30:13Z</time>
      </trkpt>
      <trkpt lat="46.77835" lon="6.14558">
        <ele>915.8</ele>
        <time>2026-05-13T08:30:15Z</time>
      </trkpt>
      <trkpt lat="46.77858" lon="6.14534">
        <ele>914</ele>
        <time>2026-05-13T08:30:17Z</time>
      </trkpt>
      <trkpt lat="46.77869" lon="6.14522">
        <ele>913</ele>
        <time>2026-05-13T08:30:18Z</time>
      </trkpt>
      <trkpt lat="46.77891" lon="6.14498">
        <ele>911</ele>
        <time>2026-05-13T08:30:20Z</time>
      </trkpt>
      <trkpt lat="46.77913" lon="6.14475">
        <ele>909.2</ele>
        <time>2026-05-13T08:30:22Z</time>
      </trkpt>
      <trkpt lat="46.77933" lon="6.14453">
        <ele>907.4</ele>
        <time>2026-05-13T08:30:24Z</time>
      </trkpt>
      <trkpt lat="46.77944" lon="6.14442">
        <ele>906.2</ele>
        <time>2026-05-13T08:30:25Z</time>
      </trkpt>
      <trkpt lat="46.77954" lon="6.14431">
        <ele>904.8</ele>
        <time>2026-05-13T08:30:27Z</time>
      </trkpt>
      <trkpt lat="46.77986" lon="6.14398">
        <ele>903.4</ele>
        <time>2026-05-13T08:30:29Z</time>
      </trkpt>
      <trkpt lat="46.77993" lon="6.1439">
        <ele>902.4</ele>
        <time>2026-05-13T08:30:30Z</time>
      </trkpt>
      <trkpt lat="46.78013" lon="6.1437">
        <ele>901.2</ele>
        <time>2026-05-13T08:30:32Z</time>
      </trkpt>
      <trkpt lat="46.78033" lon="6.14348">
        <ele>899.6</ele>
        <time>2026-05-13T08:30:34Z</time>
      </trkpt>
      <trkpt lat="46.78051" lon="6.14329">
        <ele>898.4</ele>
        <time>2026-05-13T08:30:36Z</time>
      </trkpt>
      <trkpt lat="46.7807" lon="6.14309">
        <ele>897</ele>
        <time>2026-05-13T08:30:38Z</time>
      </trkpt>
      <trkpt lat="46.78088" lon="6.14288">
        <ele>895.8</ele>
        <time>2026-05-13T08:30:40Z</time>
      </trkpt>
      <trkpt lat="46.78097" lon="6.14279">
        <ele>895.4</ele>
        <time>2026-05-13T08:30:41Z</time>
      </trkpt>
      <trkpt lat="46.78106" lon="6.14269">
        <ele>894.6</ele>
        <time>2026-05-13T08:30:42Z</time>
      </trkpt>
      <trkpt lat="46.78133" lon="6.1424">
        <ele>893.4</ele>
        <time>2026-05-13T08:30:45Z</time>
      </trkpt>
      <trkpt lat="46.78168" lon="6.14203">
        <ele>892.4</ele>
        <time>2026-05-13T08:30:49Z</time>
      </trkpt>
      <trkpt lat="46.78199" lon="6.14168">
        <ele>891.4</ele>
        <time>2026-05-13T08:30:53Z</time>
      </trkpt>
      <trkpt lat="46.78211" lon="6.1415">
        <ele>890.8</ele>
        <time>2026-05-13T08:30:55Z</time>
      </trkpt>
      <trkpt lat="46.78224" lon="6.14129">
        <ele>890</ele>
        <time>2026-05-13T08:30:57Z</time>
      </trkpt>
      <trkpt lat="46.78235" lon="6.14103">
        <ele>889.4</ele>
        <time>2026-05-13T08:30:59Z</time>
      </trkpt>
      <trkpt lat="46.78243" lon="6.14081">
        <ele>888.8</ele>
        <time>2026-05-13T08:31:01Z</time>
      </trkpt>
      <trkpt lat="46.78254" lon="6.14041">
        <ele>888</ele>
        <time>2026-05-13T08:31:04Z</time>
      </trkpt>
      <trkpt lat="46.78257" lon="6.14028">
        <ele>887.4</ele>
        <time>2026-05-13T08:31:05Z</time>
      </trkpt>
      <trkpt lat="46.78269" lon="6.13964">
        <ele>886.4</ele>
        <time>2026-05-13T08:31:10Z</time>
      </trkpt>
      <trkpt lat="46.78273" lon="6.13938">
        <ele>886.2</ele>
        <time>2026-05-13T08:31:12Z</time>
      </trkpt>
      <trkpt lat="46.78279" lon="6.13901">
        <ele>885.2</ele>
        <time>2026-05-13T08:31:15Z</time>
      </trkpt>
      <trkpt lat="46.78289" lon="6.1384">
        <ele>884</ele>
        <time>2026-05-13T08:31:20Z</time>
      </trkpt>
      <trkpt lat="46.78295" lon="6.13802">
        <ele>883.6</ele>
        <time>2026-05-13T08:31:23Z</time>
      </trkpt>
      <trkpt lat="46.78299" lon="6.13778">
        <ele>883</ele>
        <time>2026-05-13T08:31:25Z</time>
      </trkpt>
      <trkpt lat="46.78311" lon="6.13708">
        <ele>882.2</ele>
        <time>2026-05-13T08:31:31Z</time>
      </trkpt>
      <trkpt lat="46.78316" lon="6.13685">
        <ele>882</ele>
        <time>2026-05-13T08:31:33Z</time>
      </trkpt>
      <trkpt lat="46.78318" lon="6.13673">
        <ele>882</ele>
        <time>2026-05-13T08:31:34Z</time>
      </trkpt>
      <trkpt lat="46.78322" lon="6.13662">
        <ele>881.8</ele>
        <time>2026-05-13T08:31:35Z</time>
      </trkpt>
      <trkpt lat="46.7833" lon="6.13641">
        <ele>881.6</ele>
        <time>2026-05-13T08:31:37Z</time>
      </trkpt>
      <trkpt lat="46.78357" lon="6.13585">
        <ele>880.8</ele>
        <time>2026-05-13T08:31:43Z</time>
      </trkpt>
      <trkpt lat="46.78366" lon="6.13566">
        <ele>880.6</ele>
        <time>2026-05-13T08:31:45Z</time>
      </trkpt>
      <trkpt lat="46.78393" lon="6.13517">
        <ele>880.8</ele>
        <time>2026-05-13T08:31:51Z</time>
      </trkpt>
      <trkpt lat="46.78406" lon="6.13498">
        <ele>881</ele>
        <time>2026-05-13T08:31:54Z</time>
      </trkpt>
      <trkpt lat="46.7841" lon="6.13493">
        <ele>881.2</ele>
        <time>2026-05-13T08:31:55Z</time>
      </trkpt>
      <trkpt lat="46.78441" lon="6.13464">
        <ele>882.2</ele>
        <time>2026-05-13T08:32:01Z</time>
      </trkpt>
      <trkpt lat="46.78446" lon="6.13459">
        <ele>882.2</ele>
        <time>2026-05-13T08:32:02Z</time>
      </trkpt>
      <trkpt lat="46.78456" lon="6.13447">
        <ele>882.4</ele>
        <time>2026-05-13T08:32:04Z</time>
      </trkpt>
      <trkpt lat="46.78474" lon="6.13419">
        <ele>882.6</ele>
        <time>2026-05-13T08:32:08Z</time>
      </trkpt>
      <trkpt lat="46.78508" lon="6.13353">
        <ele>882.2</ele>
        <time>2026-05-13T08:32:16Z</time>
      </trkpt>
      <trkpt lat="46.78535" lon="6.133">
        <ele>881</ele>
        <time>2026-05-13T08:32:21Z</time>
      </trkpt>
      <trkpt lat="46.78539" lon="6.13292">
        <ele>880.6</ele>
        <time>2026-05-13T08:32:22Z</time>
      </trkpt>
      <trkpt lat="46.78557" lon="6.13258">
        <ele>880</ele>
        <time>2026-05-13T08:32:25Z</time>
      </trkpt>
      <trkpt lat="46.78572" lon="6.13228">
        <ele>879.2</ele>
        <time>2026-05-13T08:32:28Z</time>
      </trkpt>
      <trkpt lat="46.78578" lon="6.13219">
        <ele>878.6</ele>
        <time>2026-05-13T08:32:29Z</time>
      </trkpt>
      <trkpt lat="46.78603" lon="6.13183">
        <ele>878</ele>
        <time>2026-05-13T08:32:33Z</time>
      </trkpt>
      <trkpt lat="46.78616" lon="6.13168">
        <ele>877.6</ele>
        <time>2026-05-13T08:32:35Z</time>
      </trkpt>
      <trkpt lat="46.7863" lon="6.13153">
        <ele>877</ele>
        <time>2026-05-13T08:32:37Z</time>
      </trkpt>
      <trkpt lat="46.78671" lon="6.13112">
        <ele>876</ele>
        <time>2026-05-13T08:32:43Z</time>
      </trkpt>
      <trkpt lat="46.78684" lon="6.13099">
        <ele>875.8</ele>
        <time>2026-05-13T08:32:45Z</time>
      </trkpt>
      <trkpt lat="46.78736" lon="6.13052">
        <ele>875.6</ele>
        <time>2026-05-13T08:32:53Z</time>
      </trkpt>
      <trkpt lat="46.78741" lon="6.13047">
        <ele>875.6</ele>
        <time>2026-05-13T08:32:54Z</time>
      </trkpt>
      <trkpt lat="46.78784" lon="6.13001">
        <ele>875.2</ele>
        <time>2026-05-13T08:33:01Z</time>
      </trkpt>
      <trkpt lat="46.7879" lon="6.12994">
        <ele>875</ele>
        <time>2026-05-13T08:33:02Z</time>
      </trkpt>
      <trkpt lat="46.78795" lon="6.12989">
        <ele>874.8</ele>
        <time>2026-05-13T08:33:03Z</time>
      </trkpt>
      <trkpt lat="46.7881" lon="6.12976">
        <ele>874.4</ele>
        <time>2026-05-13T08:33:05Z</time>
      </trkpt>
      <trkpt lat="46.78825" lon="6.12968">
        <ele>873.8</ele>
        <time>2026-05-13T08:33:07Z</time>
      </trkpt>
      <trkpt lat="46.78841" lon="6.12967">
        <ele>872.8</ele>
        <time>2026-05-13T08:33:09Z</time>
      </trkpt>
      <trkpt lat="46.78848" lon="6.12968">
        <ele>872.6</ele>
        <time>2026-05-13T08:33:10Z</time>
      </trkpt>
      <trkpt lat="46.78856" lon="6.12969">
        <ele>872.4</ele>
        <time>2026-05-13T08:33:11Z</time>
      </trkpt>
      <trkpt lat="46.78909" lon="6.12979">
        <ele>872.2</ele>
        <time>2026-05-13T08:33:18Z</time>
      </trkpt>
      <trkpt lat="46.78938" lon="6.1297">
        <ele>872.2</ele>
        <time>2026-05-13T08:33:22Z</time>
      </trkpt>
      <trkpt lat="46.78971" lon="6.12944">
        <ele>872.2</ele>
        <time>2026-05-13T08:33:27Z</time>
      </trkpt>
      <trkpt lat="46.79023" lon="6.12903">
        <ele>872.4</ele>
        <time>2026-05-13T08:33:35Z</time>
      </trkpt>
      <trkpt lat="46.79037" lon="6.12891">
        <ele>872.4</ele>
        <time>2026-05-13T08:33:37Z</time>
      </trkpt>
      <trkpt lat="46.7906" lon="6.12863">
        <ele>872</ele>
        <time>2026-05-13T08:33:41Z</time>
      </trkpt>
      <trkpt lat="46.79071" lon="6.12848">
        <ele>871.8</ele>
        <time>2026-05-13T08:33:43Z</time>
      </trkpt>
      <trkpt lat="46.79085" lon="6.12822">
        <ele>871.2</ele>
        <time>2026-05-13T08:33:46Z</time>
      </trkpt>
      <trkpt lat="46.79093" lon="6.12808">
        <ele>871</ele>
        <time>2026-05-13T08:33:48Z</time>
      </trkpt>
      <trkpt lat="46.79102" lon="6.12801">
        <ele>870.8</ele>
        <time>2026-05-13T08:33:50Z</time>
      </trkpt>
      <trkpt lat="46.79109" lon="6.12809">
        <ele>870.8</ele>
        <time>2026-05-13T08:33:52Z</time>
      </trkpt>
      <trkpt lat="46.79114" lon="6.12834">
        <ele>870.8</ele>
        <time>2026-05-13T08:33:56Z</time>
      </trkpt>
      <trkpt lat="46.79115" lon="6.1284">
        <ele>871</ele>
        <time>2026-05-13T08:33:57Z</time>
      </trkpt>
      <trkpt lat="46.7912" lon="6.12871">
        <ele>871.8</ele>
        <time>2026-05-13T08:34:02Z</time>
      </trkpt>
      <trkpt lat="46.79123" lon="6.12903">
        <ele>872.8</ele>
        <time>2026-05-13T08:34:07Z</time>
      </trkpt>
      <trkpt lat="46.79124" lon="6.1291">
        <ele>873.2</ele>
        <time>2026-05-13T08:34:09Z</time>
      </trkpt>
      <trkpt lat="46.79126" lon="6.12944">
        <ele>874.4</ele>
        <time>2026-05-13T08:34:13Z</time>
      </trkpt>
      <trkpt lat="46.79127" lon="6.12965">
        <ele>875.2</ele>
        <time>2026-05-13T08:34:16Z</time>
      </trkpt>
      <trkpt lat="46.79129" lon="6.12982">
        <ele>875.4</ele>
        <time>2026-05-13T08:34:19Z</time>
      </trkpt>
      <trkpt lat="46.7913" lon="6.12994">
        <ele>875.6</ele>
        <time>2026-05-13T08:34:21Z</time>
      </trkpt>
      <trkpt lat="46.79134" lon="6.13055">
        <ele>876.4</ele>
        <time>2026-05-13T08:34:31Z</time>
      </trkpt>
      <trkpt lat="46.79135" lon="6.13067">
        <ele>876.6</ele>
        <time>2026-05-13T08:34:33Z</time>
      </trkpt>
      <trkpt lat="46.79147" lon="6.13125">
        <ele>876.8</ele>
        <time>2026-05-13T08:34:43Z</time>
      </trkpt>
      <trkpt lat="46.79151" lon="6.13137">
        <ele>877</ele>
        <time>2026-05-13T08:34:45Z</time>
      </trkpt>
      <trkpt lat="46.79163" lon="6.13166">
        <ele>877.6</ele>
        <time>2026-05-13T08:34:50Z</time>
      </trkpt>
      <trkpt lat="46.79165" lon="6.13173">
        <ele>877.8</ele>
        <time>2026-05-13T08:34:51Z</time>
      </trkpt>
      <trkpt lat="46.79176" lon="6.13204">
        <ele>878.8</ele>
        <time>2026-05-13T08:34:57Z</time>
      </trkpt>
      <trkpt lat="46.79178" lon="6.13209">
        <ele>879</ele>
        <time>2026-05-13T08:34:58Z</time>
      </trkpt>
      <trkpt lat="46.79188" lon="6.1324">
        <ele>879.8</ele>
        <time>2026-05-13T08:35:05Z</time>
      </trkpt>
      <trkpt lat="46.79206" lon="6.1329">
        <ele>881</ele>
        <time>2026-05-13T08:35:13Z</time>
      </trkpt>
      <trkpt lat="46.7921" lon="6.133">
        <ele>881.4</ele>
        <time>2026-05-13T08:35:15Z</time>
      </trkpt>
      <trkpt lat="46.79215" lon="6.13316">
        <ele>882</ele>
        <time>2026-05-13T08:35:18Z</time>
      </trkpt>
      <trkpt lat="46.79228" lon="6.13351">
        <ele>883.2</ele>
        <time>2026-05-13T08:35:25Z</time>
      </trkpt>
      <trkpt lat="46.7923" lon="6.13356">
        <ele>883.4</ele>
        <time>2026-05-13T08:35:26Z</time>
      </trkpt>
      <trkpt lat="46.79241" lon="6.13393">
        <ele>884.4</ele>
        <time>2026-05-13T08:35:32Z</time>
      </trkpt>
      <trkpt lat="46.79244" lon="6.13405">
        <ele>884.8</ele>
        <time>2026-05-13T08:35:34Z</time>
      </trkpt>
      <trkpt lat="46.79256" lon="6.13442">
        <ele>885.6</ele>
        <time>2026-05-13T08:35:40Z</time>
      </trkpt>
      <trkpt lat="46.79264" lon="6.13465">
        <ele>886.2</ele>
        <time>2026-05-13T08:35:44Z</time>
      </trkpt>
      <trkpt lat="46.7928" lon="6.13515">
        <ele>886.8</ele>
        <time>2026-05-13T08:35:52Z</time>
      </trkpt>
      <trkpt lat="46.79282" lon="6.13522">
        <ele>887</ele>
        <time>2026-05-13T08:35:53Z</time>
      </trkpt>
      <trkpt lat="46.79297" lon="6.1357">
        <ele>887.4</ele>
        <time>2026-05-13T08:36:00Z</time>
      </trkpt>
      <trkpt lat="46.79323" lon="6.13641">
        <ele>886.8</ele>
        <time>2026-05-13T08:36:09Z</time>
      </trkpt>
      <trkpt lat="46.7935" lon="6.13711">
        <ele>885.8</ele>
        <time>2026-05-13T08:36:17Z</time>
      </trkpt>
      <trkpt lat="46.79353" lon="6.1372">
        <ele>885.6</ele>
        <time>2026-05-13T08:36:18Z</time>
      </trkpt>
      <trkpt lat="46.7938" lon="6.13793">
        <ele>884.8</ele>
        <time>2026-05-13T08:36:26Z</time>
      </trkpt>
      <trkpt lat="46.79387" lon="6.13812">
        <ele>884.6</ele>
        <time>2026-05-13T08:36:28Z</time>
      </trkpt>
      <trkpt lat="46.79409" lon="6.13872">
        <ele>883.6</ele>
        <time>2026-05-13T08:36:34Z</time>
      </trkpt>
      <trkpt lat="46.79413" lon="6.13882">
        <ele>883.6</ele>
        <time>2026-05-13T08:36:35Z</time>
      </trkpt>
      <trkpt lat="46.7942" lon="6.13901">
        <ele>883.4</ele>
        <time>2026-05-13T08:36:37Z</time>
      </trkpt>
      <trkpt lat="46.79428" lon="6.13923">
        <ele>882.6</ele>
        <time>2026-05-13T08:36:40Z</time>
      </trkpt>
      <trkpt lat="46.79456" lon="6.14">
        <ele>882</ele>
        <time>2026-05-13T08:36:47Z</time>
      </trkpt>
      <trkpt lat="46.79463" lon="6.14017">
        <ele>882.2</ele>
        <time>2026-05-13T08:36:49Z</time>
      </trkpt>
      <trkpt lat="46.79478" lon="6.14059">
        <ele>882.6</ele>
        <time>2026-05-13T08:36:54Z</time>
      </trkpt>
      <trkpt lat="46.79501" lon="6.14111">
        <ele>883.8</ele>
        <time>2026-05-13T08:37:01Z</time>
      </trkpt>
      <trkpt lat="46.79531" lon="6.14147">
        <ele>884.4</ele>
        <time>2026-05-13T08:37:07Z</time>
      </trkpt>
      <trkpt lat="46.79569" lon="6.14176">
        <ele>884.6</ele>
        <time>2026-05-13T08:37:14Z</time>
      </trkpt>
      <trkpt lat="46.79606" lon="6.14198">
        <ele>884.2</ele>
        <time>2026-05-13T08:37:18Z</time>
      </trkpt>
      <trkpt lat="46.79651" lon="6.14228">
        <ele>882.6</ele>
        <time>2026-05-13T08:37:24Z</time>
      </trkpt>
      <trkpt lat="46.79658" lon="6.14234">
        <ele>882.4</ele>
        <time>2026-05-13T08:37:25Z</time>
      </trkpt>
      <trkpt lat="46.79689" lon="6.14259">
        <ele>881.2</ele>
        <time>2026-05-13T08:37:29Z</time>
      </trkpt>
      <trkpt lat="46.79726" lon="6.14291">
        <ele>880.2</ele>
        <time>2026-05-13T08:37:34Z</time>
      </trkpt>
      <trkpt lat="46.79755" lon="6.14316">
        <ele>879</ele>
        <time>2026-05-13T08:37:38Z</time>
      </trkpt>
      <trkpt lat="46.79791" lon="6.14346">
        <ele>878.2</ele>
        <time>2026-05-13T08:37:43Z</time>
      </trkpt>
      <trkpt lat="46.79829" lon="6.14376">
        <ele>877.8</ele>
        <time>2026-05-13T08:37:48Z</time>
      </trkpt>
      <trkpt lat="46.79868" lon="6.14408">
        <ele>876.8</ele>
        <time>2026-05-13T08:37:53Z</time>
      </trkpt>
      <trkpt lat="46.79876" lon="6.14415">
        <ele>876.6</ele>
        <time>2026-05-13T08:37:54Z</time>
      </trkpt>
      <trkpt lat="46.799" lon="6.14436">
        <ele>875.8</ele>
        <time>2026-05-13T08:37:57Z</time>
      </trkpt>
      <trkpt lat="46.79931" lon="6.14465">
        <ele>874.6</ele>
        <time>2026-05-13T08:38:01Z</time>
      </trkpt>
      <trkpt lat="46.79938" lon="6.14472">
        <ele>874.6</ele>
        <time>2026-05-13T08:38:02Z</time>
      </trkpt>
      <trkpt lat="46.79968" lon="6.145">
        <ele>873.4</ele>
        <time>2026-05-13T08:38:06Z</time>
      </trkpt>
      <trkpt lat="46.8" lon="6.14532">
        <ele>872.4</ele>
        <time>2026-05-13T08:38:10Z</time>
      </trkpt>
      <trkpt lat="46.80021" lon="6.1456">
        <ele>871.2</ele>
        <time>2026-05-13T08:38:13Z</time>
      </trkpt>
      <trkpt lat="46.80035" lon="6.1458">
        <ele>870.4</ele>
        <time>2026-05-13T08:38:15Z</time>
      </trkpt>
      <trkpt lat="46.80041" lon="6.1459">
        <ele>869.8</ele>
        <time>2026-05-13T08:38:16Z</time>
      </trkpt>
      <trkpt lat="46.80068" lon="6.14632">
        <ele>868.4</ele>
        <time>2026-05-13T08:38:20Z</time>
      </trkpt>
      <trkpt lat="46.80085" lon="6.14662">
        <ele>867.6</ele>
        <time>2026-05-13T08:38:23Z</time>
      </trkpt>
      <trkpt lat="46.80097" lon="6.14683">
        <ele>867</ele>
        <time>2026-05-13T08:38:25Z</time>
      </trkpt>
      <trkpt lat="46.80115" lon="6.14716">
        <ele>866.4</ele>
        <time>2026-05-13T08:38:28Z</time>
      </trkpt>
      <trkpt lat="46.80139" lon="6.1476">
        <ele>865</ele>
        <time>2026-05-13T08:38:32Z</time>
      </trkpt>
      <trkpt lat="46.80151" lon="6.14783">
        <ele>864.4</ele>
        <time>2026-05-13T08:38:34Z</time>
      </trkpt>
      <trkpt lat="46.80157" lon="6.14794">
        <ele>864</ele>
        <time>2026-05-13T08:38:35Z</time>
      </trkpt>
      <trkpt lat="46.80181" lon="6.1484">
        <ele>862.8</ele>
        <time>2026-05-13T08:38:39Z</time>
      </trkpt>
      <trkpt lat="46.80195" lon="6.14865">
        <ele>862</ele>
        <time>2026-05-13T08:38:41Z</time>
      </trkpt>
      <trkpt lat="46.80201" lon="6.14877">
        <ele>861.6</ele>
        <time>2026-05-13T08:38:42Z</time>
      </trkpt>
      <trkpt lat="46.80221" lon="6.14913">
        <ele>860</ele>
        <time>2026-05-13T08:38:45Z</time>
      </trkpt>
      <trkpt lat="46.80233" lon="6.14937">
        <ele>858.8</ele>
        <time>2026-05-13T08:38:47Z</time>
      </trkpt>
      <trkpt lat="46.80244" lon="6.14959">
        <ele>858.2</ele>
        <time>2026-05-13T08:38:49Z</time>
      </trkpt>
      <trkpt lat="46.80252" lon="6.14974">
        <ele>857.4</ele>
        <time>2026-05-13T08:38:50Z</time>
      </trkpt>
      <trkpt lat="46.80268" lon="6.15009">
        <ele>856</ele>
        <time>2026-05-13T08:38:53Z</time>
      </trkpt>
      <trkpt lat="46.80273" lon="6.15022">
        <ele>855.8</ele>
        <time>2026-05-13T08:38:54Z</time>
      </trkpt>
      <trkpt lat="46.80278" lon="6.15037">
        <ele>855.2</ele>
        <time>2026-05-13T08:38:55Z</time>
      </trkpt>
      <trkpt lat="46.80285" lon="6.15063">
        <ele>854.6</ele>
        <time>2026-05-13T08:38:57Z</time>
      </trkpt>
      <trkpt lat="46.80288" lon="6.15074">
        <ele>854.4</ele>
        <time>2026-05-13T08:38:58Z</time>
      </trkpt>
      <trkpt lat="46.80311" lon="6.15149">
        <ele>853.8</ele>
        <time>2026-05-13T08:39:04Z</time>
      </trkpt>
      <trkpt lat="46.80317" lon="6.15159">
        <ele>853.8</ele>
        <time>2026-05-13T08:39:05Z</time>
      </trkpt>
      <trkpt lat="46.80329" lon="6.15177">
        <ele>853.6</ele>
        <time>2026-05-13T08:39:07Z</time>
      </trkpt>
      <trkpt lat="46.80335" lon="6.15184">
        <ele>853.6</ele>
        <time>2026-05-13T08:39:08Z</time>
      </trkpt>
      <trkpt lat="46.80381" lon="6.1524">
        <ele>852.8</ele>
        <time>2026-05-13T08:39:15Z</time>
      </trkpt>
      <trkpt lat="46.80396" lon="6.15258">
        <ele>852.8</ele>
        <time>2026-05-13T08:39:17Z</time>
      </trkpt>
      <trkpt lat="46.80427" lon="6.15298">
        <ele>852.8</ele>
        <time>2026-05-13T08:39:22Z</time>
      </trkpt>
      <trkpt lat="46.80437" lon="6.15314">
        <ele>852.8</ele>
        <time>2026-05-13T08:39:24Z</time>
      </trkpt>
      <trkpt lat="46.80443" lon="6.15325">
        <ele>852.4</ele>
        <time>2026-05-13T08:39:25Z</time>
      </trkpt>
      <trkpt lat="46.80453" lon="6.15341">
        <ele>851.6</ele>
        <time>2026-05-13T08:39:27Z</time>
      </trkpt>
      <trkpt lat="46.80464" lon="6.15353">
        <ele>851.2</ele>
        <time>2026-05-13T08:39:29Z</time>
      </trkpt>
      <trkpt lat="46.80474" lon="6.15358">
        <ele>850.8</ele>
        <time>2026-05-13T08:39:31Z</time>
      </trkpt>
      <trkpt lat="46.80479" lon="6.15362">
        <ele>850.8</ele>
        <time>2026-05-13T08:39:32Z</time>
      </trkpt>
      <trkpt lat="46.80482" lon="6.15367">
        <ele>850.6</ele>
        <time>2026-05-13T08:39:33Z</time>
      </trkpt>
      <trkpt lat="46.80486" lon="6.15383">
        <ele>850.6</ele>
        <time>2026-05-13T08:39:35Z</time>
      </trkpt>
      <trkpt lat="46.80492" lon="6.15466">
        <ele>850.6</ele>
        <time>2026-05-13T08:39:44Z</time>
      </trkpt>
      <trkpt lat="46.80497" lon="6.15527">
        <ele>851</ele>
        <time>2026-05-13T08:39:51Z</time>
      </trkpt>
      <trkpt lat="46.80505" lon="6.15605">
        <ele>852</ele>
        <time>2026-05-13T08:40:00Z</time>
      </trkpt>
      <trkpt lat="46.80506" lon="6.15615">
        <ele>852</ele>
        <time>2026-05-13T08:40:01Z</time>
      </trkpt>
      <trkpt lat="46.80514" lon="6.15696">
        <ele>852</ele>
        <time>2026-05-13T08:40:10Z</time>
      </trkpt>
      <trkpt lat="46.80516" lon="6.15715">
        <ele>852</ele>
        <time>2026-05-13T08:40:12Z</time>
      </trkpt>
      <trkpt lat="46.80524" lon="6.15796">
        <ele>852</ele>
        <time>2026-05-13T08:40:20Z</time>
      </trkpt>
      <trkpt lat="46.80526" lon="6.15815">
        <ele>852</ele>
        <time>2026-05-13T08:40:22Z</time>
      </trkpt>
      <trkpt lat="46.80534" lon="6.15899">
        <ele>852.4</ele>
        <time>2026-05-13T08:40:31Z</time>
      </trkpt>
      <trkpt lat="46.80536" lon="6.1592">
        <ele>852.4</ele>
        <time>2026-05-13T08:40:33Z</time>
      </trkpt>
      <trkpt lat="46.80544" lon="6.15998">
        <ele>852.4</ele>
        <time>2026-05-13T08:40:41Z</time>
      </trkpt>
      <trkpt lat="46.80546" lon="6.16018">
        <ele>852.4</ele>
        <time>2026-05-13T08:40:43Z</time>
      </trkpt>
      <trkpt lat="46.80555" lon="6.16097">
        <ele>852.4</ele>
        <time>2026-05-13T08:40:51Z</time>
      </trkpt>
      <trkpt lat="46.80558" lon="6.16123">
        <ele>852.4</ele>
        <time>2026-05-13T08:40:54Z</time>
      </trkpt>
      <trkpt lat="46.80565" lon="6.16203">
        <ele>852.8</ele>
        <time>2026-05-13T08:41:02Z</time>
      </trkpt>
      <trkpt lat="46.80572" lon="6.16265">
        <ele>853.2</ele>
        <time>2026-05-13T08:41:09Z</time>
      </trkpt>
      <trkpt lat="46.80575" lon="6.16291">
        <ele>853.8</ele>
        <time>2026-05-13T08:41:12Z</time>
      </trkpt>
      <trkpt lat="46.80575" lon="6.16299">
        <ele>854.2</ele>
        <time>2026-05-13T08:41:13Z</time>
      </trkpt>
      <trkpt lat="46.80576" lon="6.16307">
        <ele>854.4</ele>
        <time>2026-05-13T08:41:14Z</time>
      </trkpt>
      <trkpt lat="46.8058" lon="6.16336">
        <ele>855.4</ele>
        <time>2026-05-13T08:41:18Z</time>
      </trkpt>
      <trkpt lat="46.80582" lon="6.16361">
        <ele>855.8</ele>
        <time>2026-05-13T08:41:21Z</time>
      </trkpt>
      <trkpt lat="46.80584" lon="6.16383">
        <ele>856.4</ele>
        <time>2026-05-13T08:41:24Z</time>
      </trkpt>
      <trkpt lat="46.80586" lon="6.16421">
        <ele>857.4</ele>
        <time>2026-05-13T08:41:29Z</time>
      </trkpt>
      <trkpt lat="46.80589" lon="6.16466">
        <ele>858.6</ele>
        <time>2026-05-13T08:41:35Z</time>
      </trkpt>
      <trkpt lat="46.8059" lon="6.16482">
        <ele>858.8</ele>
        <time>2026-05-13T08:41:37Z</time>
      </trkpt>
      <trkpt lat="46.80595" lon="6.16565">
        <ele>858.8</ele>
        <time>2026-05-13T08:41:47Z</time>
      </trkpt>
      <trkpt lat="46.806" lon="6.1665">
        <ele>858.6</ele>
        <time>2026-05-13T08:41:56Z</time>
      </trkpt>
      <trkpt lat="46.806" lon="6.16661">
        <ele>858.6</ele>
        <time>2026-05-13T08:41:57Z</time>
      </trkpt>
      <trkpt lat="46.80603" lon="6.16739">
        <ele>857.6</ele>
        <time>2026-05-13T08:42:04Z</time>
      </trkpt>
      <trkpt lat="46.80604" lon="6.16751">
        <ele>857.4</ele>
        <time>2026-05-13T08:42:05Z</time>
      </trkpt>
      <trkpt lat="46.80606" lon="6.16788">
        <ele>856.6</ele>
        <time>2026-05-13T08:42:08Z</time>
      </trkpt>
      <trkpt lat="46.80608" lon="6.16838">
        <ele>855.4</ele>
        <time>2026-05-13T08:42:12Z</time>
      </trkpt>
      <trkpt lat="46.80611" lon="6.16899">
        <ele>854.2</ele>
        <time>2026-05-13T08:42:17Z</time>
      </trkpt>
      <trkpt lat="46.80613" lon="6.16934">
        <ele>853.6</ele>
        <time>2026-05-13T08:42:20Z</time>
      </trkpt>
      <trkpt lat="46.80616" lon="6.17">
        <ele>853.2</ele>
        <time>2026-05-13T08:42:26Z</time>
      </trkpt>
      <trkpt lat="46.80617" lon="6.17021">
        <ele>853</ele>
        <time>2026-05-13T08:42:28Z</time>
      </trkpt>
      <trkpt lat="46.80622" lon="6.17096">
        <ele>853</ele>
        <time>2026-05-13T08:42:36Z</time>
      </trkpt>
      <trkpt lat="46.80625" lon="6.17174">
        <ele>854.2</ele>
        <time>2026-05-13T08:42:45Z</time>
      </trkpt>
      <trkpt lat="46.80626" lon="6.17185">
        <ele>854.4</ele>
        <time>2026-05-13T08:42:46Z</time>
      </trkpt>
      <trkpt lat="46.8063" lon="6.17259">
        <ele>854.2</ele>
        <time>2026-05-13T08:42:54Z</time>
      </trkpt>
      <trkpt lat="46.80635" lon="6.17347">
        <ele>853.8</ele>
        <time>2026-05-13T08:43:03Z</time>
      </trkpt>
      <trkpt lat="46.80639" lon="6.17418">
        <ele>853.2</ele>
        <time>2026-05-13T08:43:10Z</time>
      </trkpt>
      <trkpt lat="46.80642" lon="6.17458">
        <ele>853</ele>
        <time>2026-05-13T08:43:14Z</time>
      </trkpt>
      <trkpt lat="46.80647" lon="6.17532">
        <ele>853</ele>
        <time>2026-05-13T08:43:22Z</time>
      </trkpt>
      <trkpt lat="46.8065" lon="6.17599">
        <ele>854.2</ele>
        <time>2026-05-13T08:43:30Z</time>
      </trkpt>
      <trkpt lat="46.80651" lon="6.17622">
        <ele>854.8</ele>
        <time>2026-05-13T08:43:33Z</time>
      </trkpt>
      <trkpt lat="46.80654" lon="6.17658">
        <ele>855.4</ele>
        <time>2026-05-13T08:43:38Z</time>
      </trkpt>
      <trkpt lat="46.80655" lon="6.17666">
        <ele>855.8</ele>
        <time>2026-05-13T08:43:39Z</time>
      </trkpt>
      <trkpt lat="46.80658" lon="6.17714">
        <ele>856.8</ele>
        <time>2026-05-13T08:43:46Z</time>
      </trkpt>
      <trkpt lat="46.80661" lon="6.17764">
        <ele>858</ele>
        <time>2026-05-13T08:43:53Z</time>
      </trkpt>
      <trkpt lat="46.80662" lon="6.17785">
        <ele>858.4</ele>
        <time>2026-05-13T08:43:56Z</time>
      </trkpt>
      <trkpt lat="46.80663" lon="6.17804">
        <ele>859.2</ele>
        <time>2026-05-13T08:43:59Z</time>
      </trkpt>
      <trkpt lat="46.80664" lon="6.17832">
        <ele>859.8</ele>
        <time>2026-05-13T08:44:04Z</time>
      </trkpt>
      <trkpt lat="46.80664" lon="6.17837">
        <ele>860.2</ele>
        <time>2026-05-13T08:44:05Z</time>
      </trkpt>
      <trkpt lat="46.80666" lon="6.17864">
        <ele>861.6</ele>
        <time>2026-05-13T08:44:10Z</time>
      </trkpt>
      <trkpt lat="46.80667" lon="6.1787">
        <ele>862.2</ele>
        <time>2026-05-13T08:44:11Z</time>
      </trkpt>
      <trkpt lat="46.80668" lon="6.17893">
        <ele>863</ele>
        <time>2026-05-13T08:44:15Z</time>
      </trkpt>
      <trkpt lat="46.80669" lon="6.1792">
        <ele>863.2</ele>
        <time>2026-05-13T08:44:19Z</time>
      </trkpt>
      <trkpt lat="46.80673" lon="6.17973">
        <ele>863.2</ele>
        <time>2026-05-13T08:44:26Z</time>
      </trkpt>
      <trkpt lat="46.80677" lon="6.18021">
        <ele>862.6</ele>
        <time>2026-05-13T08:44:31Z</time>
      </trkpt>
      <trkpt lat="46.80681" lon="6.18071">
        <ele>861.8</ele>
        <time>2026-05-13T08:44:36Z</time>
      </trkpt>
      <trkpt lat="46.80682" lon="6.18091">
        <ele>861.2</ele>
        <time>2026-05-13T08:44:38Z</time>
      </trkpt>
      <trkpt lat="46.80685" lon="6.1811">
        <ele>861.2</ele>
        <time>2026-05-13T08:44:40Z</time>
      </trkpt>
      <trkpt lat="46.80692" lon="6.18138">
        <ele>860.8</ele>
        <time>2026-05-13T08:44:43Z</time>
      </trkpt>
      <trkpt lat="46.80696" lon="6.18156">
        <ele>860.8</ele>
        <time>2026-05-13T08:44:45Z</time>
      </trkpt>
      <trkpt lat="46.80714" lon="6.18217">
        <ele>860.4</ele>
        <time>2026-05-13T08:44:52Z</time>
      </trkpt>
      <trkpt lat="46.80735" lon="6.18288">
        <ele>860.2</ele>
        <time>2026-05-13T08:45:00Z</time>
      </trkpt>
      <trkpt lat="46.80746" lon="6.18324">
        <ele>860.4</ele>
        <time>2026-05-13T08:45:04Z</time>
      </trkpt>
      <trkpt lat="46.8075" lon="6.18332">
        <ele>860.4</ele>
        <time>2026-05-13T08:45:05Z</time>
      </trkpt>
      <trkpt lat="46.80758" lon="6.18346">
        <ele>860.4</ele>
        <time>2026-05-13T08:45:07Z</time>
      </trkpt>
      <trkpt lat="46.80774" lon="6.18362">
        <ele>860.6</ele>
        <time>2026-05-13T08:45:10Z</time>
      </trkpt>
      <trkpt lat="46.80806" lon="6.18387">
        <ele>860.4</ele>
        <time>2026-05-13T08:45:15Z</time>
      </trkpt>
      <trkpt lat="46.80811" lon="6.18392">
        <ele>860.4</ele>
        <time>2026-05-13T08:45:16Z</time>
      </trkpt>
      <trkpt lat="46.8082" lon="6.184">
        <ele>859.8</ele>
        <time>2026-05-13T08:45:18Z</time>
      </trkpt>
      <trkpt lat="46.80824" lon="6.18404">
        <ele>859.4</ele>
        <time>2026-05-13T08:45:19Z</time>
      </trkpt>
      <trkpt lat="46.80827" lon="6.18408">
        <ele>858.8</ele>
        <time>2026-05-13T08:45:20Z</time>
      </trkpt>
      <trkpt lat="46.80837" lon="6.18422">
        <ele>857.6</ele>
        <time>2026-05-13T08:45:23Z</time>
      </trkpt>
      <trkpt lat="46.80846" lon="6.18433">
        <ele>856.6</ele>
        <time>2026-05-13T08:45:25Z</time>
      </trkpt>
      <trkpt lat="46.80869" lon="6.18462">
        <ele>855.8</ele>
        <time>2026-05-13T08:45:30Z</time>
      </trkpt>
      <trkpt lat="46.80875" lon="6.18477">
        <ele>855.4</ele>
        <time>2026-05-13T08:45:32Z</time>
      </trkpt>
      <trkpt lat="46.80894" lon="6.1852">
        <ele>854.8</ele>
        <time>2026-05-13T08:45:38Z</time>
      </trkpt>
      <trkpt lat="46.809" lon="6.1853">
        <ele>854.8</ele>
        <time>2026-05-13T08:45:40Z</time>
      </trkpt>
      <trkpt lat="46.80908" lon="6.18535">
        <ele>854.8</ele>
        <time>2026-05-13T08:45:42Z</time>
      </trkpt>
      <trkpt lat="46.80915" lon="6.18532">
        <ele>855.2</ele>
        <time>2026-05-13T08:45:44Z</time>
      </trkpt>
      <trkpt lat="46.80919" lon="6.18528">
        <ele>855.2</ele>
        <time>2026-05-13T08:45:45Z</time>
      </trkpt>
      <trkpt lat="46.80922" lon="6.18523">
        <ele>855.6</ele>
        <time>2026-05-13T08:45:46Z</time>
      </trkpt>
      <trkpt lat="46.80929" lon="6.18517">
        <ele>856</ele>
        <time>2026-05-13T08:45:48Z</time>
      </trkpt>
      <trkpt lat="46.80933" lon="6.18515">
        <ele>856.2</ele>
        <time>2026-05-13T08:45:49Z</time>
      </trkpt>
      <trkpt lat="46.80937" lon="6.18515">
        <ele>856.2</ele>
        <time>2026-05-13T08:45:50Z</time>
      </trkpt>
      <trkpt lat="46.80941" lon="6.18517">
        <ele>856.4</ele>
        <time>2026-05-13T08:45:51Z</time>
      </trkpt>
      <trkpt lat="46.80945" lon="6.18519">
        <ele>856.6</ele>
        <time>2026-05-13T08:45:52Z</time>
      </trkpt>
      <trkpt lat="46.80949" lon="6.18521">
        <ele>856.8</ele>
        <time>2026-05-13T08:45:53Z</time>
      </trkpt>
      <trkpt lat="46.80961" lon="6.1853">
        <ele>857.4</ele>
        <time>2026-05-13T08:45:56Z</time>
      </trkpt>
      <trkpt lat="46.80978" lon="6.18544">
        <ele>858.2</ele>
        <time>2026-05-13T08:46:00Z</time>
      </trkpt>
      <trkpt lat="46.80987" lon="6.18552">
        <ele>858.4</ele>
        <time>2026-05-13T08:46:02Z</time>
      </trkpt>
      <trkpt lat="46.81011" lon="6.18571">
        <ele>858.6</ele>
        <time>2026-05-13T08:46:07Z</time>
      </trkpt>
      <trkpt lat="46.81026" lon="6.18583">
        <ele>858.4</ele>
        <time>2026-05-13T08:46:10Z</time>
      </trkpt>
      <trkpt lat="46.81036" lon="6.18591">
        <ele>858.4</ele>
        <time>2026-05-13T08:46:12Z</time>
      </trkpt>
      <trkpt lat="46.81041" lon="6.18594">
        <ele>858.4</ele>
        <time>2026-05-13T08:46:13Z</time>
      </trkpt>
      <trkpt lat="46.81064" lon="6.18612">
        <ele>857.6</ele>
        <time>2026-05-13T08:46:18Z</time>
      </trkpt>
      <trkpt lat="46.81092" lon="6.18632">
        <ele>857.6</ele>
        <time>2026-05-13T08:46:24Z</time>
      </trkpt>
      <trkpt lat="46.81096" lon="6.18635">
        <ele>857.6</ele>
        <time>2026-05-13T08:46:25Z</time>
      </trkpt>
      <trkpt lat="46.811" lon="6.18637">
        <ele>857.6</ele>
        <time>2026-05-13T08:46:26Z</time>
      </trkpt>
      <trkpt lat="46.81121" lon="6.18646">
        <ele>858.4</ele>
        <time>2026-05-13T08:46:31Z</time>
      </trkpt>
      <trkpt lat="46.81129" lon="6.1865">
        <ele>858.8</ele>
        <time>2026-05-13T08:46:33Z</time>
      </trkpt>
      <trkpt lat="46.81143" lon="6.18654">
        <ele>859.6</ele>
        <time>2026-05-13T08:46:37Z</time>
      </trkpt>
      <trkpt lat="46.81147" lon="6.18655">
        <ele>859.8</ele>
        <time>2026-05-13T08:46:38Z</time>
      </trkpt>
      <trkpt lat="46.81162" lon="6.18662">
        <ele>860.6</ele>
        <time>2026-05-13T08:46:42Z</time>
      </trkpt>
      <trkpt lat="46.81179" lon="6.18668">
        <ele>861.4</ele>
        <time>2026-05-13T08:46:46Z</time>
      </trkpt>
      <trkpt lat="46.81187" lon="6.18673">
        <ele>861.6</ele>
        <time>2026-05-13T08:46:48Z</time>
      </trkpt>
      <trkpt lat="46.81216" lon="6.18686">
        <ele>862.6</ele>
        <time>2026-05-13T08:46:55Z</time>
      </trkpt>
      <trkpt lat="46.81223" lon="6.1869">
        <ele>862.6</ele>
        <time>2026-05-13T08:46:57Z</time>
      </trkpt>
      <trkpt lat="46.81235" lon="6.18699">
        <ele>863</ele>
        <time>2026-05-13T08:47:00Z</time>
      </trkpt>
      <trkpt lat="46.81246" lon="6.18707">
        <ele>863.2</ele>
        <time>2026-05-13T08:47:03Z</time>
      </trkpt>
      <trkpt lat="46.81278" lon="6.18729">
        <ele>863.6</ele>
        <time>2026-05-13T08:47:10Z</time>
      </trkpt>
      <trkpt lat="46.81307" lon="6.18746">
        <ele>863.4</ele>
        <time>2026-05-13T08:47:15Z</time>
      </trkpt>
      <trkpt lat="46.8134" lon="6.18768">
        <ele>862.6</ele>
        <time>2026-05-13T08:47:20Z</time>
      </trkpt>
      <trkpt lat="46.81355" lon="6.18778">
        <ele>862.2</ele>
        <time>2026-05-13T08:47:22Z</time>
      </trkpt>
      <trkpt lat="46.81364" lon="6.18783">
        <ele>861.8</ele>
        <time>2026-05-13T08:47:23Z</time>
      </trkpt>
      <trkpt lat="46.81372" lon="6.18789">
        <ele>861.6</ele>
        <time>2026-05-13T08:47:24Z</time>
      </trkpt>
      <trkpt lat="46.81403" lon="6.1882">
        <ele>860</ele>
        <time>2026-05-13T08:47:28Z</time>
      </trkpt>
      <trkpt lat="46.81412" lon="6.18827">
        <ele>859.6</ele>
        <time>2026-05-13T08:47:29Z</time>
      </trkpt>
      <trkpt lat="46.8142" lon="6.18833">
        <ele>858.8</ele>
        <time>2026-05-13T08:47:30Z</time>
      </trkpt>
      <trkpt lat="46.81429" lon="6.18838">
        <ele>858.8</ele>
        <time>2026-05-13T08:47:31Z</time>
      </trkpt>
      <trkpt lat="46.81437" lon="6.18841">
        <ele>858.2</ele>
        <time>2026-05-13T08:47:32Z</time>
      </trkpt>
      <trkpt lat="46.81447" lon="6.18845">
        <ele>857.4</ele>
        <time>2026-05-13T08:47:33Z</time>
      </trkpt>
      <trkpt lat="46.81459" lon="6.18849">
        <ele>857.2</ele>
        <time>2026-05-13T08:47:34Z</time>
      </trkpt>
      <trkpt lat="46.81477" lon="6.18858">
        <ele>856.6</ele>
        <time>2026-05-13T08:47:36Z</time>
      </trkpt>
      <trkpt lat="46.81488" lon="6.18865">
        <ele>856.4</ele>
        <time>2026-05-13T08:47:37Z</time>
      </trkpt>
      <trkpt lat="46.81505" lon="6.18878">
        <ele>856</ele>
        <time>2026-05-13T08:47:39Z</time>
      </trkpt>
      <trkpt lat="46.81532" lon="6.18896">
        <ele>854.8</ele>
        <time>2026-05-13T08:47:42Z</time>
      </trkpt>
      <trkpt lat="46.81554" lon="6.18914">
        <ele>853.8</ele>
        <time>2026-05-13T08:47:45Z</time>
      </trkpt>
      <trkpt lat="46.81587" lon="6.18927">
        <ele>853.2</ele>
        <time>2026-05-13T08:47:49Z</time>
      </trkpt>
      <trkpt lat="46.81593" lon="6.18931">
        <ele>853.2</ele>
        <time>2026-05-13T08:47:50Z</time>
      </trkpt>
      <trkpt lat="46.8161" lon="6.18942">
        <ele>853.4</ele>
        <time>2026-05-13T08:47:53Z</time>
      </trkpt>
      <trkpt lat="46.81646" lon="6.18975">
        <ele>854</ele>
        <time>2026-05-13T08:48:00Z</time>
      </trkpt>
      <trkpt lat="46.81667" lon="6.18995">
        <ele>853.8</ele>
        <time>2026-05-13T08:48:03Z</time>
      </trkpt>
      <trkpt lat="46.81674" lon="6.19002">
        <ele>853.4</ele>
        <time>2026-05-13T08:48:04Z</time>
      </trkpt>
      <trkpt lat="46.81689" lon="6.19017">
        <ele>852.8</ele>
        <time>2026-05-13T08:48:06Z</time>
      </trkpt>
      <trkpt lat="46.8171" lon="6.19043">
        <ele>851.6</ele>
        <time>2026-05-13T08:48:09Z</time>
      </trkpt>
      <trkpt lat="46.81729" lon="6.19069">
        <ele>850.4</ele>
        <time>2026-05-13T08:48:12Z</time>
      </trkpt>
      <trkpt lat="46.8175" lon="6.19091">
        <ele>849.4</ele>
        <time>2026-05-13T08:48:15Z</time>
      </trkpt>
      <trkpt lat="46.81757" lon="6.19098">
        <ele>849.2</ele>
        <time>2026-05-13T08:48:16Z</time>
      </trkpt>
      <trkpt lat="46.8178" lon="6.19126">
        <ele>848.4</ele>
        <time>2026-05-13T08:48:20Z</time>
      </trkpt>
      <trkpt lat="46.81785" lon="6.19134">
        <ele>848</ele>
        <time>2026-05-13T08:48:21Z</time>
      </trkpt>
      <trkpt lat="46.81794" lon="6.19148">
        <ele>847.8</ele>
        <time>2026-05-13T08:48:23Z</time>
      </trkpt>
      <trkpt lat="46.81803" lon="6.19159">
        <ele>847.8</ele>
        <time>2026-05-13T08:48:25Z</time>
      </trkpt>
      <trkpt lat="46.81817" lon="6.19176">
        <ele>847.8</ele>
        <time>2026-05-13T08:48:28Z</time>
      </trkpt>
      <trkpt lat="46.81823" lon="6.19186">
        <ele>848</ele>
        <time>2026-05-13T08:48:30Z</time>
      </trkpt>
      <trkpt lat="46.8183" lon="6.19203">
        <ele>848.6</ele>
        <time>2026-05-13T08:48:34Z</time>
      </trkpt>
      <trkpt lat="46.81838" lon="6.19215">
        <ele>849.2</ele>
        <time>2026-05-13T08:48:37Z</time>
      </trkpt>
      <trkpt lat="46.81844" lon="6.19223">
        <ele>849.6</ele>
        <time>2026-05-13T08:48:39Z</time>
      </trkpt>
      <trkpt lat="46.81849" lon="6.19231">
        <ele>850.2</ele>
        <time>2026-05-13T08:48:41Z</time>
      </trkpt>
      <trkpt lat="46.81863" lon="6.19249">
        <ele>850.8</ele>
        <time>2026-05-13T08:48:45Z</time>
      </trkpt>
      <trkpt lat="46.81867" lon="6.19255">
        <ele>851</ele>
        <time>2026-05-13T08:48:46Z</time>
      </trkpt>
      <trkpt lat="46.81875" lon="6.19268">
        <ele>851.4</ele>
        <time>2026-05-13T08:48:48Z</time>
      </trkpt>
      <trkpt lat="46.81886" lon="6.19289">
        <ele>851.4</ele>
        <time>2026-05-13T08:48:51Z</time>
      </trkpt>
      <trkpt lat="46.81908" lon="6.19324">
        <ele>851.6</ele>
        <time>2026-05-13T08:48:56Z</time>
      </trkpt>
      <trkpt lat="46.81912" lon="6.19329">
        <ele>851.4</ele>
        <time>2026-05-13T08:48:57Z</time>
      </trkpt>
      <trkpt lat="46.8194" lon="6.19365">
        <ele>851.2</ele>
        <time>2026-05-13T08:49:03Z</time>
      </trkpt>
      <trkpt lat="46.81945" lon="6.1937">
        <ele>851.2</ele>
        <time>2026-05-13T08:49:04Z</time>
      </trkpt>
      <trkpt lat="46.81967" lon="6.19385">
        <ele>851</ele>
        <time>2026-05-13T08:49:08Z</time>
      </trkpt>
      <trkpt lat="46.81998" lon="6.19407">
        <ele>851.2</ele>
        <time>2026-05-13T08:49:14Z</time>
      </trkpt>
      <trkpt lat="46.82029" lon="6.19427">
        <ele>851.2</ele>
        <time>2026-05-13T08:49:19Z</time>
      </trkpt>
      <trkpt lat="46.8204" lon="6.19436">
        <ele>851.4</ele>
        <time>2026-05-13T08:49:21Z</time>
      </trkpt>
      <trkpt lat="46.82055" lon="6.19456">
        <ele>851.4</ele>
        <time>2026-05-13T08:49:24Z</time>
      </trkpt>
      <trkpt lat="46.82087" lon="6.19506">
        <ele>850.8</ele>
        <time>2026-05-13T08:49:31Z</time>
      </trkpt>
      <trkpt lat="46.8212" lon="6.19539">
        <ele>850.4</ele>
        <time>2026-05-13T08:49:37Z</time>
      </trkpt>
      <trkpt lat="46.82125" lon="6.19544">
        <ele>850.2</ele>
        <time>2026-05-13T08:49:38Z</time>
      </trkpt>
      <trkpt lat="46.82151" lon="6.19575">
        <ele>849.8</ele>
        <time>2026-05-13T08:49:43Z</time>
      </trkpt>
      <trkpt lat="46.82174" lon="6.196">
        <ele>849.6</ele>
        <time>2026-05-13T08:49:47Z</time>
      </trkpt>
      <trkpt lat="46.82209" lon="6.19639">
        <ele>848.8</ele>
        <time>2026-05-13T08:49:53Z</time>
      </trkpt>
      <trkpt lat="46.82235" lon="6.19666">
        <ele>848.4</ele>
        <time>2026-05-13T08:49:57Z</time>
      </trkpt>
      <trkpt lat="46.8224" lon="6.19674">
        <ele>848.4</ele>
        <time>2026-05-13T08:49:58Z</time>
      </trkpt>
      <trkpt lat="46.82245" lon="6.19679">
        <ele>848.2</ele>
        <time>2026-05-13T08:49:59Z</time>
      </trkpt>
      <trkpt lat="46.82258" lon="6.19697">
        <ele>847.8</ele>
        <time>2026-05-13T08:50:01Z</time>
      </trkpt>
      <trkpt lat="46.82277" lon="6.19726">
        <ele>847.4</ele>
        <time>2026-05-13T08:50:04Z</time>
      </trkpt>
      <trkpt lat="46.82283" lon="6.19736">
        <ele>847.4</ele>
        <time>2026-05-13T08:50:05Z</time>
      </trkpt>
      <trkpt lat="46.82294" lon="6.19758">
        <ele>846.6</ele>
        <time>2026-05-13T08:50:07Z</time>
      </trkpt>
      <trkpt lat="46.82313" lon="6.19792">
        <ele>845.4</ele>
        <time>2026-05-13T08:50:10Z</time>
      </trkpt>
      <trkpt lat="46.82333" lon="6.19828">
        <ele>843.8</ele>
        <time>2026-05-13T08:50:13Z</time>
      </trkpt>
      <trkpt lat="46.82347" lon="6.19849">
        <ele>842.8</ele>
        <time>2026-05-13T08:50:15Z</time>
      </trkpt>
      <trkpt lat="46.82368" lon="6.1988">
        <ele>841.6</ele>
        <time>2026-05-13T08:50:18Z</time>
      </trkpt>
      <trkpt lat="46.82394" lon="6.19919">
        <ele>840.4</ele>
        <time>2026-05-13T08:50:22Z</time>
      </trkpt>
      <trkpt lat="46.82407" lon="6.19937">
        <ele>839.8</ele>
        <time>2026-05-13T08:50:24Z</time>
      </trkpt>
      <trkpt lat="46.82444" lon="6.19986">
        <ele>839.2</ele>
        <time>2026-05-13T08:50:30Z</time>
      </trkpt>
      <trkpt lat="46.82469" lon="6.20016">
        <ele>839.2</ele>
        <time>2026-05-13T08:50:35Z</time>
      </trkpt>
      <trkpt lat="46.82492" lon="6.20049">
        <ele>839.8</ele>
        <time>2026-05-13T08:50:40Z</time>
      </trkpt>
      <trkpt lat="46.82503" lon="6.20081">
        <ele>840.2</ele>
        <time>2026-05-13T08:50:44Z</time>
      </trkpt>
      <trkpt lat="46.8251" lon="6.20096">
        <ele>840.2</ele>
        <time>2026-05-13T08:50:46Z</time>
      </trkpt>
      <trkpt lat="46.82536" lon="6.2015">
        <ele>840.6</ele>
        <time>2026-05-13T08:50:53Z</time>
      </trkpt>
      <trkpt lat="46.82576" lon="6.20204">
        <ele>840.4</ele>
        <time>2026-05-13T08:51:01Z</time>
      </trkpt>
      <trkpt lat="46.82603" lon="6.20251">
        <ele>840</ele>
        <time>2026-05-13T08:51:07Z</time>
      </trkpt>
      <trkpt lat="46.82618" lon="6.2029">
        <ele>840</ele>
        <time>2026-05-13T08:51:12Z</time>
      </trkpt>
      <trkpt lat="46.82627" lon="6.20311">
        <ele>840.2</ele>
        <time>2026-05-13T08:51:15Z</time>
      </trkpt>
      <trkpt lat="46.82631" lon="6.20326">
        <ele>840.6</ele>
        <time>2026-05-13T08:51:17Z</time>
      </trkpt>
      <trkpt lat="46.82634" lon="6.20333">
        <ele>840.6</ele>
        <time>2026-05-13T08:51:18Z</time>
      </trkpt>
      <trkpt lat="46.82642" lon="6.20347">
        <ele>841</ele>
        <time>2026-05-13T08:51:20Z</time>
      </trkpt>
      <trkpt lat="46.82646" lon="6.20354">
        <ele>841</ele>
        <time>2026-05-13T08:51:21Z</time>
      </trkpt>
      <trkpt lat="46.82672" lon="6.20396">
        <ele>841.4</ele>
        <time>2026-05-13T08:51:27Z</time>
      </trkpt>
      <trkpt lat="46.82676" lon="6.20403">
        <ele>841.4</ele>
        <time>2026-05-13T08:51:28Z</time>
      </trkpt>
      <trkpt lat="46.82695" lon="6.20428">
        <ele>841.6</ele>
        <time>2026-05-13T08:51:32Z</time>
      </trkpt>
      <trkpt lat="46.82722" lon="6.2047">
        <ele>841.8</ele>
        <time>2026-05-13T08:51:39Z</time>
      </trkpt>
      <trkpt lat="46.8273" lon="6.20483">
        <ele>842</ele>
        <time>2026-05-13T08:51:41Z</time>
      </trkpt>
      <trkpt lat="46.82759" lon="6.20528">
        <ele>842.4</ele>
        <time>2026-05-13T08:51:48Z</time>
      </trkpt>
      <trkpt lat="46.82781" lon="6.20578">
        <ele>842.4</ele>
        <time>2026-05-13T08:51:55Z</time>
      </trkpt>
      <trkpt lat="46.82802" lon="6.2063">
        <ele>842.6</ele>
        <time>2026-05-13T08:52:02Z</time>
      </trkpt>
      <trkpt lat="46.82816" lon="6.20673">
        <ele>843</ele>
        <time>2026-05-13T08:52:08Z</time>
      </trkpt>
      <trkpt lat="46.82819" lon="6.2068">
        <ele>843.2</ele>
        <time>2026-05-13T08:52:09Z</time>
      </trkpt>
      <trkpt lat="46.82822" lon="6.20687">
        <ele>843.4</ele>
        <time>2026-05-13T08:52:10Z</time>
      </trkpt>
      <trkpt lat="46.82833" lon="6.20703">
        <ele>843.6</ele>
        <time>2026-05-13T08:52:13Z</time>
      </trkpt>
      <trkpt lat="46.8284" lon="6.20715">
        <ele>844</ele>
        <time>2026-05-13T08:52:15Z</time>
      </trkpt>
      <trkpt lat="46.82845" lon="6.2072">
        <ele>844.2</ele>
        <time>2026-05-13T08:52:16Z</time>
      </trkpt>
      <trkpt lat="46.82859" lon="6.20736">
        <ele>844.4</ele>
        <time>2026-05-13T08:52:19Z</time>
      </trkpt>
      <trkpt lat="46.82864" lon="6.20741">
        <ele>844.4</ele>
        <time>2026-05-13T08:52:20Z</time>
      </trkpt>
      <trkpt lat="46.82883" lon="6.20763">
        <ele>844.6</ele>
        <time>2026-05-13T08:52:24Z</time>
      </trkpt>
      <trkpt lat="46.82923" lon="6.20803">
        <ele>844.2</ele>
        <time>2026-05-13T08:52:32Z</time>
      </trkpt>
      <trkpt lat="46.82953" lon="6.2083">
        <ele>844.4</ele>
        <time>2026-05-13T08:52:38Z</time>
      </trkpt>
      <trkpt lat="46.82995" lon="6.20867">
        <ele>844.6</ele>
        <time>2026-05-13T08:52:46Z</time>
      </trkpt>
      <trkpt lat="46.8303" lon="6.20905">
        <ele>844.6</ele>
        <time>2026-05-13T08:52:53Z</time>
      </trkpt>
      <trkpt lat="46.83071" lon="6.2094">
        <ele>844</ele>
        <time>2026-05-13T08:53:00Z</time>
      </trkpt>
      <trkpt lat="46.83118" lon="6.20975">
        <ele>843.2</ele>
        <time>2026-05-13T08:53:07Z</time>
      </trkpt>
      <trkpt lat="46.83141" lon="6.20996">
        <ele>842.8</ele>
        <time>2026-05-13T08:53:11Z</time>
      </trkpt>
      <trkpt lat="46.83146" lon="6.21">
        <ele>842.6</ele>
        <time>2026-05-13T08:53:12Z</time>
      </trkpt>
      <trkpt lat="46.83153" lon="6.21005">
        <ele>842.6</ele>
        <time>2026-05-13T08:53:13Z</time>
      </trkpt>
      <trkpt lat="46.8317" lon="6.21012">
        <ele>842.8</ele>
        <time>2026-05-13T08:53:16Z</time>
      </trkpt>
      <trkpt lat="46.83183" lon="6.21011">
        <ele>842.8</ele>
        <time>2026-05-13T08:53:18Z</time>
      </trkpt>
      <trkpt lat="46.83194" lon="6.21006">
        <ele>843.2</ele>
        <time>2026-05-13T08:53:20Z</time>
      </trkpt>
      <trkpt lat="46.83208" lon="6.20995">
        <ele>843.4</ele>
        <time>2026-05-13T08:53:23Z</time>
      </trkpt>
      <trkpt lat="46.83216" lon="6.20986">
        <ele>843.6</ele>
        <time>2026-05-13T08:53:25Z</time>
      </trkpt>
      <trkpt lat="46.83236" lon="6.20964">
        <ele>844.2</ele>
        <time>2026-05-13T08:53:30Z</time>
      </trkpt>
      <trkpt lat="46.83243" lon="6.20956">
        <ele>844.4</ele>
        <time>2026-05-13T08:53:32Z</time>
      </trkpt>
      <trkpt lat="46.83255" lon="6.20943">
        <ele>844.6</ele>
        <time>2026-05-13T08:53:35Z</time>
      </trkpt>
      <trkpt lat="46.83259" lon="6.20938">
        <ele>844.6</ele>
        <time>2026-05-13T08:53:36Z</time>
      </trkpt>
      <trkpt lat="46.83268" lon="6.2093">
        <ele>845</ele>
        <time>2026-05-13T08:53:38Z</time>
      </trkpt>
      <trkpt lat="46.83285" lon="6.2092">
        <ele>845</ele>
        <time>2026-05-13T08:53:41Z</time>
      </trkpt>
      <trkpt lat="46.83291" lon="6.20918">
        <ele>845</ele>
        <time>2026-05-13T08:53:42Z</time>
      </trkpt>
      <trkpt lat="46.83298" lon="6.20917">
        <ele>845</ele>
        <time>2026-05-13T08:53:43Z</time>
      </trkpt>
      <trkpt lat="46.83311" lon="6.20921">
        <ele>844.8</ele>
        <time>2026-05-13T08:53:45Z</time>
      </trkpt>
      <trkpt lat="46.83318" lon="6.20925">
        <ele>844.8</ele>
        <time>2026-05-13T08:53:46Z</time>
      </trkpt>
      <trkpt lat="46.8335" lon="6.20952">
        <ele>843.6</ele>
        <time>2026-05-13T08:53:51Z</time>
      </trkpt>
      <trkpt lat="46.83357" lon="6.20957">
        <ele>843.4</ele>
        <time>2026-05-13T08:53:52Z</time>
      </trkpt>
      <trkpt lat="46.83381" lon="6.20975">
        <ele>843</ele>
        <time>2026-05-13T08:53:56Z</time>
      </trkpt>
      <trkpt lat="46.83387" lon="6.20978">
        <ele>843</ele>
        <time>2026-05-13T08:53:57Z</time>
      </trkpt>
      <trkpt lat="46.83391" lon="6.20981">
        <ele>843</ele>
        <time>2026-05-13T08:53:58Z</time>
      </trkpt>
      <trkpt lat="46.834" lon="6.20987">
        <ele>843</ele>
        <time>2026-05-13T08:54:00Z</time>
      </trkpt>
      <trkpt lat="46.83405" lon="6.2099">
        <ele>843.2</ele>
        <time>2026-05-13T08:54:01Z</time>
      </trkpt>
      <trkpt lat="46.83445" lon="6.2101">
        <ele>844.4</ele>
        <time>2026-05-13T08:54:09Z</time>
      </trkpt>
      <trkpt lat="46.8345" lon="6.21013">
        <ele>844.6</ele>
        <time>2026-05-13T08:54:10Z</time>
      </trkpt>
      <trkpt lat="46.83494" lon="6.21033">
        <ele>844.8</ele>
        <time>2026-05-13T08:54:18Z</time>
      </trkpt>
      <trkpt lat="46.83549" lon="6.21057">
        <ele>845.4</ele>
        <time>2026-05-13T08:54:29Z</time>
      </trkpt>
      <trkpt lat="46.83563" lon="6.21064">
        <ele>845.8</ele>
        <time>2026-05-13T08:54:32Z</time>
      </trkpt>
      <trkpt lat="46.8359" lon="6.21076">
        <ele>846.4</ele>
        <time>2026-05-13T08:54:38Z</time>
      </trkpt>
      <trkpt lat="46.83597" lon="6.21079">
        <ele>846.4</ele>
        <time>2026-05-13T08:54:40Z</time>
      </trkpt>
      <trkpt lat="46.83605" lon="6.21084">
        <ele>846.8</ele>
        <time>2026-05-13T08:54:42Z</time>
      </trkpt>
      <trkpt lat="46.83609" lon="6.21085">
        <ele>846.8</ele>
        <time>2026-05-13T08:54:43Z</time>
      </trkpt>
      <trkpt lat="46.83613" lon="6.21087">
        <ele>847.2</ele>
        <time>2026-05-13T08:54:44Z</time>
      </trkpt>
      <trkpt lat="46.83625" lon="6.21092">
        <ele>847.8</ele>
        <time>2026-05-13T08:54:47Z</time>
      </trkpt>
      <trkpt lat="46.83646" lon="6.21102">
        <ele>849</ele>
        <time>2026-05-13T08:54:52Z</time>
      </trkpt>
      <trkpt lat="46.83651" lon="6.21104">
        <ele>849.2</ele>
        <time>2026-05-13T08:54:53Z</time>
      </trkpt>
      <trkpt lat="46.83678" lon="6.2111">
        <ele>849.8</ele>
        <time>2026-05-13T08:54:58Z</time>
      </trkpt>
      <trkpt lat="46.83721" lon="6.21111">
        <ele>849.6</ele>
        <time>2026-05-13T08:55:05Z</time>
      </trkpt>
      <trkpt lat="46.83776" lon="6.2111">
        <ele>850</ele>
        <time>2026-05-13T08:55:14Z</time>
      </trkpt>
      <trkpt lat="46.83781" lon="6.2111">
        <ele>850</ele>
        <time>2026-05-13T08:55:15Z</time>
      </trkpt>
      <trkpt lat="46.83826" lon="6.2111">
        <ele>850</ele>
        <time>2026-05-13T08:55:22Z</time>
      </trkpt>
      <trkpt lat="46.83882" lon="6.21109">
        <ele>850.2</ele>
        <time>2026-05-13T08:55:31Z</time>
      </trkpt>
      <trkpt lat="46.83889" lon="6.21109">
        <ele>850.2</ele>
        <time>2026-05-13T08:55:32Z</time>
      </trkpt>
      <trkpt lat="46.83894" lon="6.21109">
        <ele>850.4</ele>
        <time>2026-05-13T08:55:33Z</time>
      </trkpt>
      <trkpt lat="46.83943" lon="6.21114">
        <ele>850.6</ele>
        <time>2026-05-13T08:55:41Z</time>
      </trkpt>
      <trkpt lat="46.83981" lon="6.21122">
        <ele>850</ele>
        <time>2026-05-13T08:55:46Z</time>
      </trkpt>
      <trkpt lat="46.84005" lon="6.21129">
        <ele>849.6</ele>
        <time>2026-05-13T08:55:49Z</time>
      </trkpt>
      <trkpt lat="46.84014" lon="6.21132">
        <ele>849.2</ele>
        <time>2026-05-13T08:55:50Z</time>
      </trkpt>
      <trkpt lat="46.84023" lon="6.21135">
        <ele>848.8</ele>
        <time>2026-05-13T08:55:51Z</time>
      </trkpt>
      <trkpt lat="46.8405" lon="6.21143">
        <ele>848</ele>
        <time>2026-05-13T08:55:54Z</time>
      </trkpt>
      <trkpt lat="46.84085" lon="6.21153">
        <ele>846.8</ele>
        <time>2026-05-13T08:55:58Z</time>
      </trkpt>
      <trkpt lat="46.84094" lon="6.21155">
        <ele>846.6</ele>
        <time>2026-05-13T08:55:59Z</time>
      </trkpt>
      <trkpt lat="46.8412" lon="6.21161">
        <ele>845.8</ele>
        <time>2026-05-13T08:56:02Z</time>
      </trkpt>
      <trkpt lat="46.84167" lon="6.2117">
        <ele>844.8</ele>
        <time>2026-05-13T08:56:07Z</time>
      </trkpt>
      <trkpt lat="46.84176" lon="6.21171">
        <ele>844.6</ele>
        <time>2026-05-13T08:56:08Z</time>
      </trkpt>
      <trkpt lat="46.84209" lon="6.21176">
        <ele>843.6</ele>
        <time>2026-05-13T08:56:12Z</time>
      </trkpt>
      <trkpt lat="46.84242" lon="6.21178">
        <ele>843</ele>
        <time>2026-05-13T08:56:16Z</time>
      </trkpt>
      <trkpt lat="46.84285" lon="6.21179">
        <ele>843</ele>
        <time>2026-05-13T08:56:22Z</time>
      </trkpt>
      <trkpt lat="46.84327" lon="6.21177">
        <ele>844.4</ele>
        <time>2026-05-13T08:56:29Z</time>
      </trkpt>
      <trkpt lat="46.84339" lon="6.21177">
        <ele>844.6</ele>
        <time>2026-05-13T08:56:31Z</time>
      </trkpt>
      <trkpt lat="46.84364" lon="6.21177">
        <ele>845.8</ele>
        <time>2026-05-13T08:56:36Z</time>
      </trkpt>
      <trkpt lat="46.84411" lon="6.21175">
        <ele>846.8</ele>
        <time>2026-05-13T08:56:44Z</time>
      </trkpt>
      <trkpt lat="46.84417" lon="6.21176">
        <ele>846.8</ele>
        <time>2026-05-13T08:56:45Z</time>
      </trkpt>
      <trkpt lat="46.84463" lon="6.21177">
        <ele>846.6</ele>
        <time>2026-05-13T08:56:52Z</time>
      </trkpt>
      <trkpt lat="46.84512" lon="6.21179">
        <ele>845.4</ele>
        <time>2026-05-13T08:56:58Z</time>
      </trkpt>
      <trkpt lat="46.84531" lon="6.2118">
        <ele>844.4</ele>
        <time>2026-05-13T08:57:00Z</time>
      </trkpt>
      <trkpt lat="46.84565" lon="6.2118">
        <ele>843.2</ele>
        <time>2026-05-13T08:57:04Z</time>
      </trkpt>
      <trkpt lat="46.84574" lon="6.2118">
        <ele>843</ele>
        <time>2026-05-13T08:57:05Z</time>
      </trkpt>
      <trkpt lat="46.84602" lon="6.21181">
        <ele>842.2</ele>
        <time>2026-05-13T08:57:08Z</time>
      </trkpt>
      <trkpt lat="46.8462" lon="6.21182">
        <ele>841.2</ele>
        <time>2026-05-13T08:57:10Z</time>
      </trkpt>
      <trkpt lat="46.84658" lon="6.21183">
        <ele>840</ele>
        <time>2026-05-13T08:57:14Z</time>
      </trkpt>
      <trkpt lat="46.84685" lon="6.21184">
        <ele>838.6</ele>
        <time>2026-05-13T08:57:17Z</time>
      </trkpt>
      <trkpt lat="46.84719" lon="6.21183">
        <ele>837.8</ele>
        <time>2026-05-13T08:57:21Z</time>
      </trkpt>
      <trkpt lat="46.84727" lon="6.21182">
        <ele>837.6</ele>
        <time>2026-05-13T08:57:22Z</time>
      </trkpt>
      <trkpt lat="46.84735" lon="6.21179">
        <ele>837.6</ele>
        <time>2026-05-13T08:57:23Z</time>
      </trkpt>
      <trkpt lat="46.8475" lon="6.21169">
        <ele>837.2</ele>
        <time>2026-05-13T08:57:25Z</time>
      </trkpt>
      <trkpt lat="46.8478" lon="6.21145">
        <ele>836.6</ele>
        <time>2026-05-13T08:57:29Z</time>
      </trkpt>
      <trkpt lat="46.84809" lon="6.21121">
        <ele>835.4</ele>
        <time>2026-05-13T08:57:33Z</time>
      </trkpt>
      <trkpt lat="46.84858" lon="6.21078">
        <ele>834.6</ele>
        <time>2026-05-13T08:57:40Z</time>
      </trkpt>
      <trkpt lat="46.84864" lon="6.21072">
        <ele>834.6</ele>
        <time>2026-05-13T08:57:41Z</time>
      </trkpt>
      <trkpt lat="46.84876" lon="6.2106">
        <ele>834.4</ele>
        <time>2026-05-13T08:57:43Z</time>
      </trkpt>
      <trkpt lat="46.84905" lon="6.21028">
        <ele>834.2</ele>
        <time>2026-05-13T08:57:48Z</time>
      </trkpt>
      <trkpt lat="46.84941" lon="6.20987">
        <ele>834</ele>
        <time>2026-05-13T08:57:55Z</time>
      </trkpt>
      <trkpt lat="46.8497" lon="6.2096">
        <ele>835</ele>
        <time>2026-05-13T08:58:01Z</time>
      </trkpt>
      <trkpt lat="46.84975" lon="6.20957">
        <ele>835.2</ele>
        <time>2026-05-13T08:58:02Z</time>
      </trkpt>
      <trkpt lat="46.84991" lon="6.20947">
        <ele>835.4</ele>
        <time>2026-05-13T08:58:05Z</time>
      </trkpt>
      <trkpt lat="46.85025" lon="6.20931">
        <ele>836.2</ele>
        <time>2026-05-13T08:58:11Z</time>
      </trkpt>
      <trkpt lat="46.85048" lon="6.20921">
        <ele>836.2</ele>
        <time>2026-05-13T08:58:15Z</time>
      </trkpt>
      <trkpt lat="46.85062" lon="6.2092">
        <ele>836</ele>
        <time>2026-05-13T08:58:17Z</time>
      </trkpt>
      <trkpt lat="46.85102" lon="6.20913">
        <ele>835.2</ele>
        <time>2026-05-13T08:58:22Z</time>
      </trkpt>
      <trkpt lat="46.85119" lon="6.2091">
        <ele>834.6</ele>
        <time>2026-05-13T08:58:24Z</time>
      </trkpt>
      <trkpt lat="46.85135" lon="6.20908">
        <ele>833.6</ele>
        <time>2026-05-13T08:58:26Z</time>
      </trkpt>
      <trkpt lat="46.85159" lon="6.20905">
        <ele>832.8</ele>
        <time>2026-05-13T08:58:29Z</time>
      </trkpt>
      <trkpt lat="46.85174" lon="6.20904">
        <ele>832.6</ele>
        <time>2026-05-13T08:58:31Z</time>
      </trkpt>
      <trkpt lat="46.85189" lon="6.20907">
        <ele>832.4</ele>
        <time>2026-05-13T08:58:33Z</time>
      </trkpt>
      <trkpt lat="46.85196" lon="6.2091">
        <ele>832.4</ele>
        <time>2026-05-13T08:58:34Z</time>
      </trkpt>
      <trkpt lat="46.85248" lon="6.20937">
        <ele>831.6</ele>
        <time>2026-05-13T08:58:41Z</time>
      </trkpt>
      <trkpt lat="46.85255" lon="6.20939">
        <ele>831.4</ele>
        <time>2026-05-13T08:58:42Z</time>
      </trkpt>
      <trkpt lat="46.85269" lon="6.20939">
        <ele>831.4</ele>
        <time>2026-05-13T08:58:44Z</time>
      </trkpt>
      <trkpt lat="46.8528" lon="6.2093">
        <ele>831.2</ele>
        <time>2026-05-13T08:58:46Z</time>
      </trkpt>
      <trkpt lat="46.85285" lon="6.20924">
        <ele>831.2</ele>
        <time>2026-05-13T08:58:47Z</time>
      </trkpt>
      <trkpt lat="46.85289" lon="6.20917">
        <ele>831.2</ele>
        <time>2026-05-13T08:58:48Z</time>
      </trkpt>
      <trkpt lat="46.85302" lon="6.20884">
        <ele>831.2</ele>
        <time>2026-05-13T08:58:52Z</time>
      </trkpt>
      <trkpt lat="46.85305" lon="6.20875">
        <ele>831.2</ele>
        <time>2026-05-13T08:58:53Z</time>
      </trkpt>
      <trkpt lat="46.85325" lon="6.20818">
        <ele>831.2</ele>
        <time>2026-05-13T08:59:00Z</time>
      </trkpt>
      <trkpt lat="46.8533" lon="6.20803">
        <ele>831.2</ele>
        <time>2026-05-13T08:59:02Z</time>
      </trkpt>
      <trkpt lat="46.85337" lon="6.20794">
        <ele>831.2</ele>
        <time>2026-05-13T08:59:04Z</time>
      </trkpt>
      <trkpt lat="46.85347" lon="6.20793">
        <ele>831.4</ele>
        <time>2026-05-13T08:59:06Z</time>
      </trkpt>
      <trkpt lat="46.85351" lon="6.20795">
        <ele>831.6</ele>
        <time>2026-05-13T08:59:07Z</time>
      </trkpt>
      <trkpt lat="46.8536" lon="6.20801">
        <ele>831.8</ele>
        <time>2026-05-13T08:59:09Z</time>
      </trkpt>
      <trkpt lat="46.85369" lon="6.20808">
        <ele>832.4</ele>
        <time>2026-05-13T08:59:11Z</time>
      </trkpt>
      <trkpt lat="46.85373" lon="6.20813">
        <ele>832.4</ele>
        <time>2026-05-13T08:59:12Z</time>
      </trkpt>
      <trkpt lat="46.85377" lon="6.20817">
        <ele>832.8</ele>
        <time>2026-05-13T08:59:13Z</time>
      </trkpt>
      <trkpt lat="46.85404" lon="6.20838">
        <ele>833.4</ele>
        <time>2026-05-13T08:59:19Z</time>
      </trkpt>
      <trkpt lat="46.85417" lon="6.20848">
        <ele>833.8</ele>
        <time>2026-05-13T08:59:22Z</time>
      </trkpt>
      <trkpt lat="46.85439" lon="6.20865">
        <ele>834.2</ele>
        <time>2026-05-13T08:59:27Z</time>
      </trkpt>
      <trkpt lat="46.85465" lon="6.20884">
        <ele>834.8</ele>
        <time>2026-05-13T08:59:33Z</time>
      </trkpt>
      <trkpt lat="46.85478" lon="6.20892">
        <ele>835.2</ele>
        <time>2026-05-13T08:59:36Z</time>
      </trkpt>
      <trkpt lat="46.85496" lon="6.20898">
        <ele>836</ele>
        <time>2026-05-13T08:59:40Z</time>
      </trkpt>
      <trkpt lat="46.85514" lon="6.20904">
        <ele>837</ele>
        <time>2026-05-13T08:59:44Z</time>
      </trkpt>
      <trkpt lat="46.85544" lon="6.20916">
        <ele>837.2</ele>
        <time>2026-05-13T08:59:51Z</time>
      </trkpt>
      <trkpt lat="46.85555" lon="6.2093">
        <ele>837</ele>
        <time>2026-05-13T08:59:56Z</time>
      </trkpt>
      <trkpt lat="46.85558" lon="6.20933">
        <ele>837</ele>
        <time>2026-05-13T08:59:58Z</time>
      </trkpt>
      <trkpt lat="46.85562" lon="6.20933">
        <ele>836.8</ele>
        <time>2026-05-13T09:00:00Z</time>
      </trkpt>
      <trkpt lat="46.85575" lon="6.20934">
        <ele>836.6</ele>
        <time>2026-05-13T09:00:07Z</time>
      </trkpt>
      <trkpt lat="46.85577" lon="6.20934">
        <ele>836.6</ele>
        <time>2026-05-13T09:00:09Z</time>
      </trkpt>
      <trkpt lat="46.85583" lon="6.20936">
        <ele>836.4</ele>
        <time>2026-05-13T09:00:12Z</time>
      </trkpt>
      <trkpt lat="46.85589" lon="6.20941">
        <ele>836.2</ele>
        <time>2026-05-13T09:00:15Z</time>
      </trkpt>
      <trkpt lat="46.85594" lon="6.20944">
        <ele>836</ele>
        <time>2026-05-13T09:00:17Z</time>
      </trkpt>
      <trkpt lat="46.85605" lon="6.20955">
        <ele>835.6</ele>
        <time>2026-05-13T09:00:24Z</time>
      </trkpt>
      <trkpt lat="46.85605" lon="6.20955">
        <ele>835.6</ele>
        <time>2026-05-13T09:00:26Z</time>
      </trkpt>
      <trkpt lat="46.8561" lon="6.20951">
        <ele>837</ele>
        <time>2026-05-13T09:21:03Z</time>
      </trkpt>
      <trkpt lat="46.85611" lon="6.20953">
        <ele>837</ele>
        <time>2026-05-13T09:21:04Z</time>
      </trkpt>
      <trkpt lat="46.85627" lon="6.20961">
        <ele>836.8</ele>
        <time>2026-05-13T09:21:09Z</time>
      </trkpt>
      <trkpt lat="46.85652" lon="6.20978">
        <ele>836</ele>
        <time>2026-05-13T09:21:15Z</time>
      </trkpt>
      <trkpt lat="46.85682" lon="6.20996">
        <ele>835.2</ele>
        <time>2026-05-13T09:21:21Z</time>
      </trkpt>
      <trkpt lat="46.85687" lon="6.20998">
        <ele>835.2</ele>
        <time>2026-05-13T09:21:22Z</time>
      </trkpt>
      <trkpt lat="46.85698" lon="6.21">
        <ele>834.8</ele>
        <time>2026-05-13T09:21:24Z</time>
      </trkpt>
      <trkpt lat="46.85715" lon="6.21002">
        <ele>834.4</ele>
        <time>2026-05-13T09:21:27Z</time>
      </trkpt>
      <trkpt lat="46.85754" lon="6.21006">
        <ele>834</ele>
        <time>2026-05-13T09:21:34Z</time>
      </trkpt>
      <trkpt lat="46.85799" lon="6.21011">
        <ele>834</ele>
        <time>2026-05-13T09:21:42Z</time>
      </trkpt>
      <trkpt lat="46.85826" lon="6.21014">
        <ele>834.8</ele>
        <time>2026-05-13T09:21:48Z</time>
      </trkpt>
      <trkpt lat="46.85852" lon="6.21018">
        <ele>836</ele>
        <time>2026-05-13T09:21:54Z</time>
      </trkpt>
      <trkpt lat="46.85856" lon="6.21018">
        <ele>836.2</ele>
        <time>2026-05-13T09:21:55Z</time>
      </trkpt>
      <trkpt lat="46.8588" lon="6.21018">
        <ele>837.2</ele>
        <time>2026-05-13T09:22:00Z</time>
      </trkpt>
      <trkpt lat="46.85905" lon="6.21019">
        <ele>837.8</ele>
        <time>2026-05-13T09:22:05Z</time>
      </trkpt>
      <trkpt lat="46.85939" lon="6.2102">
        <ele>837.8</ele>
        <time>2026-05-13T09:22:11Z</time>
      </trkpt>
      <trkpt lat="46.85978" lon="6.21023">
        <ele>837.4</ele>
        <time>2026-05-13T09:22:17Z</time>
      </trkpt>
      <trkpt lat="46.86013" lon="6.2102">
        <ele>836.6</ele>
        <time>2026-05-13T09:22:22Z</time>
      </trkpt>
      <trkpt lat="46.86021" lon="6.21017">
        <ele>836.4</ele>
        <time>2026-05-13T09:22:23Z</time>
      </trkpt>
      <trkpt lat="46.86028" lon="6.21013">
        <ele>836</ele>
        <time>2026-05-13T09:22:24Z</time>
      </trkpt>
      <trkpt lat="46.86048" lon="6.20996">
        <ele>835.8</ele>
        <time>2026-05-13T09:22:27Z</time>
      </trkpt>
      <trkpt lat="46.86079" lon="6.2097">
        <ele>835.2</ele>
        <time>2026-05-13T09:22:32Z</time>
      </trkpt>
      <trkpt lat="46.86086" lon="6.20967">
        <ele>835.2</ele>
        <time>2026-05-13T09:22:33Z</time>
      </trkpt>
      <trkpt lat="46.86093" lon="6.20966">
        <ele>835</ele>
        <time>2026-05-13T09:22:34Z</time>
      </trkpt>
      <trkpt lat="46.86106" lon="6.20967">
        <ele>834.8</ele>
        <time>2026-05-13T09:22:36Z</time>
      </trkpt>
      <trkpt lat="46.86113" lon="6.20968">
        <ele>834.6</ele>
        <time>2026-05-13T09:22:37Z</time>
      </trkpt>
      <trkpt lat="46.86143" lon="6.20985">
        <ele>834.2</ele>
        <time>2026-05-13T09:22:42Z</time>
      </trkpt>
      <trkpt lat="46.86159" lon="6.20998">
        <ele>834</ele>
        <time>2026-05-13T09:22:45Z</time>
      </trkpt>
      <trkpt lat="46.86174" lon="6.21014">
        <ele>834</ele>
        <time>2026-05-13T09:22:48Z</time>
      </trkpt>
      <trkpt lat="46.86207" lon="6.21051">
        <ele>834</ele>
        <time>2026-05-13T09:22:55Z</time>
      </trkpt>
      <trkpt lat="46.86224" lon="6.21073">
        <ele>834.4</ele>
        <time>2026-05-13T09:22:59Z</time>
      </trkpt>
      <trkpt lat="46.86239" lon="6.21091">
        <ele>834.6</ele>
        <time>2026-05-13T09:23:02Z</time>
      </trkpt>
      <trkpt lat="46.86262" lon="6.2112">
        <ele>834.6</ele>
        <time>2026-05-13T09:23:07Z</time>
      </trkpt>
      <trkpt lat="46.86267" lon="6.21125">
        <ele>834.6</ele>
        <time>2026-05-13T09:23:08Z</time>
      </trkpt>
      <trkpt lat="46.86313" lon="6.21164">
        <ele>834.4</ele>
        <time>2026-05-13T09:23:16Z</time>
      </trkpt>
      <trkpt lat="46.86336" lon="6.21182">
        <ele>834.4</ele>
        <time>2026-05-13T09:23:20Z</time>
      </trkpt>
      <trkpt lat="46.86362" lon="6.21202">
        <ele>834.2</ele>
        <time>2026-05-13T09:23:24Z</time>
      </trkpt>
      <trkpt lat="46.86411" lon="6.21239">
        <ele>834.2</ele>
        <time>2026-05-13T09:23:32Z</time>
      </trkpt>
      <trkpt lat="46.86417" lon="6.21244">
        <ele>834.2</ele>
        <time>2026-05-13T09:23:33Z</time>
      </trkpt>
      <trkpt lat="46.86462" lon="6.21278">
        <ele>834.2</ele>
        <time>2026-05-13T09:23:41Z</time>
      </trkpt>
      <trkpt lat="46.86506" lon="6.21306">
        <ele>834.4</ele>
        <time>2026-05-13T09:23:49Z</time>
      </trkpt>
      <trkpt lat="46.8654" lon="6.21315">
        <ele>834</ele>
        <time>2026-05-13T09:23:54Z</time>
      </trkpt>
      <trkpt lat="46.86576" lon="6.21319">
        <ele>833.4</ele>
        <time>2026-05-13T09:23:59Z</time>
      </trkpt>
      <trkpt lat="46.86584" lon="6.2132">
        <ele>833.2</ele>
        <time>2026-05-13T09:24:00Z</time>
      </trkpt>
      <trkpt lat="46.86631" lon="6.2133">
        <ele>833</ele>
        <time>2026-05-13T09:24:07Z</time>
      </trkpt>
      <trkpt lat="46.86667" lon="6.21343">
        <ele>833</ele>
        <time>2026-05-13T09:24:13Z</time>
      </trkpt>
      <trkpt lat="46.86679" lon="6.21349">
        <ele>833</ele>
        <time>2026-05-13T09:24:15Z</time>
      </trkpt>
      <trkpt lat="46.86695" lon="6.21354">
        <ele>833</ele>
        <time>2026-05-13T09:24:18Z</time>
      </trkpt>
      <trkpt lat="46.86747" lon="6.21377">
        <ele>833.2</ele>
        <time>2026-05-13T09:24:27Z</time>
      </trkpt>
      <trkpt lat="46.86753" lon="6.2138">
        <ele>833.4</ele>
        <time>2026-05-13T09:24:28Z</time>
      </trkpt>
      <trkpt lat="46.8679" lon="6.2141">
        <ele>833.2</ele>
        <time>2026-05-13T09:24:35Z</time>
      </trkpt>
      <trkpt lat="46.868" lon="6.21421">
        <ele>833.4</ele>
        <time>2026-05-13T09:24:37Z</time>
      </trkpt>
      <trkpt lat="46.86807" lon="6.21435">
        <ele>833.4</ele>
        <time>2026-05-13T09:24:39Z</time>
      </trkpt>
      <trkpt lat="46.86809" lon="6.21449">
        <ele>833.6</ele>
        <time>2026-05-13T09:24:41Z</time>
      </trkpt>
      <trkpt lat="46.86809" lon="6.21468">
        <ele>833.6</ele>
        <time>2026-05-13T09:24:43Z</time>
      </trkpt>
      <trkpt lat="46.86802" lon="6.21489">
        <ele>834</ele>
        <time>2026-05-13T09:24:46Z</time>
      </trkpt>
      <trkpt lat="46.86799" lon="6.21495">
        <ele>834</ele>
        <time>2026-05-13T09:24:47Z</time>
      </trkpt>
      <trkpt lat="46.86796" lon="6.21506">
        <ele>834</ele>
        <time>2026-05-13T09:24:50Z</time>
      </trkpt>
      <trkpt lat="46.86797" lon="6.2151">
        <ele>834</ele>
        <time>2026-05-13T09:24:51Z</time>
      </trkpt>
      <trkpt lat="46.86802" lon="6.21517">
        <ele>834</ele>
        <time>2026-05-13T09:24:53Z</time>
      </trkpt>
      <trkpt lat="46.8682" lon="6.21532">
        <ele>833.8</ele>
        <time>2026-05-13T09:24:58Z</time>
      </trkpt>
      <trkpt lat="46.86832" lon="6.21542">
        <ele>833.8</ele>
        <time>2026-05-13T09:25:01Z</time>
      </trkpt>
      <trkpt lat="46.86845" lon="6.21548">
        <ele>833.8</ele>
        <time>2026-05-13T09:25:04Z</time>
      </trkpt>
      <trkpt lat="46.86849" lon="6.21549">
        <ele>833.8</ele>
        <time>2026-05-13T09:25:05Z</time>
      </trkpt>
      <trkpt lat="46.86876" lon="6.21547">
        <ele>834</ele>
        <time>2026-05-13T09:25:10Z</time>
      </trkpt>
      <trkpt lat="46.86918" lon="6.21543">
        <ele>834.2</ele>
        <time>2026-05-13T09:25:17Z</time>
      </trkpt>
      <trkpt lat="46.86947" lon="6.21539">
        <ele>834.4</ele>
        <time>2026-05-13T09:25:22Z</time>
      </trkpt>
      <trkpt lat="46.86959" lon="6.21538">
        <ele>834.4</ele>
        <time>2026-05-13T09:25:24Z</time>
      </trkpt>
      <trkpt lat="46.8701" lon="6.21532">
        <ele>834.8</ele>
        <time>2026-05-13T09:25:33Z</time>
      </trkpt>
      <trkpt lat="46.87046" lon="6.21531">
        <ele>835.2</ele>
        <time>2026-05-13T09:25:39Z</time>
      </trkpt>
      <trkpt lat="46.87051" lon="6.21533">
        <ele>835.4</ele>
        <time>2026-05-13T09:25:40Z</time>
      </trkpt>
      <trkpt lat="46.87062" lon="6.21535">
        <ele>835.4</ele>
        <time>2026-05-13T09:25:42Z</time>
      </trkpt>
      <trkpt lat="46.87081" lon="6.21538">
        <ele>836</ele>
        <time>2026-05-13T09:25:46Z</time>
      </trkpt>
      <trkpt lat="46.87091" lon="6.2154">
        <ele>836.4</ele>
        <time>2026-05-13T09:25:48Z</time>
      </trkpt>
      <trkpt lat="46.87104" lon="6.21543">
        <ele>837.6</ele>
        <time>2026-05-13T09:25:51Z</time>
      </trkpt>
      <trkpt lat="46.87114" lon="6.21546">
        <ele>838</ele>
        <time>2026-05-13T09:25:53Z</time>
      </trkpt>
      <trkpt lat="46.87118" lon="6.21547">
        <ele>838</ele>
        <time>2026-05-13T09:25:54Z</time>
      </trkpt>
      <trkpt lat="46.87155" lon="6.21565">
        <ele>838.6</ele>
        <time>2026-05-13T09:26:02Z</time>
      </trkpt>
      <trkpt lat="46.87188" lon="6.2159">
        <ele>839</ele>
        <time>2026-05-13T09:26:09Z</time>
      </trkpt>
      <trkpt lat="46.87218" lon="6.21621">
        <ele>839</ele>
        <time>2026-05-13T09:26:15Z</time>
      </trkpt>
      <trkpt lat="46.87254" lon="6.21662">
        <ele>837.6</ele>
        <time>2026-05-13T09:26:21Z</time>
      </trkpt>
      <trkpt lat="46.87276" lon="6.21693">
        <ele>836.6</ele>
        <time>2026-05-13T09:26:25Z</time>
      </trkpt>
      <trkpt lat="46.87288" lon="6.21713">
        <ele>836.4</ele>
        <time>2026-05-13T09:26:27Z</time>
      </trkpt>
      <trkpt lat="46.87317" lon="6.2177">
        <ele>835.6</ele>
        <time>2026-05-13T09:26:33Z</time>
      </trkpt>
      <trkpt lat="46.87339" lon="6.21813">
        <ele>835.4</ele>
        <time>2026-05-13T09:26:37Z</time>
      </trkpt>
      <trkpt lat="46.87365" lon="6.21867">
        <ele>834.6</ele>
        <time>2026-05-13T09:26:42Z</time>
      </trkpt>
      <trkpt lat="46.8739" lon="6.21909">
        <ele>833.6</ele>
        <time>2026-05-13T09:26:46Z</time>
      </trkpt>
      <trkpt lat="46.87429" lon="6.21951">
        <ele>832.6</ele>
        <time>2026-05-13T09:26:51Z</time>
      </trkpt>
      <trkpt lat="46.87438" lon="6.21958">
        <ele>832.4</ele>
        <time>2026-05-13T09:26:52Z</time>
      </trkpt>
      <trkpt lat="46.87489" lon="6.21992">
        <ele>831.6</ele>
        <time>2026-05-13T09:26:58Z</time>
      </trkpt>
      <trkpt lat="46.87498" lon="6.21997">
        <ele>831.4</ele>
        <time>2026-05-13T09:26:59Z</time>
      </trkpt>
      <trkpt lat="46.8754" lon="6.22014">
        <ele>830.8</ele>
        <time>2026-05-13T09:27:04Z</time>
      </trkpt>
      <trkpt lat="46.87555" lon="6.22018">
        <ele>830.4</ele>
        <time>2026-05-13T09:27:06Z</time>
      </trkpt>
      <trkpt lat="46.87577" lon="6.22019">
        <ele>829.8</ele>
        <time>2026-05-13T09:27:09Z</time>
      </trkpt>
      <trkpt lat="46.87587" lon="6.22019">
        <ele>829.6</ele>
        <time>2026-05-13T09:27:11Z</time>
      </trkpt>
      <trkpt lat="46.8759" lon="6.22023">
        <ele>829.6</ele>
        <time>2026-05-13T09:27:12Z</time>
      </trkpt>
      <trkpt lat="46.87592" lon="6.22027">
        <ele>829.4</ele>
        <time>2026-05-13T09:27:13Z</time>
      </trkpt>
      <trkpt lat="46.87597" lon="6.22039">
        <ele>829</ele>
        <time>2026-05-13T09:27:16Z</time>
      </trkpt>
      <trkpt lat="46.87604" lon="6.22048">
        <ele>828.4</ele>
        <time>2026-05-13T09:27:19Z</time>
      </trkpt>
      <trkpt lat="46.87611" lon="6.22058">
        <ele>828.2</ele>
        <time>2026-05-13T09:27:22Z</time>
      </trkpt>
      <trkpt lat="46.87623" lon="6.22072">
        <ele>828.2</ele>
        <time>2026-05-13T09:27:26Z</time>
      </trkpt>
      <trkpt lat="46.87641" lon="6.22098">
        <ele>828.6</ele>
        <time>2026-05-13T09:27:31Z</time>
      </trkpt>
      <trkpt lat="46.87644" lon="6.22104">
        <ele>828.8</ele>
        <time>2026-05-13T09:27:32Z</time>
      </trkpt>
      <trkpt lat="46.87671" lon="6.2214">
        <ele>829.2</ele>
        <time>2026-05-13T09:27:39Z</time>
      </trkpt>
      <trkpt lat="46.877" lon="6.2218">
        <ele>829.4</ele>
        <time>2026-05-13T09:27:46Z</time>
      </trkpt>
      <trkpt lat="46.87714" lon="6.222">
        <ele>829.4</ele>
        <time>2026-05-13T09:27:49Z</time>
      </trkpt>
      <trkpt lat="46.87727" lon="6.22219">
        <ele>829.2</ele>
        <time>2026-05-13T09:27:52Z</time>
      </trkpt>
      <trkpt lat="46.87771" lon="6.2228">
        <ele>829</ele>
        <time>2026-05-13T09:28:01Z</time>
      </trkpt>
      <trkpt lat="46.87776" lon="6.22288">
        <ele>829</ele>
        <time>2026-05-13T09:28:02Z</time>
      </trkpt>
      <trkpt lat="46.87809" lon="6.22331">
        <ele>829</ele>
        <time>2026-05-13T09:28:08Z</time>
      </trkpt>
      <trkpt lat="46.87816" lon="6.22338">
        <ele>829</ele>
        <time>2026-05-13T09:28:09Z</time>
      </trkpt>
      <trkpt lat="46.87838" lon="6.22352">
        <ele>829</ele>
        <time>2026-05-13T09:28:12Z</time>
      </trkpt>
      <trkpt lat="46.87854" lon="6.22355">
        <ele>829</ele>
        <time>2026-05-13T09:28:14Z</time>
      </trkpt>
      <trkpt lat="46.8787" lon="6.22354">
        <ele>828.8</ele>
        <time>2026-05-13T09:28:16Z</time>
      </trkpt>
      <trkpt lat="46.87925" lon="6.22346">
        <ele>828.6</ele>
        <time>2026-05-13T09:28:23Z</time>
      </trkpt>
      <trkpt lat="46.87971" lon="6.22341">
        <ele>828</ele>
        <time>2026-05-13T09:28:29Z</time>
      </trkpt>
      <trkpt lat="46.87987" lon="6.22344">
        <ele>827.8</ele>
        <time>2026-05-13T09:28:31Z</time>
      </trkpt>
      <trkpt lat="46.87994" lon="6.22346">
        <ele>827.8</ele>
        <time>2026-05-13T09:28:32Z</time>
      </trkpt>
      <trkpt lat="46.88009" lon="6.22356">
        <ele>827.4</ele>
        <time>2026-05-13T09:28:34Z</time>
      </trkpt>
      <trkpt lat="46.88016" lon="6.22363">
        <ele>827.2</ele>
        <time>2026-05-13T09:28:35Z</time>
      </trkpt>
      <trkpt lat="46.88022" lon="6.2237">
        <ele>826.8</ele>
        <time>2026-05-13T09:28:36Z</time>
      </trkpt>
      <trkpt lat="46.88032" lon="6.22388">
        <ele>826.4</ele>
        <time>2026-05-13T09:28:38Z</time>
      </trkpt>
      <trkpt lat="46.88037" lon="6.22399">
        <ele>826.6</ele>
        <time>2026-05-13T09:28:39Z</time>
      </trkpt>
      <trkpt lat="46.8804" lon="6.22409">
        <ele>826.2</ele>
        <time>2026-05-13T09:28:40Z</time>
      </trkpt>
      <trkpt lat="46.88046" lon="6.22443">
        <ele>826</ele>
        <time>2026-05-13T09:28:43Z</time>
      </trkpt>
      <trkpt lat="46.88055" lon="6.22522">
        <ele>825.8</ele>
        <time>2026-05-13T09:28:50Z</time>
      </trkpt>
      <trkpt lat="46.88061" lon="6.22555">
        <ele>825.8</ele>
        <time>2026-05-13T09:28:53Z</time>
      </trkpt>
      <trkpt lat="46.88078" lon="6.22607">
        <ele>825.6</ele>
        <time>2026-05-13T09:28:58Z</time>
      </trkpt>
      <trkpt lat="46.88087" lon="6.22626">
        <ele>825.4</ele>
        <time>2026-05-13T09:29:00Z</time>
      </trkpt>
      <trkpt lat="46.88091" lon="6.22635">
        <ele>825.4</ele>
        <time>2026-05-13T09:29:01Z</time>
      </trkpt>
      <trkpt lat="46.88095" lon="6.22654">
        <ele>825.4</ele>
        <time>2026-05-13T09:29:03Z</time>
      </trkpt>
      <trkpt lat="46.88093" lon="6.22679">
        <ele>825.2</ele>
        <time>2026-05-13T09:29:05Z</time>
      </trkpt>
      <trkpt lat="46.8809" lon="6.22689">
        <ele>825</ele>
        <time>2026-05-13T09:29:06Z</time>
      </trkpt>
      <trkpt lat="46.88086" lon="6.22696">
        <ele>825</ele>
        <time>2026-05-13T09:29:07Z</time>
      </trkpt>
      <trkpt lat="46.88064" lon="6.22731">
        <ele>824.8</ele>
        <time>2026-05-13T09:29:11Z</time>
      </trkpt>
      <trkpt lat="46.88036" lon="6.22782">
        <ele>824.8</ele>
        <time>2026-05-13T09:29:17Z</time>
      </trkpt>
      <trkpt lat="46.88033" lon="6.22792">
        <ele>824.8</ele>
        <time>2026-05-13T09:29:18Z</time>
      </trkpt>
      <trkpt lat="46.88031" lon="6.22802">
        <ele>824.8</ele>
        <time>2026-05-13T09:29:19Z</time>
      </trkpt>
      <trkpt lat="46.88028" lon="6.22823">
        <ele>824.8</ele>
        <time>2026-05-13T09:29:21Z</time>
      </trkpt>
      <trkpt lat="46.88027" lon="6.22834">
        <ele>824.8</ele>
        <time>2026-05-13T09:29:22Z</time>
      </trkpt>
      <trkpt lat="46.88034" lon="6.22885">
        <ele>824.6</ele>
        <time>2026-05-13T09:29:27Z</time>
      </trkpt>
      <trkpt lat="46.88037" lon="6.22894">
        <ele>824.6</ele>
        <time>2026-05-13T09:29:28Z</time>
      </trkpt>
      <trkpt lat="46.88049" lon="6.2292">
        <ele>824.8</ele>
        <time>2026-05-13T09:29:31Z</time>
      </trkpt>
      <trkpt lat="46.88085" lon="6.22986">
        <ele>824.8</ele>
        <time>2026-05-13T09:29:39Z</time>
      </trkpt>
      <trkpt lat="46.88094" lon="6.23001">
        <ele>824.6</ele>
        <time>2026-05-13T09:29:41Z</time>
      </trkpt>
      <trkpt lat="46.88105" lon="6.23017">
        <ele>824.6</ele>
        <time>2026-05-13T09:29:43Z</time>
      </trkpt>
      <trkpt lat="46.88133" lon="6.23069">
        <ele>823.8</ele>
        <time>2026-05-13T09:29:49Z</time>
      </trkpt>
      <trkpt lat="46.88162" lon="6.23145">
        <ele>823.6</ele>
        <time>2026-05-13T09:29:57Z</time>
      </trkpt>
      <trkpt lat="46.88166" lon="6.23155">
        <ele>823.8</ele>
        <time>2026-05-13T09:29:58Z</time>
      </trkpt>
      <trkpt lat="46.88194" lon="6.23232">
        <ele>823.8</ele>
        <time>2026-05-13T09:30:06Z</time>
      </trkpt>
      <trkpt lat="46.88214" lon="6.23296">
        <ele>824</ele>
        <time>2026-05-13T09:30:13Z</time>
      </trkpt>
      <trkpt lat="46.8823" lon="6.23358">
        <ele>824.4</ele>
        <time>2026-05-13T09:30:20Z</time>
      </trkpt>
      <trkpt lat="46.88247" lon="6.23434">
        <ele>825.2</ele>
        <time>2026-05-13T09:30:29Z</time>
      </trkpt>
      <trkpt lat="46.88267" lon="6.23495">
        <ele>825.4</ele>
        <time>2026-05-13T09:30:36Z</time>
      </trkpt>
      <trkpt lat="46.88292" lon="6.23558">
        <ele>824.8</ele>
        <time>2026-05-13T09:30:43Z</time>
      </trkpt>
      <trkpt lat="46.88319" lon="6.23608">
        <ele>824.2</ele>
        <time>2026-05-13T09:30:49Z</time>
      </trkpt>
      <trkpt lat="46.88341" lon="6.23638">
        <ele>823.8</ele>
        <time>2026-05-13T09:30:53Z</time>
      </trkpt>
      <trkpt lat="46.88351" lon="6.2365">
        <ele>823.6</ele>
        <time>2026-05-13T09:30:55Z</time>
      </trkpt>
      <trkpt lat="46.88379" lon="6.23689">
        <ele>823</ele>
        <time>2026-05-13T09:31:01Z</time>
      </trkpt>
      <trkpt lat="46.88402" lon="6.23719">
        <ele>822.6</ele>
        <time>2026-05-13T09:31:06Z</time>
      </trkpt>
      <trkpt lat="46.88418" lon="6.23743">
        <ele>822.4</ele>
        <time>2026-05-13T09:31:10Z</time>
      </trkpt>
      <trkpt lat="46.88439" lon="6.23775">
        <ele>822.4</ele>
        <time>2026-05-13T09:31:16Z</time>
      </trkpt>
      <trkpt lat="46.88441" lon="6.23779">
        <ele>822.2</ele>
        <time>2026-05-13T09:31:17Z</time>
      </trkpt>
      <trkpt lat="46.88445" lon="6.23795">
        <ele>822.2</ele>
        <time>2026-05-13T09:31:20Z</time>
      </trkpt>
      <trkpt lat="46.88447" lon="6.23799">
        <ele>822</ele>
        <time>2026-05-13T09:31:21Z</time>
      </trkpt>
      <trkpt lat="46.88454" lon="6.23805">
        <ele>821.8</ele>
        <time>2026-05-13T09:31:23Z</time>
      </trkpt>
      <trkpt lat="46.88463" lon="6.23809">
        <ele>821.8</ele>
        <time>2026-05-13T09:31:25Z</time>
      </trkpt>
      <trkpt lat="46.88471" lon="6.23818">
        <ele>821.8</ele>
        <time>2026-05-13T09:31:27Z</time>
      </trkpt>
      <trkpt lat="46.8849" lon="6.23849">
        <ele>822</ele>
        <time>2026-05-13T09:31:32Z</time>
      </trkpt>
      <trkpt lat="46.88513" lon="6.23877">
        <ele>822.2</ele>
        <time>2026-05-13T09:31:37Z</time>
      </trkpt>
      <trkpt lat="46.88518" lon="6.23882">
        <ele>822.2</ele>
        <time>2026-05-13T09:31:38Z</time>
      </trkpt>
      <trkpt lat="46.88551" lon="6.23907">
        <ele>822</ele>
        <time>2026-05-13T09:31:44Z</time>
      </trkpt>
      <trkpt lat="46.88592" lon="6.2393">
        <ele>821.8</ele>
        <time>2026-05-13T09:31:51Z</time>
      </trkpt>
      <trkpt lat="46.88609" lon="6.23938">
        <ele>821.8</ele>
        <time>2026-05-13T09:31:54Z</time>
      </trkpt>
      <trkpt lat="46.88619" lon="6.23948">
        <ele>822</ele>
        <time>2026-05-13T09:31:56Z</time>
      </trkpt>
      <trkpt lat="46.88634" lon="6.23974">
        <ele>822.4</ele>
        <time>2026-05-13T09:32:00Z</time>
      </trkpt>
      <trkpt lat="46.88645" lon="6.23993">
        <ele>822.8</ele>
        <time>2026-05-13T09:32:04Z</time>
      </trkpt>
      <trkpt lat="46.88648" lon="6.23999">
        <ele>822.8</ele>
        <time>2026-05-13T09:32:05Z</time>
      </trkpt>
      <trkpt lat="46.88651" lon="6.24003">
        <ele>823</ele>
        <time>2026-05-13T09:32:06Z</time>
      </trkpt>
      <trkpt lat="46.88661" lon="6.2402">
        <ele>823.8</ele>
        <time>2026-05-13T09:32:10Z</time>
      </trkpt>
      <trkpt lat="46.88663" lon="6.24024">
        <ele>824.4</ele>
        <time>2026-05-13T09:32:11Z</time>
      </trkpt>
      <trkpt lat="46.8867" lon="6.2404">
        <ele>825.4</ele>
        <time>2026-05-13T09:32:14Z</time>
      </trkpt>
      <trkpt lat="46.88672" lon="6.24045">
        <ele>825.6</ele>
        <time>2026-05-13T09:32:15Z</time>
      </trkpt>
      <trkpt lat="46.88688" lon="6.24072">
        <ele>826.6</ele>
        <time>2026-05-13T09:32:21Z</time>
      </trkpt>
      <trkpt lat="46.88696" lon="6.24083">
        <ele>827</ele>
        <time>2026-05-13T09:32:24Z</time>
      </trkpt>
      <trkpt lat="46.88709" lon="6.24101">
        <ele>827.6</ele>
        <time>2026-05-13T09:32:29Z</time>
      </trkpt>
      <trkpt lat="46.88714" lon="6.24109">
        <ele>828</ele>
        <time>2026-05-13T09:32:31Z</time>
      </trkpt>
      <trkpt lat="46.8874" lon="6.24142">
        <ele>828.6</ele>
        <time>2026-05-13T09:32:40Z</time>
      </trkpt>
      <trkpt lat="46.88765" lon="6.24166">
        <ele>828.2</ele>
        <time>2026-05-13T09:32:46Z</time>
      </trkpt>
      <trkpt lat="46.88794" lon="6.24191">
        <ele>827.8</ele>
        <time>2026-05-13T09:32:52Z</time>
      </trkpt>
      <trkpt lat="46.88832" lon="6.24223">
        <ele>827.2</ele>
        <time>2026-05-13T09:32:59Z</time>
      </trkpt>
      <trkpt lat="46.88852" lon="6.24231">
        <ele>826.6</ele>
        <time>2026-05-13T09:33:02Z</time>
      </trkpt>
      <trkpt lat="46.88871" lon="6.24238">
        <ele>826</ele>
        <time>2026-05-13T09:33:05Z</time>
      </trkpt>
      <trkpt lat="46.88893" lon="6.24244">
        <ele>825.4</ele>
        <time>2026-05-13T09:33:08Z</time>
      </trkpt>
      <trkpt lat="46.88913" lon="6.24251">
        <ele>825</ele>
        <time>2026-05-13T09:33:11Z</time>
      </trkpt>
      <trkpt lat="46.88963" lon="6.24272">
        <ele>824.6</ele>
        <time>2026-05-13T09:33:19Z</time>
      </trkpt>
      <trkpt lat="46.88983" lon="6.24284">
        <ele>825</ele>
        <time>2026-05-13T09:33:23Z</time>
      </trkpt>
      <trkpt lat="46.88986" lon="6.24286">
        <ele>825.2</ele>
        <time>2026-05-13T09:33:24Z</time>
      </trkpt>
      <trkpt lat="46.89013" lon="6.24306">
        <ele>826.6</ele>
        <time>2026-05-13T09:33:30Z</time>
      </trkpt>
      <trkpt lat="46.89037" lon="6.24325">
        <ele>827.6</ele>
        <time>2026-05-13T09:33:36Z</time>
      </trkpt>
      <trkpt lat="46.89049" lon="6.24335">
        <ele>828</ele>
        <time>2026-05-13T09:33:39Z</time>
      </trkpt>
      <trkpt lat="46.89083" lon="6.24363">
        <ele>828.6</ele>
        <time>2026-05-13T09:33:47Z</time>
      </trkpt>
      <trkpt lat="46.89089" lon="6.24368">
        <ele>828.8</ele>
        <time>2026-05-13T09:33:48Z</time>
      </trkpt>
      <trkpt lat="46.89122" lon="6.2439">
        <ele>828.8</ele>
        <time>2026-05-13T09:33:54Z</time>
      </trkpt>
      <trkpt lat="46.89162" lon="6.24418">
        <ele>828</ele>
        <time>2026-05-13T09:34:00Z</time>
      </trkpt>
      <trkpt lat="46.89171" lon="6.24424">
        <ele>827.6</ele>
        <time>2026-05-13T09:34:01Z</time>
      </trkpt>
      <trkpt lat="46.89209" lon="6.24452">
        <ele>826.2</ele>
        <time>2026-05-13T09:34:06Z</time>
      </trkpt>
      <trkpt lat="46.89217" lon="6.24458">
        <ele>826</ele>
        <time>2026-05-13T09:34:07Z</time>
      </trkpt>
      <trkpt lat="46.89253" lon="6.24488">
        <ele>825.2</ele>
        <time>2026-05-13T09:34:12Z</time>
      </trkpt>
      <trkpt lat="46.8928" lon="6.2451">
        <ele>825</ele>
        <time>2026-05-13T09:34:16Z</time>
      </trkpt>
      <trkpt lat="46.8931" lon="6.24533">
        <ele>825.4</ele>
        <time>2026-05-13T09:34:21Z</time>
      </trkpt>
      <trkpt lat="46.89335" lon="6.2455">
        <ele>826.2</ele>
        <time>2026-05-13T09:34:26Z</time>
      </trkpt>
      <trkpt lat="46.89339" lon="6.24552">
        <ele>826.4</ele>
        <time>2026-05-13T09:34:27Z</time>
      </trkpt>
      <trkpt lat="46.89351" lon="6.24558">
        <ele>827.4</ele>
        <time>2026-05-13T09:34:30Z</time>
      </trkpt>
      <trkpt lat="46.8936" lon="6.24562">
        <ele>828</ele>
        <time>2026-05-13T09:34:32Z</time>
      </trkpt>
      <trkpt lat="46.89365" lon="6.24564">
        <ele>828.4</ele>
        <time>2026-05-13T09:34:33Z</time>
      </trkpt>
      <trkpt lat="46.89388" lon="6.2457">
        <ele>829.4</ele>
        <time>2026-05-13T09:34:38Z</time>
      </trkpt>
      <trkpt lat="46.89408" lon="6.24575">
        <ele>830.4</ele>
        <time>2026-05-13T09:34:43Z</time>
      </trkpt>
      <trkpt lat="46.89412" lon="6.24576">
        <ele>830.6</ele>
        <time>2026-05-13T09:34:44Z</time>
      </trkpt>
      <trkpt lat="46.89443" lon="6.24586">
        <ele>831.6</ele>
        <time>2026-05-13T09:34:51Z</time>
      </trkpt>
      <trkpt lat="46.89472" lon="6.24595">
        <ele>832.8</ele>
        <time>2026-05-13T09:34:58Z</time>
      </trkpt>
      <trkpt lat="46.8949" lon="6.24599">
        <ele>833.8</ele>
        <time>2026-05-13T09:35:02Z</time>
      </trkpt>
      <trkpt lat="46.89528" lon="6.24606">
        <ele>834.2</ele>
        <time>2026-05-13T09:35:10Z</time>
      </trkpt>
      <trkpt lat="46.89558" lon="6.24609">
        <ele>835</ele>
        <time>2026-05-13T09:35:16Z</time>
      </trkpt>
      <trkpt lat="46.89564" lon="6.24609">
        <ele>835</ele>
        <time>2026-05-13T09:35:17Z</time>
      </trkpt>
      <trkpt lat="46.89605" lon="6.24611">
        <ele>835.6</ele>
        <time>2026-05-13T09:35:24Z</time>
      </trkpt>
      <trkpt lat="46.89658" lon="6.24614">
        <ele>835</ele>
        <time>2026-05-13T09:35:32Z</time>
      </trkpt>
      <trkpt lat="46.89701" lon="6.24611">
        <ele>834.2</ele>
        <time>2026-05-13T09:35:38Z</time>
      </trkpt>
      <trkpt lat="46.89723" lon="6.24611">
        <ele>834</ele>
        <time>2026-05-13T09:35:41Z</time>
      </trkpt>
      <trkpt lat="46.89748" lon="6.24617">
        <ele>833.8</ele>
        <time>2026-05-13T09:35:45Z</time>
      </trkpt>
      <trkpt lat="46.898" lon="6.24636">
        <ele>834.2</ele>
        <time>2026-05-13T09:35:53Z</time>
      </trkpt>
      <trkpt lat="46.8985" lon="6.2465">
        <ele>834.4</ele>
        <time>2026-05-13T09:36:01Z</time>
      </trkpt>
      <trkpt lat="46.89867" lon="6.2465">
        <ele>834.2</ele>
        <time>2026-05-13T09:36:04Z</time>
      </trkpt>
      <trkpt lat="46.89887" lon="6.24643">
        <ele>834.2</ele>
        <time>2026-05-13T09:36:07Z</time>
      </trkpt>
      <trkpt lat="46.8994" lon="6.24622">
        <ele>834.4</ele>
        <time>2026-05-13T09:36:16Z</time>
      </trkpt>
      <trkpt lat="46.89966" lon="6.24613">
        <ele>834.4</ele>
        <time>2026-05-13T09:36:21Z</time>
      </trkpt>
      <trkpt lat="46.89972" lon="6.24614">
        <ele>834.4</ele>
        <time>2026-05-13T09:36:22Z</time>
      </trkpt>
      <trkpt lat="46.89977" lon="6.24618">
        <ele>834.2</ele>
        <time>2026-05-13T09:36:23Z</time>
      </trkpt>
      <trkpt lat="46.89985" lon="6.24631">
        <ele>834.2</ele>
        <time>2026-05-13T09:36:25Z</time>
      </trkpt>
      <trkpt lat="46.9001" lon="6.24695">
        <ele>834.2</ele>
        <time>2026-05-13T09:36:33Z</time>
      </trkpt>
      <trkpt lat="46.90042" lon="6.24771">
        <ele>834.6</ele>
        <time>2026-05-13T09:36:42Z</time>
      </trkpt>
      <trkpt lat="46.90073" lon="6.24839">
        <ele>834.6</ele>
        <time>2026-05-13T09:36:50Z</time>
      </trkpt>
      <trkpt lat="46.90085" lon="6.24866">
        <ele>834.6</ele>
        <time>2026-05-13T09:36:53Z</time>
      </trkpt>
      <trkpt lat="46.90118" lon="6.2494">
        <ele>834.6</ele>
        <time>2026-05-13T09:37:01Z</time>
      </trkpt>
      <trkpt lat="46.90127" lon="6.24958">
        <ele>834.6</ele>
        <time>2026-05-13T09:37:03Z</time>
      </trkpt>
      <trkpt lat="46.90157" lon="6.25025">
        <ele>834.6</ele>
        <time>2026-05-13T09:37:10Z</time>
      </trkpt>
      <trkpt lat="46.90161" lon="6.25035">
        <ele>834.6</ele>
        <time>2026-05-13T09:37:11Z</time>
      </trkpt>
      <trkpt lat="46.90194" lon="6.25106">
        <ele>834.2</ele>
        <time>2026-05-13T09:37:18Z</time>
      </trkpt>
      <trkpt lat="46.9021" lon="6.2514">
        <ele>834</ele>
        <time>2026-05-13T09:37:21Z</time>
      </trkpt>
      <trkpt lat="46.90238" lon="6.252">
        <ele>833.2</ele>
        <time>2026-05-13T09:37:26Z</time>
      </trkpt>
      <trkpt lat="46.9025" lon="6.25226">
        <ele>832.8</ele>
        <time>2026-05-13T09:37:28Z</time>
      </trkpt>
      <trkpt lat="46.90262" lon="6.25252">
        <ele>831.8</ele>
        <time>2026-05-13T09:37:30Z</time>
      </trkpt>
      <trkpt lat="46.9028" lon="6.25292">
        <ele>830.6</ele>
        <time>2026-05-13T09:37:33Z</time>
      </trkpt>
      <trkpt lat="46.90299" lon="6.25333">
        <ele>829</ele>
        <time>2026-05-13T09:37:36Z</time>
      </trkpt>
      <trkpt lat="46.90318" lon="6.25374">
        <ele>827.6</ele>
        <time>2026-05-13T09:37:39Z</time>
      </trkpt>
      <trkpt lat="46.90346" lon="6.25436">
        <ele>826.4</ele>
        <time>2026-05-13T09:37:44Z</time>
      </trkpt>
      <trkpt lat="46.90352" lon="6.25449">
        <ele>826.2</ele>
        <time>2026-05-13T09:37:45Z</time>
      </trkpt>
      <trkpt lat="46.90386" lon="6.25524">
        <ele>825.8</ele>
        <time>2026-05-13T09:37:51Z</time>
      </trkpt>
      <trkpt lat="46.90402" lon="6.25558">
        <ele>826.2</ele>
        <time>2026-05-13T09:37:54Z</time>
      </trkpt>
      <trkpt lat="46.9043" lon="6.25618">
        <ele>827.4</ele>
        <time>2026-05-13T09:38:00Z</time>
      </trkpt>
      <trkpt lat="46.90434" lon="6.25627">
        <ele>827.8</ele>
        <time>2026-05-13T09:38:01Z</time>
      </trkpt>
      <trkpt lat="46.90446" lon="6.25652">
        <ele>828.8</ele>
        <time>2026-05-13T09:38:04Z</time>
      </trkpt>
      <trkpt lat="46.90453" lon="6.25668">
        <ele>829.6</ele>
        <time>2026-05-13T09:38:06Z</time>
      </trkpt>
      <trkpt lat="46.9046" lon="6.25683">
        <ele>830</ele>
        <time>2026-05-13T09:38:08Z</time>
      </trkpt>
      <trkpt lat="46.90466" lon="6.25697">
        <ele>831</ele>
        <time>2026-05-13T09:38:10Z</time>
      </trkpt>
      <trkpt lat="46.90473" lon="6.2571">
        <ele>831.6</ele>
        <time>2026-05-13T09:38:12Z</time>
      </trkpt>
      <trkpt lat="46.90479" lon="6.25724">
        <ele>832</ele>
        <time>2026-05-13T09:38:14Z</time>
      </trkpt>
      <trkpt lat="46.90495" lon="6.25755">
        <ele>833.2</ele>
        <time>2026-05-13T09:38:19Z</time>
      </trkpt>
      <trkpt lat="46.90498" lon="6.25761">
        <ele>833.4</ele>
        <time>2026-05-13T09:38:20Z</time>
      </trkpt>
      <trkpt lat="46.90516" lon="6.258">
        <ele>834.2</ele>
        <time>2026-05-13T09:38:26Z</time>
      </trkpt>
      <trkpt lat="46.90534" lon="6.25842">
        <ele>835</ele>
        <time>2026-05-13T09:38:32Z</time>
      </trkpt>
      <trkpt lat="46.90538" lon="6.25849">
        <ele>835.2</ele>
        <time>2026-05-13T09:38:33Z</time>
      </trkpt>
      <trkpt lat="46.90565" lon="6.2591">
        <ele>836</ele>
        <time>2026-05-13T09:38:41Z</time>
      </trkpt>
      <trkpt lat="46.90598" lon="6.25982">
        <ele>836.4</ele>
        <time>2026-05-13T09:38:50Z</time>
      </trkpt>
      <trkpt lat="46.90601" lon="6.2599">
        <ele>836.6</ele>
        <time>2026-05-13T09:38:51Z</time>
      </trkpt>
      <trkpt lat="46.90635" lon="6.26063">
        <ele>836.8</ele>
        <time>2026-05-13T09:39:00Z</time>
      </trkpt>
      <trkpt lat="46.9066" lon="6.26118">
        <ele>837.6</ele>
        <time>2026-05-13T09:39:07Z</time>
      </trkpt>
      <trkpt lat="46.90671" lon="6.26141">
        <ele>837.8</ele>
        <time>2026-05-13T09:39:10Z</time>
      </trkpt>
      <trkpt lat="46.90703" lon="6.26211">
        <ele>838.4</ele>
        <time>2026-05-13T09:39:19Z</time>
      </trkpt>
      <trkpt lat="46.90706" lon="6.26219">
        <ele>838.4</ele>
        <time>2026-05-13T09:39:20Z</time>
      </trkpt>
      <trkpt lat="46.90709" lon="6.26225">
        <ele>838.6</ele>
        <time>2026-05-13T09:39:21Z</time>
      </trkpt>
      <trkpt lat="46.90741" lon="6.26295">
        <ele>839</ele>
        <time>2026-05-13T09:39:30Z</time>
      </trkpt>
      <trkpt lat="46.9075" lon="6.26316">
        <ele>839.4</ele>
        <time>2026-05-13T09:39:33Z</time>
      </trkpt>
      <trkpt lat="46.9076" lon="6.26337">
        <ele>839.6</ele>
        <time>2026-05-13T09:39:36Z</time>
      </trkpt>
      <trkpt lat="46.90778" lon="6.26376">
        <ele>840.8</ele>
        <time>2026-05-13T09:39:42Z</time>
      </trkpt>
      <trkpt lat="46.90789" lon="6.264">
        <ele>841.8</ele>
        <time>2026-05-13T09:39:46Z</time>
      </trkpt>
      <trkpt lat="46.90799" lon="6.26425">
        <ele>843</ele>
        <time>2026-05-13T09:39:50Z</time>
      </trkpt>
      <trkpt lat="46.90816" lon="6.2646">
        <ele>844.2</ele>
        <time>2026-05-13T09:39:57Z</time>
      </trkpt>
      <trkpt lat="46.90822" lon="6.26471">
        <ele>844.6</ele>
        <time>2026-05-13T09:39:59Z</time>
      </trkpt>
      <trkpt lat="46.90832" lon="6.26495">
        <ele>845.2</ele>
        <time>2026-05-13T09:40:03Z</time>
      </trkpt>
      <trkpt lat="46.90844" lon="6.26522">
        <ele>846.2</ele>
        <time>2026-05-13T09:40:08Z</time>
      </trkpt>
      <trkpt lat="46.90859" lon="6.26567">
        <ele>847.4</ele>
        <time>2026-05-13T09:40:15Z</time>
      </trkpt>
      <trkpt lat="46.90865" lon="6.26587">
        <ele>847.6</ele>
        <time>2026-05-13T09:40:18Z</time>
      </trkpt>
      <trkpt lat="46.90874" lon="6.26623">
        <ele>847.8</ele>
        <time>2026-05-13T09:40:23Z</time>
      </trkpt>
      <trkpt lat="46.90892" lon="6.26681">
        <ele>848.4</ele>
        <time>2026-05-13T09:40:31Z</time>
      </trkpt>
      <trkpt lat="46.90894" lon="6.26687">
        <ele>848.4</ele>
        <time>2026-05-13T09:40:32Z</time>
      </trkpt>
      <trkpt lat="46.90915" lon="6.26727">
        <ele>848.4</ele>
        <time>2026-05-13T09:40:38Z</time>
      </trkpt>
      <trkpt lat="46.90923" lon="6.26745">
        <ele>848.4</ele>
        <time>2026-05-13T09:40:41Z</time>
      </trkpt>
      <trkpt lat="46.90934" lon="6.26772">
        <ele>848.2</ele>
        <time>2026-05-13T09:40:44Z</time>
      </trkpt>
      <trkpt lat="46.90944" lon="6.26784">
        <ele>848</ele>
        <time>2026-05-13T09:40:46Z</time>
      </trkpt>
      <trkpt lat="46.90951" lon="6.26787">
        <ele>848</ele>
        <time>2026-05-13T09:40:47Z</time>
      </trkpt>
      <trkpt lat="46.90958" lon="6.26787">
        <ele>848</ele>
        <time>2026-05-13T09:40:48Z</time>
      </trkpt>
      <trkpt lat="46.90977" lon="6.26787">
        <ele>848.2</ele>
        <time>2026-05-13T09:40:51Z</time>
      </trkpt>
      <trkpt lat="46.90988" lon="6.26796">
        <ele>848.2</ele>
        <time>2026-05-13T09:40:53Z</time>
      </trkpt>
      <trkpt lat="46.90993" lon="6.26803">
        <ele>848.2</ele>
        <time>2026-05-13T09:40:54Z</time>
      </trkpt>
      <trkpt lat="46.91012" lon="6.2684">
        <ele>848.6</ele>
        <time>2026-05-13T09:40:59Z</time>
      </trkpt>
      <trkpt lat="46.91015" lon="6.26848">
        <ele>848.8</ele>
        <time>2026-05-13T09:41:00Z</time>
      </trkpt>
      <trkpt lat="46.91036" lon="6.26926">
        <ele>849.4</ele>
        <time>2026-05-13T09:41:09Z</time>
      </trkpt>
      <trkpt lat="46.91044" lon="6.26952">
        <ele>849.6</ele>
        <time>2026-05-13T09:41:12Z</time>
      </trkpt>
      <trkpt lat="46.91059" lon="6.26989">
        <ele>849.8</ele>
        <time>2026-05-13T09:41:16Z</time>
      </trkpt>
      <trkpt lat="46.91081" lon="6.27039">
        <ele>848.4</ele>
        <time>2026-05-13T09:41:21Z</time>
      </trkpt>
      <trkpt lat="46.91086" lon="6.27051">
        <ele>848.2</ele>
        <time>2026-05-13T09:41:22Z</time>
      </trkpt>
      <trkpt lat="46.91097" lon="6.27074">
        <ele>847</ele>
        <time>2026-05-13T09:41:24Z</time>
      </trkpt>
      <trkpt lat="46.91109" lon="6.27097">
        <ele>845.8</ele>
        <time>2026-05-13T09:41:26Z</time>
      </trkpt>
      <trkpt lat="46.91119" lon="6.27119">
        <ele>844.4</ele>
        <time>2026-05-13T09:41:28Z</time>
      </trkpt>
      <trkpt lat="46.91126" lon="6.27134">
        <ele>844</ele>
        <time>2026-05-13T09:41:29Z</time>
      </trkpt>
      <trkpt lat="46.91132" lon="6.27145">
        <ele>843</ele>
        <time>2026-05-13T09:41:30Z</time>
      </trkpt>
      <trkpt lat="46.91142" lon="6.27166">
        <ele>841.8</ele>
        <time>2026-05-13T09:41:32Z</time>
      </trkpt>
      <trkpt lat="46.91158" lon="6.27201">
        <ele>840.8</ele>
        <time>2026-05-13T09:41:35Z</time>
      </trkpt>
      <trkpt lat="46.91163" lon="6.27211">
        <ele>840.6</ele>
        <time>2026-05-13T09:41:36Z</time>
      </trkpt>
      <trkpt lat="46.91172" lon="6.27229">
        <ele>840.2</ele>
        <time>2026-05-13T09:41:38Z</time>
      </trkpt>
      <trkpt lat="46.91178" lon="6.27247">
        <ele>839.8</ele>
        <time>2026-05-13T09:41:40Z</time>
      </trkpt>
      <trkpt lat="46.91181" lon="6.27254">
        <ele>839.8</ele>
        <time>2026-05-13T09:41:41Z</time>
      </trkpt>
      <trkpt lat="46.9119" lon="6.2727">
        <ele>839.6</ele>
        <time>2026-05-13T09:41:44Z</time>
      </trkpt>
      <trkpt lat="46.91198" lon="6.27291">
        <ele>839.4</ele>
        <time>2026-05-13T09:41:48Z</time>
      </trkpt>
      <trkpt lat="46.91198" lon="6.27297">
        <ele>839.4</ele>
        <time>2026-05-13T09:41:49Z</time>
      </trkpt>
      <trkpt lat="46.91199" lon="6.27301">
        <ele>839.4</ele>
        <time>2026-05-13T09:41:50Z</time>
      </trkpt>
      <trkpt lat="46.91202" lon="6.27302">
        <ele>839.6</ele>
        <time>2026-05-13T09:41:52Z</time>
      </trkpt>
      <trkpt lat="46.91201" lon="6.2729">
        <ele>839.8</ele>
        <time>2026-05-13T09:41:55Z</time>
      </trkpt>
      <trkpt lat="46.91186" lon="6.27258">
        <ele>840</ele>
        <time>2026-05-13T09:42:00Z</time>
      </trkpt>
      <trkpt lat="46.9118" lon="6.27245">
        <ele>840</ele>
        <time>2026-05-13T09:42:02Z</time>
      </trkpt>
      <trkpt lat="46.91179" lon="6.27232">
        <ele>840</ele>
        <time>2026-05-13T09:42:04Z</time>
      </trkpt>
      <trkpt lat="46.91185" lon="6.27223">
        <ele>840</ele>
        <time>2026-05-13T09:42:06Z</time>
      </trkpt>
      <trkpt lat="46.91189" lon="6.27219">
        <ele>840</ele>
        <time>2026-05-13T09:42:07Z</time>
      </trkpt>
      <trkpt lat="46.91197" lon="6.27212">
        <ele>839.8</ele>
        <time>2026-05-13T09:42:09Z</time>
      </trkpt>
      <trkpt lat="46.91219" lon="6.27196">
        <ele>839.8</ele>
        <time>2026-05-13T09:42:14Z</time>
      </trkpt>
      <trkpt lat="46.91236" lon="6.27186">
        <ele>840</ele>
        <time>2026-05-13T09:42:18Z</time>
      </trkpt>
      <trkpt lat="46.91247" lon="6.27177">
        <ele>840</ele>
        <time>2026-05-13T09:42:21Z</time>
      </trkpt>
      <trkpt lat="46.91254" lon="6.27172">
        <ele>840.2</ele>
        <time>2026-05-13T09:42:23Z</time>
      </trkpt>
      <trkpt lat="46.91263" lon="6.27163">
        <ele>841.2</ele>
        <time>2026-05-13T09:42:26Z</time>
      </trkpt>
      <trkpt lat="46.91265" lon="6.2716">
        <ele>841.6</ele>
        <time>2026-05-13T09:42:27Z</time>
      </trkpt>
      <trkpt lat="46.91275" lon="6.27149">
        <ele>842.4</ele>
        <time>2026-05-13T09:42:31Z</time>
      </trkpt>
      <trkpt lat="46.9128" lon="6.27143">
        <ele>842.8</ele>
        <time>2026-05-13T09:42:33Z</time>
      </trkpt>
      <trkpt lat="46.91292" lon="6.2713">
        <ele>843.4</ele>
        <time>2026-05-13T09:42:38Z</time>
      </trkpt>
      <trkpt lat="46.91303" lon="6.27115">
        <ele>844.4</ele>
        <time>2026-05-13T09:42:43Z</time>
      </trkpt>
      <trkpt lat="46.91306" lon="6.27112">
        <ele>844.6</ele>
        <time>2026-05-13T09:42:44Z</time>
      </trkpt>
      <trkpt lat="46.91319" lon="6.27096">
        <ele>845.8</ele>
        <time>2026-05-13T09:42:50Z</time>
      </trkpt>
      <trkpt lat="46.9132" lon="6.27093">
        <ele>846.2</ele>
        <time>2026-05-13T09:42:51Z</time>
      </trkpt>
      <trkpt lat="46.91324" lon="6.27088">
        <ele>846.8</ele>
        <time>2026-05-13T09:42:53Z</time>
      </trkpt>
      <trkpt lat="46.91332" lon="6.27079">
        <ele>847.4</ele>
        <time>2026-05-13T09:42:57Z</time>
      </trkpt>
      <trkpt lat="46.91338" lon="6.27071">
        <ele>848</ele>
        <time>2026-05-13T09:43:00Z</time>
      </trkpt>
      <trkpt lat="46.9134" lon="6.27069">
        <ele>848.2</ele>
        <time>2026-05-13T09:43:01Z</time>
      </trkpt>
      <trkpt lat="46.91344" lon="6.27068">
        <ele>848.4</ele>
        <time>2026-05-13T09:43:03Z</time>
      </trkpt>
      <trkpt lat="46.91345" lon="6.27068">
        <ele>848.6</ele>
        <time>2026-05-13T09:43:04Z</time>
      </trkpt>
      <trkpt lat="46.91345" lon="6.27069">
        <ele>849.2</ele>
        <time>2026-05-13T09:43:07Z</time>
      </trkpt>
      <trkpt lat="46.91349" lon="6.27071">
        <ele>849.4</ele>
        <time>2026-05-13T09:43:10Z</time>
      </trkpt>
      <trkpt lat="46.91351" lon="6.2707">
        <ele>849.6</ele>
        <time>2026-05-13T09:43:11Z</time>
      </trkpt>
      <trkpt lat="46.91357" lon="6.2706">
        <ele>849.6</ele>
        <time>2026-05-13T09:43:14Z</time>
      </trkpt>
      <trkpt lat="46.91369" lon="6.27037">
        <ele>850.2</ele>
        <time>2026-05-13T09:43:20Z</time>
      </trkpt>
      <trkpt lat="46.91371" lon="6.27033">
        <ele>850.2</ele>
        <time>2026-05-13T09:43:21Z</time>
      </trkpt>
      <trkpt lat="46.91382" lon="6.2701">
        <ele>851.2</ele>
        <time>2026-05-13T09:43:27Z</time>
      </trkpt>
      <trkpt lat="46.91385" lon="6.27003">
        <ele>851.6</ele>
        <time>2026-05-13T09:43:29Z</time>
      </trkpt>
      <trkpt lat="46.91396" lon="6.26979">
        <ele>852.2</ele>
        <time>2026-05-13T09:43:35Z</time>
      </trkpt>
      <trkpt lat="46.914" lon="6.26971">
        <ele>852.6</ele>
        <time>2026-05-13T09:43:37Z</time>
      </trkpt>
      <trkpt lat="46.91407" lon="6.26945">
        <ele>853.4</ele>
        <time>2026-05-13T09:43:43Z</time>
      </trkpt>
      <trkpt lat="46.91408" lon="6.26942">
        <ele>853.6</ele>
        <time>2026-05-13T09:43:44Z</time>
      </trkpt>
      <trkpt lat="46.91414" lon="6.26933">
        <ele>854.2</ele>
        <time>2026-05-13T09:43:47Z</time>
      </trkpt>
      <trkpt lat="46.91417" lon="6.26932">
        <ele>854.4</ele>
        <time>2026-05-13T09:43:48Z</time>
      </trkpt>
      <trkpt lat="46.91421" lon="6.26932">
        <ele>854.8</ele>
        <time>2026-05-13T09:43:49Z</time>
      </trkpt>
      <trkpt lat="46.91427" lon="6.26935">
        <ele>855.4</ele>
        <time>2026-05-13T09:43:51Z</time>
      </trkpt>
      <trkpt lat="46.91429" lon="6.26937">
        <ele>855.6</ele>
        <time>2026-05-13T09:43:52Z</time>
      </trkpt>
      <trkpt lat="46.91434" lon="6.26941">
        <ele>855.8</ele>
        <time>2026-05-13T09:43:54Z</time>
      </trkpt>
      <trkpt lat="46.91436" lon="6.26941">
        <ele>855.8</ele>
        <time>2026-05-13T09:43:55Z</time>
      </trkpt>
      <trkpt lat="46.91434" lon="6.26934">
        <ele>856</ele>
        <time>2026-05-13T09:43:58Z</time>
      </trkpt>
      <trkpt lat="46.91415" lon="6.26928">
        <ele>856.4</ele>
        <time>2026-05-13T09:44:04Z</time>
      </trkpt>
      <trkpt lat="46.91412" lon="6.26923">
        <ele>856.4</ele>
        <time>2026-05-13T09:44:05Z</time>
      </trkpt>
      <trkpt lat="46.91411" lon="6.26913">
        <ele>856.4</ele>
        <time>2026-05-13T09:44:07Z</time>
      </trkpt>
      <trkpt lat="46.91416" lon="6.26901">
        <ele>856.4</ele>
        <time>2026-05-13T09:44:11Z</time>
      </trkpt>
      <trkpt lat="46.9142" lon="6.26894">
        <ele>856.6</ele>
        <time>2026-05-13T09:44:14Z</time>
      </trkpt>
      <trkpt lat="46.91424" lon="6.26888">
        <ele>856.8</ele>
        <time>2026-05-13T09:44:17Z</time>
      </trkpt>
      <trkpt lat="46.91429" lon="6.26881">
        <ele>857.8</ele>
        <time>2026-05-13T09:44:21Z</time>
      </trkpt>
      <trkpt lat="46.91433" lon="6.26878">
        <ele>858.2</ele>
        <time>2026-05-13T09:44:23Z</time>
      </trkpt>
      <trkpt lat="46.91439" lon="6.26876">
        <ele>859</ele>
        <time>2026-05-13T09:44:26Z</time>
      </trkpt>
      <trkpt lat="46.91445" lon="6.26873">
        <ele>859.4</ele>
        <time>2026-05-13T09:44:29Z</time>
      </trkpt>
      <trkpt lat="46.91447" lon="6.26872">
        <ele>860</ele>
        <time>2026-05-13T09:44:30Z</time>
      </trkpt>
      <trkpt lat="46.91452" lon="6.26868">
        <ele>861.2</ele>
        <time>2026-05-13T09:44:33Z</time>
      </trkpt>
      <trkpt lat="46.91461" lon="6.26863">
        <ele>861.4</ele>
        <time>2026-05-13T09:44:37Z</time>
      </trkpt>
      <trkpt lat="46.91473" lon="6.26858">
        <ele>862.2</ele>
        <time>2026-05-13T09:44:43Z</time>
      </trkpt>
      <trkpt lat="46.91479" lon="6.26856">
        <ele>862.8</ele>
        <time>2026-05-13T09:44:46Z</time>
      </trkpt>
      <trkpt lat="46.91485" lon="6.26853">
        <ele>863.2</ele>
        <time>2026-05-13T09:44:49Z</time>
      </trkpt>
      <trkpt lat="46.91487" lon="6.26852">
        <ele>863.4</ele>
        <time>2026-05-13T09:44:50Z</time>
      </trkpt>
      <trkpt lat="46.91497" lon="6.26843">
        <ele>864.2</ele>
        <time>2026-05-13T09:44:55Z</time>
      </trkpt>
      <trkpt lat="46.91508" lon="6.26835">
        <ele>864.6</ele>
        <time>2026-05-13T09:44:59Z</time>
      </trkpt>
      <trkpt lat="46.91512" lon="6.26833">
        <ele>864.6</ele>
        <time>2026-05-13T09:45:00Z</time>
      </trkpt>
      <trkpt lat="46.91526" lon="6.26815">
        <ele>864.8</ele>
        <time>2026-05-13T09:45:05Z</time>
      </trkpt>
      <trkpt lat="46.91551" lon="6.26788">
        <ele>865</ele>
        <time>2026-05-13T09:45:13Z</time>
      </trkpt>
      <trkpt lat="46.91575" lon="6.26778">
        <ele>865.2</ele>
        <time>2026-05-13T09:45:20Z</time>
      </trkpt>
      <trkpt lat="46.91588" lon="6.26772">
        <ele>865.6</ele>
        <time>2026-05-13T09:45:24Z</time>
      </trkpt>
      <trkpt lat="46.91595" lon="6.26773">
        <ele>865.8</ele>
        <time>2026-05-13T09:45:26Z</time>
      </trkpt>
      <trkpt lat="46.91612" lon="6.26775">
        <ele>866.6</ele>
        <time>2026-05-13T09:45:32Z</time>
      </trkpt>
      <trkpt lat="46.91628" lon="6.2678">
        <ele>868</ele>
        <time>2026-05-13T09:45:38Z</time>
      </trkpt>
      <trkpt lat="46.91634" lon="6.26781">
        <ele>868.6</ele>
        <time>2026-05-13T09:45:40Z</time>
      </trkpt>
      <trkpt lat="46.91637" lon="6.26781">
        <ele>869</ele>
        <time>2026-05-13T09:45:41Z</time>
      </trkpt>
      <trkpt lat="46.91651" lon="6.26784">
        <ele>870.2</ele>
        <time>2026-05-13T09:45:46Z</time>
      </trkpt>
      <trkpt lat="46.91665" lon="6.26784">
        <ele>871.4</ele>
        <time>2026-05-13T09:45:51Z</time>
      </trkpt>
      <trkpt lat="46.91676" lon="6.26787">
        <ele>872.4</ele>
        <time>2026-05-13T09:45:55Z</time>
      </trkpt>
      <trkpt lat="46.91679" lon="6.26788">
        <ele>872.8</ele>
        <time>2026-05-13T09:45:56Z</time>
      </trkpt>
      <trkpt lat="46.91698" lon="6.26791">
        <ele>873.4</ele>
        <time>2026-05-13T09:46:03Z</time>
      </trkpt>
      <trkpt lat="46.91701" lon="6.26791">
        <ele>873.6</ele>
        <time>2026-05-13T09:46:04Z</time>
      </trkpt>
      <trkpt lat="46.91713" lon="6.2679">
        <ele>875.2</ele>
        <time>2026-05-13T09:46:10Z</time>
      </trkpt>
      <trkpt lat="46.91721" lon="6.26779">
        <ele>875.4</ele>
        <time>2026-05-13T09:46:15Z</time>
      </trkpt>
      <trkpt lat="46.91724" lon="6.26777">
        <ele>875.4</ele>
        <time>2026-05-13T09:46:17Z</time>
      </trkpt>
      <trkpt lat="46.91729" lon="6.26782">
        <ele>875.4</ele>
        <time>2026-05-13T09:46:19Z</time>
      </trkpt>
      <trkpt lat="46.91749" lon="6.268">
        <ele>875.2</ele>
        <time>2026-05-13T09:46:25Z</time>
      </trkpt>
      <trkpt lat="46.91777" lon="6.26818">
        <ele>875.2</ele>
        <time>2026-05-13T09:46:33Z</time>
      </trkpt>
      <trkpt lat="46.91778" lon="6.26819">
        <ele>875.2</ele>
        <time>2026-05-13T09:46:36Z</time>
      </trkpt>
      <trkpt lat="46.91783" lon="6.26823">
        <ele>875.2</ele>
        <time>2026-05-13T09:46:42Z</time>
      </trkpt>
      <trkpt lat="46.9179" lon="6.26825">
        <ele>875.2</ele>
        <time>2026-05-13T09:46:44Z</time>
      </trkpt>
      <trkpt lat="46.91802" lon="6.26823">
        <ele>875.4</ele>
        <time>2026-05-13T09:46:47Z</time>
      </trkpt>
      <trkpt lat="46.91805" lon="6.26819">
        <ele>875.4</ele>
        <time>2026-05-13T09:46:48Z</time>
      </trkpt>
      <trkpt lat="46.91814" lon="6.26802">
        <ele>876</ele>
        <time>2026-05-13T09:46:52Z</time>
      </trkpt>
      <trkpt lat="46.91817" lon="6.26798">
        <ele>876.2</ele>
        <time>2026-05-13T09:46:53Z</time>
      </trkpt>
      <trkpt lat="46.91833" lon="6.26784">
        <ele>877.2</ele>
        <time>2026-05-13T09:46:58Z</time>
      </trkpt>
      <trkpt lat="46.91838" lon="6.26779">
        <ele>877.4</ele>
        <time>2026-05-13T09:47:00Z</time>
      </trkpt>
      <trkpt lat="46.91847" lon="6.26767">
        <ele>878.4</ele>
        <time>2026-05-13T09:47:03Z</time>
      </trkpt>
      <trkpt lat="46.91856" lon="6.26757">
        <ele>879.2</ele>
        <time>2026-05-13T09:47:06Z</time>
      </trkpt>
      <trkpt lat="46.91862" lon="6.26751">
        <ele>879.2</ele>
        <time>2026-05-13T09:47:08Z</time>
      </trkpt>
      <trkpt lat="46.91875" lon="6.2674">
        <ele>880.4</ele>
        <time>2026-05-13T09:47:12Z</time>
      </trkpt>
      <trkpt lat="46.91882" lon="6.26735">
        <ele>880.6</ele>
        <time>2026-05-13T09:47:14Z</time>
      </trkpt>
      <trkpt lat="46.91905" lon="6.26722">
        <ele>881.6</ele>
        <time>2026-05-13T09:47:21Z</time>
      </trkpt>
      <trkpt lat="46.91909" lon="6.2672">
        <ele>881.6</ele>
        <time>2026-05-13T09:47:22Z</time>
      </trkpt>
      <trkpt lat="46.91941" lon="6.26709">
        <ele>882.6</ele>
        <time>2026-05-13T09:47:31Z</time>
      </trkpt>
      <trkpt lat="46.91964" lon="6.26704">
        <ele>883.6</ele>
        <time>2026-05-13T09:47:37Z</time>
      </trkpt>
      <trkpt lat="46.91976" lon="6.26702">
        <ele>884</ele>
        <time>2026-05-13T09:47:40Z</time>
      </trkpt>
      <trkpt lat="46.92008" lon="6.26696">
        <ele>884.4</ele>
        <time>2026-05-13T09:47:48Z</time>
      </trkpt>
      <trkpt lat="46.92029" lon="6.26692">
        <ele>884.6</ele>
        <time>2026-05-13T09:47:53Z</time>
      </trkpt>
      <trkpt lat="46.9205" lon="6.2669">
        <ele>885</ele>
        <time>2026-05-13T09:47:58Z</time>
      </trkpt>
      <trkpt lat="46.92087" lon="6.26684">
        <ele>885.6</ele>
        <time>2026-05-13T09:48:07Z</time>
      </trkpt>
      <trkpt lat="46.92091" lon="6.26684">
        <ele>885.6</ele>
        <time>2026-05-13T09:48:08Z</time>
      </trkpt>
      <trkpt lat="46.92121" lon="6.26681">
        <ele>886</ele>
        <time>2026-05-13T09:48:17Z</time>
      </trkpt>
      <trkpt lat="46.92123" lon="6.2668">
        <ele>886</ele>
        <time>2026-05-13T09:48:21Z</time>
      </trkpt>
      <trkpt lat="46.92126" lon="6.26679">
        <ele>885.8</ele>
        <time>2026-05-13T09:48:54Z</time>
      </trkpt>
      <trkpt lat="46.92143" lon="6.26675">
        <ele>886.2</ele>
        <time>2026-05-13T09:48:59Z</time>
      </trkpt>
      <trkpt lat="46.92178" lon="6.26669">
        <ele>886.6</ele>
        <time>2026-05-13T09:49:07Z</time>
      </trkpt>
      <trkpt lat="46.92194" lon="6.26666">
        <ele>886.8</ele>
        <time>2026-05-13T09:49:11Z</time>
      </trkpt>
      <trkpt lat="46.92204" lon="6.26665">
        <ele>886.8</ele>
        <time>2026-05-13T09:49:13Z</time>
      </trkpt>
      <trkpt lat="46.92209" lon="6.26665">
        <ele>887</ele>
        <time>2026-05-13T09:49:14Z</time>
      </trkpt>
      <trkpt lat="46.92246" lon="6.26667">
        <ele>887.8</ele>
        <time>2026-05-13T09:49:22Z</time>
      </trkpt>
      <trkpt lat="46.9226" lon="6.26671">
        <ele>888</ele>
        <time>2026-05-13T09:49:25Z</time>
      </trkpt>
      <trkpt lat="46.92291" lon="6.2668">
        <ele>887.8</ele>
        <time>2026-05-13T09:49:31Z</time>
      </trkpt>
      <trkpt lat="46.92332" lon="6.26695">
        <ele>887.4</ele>
        <time>2026-05-13T09:49:38Z</time>
      </trkpt>
      <trkpt lat="46.92381" lon="6.2671">
        <ele>887.6</ele>
        <time>2026-05-13T09:49:46Z</time>
      </trkpt>
      <trkpt lat="46.92412" lon="6.26733">
        <ele>888.2</ele>
        <time>2026-05-13T09:49:52Z</time>
      </trkpt>
      <trkpt lat="46.92454" lon="6.26779">
        <ele>887.8</ele>
        <time>2026-05-13T09:50:00Z</time>
      </trkpt>
      <trkpt lat="46.92498" lon="6.26826">
        <ele>887.2</ele>
        <time>2026-05-13T09:50:08Z</time>
      </trkpt>
      <trkpt lat="46.92538" lon="6.2687">
        <ele>887</ele>
        <time>2026-05-13T09:50:16Z</time>
      </trkpt>
      <trkpt lat="46.92544" lon="6.26877">
        <ele>886.8</ele>
        <time>2026-05-13T09:50:17Z</time>
      </trkpt>
      <trkpt lat="46.9255" lon="6.26883">
        <ele>886.8</ele>
        <time>2026-05-13T09:50:18Z</time>
      </trkpt>
      <trkpt lat="46.92556" lon="6.26887">
        <ele>886.8</ele>
        <time>2026-05-13T09:50:19Z</time>
      </trkpt>
      <trkpt lat="46.92561" lon="6.26891">
        <ele>886.6</ele>
        <time>2026-05-13T09:50:20Z</time>
      </trkpt>
      <trkpt lat="46.92566" lon="6.26893">
        <ele>886.6</ele>
        <time>2026-05-13T09:50:21Z</time>
      </trkpt>
      <trkpt lat="46.92588" lon="6.26897">
        <ele>886.4</ele>
        <time>2026-05-13T09:50:24Z</time>
      </trkpt>
      <trkpt lat="46.92612" lon="6.26897">
        <ele>885.8</ele>
        <time>2026-05-13T09:50:27Z</time>
      </trkpt>
      <trkpt lat="46.9262" lon="6.26897">
        <ele>885.4</ele>
        <time>2026-05-13T09:50:28Z</time>
      </trkpt>
      <trkpt lat="46.92637" lon="6.26897">
        <ele>884.8</ele>
        <time>2026-05-13T09:50:30Z</time>
      </trkpt>
      <trkpt lat="46.92662" lon="6.26891">
        <ele>883.4</ele>
        <time>2026-05-13T09:50:33Z</time>
      </trkpt>
      <trkpt lat="46.92696" lon="6.26887">
        <ele>882.6</ele>
        <time>2026-05-13T09:50:37Z</time>
      </trkpt>
      <trkpt lat="46.92705" lon="6.26884">
        <ele>882.4</ele>
        <time>2026-05-13T09:50:38Z</time>
      </trkpt>
      <trkpt lat="46.92713" lon="6.26881">
        <ele>882.2</ele>
        <time>2026-05-13T09:50:39Z</time>
      </trkpt>
      <trkpt lat="46.92725" lon="6.26874">
        <ele>882</ele>
        <time>2026-05-13T09:50:40Z</time>
      </trkpt>
      <trkpt lat="46.92742" lon="6.2686">
        <ele>881.2</ele>
        <time>2026-05-13T09:50:42Z</time>
      </trkpt>
      <trkpt lat="46.9275" lon="6.26851">
        <ele>881</ele>
        <time>2026-05-13T09:50:43Z</time>
      </trkpt>
      <trkpt lat="46.92762" lon="6.26835">
        <ele>880.2</ele>
        <time>2026-05-13T09:50:45Z</time>
      </trkpt>
      <trkpt lat="46.92767" lon="6.26823">
        <ele>880</ele>
        <time>2026-05-13T09:50:46Z</time>
      </trkpt>
      <trkpt lat="46.92779" lon="6.26805">
        <ele>879.2</ele>
        <time>2026-05-13T09:50:48Z</time>
      </trkpt>
      <trkpt lat="46.92787" lon="6.26795">
        <ele>878.2</ele>
        <time>2026-05-13T09:50:49Z</time>
      </trkpt>
      <trkpt lat="46.92795" lon="6.26784">
        <ele>877.6</ele>
        <time>2026-05-13T09:50:50Z</time>
      </trkpt>
      <trkpt lat="46.92802" lon="6.26774">
        <ele>877.2</ele>
        <time>2026-05-13T09:50:51Z</time>
      </trkpt>
      <trkpt lat="46.92817" lon="6.2676">
        <ele>876.2</ele>
        <time>2026-05-13T09:50:53Z</time>
      </trkpt>
      <trkpt lat="46.92826" lon="6.26753">
        <ele>875</ele>
        <time>2026-05-13T09:50:54Z</time>
      </trkpt>
      <trkpt lat="46.92835" lon="6.26745">
        <ele>873.8</ele>
        <time>2026-05-13T09:50:55Z</time>
      </trkpt>
      <trkpt lat="46.92851" lon="6.26726">
        <ele>872.6</ele>
        <time>2026-05-13T09:50:57Z</time>
      </trkpt>
      <trkpt lat="46.92859" lon="6.26715">
        <ele>872</ele>
        <time>2026-05-13T09:50:58Z</time>
      </trkpt>
      <trkpt lat="46.92864" lon="6.26704">
        <ele>871.2</ele>
        <time>2026-05-13T09:50:59Z</time>
      </trkpt>
      <trkpt lat="46.92872" lon="6.26689">
        <ele>870.8</ele>
        <time>2026-05-13T09:51:00Z</time>
      </trkpt>
      <trkpt lat="46.92877" lon="6.26677">
        <ele>870.2</ele>
        <time>2026-05-13T09:51:01Z</time>
      </trkpt>
      <trkpt lat="46.92884" lon="6.26652">
        <ele>869</ele>
        <time>2026-05-13T09:51:03Z</time>
      </trkpt>
      <trkpt lat="46.92887" lon="6.26633">
        <ele>867.6</ele>
        <time>2026-05-13T09:51:05Z</time>
      </trkpt>
      <trkpt lat="46.92889" lon="6.26625">
        <ele>866.4</ele>
        <time>2026-05-13T09:51:06Z</time>
      </trkpt>
      <trkpt lat="46.92892" lon="6.26616">
        <ele>865</ele>
        <time>2026-05-13T09:51:07Z</time>
      </trkpt>
      <trkpt lat="46.92895" lon="6.26602">
        <ele>863.2</ele>
        <time>2026-05-13T09:51:09Z</time>
      </trkpt>
      <trkpt lat="46.92901" lon="6.26603">
        <ele>862</ele>
        <time>2026-05-13T09:51:11Z</time>
      </trkpt>
      <trkpt lat="46.92904" lon="6.26607">
        <ele>861.4</ele>
        <time>2026-05-13T09:51:12Z</time>
      </trkpt>
      <trkpt lat="46.92908" lon="6.26614">
        <ele>861</ele>
        <time>2026-05-13T09:51:13Z</time>
      </trkpt>
      <trkpt lat="46.92911" lon="6.26622">
        <ele>860</ele>
        <time>2026-05-13T09:51:14Z</time>
      </trkpt>
      <trkpt lat="46.92914" lon="6.26631">
        <ele>859.6</ele>
        <time>2026-05-13T09:51:15Z</time>
      </trkpt>
      <trkpt lat="46.92918" lon="6.2664">
        <ele>858.8</ele>
        <time>2026-05-13T09:51:16Z</time>
      </trkpt>
      <trkpt lat="46.92923" lon="6.26648">
        <ele>858</ele>
        <time>2026-05-13T09:51:17Z</time>
      </trkpt>
      <trkpt lat="46.92929" lon="6.26656">
        <ele>857.8</ele>
        <time>2026-05-13T09:51:18Z</time>
      </trkpt>
      <trkpt lat="46.92936" lon="6.26663">
        <ele>857</ele>
        <time>2026-05-13T09:51:19Z</time>
      </trkpt>
      <trkpt lat="46.92944" lon="6.26668">
        <ele>856.2</ele>
        <time>2026-05-13T09:51:20Z</time>
      </trkpt>
      <trkpt lat="46.92953" lon="6.26671">
        <ele>855.8</ele>
        <time>2026-05-13T09:51:21Z</time>
      </trkpt>
      <trkpt lat="46.92968" lon="6.2667">
        <ele>855</ele>
        <time>2026-05-13T09:51:23Z</time>
      </trkpt>
      <trkpt lat="46.92984" lon="6.26671">
        <ele>854.2</ele>
        <time>2026-05-13T09:51:25Z</time>
      </trkpt>
      <trkpt lat="46.92992" lon="6.26672">
        <ele>853.4</ele>
        <time>2026-05-13T09:51:26Z</time>
      </trkpt>
      <trkpt lat="46.93" lon="6.26671">
        <ele>853.2</ele>
        <time>2026-05-13T09:51:27Z</time>
      </trkpt>
      <trkpt lat="46.93008" lon="6.26667">
        <ele>852.8</ele>
        <time>2026-05-13T09:51:28Z</time>
      </trkpt>
      <trkpt lat="46.93017" lon="6.26662">
        <ele>852.6</ele>
        <time>2026-05-13T09:51:29Z</time>
      </trkpt>
      <trkpt lat="46.93043" lon="6.26645">
        <ele>852.2</ele>
        <time>2026-05-13T09:51:32Z</time>
      </trkpt>
      <trkpt lat="46.9305" lon="6.26637">
        <ele>851.4</ele>
        <time>2026-05-13T09:51:33Z</time>
      </trkpt>
      <trkpt lat="46.93058" lon="6.2663">
        <ele>850.6</ele>
        <time>2026-05-13T09:51:34Z</time>
      </trkpt>
      <trkpt lat="46.9307" lon="6.26613">
        <ele>849.8</ele>
        <time>2026-05-13T09:51:36Z</time>
      </trkpt>
      <trkpt lat="46.93075" lon="6.26602">
        <ele>849.6</ele>
        <time>2026-05-13T09:51:37Z</time>
      </trkpt>
      <trkpt lat="46.93085" lon="6.2658">
        <ele>848.8</ele>
        <time>2026-05-13T09:51:39Z</time>
      </trkpt>
      <trkpt lat="46.93099" lon="6.26545">
        <ele>847.8</ele>
        <time>2026-05-13T09:51:42Z</time>
      </trkpt>
      <trkpt lat="46.93104" lon="6.26534">
        <ele>847.4</ele>
        <time>2026-05-13T09:51:43Z</time>
      </trkpt>
      <trkpt lat="46.93113" lon="6.26511">
        <ele>846.4</ele>
        <time>2026-05-13T09:51:45Z</time>
      </trkpt>
      <trkpt lat="46.93133" lon="6.26463">
        <ele>845.4</ele>
        <time>2026-05-13T09:51:49Z</time>
      </trkpt>
      <trkpt lat="46.93137" lon="6.26454">
        <ele>844.8</ele>
        <time>2026-05-13T09:51:50Z</time>
      </trkpt>
      <trkpt lat="46.9315" lon="6.26433">
        <ele>844.2</ele>
        <time>2026-05-13T09:51:52Z</time>
      </trkpt>
      <trkpt lat="46.93163" lon="6.26417">
        <ele>843.6</ele>
        <time>2026-05-13T09:51:54Z</time>
      </trkpt>
      <trkpt lat="46.93178" lon="6.26403">
        <ele>842.8</ele>
        <time>2026-05-13T09:51:56Z</time>
      </trkpt>
      <trkpt lat="46.93186" lon="6.26398">
        <ele>842.4</ele>
        <time>2026-05-13T09:51:57Z</time>
      </trkpt>
      <trkpt lat="46.93194" lon="6.26395">
        <ele>842</ele>
        <time>2026-05-13T09:51:58Z</time>
      </trkpt>
      <trkpt lat="46.9321" lon="6.2639">
        <ele>841.2</ele>
        <time>2026-05-13T09:52:00Z</time>
      </trkpt>
      <trkpt lat="46.93242" lon="6.26383">
        <ele>840.2</ele>
        <time>2026-05-13T09:52:04Z</time>
      </trkpt>
      <trkpt lat="46.93269" lon="6.26376">
        <ele>839</ele>
        <time>2026-05-13T09:52:08Z</time>
      </trkpt>
      <trkpt lat="46.9329" lon="6.26369">
        <ele>838.6</ele>
        <time>2026-05-13T09:52:11Z</time>
      </trkpt>
      <trkpt lat="46.93316" lon="6.26362">
        <ele>838.2</ele>
        <time>2026-05-13T09:52:15Z</time>
      </trkpt>
      <trkpt lat="46.93329" lon="6.26358">
        <ele>838</ele>
        <time>2026-05-13T09:52:17Z</time>
      </trkpt>
      <trkpt lat="46.93357" lon="6.2635">
        <ele>837.8</ele>
        <time>2026-05-13T09:52:21Z</time>
      </trkpt>
      <trkpt lat="46.93402" lon="6.26336">
        <ele>837</ele>
        <time>2026-05-13T09:52:27Z</time>
      </trkpt>
      <trkpt lat="46.93408" lon="6.26334">
        <ele>837</ele>
        <time>2026-05-13T09:52:28Z</time>
      </trkpt>
      <trkpt lat="46.93464" lon="6.26317">
        <ele>836.2</ele>
        <time>2026-05-13T09:52:35Z</time>
      </trkpt>
      <trkpt lat="46.93471" lon="6.26315">
        <ele>836.2</ele>
        <time>2026-05-13T09:52:36Z</time>
      </trkpt>
      <trkpt lat="46.93501" lon="6.26305">
        <ele>836</ele>
        <time>2026-05-13T09:52:40Z</time>
      </trkpt>
      <trkpt lat="46.93523" lon="6.26298">
        <ele>836</ele>
        <time>2026-05-13T09:52:43Z</time>
      </trkpt>
      <trkpt lat="46.93577" lon="6.26281">
        <ele>835.2</ele>
        <time>2026-05-13T09:52:50Z</time>
      </trkpt>
      <trkpt lat="46.93592" lon="6.26276">
        <ele>835</ele>
        <time>2026-05-13T09:52:52Z</time>
      </trkpt>
      <trkpt lat="46.93599" lon="6.26273">
        <ele>834.8</ele>
        <time>2026-05-13T09:52:53Z</time>
      </trkpt>
      <trkpt lat="46.93654" lon="6.26255">
        <ele>834.6</ele>
        <time>2026-05-13T09:53:01Z</time>
      </trkpt>
      <trkpt lat="46.93662" lon="6.26252">
        <ele>834.6</ele>
        <time>2026-05-13T09:53:02Z</time>
      </trkpt>
      <trkpt lat="46.93719" lon="6.26232">
        <ele>834.8</ele>
        <time>2026-05-13T09:53:11Z</time>
      </trkpt>
      <trkpt lat="46.93753" lon="6.26221">
        <ele>835.4</ele>
        <time>2026-05-13T09:53:17Z</time>
      </trkpt>
      <trkpt lat="46.93775" lon="6.26214">
        <ele>836</ele>
        <time>2026-05-13T09:53:21Z</time>
      </trkpt>
      <trkpt lat="46.938" lon="6.26208">
        <ele>836.2</ele>
        <time>2026-05-13T09:53:25Z</time>
      </trkpt>
      <trkpt lat="46.93846" lon="6.26203">
        <ele>836.2</ele>
        <time>2026-05-13T09:53:32Z</time>
      </trkpt>
      <trkpt lat="46.9389" lon="6.26202">
        <ele>835.6</ele>
        <time>2026-05-13T09:53:38Z</time>
      </trkpt>
      <trkpt lat="46.939" lon="6.26205">
        <ele>835.6</ele>
        <time>2026-05-13T09:53:39Z</time>
      </trkpt>
      <trkpt lat="46.9393" lon="6.26222">
        <ele>834.6</ele>
        <time>2026-05-13T09:53:43Z</time>
      </trkpt>
      <trkpt lat="46.93939" lon="6.26231">
        <ele>834.6</ele>
        <time>2026-05-13T09:53:44Z</time>
      </trkpt>
      <trkpt lat="46.9396" lon="6.26256">
        <ele>833.6</ele>
        <time>2026-05-13T09:53:47Z</time>
      </trkpt>
      <trkpt lat="46.93976" lon="6.26277">
        <ele>832.8</ele>
        <time>2026-05-13T09:53:49Z</time>
      </trkpt>
      <trkpt lat="46.93984" lon="6.26286">
        <ele>832</ele>
        <time>2026-05-13T09:53:50Z</time>
      </trkpt>
      <trkpt lat="46.93999" lon="6.26298">
        <ele>831.2</ele>
        <time>2026-05-13T09:53:52Z</time>
      </trkpt>
      <trkpt lat="46.9401" lon="6.26304">
        <ele>830.8</ele>
        <time>2026-05-13T09:53:53Z</time>
      </trkpt>
      <trkpt lat="46.94019" lon="6.26306">
        <ele>830.8</ele>
        <time>2026-05-13T09:53:54Z</time>
      </trkpt>
      <trkpt lat="46.94036" lon="6.26306">
        <ele>830.2</ele>
        <time>2026-05-13T09:53:56Z</time>
      </trkpt>
      <trkpt lat="46.94046" lon="6.26303">
        <ele>830</ele>
        <time>2026-05-13T09:53:57Z</time>
      </trkpt>
      <trkpt lat="46.94056" lon="6.26298">
        <ele>829.6</ele>
        <time>2026-05-13T09:53:58Z</time>
      </trkpt>
      <trkpt lat="46.94065" lon="6.26292">
        <ele>829.6</ele>
        <time>2026-05-13T09:53:59Z</time>
      </trkpt>
      <trkpt lat="46.9412" lon="6.26253">
        <ele>829</ele>
        <time>2026-05-13T09:54:06Z</time>
      </trkpt>
      <trkpt lat="46.94128" lon="6.26247">
        <ele>829</ele>
        <time>2026-05-13T09:54:07Z</time>
      </trkpt>
      <trkpt lat="46.94138" lon="6.2624">
        <ele>828.8</ele>
        <time>2026-05-13T09:54:08Z</time>
      </trkpt>
      <trkpt lat="46.94177" lon="6.26213">
        <ele>827.8</ele>
        <time>2026-05-13T09:54:13Z</time>
      </trkpt>
      <trkpt lat="46.94207" lon="6.26191">
        <ele>826.8</ele>
        <time>2026-05-13T09:54:17Z</time>
      </trkpt>
      <trkpt lat="46.94228" lon="6.26176">
        <ele>826.6</ele>
        <time>2026-05-13T09:54:20Z</time>
      </trkpt>
      <trkpt lat="46.94267" lon="6.26148">
        <ele>825.4</ele>
        <time>2026-05-13T09:54:25Z</time>
      </trkpt>
      <trkpt lat="46.94298" lon="6.26126">
        <ele>825.2</ele>
        <time>2026-05-13T09:54:29Z</time>
      </trkpt>
      <trkpt lat="46.94314" lon="6.26114">
        <ele>825</ele>
        <time>2026-05-13T09:54:31Z</time>
      </trkpt>
      <trkpt lat="46.94332" lon="6.26094">
        <ele>825</ele>
        <time>2026-05-13T09:54:34Z</time>
      </trkpt>
      <trkpt lat="46.94377" lon="6.26036">
        <ele>825.2</ele>
        <time>2026-05-13T09:54:41Z</time>
      </trkpt>
      <trkpt lat="46.94383" lon="6.26027">
        <ele>825.2</ele>
        <time>2026-05-13T09:54:42Z</time>
      </trkpt>
      <trkpt lat="46.94422" lon="6.25975">
        <ele>824.4</ele>
        <time>2026-05-13T09:54:48Z</time>
      </trkpt>
      <trkpt lat="46.94437" lon="6.25955">
        <ele>824</ele>
        <time>2026-05-13T09:54:50Z</time>
      </trkpt>
      <trkpt lat="46.94456" lon="6.2593">
        <ele>823</ele>
        <time>2026-05-13T09:54:53Z</time>
      </trkpt>
      <trkpt lat="46.94486" lon="6.25895">
        <ele>822.2</ele>
        <time>2026-05-13T09:54:57Z</time>
      </trkpt>
      <trkpt lat="46.94492" lon="6.2589">
        <ele>821.6</ele>
        <time>2026-05-13T09:54:58Z</time>
      </trkpt>
      <trkpt lat="46.94503" lon="6.25883">
        <ele>821.4</ele>
        <time>2026-05-13T09:54:59Z</time>
      </trkpt>
      <trkpt lat="46.94522" lon="6.25875">
        <ele>820.8</ele>
        <time>2026-05-13T09:55:01Z</time>
      </trkpt>
      <trkpt lat="46.9453" lon="6.25874">
        <ele>820.6</ele>
        <time>2026-05-13T09:55:02Z</time>
      </trkpt>
      <trkpt lat="46.9454" lon="6.25874">
        <ele>820</ele>
        <time>2026-05-13T09:55:03Z</time>
      </trkpt>
      <trkpt lat="46.94552" lon="6.25876">
        <ele>819.2</ele>
        <time>2026-05-13T09:55:04Z</time>
      </trkpt>
      <trkpt lat="46.94571" lon="6.25884">
        <ele>818.2</ele>
        <time>2026-05-13T09:55:06Z</time>
      </trkpt>
      <trkpt lat="46.94587" lon="6.25893">
        <ele>817.2</ele>
        <time>2026-05-13T09:55:08Z</time>
      </trkpt>
      <trkpt lat="46.94597" lon="6.25899">
        <ele>817</ele>
        <time>2026-05-13T09:55:09Z</time>
      </trkpt>
      <trkpt lat="46.94616" lon="6.2591">
        <ele>815.8</ele>
        <time>2026-05-13T09:55:11Z</time>
      </trkpt>
      <trkpt lat="46.94637" lon="6.2592">
        <ele>814.4</ele>
        <time>2026-05-13T09:55:13Z</time>
      </trkpt>
      <trkpt lat="46.94657" lon="6.2593">
        <ele>812.8</ele>
        <time>2026-05-13T09:55:15Z</time>
      </trkpt>
      <trkpt lat="46.94675" lon="6.25944">
        <ele>811.6</ele>
        <time>2026-05-13T09:55:17Z</time>
      </trkpt>
      <trkpt lat="46.94684" lon="6.25953">
        <ele>810.4</ele>
        <time>2026-05-13T09:55:18Z</time>
      </trkpt>
      <trkpt lat="46.94693" lon="6.25962">
        <ele>809.8</ele>
        <time>2026-05-13T09:55:19Z</time>
      </trkpt>
      <trkpt lat="46.94701" lon="6.25972">
        <ele>808.4</ele>
        <time>2026-05-13T09:55:20Z</time>
      </trkpt>
      <trkpt lat="46.94716" lon="6.2599">
        <ele>807</ele>
        <time>2026-05-13T09:55:22Z</time>
      </trkpt>
      <trkpt lat="46.94723" lon="6.25999">
        <ele>805.6</ele>
        <time>2026-05-13T09:55:23Z</time>
      </trkpt>
      <trkpt lat="46.94732" lon="6.26009">
        <ele>805</ele>
        <time>2026-05-13T09:55:24Z</time>
      </trkpt>
      <trkpt lat="46.94737" lon="6.26015">
        <ele>804.2</ele>
        <time>2026-05-13T09:55:25Z</time>
      </trkpt>
      <trkpt lat="46.94752" lon="6.26033">
        <ele>802.4</ele>
        <time>2026-05-13T09:55:27Z</time>
      </trkpt>
      <trkpt lat="46.94758" lon="6.2604">
        <ele>801.2</ele>
        <time>2026-05-13T09:55:28Z</time>
      </trkpt>
      <trkpt lat="46.94764" lon="6.26048">
        <ele>800.8</ele>
        <time>2026-05-13T09:55:29Z</time>
      </trkpt>
      <trkpt lat="46.94769" lon="6.26054">
        <ele>799.4</ele>
        <time>2026-05-13T09:55:30Z</time>
      </trkpt>
      <trkpt lat="46.94782" lon="6.2607">
        <ele>798</ele>
        <time>2026-05-13T09:55:32Z</time>
      </trkpt>
      <trkpt lat="46.9479" lon="6.26079">
        <ele>797</ele>
        <time>2026-05-13T09:55:33Z</time>
      </trkpt>
      <trkpt lat="46.94802" lon="6.26092">
        <ele>795.6</ele>
        <time>2026-05-13T09:55:35Z</time>
      </trkpt>
      <trkpt lat="46.9481" lon="6.26102">
        <ele>794.6</ele>
        <time>2026-05-13T09:55:37Z</time>
      </trkpt>
      <trkpt lat="46.94811" lon="6.26104">
        <ele>793.6</ele>
        <time>2026-05-13T09:55:38Z</time>
      </trkpt>
      <trkpt lat="46.94815" lon="6.26108">
        <ele>792.4</ele>
        <time>2026-05-13T09:55:40Z</time>
      </trkpt>
      <trkpt lat="46.94821" lon="6.26113">
        <ele>791</ele>
        <time>2026-05-13T09:55:42Z</time>
      </trkpt>
      <trkpt lat="46.94825" lon="6.26112">
        <ele>790.8</ele>
        <time>2026-05-13T09:55:43Z</time>
      </trkpt>
      <trkpt lat="46.94846" lon="6.26098">
        <ele>789.8</ele>
        <time>2026-05-13T09:55:48Z</time>
      </trkpt>
      <trkpt lat="46.94851" lon="6.26095">
        <ele>789.8</ele>
        <time>2026-05-13T09:55:49Z</time>
      </trkpt>
      <trkpt lat="46.94877" lon="6.26073">
        <ele>789.4</ele>
        <time>2026-05-13T09:55:54Z</time>
      </trkpt>
      <trkpt lat="46.94906" lon="6.26043">
        <ele>788.8</ele>
        <time>2026-05-13T09:55:59Z</time>
      </trkpt>
      <trkpt lat="46.94912" lon="6.26036">
        <ele>788.4</ele>
        <time>2026-05-13T09:56:00Z</time>
      </trkpt>
      <trkpt lat="46.94946" lon="6.26003">
        <ele>787.6</ele>
        <time>2026-05-13T09:56:05Z</time>
      </trkpt>
      <trkpt lat="46.94953" lon="6.25996">
        <ele>787</ele>
        <time>2026-05-13T09:56:06Z</time>
      </trkpt>
      <trkpt lat="46.94971" lon="6.25975">
        <ele>785.6</ele>
        <time>2026-05-13T09:56:09Z</time>
      </trkpt>
      <trkpt lat="46.94988" lon="6.2595">
        <ele>784</ele>
        <time>2026-05-13T09:56:12Z</time>
      </trkpt>
      <trkpt lat="46.95002" lon="6.25929">
        <ele>782.6</ele>
        <time>2026-05-13T09:56:15Z</time>
      </trkpt>
      <trkpt lat="46.95009" lon="6.2592">
        <ele>781.4</ele>
        <time>2026-05-13T09:56:17Z</time>
      </trkpt>
      <trkpt lat="46.95013" lon="6.25917">
        <ele>780.2</ele>
        <time>2026-05-13T09:56:19Z</time>
      </trkpt>
      <trkpt lat="46.95017" lon="6.25914">
        <ele>779.2</ele>
        <time>2026-05-13T09:56:21Z</time>
      </trkpt>
      <trkpt lat="46.9502" lon="6.25911">
        <ele>778.8</ele>
        <time>2026-05-13T09:56:22Z</time>
      </trkpt>
      <trkpt lat="46.9503" lon="6.25902">
        <ele>777.6</ele>
        <time>2026-05-13T09:56:25Z</time>
      </trkpt>
      <trkpt lat="46.95033" lon="6.25899">
        <ele>777.2</ele>
        <time>2026-05-13T09:56:26Z</time>
      </trkpt>
      <trkpt lat="46.95052" lon="6.25896">
        <ele>776</ele>
        <time>2026-05-13T09:56:31Z</time>
      </trkpt>
      <trkpt lat="46.95073" lon="6.259">
        <ele>775</ele>
        <time>2026-05-13T09:56:35Z</time>
      </trkpt>
      <trkpt lat="46.95078" lon="6.259">
        <ele>774.8</ele>
        <time>2026-05-13T09:56:36Z</time>
      </trkpt>
      <trkpt lat="46.95082" lon="6.25901">
        <ele>774.6</ele>
        <time>2026-05-13T09:56:37Z</time>
      </trkpt>
      <trkpt lat="46.95095" lon="6.25907">
        <ele>774</ele>
        <time>2026-05-13T09:56:40Z</time>
      </trkpt>
      <trkpt lat="46.95099" lon="6.2591">
        <ele>773.6</ele>
        <time>2026-05-13T09:56:41Z</time>
      </trkpt>
      <trkpt lat="46.95102" lon="6.25913">
        <ele>773.4</ele>
        <time>2026-05-13T09:56:42Z</time>
      </trkpt>
      <trkpt lat="46.95109" lon="6.25921">
        <ele>772.8</ele>
        <time>2026-05-13T09:56:45Z</time>
      </trkpt>
      <trkpt lat="46.95124" lon="6.25939">
        <ele>772.4</ele>
        <time>2026-05-13T09:56:52Z</time>
      </trkpt>
      <trkpt lat="46.95135" lon="6.25949">
        <ele>772.4</ele>
        <time>2026-05-13T09:56:55Z</time>
      </trkpt>
      <trkpt lat="46.9514" lon="6.25953">
        <ele>772.4</ele>
        <time>2026-05-13T09:56:56Z</time>
      </trkpt>
      <trkpt lat="46.9515" lon="6.25959">
        <ele>772.4</ele>
        <time>2026-05-13T09:56:58Z</time>
      </trkpt>
      <trkpt lat="46.9516" lon="6.25967">
        <ele>772.4</ele>
        <time>2026-05-13T09:57:00Z</time>
      </trkpt>
      <trkpt lat="46.95166" lon="6.25973">
        <ele>772.4</ele>
        <time>2026-05-13T09:57:01Z</time>
      </trkpt>
      <trkpt lat="46.9519" lon="6.26006">
        <ele>772.4</ele>
        <time>2026-05-13T09:57:07Z</time>
      </trkpt>
      <trkpt lat="46.95214" lon="6.26035">
        <ele>772.2</ele>
        <time>2026-05-13T09:57:12Z</time>
      </trkpt>
      <trkpt lat="46.95228" lon="6.26041">
        <ele>772.2</ele>
        <time>2026-05-13T09:57:14Z</time>
      </trkpt>
      <trkpt lat="46.95235" lon="6.26041">
        <ele>772</ele>
        <time>2026-05-13T09:57:15Z</time>
      </trkpt>
      <trkpt lat="46.95243" lon="6.26039">
        <ele>771.8</ele>
        <time>2026-05-13T09:57:16Z</time>
      </trkpt>
      <trkpt lat="46.95257" lon="6.2603">
        <ele>771</ele>
        <time>2026-05-13T09:57:18Z</time>
      </trkpt>
      <trkpt lat="46.95271" lon="6.26016">
        <ele>770.6</ele>
        <time>2026-05-13T09:57:20Z</time>
      </trkpt>
      <trkpt lat="46.95284" lon="6.26002">
        <ele>770</ele>
        <time>2026-05-13T09:57:22Z</time>
      </trkpt>
      <trkpt lat="46.95304" lon="6.25981">
        <ele>769</ele>
        <time>2026-05-13T09:57:25Z</time>
      </trkpt>
      <trkpt lat="46.95323" lon="6.25962">
        <ele>767.8</ele>
        <time>2026-05-13T09:57:28Z</time>
      </trkpt>
      <trkpt lat="46.95329" lon="6.25956">
        <ele>767.4</ele>
        <time>2026-05-13T09:57:29Z</time>
      </trkpt>
      <trkpt lat="46.95348" lon="6.25939">
        <ele>766.6</ele>
        <time>2026-05-13T09:57:32Z</time>
      </trkpt>
      <trkpt lat="46.95368" lon="6.25925">
        <ele>766</ele>
        <time>2026-05-13T09:57:35Z</time>
      </trkpt>
      <trkpt lat="46.95387" lon="6.25912">
        <ele>765.4</ele>
        <time>2026-05-13T09:57:38Z</time>
      </trkpt>
      <trkpt lat="46.95396" lon="6.25904">
        <ele>765</ele>
        <time>2026-05-13T09:57:40Z</time>
      </trkpt>
      <trkpt lat="46.954" lon="6.25903">
        <ele>764.4</ele>
        <time>2026-05-13T09:57:41Z</time>
      </trkpt>
      <trkpt lat="46.95405" lon="6.25905">
        <ele>763.8</ele>
        <time>2026-05-13T09:57:43Z</time>
      </trkpt>
      <trkpt lat="46.95411" lon="6.25912">
        <ele>763.2</ele>
        <time>2026-05-13T09:57:45Z</time>
      </trkpt>
      <trkpt lat="46.95418" lon="6.25923">
        <ele>762.4</ele>
        <time>2026-05-13T09:57:47Z</time>
      </trkpt>
      <trkpt lat="46.95421" lon="6.2593">
        <ele>762.2</ele>
        <time>2026-05-13T09:57:48Z</time>
      </trkpt>
      <trkpt lat="46.95441" lon="6.25966">
        <ele>761.2</ele>
        <time>2026-05-13T09:57:53Z</time>
      </trkpt>
      <trkpt lat="46.95445" lon="6.25976">
        <ele>761</ele>
        <time>2026-05-13T09:57:54Z</time>
      </trkpt>
      <trkpt lat="46.95462" lon="6.26024">
        <ele>760</ele>
        <time>2026-05-13T09:57:59Z</time>
      </trkpt>
      <trkpt lat="46.95491" lon="6.2609">
        <ele>758.6</ele>
        <time>2026-05-13T09:58:06Z</time>
      </trkpt>
      <trkpt lat="46.95496" lon="6.26098">
        <ele>758.6</ele>
        <time>2026-05-13T09:58:07Z</time>
      </trkpt>
      <trkpt lat="46.95539" lon="6.26153">
        <ele>758.4</ele>
        <time>2026-05-13T09:58:15Z</time>
      </trkpt>
      <trkpt lat="46.95576" lon="6.26196">
        <ele>759</ele>
        <time>2026-05-13T09:58:22Z</time>
      </trkpt>
      <trkpt lat="46.95602" lon="6.26225">
        <ele>759.2</ele>
        <time>2026-05-13T09:58:27Z</time>
      </trkpt>
      <trkpt lat="46.95606" lon="6.26232">
        <ele>759.2</ele>
        <time>2026-05-13T09:58:28Z</time>
      </trkpt>
      <trkpt lat="46.95626" lon="6.26268">
        <ele>759.8</ele>
        <time>2026-05-13T09:58:33Z</time>
      </trkpt>
      <trkpt lat="46.95638" lon="6.26289">
        <ele>759.8</ele>
        <time>2026-05-13T09:58:36Z</time>
      </trkpt>
      <trkpt lat="46.95672" lon="6.26341">
        <ele>760</ele>
        <time>2026-05-13T09:58:44Z</time>
      </trkpt>
      <trkpt lat="46.95712" lon="6.26379">
        <ele>760</ele>
        <time>2026-05-13T09:58:51Z</time>
      </trkpt>
      <trkpt lat="46.95755" lon="6.26421">
        <ele>759</ele>
        <time>2026-05-13T09:58:58Z</time>
      </trkpt>
      <trkpt lat="46.95773" lon="6.26443">
        <ele>758.6</ele>
        <time>2026-05-13T09:59:01Z</time>
      </trkpt>
      <trkpt lat="46.95793" lon="6.26468">
        <ele>758</ele>
        <time>2026-05-13T09:59:04Z</time>
      </trkpt>
      <trkpt lat="46.958" lon="6.26476">
        <ele>757.6</ele>
        <time>2026-05-13T09:59:05Z</time>
      </trkpt>
      <trkpt lat="46.95821" lon="6.26502">
        <ele>756.2</ele>
        <time>2026-05-13T09:59:09Z</time>
      </trkpt>
      <trkpt lat="46.95849" lon="6.26537">
        <ele>755.4</ele>
        <time>2026-05-13T09:59:12Z</time>
      </trkpt>
      <trkpt lat="46.95856" lon="6.26545">
        <ele>755.2</ele>
        <time>2026-05-13T09:59:13Z</time>
      </trkpt>
      <trkpt lat="46.95883" lon="6.26579">
        <ele>754.2</ele>
        <time>2026-05-13T09:59:17Z</time>
      </trkpt>
      <trkpt lat="46.95901" lon="6.26603">
        <ele>754</ele>
        <time>2026-05-13T09:59:20Z</time>
      </trkpt>
      <trkpt lat="46.95929" lon="6.2665">
        <ele>754</ele>
        <time>2026-05-13T09:59:26Z</time>
      </trkpt>
      <trkpt lat="46.95959" lon="6.26697">
        <ele>755</ele>
        <time>2026-05-13T09:59:33Z</time>
      </trkpt>
      <trkpt lat="46.95966" lon="6.2671">
        <ele>755.4</ele>
        <time>2026-05-13T09:59:35Z</time>
      </trkpt>
      <trkpt lat="46.95978" lon="6.26727">
        <ele>756</ele>
        <time>2026-05-13T09:59:38Z</time>
      </trkpt>
      <trkpt lat="46.95981" lon="6.26732">
        <ele>756.2</ele>
        <time>2026-05-13T09:59:39Z</time>
      </trkpt>
      <trkpt lat="46.95986" lon="6.26743">
        <ele>756.6</ele>
        <time>2026-05-13T09:59:41Z</time>
      </trkpt>
      <trkpt lat="46.95997" lon="6.26759">
        <ele>757</ele>
        <time>2026-05-13T09:59:44Z</time>
      </trkpt>
      <trkpt lat="46.96" lon="6.26764">
        <ele>757.2</ele>
        <time>2026-05-13T09:59:45Z</time>
      </trkpt>
      <trkpt lat="46.96009" lon="6.2678">
        <ele>757.8</ele>
        <time>2026-05-13T09:59:48Z</time>
      </trkpt>
      <trkpt lat="46.96012" lon="6.26787">
        <ele>758</ele>
        <time>2026-05-13T09:59:49Z</time>
      </trkpt>
      <trkpt lat="46.96018" lon="6.26805">
        <ele>758.2</ele>
        <time>2026-05-13T09:59:52Z</time>
      </trkpt>
      <trkpt lat="46.96027" lon="6.26819">
        <ele>758.2</ele>
        <time>2026-05-13T09:59:54Z</time>
      </trkpt>
      <trkpt lat="46.96055" lon="6.26861">
        <ele>758.4</ele>
        <time>2026-05-13T10:00:01Z</time>
      </trkpt>
      <trkpt lat="46.9609" lon="6.26903">
        <ele>758.6</ele>
        <time>2026-05-13T10:00:08Z</time>
      </trkpt>
      <trkpt lat="46.96131" lon="6.26954">
        <ele>758.2</ele>
        <time>2026-05-13T10:00:16Z</time>
      </trkpt>
      <trkpt lat="46.96171" lon="6.2701">
        <ele>757.8</ele>
        <time>2026-05-13T10:00:24Z</time>
      </trkpt>
      <trkpt lat="46.96208" lon="6.27058">
        <ele>756.6</ele>
        <time>2026-05-13T10:00:31Z</time>
      </trkpt>
      <trkpt lat="46.96214" lon="6.27064">
        <ele>756.6</ele>
        <time>2026-05-13T10:00:32Z</time>
      </trkpt>
      <trkpt lat="46.96253" lon="6.27109">
        <ele>755.8</ele>
        <time>2026-05-13T10:00:39Z</time>
      </trkpt>
      <trkpt lat="46.96297" lon="6.27152">
        <ele>755</ele>
        <time>2026-05-13T10:00:46Z</time>
      </trkpt>
      <trkpt lat="46.96304" lon="6.27158">
        <ele>754.6</ele>
        <time>2026-05-13T10:00:47Z</time>
      </trkpt>
      <trkpt lat="46.96357" lon="6.27201">
        <ele>753.8</ele>
        <time>2026-05-13T10:00:55Z</time>
      </trkpt>
      <trkpt lat="46.96364" lon="6.27206">
        <ele>753.8</ele>
        <time>2026-05-13T10:00:56Z</time>
      </trkpt>
      <trkpt lat="46.96371" lon="6.27211">
        <ele>753.6</ele>
        <time>2026-05-13T10:00:57Z</time>
      </trkpt>
      <trkpt lat="46.96416" lon="6.27246">
        <ele>753.4</ele>
        <time>2026-05-13T10:01:04Z</time>
      </trkpt>
      <trkpt lat="46.96463" lon="6.27285">
        <ele>753.8</ele>
        <time>2026-05-13T10:01:12Z</time>
      </trkpt>
      <trkpt lat="46.96487" lon="6.2731">
        <ele>754.6</ele>
        <time>2026-05-13T10:01:17Z</time>
      </trkpt>
      <trkpt lat="46.96492" lon="6.27315">
        <ele>754.8</ele>
        <time>2026-05-13T10:01:18Z</time>
      </trkpt>
      <trkpt lat="46.96531" lon="6.27358">
        <ele>755.6</ele>
        <time>2026-05-13T10:01:26Z</time>
      </trkpt>
      <trkpt lat="46.96562" lon="6.27397">
        <ele>755.6</ele>
        <time>2026-05-13T10:01:32Z</time>
      </trkpt>
      <trkpt lat="46.96595" lon="6.27439">
        <ele>754.6</ele>
        <time>2026-05-13T10:01:38Z</time>
      </trkpt>
      <trkpt lat="46.96639" lon="6.27493">
        <ele>754.2</ele>
        <time>2026-05-13T10:01:46Z</time>
      </trkpt>
      <trkpt lat="46.96684" lon="6.27538">
        <ele>754</ele>
        <time>2026-05-13T10:01:54Z</time>
      </trkpt>
      <trkpt lat="46.96727" lon="6.2756">
        <ele>753.8</ele>
        <time>2026-05-13T10:02:01Z</time>
      </trkpt>
      <trkpt lat="46.9674" lon="6.27563">
        <ele>753.6</ele>
        <time>2026-05-13T10:02:03Z</time>
      </trkpt>
      <trkpt lat="46.96746" lon="6.27564">
        <ele>753.6</ele>
        <time>2026-05-13T10:02:04Z</time>
      </trkpt>
      <trkpt lat="46.96766" lon="6.27561">
        <ele>753.6</ele>
        <time>2026-05-13T10:02:07Z</time>
      </trkpt>
      <trkpt lat="46.96822" lon="6.27552">
        <ele>753</ele>
        <time>2026-05-13T10:02:15Z</time>
      </trkpt>
      <trkpt lat="46.96869" lon="6.27555">
        <ele>752.6</ele>
        <time>2026-05-13T10:02:22Z</time>
      </trkpt>
      <trkpt lat="46.96876" lon="6.27556">
        <ele>752.4</ele>
        <time>2026-05-13T10:02:23Z</time>
      </trkpt>
      <trkpt lat="46.96931" lon="6.27564">
        <ele>752.6</ele>
        <time>2026-05-13T10:02:31Z</time>
      </trkpt>
      <trkpt lat="46.96944" lon="6.27566">
        <ele>752.6</ele>
        <time>2026-05-13T10:02:33Z</time>
      </trkpt>
      <trkpt lat="46.96991" lon="6.27575">
        <ele>753.2</ele>
        <time>2026-05-13T10:02:41Z</time>
      </trkpt>
      <trkpt lat="46.97014" lon="6.27578">
        <ele>753.6</ele>
        <time>2026-05-13T10:02:45Z</time>
      </trkpt>
      <trkpt lat="46.97019" lon="6.27581">
        <ele>753.8</ele>
        <time>2026-05-13T10:02:46Z</time>
      </trkpt>
      <trkpt lat="46.97024" lon="6.27583">
        <ele>754</ele>
        <time>2026-05-13T10:02:47Z</time>
      </trkpt>
      <trkpt lat="46.97029" lon="6.27585">
        <ele>754</ele>
        <time>2026-05-13T10:02:48Z</time>
      </trkpt>
      <trkpt lat="46.97038" lon="6.27589">
        <ele>754</ele>
        <time>2026-05-13T10:02:50Z</time>
      </trkpt>
      <trkpt lat="46.97042" lon="6.27591">
        <ele>754.2</ele>
        <time>2026-05-13T10:02:51Z</time>
      </trkpt>
      <trkpt lat="46.97057" lon="6.27593">
        <ele>754.4</ele>
        <time>2026-05-13T10:02:54Z</time>
      </trkpt>
      <trkpt lat="46.97067" lon="6.2759">
        <ele>754.6</ele>
        <time>2026-05-13T10:02:56Z</time>
      </trkpt>
      <trkpt lat="46.97099" lon="6.2757">
        <ele>754.4</ele>
        <time>2026-05-13T10:03:02Z</time>
      </trkpt>
      <trkpt lat="46.97137" lon="6.27549">
        <ele>753.8</ele>
        <time>2026-05-13T10:03:08Z</time>
      </trkpt>
      <trkpt lat="46.97144" lon="6.27546">
        <ele>753.6</ele>
        <time>2026-05-13T10:03:09Z</time>
      </trkpt>
      <trkpt lat="46.97151" lon="6.27546">
        <ele>753.6</ele>
        <time>2026-05-13T10:03:10Z</time>
      </trkpt>
      <trkpt lat="46.97166" lon="6.2755">
        <ele>753.2</ele>
        <time>2026-05-13T10:03:12Z</time>
      </trkpt>
      <trkpt lat="46.9718" lon="6.27557">
        <ele>752.6</ele>
        <time>2026-05-13T10:03:14Z</time>
      </trkpt>
      <trkpt lat="46.97209" lon="6.27571">
        <ele>751.8</ele>
        <time>2026-05-13T10:03:19Z</time>
      </trkpt>
      <trkpt lat="46.97224" lon="6.27577">
        <ele>751.6</ele>
        <time>2026-05-13T10:03:20Z</time>
      </trkpt>
      <trkpt lat="46.9727" lon="6.27597">
        <ele>750.4</ele>
        <time>2026-05-13T10:03:26Z</time>
      </trkpt>
      <trkpt lat="46.97277" lon="6.276">
        <ele>750.2</ele>
        <time>2026-05-13T10:03:27Z</time>
      </trkpt>
      <trkpt lat="46.97332" lon="6.27622">
        <ele>749.8</ele>
        <time>2026-05-13T10:03:35Z</time>
      </trkpt>
      <trkpt lat="46.97362" lon="6.27634">
        <ele>749.8</ele>
        <time>2026-05-13T10:03:40Z</time>
      </trkpt>
      <trkpt lat="46.97379" lon="6.27641">
        <ele>749.8</ele>
        <time>2026-05-13T10:03:43Z</time>
      </trkpt>
      <trkpt lat="46.9739" lon="6.27647">
        <ele>750</ele>
        <time>2026-05-13T10:03:45Z</time>
      </trkpt>
      <trkpt lat="46.97429" lon="6.27662">
        <ele>751.2</ele>
        <time>2026-05-13T10:03:52Z</time>
      </trkpt>
      <trkpt lat="46.9744" lon="6.27668">
        <ele>751.2</ele>
        <time>2026-05-13T10:03:54Z</time>
      </trkpt>
      <trkpt lat="46.97455" lon="6.27679">
        <ele>751.6</ele>
        <time>2026-05-13T10:03:57Z</time>
      </trkpt>
      <trkpt lat="46.9746" lon="6.27683">
        <ele>751.8</ele>
        <time>2026-05-13T10:03:58Z</time>
      </trkpt>
      <trkpt lat="46.97509" lon="6.27732">
        <ele>752.6</ele>
        <time>2026-05-13T10:04:08Z</time>
      </trkpt>
      <trkpt lat="46.97535" lon="6.27763">
        <ele>752.4</ele>
        <time>2026-05-13T10:04:13Z</time>
      </trkpt>
      <trkpt lat="46.97577" lon="6.27808">
        <ele>751.4</ele>
        <time>2026-05-13T10:04:20Z</time>
      </trkpt>
      <trkpt lat="46.97608" lon="6.27826">
        <ele>750.6</ele>
        <time>2026-05-13T10:04:24Z</time>
      </trkpt>
      <trkpt lat="46.97616" lon="6.27831">
        <ele>750.2</ele>
        <time>2026-05-13T10:04:25Z</time>
      </trkpt>
      <trkpt lat="46.97634" lon="6.27841">
        <ele>749.4</ele>
        <time>2026-05-13T10:04:27Z</time>
      </trkpt>
      <trkpt lat="46.97652" lon="6.2785">
        <ele>748.2</ele>
        <time>2026-05-13T10:04:29Z</time>
      </trkpt>
      <trkpt lat="46.97661" lon="6.27853">
        <ele>748</ele>
        <time>2026-05-13T10:04:30Z</time>
      </trkpt>
      <trkpt lat="46.97681" lon="6.27859">
        <ele>746.8</ele>
        <time>2026-05-13T10:04:32Z</time>
      </trkpt>
      <trkpt lat="46.97711" lon="6.27865">
        <ele>746.2</ele>
        <time>2026-05-13T10:04:35Z</time>
      </trkpt>
      <trkpt lat="46.97721" lon="6.27867">
        <ele>745.6</ele>
        <time>2026-05-13T10:04:36Z</time>
      </trkpt>
      <trkpt lat="46.97752" lon="6.27873">
        <ele>743.8</ele>
        <time>2026-05-13T10:04:39Z</time>
      </trkpt>
      <trkpt lat="46.97762" lon="6.27877">
        <ele>743.4</ele>
        <time>2026-05-13T10:04:40Z</time>
      </trkpt>
      <trkpt lat="46.97774" lon="6.27883">
        <ele>743</ele>
        <time>2026-05-13T10:04:41Z</time>
      </trkpt>
      <trkpt lat="46.97783" lon="6.2789">
        <ele>742</ele>
        <time>2026-05-13T10:04:42Z</time>
      </trkpt>
      <trkpt lat="46.97799" lon="6.27905">
        <ele>741</ele>
        <time>2026-05-13T10:04:44Z</time>
      </trkpt>
      <trkpt lat="46.97808" lon="6.27915">
        <ele>740.6</ele>
        <time>2026-05-13T10:04:45Z</time>
      </trkpt>
      <trkpt lat="46.97825" lon="6.27936">
        <ele>739.4</ele>
        <time>2026-05-13T10:04:47Z</time>
      </trkpt>
      <trkpt lat="46.97833" lon="6.27947">
        <ele>739.2</ele>
        <time>2026-05-13T10:04:48Z</time>
      </trkpt>
      <trkpt lat="46.97837" lon="6.27957">
        <ele>738.6</ele>
        <time>2026-05-13T10:04:49Z</time>
      </trkpt>
      <trkpt lat="46.97842" lon="6.2797">
        <ele>738.4</ele>
        <time>2026-05-13T10:04:50Z</time>
      </trkpt>
      <trkpt lat="46.97849" lon="6.28">
        <ele>737.4</ele>
        <time>2026-05-13T10:04:52Z</time>
      </trkpt>
      <trkpt lat="46.97853" lon="6.28041">
        <ele>736.2</ele>
        <time>2026-05-13T10:04:55Z</time>
      </trkpt>
      <trkpt lat="46.97855" lon="6.28073">
        <ele>735.4</ele>
        <time>2026-05-13T10:04:57Z</time>
      </trkpt>
      <trkpt lat="46.97855" lon="6.28085">
        <ele>735</ele>
        <time>2026-05-13T10:04:58Z</time>
      </trkpt>
      <trkpt lat="46.97858" lon="6.28131">
        <ele>733.6</ele>
        <time>2026-05-13T10:05:01Z</time>
      </trkpt>
      <trkpt lat="46.97861" lon="6.28188">
        <ele>732.6</ele>
        <time>2026-05-13T10:05:05Z</time>
      </trkpt>
      <trkpt lat="46.97862" lon="6.28215">
        <ele>732.2</ele>
        <time>2026-05-13T10:05:07Z</time>
      </trkpt>
      <trkpt lat="46.97864" lon="6.28239">
        <ele>731.2</ele>
        <time>2026-05-13T10:05:09Z</time>
      </trkpt>
      <trkpt lat="46.97867" lon="6.28292">
        <ele>730</ele>
        <time>2026-05-13T10:05:13Z</time>
      </trkpt>
      <trkpt lat="46.97869" lon="6.28305">
        <ele>730</ele>
        <time>2026-05-13T10:05:14Z</time>
      </trkpt>
      <trkpt lat="46.97877" lon="6.28332">
        <ele>729.4</ele>
        <time>2026-05-13T10:05:16Z</time>
      </trkpt>
      <trkpt lat="46.97881" lon="6.28341">
        <ele>729</ele>
        <time>2026-05-13T10:05:17Z</time>
      </trkpt>
      <trkpt lat="46.97888" lon="6.28351">
        <ele>728.6</ele>
        <time>2026-05-13T10:05:18Z</time>
      </trkpt>
      <trkpt lat="46.97914" lon="6.28379">
        <ele>728</ele>
        <time>2026-05-13T10:05:21Z</time>
      </trkpt>
      <trkpt lat="46.97939" lon="6.28406">
        <ele>727</ele>
        <time>2026-05-13T10:05:24Z</time>
      </trkpt>
      <trkpt lat="46.97956" lon="6.28427">
        <ele>725.6</ele>
        <time>2026-05-13T10:05:26Z</time>
      </trkpt>
      <trkpt lat="46.97971" lon="6.28446">
        <ele>724.2</ele>
        <time>2026-05-13T10:05:28Z</time>
      </trkpt>
      <trkpt lat="46.97998" lon="6.28474">
        <ele>723</ele>
        <time>2026-05-13T10:05:31Z</time>
      </trkpt>
      <trkpt lat="46.98018" lon="6.28488">
        <ele>721.8</ele>
        <time>2026-05-13T10:05:33Z</time>
      </trkpt>
      <trkpt lat="46.9804" lon="6.28504">
        <ele>720.6</ele>
        <time>2026-05-13T10:05:35Z</time>
      </trkpt>
      <trkpt lat="46.98059" lon="6.28516">
        <ele>719.6</ele>
        <time>2026-05-13T10:05:37Z</time>
      </trkpt>
      <trkpt lat="46.98072" lon="6.28524">
        <ele>718.8</ele>
        <time>2026-05-13T10:05:38Z</time>
      </trkpt>
      <trkpt lat="46.98102" lon="6.28545">
        <ele>717.6</ele>
        <time>2026-05-13T10:05:41Z</time>
      </trkpt>
      <trkpt lat="46.98124" lon="6.28565">
        <ele>716.4</ele>
        <time>2026-05-13T10:05:43Z</time>
      </trkpt>
      <trkpt lat="46.98133" lon="6.28576">
        <ele>716</ele>
        <time>2026-05-13T10:05:44Z</time>
      </trkpt>
      <trkpt lat="46.98141" lon="6.28588">
        <ele>715.2</ele>
        <time>2026-05-13T10:05:45Z</time>
      </trkpt>
      <trkpt lat="46.98154" lon="6.28611">
        <ele>714</ele>
        <time>2026-05-13T10:05:47Z</time>
      </trkpt>
      <trkpt lat="46.98162" lon="6.28627">
        <ele>713.6</ele>
        <time>2026-05-13T10:05:48Z</time>
      </trkpt>
      <trkpt lat="46.98173" lon="6.28653">
        <ele>712.4</ele>
        <time>2026-05-13T10:05:50Z</time>
      </trkpt>
      <trkpt lat="46.98186" lon="6.28683">
        <ele>711.2</ele>
        <time>2026-05-13T10:05:52Z</time>
      </trkpt>
      <trkpt lat="46.98197" lon="6.28709">
        <ele>710.4</ele>
        <time>2026-05-13T10:05:54Z</time>
      </trkpt>
      <trkpt lat="46.98202" lon="6.2872">
        <ele>709.6</ele>
        <time>2026-05-13T10:05:55Z</time>
      </trkpt>
      <trkpt lat="46.98222" lon="6.28762">
        <ele>708.6</ele>
        <time>2026-05-13T10:05:58Z</time>
      </trkpt>
      <trkpt lat="46.98241" lon="6.28798">
        <ele>707.4</ele>
        <time>2026-05-13T10:06:01Z</time>
      </trkpt>
      <trkpt lat="46.98249" lon="6.28813">
        <ele>707.2</ele>
        <time>2026-05-13T10:06:02Z</time>
      </trkpt>
      <trkpt lat="46.98263" lon="6.28838">
        <ele>706.4</ele>
        <time>2026-05-13T10:06:04Z</time>
      </trkpt>
      <trkpt lat="46.98282" lon="6.28875">
        <ele>705.4</ele>
        <time>2026-05-13T10:06:07Z</time>
      </trkpt>
      <trkpt lat="46.983" lon="6.28909">
        <ele>704</ele>
        <time>2026-05-13T10:06:10Z</time>
      </trkpt>
      <trkpt lat="46.98308" lon="6.28924">
        <ele>703.8</ele>
        <time>2026-05-13T10:06:11Z</time>
      </trkpt>
      <trkpt lat="46.98321" lon="6.28948">
        <ele>702.6</ele>
        <time>2026-05-13T10:06:13Z</time>
      </trkpt>
      <trkpt lat="46.98332" lon="6.2897">
        <ele>701.6</ele>
        <time>2026-05-13T10:06:15Z</time>
      </trkpt>
      <trkpt lat="46.98353" lon="6.29007">
        <ele>700.4</ele>
        <time>2026-05-13T10:06:18Z</time>
      </trkpt>
      <trkpt lat="46.98373" lon="6.29042">
        <ele>698.8</ele>
        <time>2026-05-13T10:06:21Z</time>
      </trkpt>
      <trkpt lat="46.98392" lon="6.29075">
        <ele>697.8</ele>
        <time>2026-05-13T10:06:24Z</time>
      </trkpt>
      <trkpt lat="46.98419" lon="6.29119">
        <ele>696.6</ele>
        <time>2026-05-13T10:06:28Z</time>
      </trkpt>
      <trkpt lat="46.98427" lon="6.2913">
        <ele>696.2</ele>
        <time>2026-05-13T10:06:29Z</time>
      </trkpt>
      <trkpt lat="46.98444" lon="6.29152">
        <ele>695.2</ele>
        <time>2026-05-13T10:06:31Z</time>
      </trkpt>
      <trkpt lat="46.98465" lon="6.29181">
        <ele>694</ele>
        <time>2026-05-13T10:06:34Z</time>
      </trkpt>
      <trkpt lat="46.98474" lon="6.29195">
        <ele>693.8</ele>
        <time>2026-05-13T10:06:35Z</time>
      </trkpt>
      <trkpt lat="46.98492" lon="6.29225">
        <ele>692.6</ele>
        <time>2026-05-13T10:06:38Z</time>
      </trkpt>
      <trkpt lat="46.98511" lon="6.29257">
        <ele>691.6</ele>
        <time>2026-05-13T10:06:41Z</time>
      </trkpt>
      <trkpt lat="46.98517" lon="6.29267">
        <ele>691.4</ele>
        <time>2026-05-13T10:06:42Z</time>
      </trkpt>
      <trkpt lat="46.98539" lon="6.29308">
        <ele>690</ele>
        <time>2026-05-13T10:06:46Z</time>
      </trkpt>
      <trkpt lat="46.98544" lon="6.29318">
        <ele>690</ele>
        <time>2026-05-13T10:06:47Z</time>
      </trkpt>
      <trkpt lat="46.98572" lon="6.29366">
        <ele>689</ele>
        <time>2026-05-13T10:06:52Z</time>
      </trkpt>
      <trkpt lat="46.98582" lon="6.29386">
        <ele>688.4</ele>
        <time>2026-05-13T10:06:54Z</time>
      </trkpt>
      <trkpt lat="46.98592" lon="6.29407">
        <ele>688</ele>
        <time>2026-05-13T10:06:56Z</time>
      </trkpt>
      <trkpt lat="46.98612" lon="6.29449">
        <ele>687.2</ele>
        <time>2026-05-13T10:07:00Z</time>
      </trkpt>
      <trkpt lat="46.98617" lon="6.2946">
        <ele>686.8</ele>
        <time>2026-05-13T10:07:01Z</time>
      </trkpt>
      <trkpt lat="46.98629" lon="6.2948">
        <ele>686.6</ele>
        <time>2026-05-13T10:07:03Z</time>
      </trkpt>
      <trkpt lat="46.98642" lon="6.29499">
        <ele>686</ele>
        <time>2026-05-13T10:07:05Z</time>
      </trkpt>
      <trkpt lat="46.98649" lon="6.29508">
        <ele>685.8</ele>
        <time>2026-05-13T10:07:06Z</time>
      </trkpt>
      <trkpt lat="46.98679" lon="6.2954">
        <ele>685</ele>
        <time>2026-05-13T10:07:10Z</time>
      </trkpt>
      <trkpt lat="46.98693" lon="6.29553">
        <ele>684.6</ele>
        <time>2026-05-13T10:07:12Z</time>
      </trkpt>
      <trkpt lat="46.98729" lon="6.29594">
        <ele>683.6</ele>
        <time>2026-05-13T10:07:17Z</time>
      </trkpt>
      <trkpt lat="46.98736" lon="6.29601">
        <ele>683.6</ele>
        <time>2026-05-13T10:07:18Z</time>
      </trkpt>
      <trkpt lat="46.98767" lon="6.29638">
        <ele>682.6</ele>
        <time>2026-05-13T10:07:23Z</time>
      </trkpt>
      <trkpt lat="46.98781" lon="6.29651">
        <ele>682.4</ele>
        <time>2026-05-13T10:07:25Z</time>
      </trkpt>
      <trkpt lat="46.98811" lon="6.29675">
        <ele>681.6</ele>
        <time>2026-05-13T10:07:29Z</time>
      </trkpt>
      <trkpt lat="46.98819" lon="6.2968">
        <ele>681.2</ele>
        <time>2026-05-13T10:07:30Z</time>
      </trkpt>
      <trkpt lat="46.9886" lon="6.29701">
        <ele>680.2</ele>
        <time>2026-05-13T10:07:35Z</time>
      </trkpt>
      <trkpt lat="46.98866" lon="6.29703">
        <ele>680</ele>
        <time>2026-05-13T10:07:36Z</time>
      </trkpt>
      <trkpt lat="46.98892" lon="6.29708">
        <ele>679.6</ele>
        <time>2026-05-13T10:07:39Z</time>
      </trkpt>
      <trkpt lat="46.98917" lon="6.29708">
        <ele>678.8</ele>
        <time>2026-05-13T10:07:42Z</time>
      </trkpt>
      <trkpt lat="46.98951" lon="6.29704">
        <ele>678.2</ele>
        <time>2026-05-13T10:07:46Z</time>
      </trkpt>
      <trkpt lat="46.98975" lon="6.29703">
        <ele>677.8</ele>
        <time>2026-05-13T10:07:49Z</time>
      </trkpt>
      <trkpt lat="46.98984" lon="6.29703">
        <ele>677.4</ele>
        <time>2026-05-13T10:07:50Z</time>
      </trkpt>
      <trkpt lat="46.99004" lon="6.29706">
        <ele>677</ele>
        <time>2026-05-13T10:07:52Z</time>
      </trkpt>
      <trkpt lat="46.99022" lon="6.29709">
        <ele>676.4</ele>
        <time>2026-05-13T10:07:54Z</time>
      </trkpt>
      <trkpt lat="46.99051" lon="6.29715">
        <ele>675.2</ele>
        <time>2026-05-13T10:07:57Z</time>
      </trkpt>
      <trkpt lat="46.99061" lon="6.29716">
        <ele>675</ele>
        <time>2026-05-13T10:07:58Z</time>
      </trkpt>
      <trkpt lat="46.9908" lon="6.29717">
        <ele>673.8</ele>
        <time>2026-05-13T10:08:00Z</time>
      </trkpt>
      <trkpt lat="46.991" lon="6.29715">
        <ele>673.2</ele>
        <time>2026-05-13T10:08:02Z</time>
      </trkpt>
      <trkpt lat="46.9911" lon="6.29712">
        <ele>673.2</ele>
        <time>2026-05-13T10:08:03Z</time>
      </trkpt>
      <trkpt lat="46.9912" lon="6.29708">
        <ele>672.6</ele>
        <time>2026-05-13T10:08:04Z</time>
      </trkpt>
      <trkpt lat="46.99148" lon="6.29692">
        <ele>671</ele>
        <time>2026-05-13T10:08:07Z</time>
      </trkpt>
      <trkpt lat="46.99157" lon="6.29685">
        <ele>670.8</ele>
        <time>2026-05-13T10:08:08Z</time>
      </trkpt>
      <trkpt lat="46.99175" lon="6.29669">
        <ele>670</ele>
        <time>2026-05-13T10:08:10Z</time>
      </trkpt>
      <trkpt lat="46.99191" lon="6.29653">
        <ele>668.4</ele>
        <time>2026-05-13T10:08:12Z</time>
      </trkpt>
      <trkpt lat="46.99199" lon="6.29645">
        <ele>668</ele>
        <time>2026-05-13T10:08:13Z</time>
      </trkpt>
      <trkpt lat="46.99207" lon="6.29638">
        <ele>667.2</ele>
        <time>2026-05-13T10:08:14Z</time>
      </trkpt>
      <trkpt lat="46.99222" lon="6.29624">
        <ele>666</ele>
        <time>2026-05-13T10:08:16Z</time>
      </trkpt>
      <trkpt lat="46.99236" lon="6.29611">
        <ele>664.8</ele>
        <time>2026-05-13T10:08:18Z</time>
      </trkpt>
      <trkpt lat="46.99256" lon="6.29592">
        <ele>663.6</ele>
        <time>2026-05-13T10:08:21Z</time>
      </trkpt>
      <trkpt lat="46.99275" lon="6.29573">
        <ele>662.4</ele>
        <time>2026-05-13T10:08:24Z</time>
      </trkpt>
      <trkpt lat="46.99281" lon="6.29567">
        <ele>662</ele>
        <time>2026-05-13T10:08:25Z</time>
      </trkpt>
      <trkpt lat="46.99317" lon="6.29534">
        <ele>661.4</ele>
        <time>2026-05-13T10:08:31Z</time>
      </trkpt>
      <trkpt lat="46.99322" lon="6.29529">
        <ele>661.2</ele>
        <time>2026-05-13T10:08:32Z</time>
      </trkpt>
      <trkpt lat="46.99371" lon="6.29481">
        <ele>661</ele>
        <time>2026-05-13T10:08:41Z</time>
      </trkpt>
      <trkpt lat="46.99419" lon="6.29435">
        <ele>661.4</ele>
        <time>2026-05-13T10:08:50Z</time>
      </trkpt>
      <trkpt lat="46.99447" lon="6.29399">
        <ele>661.4</ele>
        <time>2026-05-13T10:08:56Z</time>
      </trkpt>
      <trkpt lat="46.9947" lon="6.29347">
        <ele>661.2</ele>
        <time>2026-05-13T10:09:03Z</time>
      </trkpt>
      <trkpt lat="46.99479" lon="6.29297">
        <ele>661.2</ele>
        <time>2026-05-13T10:09:09Z</time>
      </trkpt>
      <trkpt lat="46.99484" lon="6.29227">
        <ele>660.8</ele>
        <time>2026-05-13T10:09:17Z</time>
      </trkpt>
      <trkpt lat="46.99488" lon="6.29142">
        <ele>660.8</ele>
        <time>2026-05-13T10:09:27Z</time>
      </trkpt>
      <trkpt lat="46.99488" lon="6.29133">
        <ele>660.6</ele>
        <time>2026-05-13T10:09:28Z</time>
      </trkpt>
      <trkpt lat="46.99491" lon="6.291">
        <ele>660.6</ele>
        <time>2026-05-13T10:09:32Z</time>
      </trkpt>
      <trkpt lat="46.99493" lon="6.29065">
        <ele>660.4</ele>
        <time>2026-05-13T10:09:36Z</time>
      </trkpt>
      <trkpt lat="46.99496" lon="6.2904">
        <ele>660.4</ele>
        <time>2026-05-13T10:09:39Z</time>
      </trkpt>
      <trkpt lat="46.99501" lon="6.29024">
        <ele>660.4</ele>
        <time>2026-05-13T10:09:41Z</time>
      </trkpt>
      <trkpt lat="46.99511" lon="6.29004">
        <ele>660.2</ele>
        <time>2026-05-13T10:09:44Z</time>
      </trkpt>
      <trkpt lat="46.99521" lon="6.28991">
        <ele>660.2</ele>
        <time>2026-05-13T10:09:46Z</time>
      </trkpt>
      <trkpt lat="46.9953" lon="6.28983">
        <ele>659.8</ele>
        <time>2026-05-13T10:09:48Z</time>
      </trkpt>
      <trkpt lat="46.99544" lon="6.28976">
        <ele>659.6</ele>
        <time>2026-05-13T10:09:50Z</time>
      </trkpt>
      <trkpt lat="46.99551" lon="6.28974">
        <ele>659.4</ele>
        <time>2026-05-13T10:09:51Z</time>
      </trkpt>
      <trkpt lat="46.99561" lon="6.28973">
        <ele>659.4</ele>
        <time>2026-05-13T10:09:53Z</time>
      </trkpt>
      <trkpt lat="46.99564" lon="6.28974">
        <ele>659.2</ele>
        <time>2026-05-13T10:09:54Z</time>
      </trkpt>
      <trkpt lat="46.99566" lon="6.28976">
        <ele>658.4</ele>
        <time>2026-05-13T10:09:57Z</time>
      </trkpt>
      <trkpt lat="46.99566" lon="6.28976">
        <ele>658.2</ele>
        <time>2026-05-13T10:09:58Z</time>
      </trkpt>
      <trkpt lat="46.99575" lon="6.28976">
        <ele>657.8</ele>
        <time>2026-05-13T10:13:59Z</time>
      </trkpt>
      <trkpt lat="46.99581" lon="6.28977">
        <ele>657.6</ele>
        <time>2026-05-13T10:14:01Z</time>
      </trkpt>
      <trkpt lat="46.99605" lon="6.28979">
        <ele>657.6</ele>
        <time>2026-05-13T10:14:06Z</time>
      </trkpt>
      <trkpt lat="46.99641" lon="6.28982">
        <ele>656.6</ele>
        <time>2026-05-13T10:14:12Z</time>
      </trkpt>
      <trkpt lat="46.99655" lon="6.28985">
        <ele>656.2</ele>
        <time>2026-05-13T10:14:14Z</time>
      </trkpt>
      <trkpt lat="46.99674" lon="6.28994">
        <ele>655.4</ele>
        <time>2026-05-13T10:14:17Z</time>
      </trkpt>
      <trkpt lat="46.99682" lon="6.28999">
        <ele>655.2</ele>
        <time>2026-05-13T10:14:18Z</time>
      </trkpt>
      <trkpt lat="46.99695" lon="6.29012">
        <ele>654.8</ele>
        <time>2026-05-13T10:14:20Z</time>
      </trkpt>
      <trkpt lat="46.997" lon="6.29018">
        <ele>654.6</ele>
        <time>2026-05-13T10:14:21Z</time>
      </trkpt>
      <trkpt lat="46.99706" lon="6.29026">
        <ele>654.4</ele>
        <time>2026-05-13T10:14:22Z</time>
      </trkpt>
      <trkpt lat="46.99712" lon="6.29038">
        <ele>654.2</ele>
        <time>2026-05-13T10:14:23Z</time>
      </trkpt>
      <trkpt lat="46.99721" lon="6.29058">
        <ele>653.6</ele>
        <time>2026-05-13T10:14:25Z</time>
      </trkpt>
      <trkpt lat="46.99728" lon="6.29085">
        <ele>653</ele>
        <time>2026-05-13T10:14:27Z</time>
      </trkpt>
      <trkpt lat="46.9973" lon="6.29098">
        <ele>652.8</ele>
        <time>2026-05-13T10:14:28Z</time>
      </trkpt>
      <trkpt lat="46.9973" lon="6.29148">
        <ele>651.6</ele>
        <time>2026-05-13T10:14:32Z</time>
      </trkpt>
      <trkpt lat="46.9973" lon="6.29176">
        <ele>651.2</ele>
        <time>2026-05-13T10:14:34Z</time>
      </trkpt>
      <trkpt lat="46.9973" lon="6.29216">
        <ele>650</ele>
        <time>2026-05-13T10:14:37Z</time>
      </trkpt>
      <trkpt lat="46.99729" lon="6.29265">
        <ele>648.8</ele>
        <time>2026-05-13T10:14:41Z</time>
      </trkpt>
      <trkpt lat="46.99728" lon="6.29281">
        <ele>648.6</ele>
        <time>2026-05-13T10:14:42Z</time>
      </trkpt>
      <trkpt lat="46.99729" lon="6.29294">
        <ele>648.2</ele>
        <time>2026-05-13T10:14:43Z</time>
      </trkpt>
      <trkpt lat="46.99734" lon="6.29318">
        <ele>647.6</ele>
        <time>2026-05-13T10:14:45Z</time>
      </trkpt>
      <trkpt lat="46.99744" lon="6.29336">
        <ele>647.2</ele>
        <time>2026-05-13T10:14:47Z</time>
      </trkpt>
      <trkpt lat="46.99751" lon="6.29343">
        <ele>647</ele>
        <time>2026-05-13T10:14:48Z</time>
      </trkpt>
      <trkpt lat="46.99772" lon="6.29359">
        <ele>646.6</ele>
        <time>2026-05-13T10:14:51Z</time>
      </trkpt>
      <trkpt lat="46.99779" lon="6.29364">
        <ele>646.6</ele>
        <time>2026-05-13T10:14:52Z</time>
      </trkpt>
      <trkpt lat="46.99787" lon="6.29368">
        <ele>646.6</ele>
        <time>2026-05-13T10:14:53Z</time>
      </trkpt>
      <trkpt lat="46.99808" lon="6.29377">
        <ele>645.6</ele>
        <time>2026-05-13T10:14:56Z</time>
      </trkpt>
      <trkpt lat="46.99815" lon="6.2938">
        <ele>645.4</ele>
        <time>2026-05-13T10:14:57Z</time>
      </trkpt>
      <trkpt lat="46.9984" lon="6.29385">
        <ele>644.2</ele>
        <time>2026-05-13T10:15:01Z</time>
      </trkpt>
      <trkpt lat="46.99847" lon="6.29385">
        <ele>644</ele>
        <time>2026-05-13T10:15:02Z</time>
      </trkpt>
      <trkpt lat="46.99871" lon="6.29386">
        <ele>643.4</ele>
        <time>2026-05-13T10:15:06Z</time>
      </trkpt>
      <trkpt lat="46.99877" lon="6.29388">
        <ele>643.4</ele>
        <time>2026-05-13T10:15:07Z</time>
      </trkpt>
      <trkpt lat="46.99881" lon="6.2939">
        <ele>643.2</ele>
        <time>2026-05-13T10:15:08Z</time>
      </trkpt>
      <trkpt lat="46.99895" lon="6.29396">
        <ele>642.8</ele>
        <time>2026-05-13T10:15:10Z</time>
      </trkpt>
      <trkpt lat="46.99909" lon="6.29402">
        <ele>642.4</ele>
        <time>2026-05-13T10:15:12Z</time>
      </trkpt>
      <trkpt lat="46.99914" lon="6.29405">
        <ele>642</ele>
        <time>2026-05-13T10:15:13Z</time>
      </trkpt>
      <trkpt lat="46.99947" lon="6.29424">
        <ele>641</ele>
        <time>2026-05-13T10:15:17Z</time>
      </trkpt>
      <trkpt lat="46.99953" lon="6.29428">
        <ele>640.4</ele>
        <time>2026-05-13T10:15:18Z</time>
      </trkpt>
      <trkpt lat="46.99963" lon="6.29436">
        <ele>640</ele>
        <time>2026-05-13T10:15:19Z</time>
      </trkpt>
      <trkpt lat="46.99969" lon="6.29444">
        <ele>639.4</ele>
        <time>2026-05-13T10:15:20Z</time>
      </trkpt>
      <trkpt lat="46.99974" lon="6.29454">
        <ele>639</ele>
        <time>2026-05-13T10:15:21Z</time>
      </trkpt>
      <trkpt lat="46.99978" lon="6.29462">
        <ele>638.2</ele>
        <time>2026-05-13T10:15:22Z</time>
      </trkpt>
      <trkpt lat="46.99981" lon="6.29472">
        <ele>637.8</ele>
        <time>2026-05-13T10:15:23Z</time>
      </trkpt>
      <trkpt lat="46.99982" lon="6.29487">
        <ele>637.4</ele>
        <time>2026-05-13T10:15:24Z</time>
      </trkpt>
      <trkpt lat="46.99982" lon="6.29499">
        <ele>636.6</ele>
        <time>2026-05-13T10:15:25Z</time>
      </trkpt>
      <trkpt lat="46.99982" lon="6.29509">
        <ele>636.2</ele>
        <time>2026-05-13T10:15:26Z</time>
      </trkpt>
      <trkpt lat="46.99981" lon="6.29521">
        <ele>635.4</ele>
        <time>2026-05-13T10:15:27Z</time>
      </trkpt>
      <trkpt lat="46.9998" lon="6.29532">
        <ele>635.2</ele>
        <time>2026-05-13T10:15:28Z</time>
      </trkpt>
      <trkpt lat="46.99974" lon="6.29554">
        <ele>634.2</ele>
        <time>2026-05-13T10:15:30Z</time>
      </trkpt>
      <trkpt lat="46.99966" lon="6.29585">
        <ele>633</ele>
        <time>2026-05-13T10:15:33Z</time>
      </trkpt>
      <trkpt lat="46.99955" lon="6.29619">
        <ele>632</ele>
        <time>2026-05-13T10:15:36Z</time>
      </trkpt>
      <trkpt lat="46.99949" lon="6.29641">
        <ele>630.6</ele>
        <time>2026-05-13T10:15:38Z</time>
      </trkpt>
      <trkpt lat="46.99938" lon="6.29675">
        <ele>629.6</ele>
        <time>2026-05-13T10:15:41Z</time>
      </trkpt>
      <trkpt lat="46.99934" lon="6.29686">
        <ele>629.2</ele>
        <time>2026-05-13T10:15:42Z</time>
      </trkpt>
      <trkpt lat="46.99925" lon="6.29708">
        <ele>628.6</ele>
        <time>2026-05-13T10:15:44Z</time>
      </trkpt>
      <trkpt lat="46.99909" lon="6.29739">
        <ele>627.2</ele>
        <time>2026-05-13T10:15:47Z</time>
      </trkpt>
      <trkpt lat="46.99893" lon="6.29771">
        <ele>626.2</ele>
        <time>2026-05-13T10:15:50Z</time>
      </trkpt>
      <trkpt lat="46.99888" lon="6.29782">
        <ele>625.6</ele>
        <time>2026-05-13T10:15:51Z</time>
      </trkpt>
      <trkpt lat="46.99879" lon="6.29802">
        <ele>625</ele>
        <time>2026-05-13T10:15:53Z</time>
      </trkpt>
      <trkpt lat="46.99869" lon="6.29827">
        <ele>624.4</ele>
        <time>2026-05-13T10:15:55Z</time>
      </trkpt>
      <trkpt lat="46.99865" lon="6.29838">
        <ele>624.2</ele>
        <time>2026-05-13T10:15:56Z</time>
      </trkpt>
      <trkpt lat="46.9986" lon="6.29862">
        <ele>623.8</ele>
        <time>2026-05-13T10:15:58Z</time>
      </trkpt>
      <trkpt lat="46.99858" lon="6.29874">
        <ele>623.6</ele>
        <time>2026-05-13T10:15:59Z</time>
      </trkpt>
      <trkpt lat="46.99852" lon="6.29935">
        <ele>622.2</ele>
        <time>2026-05-13T10:16:04Z</time>
      </trkpt>
      <trkpt lat="46.99849" lon="6.29978">
        <ele>621.2</ele>
        <time>2026-05-13T10:16:07Z</time>
      </trkpt>
      <trkpt lat="46.99848" lon="6.29989">
        <ele>621</ele>
        <time>2026-05-13T10:16:08Z</time>
      </trkpt>
      <trkpt lat="46.99846" lon="6.30033">
        <ele>620</ele>
        <time>2026-05-13T10:16:11Z</time>
      </trkpt>
      <trkpt lat="46.99849" lon="6.30056">
        <ele>619.2</ele>
        <time>2026-05-13T10:16:13Z</time>
      </trkpt>
      <trkpt lat="46.99853" lon="6.30068">
        <ele>619</ele>
        <time>2026-05-13T10:16:14Z</time>
      </trkpt>
      <trkpt lat="46.99858" lon="6.30081">
        <ele>618</ele>
        <time>2026-05-13T10:16:15Z</time>
      </trkpt>
      <trkpt lat="46.99863" lon="6.30091">
        <ele>617.4</ele>
        <time>2026-05-13T10:16:16Z</time>
      </trkpt>
      <trkpt lat="46.99869" lon="6.30099">
        <ele>617.4</ele>
        <time>2026-05-13T10:16:17Z</time>
      </trkpt>
      <trkpt lat="46.99888" lon="6.30119">
        <ele>617</ele>
        <time>2026-05-13T10:16:20Z</time>
      </trkpt>
      <trkpt lat="46.99922" lon="6.30133">
        <ele>616.8</ele>
        <time>2026-05-13T10:16:25Z</time>
      </trkpt>
      <trkpt lat="46.99948" lon="6.30142">
        <ele>617</ele>
        <time>2026-05-13T10:16:30Z</time>
      </trkpt>
      <trkpt lat="46.99983" lon="6.30154">
        <ele>617.4</ele>
        <time>2026-05-13T10:16:38Z</time>
      </trkpt>
      <trkpt lat="47.00021" lon="6.30166">
        <ele>618.2</ele>
        <time>2026-05-13T10:16:47Z</time>
      </trkpt>
      <trkpt lat="47.00028" lon="6.30169">
        <ele>618.6</ele>
        <time>2026-05-13T10:16:49Z</time>
      </trkpt>
      <trkpt lat="47.00051" lon="6.30176">
        <ele>619.6</ele>
        <time>2026-05-13T10:16:55Z</time>
      </trkpt>
      <trkpt lat="47.00055" lon="6.30179">
        <ele>619.8</ele>
        <time>2026-05-13T10:16:56Z</time>
      </trkpt>
      <trkpt lat="47.00075" lon="6.30194">
        <ele>620.2</ele>
        <time>2026-05-13T10:17:02Z</time>
      </trkpt>
      <trkpt lat="47.00081" lon="6.30202">
        <ele>621</ele>
        <time>2026-05-13T10:17:04Z</time>
      </trkpt>
      <trkpt lat="47.0009" lon="6.30221">
        <ele>621.4</ele>
        <time>2026-05-13T10:17:08Z</time>
      </trkpt>
      <trkpt lat="47.00097" lon="6.30254">
        <ele>621.8</ele>
        <time>2026-05-13T10:17:14Z</time>
      </trkpt>
      <trkpt lat="47.00097" lon="6.3026">
        <ele>622</ele>
        <time>2026-05-13T10:17:15Z</time>
      </trkpt>
      <trkpt lat="47.00097" lon="6.30266">
        <ele>622</ele>
        <time>2026-05-13T10:17:16Z</time>
      </trkpt>
      <trkpt lat="47.00096" lon="6.30311">
        <ele>623</ele>
        <time>2026-05-13T10:17:23Z</time>
      </trkpt>
      <trkpt lat="47.00094" lon="6.30325">
        <ele>623.2</ele>
        <time>2026-05-13T10:17:25Z</time>
      </trkpt>
      <trkpt lat="47.00091" lon="6.30362">
        <ele>623.6</ele>
        <time>2026-05-13T10:17:30Z</time>
      </trkpt>
      <trkpt lat="47.00087" lon="6.304">
        <ele>623.8</ele>
        <time>2026-05-13T10:17:35Z</time>
      </trkpt>
      <trkpt lat="47.00086" lon="6.30416">
        <ele>623.8</ele>
        <time>2026-05-13T10:17:37Z</time>
      </trkpt>
      <trkpt lat="47.00084" lon="6.3044">
        <ele>624</ele>
        <time>2026-05-13T10:17:40Z</time>
      </trkpt>
      <trkpt lat="47.00082" lon="6.305">
        <ele>624.8</ele>
        <time>2026-05-13T10:17:47Z</time>
      </trkpt>
      <trkpt lat="47.00082" lon="6.30533">
        <ele>625</ele>
        <time>2026-05-13T10:17:51Z</time>
      </trkpt>
      <trkpt lat="47.00083" lon="6.30557">
        <ele>625.6</ele>
        <time>2026-05-13T10:17:54Z</time>
      </trkpt>
      <trkpt lat="47.00084" lon="6.30576">
        <ele>625.6</ele>
        <time>2026-05-13T10:17:56Z</time>
      </trkpt>
      <trkpt lat="47.00087" lon="6.30636">
        <ele>626.4</ele>
        <time>2026-05-13T10:18:03Z</time>
      </trkpt>
      <trkpt lat="47.00087" lon="6.30642">
        <ele>626.2</ele>
        <time>2026-05-13T10:18:04Z</time>
      </trkpt>
      <trkpt lat="47.00087" lon="6.30699">
        <ele>627.2</ele>
        <time>2026-05-13T10:18:11Z</time>
      </trkpt>
      <trkpt lat="47.00086" lon="6.30715">
        <ele>627.6</ele>
        <time>2026-05-13T10:18:13Z</time>
      </trkpt>
      <trkpt lat="47.00086" lon="6.30736">
        <ele>628.4</ele>
        <time>2026-05-13T10:18:16Z</time>
      </trkpt>
      <trkpt lat="47.00085" lon="6.30776">
        <ele>629</ele>
        <time>2026-05-13T10:18:21Z</time>
      </trkpt>
      <trkpt lat="47.00083" lon="6.30803">
        <ele>629.6</ele>
        <time>2026-05-13T10:18:25Z</time>
      </trkpt>
      <trkpt lat="47.00082" lon="6.3084">
        <ele>630.4</ele>
        <time>2026-05-13T10:18:30Z</time>
      </trkpt>
      <trkpt lat="47.00082" lon="6.30848">
        <ele>630.4</ele>
        <time>2026-05-13T10:18:31Z</time>
      </trkpt>
      <trkpt lat="47.00082" lon="6.30864">
        <ele>630.6</ele>
        <time>2026-05-13T10:18:33Z</time>
      </trkpt>
      <trkpt lat="47.00083" lon="6.30885">
        <ele>630.8</ele>
        <time>2026-05-13T10:18:36Z</time>
      </trkpt>
      <trkpt lat="47.00083" lon="6.30892">
        <ele>631</ele>
        <time>2026-05-13T10:18:37Z</time>
      </trkpt>
      <trkpt lat="47.00087" lon="6.30921">
        <ele>631.4</ele>
        <time>2026-05-13T10:18:41Z</time>
      </trkpt>
      <trkpt lat="47.00088" lon="6.30929">
        <ele>631.4</ele>
        <time>2026-05-13T10:18:42Z</time>
      </trkpt>
      <trkpt lat="47.00091" lon="6.30943">
        <ele>631.6</ele>
        <time>2026-05-13T10:18:44Z</time>
      </trkpt>
      <trkpt lat="47.00106" lon="6.3101">
        <ele>632.6</ele>
        <time>2026-05-13T10:18:53Z</time>
      </trkpt>
      <trkpt lat="47.00113" lon="6.31041">
        <ele>632.6</ele>
        <time>2026-05-13T10:18:57Z</time>
      </trkpt>
      <trkpt lat="47.00122" lon="6.31071">
        <ele>633</ele>
        <time>2026-05-13T10:19:01Z</time>
      </trkpt>
      <trkpt lat="47.00142" lon="6.31112">
        <ele>633.4</ele>
        <time>2026-05-13T10:19:07Z</time>
      </trkpt>
      <trkpt lat="47.00158" lon="6.31136">
        <ele>633.8</ele>
        <time>2026-05-13T10:19:11Z</time>
      </trkpt>
      <trkpt lat="47.00171" lon="6.31151">
        <ele>634</ele>
        <time>2026-05-13T10:19:14Z</time>
      </trkpt>
      <trkpt lat="47.002" lon="6.31176">
        <ele>634.6</ele>
        <time>2026-05-13T10:19:20Z</time>
      </trkpt>
      <trkpt lat="47.0021" lon="6.31182">
        <ele>634.8</ele>
        <time>2026-05-13T10:19:22Z</time>
      </trkpt>
      <trkpt lat="47.00228" lon="6.3119">
        <ele>635.6</ele>
        <time>2026-05-13T10:19:26Z</time>
      </trkpt>
      <trkpt lat="47.00233" lon="6.31191">
        <ele>635.8</ele>
        <time>2026-05-13T10:19:27Z</time>
      </trkpt>
      <trkpt lat="47.00237" lon="6.31192">
        <ele>635.8</ele>
        <time>2026-05-13T10:19:28Z</time>
      </trkpt>
      <trkpt lat="47.00258" lon="6.31196">
        <ele>636.6</ele>
        <time>2026-05-13T10:19:33Z</time>
      </trkpt>
      <trkpt lat="47.00267" lon="6.31197">
        <ele>636.8</ele>
        <time>2026-05-13T10:19:35Z</time>
      </trkpt>
      <trkpt lat="47.00291" lon="6.31199">
        <ele>637.8</ele>
        <time>2026-05-13T10:19:41Z</time>
      </trkpt>
      <trkpt lat="47.00299" lon="6.31199">
        <ele>638</ele>
        <time>2026-05-13T10:19:43Z</time>
      </trkpt>
      <trkpt lat="47.00303" lon="6.31198">
        <ele>638.2</ele>
        <time>2026-05-13T10:19:44Z</time>
      </trkpt>
      <trkpt lat="47.00315" lon="6.31196">
        <ele>638.8</ele>
        <time>2026-05-13T10:19:47Z</time>
      </trkpt>
      <trkpt lat="47.00327" lon="6.31194">
        <ele>639.8</ele>
        <time>2026-05-13T10:19:50Z</time>
      </trkpt>
      <trkpt lat="47.00343" lon="6.3119">
        <ele>640.6</ele>
        <time>2026-05-13T10:19:54Z</time>
      </trkpt>
      <trkpt lat="47.00352" lon="6.31187">
        <ele>640.8</ele>
        <time>2026-05-13T10:19:56Z</time>
      </trkpt>
      <trkpt lat="47.00381" lon="6.31179">
        <ele>641.6</ele>
        <time>2026-05-13T10:20:03Z</time>
      </trkpt>
      <trkpt lat="47.00396" lon="6.31174">
        <ele>641.8</ele>
        <time>2026-05-13T10:20:07Z</time>
      </trkpt>
      <trkpt lat="47.00425" lon="6.31166">
        <ele>642.6</ele>
        <time>2026-05-13T10:20:14Z</time>
      </trkpt>
      <trkpt lat="47.00433" lon="6.31164">
        <ele>642.8</ele>
        <time>2026-05-13T10:20:16Z</time>
      </trkpt>
      <trkpt lat="47.00454" lon="6.31161">
        <ele>643.6</ele>
        <time>2026-05-13T10:20:21Z</time>
      </trkpt>
      <trkpt lat="47.00459" lon="6.31161">
        <ele>644</ele>
        <time>2026-05-13T10:20:22Z</time>
      </trkpt>
      <trkpt lat="47.00467" lon="6.31162">
        <ele>644.2</ele>
        <time>2026-05-13T10:20:24Z</time>
      </trkpt>
      <trkpt lat="47.00478" lon="6.31162">
        <ele>644.8</ele>
        <time>2026-05-13T10:20:27Z</time>
      </trkpt>
      <trkpt lat="47.00485" lon="6.31162">
        <ele>645.4</ele>
        <time>2026-05-13T10:20:29Z</time>
      </trkpt>
      <trkpt lat="47.00505" lon="6.31165">
        <ele>646.6</ele>
        <time>2026-05-13T10:20:34Z</time>
      </trkpt>
      <trkpt lat="47.00509" lon="6.31166">
        <ele>646.8</ele>
        <time>2026-05-13T10:20:35Z</time>
      </trkpt>
      <trkpt lat="47.00541" lon="6.3117">
        <ele>647.6</ele>
        <time>2026-05-13T10:20:42Z</time>
      </trkpt>
      <trkpt lat="47.0055" lon="6.31172">
        <ele>647.6</ele>
        <time>2026-05-13T10:20:44Z</time>
      </trkpt>
      <trkpt lat="47.00601" lon="6.31177">
        <ele>648.4</ele>
        <time>2026-05-13T10:20:55Z</time>
      </trkpt>
      <trkpt lat="47.00625" lon="6.31181">
        <ele>648.6</ele>
        <time>2026-05-13T10:21:00Z</time>
      </trkpt>
      <trkpt lat="47.00641" lon="6.31182">
        <ele>648.8</ele>
        <time>2026-05-13T10:21:03Z</time>
      </trkpt>
      <trkpt lat="47.00697" lon="6.3119">
        <ele>649.4</ele>
        <time>2026-05-13T10:21:14Z</time>
      </trkpt>
      <trkpt lat="47.0073" lon="6.31198">
        <ele>649.8</ele>
        <time>2026-05-13T10:21:21Z</time>
      </trkpt>
      <trkpt lat="47.00735" lon="6.31199">
        <ele>650</ele>
        <time>2026-05-13T10:21:22Z</time>
      </trkpt>
      <trkpt lat="47.00753" lon="6.31205">
        <ele>650.8</ele>
        <time>2026-05-13T10:21:26Z</time>
      </trkpt>
      <trkpt lat="47.00765" lon="6.3121">
        <ele>651.6</ele>
        <time>2026-05-13T10:21:29Z</time>
      </trkpt>
      <trkpt lat="47.00773" lon="6.31214">
        <ele>652</ele>
        <time>2026-05-13T10:21:31Z</time>
      </trkpt>
      <trkpt lat="47.00792" lon="6.31224">
        <ele>653</ele>
        <time>2026-05-13T10:21:36Z</time>
      </trkpt>
      <trkpt lat="47.00804" lon="6.3123">
        <ele>653.6</ele>
        <time>2026-05-13T10:21:39Z</time>
      </trkpt>
      <trkpt lat="47.00812" lon="6.31234">
        <ele>654.2</ele>
        <time>2026-05-13T10:21:41Z</time>
      </trkpt>
      <trkpt lat="47.00844" lon="6.31251">
        <ele>655</ele>
        <time>2026-05-13T10:21:49Z</time>
      </trkpt>
      <trkpt lat="47.00853" lon="6.31255">
        <ele>655.4</ele>
        <time>2026-05-13T10:21:51Z</time>
      </trkpt>
      <trkpt lat="47.00886" lon="6.31274">
        <ele>656.4</ele>
        <time>2026-05-13T10:21:59Z</time>
      </trkpt>
      <trkpt lat="47.0089" lon="6.31277">
        <ele>656.4</ele>
        <time>2026-05-13T10:22:00Z</time>
      </trkpt>
      <trkpt lat="47.00913" lon="6.31293">
        <ele>657.2</ele>
        <time>2026-05-13T10:22:06Z</time>
      </trkpt>
      <trkpt lat="47.00921" lon="6.31298">
        <ele>657.4</ele>
        <time>2026-05-13T10:22:08Z</time>
      </trkpt>
      <trkpt lat="47.00924" lon="6.31301">
        <ele>657.6</ele>
        <time>2026-05-13T10:22:09Z</time>
      </trkpt>
      <trkpt lat="47.00944" lon="6.31319">
        <ele>658.6</ele>
        <time>2026-05-13T10:22:15Z</time>
      </trkpt>
      <trkpt lat="47.00964" lon="6.31337">
        <ele>660</ele>
        <time>2026-05-13T10:22:21Z</time>
      </trkpt>
      <trkpt lat="47.00972" lon="6.31345">
        <ele>661</ele>
        <time>2026-05-13T10:22:24Z</time>
      </trkpt>
      <trkpt lat="47.00976" lon="6.31348">
        <ele>661.2</ele>
        <time>2026-05-13T10:22:25Z</time>
      </trkpt>
      <trkpt lat="47.00996" lon="6.31368">
        <ele>662.4</ele>
        <time>2026-05-13T10:22:31Z</time>
      </trkpt>
      <trkpt lat="47.01018" lon="6.31391">
        <ele>663.8</ele>
        <time>2026-05-13T10:22:38Z</time>
      </trkpt>
      <trkpt lat="47.01033" lon="6.31405">
        <ele>664.2</ele>
        <time>2026-05-13T10:22:42Z</time>
      </trkpt>
      <trkpt lat="47.01057" lon="6.31428">
        <ele>664.8</ele>
        <time>2026-05-13T10:22:48Z</time>
      </trkpt>
      <trkpt lat="47.01069" lon="6.31439">
        <ele>665.2</ele>
        <time>2026-05-13T10:22:51Z</time>
      </trkpt>
      <trkpt lat="47.01088" lon="6.31455">
        <ele>666</ele>
        <time>2026-05-13T10:22:55Z</time>
      </trkpt>
      <trkpt lat="47.01101" lon="6.31465">
        <ele>666.2</ele>
        <time>2026-05-13T10:22:58Z</time>
      </trkpt>
      <trkpt lat="47.01138" lon="6.31489">
        <ele>666.4</ele>
        <time>2026-05-13T10:23:05Z</time>
      </trkpt>
      <trkpt lat="47.01185" lon="6.31517">
        <ele>666.8</ele>
        <time>2026-05-13T10:23:14Z</time>
      </trkpt>
      <trkpt lat="47.01202" lon="6.31527">
        <ele>667</ele>
        <time>2026-05-13T10:23:17Z</time>
      </trkpt>
      <trkpt lat="47.01239" lon="6.31551">
        <ele>666.8</ele>
        <time>2026-05-13T10:23:24Z</time>
      </trkpt>
      <trkpt lat="47.01271" lon="6.31583">
        <ele>666.6</ele>
        <time>2026-05-13T10:23:31Z</time>
      </trkpt>
      <trkpt lat="47.01294" lon="6.31613">
        <ele>667</ele>
        <time>2026-05-13T10:23:37Z</time>
      </trkpt>
      <trkpt lat="47.01303" lon="6.31624">
        <ele>668</ele>
        <time>2026-05-13T10:23:40Z</time>
      </trkpt>
      <trkpt lat="47.01312" lon="6.31635">
        <ele>668.8</ele>
        <time>2026-05-13T10:23:43Z</time>
      </trkpt>
      <trkpt lat="47.01315" lon="6.31638">
        <ele>669.2</ele>
        <time>2026-05-13T10:23:44Z</time>
      </trkpt>
      <trkpt lat="47.01326" lon="6.3165">
        <ele>670.4</ele>
        <time>2026-05-13T10:23:48Z</time>
      </trkpt>
      <trkpt lat="47.01329" lon="6.31652">
        <ele>671</ele>
        <time>2026-05-13T10:23:49Z</time>
      </trkpt>
      <trkpt lat="47.01334" lon="6.31658">
        <ele>671.8</ele>
        <time>2026-05-13T10:23:51Z</time>
      </trkpt>
      <trkpt lat="47.01348" lon="6.31673">
        <ele>672.8</ele>
        <time>2026-05-13T10:23:56Z</time>
      </trkpt>
      <trkpt lat="47.0135" lon="6.31676">
        <ele>673</ele>
        <time>2026-05-13T10:23:57Z</time>
      </trkpt>
      <trkpt lat="47.01362" lon="6.31688">
        <ele>673.8</ele>
        <time>2026-05-13T10:24:01Z</time>
      </trkpt>
      <trkpt lat="47.0137" lon="6.31696">
        <ele>675.2</ele>
        <time>2026-05-13T10:24:04Z</time>
      </trkpt>
      <trkpt lat="47.01382" lon="6.31707">
        <ele>676</ele>
        <time>2026-05-13T10:24:08Z</time>
      </trkpt>
      <trkpt lat="47.01385" lon="6.3171">
        <ele>676.4</ele>
        <time>2026-05-13T10:24:09Z</time>
      </trkpt>
      <trkpt lat="47.01403" lon="6.31725">
        <ele>677.8</ele>
        <time>2026-05-13T10:24:15Z</time>
      </trkpt>
      <trkpt lat="47.01409" lon="6.3173">
        <ele>679</ele>
        <time>2026-05-13T10:24:17Z</time>
      </trkpt>
      <trkpt lat="47.01431" lon="6.31748">
        <ele>680</ele>
        <time>2026-05-13T10:24:25Z</time>
      </trkpt>
      <trkpt lat="47.01445" lon="6.31759">
        <ele>681</ele>
        <time>2026-05-13T10:24:30Z</time>
      </trkpt>
      <trkpt lat="47.0146" lon="6.3177">
        <ele>682</ele>
        <time>2026-05-13T10:24:35Z</time>
      </trkpt>
      <trkpt lat="47.01466" lon="6.31774">
        <ele>682.2</ele>
        <time>2026-05-13T10:24:37Z</time>
      </trkpt>
      <trkpt lat="47.01486" lon="6.31789">
        <ele>683.6</ele>
        <time>2026-05-13T10:24:44Z</time>
      </trkpt>
      <trkpt lat="47.01488" lon="6.31791">
        <ele>683.8</ele>
        <time>2026-05-13T10:24:45Z</time>
      </trkpt>
      <trkpt lat="47.01503" lon="6.31802">
        <ele>684.6</ele>
        <time>2026-05-13T10:24:50Z</time>
      </trkpt>
      <trkpt lat="47.01514" lon="6.31811">
        <ele>685</ele>
        <time>2026-05-13T10:24:54Z</time>
      </trkpt>
      <trkpt lat="47.01526" lon="6.31821">
        <ele>685.6</ele>
        <time>2026-05-13T10:24:58Z</time>
      </trkpt>
      <trkpt lat="47.01541" lon="6.31832">
        <ele>686.8</ele>
        <time>2026-05-13T10:25:03Z</time>
      </trkpt>
      <trkpt lat="47.01561" lon="6.3185">
        <ele>687.8</ele>
        <time>2026-05-13T10:25:10Z</time>
      </trkpt>
      <trkpt lat="47.01564" lon="6.31854">
        <ele>688</ele>
        <time>2026-05-13T10:25:11Z</time>
      </trkpt>
      <trkpt lat="47.01575" lon="6.31866">
        <ele>688.8</ele>
        <time>2026-05-13T10:25:15Z</time>
      </trkpt>
      <trkpt lat="47.01594" lon="6.31888">
        <ele>689.6</ele>
        <time>2026-05-13T10:25:22Z</time>
      </trkpt>
      <trkpt lat="47.01596" lon="6.31891">
        <ele>690.2</ele>
        <time>2026-05-13T10:25:23Z</time>
      </trkpt>
      <trkpt lat="47.01611" lon="6.31914">
        <ele>691.2</ele>
        <time>2026-05-13T10:25:29Z</time>
      </trkpt>
      <trkpt lat="47.01614" lon="6.31919">
        <ele>691.4</ele>
        <time>2026-05-13T10:25:30Z</time>
      </trkpt>
      <trkpt lat="47.01635" lon="6.31958">
        <ele>692.2</ele>
        <time>2026-05-13T10:25:39Z</time>
      </trkpt>
      <trkpt lat="47.0165" lon="6.31988">
        <ele>693.4</ele>
        <time>2026-05-13T10:25:46Z</time>
      </trkpt>
      <trkpt lat="47.01654" lon="6.31998">
        <ele>693.8</ele>
        <time>2026-05-13T10:25:48Z</time>
      </trkpt>
      <trkpt lat="47.01659" lon="6.32011">
        <ele>694.6</ele>
        <time>2026-05-13T10:25:51Z</time>
      </trkpt>
      <trkpt lat="47.01672" lon="6.3204">
        <ele>695.2</ele>
        <time>2026-05-13T10:25:57Z</time>
      </trkpt>
      <trkpt lat="47.01684" lon="6.32067">
        <ele>696</ele>
        <time>2026-05-13T10:26:03Z</time>
      </trkpt>
      <trkpt lat="47.01692" lon="6.32085">
        <ele>696.6</ele>
        <time>2026-05-13T10:26:07Z</time>
      </trkpt>
      <trkpt lat="47.01696" lon="6.32092">
        <ele>697</ele>
        <time>2026-05-13T10:26:09Z</time>
      </trkpt>
      <trkpt lat="47.01706" lon="6.32115">
        <ele>697.6</ele>
        <time>2026-05-13T10:26:14Z</time>
      </trkpt>
      <trkpt lat="47.01711" lon="6.32128">
        <ele>698</ele>
        <time>2026-05-13T10:26:17Z</time>
      </trkpt>
      <trkpt lat="47.01724" lon="6.32156">
        <ele>698.8</ele>
        <time>2026-05-13T10:26:24Z</time>
      </trkpt>
      <trkpt lat="47.01728" lon="6.32165">
        <ele>699</ele>
        <time>2026-05-13T10:26:26Z</time>
      </trkpt>
      <trkpt lat="47.01739" lon="6.32189">
        <ele>700</ele>
        <time>2026-05-13T10:26:32Z</time>
      </trkpt>
      <trkpt lat="47.01741" lon="6.32193">
        <ele>700.2</ele>
        <time>2026-05-13T10:26:33Z</time>
      </trkpt>
      <trkpt lat="47.01748" lon="6.32213">
        <ele>701</ele>
        <time>2026-05-13T10:26:38Z</time>
      </trkpt>
      <trkpt lat="47.01748" lon="6.32219">
        <ele>701.2</ele>
        <time>2026-05-13T10:26:39Z</time>
      </trkpt>
      <trkpt lat="47.01735" lon="6.32243">
        <ele>702.2</ele>
        <time>2026-05-13T10:26:46Z</time>
      </trkpt>
      <trkpt lat="47.01734" lon="6.32246">
        <ele>702.4</ele>
        <time>2026-05-13T10:26:47Z</time>
      </trkpt>
      <trkpt lat="47.01731" lon="6.32258">
        <ele>703.2</ele>
        <time>2026-05-13T10:26:50Z</time>
      </trkpt>
      <trkpt lat="47.01732" lon="6.32262">
        <ele>703.4</ele>
        <time>2026-05-13T10:26:51Z</time>
      </trkpt>
      <trkpt lat="47.01741" lon="6.32273">
        <ele>703.8</ele>
        <time>2026-05-13T10:26:56Z</time>
      </trkpt>
      <trkpt lat="47.01742" lon="6.32274">
        <ele>704</ele>
        <time>2026-05-13T10:26:59Z</time>
      </trkpt>
      <trkpt lat="47.01742" lon="6.32274">
        <ele>704</ele>
        <time>2026-05-13T10:27:00Z</time>
      </trkpt>
      <trkpt lat="47.01745" lon="6.32276">
        <ele>704.2</ele>
        <time>2026-05-13T10:30:07Z</time>
      </trkpt>
      <trkpt lat="47.01751" lon="6.3228">
        <ele>704.2</ele>
        <time>2026-05-13T10:30:10Z</time>
      </trkpt>
      <trkpt lat="47.01763" lon="6.32291">
        <ele>704.2</ele>
        <time>2026-05-13T10:30:16Z</time>
      </trkpt>
      <trkpt lat="47.0178" lon="6.32305">
        <ele>704.2</ele>
        <time>2026-05-13T10:30:22Z</time>
      </trkpt>
      <trkpt lat="47.01798" lon="6.32323">
        <ele>705</ele>
        <time>2026-05-13T10:30:28Z</time>
      </trkpt>
      <trkpt lat="47.018" lon="6.32326">
        <ele>705</ele>
        <time>2026-05-13T10:30:29Z</time>
      </trkpt>
      <trkpt lat="47.01819" lon="6.32344">
        <ele>706</ele>
        <time>2026-05-13T10:30:35Z</time>
      </trkpt>
      <trkpt lat="47.0183" lon="6.32355">
        <ele>706.2</ele>
        <time>2026-05-13T10:30:38Z</time>
      </trkpt>
      <trkpt lat="47.01854" lon="6.32379">
        <ele>706.2</ele>
        <time>2026-05-13T10:30:44Z</time>
      </trkpt>
      <trkpt lat="47.01892" lon="6.32418">
        <ele>707.2</ele>
        <time>2026-05-13T10:30:54Z</time>
      </trkpt>
      <trkpt lat="47.01925" lon="6.32451">
        <ele>708.2</ele>
        <time>2026-05-13T10:31:03Z</time>
      </trkpt>
      <trkpt lat="47.01929" lon="6.32455">
        <ele>708.4</ele>
        <time>2026-05-13T10:31:04Z</time>
      </trkpt>
      <trkpt lat="47.01956" lon="6.32483">
        <ele>709.4</ele>
        <time>2026-05-13T10:31:12Z</time>
      </trkpt>
      <trkpt lat="47.01959" lon="6.32486">
        <ele>709.6</ele>
        <time>2026-05-13T10:31:13Z</time>
      </trkpt>
      <trkpt lat="47.01979" lon="6.3251">
        <ele>710.4</ele>
        <time>2026-05-13T10:31:20Z</time>
      </trkpt>
      <trkpt lat="47.01982" lon="6.32515">
        <ele>710.4</ele>
        <time>2026-05-13T10:31:22Z</time>
      </trkpt>
      <trkpt lat="47.01983" lon="6.32519">
        <ele>710.6</ele>
        <time>2026-05-13T10:31:23Z</time>
      </trkpt>
      <trkpt lat="47.01984" lon="6.32525">
        <ele>710.8</ele>
        <time>2026-05-13T10:31:25Z</time>
      </trkpt>
      <trkpt lat="47.01982" lon="6.32532">
        <ele>711.6</ele>
        <time>2026-05-13T10:31:29Z</time>
      </trkpt>
      <trkpt lat="47.01982" lon="6.32532">
        <ele>711.8</ele>
        <time>2026-05-13T10:31:30Z</time>
      </trkpt>
      <trkpt lat="47.01983" lon="6.32532">
        <ele>712</ele>
        <time>2026-05-13T10:31:31Z</time>
      </trkpt>
      <trkpt lat="47.01983" lon="6.32539">
        <ele>712.8</ele>
        <time>2026-05-13T10:31:37Z</time>
      </trkpt>
      <trkpt lat="47.01983" lon="6.32542">
        <ele>712.8</ele>
        <time>2026-05-13T10:31:38Z</time>
      </trkpt>
      <trkpt lat="47.01984" lon="6.32545">
        <ele>713</ele>
        <time>2026-05-13T10:31:39Z</time>
      </trkpt>
      <trkpt lat="47.01996" lon="6.32554">
        <ele>713</ele>
        <time>2026-05-13T10:31:43Z</time>
      </trkpt>
      <trkpt lat="47.02028" lon="6.32571">
        <ele>713.2</ele>
        <time>2026-05-13T10:31:51Z</time>
      </trkpt>
      <trkpt lat="47.02062" lon="6.32596">
        <ele>713.6</ele>
        <time>2026-05-13T10:31:59Z</time>
      </trkpt>
      <trkpt lat="47.0207" lon="6.32602">
        <ele>713.8</ele>
        <time>2026-05-13T10:32:01Z</time>
      </trkpt>
      <trkpt lat="47.02101" lon="6.32629">
        <ele>714.8</ele>
        <time>2026-05-13T10:32:08Z</time>
      </trkpt>
      <trkpt lat="47.02104" lon="6.32632">
        <ele>714.8</ele>
        <time>2026-05-13T10:32:09Z</time>
      </trkpt>
      <trkpt lat="47.02143" lon="6.32672">
        <ele>715.8</ele>
        <time>2026-05-13T10:32:18Z</time>
      </trkpt>
      <trkpt lat="47.02165" lon="6.32696">
        <ele>716.2</ele>
        <time>2026-05-13T10:32:23Z</time>
      </trkpt>
      <trkpt lat="47.02205" lon="6.32736">
        <ele>716.8</ele>
        <time>2026-05-13T10:32:32Z</time>
      </trkpt>
      <trkpt lat="47.02222" lon="6.32754">
        <ele>717.2</ele>
        <time>2026-05-13T10:32:36Z</time>
      </trkpt>
      <trkpt lat="47.02249" lon="6.32781">
        <ele>718.2</ele>
        <time>2026-05-13T10:32:43Z</time>
      </trkpt>
      <trkpt lat="47.02272" lon="6.32803">
        <ele>719.6</ele>
        <time>2026-05-13T10:32:49Z</time>
      </trkpt>
      <trkpt lat="47.02287" lon="6.32818">
        <ele>720</ele>
        <time>2026-05-13T10:32:53Z</time>
      </trkpt>
      <trkpt lat="47.02291" lon="6.32823">
        <ele>720.4</ele>
        <time>2026-05-13T10:32:54Z</time>
      </trkpt>
      <trkpt lat="47.0231" lon="6.32842">
        <ele>721.4</ele>
        <time>2026-05-13T10:32:59Z</time>
      </trkpt>
      <trkpt lat="47.02329" lon="6.32861">
        <ele>722.4</ele>
        <time>2026-05-13T10:33:04Z</time>
      </trkpt>
      <trkpt lat="47.02334" lon="6.32866">
        <ele>722.6</ele>
        <time>2026-05-13T10:33:05Z</time>
      </trkpt>
      <trkpt lat="47.02365" lon="6.32896">
        <ele>723.6</ele>
        <time>2026-05-13T10:33:13Z</time>
      </trkpt>
      <trkpt lat="47.02373" lon="6.32904">
        <ele>723.8</ele>
        <time>2026-05-13T10:33:15Z</time>
      </trkpt>
      <trkpt lat="47.02398" lon="6.32929">
        <ele>724.6</ele>
        <time>2026-05-13T10:33:21Z</time>
      </trkpt>
      <trkpt lat="47.0241" lon="6.3294">
        <ele>725</ele>
        <time>2026-05-13T10:33:24Z</time>
      </trkpt>
      <trkpt lat="47.02425" lon="6.32955">
        <ele>726</ele>
        <time>2026-05-13T10:33:28Z</time>
      </trkpt>
      <trkpt lat="47.0245" lon="6.32976">
        <ele>726.8</ele>
        <time>2026-05-13T10:33:34Z</time>
      </trkpt>
      <trkpt lat="47.02459" lon="6.32983">
        <ele>727</ele>
        <time>2026-05-13T10:33:36Z</time>
      </trkpt>
      <trkpt lat="47.02498" lon="6.33011">
        <ele>727.8</ele>
        <time>2026-05-13T10:33:44Z</time>
      </trkpt>
      <trkpt lat="47.0254" lon="6.33038">
        <ele>727.8</ele>
        <time>2026-05-13T10:33:52Z</time>
      </trkpt>
      <trkpt lat="47.02546" lon="6.33041">
        <ele>727.8</ele>
        <time>2026-05-13T10:33:53Z</time>
      </trkpt>
      <trkpt lat="47.02556" lon="6.33046">
        <ele>727.8</ele>
        <time>2026-05-13T10:33:55Z</time>
      </trkpt>
      <trkpt lat="47.02568" lon="6.33052">
        <ele>727.8</ele>
        <time>2026-05-13T10:33:57Z</time>
      </trkpt>
      <trkpt lat="47.02603" lon="6.3307">
        <ele>727.8</ele>
        <time>2026-05-13T10:34:03Z</time>
      </trkpt>
      <trkpt lat="47.0265" lon="6.33094">
        <ele>728.2</ele>
        <time>2026-05-13T10:34:11Z</time>
      </trkpt>
      <trkpt lat="47.02654" lon="6.33096">
        <ele>728.2</ele>
        <time>2026-05-13T10:34:12Z</time>
      </trkpt>
      <trkpt lat="47.02685" lon="6.33111">
        <ele>729</ele>
        <time>2026-05-13T10:34:17Z</time>
      </trkpt>
      <trkpt lat="47.02697" lon="6.33116">
        <ele>729.2</ele>
        <time>2026-05-13T10:34:19Z</time>
      </trkpt>
      <trkpt lat="47.02729" lon="6.33132">
        <ele>729.6</ele>
        <time>2026-05-13T10:34:24Z</time>
      </trkpt>
      <trkpt lat="47.02742" lon="6.33136">
        <ele>729.8</ele>
        <time>2026-05-13T10:34:26Z</time>
      </trkpt>
      <trkpt lat="47.02761" lon="6.33148">
        <ele>730</ele>
        <time>2026-05-13T10:34:29Z</time>
      </trkpt>
      <trkpt lat="47.02766" lon="6.33151">
        <ele>730.2</ele>
        <time>2026-05-13T10:34:30Z</time>
      </trkpt>
      <trkpt lat="47.02806" lon="6.33174">
        <ele>730.6</ele>
        <time>2026-05-13T10:34:36Z</time>
      </trkpt>
      <trkpt lat="47.02836" lon="6.33198">
        <ele>730.8</ele>
        <time>2026-05-13T10:34:41Z</time>
      </trkpt>
      <trkpt lat="47.02853" lon="6.33214">
        <ele>730.8</ele>
        <time>2026-05-13T10:34:44Z</time>
      </trkpt>
      <trkpt lat="47.02869" lon="6.33234">
        <ele>731</ele>
        <time>2026-05-13T10:34:47Z</time>
      </trkpt>
      <trkpt lat="47.02879" lon="6.33247">
        <ele>731</ele>
        <time>2026-05-13T10:34:49Z</time>
      </trkpt>
      <trkpt lat="47.02896" lon="6.33267">
        <ele>731.2</ele>
        <time>2026-05-13T10:34:52Z</time>
      </trkpt>
      <trkpt lat="47.02901" lon="6.33272">
        <ele>731.2</ele>
        <time>2026-05-13T10:34:53Z</time>
      </trkpt>
      <trkpt lat="47.0291" lon="6.33285">
        <ele>731.4</ele>
        <time>2026-05-13T10:34:55Z</time>
      </trkpt>
      <trkpt lat="47.02921" lon="6.33298">
        <ele>731.4</ele>
        <time>2026-05-13T10:34:57Z</time>
      </trkpt>
      <trkpt lat="47.02954" lon="6.33342">
        <ele>731.8</ele>
        <time>2026-05-13T10:35:04Z</time>
      </trkpt>
      <trkpt lat="47.02968" lon="6.33362">
        <ele>732</ele>
        <time>2026-05-13T10:35:07Z</time>
      </trkpt>
      <trkpt lat="47.02988" lon="6.33384">
        <ele>732.4</ele>
        <time>2026-05-13T10:35:11Z</time>
      </trkpt>
      <trkpt lat="47.03016" lon="6.33412">
        <ele>732.8</ele>
        <time>2026-05-13T10:35:17Z</time>
      </trkpt>
      <trkpt lat="47.0304" lon="6.33426">
        <ele>733.2</ele>
        <time>2026-05-13T10:35:21Z</time>
      </trkpt>
      <trkpt lat="47.03046" lon="6.33428">
        <ele>733.2</ele>
        <time>2026-05-13T10:35:22Z</time>
      </trkpt>
      <trkpt lat="47.03063" lon="6.33436">
        <ele>733.4</ele>
        <time>2026-05-13T10:35:25Z</time>
      </trkpt>
      <trkpt lat="47.03075" lon="6.33438">
        <ele>733.6</ele>
        <time>2026-05-13T10:35:27Z</time>
      </trkpt>
      <trkpt lat="47.03113" lon="6.3344">
        <ele>734.2</ele>
        <time>2026-05-13T10:35:33Z</time>
      </trkpt>
      <trkpt lat="47.03125" lon="6.33439">
        <ele>734.6</ele>
        <time>2026-05-13T10:35:35Z</time>
      </trkpt>
      <trkpt lat="47.03155" lon="6.33439">
        <ele>735.4</ele>
        <time>2026-05-13T10:35:40Z</time>
      </trkpt>
      <trkpt lat="47.03184" lon="6.33442">
        <ele>736</ele>
        <time>2026-05-13T10:35:45Z</time>
      </trkpt>
      <trkpt lat="47.03206" lon="6.33445">
        <ele>736.4</ele>
        <time>2026-05-13T10:35:49Z</time>
      </trkpt>
      <trkpt lat="47.03225" lon="6.33451">
        <ele>737</ele>
        <time>2026-05-13T10:35:53Z</time>
      </trkpt>
      <trkpt lat="47.03251" lon="6.33463">
        <ele>737.6</ele>
        <time>2026-05-13T10:35:58Z</time>
      </trkpt>
      <trkpt lat="47.03261" lon="6.3347">
        <ele>737.8</ele>
        <time>2026-05-13T10:36:00Z</time>
      </trkpt>
      <trkpt lat="47.03298" lon="6.33498">
        <ele>738.4</ele>
        <time>2026-05-13T10:36:07Z</time>
      </trkpt>
      <trkpt lat="47.03303" lon="6.33503">
        <ele>738.6</ele>
        <time>2026-05-13T10:36:08Z</time>
      </trkpt>
      <trkpt lat="47.0331" lon="6.33516">
        <ele>738.8</ele>
        <time>2026-05-13T10:36:10Z</time>
      </trkpt>
      <trkpt lat="47.03314" lon="6.33532">
        <ele>739</ele>
        <time>2026-05-13T10:36:12Z</time>
      </trkpt>
      <trkpt lat="47.03314" lon="6.33548">
        <ele>739.2</ele>
        <time>2026-05-13T10:36:14Z</time>
      </trkpt>
      <trkpt lat="47.03311" lon="6.33568">
        <ele>739.4</ele>
        <time>2026-05-13T10:36:17Z</time>
      </trkpt>
      <trkpt lat="47.03311" lon="6.33575">
        <ele>739.4</ele>
        <time>2026-05-13T10:36:18Z</time>
      </trkpt>
      <trkpt lat="47.03312" lon="6.33582">
        <ele>739.6</ele>
        <time>2026-05-13T10:36:19Z</time>
      </trkpt>
      <trkpt lat="47.03313" lon="6.33589">
        <ele>739.6</ele>
        <time>2026-05-13T10:36:20Z</time>
      </trkpt>
      <trkpt lat="47.03315" lon="6.33608">
        <ele>740.4</ele>
        <time>2026-05-13T10:36:23Z</time>
      </trkpt>
      <trkpt lat="47.03316" lon="6.33614">
        <ele>740.6</ele>
        <time>2026-05-13T10:36:24Z</time>
      </trkpt>
      <trkpt lat="47.03318" lon="6.33627">
        <ele>740.8</ele>
        <time>2026-05-13T10:36:26Z</time>
      </trkpt>
      <trkpt lat="47.03324" lon="6.33663">
        <ele>741.8</ele>
        <time>2026-05-13T10:36:32Z</time>
      </trkpt>
      <trkpt lat="47.03325" lon="6.3367">
        <ele>742</ele>
        <time>2026-05-13T10:36:33Z</time>
      </trkpt>
      <trkpt lat="47.03328" lon="6.33687">
        <ele>742.6</ele>
        <time>2026-05-13T10:36:36Z</time>
      </trkpt>
      <trkpt lat="47.0333" lon="6.33704">
        <ele>743.2</ele>
        <time>2026-05-13T10:36:39Z</time>
      </trkpt>
      <trkpt lat="47.03334" lon="6.33741">
        <ele>744.2</ele>
        <time>2026-05-13T10:36:45Z</time>
      </trkpt>
      <trkpt lat="47.03335" lon="6.33751">
        <ele>744.4</ele>
        <time>2026-05-13T10:36:47Z</time>
      </trkpt>
      <trkpt lat="47.03337" lon="6.33787">
        <ele>745.4</ele>
        <time>2026-05-13T10:36:53Z</time>
      </trkpt>
      <trkpt lat="47.03337" lon="6.33794">
        <ele>745.6</ele>
        <time>2026-05-13T10:36:54Z</time>
      </trkpt>
      <trkpt lat="47.03339" lon="6.33836">
        <ele>746.4</ele>
        <time>2026-05-13T10:37:01Z</time>
      </trkpt>
      <trkpt lat="47.0334" lon="6.33875">
        <ele>747.4</ele>
        <time>2026-05-13T10:37:07Z</time>
      </trkpt>
      <trkpt lat="47.0334" lon="6.33882">
        <ele>747.4</ele>
        <time>2026-05-13T10:37:08Z</time>
      </trkpt>
      <trkpt lat="47.03343" lon="6.33914">
        <ele>748.2</ele>
        <time>2026-05-13T10:37:13Z</time>
      </trkpt>
      <trkpt lat="47.03345" lon="6.33927">
        <ele>748.6</ele>
        <time>2026-05-13T10:37:15Z</time>
      </trkpt>
      <trkpt lat="47.03346" lon="6.33932">
        <ele>748.8</ele>
        <time>2026-05-13T10:37:16Z</time>
      </trkpt>
      <trkpt lat="47.03351" lon="6.33952">
        <ele>749.4</ele>
        <time>2026-05-13T10:37:19Z</time>
      </trkpt>
      <trkpt lat="47.03355" lon="6.33963">
        <ele>749.6</ele>
        <time>2026-05-13T10:37:21Z</time>
      </trkpt>
      <trkpt lat="47.03361" lon="6.33975">
        <ele>749.8</ele>
        <time>2026-05-13T10:37:23Z</time>
      </trkpt>
      <trkpt lat="47.03379" lon="6.34006">
        <ele>750.6</ele>
        <time>2026-05-13T10:37:29Z</time>
      </trkpt>
      <trkpt lat="47.03385" lon="6.34016">
        <ele>750.8</ele>
        <time>2026-05-13T10:37:31Z</time>
      </trkpt>
      <trkpt lat="47.03408" lon="6.34052">
        <ele>751.8</ele>
        <time>2026-05-13T10:37:38Z</time>
      </trkpt>
      <trkpt lat="47.03411" lon="6.34056">
        <ele>752</ele>
        <time>2026-05-13T10:37:39Z</time>
      </trkpt>
      <trkpt lat="47.03434" lon="6.34091">
        <ele>753</ele>
        <time>2026-05-13T10:37:46Z</time>
      </trkpt>
      <trkpt lat="47.0345" lon="6.34115">
        <ele>754</ele>
        <time>2026-05-13T10:37:51Z</time>
      </trkpt>
      <trkpt lat="47.03456" lon="6.34124">
        <ele>754.2</ele>
        <time>2026-05-13T10:37:53Z</time>
      </trkpt>
      <trkpt lat="47.03479" lon="6.34159">
        <ele>755.2</ele>
        <time>2026-05-13T10:38:00Z</time>
      </trkpt>
      <trkpt lat="47.03482" lon="6.34163">
        <ele>755.4</ele>
        <time>2026-05-13T10:38:01Z</time>
      </trkpt>
      <trkpt lat="47.035" lon="6.34181">
        <ele>756.4</ele>
        <time>2026-05-13T10:38:06Z</time>
      </trkpt>
      <trkpt lat="47.03515" lon="6.34193">
        <ele>757.2</ele>
        <time>2026-05-13T10:38:10Z</time>
      </trkpt>
      <trkpt lat="47.03522" lon="6.34198">
        <ele>757.4</ele>
        <time>2026-05-13T10:38:12Z</time>
      </trkpt>
      <trkpt lat="47.03551" lon="6.34216">
        <ele>758.6</ele>
        <time>2026-05-13T10:38:19Z</time>
      </trkpt>
      <trkpt lat="47.03569" lon="6.34229">
        <ele>759.4</ele>
        <time>2026-05-13T10:38:24Z</time>
      </trkpt>
      <trkpt lat="47.03572" lon="6.34232">
        <ele>759.6</ele>
        <time>2026-05-13T10:38:25Z</time>
      </trkpt>
      <trkpt lat="47.03599" lon="6.34251">
        <ele>760.8</ele>
        <time>2026-05-13T10:38:32Z</time>
      </trkpt>
      <trkpt lat="47.03608" lon="6.34257">
        <ele>761</ele>
        <time>2026-05-13T10:38:34Z</time>
      </trkpt>
      <trkpt lat="47.03628" lon="6.34271">
        <ele>761.8</ele>
        <time>2026-05-13T10:38:39Z</time>
      </trkpt>
      <trkpt lat="47.03644" lon="6.34282">
        <ele>762.4</ele>
        <time>2026-05-13T10:38:43Z</time>
      </trkpt>
      <trkpt lat="47.03648" lon="6.34285">
        <ele>762.6</ele>
        <time>2026-05-13T10:38:44Z</time>
      </trkpt>
      <trkpt lat="47.03659" lon="6.34293">
        <ele>763</ele>
        <time>2026-05-13T10:38:47Z</time>
      </trkpt>
      <trkpt lat="47.03686" lon="6.34318">
        <ele>764</ele>
        <time>2026-05-13T10:38:54Z</time>
      </trkpt>
      <trkpt lat="47.03715" lon="6.34351">
        <ele>764.8</ele>
        <time>2026-05-13T10:39:02Z</time>
      </trkpt>
      <trkpt lat="47.03722" lon="6.3436">
        <ele>765.2</ele>
        <time>2026-05-13T10:39:04Z</time>
      </trkpt>
      <trkpt lat="47.03739" lon="6.34381">
        <ele>766.2</ele>
        <time>2026-05-13T10:39:09Z</time>
      </trkpt>
      <trkpt lat="47.03749" lon="6.34394">
        <ele>766.8</ele>
        <time>2026-05-13T10:39:12Z</time>
      </trkpt>
      <trkpt lat="47.03758" lon="6.34406">
        <ele>767.2</ele>
        <time>2026-05-13T10:39:15Z</time>
      </trkpt>
      <trkpt lat="47.03779" lon="6.3443">
        <ele>768.2</ele>
        <time>2026-05-13T10:39:21Z</time>
      </trkpt>
      <trkpt lat="47.03782" lon="6.34434">
        <ele>768.4</ele>
        <time>2026-05-13T10:39:22Z</time>
      </trkpt>
      <trkpt lat="47.03798" lon="6.34453">
        <ele>769.6</ele>
        <time>2026-05-13T10:39:27Z</time>
      </trkpt>
      <trkpt lat="47.03806" lon="6.34462">
        <ele>769.8</ele>
        <time>2026-05-13T10:39:29Z</time>
      </trkpt>
      <trkpt lat="47.03823" lon="6.34482">
        <ele>770.6</ele>
        <time>2026-05-13T10:39:34Z</time>
      </trkpt>
      <trkpt lat="47.03836" lon="6.34497">
        <ele>771.2</ele>
        <time>2026-05-13T10:39:38Z</time>
      </trkpt>
      <trkpt lat="47.03845" lon="6.3451">
        <ele>771.6</ele>
        <time>2026-05-13T10:39:41Z</time>
      </trkpt>
      <trkpt lat="47.03866" lon="6.34535">
        <ele>772.6</ele>
        <time>2026-05-13T10:39:47Z</time>
      </trkpt>
      <trkpt lat="47.0387" lon="6.3454">
        <ele>772.6</ele>
        <time>2026-05-13T10:39:48Z</time>
      </trkpt>
      <trkpt lat="47.039" lon="6.34582">
        <ele>773.6</ele>
        <time>2026-05-13T10:39:57Z</time>
      </trkpt>
      <trkpt lat="47.03904" lon="6.34587">
        <ele>773.8</ele>
        <time>2026-05-13T10:39:58Z</time>
      </trkpt>
      <trkpt lat="47.03928" lon="6.34622">
        <ele>775</ele>
        <time>2026-05-13T10:40:05Z</time>
      </trkpt>
      <trkpt lat="47.03932" lon="6.34626">
        <ele>775.2</ele>
        <time>2026-05-13T10:40:06Z</time>
      </trkpt>
      <trkpt lat="47.03943" lon="6.3464">
        <ele>775.8</ele>
        <time>2026-05-13T10:40:09Z</time>
      </trkpt>
      <trkpt lat="47.03946" lon="6.34645">
        <ele>776</ele>
        <time>2026-05-13T10:40:10Z</time>
      </trkpt>
      <trkpt lat="47.0395" lon="6.3465">
        <ele>776.4</ele>
        <time>2026-05-13T10:40:11Z</time>
      </trkpt>
      <trkpt lat="47.03954" lon="6.34655">
        <ele>776.4</ele>
        <time>2026-05-13T10:40:12Z</time>
      </trkpt>
      <trkpt lat="47.03958" lon="6.3466">
        <ele>776.8</ele>
        <time>2026-05-13T10:40:13Z</time>
      </trkpt>
      <trkpt lat="47.03966" lon="6.34669">
        <ele>777.2</ele>
        <time>2026-05-13T10:40:15Z</time>
      </trkpt>
      <trkpt lat="47.03973" lon="6.34678">
        <ele>777.4</ele>
        <time>2026-05-13T10:40:17Z</time>
      </trkpt>
      <trkpt lat="47.03982" lon="6.34692">
        <ele>778.2</ele>
        <time>2026-05-13T10:40:20Z</time>
      </trkpt>
      <trkpt lat="47.03996" lon="6.34711">
        <ele>778.6</ele>
        <time>2026-05-13T10:40:24Z</time>
      </trkpt>
      <trkpt lat="47.0401" lon="6.34731">
        <ele>779.2</ele>
        <time>2026-05-13T10:40:28Z</time>
      </trkpt>
      <trkpt lat="47.04024" lon="6.3475">
        <ele>780</ele>
        <time>2026-05-13T10:40:32Z</time>
      </trkpt>
      <trkpt lat="47.04035" lon="6.34764">
        <ele>780.4</ele>
        <time>2026-05-13T10:40:35Z</time>
      </trkpt>
      <trkpt lat="47.0405" lon="6.34785">
        <ele>781.4</ele>
        <time>2026-05-13T10:40:40Z</time>
      </trkpt>
      <trkpt lat="47.04056" lon="6.34794">
        <ele>781.6</ele>
        <time>2026-05-13T10:40:42Z</time>
      </trkpt>
      <trkpt lat="47.04058" lon="6.34799">
        <ele>781.6</ele>
        <time>2026-05-13T10:40:43Z</time>
      </trkpt>
      <trkpt lat="47.04063" lon="6.34807">
        <ele>782</ele>
        <time>2026-05-13T10:40:45Z</time>
      </trkpt>
      <trkpt lat="47.04076" lon="6.34824">
        <ele>782.8</ele>
        <time>2026-05-13T10:40:49Z</time>
      </trkpt>
      <trkpt lat="47.04082" lon="6.34833">
        <ele>782.8</ele>
        <time>2026-05-13T10:40:51Z</time>
      </trkpt>
      <trkpt lat="47.04093" lon="6.34846">
        <ele>783.2</ele>
        <time>2026-05-13T10:40:54Z</time>
      </trkpt>
      <trkpt lat="47.04107" lon="6.34863">
        <ele>783.6</ele>
        <time>2026-05-13T10:40:58Z</time>
      </trkpt>
      <trkpt lat="47.04109" lon="6.34868">
        <ele>784</ele>
        <time>2026-05-13T10:40:59Z</time>
      </trkpt>
      <trkpt lat="47.04135" lon="6.34906">
        <ele>785</ele>
        <time>2026-05-13T10:41:07Z</time>
      </trkpt>
      <trkpt lat="47.04142" lon="6.34915">
        <ele>785.2</ele>
        <time>2026-05-13T10:41:09Z</time>
      </trkpt>
      <trkpt lat="47.04149" lon="6.34924">
        <ele>785.6</ele>
        <time>2026-05-13T10:41:11Z</time>
      </trkpt>
      <trkpt lat="47.04154" lon="6.34933">
        <ele>786</ele>
        <time>2026-05-13T10:41:13Z</time>
      </trkpt>
      <trkpt lat="47.04157" lon="6.34937">
        <ele>786</ele>
        <time>2026-05-13T10:41:14Z</time>
      </trkpt>
      <trkpt lat="47.04163" lon="6.34946">
        <ele>786.4</ele>
        <time>2026-05-13T10:41:16Z</time>
      </trkpt>
      <trkpt lat="47.04177" lon="6.34973">
        <ele>786.8</ele>
        <time>2026-05-13T10:41:22Z</time>
      </trkpt>
      <trkpt lat="47.04182" lon="6.34984">
        <ele>787.2</ele>
        <time>2026-05-13T10:41:24Z</time>
      </trkpt>
      <trkpt lat="47.04186" lon="6.34993">
        <ele>787.4</ele>
        <time>2026-05-13T10:41:26Z</time>
      </trkpt>
      <trkpt lat="47.04195" lon="6.35011">
        <ele>787.8</ele>
        <time>2026-05-13T10:41:29Z</time>
      </trkpt>
      <trkpt lat="47.04203" lon="6.35028">
        <ele>788</ele>
        <time>2026-05-13T10:41:32Z</time>
      </trkpt>
      <trkpt lat="47.04207" lon="6.3504">
        <ele>788.2</ele>
        <time>2026-05-13T10:41:34Z</time>
      </trkpt>
      <trkpt lat="47.04214" lon="6.35063">
        <ele>789</ele>
        <time>2026-05-13T10:41:38Z</time>
      </trkpt>
      <trkpt lat="47.04217" lon="6.35068">
        <ele>789.2</ele>
        <time>2026-05-13T10:41:39Z</time>
      </trkpt>
      <trkpt lat="47.04231" lon="6.35103">
        <ele>790</ele>
        <time>2026-05-13T10:41:45Z</time>
      </trkpt>
      <trkpt lat="47.0424" lon="6.35126">
        <ele>790.6</ele>
        <time>2026-05-13T10:41:49Z</time>
      </trkpt>
      <trkpt lat="47.04245" lon="6.35142">
        <ele>791.2</ele>
        <time>2026-05-13T10:41:52Z</time>
      </trkpt>
      <trkpt lat="47.04249" lon="6.35154">
        <ele>791.6</ele>
        <time>2026-05-13T10:41:54Z</time>
      </trkpt>
      <trkpt lat="47.0425" lon="6.35159">
        <ele>791.6</ele>
        <time>2026-05-13T10:41:55Z</time>
      </trkpt>
      <trkpt lat="47.04254" lon="6.35177">
        <ele>792.2</ele>
        <time>2026-05-13T10:41:58Z</time>
      </trkpt>
      <trkpt lat="47.04255" lon="6.35183">
        <ele>792.4</ele>
        <time>2026-05-13T10:41:59Z</time>
      </trkpt>
      <trkpt lat="47.0426" lon="6.35208">
        <ele>793.2</ele>
        <time>2026-05-13T10:42:03Z</time>
      </trkpt>
      <trkpt lat="47.04261" lon="6.35214">
        <ele>793.4</ele>
        <time>2026-05-13T10:42:04Z</time>
      </trkpt>
      <trkpt lat="47.04263" lon="6.3522">
        <ele>793.8</ele>
        <time>2026-05-13T10:42:05Z</time>
      </trkpt>
      <trkpt lat="47.04268" lon="6.35239">
        <ele>794.2</ele>
        <time>2026-05-13T10:42:08Z</time>
      </trkpt>
      <trkpt lat="47.04271" lon="6.35244">
        <ele>794.6</ele>
        <time>2026-05-13T10:42:09Z</time>
      </trkpt>
      <trkpt lat="47.04279" lon="6.35259">
        <ele>795</ele>
        <time>2026-05-13T10:42:12Z</time>
      </trkpt>
      <trkpt lat="47.04285" lon="6.35268">
        <ele>795.2</ele>
        <time>2026-05-13T10:42:14Z</time>
      </trkpt>
      <trkpt lat="47.04288" lon="6.35272">
        <ele>795.4</ele>
        <time>2026-05-13T10:42:15Z</time>
      </trkpt>
      <trkpt lat="47.04294" lon="6.35278">
        <ele>795.6</ele>
        <time>2026-05-13T10:42:17Z</time>
      </trkpt>
      <trkpt lat="47.04302" lon="6.35283">
        <ele>796</ele>
        <time>2026-05-13T10:42:19Z</time>
      </trkpt>
      <trkpt lat="47.04317" lon="6.35292">
        <ele>796.8</ele>
        <time>2026-05-13T10:42:23Z</time>
      </trkpt>
      <trkpt lat="47.04324" lon="6.35296">
        <ele>796.8</ele>
        <time>2026-05-13T10:42:25Z</time>
      </trkpt>
      <trkpt lat="47.04333" lon="6.35299">
        <ele>797</ele>
        <time>2026-05-13T10:42:27Z</time>
      </trkpt>
      <trkpt lat="47.04361" lon="6.35313">
        <ele>797.8</ele>
        <time>2026-05-13T10:42:34Z</time>
      </trkpt>
      <trkpt lat="47.04364" lon="6.35315">
        <ele>797.8</ele>
        <time>2026-05-13T10:42:35Z</time>
      </trkpt>
      <trkpt lat="47.04386" lon="6.35334">
        <ele>799</ele>
        <time>2026-05-13T10:42:41Z</time>
      </trkpt>
      <trkpt lat="47.04401" lon="6.35353">
        <ele>800</ele>
        <time>2026-05-13T10:42:46Z</time>
      </trkpt>
      <trkpt lat="47.04407" lon="6.35362">
        <ele>800.2</ele>
        <time>2026-05-13T10:42:48Z</time>
      </trkpt>
      <trkpt lat="47.04418" lon="6.35382">
        <ele>801</ele>
        <time>2026-05-13T10:42:52Z</time>
      </trkpt>
      <trkpt lat="47.04426" lon="6.35409">
        <ele>802</ele>
        <time>2026-05-13T10:42:57Z</time>
      </trkpt>
      <trkpt lat="47.04428" lon="6.35419">
        <ele>802.4</ele>
        <time>2026-05-13T10:42:59Z</time>
      </trkpt>
      <trkpt lat="47.04428" lon="6.35441">
        <ele>803.2</ele>
        <time>2026-05-13T10:43:03Z</time>
      </trkpt>
      <trkpt lat="47.04427" lon="6.35452">
        <ele>803.4</ele>
        <time>2026-05-13T10:43:05Z</time>
      </trkpt>
      <trkpt lat="47.04427" lon="6.35483">
        <ele>804.4</ele>
        <time>2026-05-13T10:43:10Z</time>
      </trkpt>
      <trkpt lat="47.04429" lon="6.35512">
        <ele>805</ele>
        <time>2026-05-13T10:43:14Z</time>
      </trkpt>
      <trkpt lat="47.0443" lon="6.35536">
        <ele>805.6</ele>
        <time>2026-05-13T10:43:18Z</time>
      </trkpt>
      <trkpt lat="47.04431" lon="6.35546">
        <ele>805.8</ele>
        <time>2026-05-13T10:43:20Z</time>
      </trkpt>
      <trkpt lat="47.04434" lon="6.35575">
        <ele>806.8</ele>
        <time>2026-05-13T10:43:25Z</time>
      </trkpt>
      <trkpt lat="47.04438" lon="6.35599">
        <ele>807.4</ele>
        <time>2026-05-13T10:43:29Z</time>
      </trkpt>
      <trkpt lat="47.04443" lon="6.35618">
        <ele>807.6</ele>
        <time>2026-05-13T10:43:32Z</time>
      </trkpt>
      <trkpt lat="47.04448" lon="6.3563">
        <ele>807.6</ele>
        <time>2026-05-13T10:43:34Z</time>
      </trkpt>
      <trkpt lat="47.04465" lon="6.35663">
        <ele>807.6</ele>
        <time>2026-05-13T10:43:39Z</time>
      </trkpt>
      <trkpt lat="47.04487" lon="6.35706">
        <ele>807.6</ele>
        <time>2026-05-13T10:43:45Z</time>
      </trkpt>
      <trkpt lat="47.04522" lon="6.35771">
        <ele>807</ele>
        <time>2026-05-13T10:43:53Z</time>
      </trkpt>
      <trkpt lat="47.04545" lon="6.35831">
        <ele>805.4</ele>
        <time>2026-05-13T10:43:59Z</time>
      </trkpt>
      <trkpt lat="47.04558" lon="6.35893">
        <ele>804.8</ele>
        <time>2026-05-13T10:44:04Z</time>
      </trkpt>
      <trkpt lat="47.04564" lon="6.35921">
        <ele>804.2</ele>
        <time>2026-05-13T10:44:06Z</time>
      </trkpt>
      <trkpt lat="47.04568" lon="6.35945">
        <ele>803.8</ele>
        <time>2026-05-13T10:44:08Z</time>
      </trkpt>
      <trkpt lat="47.04577" lon="6.35984">
        <ele>802.6</ele>
        <time>2026-05-13T10:44:11Z</time>
      </trkpt>
      <trkpt lat="47.0458" lon="6.35997">
        <ele>802.2</ele>
        <time>2026-05-13T10:44:12Z</time>
      </trkpt>
      <trkpt lat="47.04582" lon="6.36009">
        <ele>801.4</ele>
        <time>2026-05-13T10:44:13Z</time>
      </trkpt>
      <trkpt lat="47.04588" lon="6.36037">
        <ele>800</ele>
        <time>2026-05-13T10:44:15Z</time>
      </trkpt>
      <trkpt lat="47.04601" lon="6.36092">
        <ele>799.2</ele>
        <time>2026-05-13T10:44:20Z</time>
      </trkpt>
      <trkpt lat="47.04608" lon="6.36127">
        <ele>799</ele>
        <time>2026-05-13T10:44:23Z</time>
      </trkpt>
      <trkpt lat="47.04615" lon="6.36157">
        <ele>799</ele>
        <time>2026-05-13T10:44:26Z</time>
      </trkpt>
      <trkpt lat="47.04625" lon="6.36203">
        <ele>799.6</ele>
        <time>2026-05-13T10:44:31Z</time>
      </trkpt>
      <trkpt lat="47.04629" lon="6.36222">
        <ele>800</ele>
        <time>2026-05-13T10:44:33Z</time>
      </trkpt>
      <trkpt lat="47.04637" lon="6.36263">
        <ele>801.2</ele>
        <time>2026-05-13T10:44:38Z</time>
      </trkpt>
      <trkpt lat="47.04639" lon="6.3627">
        <ele>801.6</ele>
        <time>2026-05-13T10:44:39Z</time>
      </trkpt>
      <trkpt lat="47.04649" lon="6.36324">
        <ele>802.4</ele>
        <time>2026-05-13T10:44:46Z</time>
      </trkpt>
      <trkpt lat="47.04656" lon="6.36355">
        <ele>802.6</ele>
        <time>2026-05-13T10:44:50Z</time>
      </trkpt>
      <trkpt lat="47.04674" lon="6.36431">
        <ele>802.8</ele>
        <time>2026-05-13T10:44:59Z</time>
      </trkpt>
      <trkpt lat="47.04677" lon="6.36437">
        <ele>802.8</ele>
        <time>2026-05-13T10:45:00Z</time>
      </trkpt>
      <trkpt lat="47.04702" lon="6.36499">
        <ele>803.4</ele>
        <time>2026-05-13T10:45:08Z</time>
      </trkpt>
      <trkpt lat="47.04705" lon="6.36506">
        <ele>803.6</ele>
        <time>2026-05-13T10:45:09Z</time>
      </trkpt>
      <trkpt lat="47.04722" lon="6.36549">
        <ele>804.2</ele>
        <time>2026-05-13T10:45:15Z</time>
      </trkpt>
      <trkpt lat="47.04727" lon="6.36563">
        <ele>804.6</ele>
        <time>2026-05-13T10:45:17Z</time>
      </trkpt>
      <trkpt lat="47.04736" lon="6.36597">
        <ele>805.4</ele>
        <time>2026-05-13T10:45:22Z</time>
      </trkpt>
      <trkpt lat="47.0474" lon="6.36608">
        <ele>805.8</ele>
        <time>2026-05-13T10:45:24Z</time>
      </trkpt>
      <trkpt lat="47.04748" lon="6.36634">
        <ele>806.8</ele>
        <time>2026-05-13T10:45:28Z</time>
      </trkpt>
      <trkpt lat="47.04751" lon="6.36644">
        <ele>807.2</ele>
        <time>2026-05-13T10:45:30Z</time>
      </trkpt>
      <trkpt lat="47.04753" lon="6.36651">
        <ele>807.4</ele>
        <time>2026-05-13T10:45:31Z</time>
      </trkpt>
      <trkpt lat="47.04757" lon="6.36663">
        <ele>807.8</ele>
        <time>2026-05-13T10:45:33Z</time>
      </trkpt>
      <trkpt lat="47.0476" lon="6.36675">
        <ele>808.2</ele>
        <time>2026-05-13T10:45:35Z</time>
      </trkpt>
      <trkpt lat="47.04763" lon="6.36687">
        <ele>808.4</ele>
        <time>2026-05-13T10:45:37Z</time>
      </trkpt>
      <trkpt lat="47.04768" lon="6.36705">
        <ele>808.8</ele>
        <time>2026-05-13T10:45:40Z</time>
      </trkpt>
      <trkpt lat="47.04772" lon="6.36734">
        <ele>809.8</ele>
        <time>2026-05-13T10:45:45Z</time>
      </trkpt>
      <trkpt lat="47.04772" lon="6.3674">
        <ele>810</ele>
        <time>2026-05-13T10:45:46Z</time>
      </trkpt>
      <trkpt lat="47.04775" lon="6.36774">
        <ele>811.2</ele>
        <time>2026-05-13T10:45:51Z</time>
      </trkpt>
      <trkpt lat="47.04775" lon="6.36787">
        <ele>811.6</ele>
        <time>2026-05-13T10:45:53Z</time>
      </trkpt>
      <trkpt lat="47.04778" lon="6.36828">
        <ele>812.2</ele>
        <time>2026-05-13T10:45:59Z</time>
      </trkpt>
      <trkpt lat="47.04781" lon="6.36856">
        <ele>812.8</ele>
        <time>2026-05-13T10:46:03Z</time>
      </trkpt>
      <trkpt lat="47.04789" lon="6.36911">
        <ele>813</ele>
        <time>2026-05-13T10:46:10Z</time>
      </trkpt>
      <trkpt lat="47.048" lon="6.36959">
        <ele>812.8</ele>
        <time>2026-05-13T10:46:15Z</time>
      </trkpt>
      <trkpt lat="47.04822" lon="6.37019">
        <ele>812</ele>
        <time>2026-05-13T10:46:21Z</time>
      </trkpt>
      <trkpt lat="47.04842" lon="6.37067">
        <ele>810.8</ele>
        <time>2026-05-13T10:46:25Z</time>
      </trkpt>
      <trkpt lat="47.04855" lon="6.37095">
        <ele>809.8</ele>
        <time>2026-05-13T10:46:27Z</time>
      </trkpt>
      <trkpt lat="47.04861" lon="6.37108">
        <ele>809.6</ele>
        <time>2026-05-13T10:46:28Z</time>
      </trkpt>
      <trkpt lat="47.04872" lon="6.37135">
        <ele>808</ele>
        <time>2026-05-13T10:46:30Z</time>
      </trkpt>
      <trkpt lat="47.04884" lon="6.37159">
        <ele>807</ele>
        <time>2026-05-13T10:46:32Z</time>
      </trkpt>
      <trkpt lat="47.04897" lon="6.37191">
        <ele>806</ele>
        <time>2026-05-13T10:46:34Z</time>
      </trkpt>
      <trkpt lat="47.04902" lon="6.37205">
        <ele>805.2</ele>
        <time>2026-05-13T10:46:35Z</time>
      </trkpt>
      <trkpt lat="47.04913" lon="6.37234">
        <ele>804</ele>
        <time>2026-05-13T10:46:37Z</time>
      </trkpt>
      <trkpt lat="47.04923" lon="6.37262">
        <ele>802.8</ele>
        <time>2026-05-13T10:46:39Z</time>
      </trkpt>
      <trkpt lat="47.04937" lon="6.37303">
        <ele>801.4</ele>
        <time>2026-05-13T10:46:42Z</time>
      </trkpt>
      <trkpt lat="47.04962" lon="6.37376">
        <ele>800.4</ele>
        <time>2026-05-13T10:46:48Z</time>
      </trkpt>
      <trkpt lat="47.04966" lon="6.37387">
        <ele>800.4</ele>
        <time>2026-05-13T10:46:49Z</time>
      </trkpt>
      <trkpt lat="47.04992" lon="6.37464">
        <ele>800.8</ele>
        <time>2026-05-13T10:46:56Z</time>
      </trkpt>
      <trkpt lat="47.04996" lon="6.37475">
        <ele>800.8</ele>
        <time>2026-05-13T10:46:57Z</time>
      </trkpt>
      <trkpt lat="47.05022" lon="6.37547">
        <ele>801</ele>
        <time>2026-05-13T10:47:04Z</time>
      </trkpt>
      <trkpt lat="47.05025" lon="6.37557">
        <ele>801</ele>
        <time>2026-05-13T10:47:05Z</time>
      </trkpt>
      <trkpt lat="47.05053" lon="6.37637">
        <ele>801.6</ele>
        <time>2026-05-13T10:47:13Z</time>
      </trkpt>
      <trkpt lat="47.05072" lon="6.37695">
        <ele>801.8</ele>
        <time>2026-05-13T10:47:19Z</time>
      </trkpt>
      <trkpt lat="47.05088" lon="6.3774">
        <ele>802.4</ele>
        <time>2026-05-13T10:47:24Z</time>
      </trkpt>
      <trkpt lat="47.05099" lon="6.37775">
        <ele>802.6</ele>
        <time>2026-05-13T10:47:28Z</time>
      </trkpt>
      <trkpt lat="47.05116" lon="6.3783">
        <ele>803</ele>
        <time>2026-05-13T10:47:35Z</time>
      </trkpt>
      <trkpt lat="47.05122" lon="6.37851">
        <ele>803.4</ele>
        <time>2026-05-13T10:47:38Z</time>
      </trkpt>
      <trkpt lat="47.05127" lon="6.37869">
        <ele>803.8</ele>
        <time>2026-05-13T10:47:41Z</time>
      </trkpt>
      <trkpt lat="47.05128" lon="6.37875">
        <ele>804.4</ele>
        <time>2026-05-13T10:47:42Z</time>
      </trkpt>
      <trkpt lat="47.05129" lon="6.37881">
        <ele>804.6</ele>
        <time>2026-05-13T10:47:43Z</time>
      </trkpt>
      <trkpt lat="47.05137" lon="6.37909">
        <ele>805.6</ele>
        <time>2026-05-13T10:47:48Z</time>
      </trkpt>
      <trkpt lat="47.05147" lon="6.37936">
        <ele>806.6</ele>
        <time>2026-05-13T10:47:53Z</time>
      </trkpt>
      <trkpt lat="47.0515" lon="6.37941">
        <ele>806.8</ele>
        <time>2026-05-13T10:47:54Z</time>
      </trkpt>
      <trkpt lat="47.05152" lon="6.37947">
        <ele>807</ele>
        <time>2026-05-13T10:47:55Z</time>
      </trkpt>
      <trkpt lat="47.05158" lon="6.37963">
        <ele>807.6</ele>
        <time>2026-05-13T10:47:58Z</time>
      </trkpt>
      <trkpt lat="47.0516" lon="6.37968">
        <ele>808.2</ele>
        <time>2026-05-13T10:47:59Z</time>
      </trkpt>
      <trkpt lat="47.05164" lon="6.37986">
        <ele>808.8</ele>
        <time>2026-05-13T10:48:02Z</time>
      </trkpt>
      <trkpt lat="47.05168" lon="6.37997">
        <ele>809.6</ele>
        <time>2026-05-13T10:48:04Z</time>
      </trkpt>
      <trkpt lat="47.05169" lon="6.38002">
        <ele>810.4</ele>
        <time>2026-05-13T10:48:05Z</time>
      </trkpt>
      <trkpt lat="47.05171" lon="6.38007">
        <ele>810.8</ele>
        <time>2026-05-13T10:48:06Z</time>
      </trkpt>
      <trkpt lat="47.05173" lon="6.38018">
        <ele>811.2</ele>
        <time>2026-05-13T10:48:08Z</time>
      </trkpt>
      <trkpt lat="47.05181" lon="6.38039">
        <ele>812</ele>
        <time>2026-05-13T10:48:12Z</time>
      </trkpt>
      <trkpt lat="47.0519" lon="6.38065">
        <ele>812.8</ele>
        <time>2026-05-13T10:48:17Z</time>
      </trkpt>
      <trkpt lat="47.05193" lon="6.38076">
        <ele>813.2</ele>
        <time>2026-05-13T10:48:19Z</time>
      </trkpt>
      <trkpt lat="47.05197" lon="6.38087">
        <ele>813.6</ele>
        <time>2026-05-13T10:48:21Z</time>
      </trkpt>
      <trkpt lat="47.05201" lon="6.38099">
        <ele>814</ele>
        <time>2026-05-13T10:48:23Z</time>
      </trkpt>
      <trkpt lat="47.05205" lon="6.3811">
        <ele>814.4</ele>
        <time>2026-05-13T10:48:25Z</time>
      </trkpt>
      <trkpt lat="47.05213" lon="6.38133">
        <ele>815.2</ele>
        <time>2026-05-13T10:48:29Z</time>
      </trkpt>
      <trkpt lat="47.05215" lon="6.38139">
        <ele>815.2</ele>
        <time>2026-05-13T10:48:30Z</time>
      </trkpt>
      <trkpt lat="47.05217" lon="6.38145">
        <ele>815.4</ele>
        <time>2026-05-13T10:48:31Z</time>
      </trkpt>
      <trkpt lat="47.05226" lon="6.38177">
        <ele>815.8</ele>
        <time>2026-05-13T10:48:36Z</time>
      </trkpt>
      <trkpt lat="47.05237" lon="6.38237">
        <ele>816.2</ele>
        <time>2026-05-13T10:48:44Z</time>
      </trkpt>
      <trkpt lat="47.05251" lon="6.38305">
        <ele>815.6</ele>
        <time>2026-05-13T10:48:52Z</time>
      </trkpt>
      <trkpt lat="47.05258" lon="6.38363">
        <ele>815</ele>
        <time>2026-05-13T10:48:57Z</time>
      </trkpt>
      <trkpt lat="47.05258" lon="6.38363">
        <ele>814.8</ele>
        <time>2026-05-13T10:48:58Z</time>
      </trkpt>
      <trkpt lat="47.05258" lon="6.38396">
        <ele>814.4</ele>
        <time>2026-05-13T10:49:01Z</time>
      </trkpt>
      <trkpt lat="47.05257" lon="6.3844">
        <ele>813.8</ele>
        <time>2026-05-13T10:49:05Z</time>
      </trkpt>
      <trkpt lat="47.05255" lon="6.38523">
        <ele>813.6</ele>
        <time>2026-05-13T10:49:12Z</time>
      </trkpt>
      <trkpt lat="47.05254" lon="6.38533">
        <ele>813.6</ele>
        <time>2026-05-13T10:49:14Z</time>
      </trkpt>
      <trkpt lat="47.05252" lon="6.38612">
        <ele>814</ele>
        <time>2026-05-13T10:49:22Z</time>
      </trkpt>
      <trkpt lat="47.05251" lon="6.38693">
        <ele>813.8</ele>
        <time>2026-05-13T10:49:29Z</time>
      </trkpt>
      <trkpt lat="47.0525" lon="6.38733">
        <ele>813.8</ele>
        <time>2026-05-13T10:49:33Z</time>
      </trkpt>
      <trkpt lat="47.05249" lon="6.3882">
        <ele>814</ele>
        <time>2026-05-13T10:49:42Z</time>
      </trkpt>
      <trkpt lat="47.05246" lon="6.38897">
        <ele>814</ele>
        <time>2026-05-13T10:49:50Z</time>
      </trkpt>
      <trkpt lat="47.05242" lon="6.38978">
        <ele>814</ele>
        <time>2026-05-13T10:49:58Z</time>
      </trkpt>
      <trkpt lat="47.05242" lon="6.38988">
        <ele>814</ele>
        <time>2026-05-13T10:49:59Z</time>
      </trkpt>
      <trkpt lat="47.05237" lon="6.39061">
        <ele>814</ele>
        <time>2026-05-13T10:50:07Z</time>
      </trkpt>
      <trkpt lat="47.05232" lon="6.39129">
        <ele>814.2</ele>
        <time>2026-05-13T10:50:13Z</time>
      </trkpt>
      <trkpt lat="47.05232" lon="6.39139">
        <ele>814.2</ele>
        <time>2026-05-13T10:50:14Z</time>
      </trkpt>
      <trkpt lat="47.05232" lon="6.39158">
        <ele>814.4</ele>
        <time>2026-05-13T10:50:16Z</time>
      </trkpt>
      <trkpt lat="47.05236" lon="6.39195">
        <ele>814.6</ele>
        <time>2026-05-13T10:50:20Z</time>
      </trkpt>
      <trkpt lat="47.05247" lon="6.39275">
        <ele>815</ele>
        <time>2026-05-13T10:50:29Z</time>
      </trkpt>
      <trkpt lat="47.05249" lon="6.39284">
        <ele>815</ele>
        <time>2026-05-13T10:50:30Z</time>
      </trkpt>
      <trkpt lat="47.0526" lon="6.3936">
        <ele>815.8</ele>
        <time>2026-05-13T10:50:39Z</time>
      </trkpt>
      <trkpt lat="47.05261" lon="6.39368">
        <ele>815.8</ele>
        <time>2026-05-13T10:50:41Z</time>
      </trkpt>
      <trkpt lat="47.05272" lon="6.39439">
        <ele>816.6</ele>
        <time>2026-05-13T10:50:49Z</time>
      </trkpt>
      <trkpt lat="47.05274" lon="6.39447">
        <ele>816.8</ele>
        <time>2026-05-13T10:50:50Z</time>
      </trkpt>
      <trkpt lat="47.05285" lon="6.39523">
        <ele>817.6</ele>
        <time>2026-05-13T10:50:59Z</time>
      </trkpt>
      <trkpt lat="47.05288" lon="6.39548">
        <ele>817.8</ele>
        <time>2026-05-13T10:51:02Z</time>
      </trkpt>
      <trkpt lat="47.05298" lon="6.3961">
        <ele>819</ele>
        <time>2026-05-13T10:51:10Z</time>
      </trkpt>
      <trkpt lat="47.05308" lon="6.39673">
        <ele>820.2</ele>
        <time>2026-05-13T10:51:19Z</time>
      </trkpt>
      <trkpt lat="47.05316" lon="6.39711">
        <ele>820.6</ele>
        <time>2026-05-13T10:51:23Z</time>
      </trkpt>
      <trkpt lat="47.05323" lon="6.39748">
        <ele>821.2</ele>
        <time>2026-05-13T10:51:28Z</time>
      </trkpt>
      <trkpt lat="47.05328" lon="6.39777">
        <ele>822</ele>
        <time>2026-05-13T10:51:33Z</time>
      </trkpt>
      <trkpt lat="47.05331" lon="6.39791">
        <ele>822.2</ele>
        <time>2026-05-13T10:51:34Z</time>
      </trkpt>
      <trkpt lat="47.05343" lon="6.39853">
        <ele>823.4</ele>
        <time>2026-05-13T10:51:43Z</time>
      </trkpt>
      <trkpt lat="47.05352" lon="6.39907">
        <ele>823.8</ele>
        <time>2026-05-13T10:51:51Z</time>
      </trkpt>
      <trkpt lat="47.05359" lon="6.39948">
        <ele>824.4</ele>
        <time>2026-05-13T10:51:57Z</time>
      </trkpt>
      <trkpt lat="47.05363" lon="6.39968">
        <ele>824.8</ele>
        <time>2026-05-13T10:52:00Z</time>
      </trkpt>
      <trkpt lat="47.05368" lon="6.40001">
        <ele>825.4</ele>
        <time>2026-05-13T10:52:05Z</time>
      </trkpt>
      <trkpt lat="47.05373" lon="6.4002">
        <ele>825.8</ele>
        <time>2026-05-13T10:52:09Z</time>
      </trkpt>
      <trkpt lat="47.05376" lon="6.40033">
        <ele>826</ele>
        <time>2026-05-13T10:52:10Z</time>
      </trkpt>
      <trkpt lat="47.05381" lon="6.40046">
        <ele>826.2</ele>
        <time>2026-05-13T10:52:12Z</time>
      </trkpt>
      <trkpt lat="47.0539" lon="6.40064">
        <ele>826.4</ele>
        <time>2026-05-13T10:52:15Z</time>
      </trkpt>
      <trkpt lat="47.05393" lon="6.40069">
        <ele>826.4</ele>
        <time>2026-05-13T10:52:16Z</time>
      </trkpt>
      <trkpt lat="47.05414" lon="6.40095">
        <ele>826.8</ele>
        <time>2026-05-13T10:52:21Z</time>
      </trkpt>
      <trkpt lat="47.05419" lon="6.401">
        <ele>826.8</ele>
        <time>2026-05-13T10:52:22Z</time>
      </trkpt>
      <trkpt lat="47.05451" lon="6.40123">
        <ele>827</ele>
        <time>2026-05-13T10:52:28Z</time>
      </trkpt>
      <trkpt lat="47.05502" lon="6.40159">
        <ele>826.6</ele>
        <time>2026-05-13T10:52:37Z</time>
      </trkpt>
      <trkpt lat="47.05556" lon="6.40194">
        <ele>826.6</ele>
        <time>2026-05-13T10:52:46Z</time>
      </trkpt>
      <trkpt lat="47.05561" lon="6.40198">
        <ele>826.6</ele>
        <time>2026-05-13T10:52:47Z</time>
      </trkpt>
      <trkpt lat="47.05613" lon="6.40236">
        <ele>826</ele>
        <time>2026-05-13T10:52:56Z</time>
      </trkpt>
      <trkpt lat="47.05648" lon="6.4026">
        <ele>826</ele>
        <time>2026-05-13T10:53:03Z</time>
      </trkpt>
      <trkpt lat="47.05698" lon="6.40294">
        <ele>826.4</ele>
        <time>2026-05-13T10:53:11Z</time>
      </trkpt>
      <trkpt lat="47.05708" lon="6.40301">
        <ele>826.6</ele>
        <time>2026-05-13T10:53:13Z</time>
      </trkpt>
      <trkpt lat="47.05747" lon="6.4033">
        <ele>827.2</ele>
        <time>2026-05-13T10:53:21Z</time>
      </trkpt>
      <trkpt lat="47.05773" lon="6.40356">
        <ele>827.6</ele>
        <time>2026-05-13T10:53:27Z</time>
      </trkpt>
      <trkpt lat="47.05784" lon="6.40372">
        <ele>827.6</ele>
        <time>2026-05-13T10:53:30Z</time>
      </trkpt>
      <trkpt lat="47.05794" lon="6.40394">
        <ele>828.2</ele>
        <time>2026-05-13T10:53:34Z</time>
      </trkpt>
      <trkpt lat="47.05802" lon="6.40416">
        <ele>828.8</ele>
        <time>2026-05-13T10:53:38Z</time>
      </trkpt>
      <trkpt lat="47.05811" lon="6.40437">
        <ele>829.8</ele>
        <time>2026-05-13T10:53:42Z</time>
      </trkpt>
      <trkpt lat="47.05813" lon="6.40442">
        <ele>830.2</ele>
        <time>2026-05-13T10:53:43Z</time>
      </trkpt>
      <trkpt lat="47.05825" lon="6.40472">
        <ele>831.2</ele>
        <time>2026-05-13T10:53:49Z</time>
      </trkpt>
      <trkpt lat="47.05831" lon="6.40489">
        <ele>831.8</ele>
        <time>2026-05-13T10:53:52Z</time>
      </trkpt>
      <trkpt lat="47.05838" lon="6.4051">
        <ele>832.4</ele>
        <time>2026-05-13T10:53:56Z</time>
      </trkpt>
      <trkpt lat="47.05847" lon="6.40536">
        <ele>833.2</ele>
        <time>2026-05-13T10:54:01Z</time>
      </trkpt>
      <trkpt lat="47.05851" lon="6.40547">
        <ele>833.4</ele>
        <time>2026-05-13T10:54:03Z</time>
      </trkpt>
      <trkpt lat="47.05865" lon="6.40579">
        <ele>834.2</ele>
        <time>2026-05-13T10:54:09Z</time>
      </trkpt>
      <trkpt lat="47.05873" lon="6.40596">
        <ele>834.4</ele>
        <time>2026-05-13T10:54:12Z</time>
      </trkpt>
      <trkpt lat="47.05883" lon="6.40611">
        <ele>834.6</ele>
        <time>2026-05-13T10:54:15Z</time>
      </trkpt>
      <trkpt lat="47.05889" lon="6.4062">
        <ele>834.8</ele>
        <time>2026-05-13T10:54:17Z</time>
      </trkpt>
      <trkpt lat="47.05893" lon="6.40624">
        <ele>834.8</ele>
        <time>2026-05-13T10:54:18Z</time>
      </trkpt>
      <trkpt lat="47.05918" lon="6.40649">
        <ele>834.8</ele>
        <time>2026-05-13T10:54:24Z</time>
      </trkpt>
      <trkpt lat="47.0596" lon="6.40687">
        <ele>834.4</ele>
        <time>2026-05-13T10:54:34Z</time>
      </trkpt>
      <trkpt lat="47.05964" lon="6.4069">
        <ele>834.4</ele>
        <time>2026-05-13T10:54:35Z</time>
      </trkpt>
      <trkpt lat="47.05996" lon="6.4072">
        <ele>835.2</ele>
        <time>2026-05-13T10:54:44Z</time>
      </trkpt>
      <trkpt lat="47.05999" lon="6.40724">
        <ele>835.4</ele>
        <time>2026-05-13T10:54:45Z</time>
      </trkpt>
      <trkpt lat="47.06015" lon="6.4074">
        <ele>836.6</ele>
        <time>2026-05-13T10:54:50Z</time>
      </trkpt>
      <trkpt lat="47.06024" lon="6.40749">
        <ele>837.2</ele>
        <time>2026-05-13T10:54:53Z</time>
      </trkpt>
      <trkpt lat="47.0603" lon="6.40756">
        <ele>837.6</ele>
        <time>2026-05-13T10:54:55Z</time>
      </trkpt>
      <trkpt lat="47.06048" lon="6.40772">
        <ele>838.8</ele>
        <time>2026-05-13T10:55:00Z</time>
      </trkpt>
      <trkpt lat="47.06051" lon="6.40776">
        <ele>839</ele>
        <time>2026-05-13T10:55:01Z</time>
      </trkpt>
      <trkpt lat="47.06067" lon="6.40794">
        <ele>839.8</ele>
        <time>2026-05-13T10:55:06Z</time>
      </trkpt>
      <trkpt lat="47.06082" lon="6.40813">
        <ele>840.4</ele>
        <time>2026-05-13T10:55:11Z</time>
      </trkpt>
      <trkpt lat="47.06091" lon="6.40825">
        <ele>840.8</ele>
        <time>2026-05-13T10:55:14Z</time>
      </trkpt>
      <trkpt lat="47.06112" lon="6.40854">
        <ele>841.8</ele>
        <time>2026-05-13T10:55:21Z</time>
      </trkpt>
      <trkpt lat="47.06118" lon="6.40861">
        <ele>842</ele>
        <time>2026-05-13T10:55:23Z</time>
      </trkpt>
      <trkpt lat="47.06135" lon="6.40884">
        <ele>842.8</ele>
        <time>2026-05-13T10:55:29Z</time>
      </trkpt>
      <trkpt lat="47.06141" lon="6.40891">
        <ele>843.2</ele>
        <time>2026-05-13T10:55:31Z</time>
      </trkpt>
      <trkpt lat="47.06156" lon="6.40914">
        <ele>844.2</ele>
        <time>2026-05-13T10:55:37Z</time>
      </trkpt>
      <trkpt lat="47.06168" lon="6.40932">
        <ele>845.2</ele>
        <time>2026-05-13T10:55:42Z</time>
      </trkpt>
      <trkpt lat="47.06176" lon="6.40942">
        <ele>846</ele>
        <time>2026-05-13T10:55:45Z</time>
      </trkpt>
      <trkpt lat="47.0618" lon="6.40949">
        <ele>846.4</ele>
        <time>2026-05-13T10:55:47Z</time>
      </trkpt>
      <trkpt lat="47.06195" lon="6.4097">
        <ele>847.4</ele>
        <time>2026-05-13T10:55:53Z</time>
      </trkpt>
      <trkpt lat="47.06198" lon="6.40974">
        <ele>847.8</ele>
        <time>2026-05-13T10:55:54Z</time>
      </trkpt>
      <trkpt lat="47.06205" lon="6.40988">
        <ele>848.4</ele>
        <time>2026-05-13T10:55:57Z</time>
      </trkpt>
      <trkpt lat="47.06209" lon="6.40997">
        <ele>848.6</ele>
        <time>2026-05-13T10:55:59Z</time>
      </trkpt>
      <trkpt lat="47.06219" lon="6.41016">
        <ele>849</ele>
        <time>2026-05-13T10:56:03Z</time>
      </trkpt>
      <trkpt lat="47.06228" lon="6.41037">
        <ele>849.6</ele>
        <time>2026-05-13T10:56:07Z</time>
      </trkpt>
      <trkpt lat="47.06238" lon="6.41058">
        <ele>849.8</ele>
        <time>2026-05-13T10:56:12Z</time>
      </trkpt>
      <trkpt lat="47.0625" lon="6.41093">
        <ele>850.4</ele>
        <time>2026-05-13T10:56:17Z</time>
      </trkpt>
      <trkpt lat="47.06252" lon="6.41104">
        <ele>850.4</ele>
        <time>2026-05-13T10:56:19Z</time>
      </trkpt>
      <trkpt lat="47.06254" lon="6.41122">
        <ele>850.6</ele>
        <time>2026-05-13T10:56:22Z</time>
      </trkpt>
      <trkpt lat="47.06255" lon="6.41133">
        <ele>850.8</ele>
        <time>2026-05-13T10:56:24Z</time>
      </trkpt>
      <trkpt lat="47.06256" lon="6.41151">
        <ele>851.2</ele>
        <time>2026-05-13T10:56:27Z</time>
      </trkpt>
      <trkpt lat="47.06257" lon="6.41174">
        <ele>851.6</ele>
        <time>2026-05-13T10:56:31Z</time>
      </trkpt>
      <trkpt lat="47.06258" lon="6.41217">
        <ele>852.2</ele>
        <time>2026-05-13T10:56:38Z</time>
      </trkpt>
      <trkpt lat="47.06259" lon="6.41235">
        <ele>852.6</ele>
        <time>2026-05-13T10:56:41Z</time>
      </trkpt>
      <trkpt lat="47.0626" lon="6.41287">
        <ele>853.2</ele>
        <time>2026-05-13T10:56:49Z</time>
      </trkpt>
      <trkpt lat="47.06261" lon="6.41315">
        <ele>854</ele>
        <time>2026-05-13T10:56:54Z</time>
      </trkpt>
      <trkpt lat="47.0626" lon="6.41332">
        <ele>854.2</ele>
        <time>2026-05-13T10:56:57Z</time>
      </trkpt>
      <trkpt lat="47.06262" lon="6.41357">
        <ele>855</ele>
        <time>2026-05-13T10:57:02Z</time>
      </trkpt>
      <trkpt lat="47.06262" lon="6.41362">
        <ele>855.6</ele>
        <time>2026-05-13T10:57:03Z</time>
      </trkpt>
      <trkpt lat="47.06262" lon="6.41371">
        <ele>856.2</ele>
        <time>2026-05-13T10:57:05Z</time>
      </trkpt>
      <trkpt lat="47.06262" lon="6.41392">
        <ele>857</ele>
        <time>2026-05-13T10:57:09Z</time>
      </trkpt>
      <trkpt lat="47.06263" lon="6.41403">
        <ele>857.2</ele>
        <time>2026-05-13T10:57:11Z</time>
      </trkpt>
      <trkpt lat="47.06264" lon="6.41428">
        <ele>858.2</ele>
        <time>2026-05-13T10:57:16Z</time>
      </trkpt>
      <trkpt lat="47.06265" lon="6.41458">
        <ele>859.4</ele>
        <time>2026-05-13T10:57:22Z</time>
      </trkpt>
      <trkpt lat="47.06265" lon="6.41468">
        <ele>859.6</ele>
        <time>2026-05-13T10:57:24Z</time>
      </trkpt>
      <trkpt lat="47.06266" lon="6.41487">
        <ele>860.4</ele>
        <time>2026-05-13T10:57:28Z</time>
      </trkpt>
      <trkpt lat="47.06265" lon="6.41509">
        <ele>861.6</ele>
        <time>2026-05-13T10:57:32Z</time>
      </trkpt>
      <trkpt lat="47.06266" lon="6.41534">
        <ele>863</ele>
        <time>2026-05-13T10:57:37Z</time>
      </trkpt>
      <trkpt lat="47.06266" lon="6.41539">
        <ele>863.4</ele>
        <time>2026-05-13T10:57:39Z</time>
      </trkpt>
      <trkpt lat="47.06266" lon="6.41566">
        <ele>864.2</ele>
        <time>2026-05-13T10:57:43Z</time>
      </trkpt>
      <trkpt lat="47.06267" lon="6.41582">
        <ele>864.8</ele>
        <time>2026-05-13T10:57:46Z</time>
      </trkpt>
      <trkpt lat="47.06267" lon="6.41598">
        <ele>865.2</ele>
        <time>2026-05-13T10:57:49Z</time>
      </trkpt>
      <trkpt lat="47.06269" lon="6.41617">
        <ele>865.8</ele>
        <time>2026-05-13T10:57:53Z</time>
      </trkpt>
      <trkpt lat="47.0627" lon="6.41645">
        <ele>866.2</ele>
        <time>2026-05-13T10:57:58Z</time>
      </trkpt>
      <trkpt lat="47.06271" lon="6.41668">
        <ele>866.4</ele>
        <time>2026-05-13T10:58:02Z</time>
      </trkpt>
      <trkpt lat="47.06273" lon="6.41727">
        <ele>866.8</ele>
        <time>2026-05-13T10:58:12Z</time>
      </trkpt>
      <trkpt lat="47.06274" lon="6.41756">
        <ele>867.2</ele>
        <time>2026-05-13T10:58:17Z</time>
      </trkpt>
      <trkpt lat="47.06274" lon="6.4177">
        <ele>867.4</ele>
        <time>2026-05-13T10:58:19Z</time>
      </trkpt>
      <trkpt lat="47.06278" lon="6.41816">
        <ele>867.8</ele>
        <time>2026-05-13T10:58:27Z</time>
      </trkpt>
      <trkpt lat="47.06288" lon="6.41885">
        <ele>868</ele>
        <time>2026-05-13T10:58:38Z</time>
      </trkpt>
      <trkpt lat="47.06296" lon="6.41934">
        <ele>868.2</ele>
        <time>2026-05-13T10:58:46Z</time>
      </trkpt>
      <trkpt lat="47.06298" lon="6.41948">
        <ele>868.4</ele>
        <time>2026-05-13T10:58:48Z</time>
      </trkpt>
      <trkpt lat="47.06311" lon="6.42023">
        <ele>868.2</ele>
        <time>2026-05-13T10:58:59Z</time>
      </trkpt>
      <trkpt lat="47.06322" lon="6.42086">
        <ele>867.2</ele>
        <time>2026-05-13T10:59:07Z</time>
      </trkpt>
      <trkpt lat="47.06333" lon="6.42147">
        <ele>866.8</ele>
        <time>2026-05-13T10:59:16Z</time>
      </trkpt>
      <trkpt lat="47.06345" lon="6.42207">
        <ele>866.6</ele>
        <time>2026-05-13T10:59:25Z</time>
      </trkpt>
      <trkpt lat="47.06357" lon="6.42261">
        <ele>867.2</ele>
        <time>2026-05-13T10:59:34Z</time>
      </trkpt>
      <trkpt lat="47.06367" lon="6.42307">
        <ele>868.2</ele>
        <time>2026-05-13T10:59:42Z</time>
      </trkpt>
      <trkpt lat="47.06369" lon="6.42316">
        <ele>868.4</ele>
        <time>2026-05-13T10:59:44Z</time>
      </trkpt>
      <trkpt lat="47.06375" lon="6.42345">
        <ele>868.8</ele>
        <time>2026-05-13T10:59:50Z</time>
      </trkpt>
      <trkpt lat="47.06378" lon="6.42358">
        <ele>869.4</ele>
        <time>2026-05-13T10:59:53Z</time>
      </trkpt>
      <trkpt lat="47.0638" lon="6.42368">
        <ele>869.6</ele>
        <time>2026-05-13T10:59:55Z</time>
      </trkpt>
      <trkpt lat="47.06383" lon="6.42386">
        <ele>870.4</ele>
        <time>2026-05-13T10:59:59Z</time>
      </trkpt>
      <trkpt lat="47.06393" lon="6.42428">
        <ele>871.6</ele>
        <time>2026-05-13T11:00:08Z</time>
      </trkpt>
      <trkpt lat="47.06394" lon="6.42434">
        <ele>871.8</ele>
        <time>2026-05-13T11:00:09Z</time>
      </trkpt>
      <trkpt lat="47.06401" lon="6.42467">
        <ele>872.6</ele>
        <time>2026-05-13T11:00:16Z</time>
      </trkpt>
      <trkpt lat="47.06406" lon="6.42485">
        <ele>873.2</ele>
        <time>2026-05-13T11:00:20Z</time>
      </trkpt>
      <trkpt lat="47.06411" lon="6.42508">
        <ele>873.8</ele>
        <time>2026-05-13T11:00:25Z</time>
      </trkpt>
      <trkpt lat="47.06417" lon="6.42531">
        <ele>874.6</ele>
        <time>2026-05-13T11:00:30Z</time>
      </trkpt>
      <trkpt lat="47.06419" lon="6.42544">
        <ele>875</ele>
        <time>2026-05-13T11:00:33Z</time>
      </trkpt>
      <trkpt lat="47.06424" lon="6.42562">
        <ele>875.8</ele>
        <time>2026-05-13T11:00:37Z</time>
      </trkpt>
      <trkpt lat="47.06425" lon="6.42566">
        <ele>876</ele>
        <time>2026-05-13T11:00:38Z</time>
      </trkpt>
      <trkpt lat="47.06432" lon="6.426">
        <ele>877.2</ele>
        <time>2026-05-13T11:00:45Z</time>
      </trkpt>
      <trkpt lat="47.06433" lon="6.42605">
        <ele>877.2</ele>
        <time>2026-05-13T11:00:46Z</time>
      </trkpt>
      <trkpt lat="47.06438" lon="6.42635">
        <ele>878.2</ele>
        <time>2026-05-13T11:00:52Z</time>
      </trkpt>
      <trkpt lat="47.06442" lon="6.42654">
        <ele>878.8</ele>
        <time>2026-05-13T11:00:56Z</time>
      </trkpt>
      <trkpt lat="47.06444" lon="6.42664">
        <ele>879.2</ele>
        <time>2026-05-13T11:00:58Z</time>
      </trkpt>
      <trkpt lat="47.0645" lon="6.42693">
        <ele>880.2</ele>
        <time>2026-05-13T11:01:05Z</time>
      </trkpt>
      <trkpt lat="47.06452" lon="6.42704">
        <ele>880.4</ele>
        <time>2026-05-13T11:01:06Z</time>
      </trkpt>
      <trkpt lat="47.06461" lon="6.42743">
        <ele>881.4</ele>
        <time>2026-05-13T11:01:14Z</time>
      </trkpt>
      <trkpt lat="47.06463" lon="6.42748">
        <ele>881.6</ele>
        <time>2026-05-13T11:01:15Z</time>
      </trkpt>
      <trkpt lat="47.06471" lon="6.42786">
        <ele>882.4</ele>
        <time>2026-05-13T11:01:23Z</time>
      </trkpt>
      <trkpt lat="47.06472" lon="6.42791">
        <ele>882.4</ele>
        <time>2026-05-13T11:01:24Z</time>
      </trkpt>
      <trkpt lat="47.0648" lon="6.42824">
        <ele>883.6</ele>
        <time>2026-05-13T11:01:31Z</time>
      </trkpt>
      <trkpt lat="47.06482" lon="6.42837">
        <ele>884</ele>
        <time>2026-05-13T11:01:34Z</time>
      </trkpt>
      <trkpt lat="47.06488" lon="6.42861">
        <ele>884.6</ele>
        <time>2026-05-13T11:01:40Z</time>
      </trkpt>
      <trkpt lat="47.06494" lon="6.42887">
        <ele>885.8</ele>
        <time>2026-05-13T11:01:46Z</time>
      </trkpt>
      <trkpt lat="47.06495" lon="6.42892">
        <ele>886</ele>
        <time>2026-05-13T11:01:47Z</time>
      </trkpt>
      <trkpt lat="47.065" lon="6.42915">
        <ele>886.8</ele>
        <time>2026-05-13T11:01:52Z</time>
      </trkpt>
      <trkpt lat="47.06503" lon="6.42924">
        <ele>887.2</ele>
        <time>2026-05-13T11:01:54Z</time>
      </trkpt>
      <trkpt lat="47.06506" lon="6.42941">
        <ele>888</ele>
        <time>2026-05-13T11:01:58Z</time>
      </trkpt>
      <trkpt lat="47.0651" lon="6.42954">
        <ele>888.2</ele>
        <time>2026-05-13T11:02:01Z</time>
      </trkpt>
      <trkpt lat="47.06515" lon="6.42983">
        <ele>889.2</ele>
        <time>2026-05-13T11:02:07Z</time>
      </trkpt>
      <trkpt lat="47.06521" lon="6.43014">
        <ele>890.2</ele>
        <time>2026-05-13T11:02:14Z</time>
      </trkpt>
      <trkpt lat="47.06531" lon="6.4306">
        <ele>891.2</ele>
        <time>2026-05-13T11:02:24Z</time>
      </trkpt>
      <trkpt lat="47.06532" lon="6.43064">
        <ele>891.4</ele>
        <time>2026-05-13T11:02:25Z</time>
      </trkpt>
      <trkpt lat="47.0654" lon="6.431">
        <ele>892.2</ele>
        <time>2026-05-13T11:02:32Z</time>
      </trkpt>
      <trkpt lat="47.06542" lon="6.43104">
        <ele>892.2</ele>
        <time>2026-05-13T11:02:33Z</time>
      </trkpt>
      <trkpt lat="47.06543" lon="6.43109">
        <ele>892.2</ele>
        <time>2026-05-13T11:02:34Z</time>
      </trkpt>
      <trkpt lat="47.06549" lon="6.4314">
        <ele>892.6</ele>
        <time>2026-05-13T11:02:40Z</time>
      </trkpt>
      <trkpt lat="47.06558" lon="6.43178">
        <ele>893.4</ele>
        <time>2026-05-13T11:02:48Z</time>
      </trkpt>
      <trkpt lat="47.0656" lon="6.43188">
        <ele>893.4</ele>
        <time>2026-05-13T11:02:50Z</time>
      </trkpt>
      <trkpt lat="47.06569" lon="6.43226">
        <ele>894.2</ele>
        <time>2026-05-13T11:02:58Z</time>
      </trkpt>
      <trkpt lat="47.0657" lon="6.43231">
        <ele>894.4</ele>
        <time>2026-05-13T11:02:59Z</time>
      </trkpt>
      <trkpt lat="47.06577" lon="6.43264">
        <ele>895</ele>
        <time>2026-05-13T11:03:05Z</time>
      </trkpt>
      <trkpt lat="47.06584" lon="6.43302">
        <ele>895.2</ele>
        <time>2026-05-13T11:03:13Z</time>
      </trkpt>
      <trkpt lat="47.06587" lon="6.43323">
        <ele>895.4</ele>
        <time>2026-05-13T11:03:17Z</time>
      </trkpt>
      <trkpt lat="47.06588" lon="6.43333">
        <ele>895.8</ele>
        <time>2026-05-13T11:03:19Z</time>
      </trkpt>
      <trkpt lat="47.06594" lon="6.43364">
        <ele>896.4</ele>
        <time>2026-05-13T11:03:25Z</time>
      </trkpt>
      <trkpt lat="47.06595" lon="6.43368">
        <ele>896.6</ele>
        <time>2026-05-13T11:03:26Z</time>
      </trkpt>
      <trkpt lat="47.06599" lon="6.43389">
        <ele>896.8</ele>
        <time>2026-05-13T11:03:30Z</time>
      </trkpt>
      <trkpt lat="47.066" lon="6.43398">
        <ele>897</ele>
        <time>2026-05-13T11:03:32Z</time>
      </trkpt>
      <trkpt lat="47.0661" lon="6.43437">
        <ele>897.6</ele>
        <time>2026-05-13T11:03:39Z</time>
      </trkpt>
      <trkpt lat="47.06619" lon="6.43466">
        <ele>897.6</ele>
        <time>2026-05-13T11:03:44Z</time>
      </trkpt>
      <trkpt lat="47.0662" lon="6.43471">
        <ele>897.6</ele>
        <time>2026-05-13T11:03:45Z</time>
      </trkpt>
      <trkpt lat="47.06633" lon="6.43507">
        <ele>897.8</ele>
        <time>2026-05-13T11:03:52Z</time>
      </trkpt>
      <trkpt lat="47.06645" lon="6.43543">
        <ele>898.4</ele>
        <time>2026-05-13T11:03:59Z</time>
      </trkpt>
      <trkpt lat="47.06646" lon="6.43548">
        <ele>898.6</ele>
        <time>2026-05-13T11:04:00Z</time>
      </trkpt>
      <trkpt lat="47.06659" lon="6.43591">
        <ele>899.6</ele>
        <time>2026-05-13T11:04:09Z</time>
      </trkpt>
      <trkpt lat="47.0667" lon="6.43632">
        <ele>899.8</ele>
        <time>2026-05-13T11:04:17Z</time>
      </trkpt>
      <trkpt lat="47.06679" lon="6.43659">
        <ele>900</ele>
        <time>2026-05-13T11:04:24Z</time>
      </trkpt>
      <trkpt lat="47.0669" lon="6.43698">
        <ele>900.6</ele>
        <time>2026-05-13T11:04:31Z</time>
      </trkpt>
      <trkpt lat="47.06691" lon="6.43701">
        <ele>900.8</ele>
        <time>2026-05-13T11:04:32Z</time>
      </trkpt>
      <trkpt lat="47.06699" lon="6.43736">
        <ele>901.8</ele>
        <time>2026-05-13T11:04:39Z</time>
      </trkpt>
      <trkpt lat="47.067" lon="6.43741">
        <ele>901.8</ele>
        <time>2026-05-13T11:04:40Z</time>
      </trkpt>
      <trkpt lat="47.06714" lon="6.4379">
        <ele>902.8</ele>
        <time>2026-05-13T11:04:50Z</time>
      </trkpt>
      <trkpt lat="47.06726" lon="6.43831">
        <ele>902.6</ele>
        <time>2026-05-13T11:04:58Z</time>
      </trkpt>
      <trkpt lat="47.06738" lon="6.43872">
        <ele>902.4</ele>
        <time>2026-05-13T11:05:06Z</time>
      </trkpt>
      <trkpt lat="47.06751" lon="6.43916">
        <ele>902.8</ele>
        <time>2026-05-13T11:05:15Z</time>
      </trkpt>
      <trkpt lat="47.06752" lon="6.43921">
        <ele>903</ele>
        <time>2026-05-13T11:05:16Z</time>
      </trkpt>
      <trkpt lat="47.06762" lon="6.43957">
        <ele>904</ele>
        <time>2026-05-13T11:05:23Z</time>
      </trkpt>
      <trkpt lat="47.06767" lon="6.43975">
        <ele>904.4</ele>
        <time>2026-05-13T11:05:27Z</time>
      </trkpt>
      <trkpt lat="47.0678" lon="6.44021">
        <ele>905</ele>
        <time>2026-05-13T11:05:36Z</time>
      </trkpt>
      <trkpt lat="47.06795" lon="6.4406">
        <ele>906</ele>
        <time>2026-05-13T11:05:44Z</time>
      </trkpt>
      <trkpt lat="47.06809" lon="6.44093">
        <ele>906</ele>
        <time>2026-05-13T11:05:51Z</time>
      </trkpt>
      <trkpt lat="47.06821" lon="6.44115">
        <ele>906</ele>
        <time>2026-05-13T11:05:56Z</time>
      </trkpt>
      <trkpt lat="47.06827" lon="6.44127">
        <ele>906.4</ele>
        <time>2026-05-13T11:05:59Z</time>
      </trkpt>
      <trkpt lat="47.06844" lon="6.44158">
        <ele>907</ele>
        <time>2026-05-13T11:06:06Z</time>
      </trkpt>
      <trkpt lat="47.06847" lon="6.44162">
        <ele>907.2</ele>
        <time>2026-05-13T11:06:07Z</time>
      </trkpt>
      <trkpt lat="47.06866" lon="6.44195">
        <ele>907.4</ele>
        <time>2026-05-13T11:06:14Z</time>
      </trkpt>
      <trkpt lat="47.06884" lon="6.44234">
        <ele>907.2</ele>
        <time>2026-05-13T11:06:21Z</time>
      </trkpt>
      <trkpt lat="47.06894" lon="6.44275">
        <ele>906.6</ele>
        <time>2026-05-13T11:06:26Z</time>
      </trkpt>
      <trkpt lat="47.06898" lon="6.4431">
        <ele>905.8</ele>
        <time>2026-05-13T11:06:30Z</time>
      </trkpt>
      <trkpt lat="47.069" lon="6.44334">
        <ele>905.6</ele>
        <time>2026-05-13T11:06:33Z</time>
      </trkpt>
      <trkpt lat="47.06901" lon="6.44343">
        <ele>905.6</ele>
        <time>2026-05-13T11:06:34Z</time>
      </trkpt>
      <trkpt lat="47.06902" lon="6.44351">
        <ele>905.4</ele>
        <time>2026-05-13T11:06:35Z</time>
      </trkpt>
      <trkpt lat="47.06905" lon="6.44384">
        <ele>905.2</ele>
        <time>2026-05-13T11:06:39Z</time>
      </trkpt>
      <trkpt lat="47.06908" lon="6.444">
        <ele>905</ele>
        <time>2026-05-13T11:06:41Z</time>
      </trkpt>
      <trkpt lat="47.0691" lon="6.44411">
        <ele>904.8</ele>
        <time>2026-05-13T11:06:42Z</time>
      </trkpt>
      <trkpt lat="47.06917" lon="6.44429">
        <ele>904.4</ele>
        <time>2026-05-13T11:06:44Z</time>
      </trkpt>
      <trkpt lat="47.06939" lon="6.44478">
        <ele>904</ele>
        <time>2026-05-13T11:06:50Z</time>
      </trkpt>
      <trkpt lat="47.06946" lon="6.44496">
        <ele>903.6</ele>
        <time>2026-05-13T11:06:52Z</time>
      </trkpt>
      <trkpt lat="47.06955" lon="6.4453">
        <ele>903.6</ele>
        <time>2026-05-13T11:06:56Z</time>
      </trkpt>
      <trkpt lat="47.0697" lon="6.44588">
        <ele>903.6</ele>
        <time>2026-05-13T11:07:03Z</time>
      </trkpt>
      <trkpt lat="47.06987" lon="6.44652">
        <ele>903.6</ele>
        <time>2026-05-13T11:07:11Z</time>
      </trkpt>
      <trkpt lat="47.07014" lon="6.44709">
        <ele>903.6</ele>
        <time>2026-05-13T11:07:19Z</time>
      </trkpt>
      <trkpt lat="47.07035" lon="6.44749">
        <ele>903.4</ele>
        <time>2026-05-13T11:07:24Z</time>
      </trkpt>
      <trkpt lat="47.0705" lon="6.44777">
        <ele>902.6</ele>
        <time>2026-05-13T11:07:27Z</time>
      </trkpt>
      <trkpt lat="47.07067" lon="6.44809">
        <ele>901.4</ele>
        <time>2026-05-13T11:07:30Z</time>
      </trkpt>
      <trkpt lat="47.07073" lon="6.44819">
        <ele>900.8</ele>
        <time>2026-05-13T11:07:31Z</time>
      </trkpt>
      <trkpt lat="47.07086" lon="6.44835">
        <ele>900.2</ele>
        <time>2026-05-13T11:07:33Z</time>
      </trkpt>
      <trkpt lat="47.07095" lon="6.44844">
        <ele>900</ele>
        <time>2026-05-13T11:07:34Z</time>
      </trkpt>
      <trkpt lat="47.07118" lon="6.44863">
        <ele>899</ele>
        <time>2026-05-13T11:07:37Z</time>
      </trkpt>
      <trkpt lat="47.07134" lon="6.44877">
        <ele>898.6</ele>
        <time>2026-05-13T11:07:39Z</time>
      </trkpt>
      <trkpt lat="47.07142" lon="6.44886">
        <ele>898.2</ele>
        <time>2026-05-13T11:07:40Z</time>
      </trkpt>
      <trkpt lat="47.07149" lon="6.44895">
        <ele>897.6</ele>
        <time>2026-05-13T11:07:41Z</time>
      </trkpt>
      <trkpt lat="47.07176" lon="6.44938">
        <ele>896</ele>
        <time>2026-05-13T11:07:45Z</time>
      </trkpt>
      <trkpt lat="47.07199" lon="6.44995">
        <ele>894.8</ele>
        <time>2026-05-13T11:07:50Z</time>
      </trkpt>
      <trkpt lat="47.07203" lon="6.45005">
        <ele>894.6</ele>
        <time>2026-05-13T11:07:51Z</time>
      </trkpt>
      <trkpt lat="47.07216" lon="6.45042">
        <ele>893.6</ele>
        <time>2026-05-13T11:07:54Z</time>
      </trkpt>
      <trkpt lat="47.07227" lon="6.45063">
        <ele>893</ele>
        <time>2026-05-13T11:07:56Z</time>
      </trkpt>
      <trkpt lat="47.0724" lon="6.45081">
        <ele>892.6</ele>
        <time>2026-05-13T11:07:58Z</time>
      </trkpt>
      <trkpt lat="47.07249" lon="6.45087">
        <ele>892.4</ele>
        <time>2026-05-13T11:07:59Z</time>
      </trkpt>
      <trkpt lat="47.07275" lon="6.45101">
        <ele>890.8</ele>
        <time>2026-05-13T11:08:02Z</time>
      </trkpt>
      <trkpt lat="47.07283" lon="6.45104">
        <ele>890.2</ele>
        <time>2026-05-13T11:08:03Z</time>
      </trkpt>
      <trkpt lat="47.07302" lon="6.45111">
        <ele>889.6</ele>
        <time>2026-05-13T11:08:05Z</time>
      </trkpt>
      <trkpt lat="47.07329" lon="6.45122">
        <ele>887.8</ele>
        <time>2026-05-13T11:08:08Z</time>
      </trkpt>
      <trkpt lat="47.07347" lon="6.4513">
        <ele>886.6</ele>
        <time>2026-05-13T11:08:10Z</time>
      </trkpt>
      <trkpt lat="47.07365" lon="6.45144">
        <ele>885.2</ele>
        <time>2026-05-13T11:08:12Z</time>
      </trkpt>
      <trkpt lat="47.0738" lon="6.45158">
        <ele>884.6</ele>
        <time>2026-05-13T11:08:14Z</time>
      </trkpt>
      <trkpt lat="47.07385" lon="6.45164">
        <ele>883.8</ele>
        <time>2026-05-13T11:08:15Z</time>
      </trkpt>
      <trkpt lat="47.07406" lon="6.45188">
        <ele>882.8</ele>
        <time>2026-05-13T11:08:18Z</time>
      </trkpt>
      <trkpt lat="47.07419" lon="6.45199">
        <ele>882.2</ele>
        <time>2026-05-13T11:08:20Z</time>
      </trkpt>
      <trkpt lat="47.07426" lon="6.45204">
        <ele>882</ele>
        <time>2026-05-13T11:08:21Z</time>
      </trkpt>
      <trkpt lat="47.07435" lon="6.45209">
        <ele>881.6</ele>
        <time>2026-05-13T11:08:22Z</time>
      </trkpt>
      <trkpt lat="47.07443" lon="6.45212">
        <ele>881.6</ele>
        <time>2026-05-13T11:08:23Z</time>
      </trkpt>
      <trkpt lat="47.07451" lon="6.45214">
        <ele>881.2</ele>
        <time>2026-05-13T11:08:24Z</time>
      </trkpt>
      <trkpt lat="47.07477" lon="6.45217">
        <ele>880.6</ele>
        <time>2026-05-13T11:08:27Z</time>
      </trkpt>
      <trkpt lat="47.07509" lon="6.45221">
        <ele>880</ele>
        <time>2026-05-13T11:08:31Z</time>
      </trkpt>
      <trkpt lat="47.07526" lon="6.45223">
        <ele>879.8</ele>
        <time>2026-05-13T11:08:33Z</time>
      </trkpt>
      <trkpt lat="47.07533" lon="6.45224">
        <ele>879.4</ele>
        <time>2026-05-13T11:08:34Z</time>
      </trkpt>
      <trkpt lat="47.07559" lon="6.45234">
        <ele>878.6</ele>
        <time>2026-05-13T11:08:37Z</time>
      </trkpt>
      <trkpt lat="47.07574" lon="6.45241">
        <ele>878.4</ele>
        <time>2026-05-13T11:08:39Z</time>
      </trkpt>
      <trkpt lat="47.07619" lon="6.45263">
        <ele>877.6</ele>
        <time>2026-05-13T11:08:45Z</time>
      </trkpt>
      <trkpt lat="47.07637" lon="6.45272">
        <ele>877.2</ele>
        <time>2026-05-13T11:08:47Z</time>
      </trkpt>
      <trkpt lat="47.07672" lon="6.45289">
        <ele>875.8</ele>
        <time>2026-05-13T11:08:51Z</time>
      </trkpt>
      <trkpt lat="47.07691" lon="6.45298">
        <ele>874.6</ele>
        <time>2026-05-13T11:08:53Z</time>
      </trkpt>
      <trkpt lat="47.07711" lon="6.45307">
        <ele>873.4</ele>
        <time>2026-05-13T11:08:55Z</time>
      </trkpt>
      <trkpt lat="47.07729" lon="6.45316">
        <ele>872</ele>
        <time>2026-05-13T11:08:57Z</time>
      </trkpt>
      <trkpt lat="47.07759" lon="6.45328">
        <ele>871</ele>
        <time>2026-05-13T11:09:00Z</time>
      </trkpt>
      <trkpt lat="47.0777" lon="6.4533">
        <ele>870.6</ele>
        <time>2026-05-13T11:09:01Z</time>
      </trkpt>
      <trkpt lat="47.07779" lon="6.4533">
        <ele>869.8</ele>
        <time>2026-05-13T11:09:02Z</time>
      </trkpt>
      <trkpt lat="47.0779" lon="6.4533">
        <ele>869.6</ele>
        <time>2026-05-13T11:09:03Z</time>
      </trkpt>
      <trkpt lat="47.07814" lon="6.45326">
        <ele>868.4</ele>
        <time>2026-05-13T11:09:05Z</time>
      </trkpt>
      <trkpt lat="47.07833" lon="6.45326">
        <ele>867.4</ele>
        <time>2026-05-13T11:09:07Z</time>
      </trkpt>
      <trkpt lat="47.07844" lon="6.45326">
        <ele>867.2</ele>
        <time>2026-05-13T11:09:08Z</time>
      </trkpt>
      <trkpt lat="47.07866" lon="6.45333">
        <ele>866.6</ele>
        <time>2026-05-13T11:09:10Z</time>
      </trkpt>
      <trkpt lat="47.07875" lon="6.45337">
        <ele>866</ele>
        <time>2026-05-13T11:09:11Z</time>
      </trkpt>
      <trkpt lat="47.07893" lon="6.45347">
        <ele>865</ele>
        <time>2026-05-13T11:09:13Z</time>
      </trkpt>
      <trkpt lat="47.0791" lon="6.45356">
        <ele>864.2</ele>
        <time>2026-05-13T11:09:15Z</time>
      </trkpt>
      <trkpt lat="47.07917" lon="6.45359">
        <ele>863.6</ele>
        <time>2026-05-13T11:09:16Z</time>
      </trkpt>
      <trkpt lat="47.07937" lon="6.45364">
        <ele>863</ele>
        <time>2026-05-13T11:09:18Z</time>
      </trkpt>
      <trkpt lat="47.07955" lon="6.45365">
        <ele>862.6</ele>
        <time>2026-05-13T11:09:20Z</time>
      </trkpt>
      <trkpt lat="47.07964" lon="6.45365">
        <ele>862.4</ele>
        <time>2026-05-13T11:09:21Z</time>
      </trkpt>
      <trkpt lat="47.07999" lon="6.4536">
        <ele>861.2</ele>
        <time>2026-05-13T11:09:25Z</time>
      </trkpt>
      <trkpt lat="47.08017" lon="6.45356">
        <ele>860.4</ele>
        <time>2026-05-13T11:09:27Z</time>
      </trkpt>
      <trkpt lat="47.08026" lon="6.45354">
        <ele>860</ele>
        <time>2026-05-13T11:09:28Z</time>
      </trkpt>
      <trkpt lat="47.08087" lon="6.45345">
        <ele>859</ele>
        <time>2026-05-13T11:09:35Z</time>
      </trkpt>
      <trkpt lat="47.08138" lon="6.45346">
        <ele>858.6</ele>
        <time>2026-05-13T11:09:41Z</time>
      </trkpt>
      <trkpt lat="47.08178" lon="6.45352">
        <ele>858</ele>
        <time>2026-05-13T11:09:46Z</time>
      </trkpt>
      <trkpt lat="47.08195" lon="6.45355">
        <ele>857.6</ele>
        <time>2026-05-13T11:09:48Z</time>
      </trkpt>
      <trkpt lat="47.0822" lon="6.45359">
        <ele>856.8</ele>
        <time>2026-05-13T11:09:51Z</time>
      </trkpt>
      <trkpt lat="47.08254" lon="6.45366">
        <ele>856</ele>
        <time>2026-05-13T11:09:55Z</time>
      </trkpt>
      <trkpt lat="47.08262" lon="6.45367">
        <ele>855.6</ele>
        <time>2026-05-13T11:09:56Z</time>
      </trkpt>
      <trkpt lat="47.08306" lon="6.45375">
        <ele>854.4</ele>
        <time>2026-05-13T11:10:01Z</time>
      </trkpt>
      <trkpt lat="47.08333" lon="6.4538">
        <ele>854</ele>
        <time>2026-05-13T11:10:04Z</time>
      </trkpt>
      <trkpt lat="47.0836" lon="6.45386">
        <ele>853.4</ele>
        <time>2026-05-13T11:10:07Z</time>
      </trkpt>
      <trkpt lat="47.08392" lon="6.45391">
        <ele>852.2</ele>
        <time>2026-05-13T11:10:11Z</time>
      </trkpt>
      <trkpt lat="47.084" lon="6.45392">
        <ele>852.2</ele>
        <time>2026-05-13T11:10:12Z</time>
      </trkpt>
      <trkpt lat="47.08432" lon="6.45409">
        <ele>852</ele>
        <time>2026-05-13T11:10:17Z</time>
      </trkpt>
      <trkpt lat="47.08442" lon="6.45419">
        <ele>852</ele>
        <time>2026-05-13T11:10:19Z</time>
      </trkpt>
      <trkpt lat="47.0845" lon="6.4543">
        <ele>852.2</ele>
        <time>2026-05-13T11:10:21Z</time>
      </trkpt>
      <trkpt lat="47.08472" lon="6.45466">
        <ele>853.2</ele>
        <time>2026-05-13T11:10:27Z</time>
      </trkpt>
      <trkpt lat="47.08481" lon="6.4548">
        <ele>853.2</ele>
        <time>2026-05-13T11:10:29Z</time>
      </trkpt>
      <trkpt lat="47.08485" lon="6.45487">
        <ele>853.2</ele>
        <time>2026-05-13T11:10:30Z</time>
      </trkpt>
      <trkpt lat="47.08497" lon="6.45508">
        <ele>853.2</ele>
        <time>2026-05-13T11:10:33Z</time>
      </trkpt>
      <trkpt lat="47.08525" lon="6.45555">
        <ele>852.6</ele>
        <time>2026-05-13T11:10:40Z</time>
      </trkpt>
      <trkpt lat="47.08539" lon="6.45579">
        <ele>852</ele>
        <time>2026-05-13T11:10:43Z</time>
      </trkpt>
      <trkpt lat="47.08563" lon="6.45617">
        <ele>851</ele>
        <time>2026-05-13T11:10:48Z</time>
      </trkpt>
      <trkpt lat="47.08594" lon="6.45662">
        <ele>850</ele>
        <time>2026-05-13T11:10:54Z</time>
      </trkpt>
      <trkpt lat="47.086" lon="6.4567">
        <ele>850</ele>
        <time>2026-05-13T11:10:55Z</time>
      </trkpt>
      <trkpt lat="47.08629" lon="6.45709">
        <ele>849</ele>
        <time>2026-05-13T11:11:00Z</time>
      </trkpt>
      <trkpt lat="47.08634" lon="6.45719">
        <ele>848.8</ele>
        <time>2026-05-13T11:11:01Z</time>
      </trkpt>
      <trkpt lat="47.08635" lon="6.45728">
        <ele>848.6</ele>
        <time>2026-05-13T11:11:02Z</time>
      </trkpt>
      <trkpt lat="47.08635" lon="6.45743">
        <ele>848.4</ele>
        <time>2026-05-13T11:11:04Z</time>
      </trkpt>
      <trkpt lat="47.08626" lon="6.45758">
        <ele>848</ele>
        <time>2026-05-13T11:11:06Z</time>
      </trkpt>
      <trkpt lat="47.08621" lon="6.45763">
        <ele>847.8</ele>
        <time>2026-05-13T11:11:07Z</time>
      </trkpt>
      <trkpt lat="47.08616" lon="6.45769">
        <ele>847.8</ele>
        <time>2026-05-13T11:11:08Z</time>
      </trkpt>
      <trkpt lat="47.08606" lon="6.45789">
        <ele>847.4</ele>
        <time>2026-05-13T11:11:11Z</time>
      </trkpt>
      <trkpt lat="47.08603" lon="6.45805">
        <ele>847.2</ele>
        <time>2026-05-13T11:11:13Z</time>
      </trkpt>
      <trkpt lat="47.08602" lon="6.45812">
        <ele>847.2</ele>
        <time>2026-05-13T11:11:14Z</time>
      </trkpt>
      <trkpt lat="47.08603" lon="6.45822">
        <ele>847.2</ele>
        <time>2026-05-13T11:11:15Z</time>
      </trkpt>
      <trkpt lat="47.08606" lon="6.45838">
        <ele>847.2</ele>
        <time>2026-05-13T11:11:17Z</time>
      </trkpt>
      <trkpt lat="47.08608" lon="6.45844">
        <ele>847.2</ele>
        <time>2026-05-13T11:11:18Z</time>
      </trkpt>
      <trkpt lat="47.08618" lon="6.45869">
        <ele>846.8</ele>
        <time>2026-05-13T11:11:21Z</time>
      </trkpt>
      <trkpt lat="47.08632" lon="6.459">
        <ele>846.2</ele>
        <time>2026-05-13T11:11:25Z</time>
      </trkpt>
      <trkpt lat="47.0864" lon="6.45917">
        <ele>845.6</ele>
        <time>2026-05-13T11:11:27Z</time>
      </trkpt>
      <trkpt lat="47.08668" lon="6.4598">
        <ele>844.8</ele>
        <time>2026-05-13T11:11:34Z</time>
      </trkpt>
      <trkpt lat="47.08672" lon="6.45989">
        <ele>844.6</ele>
        <time>2026-05-13T11:11:35Z</time>
      </trkpt>
      <trkpt lat="47.08675" lon="6.45999">
        <ele>844.2</ele>
        <time>2026-05-13T11:11:36Z</time>
      </trkpt>
      <trkpt lat="47.08683" lon="6.4603">
        <ele>844</ele>
        <time>2026-05-13T11:11:39Z</time>
      </trkpt>
      <trkpt lat="47.08695" lon="6.46093">
        <ele>843.4</ele>
        <time>2026-05-13T11:11:45Z</time>
      </trkpt>
      <trkpt lat="47.08701" lon="6.46124">
        <ele>842.8</ele>
        <time>2026-05-13T11:11:48Z</time>
      </trkpt>
      <trkpt lat="47.08713" lon="6.46172">
        <ele>842.4</ele>
        <time>2026-05-13T11:11:53Z</time>
      </trkpt>
      <trkpt lat="47.08717" lon="6.46181">
        <ele>842.4</ele>
        <time>2026-05-13T11:11:54Z</time>
      </trkpt>
      <trkpt lat="47.08721" lon="6.4619">
        <ele>842.4</ele>
        <time>2026-05-13T11:11:55Z</time>
      </trkpt>
      <trkpt lat="47.08741" lon="6.46221">
        <ele>841.8</ele>
        <time>2026-05-13T11:11:59Z</time>
      </trkpt>
      <trkpt lat="47.08752" lon="6.46234">
        <ele>841.4</ele>
        <time>2026-05-13T11:12:01Z</time>
      </trkpt>
      <trkpt lat="47.0879" lon="6.46276">
        <ele>840.4</ele>
        <time>2026-05-13T11:12:07Z</time>
      </trkpt>
      <trkpt lat="47.08811" lon="6.46301">
        <ele>839.4</ele>
        <time>2026-05-13T11:12:10Z</time>
      </trkpt>
      <trkpt lat="47.08831" lon="6.46329">
        <ele>838.4</ele>
        <time>2026-05-13T11:12:13Z</time>
      </trkpt>
      <trkpt lat="47.08838" lon="6.46339">
        <ele>838.2</ele>
        <time>2026-05-13T11:12:14Z</time>
      </trkpt>
      <trkpt lat="47.08857" lon="6.46371">
        <ele>837</ele>
        <time>2026-05-13T11:12:17Z</time>
      </trkpt>
      <trkpt lat="47.08863" lon="6.46382">
        <ele>836.6</ele>
        <time>2026-05-13T11:12:18Z</time>
      </trkpt>
      <trkpt lat="47.08882" lon="6.46413">
        <ele>835.8</ele>
        <time>2026-05-13T11:12:21Z</time>
      </trkpt>
      <trkpt lat="47.08899" lon="6.46443">
        <ele>834.4</ele>
        <time>2026-05-13T11:12:24Z</time>
      </trkpt>
      <trkpt lat="47.08918" lon="6.46476">
        <ele>833.4</ele>
        <time>2026-05-13T11:12:27Z</time>
      </trkpt>
      <trkpt lat="47.08924" lon="6.46488">
        <ele>833</ele>
        <time>2026-05-13T11:12:28Z</time>
      </trkpt>
      <trkpt lat="47.08934" lon="6.46512">
        <ele>832</ele>
        <time>2026-05-13T11:12:30Z</time>
      </trkpt>
      <trkpt lat="47.08949" lon="6.46548">
        <ele>830.8</ele>
        <time>2026-05-13T11:12:33Z</time>
      </trkpt>
      <trkpt lat="47.08965" lon="6.466">
        <ele>829.8</ele>
        <time>2026-05-13T11:12:37Z</time>
      </trkpt>
      <trkpt lat="47.0897" lon="6.46623">
        <ele>829.2</ele>
        <time>2026-05-13T11:12:39Z</time>
      </trkpt>
      <trkpt lat="47.08972" lon="6.46639">
        <ele>828.4</ele>
        <time>2026-05-13T11:12:40Z</time>
      </trkpt>
      <trkpt lat="47.08979" lon="6.46679">
        <ele>827.4</ele>
        <time>2026-05-13T11:12:43Z</time>
      </trkpt>
      <trkpt lat="47.0899" lon="6.46718">
        <ele>826.4</ele>
        <time>2026-05-13T11:12:46Z</time>
      </trkpt>
      <trkpt lat="47.08994" lon="6.46728">
        <ele>826.2</ele>
        <time>2026-05-13T11:12:47Z</time>
      </trkpt>
      <trkpt lat="47.09" lon="6.46741">
        <ele>826</ele>
        <time>2026-05-13T11:12:48Z</time>
      </trkpt>
      <trkpt lat="47.09017" lon="6.46763">
        <ele>824.8</ele>
        <time>2026-05-13T11:12:50Z</time>
      </trkpt>
      <trkpt lat="47.09033" lon="6.46776">
        <ele>823.8</ele>
        <time>2026-05-13T11:12:52Z</time>
      </trkpt>
      <trkpt lat="47.09043" lon="6.46782">
        <ele>823.6</ele>
        <time>2026-05-13T11:12:53Z</time>
      </trkpt>
      <trkpt lat="47.09054" lon="6.46786">
        <ele>823.2</ele>
        <time>2026-05-13T11:12:54Z</time>
      </trkpt>
      <trkpt lat="47.09067" lon="6.4679">
        <ele>822.4</ele>
        <time>2026-05-13T11:12:55Z</time>
      </trkpt>
      <trkpt lat="47.09107" lon="6.46797">
        <ele>821.4</ele>
        <time>2026-05-13T11:12:59Z</time>
      </trkpt>
      <trkpt lat="47.09126" lon="6.46795">
        <ele>820.2</ele>
        <time>2026-05-13T11:13:01Z</time>
      </trkpt>
      <trkpt lat="47.09145" lon="6.4679">
        <ele>819.4</ele>
        <time>2026-05-13T11:13:03Z</time>
      </trkpt>
      <trkpt lat="47.09161" lon="6.46783">
        <ele>819</ele>
        <time>2026-05-13T11:13:05Z</time>
      </trkpt>
      <trkpt lat="47.09196" lon="6.46766">
        <ele>818.4</ele>
        <time>2026-05-13T11:13:09Z</time>
      </trkpt>
      <trkpt lat="47.09214" lon="6.4676">
        <ele>818</ele>
        <time>2026-05-13T11:13:11Z</time>
      </trkpt>
      <trkpt lat="47.09224" lon="6.46759">
        <ele>817.6</ele>
        <time>2026-05-13T11:13:12Z</time>
      </trkpt>
      <trkpt lat="47.09234" lon="6.46759">
        <ele>817.6</ele>
        <time>2026-05-13T11:13:13Z</time>
      </trkpt>
      <trkpt lat="47.09271" lon="6.46771">
        <ele>816.6</ele>
        <time>2026-05-13T11:13:17Z</time>
      </trkpt>
      <trkpt lat="47.09306" lon="6.46795">
        <ele>815.2</ele>
        <time>2026-05-13T11:13:21Z</time>
      </trkpt>
      <trkpt lat="47.09314" lon="6.46802">
        <ele>814.6</ele>
        <time>2026-05-13T11:13:22Z</time>
      </trkpt>
      <trkpt lat="47.0933" lon="6.46817">
        <ele>813.8</ele>
        <time>2026-05-13T11:13:24Z</time>
      </trkpt>
      <trkpt lat="47.09352" lon="6.46841">
        <ele>812.8</ele>
        <time>2026-05-13T11:13:27Z</time>
      </trkpt>
      <trkpt lat="47.09359" lon="6.46849">
        <ele>812.6</ele>
        <time>2026-05-13T11:13:28Z</time>
      </trkpt>
      <trkpt lat="47.09391" lon="6.46885">
        <ele>811.8</ele>
        <time>2026-05-13T11:13:33Z</time>
      </trkpt>
      <trkpt lat="47.09399" lon="6.46892">
        <ele>811.8</ele>
        <time>2026-05-13T11:13:34Z</time>
      </trkpt>
      <trkpt lat="47.09434" lon="6.46917">
        <ele>811.6</ele>
        <time>2026-05-13T11:13:39Z</time>
      </trkpt>
      <trkpt lat="47.09465" lon="6.46927">
        <ele>811.8</ele>
        <time>2026-05-13T11:13:43Z</time>
      </trkpt>
      <trkpt lat="47.0948" lon="6.46928">
        <ele>811.6</ele>
        <time>2026-05-13T11:13:45Z</time>
      </trkpt>
      <trkpt lat="47.09523" lon="6.46923">
        <ele>810.8</ele>
        <time>2026-05-13T11:13:50Z</time>
      </trkpt>
      <trkpt lat="47.09533" lon="6.46921">
        <ele>810.6</ele>
        <time>2026-05-13T11:13:51Z</time>
      </trkpt>
      <trkpt lat="47.09583" lon="6.46919">
        <ele>809.6</ele>
        <time>2026-05-13T11:13:57Z</time>
      </trkpt>
      <trkpt lat="47.09591" lon="6.4692">
        <ele>809.6</ele>
        <time>2026-05-13T11:13:58Z</time>
      </trkpt>
      <trkpt lat="47.09636" lon="6.46927">
        <ele>808.4</ele>
        <time>2026-05-13T11:14:04Z</time>
      </trkpt>
      <trkpt lat="47.09684" lon="6.46938">
        <ele>807</ele>
        <time>2026-05-13T11:14:10Z</time>
      </trkpt>
      <trkpt lat="47.09725" lon="6.46962">
        <ele>806.4</ele>
        <time>2026-05-13T11:14:16Z</time>
      </trkpt>
      <trkpt lat="47.0976" lon="6.46988">
        <ele>806.4</ele>
        <time>2026-05-13T11:14:22Z</time>
      </trkpt>
      <trkpt lat="47.09791" lon="6.47019">
        <ele>806.4</ele>
        <time>2026-05-13T11:14:28Z</time>
      </trkpt>
      <trkpt lat="47.09818" lon="6.47049">
        <ele>807</ele>
        <time>2026-05-13T11:14:34Z</time>
      </trkpt>
      <trkpt lat="47.09822" lon="6.47055">
        <ele>807</ele>
        <time>2026-05-13T11:14:35Z</time>
      </trkpt>
      <trkpt lat="47.0985" lon="6.4709">
        <ele>807.2</ele>
        <time>2026-05-13T11:14:41Z</time>
      </trkpt>
      <trkpt lat="47.09878" lon="6.47151">
        <ele>806.8</ele>
        <time>2026-05-13T11:14:49Z</time>
      </trkpt>
      <trkpt lat="47.0991" lon="6.47217">
        <ele>807.4</ele>
        <time>2026-05-13T11:14:58Z</time>
      </trkpt>
      <trkpt lat="47.09935" lon="6.47268">
        <ele>808.2</ele>
        <time>2026-05-13T11:15:05Z</time>
      </trkpt>
      <trkpt lat="47.09962" lon="6.47326">
        <ele>807.8</ele>
        <time>2026-05-13T11:15:12Z</time>
      </trkpt>
      <trkpt lat="47.09996" lon="6.474">
        <ele>806.8</ele>
        <time>2026-05-13T11:15:20Z</time>
      </trkpt>
      <trkpt lat="47.10013" lon="6.47437">
        <ele>806.2</ele>
        <time>2026-05-13T11:15:24Z</time>
      </trkpt>
      <trkpt lat="47.1002" lon="6.47458">
        <ele>805.6</ele>
        <time>2026-05-13T11:15:26Z</time>
      </trkpt>
      <trkpt lat="47.10031" lon="6.47489">
        <ele>805.2</ele>
        <time>2026-05-13T11:15:29Z</time>
      </trkpt>
      <trkpt lat="47.10043" lon="6.47534">
        <ele>804.4</ele>
        <time>2026-05-13T11:15:33Z</time>
      </trkpt>
      <trkpt lat="47.10047" lon="6.47557">
        <ele>804.2</ele>
        <time>2026-05-13T11:15:35Z</time>
      </trkpt>
      <trkpt lat="47.10048" lon="6.47569">
        <ele>804.2</ele>
        <time>2026-05-13T11:15:36Z</time>
      </trkpt>
      <trkpt lat="47.1005" lon="6.47592">
        <ele>804</ele>
        <time>2026-05-13T11:15:38Z</time>
      </trkpt>
      <trkpt lat="47.10058" lon="6.47667">
        <ele>803.4</ele>
        <time>2026-05-13T11:15:45Z</time>
      </trkpt>
      <trkpt lat="47.10062" lon="6.47692">
        <ele>803</ele>
        <time>2026-05-13T11:15:48Z</time>
      </trkpt>
      <trkpt lat="47.10065" lon="6.47708">
        <ele>803.2</ele>
        <time>2026-05-13T11:15:50Z</time>
      </trkpt>
      <trkpt lat="47.10076" lon="6.47771">
        <ele>804.2</ele>
        <time>2026-05-13T11:15:58Z</time>
      </trkpt>
      <trkpt lat="47.10091" lon="6.47856">
        <ele>805</ele>
        <time>2026-05-13T11:16:08Z</time>
      </trkpt>
      <trkpt lat="47.10107" lon="6.47917">
        <ele>805</ele>
        <time>2026-05-13T11:16:15Z</time>
      </trkpt>
      <trkpt lat="47.10132" lon="6.47984">
        <ele>804.8</ele>
        <time>2026-05-13T11:16:23Z</time>
      </trkpt>
      <trkpt lat="47.10154" lon="6.48058">
        <ele>803.6</ele>
        <time>2026-05-13T11:16:30Z</time>
      </trkpt>
      <trkpt lat="47.1016" lon="6.48082">
        <ele>803</ele>
        <time>2026-05-13T11:16:32Z</time>
      </trkpt>
      <trkpt lat="47.1017" lon="6.48121">
        <ele>802.4</ele>
        <time>2026-05-13T11:16:35Z</time>
      </trkpt>
      <trkpt lat="47.10176" lon="6.48146">
        <ele>801.8</ele>
        <time>2026-05-13T11:16:37Z</time>
      </trkpt>
      <trkpt lat="47.10187" lon="6.48188">
        <ele>800.4</ele>
        <time>2026-05-13T11:16:40Z</time>
      </trkpt>
      <trkpt lat="47.1019" lon="6.48202">
        <ele>800.2</ele>
        <time>2026-05-13T11:16:41Z</time>
      </trkpt>
      <trkpt lat="47.10201" lon="6.48239">
        <ele>799.4</ele>
        <time>2026-05-13T11:16:44Z</time>
      </trkpt>
      <trkpt lat="47.10214" lon="6.48274">
        <ele>799</ele>
        <time>2026-05-13T11:16:47Z</time>
      </trkpt>
      <trkpt lat="47.10245" lon="6.48351">
        <ele>798.6</ele>
        <time>2026-05-13T11:16:54Z</time>
      </trkpt>
      <trkpt lat="47.10252" lon="6.48372">
        <ele>798.6</ele>
        <time>2026-05-13T11:16:56Z</time>
      </trkpt>
      <trkpt lat="47.10279" lon="6.48453">
        <ele>798.4</ele>
        <time>2026-05-13T11:17:03Z</time>
      </trkpt>
      <trkpt lat="47.10287" lon="6.48475">
        <ele>798.4</ele>
        <time>2026-05-13T11:17:05Z</time>
      </trkpt>
      <trkpt lat="47.10291" lon="6.48486">
        <ele>798.2</ele>
        <time>2026-05-13T11:17:06Z</time>
      </trkpt>
      <trkpt lat="47.10324" lon="6.48562">
        <ele>798</ele>
        <time>2026-05-13T11:17:13Z</time>
      </trkpt>
      <trkpt lat="47.1036" lon="6.48636">
        <ele>797.8</ele>
        <time>2026-05-13T11:17:20Z</time>
      </trkpt>
      <trkpt lat="47.1039" lon="6.48688">
        <ele>797.4</ele>
        <time>2026-05-13T11:17:25Z</time>
      </trkpt>
      <trkpt lat="47.10414" lon="6.4873">
        <ele>796.8</ele>
        <time>2026-05-13T11:17:29Z</time>
      </trkpt>
      <trkpt lat="47.10431" lon="6.4876">
        <ele>796.4</ele>
        <time>2026-05-13T11:17:32Z</time>
      </trkpt>
      <trkpt lat="47.10447" lon="6.48789">
        <ele>796.2</ele>
        <time>2026-05-13T11:17:35Z</time>
      </trkpt>
      <trkpt lat="47.10473" lon="6.48852">
        <ele>796.6</ele>
        <time>2026-05-13T11:17:41Z</time>
      </trkpt>
      <trkpt lat="47.10499" lon="6.48933">
        <ele>796.2</ele>
        <time>2026-05-13T11:17:48Z</time>
      </trkpt>
      <trkpt lat="47.10526" lon="6.48998">
        <ele>795.6</ele>
        <time>2026-05-13T11:17:54Z</time>
      </trkpt>
      <trkpt lat="47.10558" lon="6.49066">
        <ele>795.4</ele>
        <time>2026-05-13T11:18:01Z</time>
      </trkpt>
      <trkpt lat="47.1059" lon="6.49135">
        <ele>795.8</ele>
        <time>2026-05-13T11:18:08Z</time>
      </trkpt>
      <trkpt lat="47.10599" lon="6.49154">
        <ele>796</ele>
        <time>2026-05-13T11:18:10Z</time>
      </trkpt>
      <trkpt lat="47.10627" lon="6.49217">
        <ele>796.4</ele>
        <time>2026-05-13T11:18:17Z</time>
      </trkpt>
      <trkpt lat="47.10649" lon="6.49277">
        <ele>796.6</ele>
        <time>2026-05-13T11:18:24Z</time>
      </trkpt>
      <trkpt lat="47.10665" lon="6.49323">
        <ele>797.6</ele>
        <time>2026-05-13T11:18:30Z</time>
      </trkpt>
      <trkpt lat="47.10668" lon="6.4933">
        <ele>797.8</ele>
        <time>2026-05-13T11:18:31Z</time>
      </trkpt>
      <trkpt lat="47.10673" lon="6.49344">
        <ele>798.2</ele>
        <time>2026-05-13T11:18:33Z</time>
      </trkpt>
      <trkpt lat="47.10676" lon="6.49354">
        <ele>798.6</ele>
        <time>2026-05-13T11:18:35Z</time>
      </trkpt>
      <trkpt lat="47.10677" lon="6.49359">
        <ele>798.6</ele>
        <time>2026-05-13T11:18:36Z</time>
      </trkpt>
      <trkpt lat="47.10676" lon="6.49363">
        <ele>798.8</ele>
        <time>2026-05-13T11:18:37Z</time>
      </trkpt>
      <trkpt lat="47.10674" lon="6.49367">
        <ele>798.8</ele>
        <time>2026-05-13T11:18:38Z</time>
      </trkpt>
      <trkpt lat="47.10668" lon="6.49375">
        <ele>798.8</ele>
        <time>2026-05-13T11:18:40Z</time>
      </trkpt>
      <trkpt lat="47.10662" lon="6.49386">
        <ele>798.8</ele>
        <time>2026-05-13T11:18:42Z</time>
      </trkpt>
      <trkpt lat="47.1066" lon="6.49391">
        <ele>798.8</ele>
        <time>2026-05-13T11:18:43Z</time>
      </trkpt>
      <trkpt lat="47.10649" lon="6.4941">
        <ele>798.8</ele>
        <time>2026-05-13T11:18:46Z</time>
      </trkpt>
      <trkpt lat="47.10645" lon="6.49416">
        <ele>798.6</ele>
        <time>2026-05-13T11:18:47Z</time>
      </trkpt>
      <trkpt lat="47.10637" lon="6.49428">
        <ele>798</ele>
        <time>2026-05-13T11:18:49Z</time>
      </trkpt>
      <trkpt lat="47.10629" lon="6.49442">
        <ele>797.6</ele>
        <time>2026-05-13T11:18:51Z</time>
      </trkpt>
      <trkpt lat="47.10618" lon="6.49462">
        <ele>797.2</ele>
        <time>2026-05-13T11:18:54Z</time>
      </trkpt>
      <trkpt lat="47.10602" lon="6.49486">
        <ele>796.6</ele>
        <time>2026-05-13T11:18:58Z</time>
      </trkpt>
      <trkpt lat="47.10599" lon="6.49491">
        <ele>796.6</ele>
        <time>2026-05-13T11:18:59Z</time>
      </trkpt>
      <trkpt lat="47.10597" lon="6.49496">
        <ele>796.4</ele>
        <time>2026-05-13T11:19:00Z</time>
      </trkpt>
      <trkpt lat="47.10593" lon="6.49506">
        <ele>796.4</ele>
        <time>2026-05-13T11:19:02Z</time>
      </trkpt>
      <trkpt lat="47.1059" lon="6.49527">
        <ele>796.2</ele>
        <time>2026-05-13T11:19:05Z</time>
      </trkpt>
      <trkpt lat="47.10591" lon="6.49562">
        <ele>796.2</ele>
        <time>2026-05-13T11:19:09Z</time>
      </trkpt>
      <trkpt lat="47.10598" lon="6.49625">
        <ele>795.6</ele>
        <time>2026-05-13T11:19:15Z</time>
      </trkpt>
      <trkpt lat="47.10599" lon="6.49636">
        <ele>795.4</ele>
        <time>2026-05-13T11:19:16Z</time>
      </trkpt>
      <trkpt lat="47.10602" lon="6.49666">
        <ele>794.4</ele>
        <time>2026-05-13T11:19:19Z</time>
      </trkpt>
      <trkpt lat="47.10602" lon="6.49675">
        <ele>794</ele>
        <time>2026-05-13T11:19:20Z</time>
      </trkpt>
      <trkpt lat="47.10601" lon="6.4969">
        <ele>793.2</ele>
        <time>2026-05-13T11:19:22Z</time>
      </trkpt>
      <trkpt lat="47.106" lon="6.49695">
        <ele>792.8</ele>
        <time>2026-05-13T11:19:23Z</time>
      </trkpt>
      <trkpt lat="47.10598" lon="6.49707">
        <ele>792</ele>
        <time>2026-05-13T11:19:25Z</time>
      </trkpt>
      <trkpt lat="47.10599" lon="6.49728">
        <ele>790.8</ele>
        <time>2026-05-13T11:19:28Z</time>
      </trkpt>
      <trkpt lat="47.10598" lon="6.49761">
        <ele>789.6</ele>
        <time>2026-05-13T11:19:32Z</time>
      </trkpt>
      <trkpt lat="47.10597" lon="6.49771">
        <ele>789</ele>
        <time>2026-05-13T11:19:33Z</time>
      </trkpt>
      <trkpt lat="47.10598" lon="6.49789">
        <ele>788.6</ele>
        <time>2026-05-13T11:19:35Z</time>
      </trkpt>
      <trkpt lat="47.10603" lon="6.49825">
        <ele>787.8</ele>
        <time>2026-05-13T11:19:39Z</time>
      </trkpt>
      <trkpt lat="47.10605" lon="6.49835">
        <ele>787.4</ele>
        <time>2026-05-13T11:19:40Z</time>
      </trkpt>
      <trkpt lat="47.10616" lon="6.49866">
        <ele>786.4</ele>
        <time>2026-05-13T11:19:43Z</time>
      </trkpt>
      <trkpt lat="47.10626" lon="6.49895">
        <ele>785.4</ele>
        <time>2026-05-13T11:19:46Z</time>
      </trkpt>
      <trkpt lat="47.10633" lon="6.49913">
        <ele>784.4</ele>
        <time>2026-05-13T11:19:48Z</time>
      </trkpt>
      <trkpt lat="47.10642" lon="6.49931">
        <ele>783.4</ele>
        <time>2026-05-13T11:19:50Z</time>
      </trkpt>
      <trkpt lat="47.10652" lon="6.49952">
        <ele>782.2</ele>
        <time>2026-05-13T11:19:52Z</time>
      </trkpt>
      <trkpt lat="47.10656" lon="6.4996">
        <ele>782</ele>
        <time>2026-05-13T11:19:53Z</time>
      </trkpt>
      <trkpt lat="47.10661" lon="6.49971">
        <ele>781.2</ele>
        <time>2026-05-13T11:19:54Z</time>
      </trkpt>
      <trkpt lat="47.10672" lon="6.50002">
        <ele>779.8</ele>
        <time>2026-05-13T11:19:57Z</time>
      </trkpt>
      <trkpt lat="47.10674" lon="6.50013">
        <ele>779.6</ele>
        <time>2026-05-13T11:19:58Z</time>
      </trkpt>
      <trkpt lat="47.10678" lon="6.50024">
        <ele>779.2</ele>
        <time>2026-05-13T11:19:59Z</time>
      </trkpt>
      <trkpt lat="47.10682" lon="6.50035">
        <ele>778.6</ele>
        <time>2026-05-13T11:20:00Z</time>
      </trkpt>
      <trkpt lat="47.10697" lon="6.50082">
        <ele>776.2</ele>
        <time>2026-05-13T11:20:04Z</time>
      </trkpt>
      <trkpt lat="47.10701" lon="6.50094">
        <ele>775.2</ele>
        <time>2026-05-13T11:20:05Z</time>
      </trkpt>
      <trkpt lat="47.10708" lon="6.50119">
        <ele>773.8</ele>
        <time>2026-05-13T11:20:07Z</time>
      </trkpt>
      <trkpt lat="47.10714" lon="6.50144">
        <ele>772.8</ele>
        <time>2026-05-13T11:20:09Z</time>
      </trkpt>
      <trkpt lat="47.10715" lon="6.50154">
        <ele>772.4</ele>
        <time>2026-05-13T11:20:10Z</time>
      </trkpt>
      <trkpt lat="47.10718" lon="6.50166">
        <ele>772.2</ele>
        <time>2026-05-13T11:20:11Z</time>
      </trkpt>
      <trkpt lat="47.10723" lon="6.50208">
        <ele>771.4</ele>
        <time>2026-05-13T11:20:14Z</time>
      </trkpt>
      <trkpt lat="47.10727" lon="6.50245">
        <ele>770</ele>
        <time>2026-05-13T11:20:17Z</time>
      </trkpt>
      <trkpt lat="47.10733" lon="6.50296">
        <ele>769</ele>
        <time>2026-05-13T11:20:21Z</time>
      </trkpt>
      <trkpt lat="47.10737" lon="6.50333">
        <ele>767.6</ele>
        <time>2026-05-13T11:20:24Z</time>
      </trkpt>
      <trkpt lat="47.10739" lon="6.50357">
        <ele>767</ele>
        <time>2026-05-13T11:20:26Z</time>
      </trkpt>
      <trkpt lat="47.1074" lon="6.50382">
        <ele>766.4</ele>
        <time>2026-05-13T11:20:28Z</time>
      </trkpt>
      <trkpt lat="47.1074" lon="6.50415">
        <ele>765.2</ele>
        <time>2026-05-13T11:20:31Z</time>
      </trkpt>
      <trkpt lat="47.10739" lon="6.50426">
        <ele>765</ele>
        <time>2026-05-13T11:20:32Z</time>
      </trkpt>
      <trkpt lat="47.10731" lon="6.50467">
        <ele>764</ele>
        <time>2026-05-13T11:20:36Z</time>
      </trkpt>
      <trkpt lat="47.10728" lon="6.50477">
        <ele>764</ele>
        <time>2026-05-13T11:20:37Z</time>
      </trkpt>
      <trkpt lat="47.10717" lon="6.50516">
        <ele>763</ele>
        <time>2026-05-13T11:20:41Z</time>
      </trkpt>
      <trkpt lat="47.10706" lon="6.50556">
        <ele>762.4</ele>
        <time>2026-05-13T11:20:45Z</time>
      </trkpt>
      <trkpt lat="47.107" lon="6.50577">
        <ele>762</ele>
        <time>2026-05-13T11:20:47Z</time>
      </trkpt>
      <trkpt lat="47.10693" lon="6.50617">
        <ele>761.2</ele>
        <time>2026-05-13T11:20:51Z</time>
      </trkpt>
      <trkpt lat="47.10693" lon="6.50638">
        <ele>761</ele>
        <time>2026-05-13T11:20:53Z</time>
      </trkpt>
      <trkpt lat="47.10696" lon="6.50658">
        <ele>760.8</ele>
        <time>2026-05-13T11:20:55Z</time>
      </trkpt>
      <trkpt lat="47.10703" lon="6.50702">
        <ele>761</ele>
        <time>2026-05-13T11:21:00Z</time>
      </trkpt>
      <trkpt lat="47.10712" lon="6.50754">
        <ele>761.4</ele>
        <time>2026-05-13T11:21:06Z</time>
      </trkpt>
      <trkpt lat="47.10718" lon="6.50772">
        <ele>761.4</ele>
        <time>2026-05-13T11:21:08Z</time>
      </trkpt>
      <trkpt lat="47.10725" lon="6.50788">
        <ele>761.4</ele>
        <time>2026-05-13T11:21:10Z</time>
      </trkpt>
      <trkpt lat="47.1073" lon="6.50795">
        <ele>761.4</ele>
        <time>2026-05-13T11:21:11Z</time>
      </trkpt>
      <trkpt lat="47.1076" lon="6.50837">
        <ele>761.4</ele>
        <time>2026-05-13T11:21:18Z</time>
      </trkpt>
      <trkpt lat="47.10777" lon="6.50863">
        <ele>762</ele>
        <time>2026-05-13T11:21:23Z</time>
      </trkpt>
      <trkpt lat="47.1078" lon="6.50868">
        <ele>762.2</ele>
        <time>2026-05-13T11:21:24Z</time>
      </trkpt>
      <trkpt lat="47.10789" lon="6.50883">
        <ele>762.6</ele>
        <time>2026-05-13T11:21:27Z</time>
      </trkpt>
      <trkpt lat="47.10792" lon="6.50888">
        <ele>762.6</ele>
        <time>2026-05-13T11:21:28Z</time>
      </trkpt>
      <trkpt lat="47.10795" lon="6.50893">
        <ele>762.8</ele>
        <time>2026-05-13T11:21:29Z</time>
      </trkpt>
      <trkpt lat="47.10798" lon="6.50898">
        <ele>763.2</ele>
        <time>2026-05-13T11:21:30Z</time>
      </trkpt>
      <trkpt lat="47.10816" lon="6.50936">
        <ele>763.6</ele>
        <time>2026-05-13T11:21:36Z</time>
      </trkpt>
      <trkpt lat="47.10821" lon="6.5095">
        <ele>763.6</ele>
        <time>2026-05-13T11:21:38Z</time>
      </trkpt>
      <trkpt lat="47.10825" lon="6.50966">
        <ele>763.6</ele>
        <time>2026-05-13T11:21:40Z</time>
      </trkpt>
      <trkpt lat="47.10827" lon="6.50974">
        <ele>763.4</ele>
        <time>2026-05-13T11:21:41Z</time>
      </trkpt>
      <trkpt lat="47.10832" lon="6.5099">
        <ele>763.4</ele>
        <time>2026-05-13T11:21:43Z</time>
      </trkpt>
      <trkpt lat="47.1084" lon="6.51014">
        <ele>763.2</ele>
        <time>2026-05-13T11:21:46Z</time>
      </trkpt>
      <trkpt lat="47.1086" lon="6.5106">
        <ele>762.6</ele>
        <time>2026-05-13T11:21:52Z</time>
      </trkpt>
      <trkpt lat="47.1087" lon="6.51074">
        <ele>762.4</ele>
        <time>2026-05-13T11:21:54Z</time>
      </trkpt>
      <trkpt lat="47.10877" lon="6.51098">
        <ele>762</ele>
        <time>2026-05-13T11:21:56Z</time>
      </trkpt>
      <trkpt lat="47.10883" lon="6.51108">
        <ele>761.8</ele>
        <time>2026-05-13T11:21:57Z</time>
      </trkpt>
      <trkpt lat="47.10896" lon="6.5113">
        <ele>761.4</ele>
        <time>2026-05-13T11:22:00Z</time>
      </trkpt>
      <trkpt lat="47.10899" lon="6.51141">
        <ele>761</ele>
        <time>2026-05-13T11:22:01Z</time>
      </trkpt>
      <trkpt lat="47.109" lon="6.51152">
        <ele>760.8</ele>
        <time>2026-05-13T11:22:02Z</time>
      </trkpt>
      <trkpt lat="47.10902" lon="6.51171">
        <ele>760.4</ele>
        <time>2026-05-13T11:22:04Z</time>
      </trkpt>
      <trkpt lat="47.10906" lon="6.51179">
        <ele>760.2</ele>
        <time>2026-05-13T11:22:05Z</time>
      </trkpt>
      <trkpt lat="47.10919" lon="6.51194">
        <ele>759.8</ele>
        <time>2026-05-13T11:22:07Z</time>
      </trkpt>
      <trkpt lat="47.10924" lon="6.51203">
        <ele>759.8</ele>
        <time>2026-05-13T11:22:08Z</time>
      </trkpt>
      <trkpt lat="47.10924" lon="6.51212">
        <ele>759.8</ele>
        <time>2026-05-13T11:22:09Z</time>
      </trkpt>
      <trkpt lat="47.10924" lon="6.51222">
        <ele>759.8</ele>
        <time>2026-05-13T11:22:10Z</time>
      </trkpt>
      <trkpt lat="47.10922" lon="6.51273">
        <ele>759.2</ele>
        <time>2026-05-13T11:22:15Z</time>
      </trkpt>
      <trkpt lat="47.1092" lon="6.51282">
        <ele>759.2</ele>
        <time>2026-05-13T11:22:16Z</time>
      </trkpt>
      <trkpt lat="47.10916" lon="6.51316">
        <ele>759</ele>
        <time>2026-05-13T11:22:20Z</time>
      </trkpt>
      <trkpt lat="47.1092" lon="6.51352">
        <ele>758.8</ele>
        <time>2026-05-13T11:22:24Z</time>
      </trkpt>
      <trkpt lat="47.10921" lon="6.51359">
        <ele>758.8</ele>
        <time>2026-05-13T11:22:25Z</time>
      </trkpt>
      <trkpt lat="47.10928" lon="6.51417">
        <ele>758.2</ele>
        <time>2026-05-13T11:22:32Z</time>
      </trkpt>
      <trkpt lat="47.1093" lon="6.51471">
        <ele>758</ele>
        <time>2026-05-13T11:22:39Z</time>
      </trkpt>
      <trkpt lat="47.10933" lon="6.51538">
        <ele>758.4</ele>
        <time>2026-05-13T11:22:48Z</time>
      </trkpt>
      <trkpt lat="47.10937" lon="6.51584">
        <ele>759</ele>
        <time>2026-05-13T11:22:56Z</time>
      </trkpt>
      <trkpt lat="47.10943" lon="6.51612">
        <ele>759.8</ele>
        <time>2026-05-13T11:23:02Z</time>
      </trkpt>
      <trkpt lat="47.10945" lon="6.5162">
        <ele>760</ele>
        <time>2026-05-13T11:23:04Z</time>
      </trkpt>
      <trkpt lat="47.10951" lon="6.51645">
        <ele>761</ele>
        <time>2026-05-13T11:23:10Z</time>
      </trkpt>
      <trkpt lat="47.10953" lon="6.51653">
        <ele>761.2</ele>
        <time>2026-05-13T11:23:12Z</time>
      </trkpt>
      <trkpt lat="47.10962" lon="6.51679">
        <ele>762</ele>
        <time>2026-05-13T11:23:19Z</time>
      </trkpt>
      <trkpt lat="47.10964" lon="6.51683">
        <ele>762.2</ele>
        <time>2026-05-13T11:23:20Z</time>
      </trkpt>
      <trkpt lat="47.10974" lon="6.51704">
        <ele>763</ele>
        <time>2026-05-13T11:23:26Z</time>
      </trkpt>
      <trkpt lat="47.10981" lon="6.51713">
        <ele>763.6</ele>
        <time>2026-05-13T11:23:29Z</time>
      </trkpt>
      <trkpt lat="47.10994" lon="6.51726">
        <ele>764.4</ele>
        <time>2026-05-13T11:23:34Z</time>
      </trkpt>
      <trkpt lat="47.11" lon="6.51731">
        <ele>764.6</ele>
        <time>2026-05-13T11:23:36Z</time>
      </trkpt>
      <trkpt lat="47.11008" lon="6.51737">
        <ele>765.2</ele>
        <time>2026-05-13T11:23:39Z</time>
      </trkpt>
      <trkpt lat="47.1102" lon="6.51746">
        <ele>765.6</ele>
        <time>2026-05-13T11:23:43Z</time>
      </trkpt>
      <trkpt lat="47.11034" lon="6.51756">
        <ele>766.6</ele>
        <time>2026-05-13T11:23:48Z</time>
      </trkpt>
      <trkpt lat="47.11037" lon="6.51758">
        <ele>766.8</ele>
        <time>2026-05-13T11:23:49Z</time>
      </trkpt>
      <trkpt lat="47.1106" lon="6.51778">
        <ele>768</ele>
        <time>2026-05-13T11:23:57Z</time>
      </trkpt>
      <trkpt lat="47.11066" lon="6.51784">
        <ele>768.4</ele>
        <time>2026-05-13T11:23:59Z</time>
      </trkpt>
      <trkpt lat="47.11094" lon="6.51812">
        <ele>769</ele>
        <time>2026-05-13T11:24:09Z</time>
      </trkpt>
      <trkpt lat="47.11097" lon="6.51815">
        <ele>769</ele>
        <time>2026-05-13T11:24:10Z</time>
      </trkpt>
      <trkpt lat="47.11121" lon="6.51843">
        <ele>770</ele>
        <time>2026-05-13T11:24:19Z</time>
      </trkpt>
      <trkpt lat="47.11123" lon="6.51847">
        <ele>770.4</ele>
        <time>2026-05-13T11:24:20Z</time>
      </trkpt>
      <trkpt lat="47.11137" lon="6.51869">
        <ele>771.4</ele>
        <time>2026-05-13T11:24:26Z</time>
      </trkpt>
      <trkpt lat="47.11141" lon="6.51876">
        <ele>771.6</ele>
        <time>2026-05-13T11:24:28Z</time>
      </trkpt>
      <trkpt lat="47.11158" lon="6.51904">
        <ele>772.4</ele>
        <time>2026-05-13T11:24:36Z</time>
      </trkpt>
      <trkpt lat="47.11162" lon="6.51912">
        <ele>772.6</ele>
        <time>2026-05-13T11:24:38Z</time>
      </trkpt>
      <trkpt lat="47.11169" lon="6.51937">
        <ele>773.2</ele>
        <time>2026-05-13T11:24:44Z</time>
      </trkpt>
      <trkpt lat="47.11167" lon="6.51954">
        <ele>773.8</ele>
        <time>2026-05-13T11:24:48Z</time>
      </trkpt>
      <trkpt lat="47.11167" lon="6.51959">
        <ele>773.8</ele>
        <time>2026-05-13T11:24:49Z</time>
      </trkpt>
      <trkpt lat="47.11168" lon="6.51981">
        <ele>774.4</ele>
        <time>2026-05-13T11:24:55Z</time>
      </trkpt>
      <trkpt lat="47.11167" lon="6.51986">
        <ele>775</ele>
        <time>2026-05-13T11:24:58Z</time>
      </trkpt>
      <trkpt lat="47.11167" lon="6.51987">
        <ele>775.4</ele>
        <time>2026-05-13T11:25:00Z</time>
      </trkpt>
      <trkpt lat="47.11167" lon="6.51987">
        <ele>775.6</ele>
        <time>2026-05-13T11:25:01Z</time>
      </trkpt>
      <trkpt lat="47.11169" lon="6.51989">
        <ele>779.2</ele>
        <time>2026-05-13T11:41:38Z</time>
      </trkpt>
      <trkpt lat="47.11176" lon="6.51998">
        <ele>779.2</ele>
        <time>2026-05-13T11:41:41Z</time>
      </trkpt>
      <trkpt lat="47.11196" lon="6.52019">
        <ele>779.2</ele>
        <time>2026-05-13T11:41:48Z</time>
      </trkpt>
      <trkpt lat="47.11216" lon="6.5204">
        <ele>778.8</ele>
        <time>2026-05-13T11:41:56Z</time>
      </trkpt>
      <trkpt lat="47.11231" lon="6.52048">
        <ele>778.2</ele>
        <time>2026-05-13T11:42:00Z</time>
      </trkpt>
      <trkpt lat="47.11246" lon="6.52058">
        <ele>777.6</ele>
        <time>2026-05-13T11:42:03Z</time>
      </trkpt>
      <trkpt lat="47.11257" lon="6.52067">
        <ele>777.2</ele>
        <time>2026-05-13T11:42:05Z</time>
      </trkpt>
      <trkpt lat="47.11277" lon="6.52084">
        <ele>776.4</ele>
        <time>2026-05-13T11:42:08Z</time>
      </trkpt>
      <trkpt lat="47.1129" lon="6.52093">
        <ele>775.4</ele>
        <time>2026-05-13T11:42:10Z</time>
      </trkpt>
      <trkpt lat="47.11296" lon="6.52098">
        <ele>775.4</ele>
        <time>2026-05-13T11:42:11Z</time>
      </trkpt>
      <trkpt lat="47.11322" lon="6.52114">
        <ele>774.2</ele>
        <time>2026-05-13T11:42:15Z</time>
      </trkpt>
      <trkpt lat="47.11344" lon="6.52125">
        <ele>773.2</ele>
        <time>2026-05-13T11:42:18Z</time>
      </trkpt>
      <trkpt lat="47.11372" lon="6.52134">
        <ele>772.4</ele>
        <time>2026-05-13T11:42:22Z</time>
      </trkpt>
      <trkpt lat="47.11381" lon="6.52136">
        <ele>772.2</ele>
        <time>2026-05-13T11:42:23Z</time>
      </trkpt>
      <trkpt lat="47.11404" lon="6.52141">
        <ele>771</ele>
        <time>2026-05-13T11:42:26Z</time>
      </trkpt>
      <trkpt lat="47.11428" lon="6.52145">
        <ele>769.8</ele>
        <time>2026-05-13T11:42:29Z</time>
      </trkpt>
      <trkpt lat="47.11444" lon="6.5215">
        <ele>769</ele>
        <time>2026-05-13T11:42:31Z</time>
      </trkpt>
      <trkpt lat="47.11452" lon="6.52152">
        <ele>768</ele>
        <time>2026-05-13T11:42:32Z</time>
      </trkpt>
      <trkpt lat="47.1147" lon="6.52156">
        <ele>767</ele>
        <time>2026-05-13T11:42:34Z</time>
      </trkpt>
      <trkpt lat="47.11478" lon="6.52159">
        <ele>766.6</ele>
        <time>2026-05-13T11:42:35Z</time>
      </trkpt>
      <trkpt lat="47.11487" lon="6.52163">
        <ele>765.8</ele>
        <time>2026-05-13T11:42:36Z</time>
      </trkpt>
      <trkpt lat="47.11495" lon="6.52169">
        <ele>765.4</ele>
        <time>2026-05-13T11:42:37Z</time>
      </trkpt>
      <trkpt lat="47.1151" lon="6.52184">
        <ele>764.2</ele>
        <time>2026-05-13T11:42:39Z</time>
      </trkpt>
      <trkpt lat="47.11516" lon="6.52193">
        <ele>764</ele>
        <time>2026-05-13T11:42:40Z</time>
      </trkpt>
      <trkpt lat="47.11522" lon="6.52202">
        <ele>763</ele>
        <time>2026-05-13T11:42:41Z</time>
      </trkpt>
      <trkpt lat="47.11532" lon="6.52219">
        <ele>762</ele>
        <time>2026-05-13T11:42:43Z</time>
      </trkpt>
      <trkpt lat="47.11536" lon="6.52226">
        <ele>761.8</ele>
        <time>2026-05-13T11:42:44Z</time>
      </trkpt>
      <trkpt lat="47.1155" lon="6.52251">
        <ele>761.6</ele>
        <time>2026-05-13T11:42:48Z</time>
      </trkpt>
      <trkpt lat="47.11565" lon="6.52277">
        <ele>762.6</ele>
        <time>2026-05-13T11:42:54Z</time>
      </trkpt>
      <trkpt lat="47.11567" lon="6.5228">
        <ele>763</ele>
        <time>2026-05-13T11:42:55Z</time>
      </trkpt>
      <trkpt lat="47.11571" lon="6.52288">
        <ele>763.6</ele>
        <time>2026-05-13T11:42:59Z</time>
      </trkpt>
      <trkpt lat="47.11572" lon="6.52289">
        <ele>763.8</ele>
        <time>2026-05-13T11:43:01Z</time>
      </trkpt>
      <trkpt lat="47.11574" lon="6.52294">
        <ele>765</ele>
        <time>2026-05-13T11:43:27Z</time>
      </trkpt>
      <trkpt lat="47.11576" lon="6.52297">
        <ele>765</ele>
        <time>2026-05-13T11:43:28Z</time>
      </trkpt>
      <trkpt lat="47.11585" lon="6.52313">
        <ele>765</ele>
        <time>2026-05-13T11:43:33Z</time>
      </trkpt>
      <trkpt lat="47.1159" lon="6.52322">
        <ele>765.2</ele>
        <time>2026-05-13T11:43:36Z</time>
      </trkpt>
      <trkpt lat="47.11591" lon="6.52325">
        <ele>765.4</ele>
        <time>2026-05-13T11:43:37Z</time>
      </trkpt>
      <trkpt lat="47.11604" lon="6.52347">
        <ele>766.2</ele>
        <time>2026-05-13T11:43:44Z</time>
      </trkpt>
      <trkpt lat="47.11617" lon="6.52369">
        <ele>767</ele>
        <time>2026-05-13T11:43:51Z</time>
      </trkpt>
      <trkpt lat="47.11621" lon="6.52375">
        <ele>767.2</ele>
        <time>2026-05-13T11:43:53Z</time>
      </trkpt>
      <trkpt lat="47.11631" lon="6.52393">
        <ele>768.4</ele>
        <time>2026-05-13T11:43:58Z</time>
      </trkpt>
      <trkpt lat="47.11635" lon="6.524">
        <ele>768.6</ele>
        <time>2026-05-13T11:44:00Z</time>
      </trkpt>
      <trkpt lat="47.11649" lon="6.52422">
        <ele>769.4</ele>
        <time>2026-05-13T11:44:06Z</time>
      </trkpt>
      <trkpt lat="47.11651" lon="6.52426">
        <ele>769.4</ele>
        <time>2026-05-13T11:44:07Z</time>
      </trkpt>
      <trkpt lat="47.11659" lon="6.52446">
        <ele>769.8</ele>
        <time>2026-05-13T11:44:12Z</time>
      </trkpt>
      <trkpt lat="47.11659" lon="6.52451">
        <ele>770</ele>
        <time>2026-05-13T11:44:13Z</time>
      </trkpt>
      <trkpt lat="47.11657" lon="6.52462">
        <ele>770.6</ele>
        <time>2026-05-13T11:44:16Z</time>
      </trkpt>
      <trkpt lat="47.11654" lon="6.52464">
        <ele>770.8</ele>
        <time>2026-05-13T11:44:17Z</time>
      </trkpt>
      <trkpt lat="47.11638" lon="6.5246">
        <ele>771.4</ele>
        <time>2026-05-13T11:44:22Z</time>
      </trkpt>
      <trkpt lat="47.1163" lon="6.52458">
        <ele>771.6</ele>
        <time>2026-05-13T11:44:24Z</time>
      </trkpt>
      <trkpt lat="47.11625" lon="6.52457">
        <ele>771.8</ele>
        <time>2026-05-13T11:44:25Z</time>
      </trkpt>
      <trkpt lat="47.11616" lon="6.52455">
        <ele>772</ele>
        <time>2026-05-13T11:44:27Z</time>
      </trkpt>
      <trkpt lat="47.11578" lon="6.52446">
        <ele>772.4</ele>
        <time>2026-05-13T11:44:34Z</time>
      </trkpt>
      <trkpt lat="47.11539" lon="6.52438">
        <ele>770.4</ele>
        <time>2026-05-13T11:44:40Z</time>
      </trkpt>
      <trkpt lat="47.11532" lon="6.52437">
        <ele>770.2</ele>
        <time>2026-05-13T11:44:41Z</time>
      </trkpt>
      <trkpt lat="47.11511" lon="6.52433">
        <ele>769.2</ele>
        <time>2026-05-13T11:44:44Z</time>
      </trkpt>
      <trkpt lat="47.11491" lon="6.52433">
        <ele>768.6</ele>
        <time>2026-05-13T11:44:47Z</time>
      </trkpt>
      <trkpt lat="47.1148" lon="6.52434">
        <ele>768</ele>
        <time>2026-05-13T11:44:49Z</time>
      </trkpt>
      <trkpt lat="47.11472" lon="6.5244">
        <ele>767.2</ele>
        <time>2026-05-13T11:44:51Z</time>
      </trkpt>
      <trkpt lat="47.11469" lon="6.52445">
        <ele>766.6</ele>
        <time>2026-05-13T11:44:52Z</time>
      </trkpt>
      <trkpt lat="47.11467" lon="6.52451">
        <ele>766.4</ele>
        <time>2026-05-13T11:44:53Z</time>
      </trkpt>
      <trkpt lat="47.11466" lon="6.52458">
        <ele>765.4</ele>
        <time>2026-05-13T11:44:54Z</time>
      </trkpt>
      <trkpt lat="47.11465" lon="6.52473">
        <ele>764</ele>
        <time>2026-05-13T11:44:56Z</time>
      </trkpt>
      <trkpt lat="47.11464" lon="6.52496">
        <ele>762.8</ele>
        <time>2026-05-13T11:44:59Z</time>
      </trkpt>
      <trkpt lat="47.11464" lon="6.52512">
        <ele>762.6</ele>
        <time>2026-05-13T11:45:01Z</time>
      </trkpt>
      <trkpt lat="47.11467" lon="6.5257">
        <ele>762</ele>
        <time>2026-05-13T11:45:07Z</time>
      </trkpt>
      <trkpt lat="47.11468" lon="6.52581">
        <ele>761.6</ele>
        <time>2026-05-13T11:45:08Z</time>
      </trkpt>
      <trkpt lat="47.11475" lon="6.52641">
        <ele>760.4</ele>
        <time>2026-05-13T11:45:13Z</time>
      </trkpt>
      <trkpt lat="47.11479" lon="6.52678">
        <ele>759.4</ele>
        <time>2026-05-13T11:45:16Z</time>
      </trkpt>
      <trkpt lat="47.11486" lon="6.52728">
        <ele>758.2</ele>
        <time>2026-05-13T11:45:20Z</time>
      </trkpt>
      <trkpt lat="47.11496" lon="6.52805">
        <ele>757.2</ele>
        <time>2026-05-13T11:45:26Z</time>
      </trkpt>
      <trkpt lat="47.11498" lon="6.52831">
        <ele>756.8</ele>
        <time>2026-05-13T11:45:28Z</time>
      </trkpt>
      <trkpt lat="47.115" lon="6.52867">
        <ele>756.2</ele>
        <time>2026-05-13T11:45:31Z</time>
      </trkpt>
      <trkpt lat="47.115" lon="6.52914">
        <ele>755.8</ele>
        <time>2026-05-13T11:45:35Z</time>
      </trkpt>
      <trkpt lat="47.11497" lon="6.5299">
        <ele>755.6</ele>
        <time>2026-05-13T11:45:42Z</time>
      </trkpt>
      <trkpt lat="47.11492" lon="6.53057">
        <ele>756.2</ele>
        <time>2026-05-13T11:45:49Z</time>
      </trkpt>
      <trkpt lat="47.11484" lon="6.53139">
        <ele>756.6</ele>
        <time>2026-05-13T11:45:58Z</time>
      </trkpt>
      <trkpt lat="47.11483" lon="6.53148">
        <ele>756.6</ele>
        <time>2026-05-13T11:45:59Z</time>
      </trkpt>
      <trkpt lat="47.11482" lon="6.53232">
        <ele>756.2</ele>
        <time>2026-05-13T11:46:07Z</time>
      </trkpt>
      <trkpt lat="47.11482" lon="6.53266">
        <ele>755.2</ele>
        <time>2026-05-13T11:46:10Z</time>
      </trkpt>
      <trkpt lat="47.11483" lon="6.53322">
        <ele>754.4</ele>
        <time>2026-05-13T11:46:15Z</time>
      </trkpt>
      <trkpt lat="47.11483" lon="6.53332">
        <ele>754.2</ele>
        <time>2026-05-13T11:46:16Z</time>
      </trkpt>
      <trkpt lat="47.11482" lon="6.53405">
        <ele>753.4</ele>
        <time>2026-05-13T11:46:23Z</time>
      </trkpt>
      <trkpt lat="47.1148" lon="6.53468">
        <ele>753.2</ele>
        <time>2026-05-13T11:46:29Z</time>
      </trkpt>
      <trkpt lat="47.11479" lon="6.53498">
        <ele>752.8</ele>
        <time>2026-05-13T11:46:32Z</time>
      </trkpt>
      <trkpt lat="47.11477" lon="6.53573">
        <ele>752.8</ele>
        <time>2026-05-13T11:46:40Z</time>
      </trkpt>
      <trkpt lat="47.1148" lon="6.53628">
        <ele>753.6</ele>
        <time>2026-05-13T11:46:47Z</time>
      </trkpt>
      <trkpt lat="47.11483" lon="6.53656">
        <ele>754.2</ele>
        <time>2026-05-13T11:46:51Z</time>
      </trkpt>
      <trkpt lat="47.11483" lon="6.53663">
        <ele>754.4</ele>
        <time>2026-05-13T11:46:52Z</time>
      </trkpt>
      <trkpt lat="47.11482" lon="6.5367">
        <ele>754.6</ele>
        <time>2026-05-13T11:46:53Z</time>
      </trkpt>
      <trkpt lat="47.11482" lon="6.53689">
        <ele>754.8</ele>
        <time>2026-05-13T11:46:56Z</time>
      </trkpt>
      <trkpt lat="47.11483" lon="6.53699">
        <ele>755.2</ele>
        <time>2026-05-13T11:46:58Z</time>
      </trkpt>
      <trkpt lat="47.11486" lon="6.53709">
        <ele>755.4</ele>
        <time>2026-05-13T11:47:00Z</time>
      </trkpt>
      <trkpt lat="47.11488" lon="6.53714">
        <ele>755.4</ele>
        <time>2026-05-13T11:47:01Z</time>
      </trkpt>
      <trkpt lat="47.11493" lon="6.53727">
        <ele>756.2</ele>
        <time>2026-05-13T11:47:04Z</time>
      </trkpt>
      <trkpt lat="47.11499" lon="6.53739">
        <ele>756.8</ele>
        <time>2026-05-13T11:47:07Z</time>
      </trkpt>
      <trkpt lat="47.11505" lon="6.53751">
        <ele>757.6</ele>
        <time>2026-05-13T11:47:10Z</time>
      </trkpt>
      <trkpt lat="47.11507" lon="6.53755">
        <ele>757.8</ele>
        <time>2026-05-13T11:47:11Z</time>
      </trkpt>
      <trkpt lat="47.11524" lon="6.53777">
        <ele>759</ele>
        <time>2026-05-13T11:47:17Z</time>
      </trkpt>
      <trkpt lat="47.11542" lon="6.53799">
        <ele>759.2</ele>
        <time>2026-05-13T11:47:22Z</time>
      </trkpt>
      <trkpt lat="47.11578" lon="6.53842">
        <ele>759</ele>
        <time>2026-05-13T11:47:30Z</time>
      </trkpt>
      <trkpt lat="47.11615" lon="6.53884">
        <ele>758.6</ele>
        <time>2026-05-13T11:47:37Z</time>
      </trkpt>
      <trkpt lat="47.1164" lon="6.53911">
        <ele>757.8</ele>
        <time>2026-05-13T11:47:41Z</time>
      </trkpt>
      <trkpt lat="47.11653" lon="6.53924">
        <ele>757.4</ele>
        <time>2026-05-13T11:47:43Z</time>
      </trkpt>
      <trkpt lat="47.1169" lon="6.53954">
        <ele>756.8</ele>
        <time>2026-05-13T11:47:48Z</time>
      </trkpt>
      <trkpt lat="47.11706" lon="6.53967">
        <ele>756.4</ele>
        <time>2026-05-13T11:47:50Z</time>
      </trkpt>
      <trkpt lat="47.11732" lon="6.53986">
        <ele>755.6</ele>
        <time>2026-05-13T11:47:53Z</time>
      </trkpt>
      <trkpt lat="47.11749" lon="6.53999">
        <ele>754.6</ele>
        <time>2026-05-13T11:47:55Z</time>
      </trkpt>
      <trkpt lat="47.11766" lon="6.54014">
        <ele>753.6</ele>
        <time>2026-05-13T11:47:57Z</time>
      </trkpt>
      <trkpt lat="47.11774" lon="6.54022">
        <ele>753</ele>
        <time>2026-05-13T11:47:58Z</time>
      </trkpt>
      <trkpt lat="47.11806" lon="6.5406">
        <ele>752</ele>
        <time>2026-05-13T11:48:02Z</time>
      </trkpt>
      <trkpt lat="47.11819" lon="6.54082">
        <ele>750.6</ele>
        <time>2026-05-13T11:48:04Z</time>
      </trkpt>
      <trkpt lat="47.11839" lon="6.54116">
        <ele>749.2</ele>
        <time>2026-05-13T11:48:07Z</time>
      </trkpt>
      <trkpt lat="47.11851" lon="6.54139">
        <ele>748.6</ele>
        <time>2026-05-13T11:48:09Z</time>
      </trkpt>
      <trkpt lat="47.11863" lon="6.54161">
        <ele>748</ele>
        <time>2026-05-13T11:48:11Z</time>
      </trkpt>
      <trkpt lat="47.1189" lon="6.54215">
        <ele>747.2</ele>
        <time>2026-05-13T11:48:16Z</time>
      </trkpt>
      <trkpt lat="47.11901" lon="6.54236">
        <ele>747</ele>
        <time>2026-05-13T11:48:18Z</time>
      </trkpt>
      <trkpt lat="47.11933" lon="6.54294">
        <ele>746</ele>
        <time>2026-05-13T11:48:24Z</time>
      </trkpt>
      <trkpt lat="47.11943" lon="6.54312">
        <ele>746</ele>
        <time>2026-05-13T11:48:26Z</time>
      </trkpt>
      <trkpt lat="47.11971" lon="6.54368">
        <ele>745.6</ele>
        <time>2026-05-13T11:48:32Z</time>
      </trkpt>
      <trkpt lat="47.11991" lon="6.54418">
        <ele>744.8</ele>
        <time>2026-05-13T11:48:37Z</time>
      </trkpt>
      <trkpt lat="47.12005" lon="6.54461">
        <ele>744.4</ele>
        <time>2026-05-13T11:48:41Z</time>
      </trkpt>
      <trkpt lat="47.1202" lon="6.54531">
        <ele>743.8</ele>
        <time>2026-05-13T11:48:47Z</time>
      </trkpt>
      <trkpt lat="47.12022" lon="6.54543">
        <ele>743.8</ele>
        <time>2026-05-13T11:48:48Z</time>
      </trkpt>
      <trkpt lat="47.12042" lon="6.54624">
        <ele>742.8</ele>
        <time>2026-05-13T11:48:55Z</time>
      </trkpt>
      <trkpt lat="47.12044" lon="6.54635">
        <ele>742.6</ele>
        <time>2026-05-13T11:48:56Z</time>
      </trkpt>
      <trkpt lat="47.12054" lon="6.5469">
        <ele>742.4</ele>
        <time>2026-05-13T11:49:01Z</time>
      </trkpt>
      <trkpt lat="47.12064" lon="6.54769">
        <ele>742.2</ele>
        <time>2026-05-13T11:49:08Z</time>
      </trkpt>
      <trkpt lat="47.12067" lon="6.54792">
        <ele>742</ele>
        <time>2026-05-13T11:49:10Z</time>
      </trkpt>
      <trkpt lat="47.12075" lon="6.54826">
        <ele>742</ele>
        <time>2026-05-13T11:49:13Z</time>
      </trkpt>
      <trkpt lat="47.12079" lon="6.54836">
        <ele>741.8</ele>
        <time>2026-05-13T11:49:14Z</time>
      </trkpt>
      <trkpt lat="47.12084" lon="6.54845">
        <ele>741.8</ele>
        <time>2026-05-13T11:49:15Z</time>
      </trkpt>
      <trkpt lat="47.12102" lon="6.54869">
        <ele>741.6</ele>
        <time>2026-05-13T11:49:18Z</time>
      </trkpt>
      <trkpt lat="47.12137" lon="6.54918">
        <ele>741.2</ele>
        <time>2026-05-13T11:49:24Z</time>
      </trkpt>
      <trkpt lat="47.12153" lon="6.54946">
        <ele>740.6</ele>
        <time>2026-05-13T11:49:27Z</time>
      </trkpt>
      <trkpt lat="47.12179" lon="6.54991">
        <ele>739.8</ele>
        <time>2026-05-13T11:49:32Z</time>
      </trkpt>
      <trkpt lat="47.12188" lon="6.55011">
        <ele>739.4</ele>
        <time>2026-05-13T11:49:34Z</time>
      </trkpt>
      <trkpt lat="47.12196" lon="6.55043">
        <ele>739</ele>
        <time>2026-05-13T11:49:37Z</time>
      </trkpt>
      <trkpt lat="47.12201" lon="6.55099">
        <ele>738.6</ele>
        <time>2026-05-13T11:49:42Z</time>
      </trkpt>
      <trkpt lat="47.12199" lon="6.55155">
        <ele>738.4</ele>
        <time>2026-05-13T11:49:47Z</time>
      </trkpt>
      <trkpt lat="47.12198" lon="6.55177">
        <ele>738.4</ele>
        <time>2026-05-13T11:49:49Z</time>
      </trkpt>
      <trkpt lat="47.12195" lon="6.55232">
        <ele>738.4</ele>
        <time>2026-05-13T11:49:54Z</time>
      </trkpt>
      <trkpt lat="47.12197" lon="6.55253">
        <ele>738.2</ele>
        <time>2026-05-13T11:49:56Z</time>
      </trkpt>
      <trkpt lat="47.12214" lon="6.55302">
        <ele>738.4</ele>
        <time>2026-05-13T11:50:01Z</time>
      </trkpt>
      <trkpt lat="47.12228" lon="6.55328">
        <ele>738.2</ele>
        <time>2026-05-13T11:50:04Z</time>
      </trkpt>
      <trkpt lat="47.1224" lon="6.55342">
        <ele>738.2</ele>
        <time>2026-05-13T11:50:06Z</time>
      </trkpt>
      <trkpt lat="47.12253" lon="6.5535">
        <ele>738.2</ele>
        <time>2026-05-13T11:50:08Z</time>
      </trkpt>
      <trkpt lat="47.12269" lon="6.55354">
        <ele>738</ele>
        <time>2026-05-13T11:50:10Z</time>
      </trkpt>
      <trkpt lat="47.12315" lon="6.55355">
        <ele>737.4</ele>
        <time>2026-05-13T11:50:16Z</time>
      </trkpt>
      <trkpt lat="47.12343" lon="6.55361">
        <ele>737.4</ele>
        <time>2026-05-13T11:50:20Z</time>
      </trkpt>
      <trkpt lat="47.12363" lon="6.55367">
        <ele>737.4</ele>
        <time>2026-05-13T11:50:23Z</time>
      </trkpt>
      <trkpt lat="47.12403" lon="6.55389">
        <ele>737.4</ele>
        <time>2026-05-13T11:50:29Z</time>
      </trkpt>
      <trkpt lat="47.12445" lon="6.55424">
        <ele>736.6</ele>
        <time>2026-05-13T11:50:36Z</time>
      </trkpt>
      <trkpt lat="47.12462" lon="6.55439">
        <ele>736.2</ele>
        <time>2026-05-13T11:50:39Z</time>
      </trkpt>
      <trkpt lat="47.12468" lon="6.55444">
        <ele>735.8</ele>
        <time>2026-05-13T11:50:40Z</time>
      </trkpt>
      <trkpt lat="47.12474" lon="6.55447">
        <ele>735.8</ele>
        <time>2026-05-13T11:50:41Z</time>
      </trkpt>
      <trkpt lat="47.12493" lon="6.55455">
        <ele>735.2</ele>
        <time>2026-05-13T11:50:44Z</time>
      </trkpt>
      <trkpt lat="47.12499" lon="6.55458">
        <ele>735</ele>
        <time>2026-05-13T11:50:45Z</time>
      </trkpt>
      <trkpt lat="47.12511" lon="6.55467">
        <ele>734.8</ele>
        <time>2026-05-13T11:50:47Z</time>
      </trkpt>
      <trkpt lat="47.12549" lon="6.55489">
        <ele>734.4</ele>
        <time>2026-05-13T11:50:54Z</time>
      </trkpt>
      <trkpt lat="47.12585" lon="6.55499">
        <ele>734.4</ele>
        <time>2026-05-13T11:51:00Z</time>
      </trkpt>
      <trkpt lat="47.12595" lon="6.55506">
        <ele>734.6</ele>
        <time>2026-05-13T11:51:02Z</time>
      </trkpt>
      <trkpt lat="47.12604" lon="6.55517">
        <ele>734.6</ele>
        <time>2026-05-13T11:51:04Z</time>
      </trkpt>
      <trkpt lat="47.12611" lon="6.55531">
        <ele>734.8</ele>
        <time>2026-05-13T11:51:06Z</time>
      </trkpt>
      <trkpt lat="47.12641" lon="6.55599">
        <ele>735.2</ele>
        <time>2026-05-13T11:51:15Z</time>
      </trkpt>
      <trkpt lat="47.1266" lon="6.55633">
        <ele>735.4</ele>
        <time>2026-05-13T11:51:20Z</time>
      </trkpt>
      <trkpt lat="47.12665" lon="6.55638">
        <ele>735.4</ele>
        <time>2026-05-13T11:51:21Z</time>
      </trkpt>
      <trkpt lat="47.12688" lon="6.55661">
        <ele>735.4</ele>
        <time>2026-05-13T11:51:26Z</time>
      </trkpt>
      <trkpt lat="47.12694" lon="6.55671">
        <ele>735.2</ele>
        <time>2026-05-13T11:51:28Z</time>
      </trkpt>
      <trkpt lat="47.12704" lon="6.55687">
        <ele>734.8</ele>
        <time>2026-05-13T11:51:31Z</time>
      </trkpt>
      <trkpt lat="47.12713" lon="6.55694">
        <ele>734.6</ele>
        <time>2026-05-13T11:51:33Z</time>
      </trkpt>
      <trkpt lat="47.12724" lon="6.55699">
        <ele>734.2</ele>
        <time>2026-05-13T11:51:35Z</time>
      </trkpt>
      <trkpt lat="47.12728" lon="6.55702">
        <ele>733.8</ele>
        <time>2026-05-13T11:51:36Z</time>
      </trkpt>
      <trkpt lat="47.12739" lon="6.55711">
        <ele>733.6</ele>
        <time>2026-05-13T11:51:38Z</time>
      </trkpt>
      <trkpt lat="47.12743" lon="6.55717">
        <ele>733.4</ele>
        <time>2026-05-13T11:51:39Z</time>
      </trkpt>
      <trkpt lat="47.12761" lon="6.55742">
        <ele>733.6</ele>
        <time>2026-05-13T11:51:44Z</time>
      </trkpt>
      <trkpt lat="47.12778" lon="6.55776">
        <ele>734.8</ele>
        <time>2026-05-13T11:51:50Z</time>
      </trkpt>
      <trkpt lat="47.1278" lon="6.55781">
        <ele>734.8</ele>
        <time>2026-05-13T11:51:51Z</time>
      </trkpt>
      <trkpt lat="47.12785" lon="6.55794">
        <ele>735.2</ele>
        <time>2026-05-13T11:51:53Z</time>
      </trkpt>
      <trkpt lat="47.12791" lon="6.55813">
        <ele>736.2</ele>
        <time>2026-05-13T11:51:57Z</time>
      </trkpt>
      <trkpt lat="47.12794" lon="6.5582">
        <ele>736.4</ele>
        <time>2026-05-13T11:51:59Z</time>
      </trkpt>
      <trkpt lat="47.12797" lon="6.5583">
        <ele>737</ele>
        <time>2026-05-13T11:52:02Z</time>
      </trkpt>
      <trkpt lat="47.128" lon="6.55848">
        <ele>737.4</ele>
        <time>2026-05-13T11:52:05Z</time>
      </trkpt>
      <trkpt lat="47.12802" lon="6.55863">
        <ele>737.6</ele>
        <time>2026-05-13T11:52:07Z</time>
      </trkpt>
      <trkpt lat="47.12804" lon="6.5587">
        <ele>737.6</ele>
        <time>2026-05-13T11:52:08Z</time>
      </trkpt>
      <trkpt lat="47.12811" lon="6.55893">
        <ele>737.6</ele>
        <time>2026-05-13T11:52:11Z</time>
      </trkpt>
      <trkpt lat="47.12814" lon="6.559">
        <ele>737.6</ele>
        <time>2026-05-13T11:52:12Z</time>
      </trkpt>
      <trkpt lat="47.12837" lon="6.55946">
        <ele>737</ele>
        <time>2026-05-13T11:52:18Z</time>
      </trkpt>
      <trkpt lat="47.12875" lon="6.56013">
        <ele>736.2</ele>
        <time>2026-05-13T11:52:26Z</time>
      </trkpt>
      <trkpt lat="47.12904" lon="6.56048">
        <ele>735.4</ele>
        <time>2026-05-13T11:52:31Z</time>
      </trkpt>
      <trkpt lat="47.12911" lon="6.56054">
        <ele>735.2</ele>
        <time>2026-05-13T11:52:32Z</time>
      </trkpt>
      <trkpt lat="47.12941" lon="6.56069">
        <ele>734.8</ele>
        <time>2026-05-13T11:52:36Z</time>
      </trkpt>
      <trkpt lat="47.12987" lon="6.56075">
        <ele>734</ele>
        <time>2026-05-13T11:52:42Z</time>
      </trkpt>
      <trkpt lat="47.13032" lon="6.56088">
        <ele>732.8</ele>
        <time>2026-05-13T11:52:48Z</time>
      </trkpt>
      <trkpt lat="47.13077" lon="6.56111">
        <ele>731.8</ele>
        <time>2026-05-13T11:52:55Z</time>
      </trkpt>
      <trkpt lat="47.13081" lon="6.56114">
        <ele>731.8</ele>
        <time>2026-05-13T11:52:56Z</time>
      </trkpt>
      <trkpt lat="47.13086" lon="6.56119">
        <ele>731.6</ele>
        <time>2026-05-13T11:52:58Z</time>
      </trkpt>
      <trkpt lat="47.13093" lon="6.56131">
        <ele>731.4</ele>
        <time>2026-05-13T11:53:01Z</time>
      </trkpt>
      <trkpt lat="47.13098" lon="6.56144">
        <ele>731</ele>
        <time>2026-05-13T11:53:03Z</time>
      </trkpt>
      <trkpt lat="47.13108" lon="6.56165">
        <ele>730.8</ele>
        <time>2026-05-13T11:53:06Z</time>
      </trkpt>
      <trkpt lat="47.13115" lon="6.56179">
        <ele>730.6</ele>
        <time>2026-05-13T11:53:08Z</time>
      </trkpt>
      <trkpt lat="47.13136" lon="6.56234">
        <ele>730</ele>
        <time>2026-05-13T11:53:14Z</time>
      </trkpt>
      <trkpt lat="47.1314" lon="6.56253">
        <ele>729.6</ele>
        <time>2026-05-13T11:53:16Z</time>
      </trkpt>
      <trkpt lat="47.13144" lon="6.56286">
        <ele>729.4</ele>
        <time>2026-05-13T11:53:19Z</time>
      </trkpt>
      <trkpt lat="47.13146" lon="6.56308">
        <ele>729.2</ele>
        <time>2026-05-13T11:53:21Z</time>
      </trkpt>
      <trkpt lat="47.13145" lon="6.56327">
        <ele>729.2</ele>
        <time>2026-05-13T11:53:23Z</time>
      </trkpt>
      <trkpt lat="47.13143" lon="6.56351">
        <ele>729.2</ele>
        <time>2026-05-13T11:53:26Z</time>
      </trkpt>
      <trkpt lat="47.13143" lon="6.56359">
        <ele>729.2</ele>
        <time>2026-05-13T11:53:27Z</time>
      </trkpt>
      <trkpt lat="47.13144" lon="6.56367">
        <ele>729.2</ele>
        <time>2026-05-13T11:53:28Z</time>
      </trkpt>
      <trkpt lat="47.13151" lon="6.56383">
        <ele>729.2</ele>
        <time>2026-05-13T11:53:30Z</time>
      </trkpt>
      <trkpt lat="47.13165" lon="6.56417">
        <ele>729</ele>
        <time>2026-05-13T11:53:34Z</time>
      </trkpt>
      <trkpt lat="47.13168" lon="6.56427">
        <ele>729</ele>
        <time>2026-05-13T11:53:35Z</time>
      </trkpt>
      <trkpt lat="47.13171" lon="6.56448">
        <ele>728.6</ele>
        <time>2026-05-13T11:53:37Z</time>
      </trkpt>
      <trkpt lat="47.13173" lon="6.5647">
        <ele>728</ele>
        <time>2026-05-13T11:53:39Z</time>
      </trkpt>
      <trkpt lat="47.13173" lon="6.56482">
        <ele>727.8</ele>
        <time>2026-05-13T11:53:40Z</time>
      </trkpt>
      <trkpt lat="47.13171" lon="6.56493">
        <ele>727.6</ele>
        <time>2026-05-13T11:53:41Z</time>
      </trkpt>
      <trkpt lat="47.13169" lon="6.56505">
        <ele>727.6</ele>
        <time>2026-05-13T11:53:42Z</time>
      </trkpt>
      <trkpt lat="47.13163" lon="6.56527">
        <ele>727</ele>
        <time>2026-05-13T11:53:44Z</time>
      </trkpt>
      <trkpt lat="47.13153" lon="6.56571">
        <ele>726.4</ele>
        <time>2026-05-13T11:53:48Z</time>
      </trkpt>
      <trkpt lat="47.13151" lon="6.56583">
        <ele>726.4</ele>
        <time>2026-05-13T11:53:49Z</time>
      </trkpt>
      <trkpt lat="47.13151" lon="6.56595">
        <ele>726.2</ele>
        <time>2026-05-13T11:53:50Z</time>
      </trkpt>
      <trkpt lat="47.13154" lon="6.56632">
        <ele>725.8</ele>
        <time>2026-05-13T11:53:53Z</time>
      </trkpt>
      <trkpt lat="47.13162" lon="6.5668">
        <ele>725.4</ele>
        <time>2026-05-13T11:53:57Z</time>
      </trkpt>
      <trkpt lat="47.13167" lon="6.56715">
        <ele>724.8</ele>
        <time>2026-05-13T11:54:00Z</time>
      </trkpt>
      <trkpt lat="47.13174" lon="6.56799">
        <ele>724.4</ele>
        <time>2026-05-13T11:54:07Z</time>
      </trkpt>
      <trkpt lat="47.13176" lon="6.56811">
        <ele>724.4</ele>
        <time>2026-05-13T11:54:08Z</time>
      </trkpt>
      <trkpt lat="47.13184" lon="6.56871">
        <ele>724.2</ele>
        <time>2026-05-13T11:54:13Z</time>
      </trkpt>
      <trkpt lat="47.13207" lon="6.56953">
        <ele>724</ele>
        <time>2026-05-13T11:54:20Z</time>
      </trkpt>
      <trkpt lat="47.13224" lon="6.57031">
        <ele>724</ele>
        <time>2026-05-13T11:54:27Z</time>
      </trkpt>
      <trkpt lat="47.13239" lon="6.5711">
        <ele>723.8</ele>
        <time>2026-05-13T11:54:34Z</time>
      </trkpt>
      <trkpt lat="47.13268" lon="6.57177">
        <ele>724.4</ele>
        <time>2026-05-13T11:54:41Z</time>
      </trkpt>
      <trkpt lat="47.13302" lon="6.57252">
        <ele>724.6</ele>
        <time>2026-05-13T11:54:49Z</time>
      </trkpt>
      <trkpt lat="47.13334" lon="6.57329">
        <ele>723.8</ele>
        <time>2026-05-13T11:54:56Z</time>
      </trkpt>
      <trkpt lat="47.13347" lon="6.57363">
        <ele>723</ele>
        <time>2026-05-13T11:54:59Z</time>
      </trkpt>
      <trkpt lat="47.13364" lon="6.57411">
        <ele>721.8</ele>
        <time>2026-05-13T11:55:03Z</time>
      </trkpt>
      <trkpt lat="47.13368" lon="6.57424">
        <ele>721.6</ele>
        <time>2026-05-13T11:55:04Z</time>
      </trkpt>
      <trkpt lat="47.13383" lon="6.57471">
        <ele>720.4</ele>
        <time>2026-05-13T11:55:08Z</time>
      </trkpt>
      <trkpt lat="47.13396" lon="6.5751">
        <ele>719.8</ele>
        <time>2026-05-13T11:55:11Z</time>
      </trkpt>
      <trkpt lat="47.13405" lon="6.57531">
        <ele>719.4</ele>
        <time>2026-05-13T11:55:13Z</time>
      </trkpt>
      <trkpt lat="47.13431" lon="6.57579">
        <ele>718.6</ele>
        <time>2026-05-13T11:55:17Z</time>
      </trkpt>
      <trkpt lat="47.13437" lon="6.57591">
        <ele>718.4</ele>
        <time>2026-05-13T11:55:18Z</time>
      </trkpt>
      <trkpt lat="47.13475" lon="6.57658">
        <ele>717.4</ele>
        <time>2026-05-13T11:55:24Z</time>
      </trkpt>
      <trkpt lat="47.13482" lon="6.57669">
        <ele>717</ele>
        <time>2026-05-13T11:55:25Z</time>
      </trkpt>
      <trkpt lat="47.13514" lon="6.57724">
        <ele>716</ele>
        <time>2026-05-13T11:55:30Z</time>
      </trkpt>
      <trkpt lat="47.13533" lon="6.57756">
        <ele>715.6</ele>
        <time>2026-05-13T11:55:33Z</time>
      </trkpt>
      <trkpt lat="47.13561" lon="6.57799">
        <ele>714.8</ele>
        <time>2026-05-13T11:55:37Z</time>
      </trkpt>
      <trkpt lat="47.13583" lon="6.57827">
        <ele>714</ele>
        <time>2026-05-13T11:55:40Z</time>
      </trkpt>
      <trkpt lat="47.13597" lon="6.57845">
        <ele>713.6</ele>
        <time>2026-05-13T11:55:42Z</time>
      </trkpt>
      <trkpt lat="47.13638" lon="6.57901">
        <ele>713</ele>
        <time>2026-05-13T11:55:48Z</time>
      </trkpt>
      <trkpt lat="47.13673" lon="6.57961">
        <ele>713</ele>
        <time>2026-05-13T11:55:54Z</time>
      </trkpt>
      <trkpt lat="47.13678" lon="6.57969">
        <ele>713</ele>
        <time>2026-05-13T11:55:55Z</time>
      </trkpt>
      <trkpt lat="47.13718" lon="6.5802">
        <ele>713.2</ele>
        <time>2026-05-13T11:56:01Z</time>
      </trkpt>
      <trkpt lat="47.13763" lon="6.58072">
        <ele>712.8</ele>
        <time>2026-05-13T11:56:08Z</time>
      </trkpt>
      <trkpt lat="47.13807" lon="6.58122">
        <ele>712.8</ele>
        <time>2026-05-13T11:56:15Z</time>
      </trkpt>
      <trkpt lat="47.13819" lon="6.58136">
        <ele>712.8</ele>
        <time>2026-05-13T11:56:17Z</time>
      </trkpt>
      <trkpt lat="47.13845" lon="6.58166">
        <ele>712.6</ele>
        <time>2026-05-13T11:56:21Z</time>
      </trkpt>
      <trkpt lat="47.13862" lon="6.58188">
        <ele>712.4</ele>
        <time>2026-05-13T11:56:24Z</time>
      </trkpt>
      <trkpt lat="47.13897" lon="6.58251">
        <ele>711.8</ele>
        <time>2026-05-13T11:56:31Z</time>
      </trkpt>
      <trkpt lat="47.13927" lon="6.58328">
        <ele>711.8</ele>
        <time>2026-05-13T11:56:39Z</time>
      </trkpt>
      <trkpt lat="47.13936" lon="6.58356">
        <ele>711.8</ele>
        <time>2026-05-13T11:56:42Z</time>
      </trkpt>
      <trkpt lat="47.13957" lon="6.58426">
        <ele>711.8</ele>
        <time>2026-05-13T11:56:49Z</time>
      </trkpt>
      <trkpt lat="47.13972" lon="6.58511">
        <ele>711.8</ele>
        <time>2026-05-13T11:56:57Z</time>
      </trkpt>
      <trkpt lat="47.13987" lon="6.58588">
        <ele>711.8</ele>
        <time>2026-05-13T11:57:04Z</time>
      </trkpt>
      <trkpt lat="47.13991" lon="6.58611">
        <ele>711.8</ele>
        <time>2026-05-13T11:57:06Z</time>
      </trkpt>
      <trkpt lat="47.13995" lon="6.58633">
        <ele>711.6</ele>
        <time>2026-05-13T11:57:08Z</time>
      </trkpt>
      <trkpt lat="47.14008" lon="6.58711">
        <ele>711</ele>
        <time>2026-05-13T11:57:15Z</time>
      </trkpt>
      <trkpt lat="47.14023" lon="6.58797">
        <ele>711</ele>
        <time>2026-05-13T11:57:23Z</time>
      </trkpt>
      <trkpt lat="47.14032" lon="6.58818">
        <ele>710.8</ele>
        <time>2026-05-13T11:57:25Z</time>
      </trkpt>
      <trkpt lat="47.14044" lon="6.58836">
        <ele>710.6</ele>
        <time>2026-05-13T11:57:27Z</time>
      </trkpt>
      <trkpt lat="47.14058" lon="6.58853">
        <ele>710.2</ele>
        <time>2026-05-13T11:57:29Z</time>
      </trkpt>
      <trkpt lat="47.14092" lon="6.58892">
        <ele>709.2</ele>
        <time>2026-05-13T11:57:34Z</time>
      </trkpt>
      <trkpt lat="47.14102" lon="6.589">
        <ele>709</ele>
        <time>2026-05-13T11:57:35Z</time>
      </trkpt>
      <trkpt lat="47.14118" lon="6.58908">
        <ele>708.4</ele>
        <time>2026-05-13T11:57:37Z</time>
      </trkpt>
      <trkpt lat="47.14127" lon="6.58911">
        <ele>708</ele>
        <time>2026-05-13T11:57:38Z</time>
      </trkpt>
      <trkpt lat="47.14146" lon="6.58918">
        <ele>707.6</ele>
        <time>2026-05-13T11:57:40Z</time>
      </trkpt>
      <trkpt lat="47.14154" lon="6.58924">
        <ele>707.4</ele>
        <time>2026-05-13T11:57:41Z</time>
      </trkpt>
      <trkpt lat="47.14162" lon="6.58932">
        <ele>707.2</ele>
        <time>2026-05-13T11:57:42Z</time>
      </trkpt>
      <trkpt lat="47.14169" lon="6.58941">
        <ele>706.8</ele>
        <time>2026-05-13T11:57:43Z</time>
      </trkpt>
      <trkpt lat="47.14176" lon="6.5895">
        <ele>706.6</ele>
        <time>2026-05-13T11:57:44Z</time>
      </trkpt>
      <trkpt lat="47.14188" lon="6.58972">
        <ele>705.8</ele>
        <time>2026-05-13T11:57:46Z</time>
      </trkpt>
      <trkpt lat="47.14198" lon="6.58995">
        <ele>705.4</ele>
        <time>2026-05-13T11:57:48Z</time>
      </trkpt>
      <trkpt lat="47.14213" lon="6.59029">
        <ele>704.6</ele>
        <time>2026-05-13T11:57:51Z</time>
      </trkpt>
      <trkpt lat="47.14235" lon="6.59072">
        <ele>704.4</ele>
        <time>2026-05-13T11:57:55Z</time>
      </trkpt>
      <trkpt lat="47.1427" lon="6.59118">
        <ele>703.8</ele>
        <time>2026-05-13T11:58:00Z</time>
      </trkpt>
      <trkpt lat="47.14283" lon="6.59134">
        <ele>703.6</ele>
        <time>2026-05-13T11:58:02Z</time>
      </trkpt>
      <trkpt lat="47.14332" lon="6.59185">
        <ele>703.2</ele>
        <time>2026-05-13T11:58:09Z</time>
      </trkpt>
      <trkpt lat="47.14365" lon="6.5921">
        <ele>702.6</ele>
        <time>2026-05-13T11:58:13Z</time>
      </trkpt>
      <trkpt lat="47.1438" lon="6.59218">
        <ele>702</ele>
        <time>2026-05-13T11:58:15Z</time>
      </trkpt>
      <trkpt lat="47.14398" lon="6.59229">
        <ele>701.4</ele>
        <time>2026-05-13T11:58:17Z</time>
      </trkpt>
      <trkpt lat="47.14455" lon="6.59258">
        <ele>700.8</ele>
        <time>2026-05-13T11:58:24Z</time>
      </trkpt>
      <trkpt lat="47.14462" lon="6.59263">
        <ele>700.6</ele>
        <time>2026-05-13T11:58:25Z</time>
      </trkpt>
      <trkpt lat="47.14517" lon="6.59292">
        <ele>700.8</ele>
        <time>2026-05-13T11:58:32Z</time>
      </trkpt>
      <trkpt lat="47.14565" lon="6.59318">
        <ele>700.8</ele>
        <time>2026-05-13T11:58:39Z</time>
      </trkpt>
      <trkpt lat="47.1458" lon="6.59324">
        <ele>700.2</ele>
        <time>2026-05-13T11:58:41Z</time>
      </trkpt>
      <trkpt lat="47.14615" lon="6.59336">
        <ele>699.8</ele>
        <time>2026-05-13T11:58:46Z</time>
      </trkpt>
      <trkpt lat="47.1466" lon="6.59356">
        <ele>699.8</ele>
        <time>2026-05-13T11:58:53Z</time>
      </trkpt>
      <trkpt lat="47.14686" lon="6.59381">
        <ele>700</ele>
        <time>2026-05-13T11:58:58Z</time>
      </trkpt>
      <trkpt lat="47.14703" lon="6.59403">
        <ele>700.4</ele>
        <time>2026-05-13T11:59:02Z</time>
      </trkpt>
      <trkpt lat="47.1471" lon="6.59416">
        <ele>700.6</ele>
        <time>2026-05-13T11:59:04Z</time>
      </trkpt>
      <trkpt lat="47.14733" lon="6.59465">
        <ele>700.6</ele>
        <time>2026-05-13T11:59:11Z</time>
      </trkpt>
      <trkpt lat="47.14753" lon="6.59528">
        <ele>700.2</ele>
        <time>2026-05-13T11:59:18Z</time>
      </trkpt>
      <trkpt lat="47.14764" lon="6.59567">
        <ele>700</ele>
        <time>2026-05-13T11:59:22Z</time>
      </trkpt>
      <trkpt lat="47.14769" lon="6.59586">
        <ele>700</ele>
        <time>2026-05-13T11:59:24Z</time>
      </trkpt>
      <trkpt lat="47.14788" lon="6.59647">
        <ele>700</ele>
        <time>2026-05-13T11:59:30Z</time>
      </trkpt>
      <trkpt lat="47.14808" lon="6.59702">
        <ele>699</ele>
        <time>2026-05-13T11:59:35Z</time>
      </trkpt>
      <trkpt lat="47.14816" lon="6.59728">
        <ele>698.2</ele>
        <time>2026-05-13T11:59:37Z</time>
      </trkpt>
      <trkpt lat="47.14822" lon="6.59749">
        <ele>697.6</ele>
        <time>2026-05-13T11:59:39Z</time>
      </trkpt>
      <trkpt lat="47.14839" lon="6.59808">
        <ele>696.6</ele>
        <time>2026-05-13T11:59:44Z</time>
      </trkpt>
      <trkpt lat="47.14842" lon="6.5982">
        <ele>696.4</ele>
        <time>2026-05-13T11:59:45Z</time>
      </trkpt>
      <trkpt lat="47.14857" lon="6.59865">
        <ele>696</ele>
        <time>2026-05-13T11:59:49Z</time>
      </trkpt>
      <trkpt lat="47.14868" lon="6.59887">
        <ele>696</ele>
        <time>2026-05-13T11:59:51Z</time>
      </trkpt>
      <trkpt lat="47.14885" lon="6.59915">
        <ele>695</ele>
        <time>2026-05-13T11:59:54Z</time>
      </trkpt>
      <trkpt lat="47.14892" lon="6.59923">
        <ele>694.8</ele>
        <time>2026-05-13T11:59:55Z</time>
      </trkpt>
      <trkpt lat="47.14899" lon="6.59931">
        <ele>694.4</ele>
        <time>2026-05-13T11:59:56Z</time>
      </trkpt>
      <trkpt lat="47.14908" lon="6.59937">
        <ele>693.8</ele>
        <time>2026-05-13T11:59:57Z</time>
      </trkpt>
      <trkpt lat="47.14924" lon="6.59941">
        <ele>693.6</ele>
        <time>2026-05-13T11:59:59Z</time>
      </trkpt>
      <trkpt lat="47.14949" lon="6.59935">
        <ele>693.4</ele>
        <time>2026-05-13T12:00:02Z</time>
      </trkpt>
      <trkpt lat="47.14991" lon="6.59922">
        <ele>693.2</ele>
        <time>2026-05-13T12:00:07Z</time>
      </trkpt>
      <trkpt lat="47.15034" lon="6.59904">
        <ele>692.8</ele>
        <time>2026-05-13T12:00:12Z</time>
      </trkpt>
      <trkpt lat="47.15039" lon="6.599">
        <ele>692.8</ele>
        <time>2026-05-13T12:00:13Z</time>
      </trkpt>
      <trkpt lat="47.15046" lon="6.59893">
        <ele>692.8</ele>
        <time>2026-05-13T12:00:14Z</time>
      </trkpt>
      <trkpt lat="47.15059" lon="6.59875">
        <ele>692.8</ele>
        <time>2026-05-13T12:00:16Z</time>
      </trkpt>
      <trkpt lat="47.1507" lon="6.59857">
        <ele>692.6</ele>
        <time>2026-05-13T12:00:18Z</time>
      </trkpt>
      <trkpt lat="47.151" lon="6.59816">
        <ele>692.4</ele>
        <time>2026-05-13T12:00:23Z</time>
      </trkpt>
      <trkpt lat="47.15136" lon="6.59777">
        <ele>691.8</ele>
        <time>2026-05-13T12:00:29Z</time>
      </trkpt>
      <trkpt lat="47.15148" lon="6.59761">
        <ele>691.6</ele>
        <time>2026-05-13T12:00:31Z</time>
      </trkpt>
      <trkpt lat="47.15158" lon="6.59743">
        <ele>691.2</ele>
        <time>2026-05-13T12:00:33Z</time>
      </trkpt>
      <trkpt lat="47.1517" lon="6.59711">
        <ele>690.4</ele>
        <time>2026-05-13T12:00:36Z</time>
      </trkpt>
      <trkpt lat="47.1518" lon="6.59677">
        <ele>689.6</ele>
        <time>2026-05-13T12:00:39Z</time>
      </trkpt>
      <trkpt lat="47.15184" lon="6.59664">
        <ele>689.2</ele>
        <time>2026-05-13T12:00:40Z</time>
      </trkpt>
      <trkpt lat="47.15197" lon="6.59634">
        <ele>688</ele>
        <time>2026-05-13T12:00:43Z</time>
      </trkpt>
      <trkpt lat="47.15203" lon="6.59624">
        <ele>687.8</ele>
        <time>2026-05-13T12:00:44Z</time>
      </trkpt>
      <trkpt lat="47.15219" lon="6.59606">
        <ele>687</ele>
        <time>2026-05-13T12:00:46Z</time>
      </trkpt>
      <trkpt lat="47.15228" lon="6.59601">
        <ele>686.8</ele>
        <time>2026-05-13T12:00:47Z</time>
      </trkpt>
      <trkpt lat="47.15243" lon="6.59595">
        <ele>686.4</ele>
        <time>2026-05-13T12:00:49Z</time>
      </trkpt>
      <trkpt lat="47.15269" lon="6.59581">
        <ele>686</ele>
        <time>2026-05-13T12:00:52Z</time>
      </trkpt>
      <trkpt lat="47.15277" lon="6.59579">
        <ele>685.8</ele>
        <time>2026-05-13T12:00:53Z</time>
      </trkpt>
      <trkpt lat="47.15286" lon="6.59578">
        <ele>685.4</ele>
        <time>2026-05-13T12:00:54Z</time>
      </trkpt>
      <trkpt lat="47.15305" lon="6.59577">
        <ele>684.6</ele>
        <time>2026-05-13T12:00:56Z</time>
      </trkpt>
      <trkpt lat="47.15332" lon="6.59582">
        <ele>683.8</ele>
        <time>2026-05-13T12:00:59Z</time>
      </trkpt>
      <trkpt lat="47.1534" lon="6.59585">
        <ele>683.2</ele>
        <time>2026-05-13T12:01:00Z</time>
      </trkpt>
      <trkpt lat="47.15351" lon="6.59591">
        <ele>683</ele>
        <time>2026-05-13T12:01:01Z</time>
      </trkpt>
      <trkpt lat="47.15372" lon="6.59611">
        <ele>682.2</ele>
        <time>2026-05-13T12:01:04Z</time>
      </trkpt>
      <trkpt lat="47.15395" lon="6.59633">
        <ele>680.8</ele>
        <time>2026-05-13T12:01:07Z</time>
      </trkpt>
      <trkpt lat="47.15417" lon="6.59647">
        <ele>680</ele>
        <time>2026-05-13T12:01:10Z</time>
      </trkpt>
      <trkpt lat="47.15428" lon="6.59654">
        <ele>679.6</ele>
        <time>2026-05-13T12:01:11Z</time>
      </trkpt>
      <trkpt lat="47.15443" lon="6.59672">
        <ele>679</ele>
        <time>2026-05-13T12:01:13Z</time>
      </trkpt>
      <trkpt lat="47.15453" lon="6.59692">
        <ele>678.2</ele>
        <time>2026-05-13T12:01:15Z</time>
      </trkpt>
      <trkpt lat="47.15457" lon="6.59706">
        <ele>677.6</ele>
        <time>2026-05-13T12:01:16Z</time>
      </trkpt>
      <trkpt lat="47.1546" lon="6.59718">
        <ele>677.2</ele>
        <time>2026-05-13T12:01:17Z</time>
      </trkpt>
      <trkpt lat="47.15465" lon="6.59761">
        <ele>676</ele>
        <time>2026-05-13T12:01:20Z</time>
      </trkpt>
      <trkpt lat="47.15467" lon="6.59776">
        <ele>675.6</ele>
        <time>2026-05-13T12:01:21Z</time>
      </trkpt>
      <trkpt lat="47.15466" lon="6.59806">
        <ele>674.6</ele>
        <time>2026-05-13T12:01:23Z</time>
      </trkpt>
      <trkpt lat="47.15465" lon="6.5982">
        <ele>674.4</ele>
        <time>2026-05-13T12:01:24Z</time>
      </trkpt>
      <trkpt lat="47.15458" lon="6.59848">
        <ele>672.8</ele>
        <time>2026-05-13T12:01:26Z</time>
      </trkpt>
      <trkpt lat="47.15447" lon="6.59875">
        <ele>671.8</ele>
        <time>2026-05-13T12:01:28Z</time>
      </trkpt>
      <trkpt lat="47.15439" lon="6.59888">
        <ele>671</ele>
        <time>2026-05-13T12:01:29Z</time>
      </trkpt>
      <trkpt lat="47.15431" lon="6.59899">
        <ele>670.4</ele>
        <time>2026-05-13T12:01:30Z</time>
      </trkpt>
      <trkpt lat="47.15421" lon="6.5991">
        <ele>669.4</ele>
        <time>2026-05-13T12:01:31Z</time>
      </trkpt>
      <trkpt lat="47.15403" lon="6.59934">
        <ele>668.2</ele>
        <time>2026-05-13T12:01:33Z</time>
      </trkpt>
      <trkpt lat="47.15387" lon="6.59959">
        <ele>666.8</ele>
        <time>2026-05-13T12:01:35Z</time>
      </trkpt>
      <trkpt lat="47.15377" lon="6.59968">
        <ele>665.8</ele>
        <time>2026-05-13T12:01:36Z</time>
      </trkpt>
      <trkpt lat="47.15367" lon="6.59974">
        <ele>665.2</ele>
        <time>2026-05-13T12:01:37Z</time>
      </trkpt>
      <trkpt lat="47.15348" lon="6.59983">
        <ele>663.6</ele>
        <time>2026-05-13T12:01:39Z</time>
      </trkpt>
      <trkpt lat="47.1534" lon="6.59991">
        <ele>663.2</ele>
        <time>2026-05-13T12:01:40Z</time>
      </trkpt>
      <trkpt lat="47.15334" lon="6.6">
        <ele>662.6</ele>
        <time>2026-05-13T12:01:41Z</time>
      </trkpt>
      <trkpt lat="47.15332" lon="6.60011">
        <ele>662.4</ele>
        <time>2026-05-13T12:01:42Z</time>
      </trkpt>
      <trkpt lat="47.15335" lon="6.60031">
        <ele>661.6</ele>
        <time>2026-05-13T12:01:44Z</time>
      </trkpt>
      <trkpt lat="47.15341" lon="6.60041">
        <ele>660.8</ele>
        <time>2026-05-13T12:01:45Z</time>
      </trkpt>
      <trkpt lat="47.15347" lon="6.60047">
        <ele>660.4</ele>
        <time>2026-05-13T12:01:46Z</time>
      </trkpt>
      <trkpt lat="47.15356" lon="6.60052">
        <ele>660</ele>
        <time>2026-05-13T12:01:47Z</time>
      </trkpt>
      <trkpt lat="47.15365" lon="6.60056">
        <ele>659.4</ele>
        <time>2026-05-13T12:01:48Z</time>
      </trkpt>
      <trkpt lat="47.15385" lon="6.60063">
        <ele>658</ele>
        <time>2026-05-13T12:01:50Z</time>
      </trkpt>
      <trkpt lat="47.15408" lon="6.60071">
        <ele>657</ele>
        <time>2026-05-13T12:01:52Z</time>
      </trkpt>
      <trkpt lat="47.15417" lon="6.60075">
        <ele>656.4</ele>
        <time>2026-05-13T12:01:53Z</time>
      </trkpt>
      <trkpt lat="47.15441" lon="6.60085">
        <ele>655.4</ele>
        <time>2026-05-13T12:01:55Z</time>
      </trkpt>
      <trkpt lat="47.15452" lon="6.60091">
        <ele>654.8</ele>
        <time>2026-05-13T12:01:56Z</time>
      </trkpt>
      <trkpt lat="47.15463" lon="6.60097">
        <ele>654.6</ele>
        <time>2026-05-13T12:01:57Z</time>
      </trkpt>
      <trkpt lat="47.15474" lon="6.60102">
        <ele>653.6</ele>
        <time>2026-05-13T12:01:58Z</time>
      </trkpt>
      <trkpt lat="47.15497" lon="6.60112">
        <ele>652.2</ele>
        <time>2026-05-13T12:02:00Z</time>
      </trkpt>
      <trkpt lat="47.15509" lon="6.60119">
        <ele>651.8</ele>
        <time>2026-05-13T12:02:01Z</time>
      </trkpt>
      <trkpt lat="47.15532" lon="6.60132">
        <ele>650.6</ele>
        <time>2026-05-13T12:02:03Z</time>
      </trkpt>
      <trkpt lat="47.15554" lon="6.60146">
        <ele>649.8</ele>
        <time>2026-05-13T12:02:05Z</time>
      </trkpt>
      <trkpt lat="47.15565" lon="6.60154">
        <ele>649.4</ele>
        <time>2026-05-13T12:02:06Z</time>
      </trkpt>
      <trkpt lat="47.15576" lon="6.60163">
        <ele>648.2</ele>
        <time>2026-05-13T12:02:07Z</time>
      </trkpt>
      <trkpt lat="47.15598" lon="6.60181">
        <ele>647</ele>
        <time>2026-05-13T12:02:09Z</time>
      </trkpt>
      <trkpt lat="47.15607" lon="6.6019">
        <ele>646.4</ele>
        <time>2026-05-13T12:02:10Z</time>
      </trkpt>
      <trkpt lat="47.15618" lon="6.60198">
        <ele>646</ele>
        <time>2026-05-13T12:02:11Z</time>
      </trkpt>
      <trkpt lat="47.15629" lon="6.60204">
        <ele>645</ele>
        <time>2026-05-13T12:02:12Z</time>
      </trkpt>
      <trkpt lat="47.1564" lon="6.6021">
        <ele>644.2</ele>
        <time>2026-05-13T12:02:13Z</time>
      </trkpt>
      <trkpt lat="47.15651" lon="6.60214">
        <ele>644</ele>
        <time>2026-05-13T12:02:14Z</time>
      </trkpt>
      <trkpt lat="47.15675" lon="6.60224">
        <ele>642.6</ele>
        <time>2026-05-13T12:02:16Z</time>
      </trkpt>
      <trkpt lat="47.15698" lon="6.60234">
        <ele>641.6</ele>
        <time>2026-05-13T12:02:18Z</time>
      </trkpt>
      <trkpt lat="47.15709" lon="6.60241">
        <ele>640.8</ele>
        <time>2026-05-13T12:02:19Z</time>
      </trkpt>
      <trkpt lat="47.1572" lon="6.60248">
        <ele>639.4</ele>
        <time>2026-05-13T12:02:20Z</time>
      </trkpt>
      <trkpt lat="47.15741" lon="6.60261">
        <ele>637.8</ele>
        <time>2026-05-13T12:02:22Z</time>
      </trkpt>
      <trkpt lat="47.15761" lon="6.6028">
        <ele>636.8</ele>
        <time>2026-05-13T12:02:24Z</time>
      </trkpt>
      <trkpt lat="47.1578" lon="6.60298">
        <ele>635.4</ele>
        <time>2026-05-13T12:02:26Z</time>
      </trkpt>
      <trkpt lat="47.1579" lon="6.60303">
        <ele>634.4</ele>
        <time>2026-05-13T12:02:27Z</time>
      </trkpt>
      <trkpt lat="47.158" lon="6.60307">
        <ele>633.8</ele>
        <time>2026-05-13T12:02:28Z</time>
      </trkpt>
      <trkpt lat="47.15811" lon="6.6031">
        <ele>632.8</ele>
        <time>2026-05-13T12:02:29Z</time>
      </trkpt>
      <trkpt lat="47.15822" lon="6.60312">
        <ele>631.6</ele>
        <time>2026-05-13T12:02:30Z</time>
      </trkpt>
      <trkpt lat="47.15832" lon="6.60312">
        <ele>631</ele>
        <time>2026-05-13T12:02:31Z</time>
      </trkpt>
      <trkpt lat="47.15843" lon="6.60311">
        <ele>630</ele>
        <time>2026-05-13T12:02:32Z</time>
      </trkpt>
      <trkpt lat="47.15865" lon="6.60305">
        <ele>629</ele>
        <time>2026-05-13T12:02:34Z</time>
      </trkpt>
      <trkpt lat="47.15887" lon="6.60303">
        <ele>627.8</ele>
        <time>2026-05-13T12:02:36Z</time>
      </trkpt>
      <trkpt lat="47.15897" lon="6.60303">
        <ele>627</ele>
        <time>2026-05-13T12:02:37Z</time>
      </trkpt>
      <trkpt lat="47.15908" lon="6.60307">
        <ele>626.4</ele>
        <time>2026-05-13T12:02:38Z</time>
      </trkpt>
      <trkpt lat="47.15918" lon="6.60312">
        <ele>625.4</ele>
        <time>2026-05-13T12:02:39Z</time>
      </trkpt>
      <trkpt lat="47.15928" lon="6.60319">
        <ele>624.8</ele>
        <time>2026-05-13T12:02:40Z</time>
      </trkpt>
      <trkpt lat="47.15938" lon="6.60327">
        <ele>624</ele>
        <time>2026-05-13T12:02:41Z</time>
      </trkpt>
      <trkpt lat="47.15958" lon="6.60349">
        <ele>623.2</ele>
        <time>2026-05-13T12:02:43Z</time>
      </trkpt>
      <trkpt lat="47.15968" lon="6.60361">
        <ele>622</ele>
        <time>2026-05-13T12:02:44Z</time>
      </trkpt>
      <trkpt lat="47.15993" lon="6.60392">
        <ele>621</ele>
        <time>2026-05-13T12:02:47Z</time>
      </trkpt>
      <trkpt lat="47.16002" lon="6.60398">
        <ele>620.4</ele>
        <time>2026-05-13T12:02:48Z</time>
      </trkpt>
      <trkpt lat="47.16012" lon="6.60402">
        <ele>619.2</ele>
        <time>2026-05-13T12:02:49Z</time>
      </trkpt>
      <trkpt lat="47.16032" lon="6.60401">
        <ele>617.8</ele>
        <time>2026-05-13T12:02:51Z</time>
      </trkpt>
      <trkpt lat="47.16053" lon="6.60392">
        <ele>616.4</ele>
        <time>2026-05-13T12:02:53Z</time>
      </trkpt>
      <trkpt lat="47.16064" lon="6.60387">
        <ele>615.6</ele>
        <time>2026-05-13T12:02:54Z</time>
      </trkpt>
      <trkpt lat="47.16074" lon="6.60381">
        <ele>615.2</ele>
        <time>2026-05-13T12:02:55Z</time>
      </trkpt>
      <trkpt lat="47.16095" lon="6.60369">
        <ele>614</ele>
        <time>2026-05-13T12:02:57Z</time>
      </trkpt>
      <trkpt lat="47.16105" lon="6.60364">
        <ele>613.2</ele>
        <time>2026-05-13T12:02:58Z</time>
      </trkpt>
      <trkpt lat="47.16116" lon="6.60359">
        <ele>612.4</ele>
        <time>2026-05-13T12:02:59Z</time>
      </trkpt>
      <trkpt lat="47.16129" lon="6.60355">
        <ele>612.2</ele>
        <time>2026-05-13T12:03:00Z</time>
      </trkpt>
      <trkpt lat="47.16138" lon="6.60352">
        <ele>611.2</ele>
        <time>2026-05-13T12:03:01Z</time>
      </trkpt>
      <trkpt lat="47.16149" lon="6.60349">
        <ele>610.6</ele>
        <time>2026-05-13T12:03:02Z</time>
      </trkpt>
      <trkpt lat="47.16161" lon="6.60349">
        <ele>609.2</ele>
        <time>2026-05-13T12:03:03Z</time>
      </trkpt>
      <trkpt lat="47.16172" lon="6.6035">
        <ele>608.8</ele>
        <time>2026-05-13T12:03:04Z</time>
      </trkpt>
      <trkpt lat="47.16184" lon="6.6035">
        <ele>608</ele>
        <time>2026-05-13T12:03:05Z</time>
      </trkpt>
      <trkpt lat="47.16206" lon="6.6035">
        <ele>607</ele>
        <time>2026-05-13T12:03:07Z</time>
      </trkpt>
      <trkpt lat="47.16228" lon="6.60351">
        <ele>605.4</ele>
        <time>2026-05-13T12:03:09Z</time>
      </trkpt>
      <trkpt lat="47.1625" lon="6.60349">
        <ele>603.6</ele>
        <time>2026-05-13T12:03:11Z</time>
      </trkpt>
      <trkpt lat="47.16261" lon="6.60348">
        <ele>603.2</ele>
        <time>2026-05-13T12:03:12Z</time>
      </trkpt>
      <trkpt lat="47.16276" lon="6.60345">
        <ele>602.4</ele>
        <time>2026-05-13T12:03:13Z</time>
      </trkpt>
      <trkpt lat="47.16298" lon="6.6034">
        <ele>600.8</ele>
        <time>2026-05-13T12:03:15Z</time>
      </trkpt>
      <trkpt lat="47.16322" lon="6.60336">
        <ele>599.4</ele>
        <time>2026-05-13T12:03:17Z</time>
      </trkpt>
      <trkpt lat="47.16345" lon="6.60328">
        <ele>598.2</ele>
        <time>2026-05-13T12:03:19Z</time>
      </trkpt>
      <trkpt lat="47.1638" lon="6.60305">
        <ele>596.6</ele>
        <time>2026-05-13T12:03:22Z</time>
      </trkpt>
      <trkpt lat="47.16388" lon="6.60298">
        <ele>595.8</ele>
        <time>2026-05-13T12:03:23Z</time>
      </trkpt>
      <trkpt lat="47.16398" lon="6.60289">
        <ele>595.4</ele>
        <time>2026-05-13T12:03:24Z</time>
      </trkpt>
      <trkpt lat="47.16418" lon="6.60271">
        <ele>594</ele>
        <time>2026-05-13T12:03:26Z</time>
      </trkpt>
      <trkpt lat="47.16429" lon="6.60264">
        <ele>592.8</ele>
        <time>2026-05-13T12:03:27Z</time>
      </trkpt>
      <trkpt lat="47.16439" lon="6.60258">
        <ele>592</ele>
        <time>2026-05-13T12:03:28Z</time>
      </trkpt>
      <trkpt lat="47.1645" lon="6.60254">
        <ele>591.8</ele>
        <time>2026-05-13T12:03:29Z</time>
      </trkpt>
      <trkpt lat="47.16462" lon="6.60251">
        <ele>590.4</ele>
        <time>2026-05-13T12:03:30Z</time>
      </trkpt>
      <trkpt lat="47.16486" lon="6.60247">
        <ele>588.6</ele>
        <time>2026-05-13T12:03:32Z</time>
      </trkpt>
      <trkpt lat="47.16508" lon="6.60244">
        <ele>587.4</ele>
        <time>2026-05-13T12:03:34Z</time>
      </trkpt>
      <trkpt lat="47.16531" lon="6.6024">
        <ele>586</ele>
        <time>2026-05-13T12:03:36Z</time>
      </trkpt>
      <trkpt lat="47.16542" lon="6.60236">
        <ele>585.2</ele>
        <time>2026-05-13T12:03:37Z</time>
      </trkpt>
      <trkpt lat="47.16553" lon="6.60232">
        <ele>584.8</ele>
        <time>2026-05-13T12:03:38Z</time>
      </trkpt>
      <trkpt lat="47.16575" lon="6.6022">
        <ele>583</ele>
        <time>2026-05-13T12:03:40Z</time>
      </trkpt>
      <trkpt lat="47.16595" lon="6.60208">
        <ele>581.4</ele>
        <time>2026-05-13T12:03:42Z</time>
      </trkpt>
      <trkpt lat="47.16616" lon="6.60194">
        <ele>579.6</ele>
        <time>2026-05-13T12:03:44Z</time>
      </trkpt>
      <trkpt lat="47.16637" lon="6.6018">
        <ele>578.4</ele>
        <time>2026-05-13T12:03:46Z</time>
      </trkpt>
      <trkpt lat="47.16659" lon="6.60171">
        <ele>577.2</ele>
        <time>2026-05-13T12:03:48Z</time>
      </trkpt>
      <trkpt lat="47.1668" lon="6.60161">
        <ele>575.8</ele>
        <time>2026-05-13T12:03:50Z</time>
      </trkpt>
      <trkpt lat="47.1669" lon="6.60155">
        <ele>575.2</ele>
        <time>2026-05-13T12:03:51Z</time>
      </trkpt>
      <trkpt lat="47.167" lon="6.60149">
        <ele>574.2</ele>
        <time>2026-05-13T12:03:52Z</time>
      </trkpt>
      <trkpt lat="47.16721" lon="6.60135">
        <ele>572.6</ele>
        <time>2026-05-13T12:03:54Z</time>
      </trkpt>
      <trkpt lat="47.16742" lon="6.60122">
        <ele>571.4</ele>
        <time>2026-05-13T12:03:56Z</time>
      </trkpt>
      <trkpt lat="47.16752" lon="6.60117">
        <ele>570.4</ele>
        <time>2026-05-13T12:03:57Z</time>
      </trkpt>
      <trkpt lat="47.16763" lon="6.60112">
        <ele>569.8</ele>
        <time>2026-05-13T12:03:58Z</time>
      </trkpt>
      <trkpt lat="47.16784" lon="6.60104">
        <ele>568.8</ele>
        <time>2026-05-13T12:04:00Z</time>
      </trkpt>
      <trkpt lat="47.16795" lon="6.60102">
        <ele>567.8</ele>
        <time>2026-05-13T12:04:01Z</time>
      </trkpt>
      <trkpt lat="47.16805" lon="6.60101">
        <ele>567</ele>
        <time>2026-05-13T12:04:02Z</time>
      </trkpt>
      <trkpt lat="47.16827" lon="6.60099">
        <ele>565.8</ele>
        <time>2026-05-13T12:04:04Z</time>
      </trkpt>
      <trkpt lat="47.16838" lon="6.60097">
        <ele>565.2</ele>
        <time>2026-05-13T12:04:05Z</time>
      </trkpt>
      <trkpt lat="47.16848" lon="6.60094">
        <ele>564.2</ele>
        <time>2026-05-13T12:04:06Z</time>
      </trkpt>
      <trkpt lat="47.16868" lon="6.6008">
        <ele>562.8</ele>
        <time>2026-05-13T12:04:08Z</time>
      </trkpt>
      <trkpt lat="47.16889" lon="6.60067">
        <ele>561.8</ele>
        <time>2026-05-13T12:04:10Z</time>
      </trkpt>
      <trkpt lat="47.16911" lon="6.60057">
        <ele>560.4</ele>
        <time>2026-05-13T12:04:12Z</time>
      </trkpt>
      <trkpt lat="47.16921" lon="6.60054">
        <ele>559.6</ele>
        <time>2026-05-13T12:04:13Z</time>
      </trkpt>
      <trkpt lat="47.16931" lon="6.6005">
        <ele>558.8</ele>
        <time>2026-05-13T12:04:14Z</time>
      </trkpt>
      <trkpt lat="47.16952" lon="6.60043">
        <ele>557.8</ele>
        <time>2026-05-13T12:04:16Z</time>
      </trkpt>
      <trkpt lat="47.16971" lon="6.60037">
        <ele>556.2</ele>
        <time>2026-05-13T12:04:18Z</time>
      </trkpt>
      <trkpt lat="47.16987" lon="6.60031">
        <ele>554.8</ele>
        <time>2026-05-13T12:04:20Z</time>
      </trkpt>
      <trkpt lat="47.16994" lon="6.60032">
        <ele>554.2</ele>
        <time>2026-05-13T12:04:21Z</time>
      </trkpt>
      <trkpt lat="47.17" lon="6.60038">
        <ele>553.6</ele>
        <time>2026-05-13T12:04:22Z</time>
      </trkpt>
      <trkpt lat="47.17006" lon="6.60053">
        <ele>552</ele>
        <time>2026-05-13T12:04:24Z</time>
      </trkpt>
      <trkpt lat="47.16997" lon="6.60065">
        <ele>550.6</ele>
        <time>2026-05-13T12:04:26Z</time>
      </trkpt>
      <trkpt lat="47.1699" lon="6.60068">
        <ele>550.4</ele>
        <time>2026-05-13T12:04:27Z</time>
      </trkpt>
      <trkpt lat="47.16983" lon="6.6007">
        <ele>549.2</ele>
        <time>2026-05-13T12:04:28Z</time>
      </trkpt>
      <trkpt lat="47.16975" lon="6.60071">
        <ele>548.8</ele>
        <time>2026-05-13T12:04:29Z</time>
      </trkpt>
      <trkpt lat="47.16967" lon="6.60072">
        <ele>548.2</ele>
        <time>2026-05-13T12:04:30Z</time>
      </trkpt>
      <trkpt lat="47.16945" lon="6.60077">
        <ele>547</ele>
        <time>2026-05-13T12:04:32Z</time>
      </trkpt>
      <trkpt lat="47.16935" lon="6.6008">
        <ele>546.4</ele>
        <time>2026-05-13T12:04:33Z</time>
      </trkpt>
      <trkpt lat="47.16924" lon="6.60086">
        <ele>546</ele>
        <time>2026-05-13T12:04:34Z</time>
      </trkpt>
      <trkpt lat="47.16915" lon="6.60093">
        <ele>545.4</ele>
        <time>2026-05-13T12:04:35Z</time>
      </trkpt>
      <trkpt lat="47.16902" lon="6.60103">
        <ele>544.8</ele>
        <time>2026-05-13T12:04:36Z</time>
      </trkpt>
      <trkpt lat="47.16892" lon="6.60115">
        <ele>544.4</ele>
        <time>2026-05-13T12:04:37Z</time>
      </trkpt>
      <trkpt lat="47.16873" lon="6.60135">
        <ele>543.6</ele>
        <time>2026-05-13T12:04:40Z</time>
      </trkpt>
      <trkpt lat="47.16864" lon="6.60145">
        <ele>543</ele>
        <time>2026-05-13T12:04:41Z</time>
      </trkpt>
      <trkpt lat="47.16844" lon="6.60164">
        <ele>542.2</ele>
        <time>2026-05-13T12:04:43Z</time>
      </trkpt>
      <trkpt lat="47.16824" lon="6.60179">
        <ele>541</ele>
        <time>2026-05-13T12:04:45Z</time>
      </trkpt>
      <trkpt lat="47.16812" lon="6.60186">
        <ele>540.4</ele>
        <time>2026-05-13T12:04:46Z</time>
      </trkpt>
      <trkpt lat="47.16802" lon="6.60189">
        <ele>539.8</ele>
        <time>2026-05-13T12:04:47Z</time>
      </trkpt>
      <trkpt lat="47.16793" lon="6.60189">
        <ele>538.8</ele>
        <time>2026-05-13T12:04:48Z</time>
      </trkpt>
      <trkpt lat="47.16771" lon="6.60191">
        <ele>537.4</ele>
        <time>2026-05-13T12:04:50Z</time>
      </trkpt>
      <trkpt lat="47.16754" lon="6.60209">
        <ele>536.2</ele>
        <time>2026-05-13T12:04:52Z</time>
      </trkpt>
      <trkpt lat="47.16746" lon="6.60232">
        <ele>535</ele>
        <time>2026-05-13T12:04:54Z</time>
      </trkpt>
      <trkpt lat="47.16753" lon="6.60243">
        <ele>533.4</ele>
        <time>2026-05-13T12:04:56Z</time>
      </trkpt>
      <trkpt lat="47.16759" lon="6.60247">
        <ele>532.6</ele>
        <time>2026-05-13T12:04:57Z</time>
      </trkpt>
      <trkpt lat="47.16765" lon="6.60247">
        <ele>531.8</ele>
        <time>2026-05-13T12:04:58Z</time>
      </trkpt>
      <trkpt lat="47.16771" lon="6.60247">
        <ele>531.6</ele>
        <time>2026-05-13T12:04:59Z</time>
      </trkpt>
      <trkpt lat="47.16778" lon="6.60247">
        <ele>530.8</ele>
        <time>2026-05-13T12:05:00Z</time>
      </trkpt>
      <trkpt lat="47.16793" lon="6.60252">
        <ele>529.8</ele>
        <time>2026-05-13T12:05:02Z</time>
      </trkpt>
      <trkpt lat="47.16803" lon="6.60257">
        <ele>529.4</ele>
        <time>2026-05-13T12:05:03Z</time>
      </trkpt>
      <trkpt lat="47.16822" lon="6.60267">
        <ele>528</ele>
        <time>2026-05-13T12:05:05Z</time>
      </trkpt>
      <trkpt lat="47.16832" lon="6.60274">
        <ele>526.8</ele>
        <time>2026-05-13T12:05:06Z</time>
      </trkpt>
      <trkpt lat="47.16841" lon="6.60279">
        <ele>526.4</ele>
        <time>2026-05-13T12:05:07Z</time>
      </trkpt>
      <trkpt lat="47.16851" lon="6.60285">
        <ele>525.4</ele>
        <time>2026-05-13T12:05:08Z</time>
      </trkpt>
      <trkpt lat="47.16887" lon="6.6031">
        <ele>524.4</ele>
        <time>2026-05-13T12:05:12Z</time>
      </trkpt>
      <trkpt lat="47.16895" lon="6.60316">
        <ele>523.8</ele>
        <time>2026-05-13T12:05:13Z</time>
      </trkpt>
      <trkpt lat="47.1692" lon="6.60332">
        <ele>523</ele>
        <time>2026-05-13T12:05:16Z</time>
      </trkpt>
      <trkpt lat="47.16943" lon="6.60347">
        <ele>522</ele>
        <time>2026-05-13T12:05:19Z</time>
      </trkpt>
      <trkpt lat="47.16963" lon="6.6036">
        <ele>521.6</ele>
        <time>2026-05-13T12:05:22Z</time>
      </trkpt>
      <trkpt lat="47.16984" lon="6.60373">
        <ele>521.4</ele>
        <time>2026-05-13T12:05:25Z</time>
      </trkpt>
      <trkpt lat="47.17026" lon="6.60403">
        <ele>521.4</ele>
        <time>2026-05-13T12:05:31Z</time>
      </trkpt>
      <trkpt lat="47.17035" lon="6.60416">
        <ele>521.4</ele>
        <time>2026-05-13T12:05:33Z</time>
      </trkpt>
      <trkpt lat="47.17042" lon="6.6043">
        <ele>521.6</ele>
        <time>2026-05-13T12:05:35Z</time>
      </trkpt>
      <trkpt lat="47.17057" lon="6.60456">
        <ele>521.6</ele>
        <time>2026-05-13T12:05:39Z</time>
      </trkpt>
      <trkpt lat="47.17065" lon="6.60465">
        <ele>521.8</ele>
        <time>2026-05-13T12:05:41Z</time>
      </trkpt>
      <trkpt lat="47.171" lon="6.60504">
        <ele>522</ele>
        <time>2026-05-13T12:05:48Z</time>
      </trkpt>
      <trkpt lat="47.17136" lon="6.60538">
        <ele>522</ele>
        <time>2026-05-13T12:05:55Z</time>
      </trkpt>
      <trkpt lat="47.1715" lon="6.6055">
        <ele>522.2</ele>
        <time>2026-05-13T12:05:58Z</time>
      </trkpt>
      <trkpt lat="47.17158" lon="6.6056">
        <ele>522.2</ele>
        <time>2026-05-13T12:06:00Z</time>
      </trkpt>
      <trkpt lat="47.17175" lon="6.60586">
        <ele>522.8</ele>
        <time>2026-05-13T12:06:05Z</time>
      </trkpt>
      <trkpt lat="47.17178" lon="6.60591">
        <ele>523</ele>
        <time>2026-05-13T12:06:06Z</time>
      </trkpt>
      <trkpt lat="47.17182" lon="6.60602">
        <ele>523.2</ele>
        <time>2026-05-13T12:06:08Z</time>
      </trkpt>
      <trkpt lat="47.17193" lon="6.60629">
        <ele>524.2</ele>
        <time>2026-05-13T12:06:12Z</time>
      </trkpt>
      <trkpt lat="47.17196" lon="6.60638">
        <ele>524.4</ele>
        <time>2026-05-13T12:06:13Z</time>
      </trkpt>
      <trkpt lat="47.17207" lon="6.60663">
        <ele>524.2</ele>
        <time>2026-05-13T12:06:16Z</time>
      </trkpt>
      <trkpt lat="47.17221" lon="6.60682">
        <ele>523.8</ele>
        <time>2026-05-13T12:06:19Z</time>
      </trkpt>
      <trkpt lat="47.17232" lon="6.60692">
        <ele>523.2</ele>
        <time>2026-05-13T12:06:21Z</time>
      </trkpt>
      <trkpt lat="47.17256" lon="6.60703">
        <ele>522.6</ele>
        <time>2026-05-13T12:06:25Z</time>
      </trkpt>
      <trkpt lat="47.17298" lon="6.60716">
        <ele>522.4</ele>
        <time>2026-05-13T12:06:31Z</time>
      </trkpt>
      <trkpt lat="47.17327" lon="6.60727">
        <ele>522.4</ele>
        <time>2026-05-13T12:06:35Z</time>
      </trkpt>
      <trkpt lat="47.17335" lon="6.60734">
        <ele>522.4</ele>
        <time>2026-05-13T12:06:36Z</time>
      </trkpt>
      <trkpt lat="47.17342" lon="6.60742">
        <ele>522.4</ele>
        <time>2026-05-13T12:06:37Z</time>
      </trkpt>
      <trkpt lat="47.1736" lon="6.60767">
        <ele>522.2</ele>
        <time>2026-05-13T12:06:40Z</time>
      </trkpt>
      <trkpt lat="47.17366" lon="6.60777">
        <ele>522</ele>
        <time>2026-05-13T12:06:41Z</time>
      </trkpt>
      <trkpt lat="47.17382" lon="6.60802">
        <ele>521.2</ele>
        <time>2026-05-13T12:06:44Z</time>
      </trkpt>
      <trkpt lat="47.17388" lon="6.6081">
        <ele>521</ele>
        <time>2026-05-13T12:06:45Z</time>
      </trkpt>
      <trkpt lat="47.17394" lon="6.60817">
        <ele>521</ele>
        <time>2026-05-13T12:06:46Z</time>
      </trkpt>
      <trkpt lat="47.17425" lon="6.60852">
        <ele>520.4</ele>
        <time>2026-05-13T12:06:51Z</time>
      </trkpt>
      <trkpt lat="47.17454" lon="6.60885">
        <ele>520</ele>
        <time>2026-05-13T12:06:56Z</time>
      </trkpt>
      <trkpt lat="47.17479" lon="6.60921">
        <ele>520.2</ele>
        <time>2026-05-13T12:07:02Z</time>
      </trkpt>
      <trkpt lat="47.17491" lon="6.60939">
        <ele>520.2</ele>
        <time>2026-05-13T12:07:05Z</time>
      </trkpt>
      <trkpt lat="47.17496" lon="6.60953">
        <ele>520</ele>
        <time>2026-05-13T12:07:07Z</time>
      </trkpt>
      <trkpt lat="47.17496" lon="6.60969">
        <ele>520</ele>
        <time>2026-05-13T12:07:09Z</time>
      </trkpt>
      <trkpt lat="47.17495" lon="6.60977">
        <ele>519.8</ele>
        <time>2026-05-13T12:07:10Z</time>
      </trkpt>
      <trkpt lat="47.17492" lon="6.60984">
        <ele>519.8</ele>
        <time>2026-05-13T12:07:11Z</time>
      </trkpt>
      <trkpt lat="47.17482" lon="6.61003">
        <ele>519.8</ele>
        <time>2026-05-13T12:07:14Z</time>
      </trkpt>
      <trkpt lat="47.17475" lon="6.61021">
        <ele>519.8</ele>
        <time>2026-05-13T12:07:17Z</time>
      </trkpt>
      <trkpt lat="47.17473" lon="6.61027">
        <ele>520</ele>
        <time>2026-05-13T12:07:18Z</time>
      </trkpt>
      <trkpt lat="47.17473" lon="6.61048">
        <ele>521</ele>
        <time>2026-05-13T12:07:22Z</time>
      </trkpt>
      <trkpt lat="47.17474" lon="6.61054">
        <ele>521.6</ele>
        <time>2026-05-13T12:07:23Z</time>
      </trkpt>
      <trkpt lat="47.17478" lon="6.61069">
        <ele>522.2</ele>
        <time>2026-05-13T12:07:26Z</time>
      </trkpt>
      <trkpt lat="47.17482" lon="6.61074">
        <ele>522.4</ele>
        <time>2026-05-13T12:07:27Z</time>
      </trkpt>
      <trkpt lat="47.17487" lon="6.61078">
        <ele>522.6</ele>
        <time>2026-05-13T12:07:28Z</time>
      </trkpt>
      <trkpt lat="47.17503" lon="6.61093">
        <ele>523</ele>
        <time>2026-05-13T12:07:32Z</time>
      </trkpt>
      <trkpt lat="47.17508" lon="6.61097">
        <ele>523</ele>
        <time>2026-05-13T12:07:33Z</time>
      </trkpt>
      <trkpt lat="47.17522" lon="6.61103">
        <ele>523.2</ele>
        <time>2026-05-13T12:07:36Z</time>
      </trkpt>
      <trkpt lat="47.17551" lon="6.61113">
        <ele>523.2</ele>
        <time>2026-05-13T12:07:41Z</time>
      </trkpt>
      <trkpt lat="47.17558" lon="6.61116">
        <ele>523.2</ele>
        <time>2026-05-13T12:07:42Z</time>
      </trkpt>
      <trkpt lat="47.17581" lon="6.61128">
        <ele>523.2</ele>
        <time>2026-05-13T12:07:46Z</time>
      </trkpt>
      <trkpt lat="47.17593" lon="6.61135">
        <ele>523.2</ele>
        <time>2026-05-13T12:07:48Z</time>
      </trkpt>
      <trkpt lat="47.17599" lon="6.6114">
        <ele>523.2</ele>
        <time>2026-05-13T12:07:49Z</time>
      </trkpt>
      <trkpt lat="47.17639" lon="6.61155">
        <ele>522.6</ele>
        <time>2026-05-13T12:07:55Z</time>
      </trkpt>
      <trkpt lat="47.1766" lon="6.61164">
        <ele>522.2</ele>
        <time>2026-05-13T12:07:58Z</time>
      </trkpt>
      <trkpt lat="47.17666" lon="6.61169">
        <ele>522</ele>
        <time>2026-05-13T12:07:59Z</time>
      </trkpt>
      <trkpt lat="47.17677" lon="6.61187">
        <ele>521.6</ele>
        <time>2026-05-13T12:08:01Z</time>
      </trkpt>
      <trkpt lat="47.17681" lon="6.61196">
        <ele>521.2</ele>
        <time>2026-05-13T12:08:02Z</time>
      </trkpt>
      <trkpt lat="47.17689" lon="6.61215">
        <ele>520.6</ele>
        <time>2026-05-13T12:08:04Z</time>
      </trkpt>
      <trkpt lat="47.17692" lon="6.61227">
        <ele>520</ele>
        <time>2026-05-13T12:08:05Z</time>
      </trkpt>
      <trkpt lat="47.17695" lon="6.61239">
        <ele>519.8</ele>
        <time>2026-05-13T12:08:06Z</time>
      </trkpt>
      <trkpt lat="47.17699" lon="6.61254">
        <ele>519.2</ele>
        <time>2026-05-13T12:08:07Z</time>
      </trkpt>
      <trkpt lat="47.17702" lon="6.61266">
        <ele>519</ele>
        <time>2026-05-13T12:08:08Z</time>
      </trkpt>
      <trkpt lat="47.17713" lon="6.61299">
        <ele>517.8</ele>
        <time>2026-05-13T12:08:11Z</time>
      </trkpt>
      <trkpt lat="47.17728" lon="6.61343">
        <ele>516.8</ele>
        <time>2026-05-13T12:08:15Z</time>
      </trkpt>
      <trkpt lat="47.17735" lon="6.61367">
        <ele>516.6</ele>
        <time>2026-05-13T12:08:17Z</time>
      </trkpt>
      <trkpt lat="47.17752" lon="6.61421">
        <ele>516.4</ele>
        <time>2026-05-13T12:08:23Z</time>
      </trkpt>
      <trkpt lat="47.17761" lon="6.61432">
        <ele>516.4</ele>
        <time>2026-05-13T12:08:25Z</time>
      </trkpt>
      <trkpt lat="47.17772" lon="6.61444">
        <ele>516.2</ele>
        <time>2026-05-13T12:08:27Z</time>
      </trkpt>
      <trkpt lat="47.17802" lon="6.61485">
        <ele>516</ele>
        <time>2026-05-13T12:08:33Z</time>
      </trkpt>
      <trkpt lat="47.1781" lon="6.61499">
        <ele>515.6</ele>
        <time>2026-05-13T12:08:35Z</time>
      </trkpt>
      <trkpt lat="47.17814" lon="6.61507">
        <ele>515.4</ele>
        <time>2026-05-13T12:08:36Z</time>
      </trkpt>
      <trkpt lat="47.17825" lon="6.61522">
        <ele>515.2</ele>
        <time>2026-05-13T12:08:38Z</time>
      </trkpt>
      <trkpt lat="47.17835" lon="6.61535">
        <ele>515</ele>
        <time>2026-05-13T12:08:40Z</time>
      </trkpt>
      <trkpt lat="47.17848" lon="6.61544">
        <ele>514.8</ele>
        <time>2026-05-13T12:08:42Z</time>
      </trkpt>
      <trkpt lat="47.1786" lon="6.61551">
        <ele>514.6</ele>
        <time>2026-05-13T12:08:44Z</time>
      </trkpt>
      <trkpt lat="47.17866" lon="6.61555">
        <ele>514.4</ele>
        <time>2026-05-13T12:08:45Z</time>
      </trkpt>
      <trkpt lat="47.17883" lon="6.61563">
        <ele>514.2</ele>
        <time>2026-05-13T12:08:47Z</time>
      </trkpt>
      <trkpt lat="47.17911" lon="6.61579">
        <ele>513.2</ele>
        <time>2026-05-13T12:08:51Z</time>
      </trkpt>
      <trkpt lat="47.17918" lon="6.61585">
        <ele>512.8</ele>
        <time>2026-05-13T12:08:52Z</time>
      </trkpt>
      <trkpt lat="47.17925" lon="6.61591">
        <ele>512.2</ele>
        <time>2026-05-13T12:08:53Z</time>
      </trkpt>
      <trkpt lat="47.17944" lon="6.61613">
        <ele>511</ele>
        <time>2026-05-13T12:08:56Z</time>
      </trkpt>
      <trkpt lat="47.1795" lon="6.61624">
        <ele>510.6</ele>
        <time>2026-05-13T12:08:57Z</time>
      </trkpt>
      <trkpt lat="47.17957" lon="6.61635">
        <ele>509.8</ele>
        <time>2026-05-13T12:08:58Z</time>
      </trkpt>
      <trkpt lat="47.17982" lon="6.61656">
        <ele>508.6</ele>
        <time>2026-05-13T12:09:00Z</time>
      </trkpt>
      <trkpt lat="47.18005" lon="6.61675">
        <ele>507.8</ele>
        <time>2026-05-13T12:09:02Z</time>
      </trkpt>
      <trkpt lat="47.1802" lon="6.61686">
        <ele>507.4</ele>
        <time>2026-05-13T12:09:03Z</time>
      </trkpt>
      <trkpt lat="47.18048" lon="6.61713">
        <ele>506.2</ele>
        <time>2026-05-13T12:09:06Z</time>
      </trkpt>
      <trkpt lat="47.18062" lon="6.6173">
        <ele>505.2</ele>
        <time>2026-05-13T12:09:08Z</time>
      </trkpt>
      <trkpt lat="47.18071" lon="6.61734">
        <ele>504.8</ele>
        <time>2026-05-13T12:09:09Z</time>
      </trkpt>
      <trkpt lat="47.18088" lon="6.61742">
        <ele>504</ele>
        <time>2026-05-13T12:09:11Z</time>
      </trkpt>
      <trkpt lat="47.18113" lon="6.6176">
        <ele>503.4</ele>
        <time>2026-05-13T12:09:14Z</time>
      </trkpt>
      <trkpt lat="47.18128" lon="6.61767">
        <ele>503</ele>
        <time>2026-05-13T12:09:16Z</time>
      </trkpt>
      <trkpt lat="47.18136" lon="6.6177">
        <ele>502.8</ele>
        <time>2026-05-13T12:09:17Z</time>
      </trkpt>
      <trkpt lat="47.18156" lon="6.61776">
        <ele>502.4</ele>
        <time>2026-05-13T12:09:19Z</time>
      </trkpt>
      <trkpt lat="47.18167" lon="6.6178">
        <ele>502</ele>
        <time>2026-05-13T12:09:20Z</time>
      </trkpt>
      <trkpt lat="47.18176" lon="6.61786">
        <ele>501.8</ele>
        <time>2026-05-13T12:09:21Z</time>
      </trkpt>
      <trkpt lat="47.18192" lon="6.61802">
        <ele>501.6</ele>
        <time>2026-05-13T12:09:23Z</time>
      </trkpt>
      <trkpt lat="47.18198" lon="6.61813">
        <ele>501.4</ele>
        <time>2026-05-13T12:09:24Z</time>
      </trkpt>
      <trkpt lat="47.18208" lon="6.61833">
        <ele>501.4</ele>
        <time>2026-05-13T12:09:26Z</time>
      </trkpt>
      <trkpt lat="47.18215" lon="6.6184">
        <ele>501.2</ele>
        <time>2026-05-13T12:09:27Z</time>
      </trkpt>
      <trkpt lat="47.18223" lon="6.61848">
        <ele>501.2</ele>
        <time>2026-05-13T12:09:28Z</time>
      </trkpt>
      <trkpt lat="47.18235" lon="6.61858">
        <ele>500.8</ele>
        <time>2026-05-13T12:09:30Z</time>
      </trkpt>
      <trkpt lat="47.18241" lon="6.61865">
        <ele>500.6</ele>
        <time>2026-05-13T12:09:31Z</time>
      </trkpt>
      <trkpt lat="47.18253" lon="6.6188">
        <ele>500.2</ele>
        <time>2026-05-13T12:09:33Z</time>
      </trkpt>
      <trkpt lat="47.1825" lon="6.61905">
        <ele>500</ele>
        <time>2026-05-13T12:09:35Z</time>
      </trkpt>
      <trkpt lat="47.1824" lon="6.61935">
        <ele>500</ele>
        <time>2026-05-13T12:09:38Z</time>
      </trkpt>
      <trkpt lat="47.18242" lon="6.61942">
        <ele>500</ele>
        <time>2026-05-13T12:09:39Z</time>
      </trkpt>
      <trkpt lat="47.18247" lon="6.61951">
        <ele>500</ele>
        <time>2026-05-13T12:09:41Z</time>
      </trkpt>
      <trkpt lat="47.18258" lon="6.61952">
        <ele>500</ele>
        <time>2026-05-13T12:09:43Z</time>
      </trkpt>
      <trkpt lat="47.18271" lon="6.6195">
        <ele>500</ele>
        <time>2026-05-13T12:09:45Z</time>
      </trkpt>
      <trkpt lat="47.18296" lon="6.61951">
        <ele>499.6</ele>
        <time>2026-05-13T12:09:49Z</time>
      </trkpt>
      <trkpt lat="47.18307" lon="6.61949">
        <ele>499.8</ele>
        <time>2026-05-13T12:09:51Z</time>
      </trkpt>
      <trkpt lat="47.1832" lon="6.61949">
        <ele>499.6</ele>
        <time>2026-05-13T12:09:53Z</time>
      </trkpt>
      <trkpt lat="47.18354" lon="6.61946">
        <ele>499</ele>
        <time>2026-05-13T12:09:57Z</time>
      </trkpt>
      <trkpt lat="47.18362" lon="6.61946">
        <ele>498.8</ele>
        <time>2026-05-13T12:09:58Z</time>
      </trkpt>
      <trkpt lat="47.18381" lon="6.61944">
        <ele>498.4</ele>
        <time>2026-05-13T12:10:00Z</time>
      </trkpt>
      <trkpt lat="47.18396" lon="6.61937">
        <ele>498</ele>
        <time>2026-05-13T12:10:02Z</time>
      </trkpt>
      <trkpt lat="47.18403" lon="6.61933">
        <ele>497.6</ele>
        <time>2026-05-13T12:10:03Z</time>
      </trkpt>
      <trkpt lat="47.18422" lon="6.61915">
        <ele>496.8</ele>
        <time>2026-05-13T12:10:06Z</time>
      </trkpt>
      <trkpt lat="47.18426" lon="6.61907">
        <ele>496.6</ele>
        <time>2026-05-13T12:10:07Z</time>
      </trkpt>
      <trkpt lat="47.18455" lon="6.61854">
        <ele>495.8</ele>
        <time>2026-05-13T12:10:13Z</time>
      </trkpt>
      <trkpt lat="47.1847" lon="6.61831">
        <ele>495.8</ele>
        <time>2026-05-13T12:10:16Z</time>
      </trkpt>
      <trkpt lat="47.18482" lon="6.6182">
        <ele>495.6</ele>
        <time>2026-05-13T12:10:18Z</time>
      </trkpt>
      <trkpt lat="47.18489" lon="6.61817">
        <ele>495.6</ele>
        <time>2026-05-13T12:10:19Z</time>
      </trkpt>
      <trkpt lat="47.18503" lon="6.61814">
        <ele>495.4</ele>
        <time>2026-05-13T12:10:21Z</time>
      </trkpt>
      <trkpt lat="47.1851" lon="6.61815">
        <ele>495.4</ele>
        <time>2026-05-13T12:10:22Z</time>
      </trkpt>
      <trkpt lat="47.18517" lon="6.61819">
        <ele>495.4</ele>
        <time>2026-05-13T12:10:23Z</time>
      </trkpt>
      <trkpt lat="47.18529" lon="6.61829">
        <ele>495</ele>
        <time>2026-05-13T12:10:25Z</time>
      </trkpt>
      <trkpt lat="47.18534" lon="6.61835">
        <ele>495</ele>
        <time>2026-05-13T12:10:26Z</time>
      </trkpt>
      <trkpt lat="47.18553" lon="6.61856">
        <ele>494.8</ele>
        <time>2026-05-13T12:10:29Z</time>
      </trkpt>
      <trkpt lat="47.1856" lon="6.61861">
        <ele>494.8</ele>
        <time>2026-05-13T12:10:30Z</time>
      </trkpt>
      <trkpt lat="47.18578" lon="6.61875">
        <ele>494.6</ele>
        <time>2026-05-13T12:10:33Z</time>
      </trkpt>
      <trkpt lat="47.186" lon="6.61885">
        <ele>494.4</ele>
        <time>2026-05-13T12:10:36Z</time>
      </trkpt>
      <trkpt lat="47.18605" lon="6.61885">
        <ele>494.4</ele>
        <time>2026-05-13T12:10:37Z</time>
      </trkpt>
      <trkpt lat="47.1861" lon="6.61885">
        <ele>494.2</ele>
        <time>2026-05-13T12:10:38Z</time>
      </trkpt>
      <trkpt lat="47.18635" lon="6.61881">
        <ele>493.8</ele>
        <time>2026-05-13T12:10:42Z</time>
      </trkpt>
      <trkpt lat="47.18651" lon="6.61876">
        <ele>493.4</ele>
        <time>2026-05-13T12:10:44Z</time>
      </trkpt>
      <trkpt lat="47.18672" lon="6.61867">
        <ele>493.2</ele>
        <time>2026-05-13T12:10:47Z</time>
      </trkpt>
      <trkpt lat="47.18701" lon="6.61857">
        <ele>493</ele>
        <time>2026-05-13T12:10:51Z</time>
      </trkpt>
      <trkpt lat="47.18722" lon="6.6185">
        <ele>492.8</ele>
        <time>2026-05-13T12:10:54Z</time>
      </trkpt>
      <trkpt lat="47.18737" lon="6.61845">
        <ele>492.2</ele>
        <time>2026-05-13T12:10:56Z</time>
      </trkpt>
      <trkpt lat="47.1875" lon="6.61839">
        <ele>492.2</ele>
        <time>2026-05-13T12:10:58Z</time>
      </trkpt>
      <trkpt lat="47.18769" lon="6.61824">
        <ele>491.8</ele>
        <time>2026-05-13T12:11:01Z</time>
      </trkpt>
      <trkpt lat="47.18782" lon="6.61815">
        <ele>491.4</ele>
        <time>2026-05-13T12:11:03Z</time>
      </trkpt>
      <trkpt lat="47.18796" lon="6.61812">
        <ele>491.2</ele>
        <time>2026-05-13T12:11:05Z</time>
      </trkpt>
      <trkpt lat="47.18802" lon="6.61811">
        <ele>491.2</ele>
        <time>2026-05-13T12:11:06Z</time>
      </trkpt>
      <trkpt lat="47.18825" lon="6.61806">
        <ele>490.8</ele>
        <time>2026-05-13T12:11:09Z</time>
      </trkpt>
      <trkpt lat="47.18832" lon="6.61804">
        <ele>490.6</ele>
        <time>2026-05-13T12:11:10Z</time>
      </trkpt>
      <trkpt lat="47.18847" lon="6.61803">
        <ele>490.4</ele>
        <time>2026-05-13T12:11:12Z</time>
      </trkpt>
      <trkpt lat="47.18869" lon="6.61798">
        <ele>489.8</ele>
        <time>2026-05-13T12:11:15Z</time>
      </trkpt>
      <trkpt lat="47.18892" lon="6.61804">
        <ele>489.6</ele>
        <time>2026-05-13T12:11:18Z</time>
      </trkpt>
      <trkpt lat="47.18928" lon="6.61808">
        <ele>489.4</ele>
        <time>2026-05-13T12:11:23Z</time>
      </trkpt>
      <trkpt lat="47.18936" lon="6.61809">
        <ele>489.2</ele>
        <time>2026-05-13T12:11:24Z</time>
      </trkpt>
      <trkpt lat="47.18974" lon="6.61819">
        <ele>489</ele>
        <time>2026-05-13T12:11:29Z</time>
      </trkpt>
      <trkpt lat="47.1902" lon="6.61826">
        <ele>488.2</ele>
        <time>2026-05-13T12:11:35Z</time>
      </trkpt>
      <trkpt lat="47.19028" lon="6.61825">
        <ele>488.2</ele>
        <time>2026-05-13T12:11:36Z</time>
      </trkpt>
      <trkpt lat="47.19044" lon="6.61822">
        <ele>487.8</ele>
        <time>2026-05-13T12:11:38Z</time>
      </trkpt>
      <trkpt lat="47.19052" lon="6.61819">
        <ele>487.6</ele>
        <time>2026-05-13T12:11:39Z</time>
      </trkpt>
      <trkpt lat="47.1906" lon="6.61816">
        <ele>487.4</ele>
        <time>2026-05-13T12:11:40Z</time>
      </trkpt>
      <trkpt lat="47.19089" lon="6.61796">
        <ele>487</ele>
        <time>2026-05-13T12:11:44Z</time>
      </trkpt>
      <trkpt lat="47.19096" lon="6.6179">
        <ele>487</ele>
        <time>2026-05-13T12:11:45Z</time>
      </trkpt>
      <trkpt lat="47.19145" lon="6.61757">
        <ele>486.2</ele>
        <time>2026-05-13T12:11:52Z</time>
      </trkpt>
      <trkpt lat="47.19179" lon="6.61734">
        <ele>486.2</ele>
        <time>2026-05-13T12:11:57Z</time>
      </trkpt>
      <trkpt lat="47.19215" lon="6.61721">
        <ele>486.4</ele>
        <time>2026-05-13T12:12:02Z</time>
      </trkpt>
      <trkpt lat="47.19261" lon="6.61718">
        <ele>486.6</ele>
        <time>2026-05-13T12:12:08Z</time>
      </trkpt>
      <trkpt lat="47.19311" lon="6.61719">
        <ele>486.4</ele>
        <time>2026-05-13T12:12:15Z</time>
      </trkpt>
      <trkpt lat="47.19355" lon="6.61716">
        <ele>486</ele>
        <time>2026-05-13T12:12:21Z</time>
      </trkpt>
      <trkpt lat="47.19386" lon="6.61709">
        <ele>485.6</ele>
        <time>2026-05-13T12:12:25Z</time>
      </trkpt>
      <trkpt lat="47.194" lon="6.61705">
        <ele>485.4</ele>
        <time>2026-05-13T12:12:27Z</time>
      </trkpt>
      <trkpt lat="47.19441" lon="6.6168">
        <ele>485.2</ele>
        <time>2026-05-13T12:12:33Z</time>
      </trkpt>
      <trkpt lat="47.19495" lon="6.61647">
        <ele>485.2</ele>
        <time>2026-05-13T12:12:41Z</time>
      </trkpt>
      <trkpt lat="47.19552" lon="6.61625">
        <ele>485.2</ele>
        <time>2026-05-13T12:12:49Z</time>
      </trkpt>
      <trkpt lat="47.19564" lon="6.61622">
        <ele>485.2</ele>
        <time>2026-05-13T12:12:51Z</time>
      </trkpt>
      <trkpt lat="47.19591" lon="6.6162">
        <ele>485.4</ele>
        <time>2026-05-13T12:12:55Z</time>
      </trkpt>
      <trkpt lat="47.19628" lon="6.61616">
        <ele>486.2</ele>
        <time>2026-05-13T12:13:01Z</time>
      </trkpt>
      <trkpt lat="47.19644" lon="6.61612">
        <ele>486.6</ele>
        <time>2026-05-13T12:13:04Z</time>
      </trkpt>
      <trkpt lat="47.1966" lon="6.61607">
        <ele>487</ele>
        <time>2026-05-13T12:13:07Z</time>
      </trkpt>
      <trkpt lat="47.19666" lon="6.61606">
        <ele>487</ele>
        <time>2026-05-13T12:13:08Z</time>
      </trkpt>
      <trkpt lat="47.19689" lon="6.61607">
        <ele>487.4</ele>
        <time>2026-05-13T12:13:12Z</time>
      </trkpt>
      <trkpt lat="47.19729" lon="6.61611">
        <ele>488.4</ele>
        <time>2026-05-13T12:13:19Z</time>
      </trkpt>
      <trkpt lat="47.1974" lon="6.61612">
        <ele>488.6</ele>
        <time>2026-05-13T12:13:21Z</time>
      </trkpt>
      <trkpt lat="47.19745" lon="6.61613">
        <ele>488.6</ele>
        <time>2026-05-13T12:13:22Z</time>
      </trkpt>
      <trkpt lat="47.19763" lon="6.61615">
        <ele>488.8</ele>
        <time>2026-05-13T12:13:25Z</time>
      </trkpt>
      <trkpt lat="47.19786" lon="6.61617">
        <ele>489.2</ele>
        <time>2026-05-13T12:13:29Z</time>
      </trkpt>
      <trkpt lat="47.19814" lon="6.6162">
        <ele>489.6</ele>
        <time>2026-05-13T12:13:34Z</time>
      </trkpt>
      <trkpt lat="47.19854" lon="6.61626">
        <ele>490</ele>
        <time>2026-05-13T12:13:41Z</time>
      </trkpt>
      <trkpt lat="47.19899" lon="6.61639">
        <ele>490.6</ele>
        <time>2026-05-13T12:13:49Z</time>
      </trkpt>
      <trkpt lat="47.19904" lon="6.61641">
        <ele>490.6</ele>
        <time>2026-05-13T12:13:50Z</time>
      </trkpt>
      <trkpt lat="47.19958" lon="6.61658">
        <ele>490.8</ele>
        <time>2026-05-13T12:13:59Z</time>
      </trkpt>
      <trkpt lat="47.20009" lon="6.61676">
        <ele>490.6</ele>
        <time>2026-05-13T12:14:07Z</time>
      </trkpt>
      <trkpt lat="47.20049" lon="6.61687">
        <ele>489.4</ele>
        <time>2026-05-13T12:14:12Z</time>
      </trkpt>
      <trkpt lat="47.20055" lon="6.61689">
        <ele>489.2</ele>
        <time>2026-05-13T12:14:13Z</time>
      </trkpt>
      <trkpt lat="47.20082" lon="6.61698">
        <ele>488.2</ele>
        <time>2026-05-13T12:14:16Z</time>
      </trkpt>
      <trkpt lat="47.20096" lon="6.61698">
        <ele>487.6</ele>
        <time>2026-05-13T12:14:18Z</time>
      </trkpt>
      <trkpt lat="47.2011" lon="6.61685">
        <ele>487</ele>
        <time>2026-05-13T12:14:20Z</time>
      </trkpt>
      <trkpt lat="47.20115" lon="6.61676">
        <ele>486.4</ele>
        <time>2026-05-13T12:14:21Z</time>
      </trkpt>
      <trkpt lat="47.20118" lon="6.61667">
        <ele>486.4</ele>
        <time>2026-05-13T12:14:22Z</time>
      </trkpt>
      <trkpt lat="47.20119" lon="6.61658">
        <ele>486</ele>
        <time>2026-05-13T12:14:23Z</time>
      </trkpt>
      <trkpt lat="47.20121" lon="6.61648">
        <ele>485.6</ele>
        <time>2026-05-13T12:14:24Z</time>
      </trkpt>
      <trkpt lat="47.20127" lon="6.61619">
        <ele>485</ele>
        <time>2026-05-13T12:14:27Z</time>
      </trkpt>
      <trkpt lat="47.2013" lon="6.61613">
        <ele>484.8</ele>
        <time>2026-05-13T12:14:28Z</time>
      </trkpt>
      <trkpt lat="47.20141" lon="6.61599">
        <ele>484.6</ele>
        <time>2026-05-13T12:14:30Z</time>
      </trkpt>
      <trkpt lat="47.20147" lon="6.61595">
        <ele>484.6</ele>
        <time>2026-05-13T12:14:31Z</time>
      </trkpt>
      <trkpt lat="47.20178" lon="6.61585">
        <ele>484.2</ele>
        <time>2026-05-13T12:14:36Z</time>
      </trkpt>
      <trkpt lat="47.20184" lon="6.61583">
        <ele>484.2</ele>
        <time>2026-05-13T12:14:37Z</time>
      </trkpt>
      <trkpt lat="47.202" lon="6.61582">
        <ele>484</ele>
        <time>2026-05-13T12:14:40Z</time>
      </trkpt>
      <trkpt lat="47.20205" lon="6.61582">
        <ele>483.8</ele>
        <time>2026-05-13T12:14:41Z</time>
      </trkpt>
      <trkpt lat="47.20227" lon="6.61582">
        <ele>483.8</ele>
        <time>2026-05-13T12:14:46Z</time>
      </trkpt>
      <trkpt lat="47.20232" lon="6.61584">
        <ele>483.8</ele>
        <time>2026-05-13T12:14:47Z</time>
      </trkpt>
      <trkpt lat="47.2024" lon="6.61587">
        <ele>483.6</ele>
        <time>2026-05-13T12:14:49Z</time>
      </trkpt>
      <trkpt lat="47.2025" lon="6.6159">
        <ele>483.4</ele>
        <time>2026-05-13T12:14:52Z</time>
      </trkpt>
      <trkpt lat="47.20255" lon="6.6159">
        <ele>483.4</ele>
        <time>2026-05-13T12:14:54Z</time>
      </trkpt>
      <trkpt lat="47.20256" lon="6.61595">
        <ele>483.4</ele>
        <time>2026-05-13T12:14:56Z</time>
      </trkpt>
      <trkpt lat="47.20253" lon="6.61616">
        <ele>483.4</ele>
        <time>2026-05-13T12:15:01Z</time>
      </trkpt>
      <trkpt lat="47.20257" lon="6.61658">
        <ele>483.6</ele>
        <time>2026-05-13T12:15:07Z</time>
      </trkpt>
      <trkpt lat="47.20264" lon="6.61716">
        <ele>484</ele>
        <time>2026-05-13T12:15:14Z</time>
      </trkpt>
      <trkpt lat="47.20265" lon="6.61732">
        <ele>484</ele>
        <time>2026-05-13T12:15:16Z</time>
      </trkpt>
      <trkpt lat="47.20271" lon="6.61763">
        <ele>484</ele>
        <time>2026-05-13T12:15:20Z</time>
      </trkpt>
      <trkpt lat="47.20273" lon="6.6177">
        <ele>484</ele>
        <time>2026-05-13T12:15:21Z</time>
      </trkpt>
      <trkpt lat="47.20277" lon="6.61784">
        <ele>484.4</ele>
        <time>2026-05-13T12:15:23Z</time>
      </trkpt>
      <trkpt lat="47.2028" lon="6.61792">
        <ele>484.4</ele>
        <time>2026-05-13T12:15:24Z</time>
      </trkpt>
      <trkpt lat="47.20295" lon="6.6183">
        <ele>484.8</ele>
        <time>2026-05-13T12:15:29Z</time>
      </trkpt>
      <trkpt lat="47.20301" lon="6.61847">
        <ele>485</ele>
        <time>2026-05-13T12:15:31Z</time>
      </trkpt>
      <trkpt lat="47.20304" lon="6.61855">
        <ele>485</ele>
        <time>2026-05-13T12:15:32Z</time>
      </trkpt>
      <trkpt lat="47.20326" lon="6.61914">
        <ele>485</ele>
        <time>2026-05-13T12:15:39Z</time>
      </trkpt>
      <trkpt lat="47.2035" lon="6.61977">
        <ele>484.8</ele>
        <time>2026-05-13T12:15:46Z</time>
      </trkpt>
      <trkpt lat="47.20365" lon="6.62036">
        <ele>484.6</ele>
        <time>2026-05-13T12:15:52Z</time>
      </trkpt>
      <trkpt lat="47.2037" lon="6.62107">
        <ele>484.2</ele>
        <time>2026-05-13T12:15:59Z</time>
      </trkpt>
      <trkpt lat="47.20368" lon="6.62173">
        <ele>484.2</ele>
        <time>2026-05-13T12:16:06Z</time>
      </trkpt>
      <trkpt lat="47.20367" lon="6.62182">
        <ele>484.4</ele>
        <time>2026-05-13T12:16:07Z</time>
      </trkpt>
      <trkpt lat="47.20357" lon="6.62242">
        <ele>484.2</ele>
        <time>2026-05-13T12:16:14Z</time>
      </trkpt>
      <trkpt lat="47.20347" lon="6.62266">
        <ele>484.2</ele>
        <time>2026-05-13T12:16:17Z</time>
      </trkpt>
      <trkpt lat="47.2034" lon="6.62279">
        <ele>484.2</ele>
        <time>2026-05-13T12:16:19Z</time>
      </trkpt>
      <trkpt lat="47.20319" lon="6.62322">
        <ele>484</ele>
        <time>2026-05-13T12:16:25Z</time>
      </trkpt>
      <trkpt lat="47.20315" lon="6.62328">
        <ele>484.2</ele>
        <time>2026-05-13T12:16:26Z</time>
      </trkpt>
      <trkpt lat="47.20308" lon="6.62341">
        <ele>484.2</ele>
        <time>2026-05-13T12:16:28Z</time>
      </trkpt>
      <trkpt lat="47.20301" lon="6.62355">
        <ele>484.4</ele>
        <time>2026-05-13T12:16:30Z</time>
      </trkpt>
      <trkpt lat="47.20297" lon="6.62362">
        <ele>484.4</ele>
        <time>2026-05-13T12:16:31Z</time>
      </trkpt>
      <trkpt lat="47.2029" lon="6.62375">
        <ele>484.4</ele>
        <time>2026-05-13T12:16:33Z</time>
      </trkpt>
      <trkpt lat="47.20282" lon="6.62386">
        <ele>484.4</ele>
        <time>2026-05-13T12:16:35Z</time>
      </trkpt>
      <trkpt lat="47.20275" lon="6.62399">
        <ele>484.4</ele>
        <time>2026-05-13T12:16:37Z</time>
      </trkpt>
      <trkpt lat="47.20249" lon="6.62449">
        <ele>484.8</ele>
        <time>2026-05-13T12:16:44Z</time>
      </trkpt>
      <trkpt lat="47.20237" lon="6.62466">
        <ele>485</ele>
        <time>2026-05-13T12:16:47Z</time>
      </trkpt>
      <trkpt lat="47.2023" lon="6.62477">
        <ele>485</ele>
        <time>2026-05-13T12:16:49Z</time>
      </trkpt>
      <trkpt lat="47.20195" lon="6.62524">
        <ele>485.6</ele>
        <time>2026-05-13T12:16:57Z</time>
      </trkpt>
      <trkpt lat="47.20188" lon="6.62536">
        <ele>485.8</ele>
        <time>2026-05-13T12:16:59Z</time>
      </trkpt>
      <trkpt lat="47.2016" lon="6.62576">
        <ele>486.8</ele>
        <time>2026-05-13T12:17:05Z</time>
      </trkpt>
      <trkpt lat="47.20152" lon="6.62591">
        <ele>487</ele>
        <time>2026-05-13T12:17:07Z</time>
      </trkpt>
      <trkpt lat="47.20148" lon="6.62601">
        <ele>487</ele>
        <time>2026-05-13T12:17:08Z</time>
      </trkpt>
      <trkpt lat="47.20141" lon="6.62619">
        <ele>487</ele>
        <time>2026-05-13T12:17:10Z</time>
      </trkpt>
      <trkpt lat="47.20128" lon="6.62666">
        <ele>487.2</ele>
        <time>2026-05-13T12:17:15Z</time>
      </trkpt>
      <trkpt lat="47.20126" lon="6.62687">
        <ele>487.2</ele>
        <time>2026-05-13T12:17:17Z</time>
      </trkpt>
      <trkpt lat="47.20123" lon="6.62717">
        <ele>487</ele>
        <time>2026-05-13T12:17:20Z</time>
      </trkpt>
      <trkpt lat="47.20118" lon="6.62767">
        <ele>486.8</ele>
        <time>2026-05-13T12:17:25Z</time>
      </trkpt>
      <trkpt lat="47.20117" lon="6.62845">
        <ele>486.2</ele>
        <time>2026-05-13T12:17:33Z</time>
      </trkpt>
      <trkpt lat="47.20121" lon="6.62874">
        <ele>486</ele>
        <time>2026-05-13T12:17:36Z</time>
      </trkpt>
      <trkpt lat="47.20123" lon="6.62883">
        <ele>486</ele>
        <time>2026-05-13T12:17:37Z</time>
      </trkpt>
      <trkpt lat="47.20126" lon="6.62892">
        <ele>485.8</ele>
        <time>2026-05-13T12:17:38Z</time>
      </trkpt>
      <trkpt lat="47.20133" lon="6.6291">
        <ele>485.8</ele>
        <time>2026-05-13T12:17:40Z</time>
      </trkpt>
      <trkpt lat="47.20147" lon="6.62932">
        <ele>485.6</ele>
        <time>2026-05-13T12:17:43Z</time>
      </trkpt>
      <trkpt lat="47.20161" lon="6.62952">
        <ele>485.4</ele>
        <time>2026-05-13T12:17:46Z</time>
      </trkpt>
      <trkpt lat="47.20174" lon="6.62965">
        <ele>485</ele>
        <time>2026-05-13T12:17:48Z</time>
      </trkpt>
      <trkpt lat="47.20185" lon="6.62973">
        <ele>484.8</ele>
        <time>2026-05-13T12:17:50Z</time>
      </trkpt>
      <trkpt lat="47.20198" lon="6.6298">
        <ele>484.8</ele>
        <time>2026-05-13T12:17:52Z</time>
      </trkpt>
      <trkpt lat="47.20225" lon="6.62994">
        <ele>484.4</ele>
        <time>2026-05-13T12:17:56Z</time>
      </trkpt>
      <trkpt lat="47.20231" lon="6.62997">
        <ele>484.2</ele>
        <time>2026-05-13T12:17:57Z</time>
      </trkpt>
      <trkpt lat="47.20271" lon="6.63017">
        <ele>483.8</ele>
        <time>2026-05-13T12:18:03Z</time>
      </trkpt>
      <trkpt lat="47.20306" lon="6.63027">
        <ele>483.4</ele>
        <time>2026-05-13T12:18:08Z</time>
      </trkpt>
      <trkpt lat="47.20328" lon="6.63033">
        <ele>483.2</ele>
        <time>2026-05-13T12:18:11Z</time>
      </trkpt>
      <trkpt lat="47.20341" lon="6.63035">
        <ele>483</ele>
        <time>2026-05-13T12:18:13Z</time>
      </trkpt>
      <trkpt lat="47.2035" lon="6.63037">
        <ele>483</ele>
        <time>2026-05-13T12:18:14Z</time>
      </trkpt>
      <trkpt lat="47.2037" lon="6.63041">
        <ele>482.8</ele>
        <time>2026-05-13T12:18:17Z</time>
      </trkpt>
      <trkpt lat="47.20392" lon="6.63045">
        <ele>482.6</ele>
        <time>2026-05-13T12:18:20Z</time>
      </trkpt>
      <trkpt lat="47.20433" lon="6.63053">
        <ele>482.4</ele>
        <time>2026-05-13T12:18:26Z</time>
      </trkpt>
      <trkpt lat="47.20479" lon="6.63061">
        <ele>482</ele>
        <time>2026-05-13T12:18:33Z</time>
      </trkpt>
      <trkpt lat="47.20503" lon="6.63061">
        <ele>481.8</ele>
        <time>2026-05-13T12:18:37Z</time>
      </trkpt>
      <trkpt lat="47.20518" lon="6.6306">
        <ele>481.8</ele>
        <time>2026-05-13T12:18:39Z</time>
      </trkpt>
      <trkpt lat="47.20537" lon="6.63057">
        <ele>481.8</ele>
        <time>2026-05-13T12:18:42Z</time>
      </trkpt>
      <trkpt lat="47.20571" lon="6.6305">
        <ele>481.4</ele>
        <time>2026-05-13T12:18:47Z</time>
      </trkpt>
      <trkpt lat="47.20584" lon="6.63048">
        <ele>481.2</ele>
        <time>2026-05-13T12:18:49Z</time>
      </trkpt>
      <trkpt lat="47.2061" lon="6.63045">
        <ele>481</ele>
        <time>2026-05-13T12:18:53Z</time>
      </trkpt>
      <trkpt lat="47.20646" lon="6.63042">
        <ele>480.8</ele>
        <time>2026-05-13T12:18:58Z</time>
      </trkpt>
      <trkpt lat="47.20652" lon="6.63042">
        <ele>480.6</ele>
        <time>2026-05-13T12:18:59Z</time>
      </trkpt>
      <trkpt lat="47.20659" lon="6.63043">
        <ele>480.6</ele>
        <time>2026-05-13T12:19:00Z</time>
      </trkpt>
      <trkpt lat="47.207" lon="6.63048">
        <ele>480.2</ele>
        <time>2026-05-13T12:19:06Z</time>
      </trkpt>
      <trkpt lat="47.2072" lon="6.63056">
        <ele>479.6</ele>
        <time>2026-05-13T12:19:09Z</time>
      </trkpt>
      <trkpt lat="47.20735" lon="6.63064">
        <ele>479.6</ele>
        <time>2026-05-13T12:19:11Z</time>
      </trkpt>
      <trkpt lat="47.20765" lon="6.63086">
        <ele>479.6</ele>
        <time>2026-05-13T12:19:16Z</time>
      </trkpt>
      <trkpt lat="47.20776" lon="6.63096">
        <ele>479.6</ele>
        <time>2026-05-13T12:19:18Z</time>
      </trkpt>
      <trkpt lat="47.20781" lon="6.63101">
        <ele>479.4</ele>
        <time>2026-05-13T12:19:19Z</time>
      </trkpt>
      <trkpt lat="47.20792" lon="6.63116">
        <ele>479.2</ele>
        <time>2026-05-13T12:19:21Z</time>
      </trkpt>
      <trkpt lat="47.20796" lon="6.63124">
        <ele>479</ele>
        <time>2026-05-13T12:19:22Z</time>
      </trkpt>
      <trkpt lat="47.20805" lon="6.63146">
        <ele>479</ele>
        <time>2026-05-13T12:19:25Z</time>
      </trkpt>
      <trkpt lat="47.20809" lon="6.63161">
        <ele>478.6</ele>
        <time>2026-05-13T12:19:27Z</time>
      </trkpt>
      <trkpt lat="47.20815" lon="6.63183">
        <ele>478.6</ele>
        <time>2026-05-13T12:19:30Z</time>
      </trkpt>
      <trkpt lat="47.20826" lon="6.63231">
        <ele>478.2</ele>
        <time>2026-05-13T12:19:36Z</time>
      </trkpt>
      <trkpt lat="47.20835" lon="6.63259">
        <ele>477.8</ele>
        <time>2026-05-13T12:19:40Z</time>
      </trkpt>
      <trkpt lat="47.2084" lon="6.63273">
        <ele>477.4</ele>
        <time>2026-05-13T12:19:42Z</time>
      </trkpt>
      <trkpt lat="47.20847" lon="6.63293">
        <ele>477.4</ele>
        <time>2026-05-13T12:19:45Z</time>
      </trkpt>
      <trkpt lat="47.20862" lon="6.63351">
        <ele>476.8</ele>
        <time>2026-05-13T12:19:54Z</time>
      </trkpt>
      <trkpt lat="47.20863" lon="6.63358">
        <ele>476.8</ele>
        <time>2026-05-13T12:19:55Z</time>
      </trkpt>
      <trkpt lat="47.20865" lon="6.63384">
        <ele>476.8</ele>
        <time>2026-05-13T12:19:59Z</time>
      </trkpt>
      <trkpt lat="47.20865" lon="6.6339">
        <ele>476.8</ele>
        <time>2026-05-13T12:20:00Z</time>
      </trkpt>
      <trkpt lat="47.20866" lon="6.63413">
        <ele>477</ele>
        <time>2026-05-13T12:20:04Z</time>
      </trkpt>
      <trkpt lat="47.20866" lon="6.63425">
        <ele>476.8</ele>
        <time>2026-05-13T12:20:06Z</time>
      </trkpt>
      <trkpt lat="47.20864" lon="6.63451">
        <ele>477</ele>
        <time>2026-05-13T12:20:10Z</time>
      </trkpt>
      <trkpt lat="47.20861" lon="6.63465">
        <ele>477</ele>
        <time>2026-05-13T12:20:12Z</time>
      </trkpt>
      <trkpt lat="47.20853" lon="6.63486">
        <ele>477</ele>
        <time>2026-05-13T12:20:15Z</time>
      </trkpt>
      <trkpt lat="47.2083" lon="6.63522">
        <ele>476.6</ele>
        <time>2026-05-13T12:20:21Z</time>
      </trkpt>
      <trkpt lat="47.20804" lon="6.63553">
        <ele>475.6</ele>
        <time>2026-05-13T12:20:27Z</time>
      </trkpt>
      <trkpt lat="47.20792" lon="6.63569">
        <ele>475.2</ele>
        <time>2026-05-13T12:20:30Z</time>
      </trkpt>
      <trkpt lat="47.2078" lon="6.6359">
        <ele>474.6</ele>
        <time>2026-05-13T12:20:33Z</time>
      </trkpt>
      <trkpt lat="47.2077" lon="6.63613">
        <ele>474</ele>
        <time>2026-05-13T12:20:36Z</time>
      </trkpt>
      <trkpt lat="47.20756" lon="6.63644">
        <ele>473.4</ele>
        <time>2026-05-13T12:20:40Z</time>
      </trkpt>
      <trkpt lat="47.20737" lon="6.63689">
        <ele>473</ele>
        <time>2026-05-13T12:20:46Z</time>
      </trkpt>
      <trkpt lat="47.20719" lon="6.63727">
        <ele>472.2</ele>
        <time>2026-05-13T12:20:51Z</time>
      </trkpt>
      <trkpt lat="47.20704" lon="6.63761">
        <ele>471.8</ele>
        <time>2026-05-13T12:20:55Z</time>
      </trkpt>
      <trkpt lat="47.20674" lon="6.63834">
        <ele>472.2</ele>
        <time>2026-05-13T12:21:03Z</time>
      </trkpt>
      <trkpt lat="47.20666" lon="6.63867">
        <ele>473.4</ele>
        <time>2026-05-13T12:21:06Z</time>
      </trkpt>
      <trkpt lat="47.20663" lon="6.6389">
        <ele>473.6</ele>
        <time>2026-05-13T12:21:08Z</time>
      </trkpt>
      <trkpt lat="47.20662" lon="6.63903">
        <ele>473.8</ele>
        <time>2026-05-13T12:21:09Z</time>
      </trkpt>
      <trkpt lat="47.20662" lon="6.63916">
        <ele>474</ele>
        <time>2026-05-13T12:21:10Z</time>
      </trkpt>
      <trkpt lat="47.20664" lon="6.63941">
        <ele>474.2</ele>
        <time>2026-05-13T12:21:12Z</time>
      </trkpt>
      <trkpt lat="47.20669" lon="6.63965">
        <ele>474.2</ele>
        <time>2026-05-13T12:21:14Z</time>
      </trkpt>
      <trkpt lat="47.20673" lon="6.63977">
        <ele>474.4</ele>
        <time>2026-05-13T12:21:15Z</time>
      </trkpt>
      <trkpt lat="47.20678" lon="6.63988">
        <ele>474.6</ele>
        <time>2026-05-13T12:21:16Z</time>
      </trkpt>
      <trkpt lat="47.20707" lon="6.64033">
        <ele>475.6</ele>
        <time>2026-05-13T12:21:21Z</time>
      </trkpt>
      <trkpt lat="47.20746" lon="6.6409">
        <ele>477</ele>
        <time>2026-05-13T12:21:28Z</time>
      </trkpt>
      <trkpt lat="47.20782" lon="6.64143">
        <ele>477.2</ele>
        <time>2026-05-13T12:21:35Z</time>
      </trkpt>
      <trkpt lat="47.20816" lon="6.64193">
        <ele>476.4</ele>
        <time>2026-05-13T12:21:42Z</time>
      </trkpt>
      <trkpt lat="47.20845" lon="6.64256">
        <ele>476</ele>
        <time>2026-05-13T12:21:50Z</time>
      </trkpt>
      <trkpt lat="47.20866" lon="6.6431">
        <ele>475.6</ele>
        <time>2026-05-13T12:21:57Z</time>
      </trkpt>
      <trkpt lat="47.20877" lon="6.64358">
        <ele>475</ele>
        <time>2026-05-13T12:22:03Z</time>
      </trkpt>
      <trkpt lat="47.20882" lon="6.64423">
        <ele>475</ele>
        <time>2026-05-13T12:22:11Z</time>
      </trkpt>
      <trkpt lat="47.20878" lon="6.64504">
        <ele>474.6</ele>
        <time>2026-05-13T12:22:21Z</time>
      </trkpt>
      <trkpt lat="47.20877" lon="6.64512">
        <ele>474.8</ele>
        <time>2026-05-13T12:22:22Z</time>
      </trkpt>
      <trkpt lat="47.20876" lon="6.6452">
        <ele>474.8</ele>
        <time>2026-05-13T12:22:23Z</time>
      </trkpt>
      <trkpt lat="47.20873" lon="6.64561">
        <ele>475</ele>
        <time>2026-05-13T12:22:28Z</time>
      </trkpt>
      <trkpt lat="47.20869" lon="6.64625">
        <ele>476.4</ele>
        <time>2026-05-13T12:22:36Z</time>
      </trkpt>
      <trkpt lat="47.20867" lon="6.64633">
        <ele>476.6</ele>
        <time>2026-05-13T12:22:37Z</time>
      </trkpt>
      <trkpt lat="47.20862" lon="6.64657">
        <ele>477</ele>
        <time>2026-05-13T12:22:40Z</time>
      </trkpt>
      <trkpt lat="47.20859" lon="6.64675">
        <ele>477.2</ele>
        <time>2026-05-13T12:22:42Z</time>
      </trkpt>
      <trkpt lat="47.20855" lon="6.64718">
        <ele>478</ele>
        <time>2026-05-13T12:22:47Z</time>
      </trkpt>
      <trkpt lat="47.20853" lon="6.64736">
        <ele>478</ele>
        <time>2026-05-13T12:22:49Z</time>
      </trkpt>
      <trkpt lat="47.20853" lon="6.64746">
        <ele>478.4</ele>
        <time>2026-05-13T12:22:50Z</time>
      </trkpt>
      <trkpt lat="47.2085" lon="6.64813">
        <ele>478.6</ele>
        <time>2026-05-13T12:22:57Z</time>
      </trkpt>
      <trkpt lat="47.20852" lon="6.64896">
        <ele>478.8</ele>
        <time>2026-05-13T12:23:05Z</time>
      </trkpt>
      <trkpt lat="47.20859" lon="6.64967">
        <ele>478.8</ele>
        <time>2026-05-13T12:23:12Z</time>
      </trkpt>
      <trkpt lat="47.20868" lon="6.65029">
        <ele>478.8</ele>
        <time>2026-05-13T12:23:18Z</time>
      </trkpt>
      <trkpt lat="47.20869" lon="6.65039">
        <ele>478.6</ele>
        <time>2026-05-13T12:23:19Z</time>
      </trkpt>
      <trkpt lat="47.20871" lon="6.65059">
        <ele>478.6</ele>
        <time>2026-05-13T12:23:21Z</time>
      </trkpt>
      <trkpt lat="47.20875" lon="6.65091">
        <ele>478</ele>
        <time>2026-05-13T12:23:24Z</time>
      </trkpt>
      <trkpt lat="47.20883" lon="6.6515">
        <ele>478</ele>
        <time>2026-05-13T12:23:30Z</time>
      </trkpt>
      <trkpt lat="47.20885" lon="6.65159">
        <ele>478</ele>
        <time>2026-05-13T12:23:31Z</time>
      </trkpt>
      <trkpt lat="47.20892" lon="6.65177">
        <ele>478</ele>
        <time>2026-05-13T12:23:33Z</time>
      </trkpt>
      <trkpt lat="47.20895" lon="6.65184">
        <ele>478</ele>
        <time>2026-05-13T12:23:34Z</time>
      </trkpt>
      <trkpt lat="47.20903" lon="6.65199">
        <ele>478.2</ele>
        <time>2026-05-13T12:23:36Z</time>
      </trkpt>
      <trkpt lat="47.20917" lon="6.65217">
        <ele>478.2</ele>
        <time>2026-05-13T12:23:39Z</time>
      </trkpt>
      <trkpt lat="47.20925" lon="6.65229">
        <ele>478.4</ele>
        <time>2026-05-13T12:23:41Z</time>
      </trkpt>
      <trkpt lat="47.20938" lon="6.65247">
        <ele>478.4</ele>
        <time>2026-05-13T12:23:44Z</time>
      </trkpt>
      <trkpt lat="47.20963" lon="6.65273">
        <ele>479.4</ele>
        <time>2026-05-13T12:23:50Z</time>
      </trkpt>
      <trkpt lat="47.20967" lon="6.65278">
        <ele>479.6</ele>
        <time>2026-05-13T12:23:51Z</time>
      </trkpt>
      <trkpt lat="47.20971" lon="6.65282">
        <ele>479.6</ele>
        <time>2026-05-13T12:23:52Z</time>
      </trkpt>
      <trkpt lat="47.20984" lon="6.65294">
        <ele>479.6</ele>
        <time>2026-05-13T12:23:55Z</time>
      </trkpt>
      <trkpt lat="47.20989" lon="6.65298">
        <ele>479.6</ele>
        <time>2026-05-13T12:23:56Z</time>
      </trkpt>
      <trkpt lat="47.20993" lon="6.65302">
        <ele>479.8</ele>
        <time>2026-05-13T12:23:57Z</time>
      </trkpt>
      <trkpt lat="47.21005" lon="6.6532">
        <ele>479.8</ele>
        <time>2026-05-13T12:24:00Z</time>
      </trkpt>
      <trkpt lat="47.21008" lon="6.65325">
        <ele>479.8</ele>
        <time>2026-05-13T12:24:01Z</time>
      </trkpt>
      <trkpt lat="47.21023" lon="6.65369">
        <ele>479.8</ele>
        <time>2026-05-13T12:24:08Z</time>
      </trkpt>
      <trkpt lat="47.21031" lon="6.65425">
        <ele>479.6</ele>
        <time>2026-05-13T12:24:15Z</time>
      </trkpt>
      <trkpt lat="47.21038" lon="6.65491">
        <ele>479</ele>
        <time>2026-05-13T12:24:22Z</time>
      </trkpt>
      <trkpt lat="47.21041" lon="6.65537">
        <ele>478.4</ele>
        <time>2026-05-13T12:24:26Z</time>
      </trkpt>
      <trkpt lat="47.21042" lon="6.65547">
        <ele>478.2</ele>
        <time>2026-05-13T12:24:27Z</time>
      </trkpt>
      <trkpt lat="47.21045" lon="6.6556">
        <ele>478</ele>
        <time>2026-05-13T12:24:28Z</time>
      </trkpt>
      <trkpt lat="47.21055" lon="6.65581">
        <ele>477.8</ele>
        <time>2026-05-13T12:24:30Z</time>
      </trkpt>
      <trkpt lat="47.2108" lon="6.65615">
        <ele>477.2</ele>
        <time>2026-05-13T12:24:34Z</time>
      </trkpt>
      <trkpt lat="47.21086" lon="6.65624">
        <ele>477.2</ele>
        <time>2026-05-13T12:24:35Z</time>
      </trkpt>
      <trkpt lat="47.21105" lon="6.65651">
        <ele>476.4</ele>
        <time>2026-05-13T12:24:38Z</time>
      </trkpt>
      <trkpt lat="47.21116" lon="6.65671">
        <ele>476.2</ele>
        <time>2026-05-13T12:24:40Z</time>
      </trkpt>
      <trkpt lat="47.2112" lon="6.65681">
        <ele>475.8</ele>
        <time>2026-05-13T12:24:41Z</time>
      </trkpt>
      <trkpt lat="47.21138" lon="6.65723">
        <ele>475</ele>
        <time>2026-05-13T12:24:45Z</time>
      </trkpt>
      <trkpt lat="47.21144" lon="6.65744">
        <ele>474.8</ele>
        <time>2026-05-13T12:24:47Z</time>
      </trkpt>
      <trkpt lat="47.21157" lon="6.65783">
        <ele>474</ele>
        <time>2026-05-13T12:24:51Z</time>
      </trkpt>
      <trkpt lat="47.21159" lon="6.65791">
        <ele>473.8</ele>
        <time>2026-05-13T12:24:52Z</time>
      </trkpt>
      <trkpt lat="47.21181" lon="6.65866">
        <ele>473.6</ele>
        <time>2026-05-13T12:25:00Z</time>
      </trkpt>
      <trkpt lat="47.21193" lon="6.65924">
        <ele>474</ele>
        <time>2026-05-13T12:25:06Z</time>
      </trkpt>
      <trkpt lat="47.21197" lon="6.65996">
        <ele>474.4</ele>
        <time>2026-05-13T12:25:14Z</time>
      </trkpt>
      <trkpt lat="47.21197" lon="6.66004">
        <ele>474.4</ele>
        <time>2026-05-13T12:25:15Z</time>
      </trkpt>
      <trkpt lat="47.21198" lon="6.66082">
        <ele>474.6</ele>
        <time>2026-05-13T12:25:23Z</time>
      </trkpt>
      <trkpt lat="47.21197" lon="6.66108">
        <ele>474.6</ele>
        <time>2026-05-13T12:25:26Z</time>
      </trkpt>
      <trkpt lat="47.21198" lon="6.66119">
        <ele>474.8</ele>
        <time>2026-05-13T12:25:27Z</time>
      </trkpt>
      <trkpt lat="47.21198" lon="6.66128">
        <ele>474.8</ele>
        <time>2026-05-13T12:25:28Z</time>
      </trkpt>
      <trkpt lat="47.21198" lon="6.66143">
        <ele>475</ele>
        <time>2026-05-13T12:25:30Z</time>
      </trkpt>
      <trkpt lat="47.21199" lon="6.66169">
        <ele>475.4</ele>
        <time>2026-05-13T12:25:33Z</time>
      </trkpt>
      <trkpt lat="47.212" lon="6.66191">
        <ele>476</ele>
        <time>2026-05-13T12:25:36Z</time>
      </trkpt>
      <trkpt lat="47.21204" lon="6.66214">
        <ele>476.4</ele>
        <time>2026-05-13T12:25:39Z</time>
      </trkpt>
      <trkpt lat="47.21207" lon="6.66249">
        <ele>477</ele>
        <time>2026-05-13T12:25:44Z</time>
      </trkpt>
      <trkpt lat="47.21209" lon="6.66262">
        <ele>477.2</ele>
        <time>2026-05-13T12:25:46Z</time>
      </trkpt>
      <trkpt lat="47.21221" lon="6.66299">
        <ele>477.4</ele>
        <time>2026-05-13T12:25:51Z</time>
      </trkpt>
      <trkpt lat="47.21228" lon="6.66311">
        <ele>477.6</ele>
        <time>2026-05-13T12:25:53Z</time>
      </trkpt>
      <trkpt lat="47.21239" lon="6.6633">
        <ele>478</ele>
        <time>2026-05-13T12:25:56Z</time>
      </trkpt>
      <trkpt lat="47.21248" lon="6.66342">
        <ele>478.2</ele>
        <time>2026-05-13T12:25:58Z</time>
      </trkpt>
      <trkpt lat="47.21252" lon="6.66347">
        <ele>478.2</ele>
        <time>2026-05-13T12:25:59Z</time>
      </trkpt>
      <trkpt lat="47.21282" lon="6.66384">
        <ele>478.2</ele>
        <time>2026-05-13T12:26:06Z</time>
      </trkpt>
      <trkpt lat="47.21318" lon="6.66427">
        <ele>478</ele>
        <time>2026-05-13T12:26:13Z</time>
      </trkpt>
      <trkpt lat="47.21345" lon="6.66466">
        <ele>478</ele>
        <time>2026-05-13T12:26:19Z</time>
      </trkpt>
      <trkpt lat="47.21348" lon="6.6647">
        <ele>478</ele>
        <time>2026-05-13T12:26:20Z</time>
      </trkpt>
      <trkpt lat="47.21367" lon="6.66489">
        <ele>478.2</ele>
        <time>2026-05-13T12:26:24Z</time>
      </trkpt>
      <trkpt lat="47.21376" lon="6.66497">
        <ele>478.6</ele>
        <time>2026-05-13T12:26:26Z</time>
      </trkpt>
      <trkpt lat="47.21406" lon="6.66512">
        <ele>478.8</ele>
        <time>2026-05-13T12:26:32Z</time>
      </trkpt>
      <trkpt lat="47.21429" lon="6.66527">
        <ele>478.2</ele>
        <time>2026-05-13T12:26:36Z</time>
      </trkpt>
      <trkpt lat="47.21435" lon="6.66533">
        <ele>477.8</ele>
        <time>2026-05-13T12:26:37Z</time>
      </trkpt>
      <trkpt lat="47.21465" lon="6.66567">
        <ele>477</ele>
        <time>2026-05-13T12:26:43Z</time>
      </trkpt>
      <trkpt lat="47.21489" lon="6.66602">
        <ele>476.8</ele>
        <time>2026-05-13T12:26:49Z</time>
      </trkpt>
      <trkpt lat="47.21494" lon="6.66609">
        <ele>476.8</ele>
        <time>2026-05-13T12:26:50Z</time>
      </trkpt>
      <trkpt lat="47.2152" lon="6.66651">
        <ele>476.6</ele>
        <time>2026-05-13T12:26:57Z</time>
      </trkpt>
      <trkpt lat="47.21559" lon="6.66714">
        <ele>477</ele>
        <time>2026-05-13T12:27:07Z</time>
      </trkpt>
      <trkpt lat="47.21571" lon="6.66732">
        <ele>477.2</ele>
        <time>2026-05-13T12:27:10Z</time>
      </trkpt>
      <trkpt lat="47.21578" lon="6.66745">
        <ele>477.4</ele>
        <time>2026-05-13T12:27:12Z</time>
      </trkpt>
      <trkpt lat="47.21607" lon="6.66787">
        <ele>477.6</ele>
        <time>2026-05-13T12:27:19Z</time>
      </trkpt>
      <trkpt lat="47.21611" lon="6.66793">
        <ele>477.6</ele>
        <time>2026-05-13T12:27:20Z</time>
      </trkpt>
      <trkpt lat="47.21643" lon="6.66831">
        <ele>477.4</ele>
        <time>2026-05-13T12:27:27Z</time>
      </trkpt>
      <trkpt lat="47.21677" lon="6.66869">
        <ele>477.2</ele>
        <time>2026-05-13T12:27:34Z</time>
      </trkpt>
      <trkpt lat="47.21709" lon="6.66906">
        <ele>477.6</ele>
        <time>2026-05-13T12:27:41Z</time>
      </trkpt>
      <trkpt lat="47.21713" lon="6.66911">
        <ele>477.8</ele>
        <time>2026-05-13T12:27:42Z</time>
      </trkpt>
      <trkpt lat="47.21733" lon="6.6695">
        <ele>477.8</ele>
        <time>2026-05-13T12:27:48Z</time>
      </trkpt>
      <trkpt lat="47.21741" lon="6.66982">
        <ele>477.8</ele>
        <time>2026-05-13T12:27:52Z</time>
      </trkpt>
      <trkpt lat="47.21749" lon="6.67013">
        <ele>477.8</ele>
        <time>2026-05-13T12:27:56Z</time>
      </trkpt>
      <trkpt lat="47.21759" lon="6.67035">
        <ele>477.8</ele>
        <time>2026-05-13T12:27:59Z</time>
      </trkpt>
      <trkpt lat="47.21771" lon="6.6705">
        <ele>477.8</ele>
        <time>2026-05-13T12:28:02Z</time>
      </trkpt>
      <trkpt lat="47.21781" lon="6.67062">
        <ele>477.8</ele>
        <time>2026-05-13T12:28:04Z</time>
      </trkpt>
      <trkpt lat="47.21788" lon="6.67076">
        <ele>477.8</ele>
        <time>2026-05-13T12:28:06Z</time>
      </trkpt>
      <trkpt lat="47.21791" lon="6.67082">
        <ele>477.8</ele>
        <time>2026-05-13T12:28:07Z</time>
      </trkpt>
      <trkpt lat="47.21793" lon="6.6709">
        <ele>477.8</ele>
        <time>2026-05-13T12:28:08Z</time>
      </trkpt>
      <trkpt lat="47.21797" lon="6.67109">
        <ele>477.8</ele>
        <time>2026-05-13T12:28:10Z</time>
      </trkpt>
      <trkpt lat="47.21799" lon="6.67124">
        <ele>477.8</ele>
        <time>2026-05-13T12:28:12Z</time>
      </trkpt>
      <trkpt lat="47.21793" lon="6.67168">
        <ele>478</ele>
        <time>2026-05-13T12:28:17Z</time>
      </trkpt>
      <trkpt lat="47.2179" lon="6.67183">
        <ele>478</ele>
        <time>2026-05-13T12:28:19Z</time>
      </trkpt>
      <trkpt lat="47.21785" lon="6.67215">
        <ele>478.2</ele>
        <time>2026-05-13T12:28:23Z</time>
      </trkpt>
      <trkpt lat="47.21779" lon="6.6725">
        <ele>478.6</ele>
        <time>2026-05-13T12:28:27Z</time>
      </trkpt>
      <trkpt lat="47.21778" lon="6.67266">
        <ele>479</ele>
        <time>2026-05-13T12:28:29Z</time>
      </trkpt>
      <trkpt lat="47.21778" lon="6.67275">
        <ele>479.2</ele>
        <time>2026-05-13T12:28:30Z</time>
      </trkpt>
      <trkpt lat="47.21777" lon="6.67298">
        <ele>479.4</ele>
        <time>2026-05-13T12:28:33Z</time>
      </trkpt>
      <trkpt lat="47.21781" lon="6.67324">
        <ele>479.8</ele>
        <time>2026-05-13T12:28:36Z</time>
      </trkpt>
      <trkpt lat="47.21782" lon="6.67341">
        <ele>479.8</ele>
        <time>2026-05-13T12:28:38Z</time>
      </trkpt>
      <trkpt lat="47.21782" lon="6.67359">
        <ele>480</ele>
        <time>2026-05-13T12:28:40Z</time>
      </trkpt>
      <trkpt lat="47.21781" lon="6.67367">
        <ele>480</ele>
        <time>2026-05-13T12:28:41Z</time>
      </trkpt>
      <trkpt lat="47.21781" lon="6.67376">
        <ele>480.2</ele>
        <time>2026-05-13T12:28:42Z</time>
      </trkpt>
      <trkpt lat="47.21775" lon="6.67436">
        <ele>481</ele>
        <time>2026-05-13T12:28:49Z</time>
      </trkpt>
      <trkpt lat="47.21774" lon="6.67445">
        <ele>481</ele>
        <time>2026-05-13T12:28:50Z</time>
      </trkpt>
      <trkpt lat="47.21767" lon="6.6749">
        <ele>481.6</ele>
        <time>2026-05-13T12:28:55Z</time>
      </trkpt>
      <trkpt lat="47.21764" lon="6.67499">
        <ele>481.6</ele>
        <time>2026-05-13T12:28:56Z</time>
      </trkpt>
      <trkpt lat="47.21745" lon="6.67545">
        <ele>482</ele>
        <time>2026-05-13T12:29:02Z</time>
      </trkpt>
      <trkpt lat="47.21739" lon="6.6756">
        <ele>482</ele>
        <time>2026-05-13T12:29:04Z</time>
      </trkpt>
      <trkpt lat="47.21736" lon="6.67568">
        <ele>482.2</ele>
        <time>2026-05-13T12:29:05Z</time>
      </trkpt>
      <trkpt lat="47.2173" lon="6.67593">
        <ele>482.6</ele>
        <time>2026-05-13T12:29:08Z</time>
      </trkpt>
      <trkpt lat="47.21728" lon="6.67608">
        <ele>483.2</ele>
        <time>2026-05-13T12:29:10Z</time>
      </trkpt>
      <trkpt lat="47.21725" lon="6.67626">
        <ele>483.4</ele>
        <time>2026-05-13T12:29:12Z</time>
      </trkpt>
      <trkpt lat="47.21723" lon="6.67641">
        <ele>483.6</ele>
        <time>2026-05-13T12:29:14Z</time>
      </trkpt>
      <trkpt lat="47.21717" lon="6.67696">
        <ele>484.2</ele>
        <time>2026-05-13T12:29:21Z</time>
      </trkpt>
      <trkpt lat="47.21716" lon="6.67705">
        <ele>484.4</ele>
        <time>2026-05-13T12:29:22Z</time>
      </trkpt>
      <trkpt lat="47.21715" lon="6.67713">
        <ele>484.4</ele>
        <time>2026-05-13T12:29:23Z</time>
      </trkpt>
      <trkpt lat="47.21715" lon="6.6772">
        <ele>484.6</ele>
        <time>2026-05-13T12:29:24Z</time>
      </trkpt>
      <trkpt lat="47.2172" lon="6.67764">
        <ele>485.2</ele>
        <time>2026-05-13T12:29:30Z</time>
      </trkpt>
      <trkpt lat="47.21723" lon="6.67779">
        <ele>485.2</ele>
        <time>2026-05-13T12:29:32Z</time>
      </trkpt>
      <trkpt lat="47.21725" lon="6.67784">
        <ele>485.6</ele>
        <time>2026-05-13T12:29:33Z</time>
      </trkpt>
      <trkpt lat="47.21726" lon="6.67792">
        <ele>485.6</ele>
        <time>2026-05-13T12:29:34Z</time>
      </trkpt>
      <trkpt lat="47.21734" lon="6.67832">
        <ele>486.6</ele>
        <time>2026-05-13T12:29:39Z</time>
      </trkpt>
      <trkpt lat="47.21736" lon="6.67838">
        <ele>486.8</ele>
        <time>2026-05-13T12:29:40Z</time>
      </trkpt>
      <trkpt lat="47.21739" lon="6.67845">
        <ele>486.8</ele>
        <time>2026-05-13T12:29:41Z</time>
      </trkpt>
      <trkpt lat="47.2175" lon="6.67865">
        <ele>487.2</ele>
        <time>2026-05-13T12:29:44Z</time>
      </trkpt>
      <trkpt lat="47.2176" lon="6.67891">
        <ele>487.6</ele>
        <time>2026-05-13T12:29:48Z</time>
      </trkpt>
      <trkpt lat="47.21769" lon="6.67906">
        <ele>488</ele>
        <time>2026-05-13T12:29:51Z</time>
      </trkpt>
      <trkpt lat="47.21775" lon="6.67921">
        <ele>488</ele>
        <time>2026-05-13T12:29:53Z</time>
      </trkpt>
      <trkpt lat="47.2178" lon="6.67941">
        <ele>488.4</ele>
        <time>2026-05-13T12:29:56Z</time>
      </trkpt>
      <trkpt lat="47.21784" lon="6.6796">
        <ele>488.8</ele>
        <time>2026-05-13T12:29:59Z</time>
      </trkpt>
      <trkpt lat="47.2179" lon="6.67979">
        <ele>489.4</ele>
        <time>2026-05-13T12:30:02Z</time>
      </trkpt>
      <trkpt lat="47.21794" lon="6.67999">
        <ele>489.8</ele>
        <time>2026-05-13T12:30:05Z</time>
      </trkpt>
      <trkpt lat="47.21805" lon="6.68035">
        <ele>490.2</ele>
        <time>2026-05-13T12:30:10Z</time>
      </trkpt>
      <trkpt lat="47.2182" lon="6.68076">
        <ele>489.8</ele>
        <time>2026-05-13T12:30:15Z</time>
      </trkpt>
      <trkpt lat="47.21834" lon="6.68121">
        <ele>488.4</ele>
        <time>2026-05-13T12:30:20Z</time>
      </trkpt>
      <trkpt lat="47.21841" lon="6.68139">
        <ele>487.6</ele>
        <time>2026-05-13T12:30:22Z</time>
      </trkpt>
      <trkpt lat="47.21847" lon="6.68159">
        <ele>487.2</ele>
        <time>2026-05-13T12:30:24Z</time>
      </trkpt>
      <trkpt lat="47.21858" lon="6.6819">
        <ele>485.6</ele>
        <time>2026-05-13T12:30:27Z</time>
      </trkpt>
      <trkpt lat="47.21861" lon="6.682">
        <ele>485.4</ele>
        <time>2026-05-13T12:30:28Z</time>
      </trkpt>
      <trkpt lat="47.21868" lon="6.68219">
        <ele>484.4</ele>
        <time>2026-05-13T12:30:30Z</time>
      </trkpt>
      <trkpt lat="47.21882" lon="6.68262">
        <ele>483.4</ele>
        <time>2026-05-13T12:30:34Z</time>
      </trkpt>
      <trkpt lat="47.21889" lon="6.68287">
        <ele>482.8</ele>
        <time>2026-05-13T12:30:36Z</time>
      </trkpt>
      <trkpt lat="47.21896" lon="6.68319">
        <ele>482</ele>
        <time>2026-05-13T12:30:39Z</time>
      </trkpt>
      <trkpt lat="47.219" lon="6.68347">
        <ele>481.2</ele>
        <time>2026-05-13T12:30:41Z</time>
      </trkpt>
      <trkpt lat="47.21901" lon="6.68359">
        <ele>480.8</ele>
        <time>2026-05-13T12:30:42Z</time>
      </trkpt>
      <trkpt lat="47.21903" lon="6.6841">
        <ele>479.6</ele>
        <time>2026-05-13T12:30:46Z</time>
      </trkpt>
      <trkpt lat="47.21906" lon="6.6845">
        <ele>478.2</ele>
        <time>2026-05-13T12:30:49Z</time>
      </trkpt>
      <trkpt lat="47.21913" lon="6.68498">
        <ele>477</ele>
        <time>2026-05-13T12:30:53Z</time>
      </trkpt>
      <trkpt lat="47.21915" lon="6.68512">
        <ele>476.6</ele>
        <time>2026-05-13T12:30:54Z</time>
      </trkpt>
      <trkpt lat="47.21915" lon="6.68524">
        <ele>476.4</ele>
        <time>2026-05-13T12:30:55Z</time>
      </trkpt>
      <trkpt lat="47.21916" lon="6.68537">
        <ele>475.8</ele>
        <time>2026-05-13T12:30:56Z</time>
      </trkpt>
      <trkpt lat="47.21914" lon="6.68573">
        <ele>475</ele>
        <time>2026-05-13T12:30:59Z</time>
      </trkpt>
      <trkpt lat="47.21912" lon="6.68586">
        <ele>474.8</ele>
        <time>2026-05-13T12:31:00Z</time>
      </trkpt>
      <trkpt lat="47.21905" lon="6.68624">
        <ele>473</ele>
        <time>2026-05-13T12:31:03Z</time>
      </trkpt>
      <trkpt lat="47.21902" lon="6.68647">
        <ele>471.6</ele>
        <time>2026-05-13T12:31:05Z</time>
      </trkpt>
      <trkpt lat="47.21898" lon="6.68671">
        <ele>470.8</ele>
        <time>2026-05-13T12:31:07Z</time>
      </trkpt>
      <trkpt lat="47.21896" lon="6.68682">
        <ele>470.2</ele>
        <time>2026-05-13T12:31:08Z</time>
      </trkpt>
      <trkpt lat="47.21894" lon="6.68705">
        <ele>469</ele>
        <time>2026-05-13T12:31:10Z</time>
      </trkpt>
      <trkpt lat="47.21893" lon="6.68728">
        <ele>468.2</ele>
        <time>2026-05-13T12:31:12Z</time>
      </trkpt>
      <trkpt lat="47.21893" lon="6.6874">
        <ele>467.6</ele>
        <time>2026-05-13T12:31:13Z</time>
      </trkpt>
      <trkpt lat="47.21893" lon="6.68782">
        <ele>466.6</ele>
        <time>2026-05-13T12:31:17Z</time>
      </trkpt>
      <trkpt lat="47.21893" lon="6.68793">
        <ele>466.4</ele>
        <time>2026-05-13T12:31:18Z</time>
      </trkpt>
      <trkpt lat="47.21902" lon="6.68862">
        <ele>466</ele>
        <time>2026-05-13T12:31:25Z</time>
      </trkpt>
      <trkpt lat="47.21911" lon="6.6894">
        <ele>465.8</ele>
        <time>2026-05-13T12:31:33Z</time>
      </trkpt>
      <trkpt lat="47.21916" lon="6.6898">
        <ele>465.6</ele>
        <time>2026-05-13T12:31:37Z</time>
      </trkpt>
      <trkpt lat="47.21923" lon="6.6903">
        <ele>465.6</ele>
        <time>2026-05-13T12:31:42Z</time>
      </trkpt>
      <trkpt lat="47.21934" lon="6.69115">
        <ele>464.8</ele>
        <time>2026-05-13T12:31:50Z</time>
      </trkpt>
      <trkpt lat="47.21937" lon="6.69137">
        <ele>464.8</ele>
        <time>2026-05-13T12:31:52Z</time>
      </trkpt>
      <trkpt lat="47.21945" lon="6.69202">
        <ele>464.2</ele>
        <time>2026-05-13T12:31:58Z</time>
      </trkpt>
      <trkpt lat="47.21956" lon="6.69285">
        <ele>464</ele>
        <time>2026-05-13T12:32:06Z</time>
      </trkpt>
      <trkpt lat="47.21963" lon="6.69334">
        <ele>464</ele>
        <time>2026-05-13T12:32:11Z</time>
      </trkpt>
      <trkpt lat="47.21975" lon="6.69402">
        <ele>464.2</ele>
        <time>2026-05-13T12:32:18Z</time>
      </trkpt>
      <trkpt lat="47.21984" lon="6.69439">
        <ele>464</ele>
        <time>2026-05-13T12:32:22Z</time>
      </trkpt>
      <trkpt lat="47.21994" lon="6.69465">
        <ele>464</ele>
        <time>2026-05-13T12:32:25Z</time>
      </trkpt>
      <trkpt lat="47.22013" lon="6.69494">
        <ele>463.8</ele>
        <time>2026-05-13T12:32:29Z</time>
      </trkpt>
      <trkpt lat="47.22049" lon="6.69524">
        <ele>463.8</ele>
        <time>2026-05-13T12:32:35Z</time>
      </trkpt>
      <trkpt lat="47.22092" lon="6.69567">
        <ele>463.8</ele>
        <time>2026-05-13T12:32:42Z</time>
      </trkpt>
      <trkpt lat="47.22114" lon="6.69594">
        <ele>463.6</ele>
        <time>2026-05-13T12:32:46Z</time>
      </trkpt>
      <trkpt lat="47.22125" lon="6.69606">
        <ele>463.6</ele>
        <time>2026-05-13T12:32:48Z</time>
      </trkpt>
      <trkpt lat="47.22136" lon="6.69619">
        <ele>463.6</ele>
        <time>2026-05-13T12:32:50Z</time>
      </trkpt>
      <trkpt lat="47.22152" lon="6.69639">
        <ele>463.6</ele>
        <time>2026-05-13T12:32:53Z</time>
      </trkpt>
      <trkpt lat="47.22189" lon="6.69678">
        <ele>463.8</ele>
        <time>2026-05-13T12:33:00Z</time>
      </trkpt>
      <trkpt lat="47.22206" lon="6.69692">
        <ele>463.8</ele>
        <time>2026-05-13T12:33:03Z</time>
      </trkpt>
      <trkpt lat="47.22223" lon="6.69702">
        <ele>463.8</ele>
        <time>2026-05-13T12:33:06Z</time>
      </trkpt>
      <trkpt lat="47.22275" lon="6.6973">
        <ele>464</ele>
        <time>2026-05-13T12:33:14Z</time>
      </trkpt>
      <trkpt lat="47.22302" lon="6.69745">
        <ele>463.8</ele>
        <time>2026-05-13T12:33:18Z</time>
      </trkpt>
      <trkpt lat="47.22314" lon="6.69754">
        <ele>463.8</ele>
        <time>2026-05-13T12:33:20Z</time>
      </trkpt>
      <trkpt lat="47.22346" lon="6.69786">
        <ele>463.6</ele>
        <time>2026-05-13T12:33:26Z</time>
      </trkpt>
      <trkpt lat="47.2238" lon="6.69821">
        <ele>463.6</ele>
        <time>2026-05-13T12:33:33Z</time>
      </trkpt>
      <trkpt lat="47.22403" lon="6.69848">
        <ele>463.6</ele>
        <time>2026-05-13T12:33:38Z</time>
      </trkpt>
      <trkpt lat="47.22411" lon="6.69863">
        <ele>463.6</ele>
        <time>2026-05-13T12:33:40Z</time>
      </trkpt>
      <trkpt lat="47.22417" lon="6.69899">
        <ele>463.4</ele>
        <time>2026-05-13T12:33:44Z</time>
      </trkpt>
      <trkpt lat="47.22419" lon="6.69949">
        <ele>463.4</ele>
        <time>2026-05-13T12:33:50Z</time>
      </trkpt>
      <trkpt lat="47.22421" lon="6.69958">
        <ele>463.4</ele>
        <time>2026-05-13T12:33:51Z</time>
      </trkpt>
      <trkpt lat="47.22424" lon="6.69966">
        <ele>463.6</ele>
        <time>2026-05-13T12:33:52Z</time>
      </trkpt>
      <trkpt lat="47.2243" lon="6.6998">
        <ele>463.6</ele>
        <time>2026-05-13T12:33:54Z</time>
      </trkpt>
      <trkpt lat="47.22434" lon="6.69986">
        <ele>463.6</ele>
        <time>2026-05-13T12:33:55Z</time>
      </trkpt>
      <trkpt lat="47.22466" lon="6.70014">
        <ele>463.6</ele>
        <time>2026-05-13T12:34:01Z</time>
      </trkpt>
      <trkpt lat="47.22511" lon="6.7005">
        <ele>463.2</ele>
        <time>2026-05-13T12:34:09Z</time>
      </trkpt>
      <trkpt lat="47.22555" lon="6.70087">
        <ele>463.4</ele>
        <time>2026-05-13T12:34:17Z</time>
      </trkpt>
      <trkpt lat="47.22559" lon="6.7009">
        <ele>463.4</ele>
        <time>2026-05-13T12:34:18Z</time>
      </trkpt>
      <trkpt lat="47.22577" lon="6.70099">
        <ele>463.6</ele>
        <time>2026-05-13T12:34:21Z</time>
      </trkpt>
      <trkpt lat="47.22582" lon="6.70101">
        <ele>463.6</ele>
        <time>2026-05-13T12:34:22Z</time>
      </trkpt>
      <trkpt lat="47.226" lon="6.70101">
        <ele>463.8</ele>
        <time>2026-05-13T12:34:25Z</time>
      </trkpt>
      <trkpt lat="47.22612" lon="6.70098">
        <ele>463.8</ele>
        <time>2026-05-13T12:34:27Z</time>
      </trkpt>
      <trkpt lat="47.22622" lon="6.70094">
        <ele>463.6</ele>
        <time>2026-05-13T12:34:29Z</time>
      </trkpt>
      <trkpt lat="47.22634" lon="6.70086">
        <ele>463.4</ele>
        <time>2026-05-13T12:34:31Z</time>
      </trkpt>
      <trkpt lat="47.22639" lon="6.70081">
        <ele>463.4</ele>
        <time>2026-05-13T12:34:32Z</time>
      </trkpt>
      <trkpt lat="47.22649" lon="6.70067">
        <ele>463.2</ele>
        <time>2026-05-13T12:34:34Z</time>
      </trkpt>
      <trkpt lat="47.22653" lon="6.7006">
        <ele>463.2</ele>
        <time>2026-05-13T12:34:35Z</time>
      </trkpt>
      <trkpt lat="47.2267" lon="6.70013">
        <ele>462.6</ele>
        <time>2026-05-13T12:34:40Z</time>
      </trkpt>
      <trkpt lat="47.22674" lon="6.70004">
        <ele>462.6</ele>
        <time>2026-05-13T12:34:41Z</time>
      </trkpt>
      <trkpt lat="47.2269" lon="6.69966">
        <ele>462.2</ele>
        <time>2026-05-13T12:34:45Z</time>
      </trkpt>
      <trkpt lat="47.22699" lon="6.69951">
        <ele>462</ele>
        <time>2026-05-13T12:34:47Z</time>
      </trkpt>
      <trkpt lat="47.2271" lon="6.69937">
        <ele>461.8</ele>
        <time>2026-05-13T12:34:49Z</time>
      </trkpt>
      <trkpt lat="47.22721" lon="6.69925">
        <ele>461.6</ele>
        <time>2026-05-13T12:34:51Z</time>
      </trkpt>
      <trkpt lat="47.22728" lon="6.6992">
        <ele>461.6</ele>
        <time>2026-05-13T12:34:52Z</time>
      </trkpt>
      <trkpt lat="47.22735" lon="6.69916">
        <ele>461.4</ele>
        <time>2026-05-13T12:34:53Z</time>
      </trkpt>
      <trkpt lat="47.22749" lon="6.69913">
        <ele>461</ele>
        <time>2026-05-13T12:34:55Z</time>
      </trkpt>
      <trkpt lat="47.22756" lon="6.69913">
        <ele>460.8</ele>
        <time>2026-05-13T12:34:56Z</time>
      </trkpt>
      <trkpt lat="47.22763" lon="6.69914">
        <ele>460.8</ele>
        <time>2026-05-13T12:34:57Z</time>
      </trkpt>
      <trkpt lat="47.22783" lon="6.69922">
        <ele>460.6</ele>
        <time>2026-05-13T12:35:00Z</time>
      </trkpt>
      <trkpt lat="47.2282" lon="6.69943">
        <ele>460.6</ele>
        <time>2026-05-13T12:35:06Z</time>
      </trkpt>
      <trkpt lat="47.22839" lon="6.69952">
        <ele>460.4</ele>
        <time>2026-05-13T12:35:09Z</time>
      </trkpt>
      <trkpt lat="47.22852" lon="6.69954">
        <ele>460.4</ele>
        <time>2026-05-13T12:35:11Z</time>
      </trkpt>
      <trkpt lat="47.22865" lon="6.69954">
        <ele>460.4</ele>
        <time>2026-05-13T12:35:13Z</time>
      </trkpt>
      <trkpt lat="47.22892" lon="6.69953">
        <ele>460</ele>
        <time>2026-05-13T12:35:17Z</time>
      </trkpt>
      <trkpt lat="47.22898" lon="6.69953">
        <ele>459.6</ele>
        <time>2026-05-13T12:35:18Z</time>
      </trkpt>
      <trkpt lat="47.22905" lon="6.69955">
        <ele>459.6</ele>
        <time>2026-05-13T12:35:19Z</time>
      </trkpt>
      <trkpt lat="47.22922" lon="6.6996">
        <ele>459.2</ele>
        <time>2026-05-13T12:35:21Z</time>
      </trkpt>
      <trkpt lat="47.22929" lon="6.69964">
        <ele>458.6</ele>
        <time>2026-05-13T12:35:22Z</time>
      </trkpt>
      <trkpt lat="47.22937" lon="6.69969">
        <ele>458.2</ele>
        <time>2026-05-13T12:35:23Z</time>
      </trkpt>
      <trkpt lat="47.2295" lon="6.69983">
        <ele>457.8</ele>
        <time>2026-05-13T12:35:25Z</time>
      </trkpt>
      <trkpt lat="47.22956" lon="6.69991">
        <ele>457.8</ele>
        <time>2026-05-13T12:35:26Z</time>
      </trkpt>
      <trkpt lat="47.22977" lon="6.7002">
        <ele>457</ele>
        <time>2026-05-13T12:35:30Z</time>
      </trkpt>
      <trkpt lat="47.22982" lon="6.70027">
        <ele>456.8</ele>
        <time>2026-05-13T12:35:31Z</time>
      </trkpt>
      <trkpt lat="47.2299" lon="6.70039">
        <ele>456.6</ele>
        <time>2026-05-13T12:35:33Z</time>
      </trkpt>
      <trkpt lat="47.23008" lon="6.70054">
        <ele>456.4</ele>
        <time>2026-05-13T12:35:36Z</time>
      </trkpt>
      <trkpt lat="47.23014" lon="6.70057">
        <ele>456.4</ele>
        <time>2026-05-13T12:35:37Z</time>
      </trkpt>
      <trkpt lat="47.23027" lon="6.7006">
        <ele>456.2</ele>
        <time>2026-05-13T12:35:39Z</time>
      </trkpt>
      <trkpt lat="47.2304" lon="6.70056">
        <ele>456</ele>
        <time>2026-05-13T12:35:41Z</time>
      </trkpt>
      <trkpt lat="47.23046" lon="6.70052">
        <ele>455.8</ele>
        <time>2026-05-13T12:35:42Z</time>
      </trkpt>
      <trkpt lat="47.2308" lon="6.70021">
        <ele>455.6</ele>
        <time>2026-05-13T12:35:48Z</time>
      </trkpt>
      <trkpt lat="47.23103" lon="6.70005">
        <ele>455.4</ele>
        <time>2026-05-13T12:35:52Z</time>
      </trkpt>
      <trkpt lat="47.23111" lon="6.70002">
        <ele>455.4</ele>
        <time>2026-05-13T12:35:53Z</time>
      </trkpt>
      <trkpt lat="47.23123" lon="6.69995">
        <ele>455.2</ele>
        <time>2026-05-13T12:35:55Z</time>
      </trkpt>
      <trkpt lat="47.23136" lon="6.69989">
        <ele>455.2</ele>
        <time>2026-05-13T12:35:57Z</time>
      </trkpt>
      <trkpt lat="47.23142" lon="6.69987">
        <ele>455.2</ele>
        <time>2026-05-13T12:35:58Z</time>
      </trkpt>
      <trkpt lat="47.23153" lon="6.69985">
        <ele>455.2</ele>
        <time>2026-05-13T12:36:00Z</time>
      </trkpt>
      <trkpt lat="47.23159" lon="6.69985">
        <ele>454.8</ele>
        <time>2026-05-13T12:36:01Z</time>
      </trkpt>
      <trkpt lat="47.23199" lon="6.69988">
        <ele>454.8</ele>
        <time>2026-05-13T12:36:07Z</time>
      </trkpt>
      <trkpt lat="47.23211" lon="6.6999">
        <ele>454.8</ele>
        <time>2026-05-13T12:36:09Z</time>
      </trkpt>
      <trkpt lat="47.23242" lon="6.69998">
        <ele>454.8</ele>
        <time>2026-05-13T12:36:14Z</time>
      </trkpt>
      <trkpt lat="47.23268" lon="6.70004">
        <ele>454.8</ele>
        <time>2026-05-13T12:36:18Z</time>
      </trkpt>
      <trkpt lat="47.23281" lon="6.70005">
        <ele>454.6</ele>
        <time>2026-05-13T12:36:20Z</time>
      </trkpt>
      <trkpt lat="47.23312" lon="6.70008">
        <ele>454.4</ele>
        <time>2026-05-13T12:36:25Z</time>
      </trkpt>
      <trkpt lat="47.23325" lon="6.70009">
        <ele>454.4</ele>
        <time>2026-05-13T12:36:27Z</time>
      </trkpt>
      <trkpt lat="47.23343" lon="6.70008">
        <ele>454.2</ele>
        <time>2026-05-13T12:36:30Z</time>
      </trkpt>
      <trkpt lat="47.23356" lon="6.70006">
        <ele>454.2</ele>
        <time>2026-05-13T12:36:32Z</time>
      </trkpt>
      <trkpt lat="47.23362" lon="6.70006">
        <ele>454.2</ele>
        <time>2026-05-13T12:36:33Z</time>
      </trkpt>
      <trkpt lat="47.23389" lon="6.70003">
        <ele>454.2</ele>
        <time>2026-05-13T12:36:38Z</time>
      </trkpt>
      <trkpt lat="47.23409" lon="6.69998">
        <ele>454.2</ele>
        <time>2026-05-13T12:36:42Z</time>
      </trkpt>
      <trkpt lat="47.23414" lon="6.69996">
        <ele>454.2</ele>
        <time>2026-05-13T12:36:43Z</time>
      </trkpt>
      <trkpt lat="47.23419" lon="6.69995">
        <ele>454.2</ele>
        <time>2026-05-13T12:36:44Z</time>
      </trkpt>
      <trkpt lat="47.23433" lon="6.69991">
        <ele>454.4</ele>
        <time>2026-05-13T12:36:47Z</time>
      </trkpt>
      <trkpt lat="47.23439" lon="6.69991">
        <ele>454.4</ele>
        <time>2026-05-13T12:36:48Z</time>
      </trkpt>
      <trkpt lat="47.23474" lon="6.69978">
        <ele>454.6</ele>
        <time>2026-05-13T12:36:55Z</time>
      </trkpt>
      <trkpt lat="47.23516" lon="6.69963">
        <ele>455</ele>
        <time>2026-05-13T12:37:03Z</time>
      </trkpt>
      <trkpt lat="47.23553" lon="6.69942">
        <ele>455.4</ele>
        <time>2026-05-13T12:37:10Z</time>
      </trkpt>
      <trkpt lat="47.23557" lon="6.69938">
        <ele>455.6</ele>
        <time>2026-05-13T12:37:11Z</time>
      </trkpt>
      <trkpt lat="47.23602" lon="6.69909">
        <ele>454.8</ele>
        <time>2026-05-13T12:37:19Z</time>
      </trkpt>
      <trkpt lat="47.23621" lon="6.69901">
        <ele>454.4</ele>
        <time>2026-05-13T12:37:22Z</time>
      </trkpt>
      <trkpt lat="47.23647" lon="6.69896">
        <ele>454</ele>
        <time>2026-05-13T12:37:26Z</time>
      </trkpt>
      <trkpt lat="47.23704" lon="6.69884">
        <ele>453.4</ele>
        <time>2026-05-13T12:37:34Z</time>
      </trkpt>
      <trkpt lat="47.23724" lon="6.69882">
        <ele>453.2</ele>
        <time>2026-05-13T12:37:37Z</time>
      </trkpt>
      <trkpt lat="47.23745" lon="6.6988">
        <ele>453</ele>
        <time>2026-05-13T12:37:40Z</time>
      </trkpt>
      <trkpt lat="47.23765" lon="6.6988">
        <ele>452.6</ele>
        <time>2026-05-13T12:37:43Z</time>
      </trkpt>
      <trkpt lat="47.23818" lon="6.69886">
        <ele>452.2</ele>
        <time>2026-05-13T12:37:51Z</time>
      </trkpt>
      <trkpt lat="47.23825" lon="6.69888">
        <ele>452</ele>
        <time>2026-05-13T12:37:52Z</time>
      </trkpt>
      <trkpt lat="47.23856" lon="6.69902">
        <ele>451.8</ele>
        <time>2026-05-13T12:37:57Z</time>
      </trkpt>
      <trkpt lat="47.239" lon="6.69915">
        <ele>451.8</ele>
        <time>2026-05-13T12:38:04Z</time>
      </trkpt>
      <trkpt lat="47.23939" lon="6.69916">
        <ele>451.8</ele>
        <time>2026-05-13T12:38:11Z</time>
      </trkpt>
      <trkpt lat="47.23972" lon="6.69914">
        <ele>452</ele>
        <time>2026-05-13T12:38:17Z</time>
      </trkpt>
      <trkpt lat="47.23978" lon="6.69914">
        <ele>452</ele>
        <time>2026-05-13T12:38:18Z</time>
      </trkpt>
      <trkpt lat="47.24017" lon="6.69912">
        <ele>452.6</ele>
        <time>2026-05-13T12:38:25Z</time>
      </trkpt>
      <trkpt lat="47.24055" lon="6.69904">
        <ele>452.8</ele>
        <time>2026-05-13T12:38:32Z</time>
      </trkpt>
      <trkpt lat="47.2406" lon="6.69902">
        <ele>452.8</ele>
        <time>2026-05-13T12:38:33Z</time>
      </trkpt>
      <trkpt lat="47.24074" lon="6.69896">
        <ele>453</ele>
        <time>2026-05-13T12:38:36Z</time>
      </trkpt>
      <trkpt lat="47.2408" lon="6.69895">
        <ele>453</ele>
        <time>2026-05-13T12:38:37Z</time>
      </trkpt>
      <trkpt lat="47.24086" lon="6.69894">
        <ele>453</ele>
        <time>2026-05-13T12:38:38Z</time>
      </trkpt>
      <trkpt lat="47.24099" lon="6.69893">
        <ele>453</ele>
        <time>2026-05-13T12:38:40Z</time>
      </trkpt>
      <trkpt lat="47.24111" lon="6.69892">
        <ele>453</ele>
        <time>2026-05-13T12:38:42Z</time>
      </trkpt>
      <trkpt lat="47.24116" lon="6.6989">
        <ele>453.2</ele>
        <time>2026-05-13T12:38:43Z</time>
      </trkpt>
      <trkpt lat="47.24166" lon="6.69884">
        <ele>452.8</ele>
        <time>2026-05-13T12:38:51Z</time>
      </trkpt>
      <trkpt lat="47.24203" lon="6.69867">
        <ele>452.8</ele>
        <time>2026-05-13T12:38:57Z</time>
      </trkpt>
      <trkpt lat="47.24227" lon="6.69853">
        <ele>452.6</ele>
        <time>2026-05-13T12:39:01Z</time>
      </trkpt>
      <trkpt lat="47.24241" lon="6.6985">
        <ele>452.6</ele>
        <time>2026-05-13T12:39:03Z</time>
      </trkpt>
      <trkpt lat="47.24247" lon="6.69849">
        <ele>452.6</ele>
        <time>2026-05-13T12:39:04Z</time>
      </trkpt>
      <trkpt lat="47.24294" lon="6.69844">
        <ele>452.6</ele>
        <time>2026-05-13T12:39:11Z</time>
      </trkpt>
      <trkpt lat="47.24346" lon="6.69847">
        <ele>452.8</ele>
        <time>2026-05-13T12:39:19Z</time>
      </trkpt>
      <trkpt lat="47.24383" lon="6.69858">
        <ele>452.8</ele>
        <time>2026-05-13T12:39:25Z</time>
      </trkpt>
      <trkpt lat="47.24421" lon="6.69869">
        <ele>453</ele>
        <time>2026-05-13T12:39:32Z</time>
      </trkpt>
      <trkpt lat="47.24454" lon="6.6988">
        <ele>453.2</ele>
        <time>2026-05-13T12:39:38Z</time>
      </trkpt>
      <trkpt lat="47.24482" lon="6.69881">
        <ele>453.8</ele>
        <time>2026-05-13T12:39:43Z</time>
      </trkpt>
      <trkpt lat="47.24487" lon="6.6988">
        <ele>453.8</ele>
        <time>2026-05-13T12:39:44Z</time>
      </trkpt>
      <trkpt lat="47.24528" lon="6.69872">
        <ele>453.8</ele>
        <time>2026-05-13T12:39:51Z</time>
      </trkpt>
      <trkpt lat="47.24575" lon="6.69866">
        <ele>453.4</ele>
        <time>2026-05-13T12:39:59Z</time>
      </trkpt>
      <trkpt lat="47.24599" lon="6.69869">
        <ele>453</ele>
        <time>2026-05-13T12:40:03Z</time>
      </trkpt>
      <trkpt lat="47.24616" lon="6.69876">
        <ele>452.8</ele>
        <time>2026-05-13T12:40:06Z</time>
      </trkpt>
      <trkpt lat="47.24621" lon="6.69879">
        <ele>452.8</ele>
        <time>2026-05-13T12:40:07Z</time>
      </trkpt>
      <trkpt lat="47.24636" lon="6.6989">
        <ele>452.8</ele>
        <time>2026-05-13T12:40:10Z</time>
      </trkpt>
      <trkpt lat="47.24641" lon="6.69893">
        <ele>452.8</ele>
        <time>2026-05-13T12:40:11Z</time>
      </trkpt>
      <trkpt lat="47.24646" lon="6.69896">
        <ele>452.8</ele>
        <time>2026-05-13T12:40:12Z</time>
      </trkpt>
      <trkpt lat="47.24657" lon="6.69906">
        <ele>452.6</ele>
        <time>2026-05-13T12:40:14Z</time>
      </trkpt>
      <trkpt lat="47.24662" lon="6.69912">
        <ele>452.6</ele>
        <time>2026-05-13T12:40:15Z</time>
      </trkpt>
      <trkpt lat="47.24698" lon="6.69954">
        <ele>452.6</ele>
        <time>2026-05-13T12:40:22Z</time>
      </trkpt>
      <trkpt lat="47.24729" lon="6.70007">
        <ele>452.6</ele>
        <time>2026-05-13T12:40:29Z</time>
      </trkpt>
      <trkpt lat="47.24732" lon="6.70015">
        <ele>452.6</ele>
        <time>2026-05-13T12:40:30Z</time>
      </trkpt>
      <trkpt lat="47.24745" lon="6.70073">
        <ele>452.4</ele>
        <time>2026-05-13T12:40:37Z</time>
      </trkpt>
      <trkpt lat="47.24745" lon="6.70132">
        <ele>452.4</ele>
        <time>2026-05-13T12:40:44Z</time>
      </trkpt>
      <trkpt lat="47.24742" lon="6.70198">
        <ele>452.2</ele>
        <time>2026-05-13T12:40:52Z</time>
      </trkpt>
      <trkpt lat="47.24738" lon="6.70269">
        <ele>451.8</ele>
        <time>2026-05-13T12:41:01Z</time>
      </trkpt>
      <trkpt lat="47.24736" lon="6.70308">
        <ele>451.6</ele>
        <time>2026-05-13T12:41:06Z</time>
      </trkpt>
      <trkpt lat="47.24735" lon="6.70323">
        <ele>451.6</ele>
        <time>2026-05-13T12:41:08Z</time>
      </trkpt>
      <trkpt lat="47.24734" lon="6.70348">
        <ele>451.6</ele>
        <time>2026-05-13T12:41:11Z</time>
      </trkpt>
      <trkpt lat="47.24733" lon="6.70374">
        <ele>451.8</ele>
        <time>2026-05-13T12:41:14Z</time>
      </trkpt>
      <trkpt lat="47.24742" lon="6.70434">
        <ele>451.8</ele>
        <time>2026-05-13T12:41:21Z</time>
      </trkpt>
      <trkpt lat="47.24747" lon="6.70451">
        <ele>451.6</ele>
        <time>2026-05-13T12:41:23Z</time>
      </trkpt>
      <trkpt lat="47.24753" lon="6.70466">
        <ele>451.4</ele>
        <time>2026-05-13T12:41:25Z</time>
      </trkpt>
      <trkpt lat="47.24758" lon="6.70473">
        <ele>451.2</ele>
        <time>2026-05-13T12:41:26Z</time>
      </trkpt>
      <trkpt lat="47.24763" lon="6.70479">
        <ele>451.2</ele>
        <time>2026-05-13T12:41:27Z</time>
      </trkpt>
      <trkpt lat="47.24781" lon="6.70492">
        <ele>450.8</ele>
        <time>2026-05-13T12:41:30Z</time>
      </trkpt>
      <trkpt lat="47.24799" lon="6.70498">
        <ele>450.8</ele>
        <time>2026-05-13T12:41:33Z</time>
      </trkpt>
      <trkpt lat="47.24811" lon="6.70498">
        <ele>451</ele>
        <time>2026-05-13T12:41:35Z</time>
      </trkpt>
      <trkpt lat="47.24822" lon="6.70498">
        <ele>451</ele>
        <time>2026-05-13T12:41:37Z</time>
      </trkpt>
      <trkpt lat="47.24831" lon="6.70494">
        <ele>451</ele>
        <time>2026-05-13T12:41:39Z</time>
      </trkpt>
      <trkpt lat="47.2484" lon="6.70487">
        <ele>450.8</ele>
        <time>2026-05-13T12:41:41Z</time>
      </trkpt>
      <trkpt lat="47.2485" lon="6.70478">
        <ele>451</ele>
        <time>2026-05-13T12:41:43Z</time>
      </trkpt>
      <trkpt lat="47.24864" lon="6.70468">
        <ele>451</ele>
        <time>2026-05-13T12:41:45Z</time>
      </trkpt>
      <trkpt lat="47.24871" lon="6.70464">
        <ele>451</ele>
        <time>2026-05-13T12:41:46Z</time>
      </trkpt>
      <trkpt lat="47.24878" lon="6.70459">
        <ele>451.2</ele>
        <time>2026-05-13T12:41:47Z</time>
      </trkpt>
      <trkpt lat="47.24897" lon="6.70448">
        <ele>451.6</ele>
        <time>2026-05-13T12:41:50Z</time>
      </trkpt>
      <trkpt lat="47.24904" lon="6.70445">
        <ele>451.6</ele>
        <time>2026-05-13T12:41:51Z</time>
      </trkpt>
      <trkpt lat="47.24929" lon="6.70435">
        <ele>451.6</ele>
        <time>2026-05-13T12:41:55Z</time>
      </trkpt>
      <trkpt lat="47.24956" lon="6.70425">
        <ele>451.6</ele>
        <time>2026-05-13T12:41:59Z</time>
      </trkpt>
      <trkpt lat="47.24968" lon="6.70419">
        <ele>451.4</ele>
        <time>2026-05-13T12:42:01Z</time>
      </trkpt>
      <trkpt lat="47.24974" lon="6.70417">
        <ele>451.4</ele>
        <time>2026-05-13T12:42:02Z</time>
      </trkpt>
      <trkpt lat="47.24984" lon="6.70414">
        <ele>451.4</ele>
        <time>2026-05-13T12:42:04Z</time>
      </trkpt>
      <trkpt lat="47.25004" lon="6.70412">
        <ele>451.2</ele>
        <time>2026-05-13T12:42:07Z</time>
      </trkpt>
      <trkpt lat="47.25027" lon="6.70409">
        <ele>451.2</ele>
        <time>2026-05-13T12:42:11Z</time>
      </trkpt>
      <trkpt lat="47.25038" lon="6.7041">
        <ele>451</ele>
        <time>2026-05-13T12:42:13Z</time>
      </trkpt>
      <trkpt lat="47.25062" lon="6.70412">
        <ele>451</ele>
        <time>2026-05-13T12:42:17Z</time>
      </trkpt>
      <trkpt lat="47.25074" lon="6.70413">
        <ele>450.8</ele>
        <time>2026-05-13T12:42:19Z</time>
      </trkpt>
      <trkpt lat="47.25123" lon="6.7042">
        <ele>450.4</ele>
        <time>2026-05-13T12:42:27Z</time>
      </trkpt>
      <trkpt lat="47.2513" lon="6.70422">
        <ele>450.4</ele>
        <time>2026-05-13T12:42:28Z</time>
      </trkpt>
      <trkpt lat="47.25171" lon="6.70438">
        <ele>450.2</ele>
        <time>2026-05-13T12:42:35Z</time>
      </trkpt>
      <trkpt lat="47.25209" lon="6.70461">
        <ele>450</ele>
        <time>2026-05-13T12:42:42Z</time>
      </trkpt>
      <trkpt lat="47.25244" lon="6.7048">
        <ele>450</ele>
        <time>2026-05-13T12:42:49Z</time>
      </trkpt>
      <trkpt lat="47.25294" lon="6.7052">
        <ele>449.6</ele>
        <time>2026-05-13T12:42:59Z</time>
      </trkpt>
      <trkpt lat="47.25325" lon="6.7055">
        <ele>449.8</ele>
        <time>2026-05-13T12:43:06Z</time>
      </trkpt>
      <trkpt lat="47.25338" lon="6.70564">
        <ele>449.8</ele>
        <time>2026-05-13T12:43:09Z</time>
      </trkpt>
      <trkpt lat="47.25351" lon="6.70579">
        <ele>449.8</ele>
        <time>2026-05-13T12:43:12Z</time>
      </trkpt>
      <trkpt lat="47.25364" lon="6.70595">
        <ele>449.8</ele>
        <time>2026-05-13T12:43:15Z</time>
      </trkpt>
      <trkpt lat="47.2537" lon="6.70608">
        <ele>449.8</ele>
        <time>2026-05-13T12:43:17Z</time>
      </trkpt>
      <trkpt lat="47.25376" lon="6.70623">
        <ele>449.8</ele>
        <time>2026-05-13T12:43:19Z</time>
      </trkpt>
      <trkpt lat="47.25381" lon="6.70649">
        <ele>449.6</ele>
        <time>2026-05-13T12:43:22Z</time>
      </trkpt>
      <trkpt lat="47.25384" lon="6.70673">
        <ele>449.4</ele>
        <time>2026-05-13T12:43:25Z</time>
      </trkpt>
      <trkpt lat="47.25393" lon="6.70703">
        <ele>449.4</ele>
        <time>2026-05-13T12:43:29Z</time>
      </trkpt>
      <trkpt lat="47.25416" lon="6.70752">
        <ele>449.8</ele>
        <time>2026-05-13T12:43:36Z</time>
      </trkpt>
      <trkpt lat="47.25447" lon="6.70808">
        <ele>449.8</ele>
        <time>2026-05-13T12:43:44Z</time>
      </trkpt>
      <trkpt lat="47.25482" lon="6.70872">
        <ele>449.2</ele>
        <time>2026-05-13T12:43:53Z</time>
      </trkpt>
      <trkpt lat="47.25507" lon="6.70927">
        <ele>448.6</ele>
        <time>2026-05-13T12:44:00Z</time>
      </trkpt>
      <trkpt lat="47.25517" lon="6.7096">
        <ele>448.8</ele>
        <time>2026-05-13T12:44:04Z</time>
      </trkpt>
      <trkpt lat="47.25519" lon="6.70977">
        <ele>448.8</ele>
        <time>2026-05-13T12:44:06Z</time>
      </trkpt>
      <trkpt lat="47.25521" lon="6.71047">
        <ele>449</ele>
        <time>2026-05-13T12:44:14Z</time>
      </trkpt>
      <trkpt lat="47.25516" lon="6.71106">
        <ele>448.6</ele>
        <time>2026-05-13T12:44:21Z</time>
      </trkpt>
      <trkpt lat="47.25512" lon="6.7112">
        <ele>448.6</ele>
        <time>2026-05-13T12:44:23Z</time>
      </trkpt>
      <trkpt lat="47.25502" lon="6.71152">
        <ele>448.4</ele>
        <time>2026-05-13T12:44:27Z</time>
      </trkpt>
      <trkpt lat="47.25488" lon="6.71209">
        <ele>448.4</ele>
        <time>2026-05-13T12:44:34Z</time>
      </trkpt>
      <trkpt lat="47.25484" lon="6.71226">
        <ele>448.2</ele>
        <time>2026-05-13T12:44:36Z</time>
      </trkpt>
      <trkpt lat="47.2548" lon="6.71262">
        <ele>448</ele>
        <time>2026-05-13T12:44:40Z</time>
      </trkpt>
      <trkpt lat="47.25482" lon="6.71322">
        <ele>448.4</ele>
        <time>2026-05-13T12:44:47Z</time>
      </trkpt>
      <trkpt lat="47.25489" lon="6.71346">
        <ele>448.4</ele>
        <time>2026-05-13T12:44:50Z</time>
      </trkpt>
      <trkpt lat="47.25496" lon="6.7136">
        <ele>448.4</ele>
        <time>2026-05-13T12:44:52Z</time>
      </trkpt>
      <trkpt lat="47.25524" lon="6.71393">
        <ele>448.4</ele>
        <time>2026-05-13T12:44:58Z</time>
      </trkpt>
      <trkpt lat="47.25541" lon="6.71404">
        <ele>448.4</ele>
        <time>2026-05-13T12:45:01Z</time>
      </trkpt>
      <trkpt lat="47.25552" lon="6.71408">
        <ele>448.6</ele>
        <time>2026-05-13T12:45:03Z</time>
      </trkpt>
      <trkpt lat="47.25588" lon="6.7141">
        <ele>448.8</ele>
        <time>2026-05-13T12:45:09Z</time>
      </trkpt>
      <trkpt lat="47.25629" lon="6.71401">
        <ele>449.6</ele>
        <time>2026-05-13T12:45:16Z</time>
      </trkpt>
      <trkpt lat="47.25634" lon="6.714">
        <ele>449.8</ele>
        <time>2026-05-13T12:45:17Z</time>
      </trkpt>
      <trkpt lat="47.25684" lon="6.71388">
        <ele>450.6</ele>
        <time>2026-05-13T12:45:26Z</time>
      </trkpt>
      <trkpt lat="47.25716" lon="6.71381">
        <ele>450.6</ele>
        <time>2026-05-13T12:45:32Z</time>
      </trkpt>
      <trkpt lat="47.25731" lon="6.71378">
        <ele>450.6</ele>
        <time>2026-05-13T12:45:35Z</time>
      </trkpt>
      <trkpt lat="47.25742" lon="6.71378">
        <ele>450.8</ele>
        <time>2026-05-13T12:45:37Z</time>
      </trkpt>
      <trkpt lat="47.25747" lon="6.71379">
        <ele>451</ele>
        <time>2026-05-13T12:45:38Z</time>
      </trkpt>
      <trkpt lat="47.25758" lon="6.7138">
        <ele>451</ele>
        <time>2026-05-13T12:45:40Z</time>
      </trkpt>
      <trkpt lat="47.25763" lon="6.71382">
        <ele>451</ele>
        <time>2026-05-13T12:45:41Z</time>
      </trkpt>
      <trkpt lat="47.25769" lon="6.71384">
        <ele>450.8</ele>
        <time>2026-05-13T12:45:42Z</time>
      </trkpt>
      <trkpt lat="47.25783" lon="6.71389">
        <ele>450.8</ele>
        <time>2026-05-13T12:45:44Z</time>
      </trkpt>
      <trkpt lat="47.25788" lon="6.71394">
        <ele>450.6</ele>
        <time>2026-05-13T12:45:45Z</time>
      </trkpt>
      <trkpt lat="47.25827" lon="6.71434">
        <ele>450.8</ele>
        <time>2026-05-13T12:45:53Z</time>
      </trkpt>
      <trkpt lat="47.25831" lon="6.71439">
        <ele>450.8</ele>
        <time>2026-05-13T12:45:54Z</time>
      </trkpt>
      <trkpt lat="47.25867" lon="6.71481">
        <ele>451.2</ele>
        <time>2026-05-13T12:46:02Z</time>
      </trkpt>
      <trkpt lat="47.25894" lon="6.71526">
        <ele>450.8</ele>
        <time>2026-05-13T12:46:09Z</time>
      </trkpt>
      <trkpt lat="47.25905" lon="6.71555">
        <ele>450.8</ele>
        <time>2026-05-13T12:46:13Z</time>
      </trkpt>
      <trkpt lat="47.25912" lon="6.71577">
        <ele>451</ele>
        <time>2026-05-13T12:46:16Z</time>
      </trkpt>
      <trkpt lat="47.25914" lon="6.71584">
        <ele>451</ele>
        <time>2026-05-13T12:46:17Z</time>
      </trkpt>
      <trkpt lat="47.25923" lon="6.71612">
        <ele>450.8</ele>
        <time>2026-05-13T12:46:21Z</time>
      </trkpt>
      <trkpt lat="47.25938" lon="6.71669">
        <ele>450.4</ele>
        <time>2026-05-13T12:46:29Z</time>
      </trkpt>
      <trkpt lat="47.25951" lon="6.71724">
        <ele>450</ele>
        <time>2026-05-13T12:46:36Z</time>
      </trkpt>
      <trkpt lat="47.25966" lon="6.71792">
        <ele>450</ele>
        <time>2026-05-13T12:46:44Z</time>
      </trkpt>
      <trkpt lat="47.25977" lon="6.71838">
        <ele>449.8</ele>
        <time>2026-05-13T12:46:49Z</time>
      </trkpt>
      <trkpt lat="47.25986" lon="6.71854">
        <ele>449.8</ele>
        <time>2026-05-13T12:46:51Z</time>
      </trkpt>
      <trkpt lat="47.25997" lon="6.71866">
        <ele>449.8</ele>
        <time>2026-05-13T12:46:53Z</time>
      </trkpt>
      <trkpt lat="47.26003" lon="6.71869">
        <ele>449.8</ele>
        <time>2026-05-13T12:46:54Z</time>
      </trkpt>
      <trkpt lat="47.2601" lon="6.71871">
        <ele>449.6</ele>
        <time>2026-05-13T12:46:55Z</time>
      </trkpt>
      <trkpt lat="47.26023" lon="6.7187">
        <ele>449.4</ele>
        <time>2026-05-13T12:46:57Z</time>
      </trkpt>
      <trkpt lat="47.26029" lon="6.71869">
        <ele>449.4</ele>
        <time>2026-05-13T12:46:58Z</time>
      </trkpt>
      <trkpt lat="47.26036" lon="6.71866">
        <ele>449.2</ele>
        <time>2026-05-13T12:46:59Z</time>
      </trkpt>
      <trkpt lat="47.26056" lon="6.7186">
        <ele>448.8</ele>
        <time>2026-05-13T12:47:02Z</time>
      </trkpt>
      <trkpt lat="47.26088" lon="6.71857">
        <ele>448.6</ele>
        <time>2026-05-13T12:47:07Z</time>
      </trkpt>
      <trkpt lat="47.26095" lon="6.71855">
        <ele>448.6</ele>
        <time>2026-05-13T12:47:08Z</time>
      </trkpt>
      <trkpt lat="47.26109" lon="6.71853">
        <ele>448.6</ele>
        <time>2026-05-13T12:47:10Z</time>
      </trkpt>
      <trkpt lat="47.26122" lon="6.71849">
        <ele>448.6</ele>
        <time>2026-05-13T12:47:12Z</time>
      </trkpt>
      <trkpt lat="47.26128" lon="6.71846">
        <ele>448.6</ele>
        <time>2026-05-13T12:47:13Z</time>
      </trkpt>
      <trkpt lat="47.26141" lon="6.71837">
        <ele>448.6</ele>
        <time>2026-05-13T12:47:15Z</time>
      </trkpt>
      <trkpt lat="47.26153" lon="6.71826">
        <ele>448.2</ele>
        <time>2026-05-13T12:47:17Z</time>
      </trkpt>
      <trkpt lat="47.2616" lon="6.71818">
        <ele>448.2</ele>
        <time>2026-05-13T12:47:18Z</time>
      </trkpt>
      <trkpt lat="47.26179" lon="6.71807">
        <ele>448</ele>
        <time>2026-05-13T12:47:21Z</time>
      </trkpt>
      <trkpt lat="47.26185" lon="6.71805">
        <ele>447.8</ele>
        <time>2026-05-13T12:47:22Z</time>
      </trkpt>
      <trkpt lat="47.26192" lon="6.71804">
        <ele>447.6</ele>
        <time>2026-05-13T12:47:23Z</time>
      </trkpt>
      <trkpt lat="47.26199" lon="6.71804">
        <ele>447.4</ele>
        <time>2026-05-13T12:47:24Z</time>
      </trkpt>
      <trkpt lat="47.26206" lon="6.71805">
        <ele>447.4</ele>
        <time>2026-05-13T12:47:25Z</time>
      </trkpt>
      <trkpt lat="47.26238" lon="6.71816">
        <ele>447</ele>
        <time>2026-05-13T12:47:30Z</time>
      </trkpt>
      <trkpt lat="47.26243" lon="6.7182">
        <ele>447</ele>
        <time>2026-05-13T12:47:31Z</time>
      </trkpt>
      <trkpt lat="47.26249" lon="6.71823">
        <ele>446.8</ele>
        <time>2026-05-13T12:47:32Z</time>
      </trkpt>
      <trkpt lat="47.2626" lon="6.71832">
        <ele>446.6</ele>
        <time>2026-05-13T12:47:34Z</time>
      </trkpt>
      <trkpt lat="47.26267" lon="6.71837">
        <ele>446.4</ele>
        <time>2026-05-13T12:47:35Z</time>
      </trkpt>
      <trkpt lat="47.26286" lon="6.71853">
        <ele>446.2</ele>
        <time>2026-05-13T12:47:38Z</time>
      </trkpt>
      <trkpt lat="47.26305" lon="6.71881">
        <ele>445.8</ele>
        <time>2026-05-13T12:47:42Z</time>
      </trkpt>
      <trkpt lat="47.26313" lon="6.71893">
        <ele>445.8</ele>
        <time>2026-05-13T12:47:44Z</time>
      </trkpt>
      <trkpt lat="47.2632" lon="6.71907">
        <ele>445.8</ele>
        <time>2026-05-13T12:47:46Z</time>
      </trkpt>
      <trkpt lat="47.2633" lon="6.7193">
        <ele>445.8</ele>
        <time>2026-05-13T12:47:49Z</time>
      </trkpt>
      <trkpt lat="47.26335" lon="6.71951">
        <ele>445.8</ele>
        <time>2026-05-13T12:47:52Z</time>
      </trkpt>
      <trkpt lat="47.26339" lon="6.71985">
        <ele>446</ele>
        <time>2026-05-13T12:47:57Z</time>
      </trkpt>
      <trkpt lat="47.26343" lon="6.72014">
        <ele>446.6</ele>
        <time>2026-05-13T12:48:02Z</time>
      </trkpt>
      <trkpt lat="47.26343" lon="6.72039">
        <ele>447.4</ele>
        <time>2026-05-13T12:48:07Z</time>
      </trkpt>
      <trkpt lat="47.26343" lon="6.72044">
        <ele>447.6</ele>
        <time>2026-05-13T12:48:08Z</time>
      </trkpt>
      <trkpt lat="47.26339" lon="6.72069">
        <ele>448.2</ele>
        <time>2026-05-13T12:48:13Z</time>
      </trkpt>
      <trkpt lat="47.26337" lon="6.72078">
        <ele>448.4</ele>
        <time>2026-05-13T12:48:15Z</time>
      </trkpt>
      <trkpt lat="47.26333" lon="6.72094">
        <ele>449.4</ele>
        <time>2026-05-13T12:48:19Z</time>
      </trkpt>
      <trkpt lat="47.26331" lon="6.72097">
        <ele>449.6</ele>
        <time>2026-05-13T12:48:20Z</time>
      </trkpt>
      <trkpt lat="47.26328" lon="6.7211">
        <ele>450</ele>
        <time>2026-05-13T12:48:23Z</time>
      </trkpt>
      <trkpt lat="47.26317" lon="6.72139">
        <ele>450.6</ele>
        <time>2026-05-13T12:48:30Z</time>
      </trkpt>
      <trkpt lat="47.26315" lon="6.72147">
        <ele>450.8</ele>
        <time>2026-05-13T12:48:32Z</time>
      </trkpt>
      <trkpt lat="47.26307" lon="6.72171">
        <ele>451.4</ele>
        <time>2026-05-13T12:48:37Z</time>
      </trkpt>
      <trkpt lat="47.26296" lon="6.72197">
        <ele>451.8</ele>
        <time>2026-05-13T12:48:43Z</time>
      </trkpt>
      <trkpt lat="47.26294" lon="6.72202">
        <ele>452</ele>
        <time>2026-05-13T12:48:44Z</time>
      </trkpt>
      <trkpt lat="47.26286" lon="6.72222">
        <ele>453</ele>
        <time>2026-05-13T12:48:49Z</time>
      </trkpt>
      <trkpt lat="47.26281" lon="6.72235">
        <ele>453.6</ele>
        <time>2026-05-13T12:48:52Z</time>
      </trkpt>
      <trkpt lat="47.26277" lon="6.72244">
        <ele>454.2</ele>
        <time>2026-05-13T12:48:54Z</time>
      </trkpt>
      <trkpt lat="47.26267" lon="6.7227">
        <ele>455.2</ele>
        <time>2026-05-13T12:49:00Z</time>
      </trkpt>
      <trkpt lat="47.26254" lon="6.72302">
        <ele>456.2</ele>
        <time>2026-05-13T12:49:07Z</time>
      </trkpt>
      <trkpt lat="47.26251" lon="6.7231">
        <ele>456.4</ele>
        <time>2026-05-13T12:49:09Z</time>
      </trkpt>
      <trkpt lat="47.26246" lon="6.72327">
        <ele>457</ele>
        <time>2026-05-13T12:49:14Z</time>
      </trkpt>
      <trkpt lat="47.26246" lon="6.72329">
        <ele>457</ele>
        <time>2026-05-13T12:49:15Z</time>
      </trkpt>
      <trkpt lat="47.26246" lon="6.7233">
        <ele>457.4</ele>
        <time>2026-05-13T12:49:18Z</time>
      </trkpt>
      <trkpt lat="47.26241" lon="6.7233">
        <ele>458.6</ele>
        <time>2026-05-13T12:54:27Z</time>
      </trkpt>
      <trkpt lat="47.26237" lon="6.72333">
        <ele>458.6</ele>
        <time>2026-05-13T12:54:29Z</time>
      </trkpt>
      <trkpt lat="47.26224" lon="6.72341">
        <ele>458.8</ele>
        <time>2026-05-13T12:54:35Z</time>
      </trkpt>
      <trkpt lat="47.26205" lon="6.7235">
        <ele>459.4</ele>
        <time>2026-05-13T12:54:42Z</time>
      </trkpt>
      <trkpt lat="47.262" lon="6.72352">
        <ele>459.6</ele>
        <time>2026-05-13T12:54:44Z</time>
      </trkpt>
      <trkpt lat="47.26186" lon="6.72361">
        <ele>460.2</ele>
        <time>2026-05-13T12:54:49Z</time>
      </trkpt>
      <trkpt lat="47.26182" lon="6.72364">
        <ele>461</ele>
        <time>2026-05-13T12:54:51Z</time>
      </trkpt>
      <trkpt lat="47.26172" lon="6.72373">
        <ele>461.6</ele>
        <time>2026-05-13T12:54:57Z</time>
      </trkpt>
      <trkpt lat="47.26172" lon="6.72373">
        <ele>462</ele>
        <time>2026-05-13T12:55:00Z</time>
      </trkpt>
      <trkpt lat="47.26169" lon="6.72375">
        <ele>462</ele>
        <time>2026-05-13T12:55:08Z</time>
      </trkpt>
      <trkpt lat="47.26169" lon="6.72376">
        <ele>462</ele>
        <time>2026-05-13T12:55:09Z</time>
      </trkpt>
      <trkpt lat="47.26169" lon="6.72376">
        <ele>462</ele>
        <time>2026-05-13T12:55:11Z</time>
      </trkpt>
      <trkpt lat="47.26164" lon="6.72379">
        <ele>461.8</ele>
        <time>2026-05-13T12:55:17Z</time>
      </trkpt>
      <trkpt lat="47.2616" lon="6.7238">
        <ele>461.8</ele>
        <time>2026-05-13T12:55:18Z</time>
      </trkpt>
      <trkpt lat="47.26132" lon="6.72392">
        <ele>461.6</ele>
        <time>2026-05-13T12:55:24Z</time>
      </trkpt>
      <trkpt lat="47.26128" lon="6.72394">
        <ele>461.6</ele>
        <time>2026-05-13T12:55:25Z</time>
      </trkpt>
      <trkpt lat="47.26119" lon="6.72404">
        <ele>461.4</ele>
        <time>2026-05-13T12:55:27Z</time>
      </trkpt>
      <trkpt lat="47.26114" lon="6.72412">
        <ele>461.2</ele>
        <time>2026-05-13T12:55:28Z</time>
      </trkpt>
      <trkpt lat="47.2611" lon="6.7242">
        <ele>461</ele>
        <time>2026-05-13T12:55:29Z</time>
      </trkpt>
      <trkpt lat="47.26105" lon="6.72442">
        <ele>460.6</ele>
        <time>2026-05-13T12:55:31Z</time>
      </trkpt>
      <trkpt lat="47.26104" lon="6.72465">
        <ele>459.8</ele>
        <time>2026-05-13T12:55:33Z</time>
      </trkpt>
      <trkpt lat="47.26106" lon="6.72477">
        <ele>459.4</ele>
        <time>2026-05-13T12:55:34Z</time>
      </trkpt>
      <trkpt lat="47.26113" lon="6.72514">
        <ele>458.6</ele>
        <time>2026-05-13T12:55:37Z</time>
      </trkpt>
      <trkpt lat="47.26114" lon="6.72527">
        <ele>458.4</ele>
        <time>2026-05-13T12:55:38Z</time>
      </trkpt>
      <trkpt lat="47.26114" lon="6.7254">
        <ele>458</ele>
        <time>2026-05-13T12:55:39Z</time>
      </trkpt>
      <trkpt lat="47.26112" lon="6.72568">
        <ele>457.2</ele>
        <time>2026-05-13T12:55:41Z</time>
      </trkpt>
      <trkpt lat="47.2611" lon="6.72582">
        <ele>456.4</ele>
        <time>2026-05-13T12:55:42Z</time>
      </trkpt>
      <trkpt lat="47.26109" lon="6.72597">
        <ele>456</ele>
        <time>2026-05-13T12:55:43Z</time>
      </trkpt>
      <trkpt lat="47.26111" lon="6.72624">
        <ele>454.8</ele>
        <time>2026-05-13T12:55:45Z</time>
      </trkpt>
      <trkpt lat="47.26116" lon="6.72648">
        <ele>453.6</ele>
        <time>2026-05-13T12:55:47Z</time>
      </trkpt>
      <trkpt lat="47.26122" lon="6.72673">
        <ele>452.8</ele>
        <time>2026-05-13T12:55:49Z</time>
      </trkpt>
      <trkpt lat="47.26122" lon="6.72683">
        <ele>452.4</ele>
        <time>2026-05-13T12:55:50Z</time>
      </trkpt>
      <trkpt lat="47.26122" lon="6.72693">
        <ele>452.2</ele>
        <time>2026-05-13T12:55:51Z</time>
      </trkpt>
      <trkpt lat="47.2612" lon="6.72702">
        <ele>451.6</ele>
        <time>2026-05-13T12:55:52Z</time>
      </trkpt>
      <trkpt lat="47.26117" lon="6.72711">
        <ele>451.4</ele>
        <time>2026-05-13T12:55:53Z</time>
      </trkpt>
      <trkpt lat="47.26118" lon="6.72725">
        <ele>450.6</ele>
        <time>2026-05-13T12:55:55Z</time>
      </trkpt>
      <trkpt lat="47.26119" lon="6.72728">
        <ele>450</ele>
        <time>2026-05-13T12:55:56Z</time>
      </trkpt>
      <trkpt lat="47.26122" lon="6.72733">
        <ele>449.4</ele>
        <time>2026-05-13T12:55:58Z</time>
      </trkpt>
      <trkpt lat="47.26123" lon="6.72735">
        <ele>449</ele>
        <time>2026-05-13T12:55:59Z</time>
      </trkpt>
      <trkpt lat="47.26124" lon="6.72746">
        <ele>448.2</ele>
        <time>2026-05-13T12:56:03Z</time>
      </trkpt>
      <trkpt lat="47.26125" lon="6.7275">
        <ele>447.8</ele>
        <time>2026-05-13T12:56:04Z</time>
      </trkpt>
      <trkpt lat="47.26127" lon="6.72771">
        <ele>447.4</ele>
        <time>2026-05-13T12:56:07Z</time>
      </trkpt>
      <trkpt lat="47.26129" lon="6.72795">
        <ele>446.8</ele>
        <time>2026-05-13T12:56:10Z</time>
      </trkpt>
      <trkpt lat="47.26129" lon="6.72803">
        <ele>446.6</ele>
        <time>2026-05-13T12:56:11Z</time>
      </trkpt>
      <trkpt lat="47.26131" lon="6.72819">
        <ele>446.2</ele>
        <time>2026-05-13T12:56:13Z</time>
      </trkpt>
      <trkpt lat="47.26128" lon="6.7285">
        <ele>445.6</ele>
        <time>2026-05-13T12:56:16Z</time>
      </trkpt>
      <trkpt lat="47.26119" lon="6.729">
        <ele>444.8</ele>
        <time>2026-05-13T12:56:21Z</time>
      </trkpt>
      <trkpt lat="47.26116" lon="6.72911">
        <ele>444.6</ele>
        <time>2026-05-13T12:56:22Z</time>
      </trkpt>
      <trkpt lat="47.26109" lon="6.7295">
        <ele>444</ele>
        <time>2026-05-13T12:56:25Z</time>
      </trkpt>
      <trkpt lat="47.26104" lon="6.72958">
        <ele>443.6</ele>
        <time>2026-05-13T12:56:26Z</time>
      </trkpt>
      <trkpt lat="47.26083" lon="6.73001">
        <ele>442.4</ele>
        <time>2026-05-13T12:56:31Z</time>
      </trkpt>
      <trkpt lat="47.26076" lon="6.73017">
        <ele>442</ele>
        <time>2026-05-13T12:56:33Z</time>
      </trkpt>
      <trkpt lat="47.26056" lon="6.73048">
        <ele>441.4</ele>
        <time>2026-05-13T12:56:37Z</time>
      </trkpt>
      <trkpt lat="47.26051" lon="6.73056">
        <ele>441.2</ele>
        <time>2026-05-13T12:56:38Z</time>
      </trkpt>
      <trkpt lat="47.26028" lon="6.73115">
        <ele>440.8</ele>
        <time>2026-05-13T12:56:44Z</time>
      </trkpt>
      <trkpt lat="47.26024" lon="6.73135">
        <ele>440.8</ele>
        <time>2026-05-13T12:56:46Z</time>
      </trkpt>
      <trkpt lat="47.26017" lon="6.73166">
        <ele>440.6</ele>
        <time>2026-05-13T12:56:49Z</time>
      </trkpt>
      <trkpt lat="47.26011" lon="6.73224">
        <ele>440.8</ele>
        <time>2026-05-13T12:56:55Z</time>
      </trkpt>
      <trkpt lat="47.26011" lon="6.73238">
        <ele>440.8</ele>
        <time>2026-05-13T12:56:56Z</time>
      </trkpt>
      <trkpt lat="47.26019" lon="6.73288">
        <ele>440.8</ele>
        <time>2026-05-13T12:57:01Z</time>
      </trkpt>
      <trkpt lat="47.26022" lon="6.73297">
        <ele>440.8</ele>
        <time>2026-05-13T12:57:02Z</time>
      </trkpt>
      <trkpt lat="47.26045" lon="6.73368">
        <ele>440.6</ele>
        <time>2026-05-13T12:57:10Z</time>
      </trkpt>
      <trkpt lat="47.26072" lon="6.73432">
        <ele>440.6</ele>
        <time>2026-05-13T12:57:18Z</time>
      </trkpt>
      <trkpt lat="47.26093" lon="6.73463">
        <ele>440.6</ele>
        <time>2026-05-13T12:57:23Z</time>
      </trkpt>
      <trkpt lat="47.26099" lon="6.73469">
        <ele>440.6</ele>
        <time>2026-05-13T12:57:24Z</time>
      </trkpt>
      <trkpt lat="47.26105" lon="6.73475">
        <ele>440.6</ele>
        <time>2026-05-13T12:57:25Z</time>
      </trkpt>
      <trkpt lat="47.26123" lon="6.73485">
        <ele>440.4</ele>
        <time>2026-05-13T12:57:28Z</time>
      </trkpt>
      <trkpt lat="47.26164" lon="6.73496">
        <ele>440.4</ele>
        <time>2026-05-13T12:57:34Z</time>
      </trkpt>
      <trkpt lat="47.26206" lon="6.73486">
        <ele>440.4</ele>
        <time>2026-05-13T12:57:40Z</time>
      </trkpt>
      <trkpt lat="47.26219" lon="6.73481">
        <ele>440.2</ele>
        <time>2026-05-13T12:57:42Z</time>
      </trkpt>
      <trkpt lat="47.26226" lon="6.73478">
        <ele>440.2</ele>
        <time>2026-05-13T12:57:43Z</time>
      </trkpt>
      <trkpt lat="47.26265" lon="6.73462">
        <ele>439.8</ele>
        <time>2026-05-13T12:57:49Z</time>
      </trkpt>
      <trkpt lat="47.26312" lon="6.73447">
        <ele>439.6</ele>
        <time>2026-05-13T12:57:56Z</time>
      </trkpt>
      <trkpt lat="47.26354" lon="6.73446">
        <ele>439</ele>
        <time>2026-05-13T12:58:02Z</time>
      </trkpt>
      <trkpt lat="47.2636" lon="6.73447">
        <ele>439</ele>
        <time>2026-05-13T12:58:03Z</time>
      </trkpt>
      <trkpt lat="47.26367" lon="6.73449">
        <ele>439</ele>
        <time>2026-05-13T12:58:04Z</time>
      </trkpt>
      <trkpt lat="47.26387" lon="6.73459">
        <ele>439</ele>
        <time>2026-05-13T12:58:07Z</time>
      </trkpt>
      <trkpt lat="47.26419" lon="6.73483">
        <ele>438.6</ele>
        <time>2026-05-13T12:58:12Z</time>
      </trkpt>
      <trkpt lat="47.26429" lon="6.73494">
        <ele>438.4</ele>
        <time>2026-05-13T12:58:14Z</time>
      </trkpt>
      <trkpt lat="47.2644" lon="6.73513">
        <ele>438.4</ele>
        <time>2026-05-13T12:58:16Z</time>
      </trkpt>
      <trkpt lat="47.26445" lon="6.73522">
        <ele>438.4</ele>
        <time>2026-05-13T12:58:17Z</time>
      </trkpt>
      <trkpt lat="47.26448" lon="6.73533">
        <ele>438.2</ele>
        <time>2026-05-13T12:58:18Z</time>
      </trkpt>
      <trkpt lat="47.26453" lon="6.73555">
        <ele>438.2</ele>
        <time>2026-05-13T12:58:20Z</time>
      </trkpt>
      <trkpt lat="47.26454" lon="6.73565">
        <ele>438</ele>
        <time>2026-05-13T12:58:21Z</time>
      </trkpt>
      <trkpt lat="47.26454" lon="6.73616">
        <ele>438</ele>
        <time>2026-05-13T12:58:26Z</time>
      </trkpt>
      <trkpt lat="47.26442" lon="6.73674">
        <ele>438.2</ele>
        <time>2026-05-13T12:58:32Z</time>
      </trkpt>
      <trkpt lat="47.26422" lon="6.73727">
        <ele>438</ele>
        <time>2026-05-13T12:58:38Z</time>
      </trkpt>
      <trkpt lat="47.26398" lon="6.73786">
        <ele>438</ele>
        <time>2026-05-13T12:58:45Z</time>
      </trkpt>
      <trkpt lat="47.26385" lon="6.7383">
        <ele>438</ele>
        <time>2026-05-13T12:58:50Z</time>
      </trkpt>
      <trkpt lat="47.26383" lon="6.7384">
        <ele>438</ele>
        <time>2026-05-13T12:58:51Z</time>
      </trkpt>
      <trkpt lat="47.26382" lon="6.73849">
        <ele>438</ele>
        <time>2026-05-13T12:58:52Z</time>
      </trkpt>
      <trkpt lat="47.26383" lon="6.73877">
        <ele>438</ele>
        <time>2026-05-13T12:58:55Z</time>
      </trkpt>
      <trkpt lat="47.26387" lon="6.73895">
        <ele>438.2</ele>
        <time>2026-05-13T12:58:57Z</time>
      </trkpt>
      <trkpt lat="47.26392" lon="6.73912">
        <ele>438.2</ele>
        <time>2026-05-13T12:58:59Z</time>
      </trkpt>
      <trkpt lat="47.26396" lon="6.7392">
        <ele>438.2</ele>
        <time>2026-05-13T12:59:00Z</time>
      </trkpt>
      <trkpt lat="47.26409" lon="6.7394">
        <ele>438.2</ele>
        <time>2026-05-13T12:59:03Z</time>
      </trkpt>
      <trkpt lat="47.26439" lon="6.73961">
        <ele>437.8</ele>
        <time>2026-05-13T12:59:08Z</time>
      </trkpt>
      <trkpt lat="47.26493" lon="6.73997">
        <ele>437.6</ele>
        <time>2026-05-13T12:59:17Z</time>
      </trkpt>
      <trkpt lat="47.26519" lon="6.74026">
        <ele>437.6</ele>
        <time>2026-05-13T12:59:22Z</time>
      </trkpt>
      <trkpt lat="47.26524" lon="6.74032">
        <ele>437.6</ele>
        <time>2026-05-13T12:59:23Z</time>
      </trkpt>
      <trkpt lat="47.26538" lon="6.74053">
        <ele>437.4</ele>
        <time>2026-05-13T12:59:26Z</time>
      </trkpt>
      <trkpt lat="47.26554" lon="6.74082">
        <ele>437.4</ele>
        <time>2026-05-13T12:59:30Z</time>
      </trkpt>
      <trkpt lat="47.2658" lon="6.74152">
        <ele>437.4</ele>
        <time>2026-05-13T12:59:38Z</time>
      </trkpt>
      <trkpt lat="47.26594" lon="6.74234">
        <ele>437.2</ele>
        <time>2026-05-13T12:59:47Z</time>
      </trkpt>
      <trkpt lat="47.26595" lon="6.74301">
        <ele>437</ele>
        <time>2026-05-13T12:59:54Z</time>
      </trkpt>
      <trkpt lat="47.26586" lon="6.74368">
        <ele>437</ele>
        <time>2026-05-13T13:00:01Z</time>
      </trkpt>
      <trkpt lat="47.26573" lon="6.74437">
        <ele>437</ele>
        <time>2026-05-13T13:00:08Z</time>
      </trkpt>
      <trkpt lat="47.26567" lon="6.745">
        <ele>437</ele>
        <time>2026-05-13T13:00:15Z</time>
      </trkpt>
      <trkpt lat="47.26569" lon="6.74522">
        <ele>437</ele>
        <time>2026-05-13T13:00:17Z</time>
      </trkpt>
      <trkpt lat="47.26576" lon="6.7455">
        <ele>436.8</ele>
        <time>2026-05-13T13:00:20Z</time>
      </trkpt>
      <trkpt lat="47.26583" lon="6.74568">
        <ele>436.4</ele>
        <time>2026-05-13T13:00:22Z</time>
      </trkpt>
      <trkpt lat="47.26588" lon="6.74578">
        <ele>436.4</ele>
        <time>2026-05-13T13:00:23Z</time>
      </trkpt>
      <trkpt lat="47.26593" lon="6.74582">
        <ele>436.2</ele>
        <time>2026-05-13T13:00:24Z</time>
      </trkpt>
      <trkpt lat="47.26607" lon="6.74589">
        <ele>435.8</ele>
        <time>2026-05-13T13:00:26Z</time>
      </trkpt>
      <trkpt lat="47.26617" lon="6.74591">
        <ele>435.6</ele>
        <time>2026-05-13T13:00:27Z</time>
      </trkpt>
      <trkpt lat="47.26624" lon="6.74592">
        <ele>435.4</ele>
        <time>2026-05-13T13:00:28Z</time>
      </trkpt>
      <trkpt lat="47.26659" lon="6.74595">
        <ele>434.6</ele>
        <time>2026-05-13T13:00:33Z</time>
      </trkpt>
      <trkpt lat="47.26679" lon="6.74596">
        <ele>434.2</ele>
        <time>2026-05-13T13:00:36Z</time>
      </trkpt>
      <trkpt lat="47.267" lon="6.74594">
        <ele>434</ele>
        <time>2026-05-13T13:00:39Z</time>
      </trkpt>
      <trkpt lat="47.26743" lon="6.74591">
        <ele>434.2</ele>
        <time>2026-05-13T13:00:45Z</time>
      </trkpt>
      <trkpt lat="47.26755" lon="6.74589">
        <ele>434.2</ele>
        <time>2026-05-13T13:00:47Z</time>
      </trkpt>
      <trkpt lat="47.26811" lon="6.74583">
        <ele>434.4</ele>
        <time>2026-05-13T13:00:55Z</time>
      </trkpt>
      <trkpt lat="47.26823" lon="6.74582">
        <ele>434.4</ele>
        <time>2026-05-13T13:00:57Z</time>
      </trkpt>
      <trkpt lat="47.26878" lon="6.74578">
        <ele>434.2</ele>
        <time>2026-05-13T13:01:05Z</time>
      </trkpt>
      <trkpt lat="47.26898" lon="6.74577">
        <ele>434.2</ele>
        <time>2026-05-13T13:01:08Z</time>
      </trkpt>
      <trkpt lat="47.2693" lon="6.74582">
        <ele>434</ele>
        <time>2026-05-13T13:01:13Z</time>
      </trkpt>
      <trkpt lat="47.26969" lon="6.74605">
        <ele>434</ele>
        <time>2026-05-13T13:01:19Z</time>
      </trkpt>
      <trkpt lat="47.27012" lon="6.74644">
        <ele>433.6</ele>
        <time>2026-05-13T13:01:26Z</time>
      </trkpt>
      <trkpt lat="47.27059" lon="6.747">
        <ele>433.2</ele>
        <time>2026-05-13T13:01:35Z</time>
      </trkpt>
      <trkpt lat="47.27076" lon="6.74728">
        <ele>433</ele>
        <time>2026-05-13T13:01:39Z</time>
      </trkpt>
      <trkpt lat="47.27089" lon="6.74751">
        <ele>433</ele>
        <time>2026-05-13T13:01:42Z</time>
      </trkpt>
      <trkpt lat="47.27119" lon="6.74824">
        <ele>433</ele>
        <time>2026-05-13T13:01:51Z</time>
      </trkpt>
      <trkpt lat="47.27143" lon="6.74902">
        <ele>432.8</ele>
        <time>2026-05-13T13:02:00Z</time>
      </trkpt>
      <trkpt lat="47.27164" lon="6.74968">
        <ele>432.6</ele>
        <time>2026-05-13T13:02:08Z</time>
      </trkpt>
      <trkpt lat="47.27189" lon="6.75041">
        <ele>432.8</ele>
        <time>2026-05-13T13:02:17Z</time>
      </trkpt>
      <trkpt lat="47.27193" lon="6.75048">
        <ele>432.8</ele>
        <time>2026-05-13T13:02:18Z</time>
      </trkpt>
      <trkpt lat="47.27226" lon="6.75118">
        <ele>433.4</ele>
        <time>2026-05-13T13:02:28Z</time>
      </trkpt>
      <trkpt lat="47.27229" lon="6.75125">
        <ele>433.4</ele>
        <time>2026-05-13T13:02:29Z</time>
      </trkpt>
      <trkpt lat="47.27247" lon="6.75167">
        <ele>433.8</ele>
        <time>2026-05-13T13:02:35Z</time>
      </trkpt>
      <trkpt lat="47.27252" lon="6.75181">
        <ele>434</ele>
        <time>2026-05-13T13:02:37Z</time>
      </trkpt>
      <trkpt lat="47.27261" lon="6.75234">
        <ele>434</ele>
        <time>2026-05-13T13:02:43Z</time>
      </trkpt>
      <trkpt lat="47.27263" lon="6.753">
        <ele>433.2</ele>
        <time>2026-05-13T13:02:50Z</time>
      </trkpt>
      <trkpt lat="47.27256" lon="6.75365">
        <ele>432.6</ele>
        <time>2026-05-13T13:02:57Z</time>
      </trkpt>
      <trkpt lat="47.27245" lon="6.75445">
        <ele>431.8</ele>
        <time>2026-05-13T13:03:05Z</time>
      </trkpt>
      <trkpt lat="47.27244" lon="6.75455">
        <ele>431.6</ele>
        <time>2026-05-13T13:03:06Z</time>
      </trkpt>
      <trkpt lat="47.27243" lon="6.75465">
        <ele>431.6</ele>
        <time>2026-05-13T13:03:07Z</time>
      </trkpt>
      <trkpt lat="47.27234" lon="6.75541">
        <ele>431</ele>
        <time>2026-05-13T13:03:15Z</time>
      </trkpt>
      <trkpt lat="47.27231" lon="6.75613">
        <ele>431.6</ele>
        <time>2026-05-13T13:03:23Z</time>
      </trkpt>
      <trkpt lat="47.27235" lon="6.75641">
        <ele>431.6</ele>
        <time>2026-05-13T13:03:26Z</time>
      </trkpt>
      <trkpt lat="47.27242" lon="6.75665">
        <ele>431.8</ele>
        <time>2026-05-13T13:03:29Z</time>
      </trkpt>
      <trkpt lat="47.27251" lon="6.75686">
        <ele>432</ele>
        <time>2026-05-13T13:03:32Z</time>
      </trkpt>
      <trkpt lat="47.27262" lon="6.75704">
        <ele>431.8</ele>
        <time>2026-05-13T13:03:35Z</time>
      </trkpt>
      <trkpt lat="47.27275" lon="6.7572">
        <ele>432.4</ele>
        <time>2026-05-13T13:03:38Z</time>
      </trkpt>
      <trkpt lat="47.27289" lon="6.75734">
        <ele>432.2</ele>
        <time>2026-05-13T13:03:41Z</time>
      </trkpt>
      <trkpt lat="47.27293" lon="6.75737">
        <ele>432.2</ele>
        <time>2026-05-13T13:03:42Z</time>
      </trkpt>
      <trkpt lat="47.27312" lon="6.75747">
        <ele>432.2</ele>
        <time>2026-05-13T13:03:45Z</time>
      </trkpt>
      <trkpt lat="47.27353" lon="6.75752">
        <ele>431.8</ele>
        <time>2026-05-13T13:03:51Z</time>
      </trkpt>
      <trkpt lat="47.27412" lon="6.75756">
        <ele>431</ele>
        <time>2026-05-13T13:04:00Z</time>
      </trkpt>
      <trkpt lat="47.27462" lon="6.75759">
        <ele>431.4</ele>
        <time>2026-05-13T13:04:08Z</time>
      </trkpt>
      <trkpt lat="47.27514" lon="6.75764">
        <ele>431.4</ele>
        <time>2026-05-13T13:04:16Z</time>
      </trkpt>
      <trkpt lat="47.27557" lon="6.75773">
        <ele>431</ele>
        <time>2026-05-13T13:04:23Z</time>
      </trkpt>
      <trkpt lat="47.27599" lon="6.75797">
        <ele>430.8</ele>
        <time>2026-05-13T13:04:30Z</time>
      </trkpt>
      <trkpt lat="47.27634" lon="6.75832">
        <ele>430.2</ele>
        <time>2026-05-13T13:04:36Z</time>
      </trkpt>
      <trkpt lat="47.27662" lon="6.75879">
        <ele>429.6</ele>
        <time>2026-05-13T13:04:42Z</time>
      </trkpt>
      <trkpt lat="47.27681" lon="6.75931">
        <ele>429.2</ele>
        <time>2026-05-13T13:04:48Z</time>
      </trkpt>
      <trkpt lat="47.27686" lon="6.75949">
        <ele>429</ele>
        <time>2026-05-13T13:04:50Z</time>
      </trkpt>
      <trkpt lat="47.27706" lon="6.76021">
        <ele>429</ele>
        <time>2026-05-13T13:04:58Z</time>
      </trkpt>
      <trkpt lat="47.27719" lon="6.76088">
        <ele>428.8</ele>
        <time>2026-05-13T13:05:05Z</time>
      </trkpt>
      <trkpt lat="47.27729" lon="6.76158">
        <ele>429</ele>
        <time>2026-05-13T13:05:13Z</time>
      </trkpt>
      <trkpt lat="47.27736" lon="6.7619">
        <ele>429.6</ele>
        <time>2026-05-13T13:05:17Z</time>
      </trkpt>
      <trkpt lat="47.27743" lon="6.76204">
        <ele>429.8</ele>
        <time>2026-05-13T13:05:19Z</time>
      </trkpt>
      <trkpt lat="47.27752" lon="6.76214">
        <ele>430</ele>
        <time>2026-05-13T13:05:21Z</time>
      </trkpt>
      <trkpt lat="47.27763" lon="6.76217">
        <ele>430.2</ele>
        <time>2026-05-13T13:05:23Z</time>
      </trkpt>
      <trkpt lat="47.27774" lon="6.76213">
        <ele>430.2</ele>
        <time>2026-05-13T13:05:25Z</time>
      </trkpt>
      <trkpt lat="47.2778" lon="6.76208">
        <ele>430.2</ele>
        <time>2026-05-13T13:05:26Z</time>
      </trkpt>
      <trkpt lat="47.27811" lon="6.76173">
        <ele>430.4</ele>
        <time>2026-05-13T13:05:32Z</time>
      </trkpt>
      <trkpt lat="47.27816" lon="6.76167">
        <ele>430.4</ele>
        <time>2026-05-13T13:05:33Z</time>
      </trkpt>
      <trkpt lat="47.27855" lon="6.76122">
        <ele>430.6</ele>
        <time>2026-05-13T13:05:40Z</time>
      </trkpt>
      <trkpt lat="47.27904" lon="6.76085">
        <ele>430</ele>
        <time>2026-05-13T13:05:47Z</time>
      </trkpt>
      <trkpt lat="47.27952" lon="6.76053">
        <ele>429</ele>
        <time>2026-05-13T13:05:54Z</time>
      </trkpt>
      <trkpt lat="47.28002" lon="6.76033">
        <ele>428.2</ele>
        <time>2026-05-13T13:06:01Z</time>
      </trkpt>
      <trkpt lat="47.2805" lon="6.76024">
        <ele>428</ele>
        <time>2026-05-13T13:06:08Z</time>
      </trkpt>
      <trkpt lat="47.28057" lon="6.76023">
        <ele>428</ele>
        <time>2026-05-13T13:06:09Z</time>
      </trkpt>
      <trkpt lat="47.28088" lon="6.76021">
        <ele>428</ele>
        <time>2026-05-13T13:06:14Z</time>
      </trkpt>
      <trkpt lat="47.28106" lon="6.76018">
        <ele>428.2</ele>
        <time>2026-05-13T13:06:17Z</time>
      </trkpt>
      <trkpt lat="47.28123" lon="6.76014">
        <ele>428.2</ele>
        <time>2026-05-13T13:06:20Z</time>
      </trkpt>
      <trkpt lat="47.28162" lon="6.76003">
        <ele>428.2</ele>
        <time>2026-05-13T13:06:27Z</time>
      </trkpt>
      <trkpt lat="47.28178" lon="6.76002">
        <ele>428.2</ele>
        <time>2026-05-13T13:06:30Z</time>
      </trkpt>
      <trkpt lat="47.282" lon="6.76005">
        <ele>428.6</ele>
        <time>2026-05-13T13:06:34Z</time>
      </trkpt>
      <trkpt lat="47.28223" lon="6.76011">
        <ele>428.6</ele>
        <time>2026-05-13T13:06:38Z</time>
      </trkpt>
      <trkpt lat="47.28243" lon="6.76015">
        <ele>428.6</ele>
        <time>2026-05-13T13:06:41Z</time>
      </trkpt>
      <trkpt lat="47.28289" lon="6.76031">
        <ele>428</ele>
        <time>2026-05-13T13:06:48Z</time>
      </trkpt>
      <trkpt lat="47.28336" lon="6.7606">
        <ele>427.6</ele>
        <time>2026-05-13T13:06:56Z</time>
      </trkpt>
      <trkpt lat="47.28344" lon="6.76067">
        <ele>427.8</ele>
        <time>2026-05-13T13:06:58Z</time>
      </trkpt>
      <trkpt lat="47.28353" lon="6.76077">
        <ele>427.8</ele>
        <time>2026-05-13T13:07:00Z</time>
      </trkpt>
      <trkpt lat="47.28378" lon="6.76118">
        <ele>427.8</ele>
        <time>2026-05-13T13:07:06Z</time>
      </trkpt>
      <trkpt lat="47.28389" lon="6.76139">
        <ele>427.8</ele>
        <time>2026-05-13T13:07:09Z</time>
      </trkpt>
      <trkpt lat="47.28398" lon="6.76153">
        <ele>427.6</ele>
        <time>2026-05-13T13:07:11Z</time>
      </trkpt>
      <trkpt lat="47.28412" lon="6.76185">
        <ele>427.2</ele>
        <time>2026-05-13T13:07:15Z</time>
      </trkpt>
      <trkpt lat="47.28417" lon="6.76204">
        <ele>427</ele>
        <time>2026-05-13T13:07:17Z</time>
      </trkpt>
      <trkpt lat="47.28419" lon="6.76213">
        <ele>426.8</ele>
        <time>2026-05-13T13:07:18Z</time>
      </trkpt>
      <trkpt lat="47.28425" lon="6.76242">
        <ele>426.6</ele>
        <time>2026-05-13T13:07:21Z</time>
      </trkpt>
      <trkpt lat="47.28427" lon="6.76263">
        <ele>426.4</ele>
        <time>2026-05-13T13:07:23Z</time>
      </trkpt>
      <trkpt lat="47.28426" lon="6.76288">
        <ele>426</ele>
        <time>2026-05-13T13:07:26Z</time>
      </trkpt>
      <trkpt lat="47.28423" lon="6.76306">
        <ele>425.8</ele>
        <time>2026-05-13T13:07:28Z</time>
      </trkpt>
      <trkpt lat="47.28415" lon="6.76341">
        <ele>425.8</ele>
        <time>2026-05-13T13:07:32Z</time>
      </trkpt>
      <trkpt lat="47.2841" lon="6.76358">
        <ele>426</ele>
        <time>2026-05-13T13:07:34Z</time>
      </trkpt>
      <trkpt lat="47.28388" lon="6.76427">
        <ele>426.2</ele>
        <time>2026-05-13T13:07:42Z</time>
      </trkpt>
      <trkpt lat="47.28363" lon="6.76493">
        <ele>426.6</ele>
        <time>2026-05-13T13:07:50Z</time>
      </trkpt>
      <trkpt lat="47.28339" lon="6.7655">
        <ele>426.6</ele>
        <time>2026-05-13T13:07:57Z</time>
      </trkpt>
      <trkpt lat="47.28313" lon="6.76616">
        <ele>426.4</ele>
        <time>2026-05-13T13:08:05Z</time>
      </trkpt>
      <trkpt lat="47.283" lon="6.76681">
        <ele>426.2</ele>
        <time>2026-05-13T13:08:12Z</time>
      </trkpt>
      <trkpt lat="47.28293" lon="6.76768">
        <ele>426.4</ele>
        <time>2026-05-13T13:08:21Z</time>
      </trkpt>
      <trkpt lat="47.28297" lon="6.76816">
        <ele>426.4</ele>
        <time>2026-05-13T13:08:26Z</time>
      </trkpt>
      <trkpt lat="47.28302" lon="6.76835">
        <ele>426.4</ele>
        <time>2026-05-13T13:08:28Z</time>
      </trkpt>
      <trkpt lat="47.28309" lon="6.76851">
        <ele>426.2</ele>
        <time>2026-05-13T13:08:30Z</time>
      </trkpt>
      <trkpt lat="47.28312" lon="6.76858">
        <ele>426.2</ele>
        <time>2026-05-13T13:08:31Z</time>
      </trkpt>
      <trkpt lat="47.28333" lon="6.7689">
        <ele>426</ele>
        <time>2026-05-13T13:08:36Z</time>
      </trkpt>
      <trkpt lat="47.28342" lon="6.76897">
        <ele>426</ele>
        <time>2026-05-13T13:08:38Z</time>
      </trkpt>
      <trkpt lat="47.28352" lon="6.76903">
        <ele>426.2</ele>
        <time>2026-05-13T13:08:40Z</time>
      </trkpt>
      <trkpt lat="47.28357" lon="6.76905">
        <ele>426.2</ele>
        <time>2026-05-13T13:08:41Z</time>
      </trkpt>
      <trkpt lat="47.28376" lon="6.76909">
        <ele>426.6</ele>
        <time>2026-05-13T13:08:45Z</time>
      </trkpt>
      <trkpt lat="47.28399" lon="6.76906">
        <ele>426.8</ele>
        <time>2026-05-13T13:08:49Z</time>
      </trkpt>
      <trkpt lat="47.28412" lon="6.76905">
        <ele>426.6</ele>
        <time>2026-05-13T13:08:51Z</time>
      </trkpt>
      <trkpt lat="47.28462" lon="6.769">
        <ele>426</ele>
        <time>2026-05-13T13:08:58Z</time>
      </trkpt>
      <trkpt lat="47.2847" lon="6.76898">
        <ele>425.6</ele>
        <time>2026-05-13T13:08:59Z</time>
      </trkpt>
      <trkpt lat="47.28484" lon="6.76893">
        <ele>425.2</ele>
        <time>2026-05-13T13:09:01Z</time>
      </trkpt>
      <trkpt lat="47.28497" lon="6.76885">
        <ele>424.8</ele>
        <time>2026-05-13T13:09:03Z</time>
      </trkpt>
      <trkpt lat="47.28504" lon="6.76881">
        <ele>424.4</ele>
        <time>2026-05-13T13:09:04Z</time>
      </trkpt>
      <trkpt lat="47.2851" lon="6.76876">
        <ele>424.4</ele>
        <time>2026-05-13T13:09:05Z</time>
      </trkpt>
      <trkpt lat="47.28527" lon="6.76861">
        <ele>424.2</ele>
        <time>2026-05-13T13:09:08Z</time>
      </trkpt>
      <trkpt lat="47.28563" lon="6.7683">
        <ele>424.2</ele>
        <time>2026-05-13T13:09:14Z</time>
      </trkpt>
      <trkpt lat="47.28576" lon="6.76821">
        <ele>424</ele>
        <time>2026-05-13T13:09:16Z</time>
      </trkpt>
      <trkpt lat="47.28589" lon="6.76813">
        <ele>424</ele>
        <time>2026-05-13T13:09:18Z</time>
      </trkpt>
      <trkpt lat="47.28614" lon="6.76805">
        <ele>423.6</ele>
        <time>2026-05-13T13:09:22Z</time>
      </trkpt>
      <trkpt lat="47.28631" lon="6.76801">
        <ele>423.6</ele>
        <time>2026-05-13T13:09:24Z</time>
      </trkpt>
      <trkpt lat="47.28655" lon="6.76797">
        <ele>423.6</ele>
        <time>2026-05-13T13:09:27Z</time>
      </trkpt>
      <trkpt lat="47.28703" lon="6.76798">
        <ele>423.6</ele>
        <time>2026-05-13T13:09:34Z</time>
      </trkpt>
      <trkpt lat="47.28708" lon="6.76799">
        <ele>423.8</ele>
        <time>2026-05-13T13:09:35Z</time>
      </trkpt>
      <trkpt lat="47.28731" lon="6.76808">
        <ele>424</ele>
        <time>2026-05-13T13:09:39Z</time>
      </trkpt>
      <trkpt lat="47.28748" lon="6.76814">
        <ele>424.2</ele>
        <time>2026-05-13T13:09:42Z</time>
      </trkpt>
      <trkpt lat="47.28761" lon="6.76822">
        <ele>424.2</ele>
        <time>2026-05-13T13:09:44Z</time>
      </trkpt>
      <trkpt lat="47.28791" lon="6.76843">
        <ele>424.2</ele>
        <time>2026-05-13T13:09:49Z</time>
      </trkpt>
      <trkpt lat="47.28803" lon="6.76853">
        <ele>424</ele>
        <time>2026-05-13T13:09:51Z</time>
      </trkpt>
      <trkpt lat="47.28809" lon="6.76859">
        <ele>423.8</ele>
        <time>2026-05-13T13:09:52Z</time>
      </trkpt>
      <trkpt lat="47.2883" lon="6.76881">
        <ele>423.4</ele>
        <time>2026-05-13T13:09:56Z</time>
      </trkpt>
      <trkpt lat="47.28854" lon="6.76912">
        <ele>423.4</ele>
        <time>2026-05-13T13:10:01Z</time>
      </trkpt>
      <trkpt lat="47.28872" lon="6.7694">
        <ele>423.4</ele>
        <time>2026-05-13T13:10:05Z</time>
      </trkpt>
      <trkpt lat="47.2888" lon="6.76954">
        <ele>423.4</ele>
        <time>2026-05-13T13:10:07Z</time>
      </trkpt>
      <trkpt lat="47.28897" lon="6.77003">
        <ele>423.2</ele>
        <time>2026-05-13T13:10:13Z</time>
      </trkpt>
      <trkpt lat="47.28908" lon="6.77055">
        <ele>423.2</ele>
        <time>2026-05-13T13:10:19Z</time>
      </trkpt>
      <trkpt lat="47.2891" lon="6.77064">
        <ele>423</ele>
        <time>2026-05-13T13:10:20Z</time>
      </trkpt>
      <trkpt lat="47.2892" lon="6.77122">
        <ele>422.8</ele>
        <time>2026-05-13T13:10:26Z</time>
      </trkpt>
      <trkpt lat="47.28928" lon="6.77161">
        <ele>422.8</ele>
        <time>2026-05-13T13:10:30Z</time>
      </trkpt>
      <trkpt lat="47.28931" lon="6.77177">
        <ele>422.8</ele>
        <time>2026-05-13T13:10:32Z</time>
      </trkpt>
      <trkpt lat="47.28937" lon="6.77219">
        <ele>422.8</ele>
        <time>2026-05-13T13:10:37Z</time>
      </trkpt>
      <trkpt lat="47.28938" lon="6.77227">
        <ele>422.8</ele>
        <time>2026-05-13T13:10:38Z</time>
      </trkpt>
      <trkpt lat="47.28939" lon="6.77243">
        <ele>422.8</ele>
        <time>2026-05-13T13:10:40Z</time>
      </trkpt>
      <trkpt lat="47.2894" lon="6.77263">
        <ele>422.8</ele>
        <time>2026-05-13T13:10:42Z</time>
      </trkpt>
      <trkpt lat="47.28944" lon="6.77314">
        <ele>423</ele>
        <time>2026-05-13T13:10:48Z</time>
      </trkpt>
      <trkpt lat="47.28953" lon="6.77379">
        <ele>423</ele>
        <time>2026-05-13T13:10:56Z</time>
      </trkpt>
      <trkpt lat="47.28961" lon="6.77445">
        <ele>422.8</ele>
        <time>2026-05-13T13:11:03Z</time>
      </trkpt>
      <trkpt lat="47.28962" lon="6.77462">
        <ele>422.6</ele>
        <time>2026-05-13T13:11:06Z</time>
      </trkpt>
      <trkpt lat="47.28966" lon="6.77502">
        <ele>422.4</ele>
        <time>2026-05-13T13:11:10Z</time>
      </trkpt>
      <trkpt lat="47.28976" lon="6.77548">
        <ele>422.4</ele>
        <time>2026-05-13T13:11:14Z</time>
      </trkpt>
      <trkpt lat="47.28976" lon="6.77548">
        <ele>422.4</ele>
        <time>2026-05-13T13:11:15Z</time>
      </trkpt>
      <trkpt lat="47.28992" lon="6.77589">
        <ele>422.6</ele>
        <time>2026-05-13T13:11:19Z</time>
      </trkpt>
      <trkpt lat="47.29003" lon="6.77613">
        <ele>422.6</ele>
        <time>2026-05-13T13:11:22Z</time>
      </trkpt>
      <trkpt lat="47.29016" lon="6.77634">
        <ele>422.4</ele>
        <time>2026-05-13T13:11:26Z</time>
      </trkpt>
      <trkpt lat="47.29035" lon="6.77662">
        <ele>422.4</ele>
        <time>2026-05-13T13:11:30Z</time>
      </trkpt>
      <trkpt lat="47.29067" lon="6.77726">
        <ele>422</ele>
        <time>2026-05-13T13:11:37Z</time>
      </trkpt>
      <trkpt lat="47.29077" lon="6.77751">
        <ele>421.8</ele>
        <time>2026-05-13T13:11:40Z</time>
      </trkpt>
      <trkpt lat="47.29091" lon="6.77786">
        <ele>421.6</ele>
        <time>2026-05-13T13:11:45Z</time>
      </trkpt>
      <trkpt lat="47.29119" lon="6.77855">
        <ele>421.4</ele>
        <time>2026-05-13T13:11:52Z</time>
      </trkpt>
      <trkpt lat="47.2913" lon="6.77884">
        <ele>421.2</ele>
        <time>2026-05-13T13:11:55Z</time>
      </trkpt>
      <trkpt lat="47.29148" lon="6.77927">
        <ele>421</ele>
        <time>2026-05-13T13:12:00Z</time>
      </trkpt>
      <trkpt lat="47.29174" lon="6.7799">
        <ele>420.6</ele>
        <time>2026-05-13T13:12:07Z</time>
      </trkpt>
      <trkpt lat="47.29199" lon="6.78062">
        <ele>420.6</ele>
        <time>2026-05-13T13:12:15Z</time>
      </trkpt>
      <trkpt lat="47.29202" lon="6.78071">
        <ele>420.6</ele>
        <time>2026-05-13T13:12:16Z</time>
      </trkpt>
      <trkpt lat="47.29214" lon="6.78125">
        <ele>421</ele>
        <time>2026-05-13T13:12:22Z</time>
      </trkpt>
      <trkpt lat="47.29214" lon="6.78125">
        <ele>421</ele>
        <time>2026-05-13T13:12:23Z</time>
      </trkpt>
      <trkpt lat="47.29223" lon="6.78174">
        <ele>421.4</ele>
        <time>2026-05-13T13:12:28Z</time>
      </trkpt>
      <trkpt lat="47.29232" lon="6.7825">
        <ele>421.6</ele>
        <time>2026-05-13T13:12:38Z</time>
      </trkpt>
      <trkpt lat="47.29235" lon="6.78282">
        <ele>421.4</ele>
        <time>2026-05-13T13:12:41Z</time>
      </trkpt>
      <trkpt lat="47.29237" lon="6.78289">
        <ele>421.8</ele>
        <time>2026-05-13T13:12:43Z</time>
      </trkpt>
      <trkpt lat="47.29238" lon="6.78297">
        <ele>421.6</ele>
        <time>2026-05-13T13:12:44Z</time>
      </trkpt>
      <trkpt lat="47.29242" lon="6.78348">
        <ele>421.8</ele>
        <time>2026-05-13T13:12:49Z</time>
      </trkpt>
      <trkpt lat="47.29252" lon="6.78417">
        <ele>421.6</ele>
        <time>2026-05-13T13:12:57Z</time>
      </trkpt>
      <trkpt lat="47.29267" lon="6.78498">
        <ele>421.6</ele>
        <time>2026-05-13T13:13:06Z</time>
      </trkpt>
      <trkpt lat="47.29271" lon="6.78523">
        <ele>421.8</ele>
        <time>2026-05-13T13:13:09Z</time>
      </trkpt>
      <trkpt lat="47.29277" lon="6.78555">
        <ele>422</ele>
        <time>2026-05-13T13:13:13Z</time>
      </trkpt>
      <trkpt lat="47.29281" lon="6.78571">
        <ele>422</ele>
        <time>2026-05-13T13:13:15Z</time>
      </trkpt>
      <trkpt lat="47.29287" lon="6.78585">
        <ele>422.2</ele>
        <time>2026-05-13T13:13:18Z</time>
      </trkpt>
      <trkpt lat="47.29295" lon="6.78598">
        <ele>422.2</ele>
        <time>2026-05-13T13:13:19Z</time>
      </trkpt>
      <trkpt lat="47.29315" lon="6.78618">
        <ele>422.4</ele>
        <time>2026-05-13T13:13:23Z</time>
      </trkpt>
      <trkpt lat="47.29326" lon="6.78626">
        <ele>422.4</ele>
        <time>2026-05-13T13:13:25Z</time>
      </trkpt>
      <trkpt lat="47.29364" lon="6.78637">
        <ele>422.4</ele>
        <time>2026-05-13T13:13:31Z</time>
      </trkpt>
      <trkpt lat="47.29386" lon="6.78638">
        <ele>422.2</ele>
        <time>2026-05-13T13:13:35Z</time>
      </trkpt>
      <trkpt lat="47.2939" lon="6.78639">
        <ele>422.4</ele>
        <time>2026-05-13T13:13:36Z</time>
      </trkpt>
      <trkpt lat="47.294" lon="6.7864">
        <ele>422.4</ele>
        <time>2026-05-13T13:13:38Z</time>
      </trkpt>
      <trkpt lat="47.29412" lon="6.78642">
        <ele>422.2</ele>
        <time>2026-05-13T13:13:40Z</time>
      </trkpt>
      <trkpt lat="47.2945" lon="6.78651">
        <ele>422</ele>
        <time>2026-05-13T13:13:46Z</time>
      </trkpt>
      <trkpt lat="47.29486" lon="6.78666">
        <ele>421.2</ele>
        <time>2026-05-13T13:13:52Z</time>
      </trkpt>
      <trkpt lat="47.29503" lon="6.78676">
        <ele>421</ele>
        <time>2026-05-13T13:13:55Z</time>
      </trkpt>
      <trkpt lat="47.29516" lon="6.78685">
        <ele>420.8</ele>
        <time>2026-05-13T13:13:57Z</time>
      </trkpt>
      <trkpt lat="47.29523" lon="6.7869">
        <ele>420.6</ele>
        <time>2026-05-13T13:13:58Z</time>
      </trkpt>
      <trkpt lat="47.29548" lon="6.78713">
        <ele>420.4</ele>
        <time>2026-05-13T13:14:02Z</time>
      </trkpt>
      <trkpt lat="47.29558" lon="6.78726">
        <ele>420.2</ele>
        <time>2026-05-13T13:14:04Z</time>
      </trkpt>
      <trkpt lat="47.29563" lon="6.78732">
        <ele>420</ele>
        <time>2026-05-13T13:14:05Z</time>
      </trkpt>
      <trkpt lat="47.29573" lon="6.78746">
        <ele>420</ele>
        <time>2026-05-13T13:14:07Z</time>
      </trkpt>
      <trkpt lat="47.29583" lon="6.7876">
        <ele>419.8</ele>
        <time>2026-05-13T13:14:09Z</time>
      </trkpt>
      <trkpt lat="47.29588" lon="6.78768">
        <ele>419.6</ele>
        <time>2026-05-13T13:14:10Z</time>
      </trkpt>
      <trkpt lat="47.29602" lon="6.78793">
        <ele>419.4</ele>
        <time>2026-05-13T13:14:13Z</time>
      </trkpt>
      <trkpt lat="47.2961" lon="6.78811">
        <ele>419.2</ele>
        <time>2026-05-13T13:14:15Z</time>
      </trkpt>
      <trkpt lat="47.29625" lon="6.78856">
        <ele>418.6</ele>
        <time>2026-05-13T13:14:21Z</time>
      </trkpt>
      <trkpt lat="47.29628" lon="6.78866">
        <ele>418.6</ele>
        <time>2026-05-13T13:14:22Z</time>
      </trkpt>
      <trkpt lat="47.29651" lon="6.78948">
        <ele>418.6</ele>
        <time>2026-05-13T13:14:30Z</time>
      </trkpt>
      <trkpt lat="47.29668" lon="6.78993">
        <ele>418.6</ele>
        <time>2026-05-13T13:14:35Z</time>
      </trkpt>
      <trkpt lat="47.29675" lon="6.79011">
        <ele>418.6</ele>
        <time>2026-05-13T13:14:37Z</time>
      </trkpt>
      <trkpt lat="47.29679" lon="6.7902">
        <ele>418.4</ele>
        <time>2026-05-13T13:14:39Z</time>
      </trkpt>
      <trkpt lat="47.29692" lon="6.79044">
        <ele>418.4</ele>
        <time>2026-05-13T13:14:41Z</time>
      </trkpt>
      <trkpt lat="47.29697" lon="6.79051">
        <ele>418.4</ele>
        <time>2026-05-13T13:14:42Z</time>
      </trkpt>
      <trkpt lat="47.29728" lon="6.79079">
        <ele>418.4</ele>
        <time>2026-05-13T13:14:47Z</time>
      </trkpt>
      <trkpt lat="47.29735" lon="6.79084">
        <ele>418.2</ele>
        <time>2026-05-13T13:14:49Z</time>
      </trkpt>
      <trkpt lat="47.29773" lon="6.79103">
        <ele>418</ele>
        <time>2026-05-13T13:14:54Z</time>
      </trkpt>
      <trkpt lat="47.29795" lon="6.79105">
        <ele>418</ele>
        <time>2026-05-13T13:14:57Z</time>
      </trkpt>
      <trkpt lat="47.29809" lon="6.79104">
        <ele>418.2</ele>
        <time>2026-05-13T13:14:59Z</time>
      </trkpt>
      <trkpt lat="47.29852" lon="6.7909">
        <ele>418.4</ele>
        <time>2026-05-13T13:15:06Z</time>
      </trkpt>
      <trkpt lat="47.29888" lon="6.79072">
        <ele>418.6</ele>
        <time>2026-05-13T13:15:12Z</time>
      </trkpt>
      <trkpt lat="47.29923" lon="6.7905">
        <ele>418.4</ele>
        <time>2026-05-13T13:15:19Z</time>
      </trkpt>
      <trkpt lat="47.29935" lon="6.79043">
        <ele>418.2</ele>
        <time>2026-05-13T13:15:20Z</time>
      </trkpt>
      <trkpt lat="47.29942" lon="6.79039">
        <ele>418.2</ele>
        <time>2026-05-13T13:15:21Z</time>
      </trkpt>
      <trkpt lat="47.29966" lon="6.79027">
        <ele>417.8</ele>
        <time>2026-05-13T13:15:25Z</time>
      </trkpt>
      <trkpt lat="47.30009" lon="6.79005">
        <ele>417.4</ele>
        <time>2026-05-13T13:15:32Z</time>
      </trkpt>
      <trkpt lat="47.30016" lon="6.79003">
        <ele>417.4</ele>
        <time>2026-05-13T13:15:33Z</time>
      </trkpt>
      <trkpt lat="47.30022" lon="6.79002">
        <ele>417.4</ele>
        <time>2026-05-13T13:15:34Z</time>
      </trkpt>
      <trkpt lat="47.30035" lon="6.79001">
        <ele>417.2</ele>
        <time>2026-05-13T13:15:36Z</time>
      </trkpt>
      <trkpt lat="47.30047" lon="6.79">
        <ele>417.2</ele>
        <time>2026-05-13T13:15:38Z</time>
      </trkpt>
      <trkpt lat="47.30077" lon="6.78999">
        <ele>417</ele>
        <time>2026-05-13T13:15:43Z</time>
      </trkpt>
      <trkpt lat="47.30088" lon="6.79">
        <ele>416.8</ele>
        <time>2026-05-13T13:15:45Z</time>
      </trkpt>
      <trkpt lat="47.30093" lon="6.79">
        <ele>416.8</ele>
        <time>2026-05-13T13:15:46Z</time>
      </trkpt>
      <trkpt lat="47.30104" lon="6.79004">
        <ele>416.8</ele>
        <time>2026-05-13T13:15:48Z</time>
      </trkpt>
      <trkpt lat="47.30117" lon="6.79009">
        <ele>416.8</ele>
        <time>2026-05-13T13:15:50Z</time>
      </trkpt>
      <trkpt lat="47.3014" lon="6.7902">
        <ele>416.8</ele>
        <time>2026-05-13T13:15:54Z</time>
      </trkpt>
      <trkpt lat="47.30154" lon="6.79029">
        <ele>417</ele>
        <time>2026-05-13T13:15:55Z</time>
      </trkpt>
      <trkpt lat="47.30177" lon="6.79042">
        <ele>417</ele>
        <time>2026-05-13T13:15:58Z</time>
      </trkpt>
      <trkpt lat="47.30212" lon="6.79072">
        <ele>417</ele>
        <time>2026-05-13T13:16:04Z</time>
      </trkpt>
      <trkpt lat="47.30252" lon="6.79118">
        <ele>416.8</ele>
        <time>2026-05-13T13:16:12Z</time>
      </trkpt>
      <trkpt lat="47.30297" lon="6.79164">
        <ele>416.6</ele>
        <time>2026-05-13T13:16:20Z</time>
      </trkpt>
      <trkpt lat="47.30297" lon="6.79164">
        <ele>416.6</ele>
        <time>2026-05-13T13:16:21Z</time>
      </trkpt>
      <trkpt lat="47.30345" lon="6.79218">
        <ele>416.8</ele>
        <time>2026-05-13T13:16:29Z</time>
      </trkpt>
      <trkpt lat="47.3035" lon="6.79224">
        <ele>416.8</ele>
        <time>2026-05-13T13:16:30Z</time>
      </trkpt>
      <trkpt lat="47.30398" lon="6.79275">
        <ele>416.6</ele>
        <time>2026-05-13T13:16:39Z</time>
      </trkpt>
      <trkpt lat="47.30404" lon="6.79281">
        <ele>416.4</ele>
        <time>2026-05-13T13:16:40Z</time>
      </trkpt>
      <trkpt lat="47.30446" lon="6.79319">
        <ele>416</ele>
        <time>2026-05-13T13:16:47Z</time>
      </trkpt>
      <trkpt lat="47.30497" lon="6.79361">
        <ele>416</ele>
        <time>2026-05-13T13:16:56Z</time>
      </trkpt>
      <trkpt lat="47.30545" lon="6.79386">
        <ele>416</ele>
        <time>2026-05-13T13:17:04Z</time>
      </trkpt>
      <trkpt lat="47.30597" lon="6.79401">
        <ele>415.6</ele>
        <time>2026-05-13T13:17:12Z</time>
      </trkpt>
      <trkpt lat="47.3061" lon="6.79404">
        <ele>415.6</ele>
        <time>2026-05-13T13:17:14Z</time>
      </trkpt>
      <trkpt lat="47.30661" lon="6.7942">
        <ele>415.6</ele>
        <time>2026-05-13T13:17:22Z</time>
      </trkpt>
      <trkpt lat="47.30694" lon="6.79432">
        <ele>414.8</ele>
        <time>2026-05-13T13:17:27Z</time>
      </trkpt>
      <trkpt lat="47.3072" lon="6.79445">
        <ele>414</ele>
        <time>2026-05-13T13:17:31Z</time>
      </trkpt>
      <trkpt lat="47.3077" lon="6.79482">
        <ele>414.2</ele>
        <time>2026-05-13T13:17:39Z</time>
      </trkpt>
      <trkpt lat="47.30791" lon="6.79509">
        <ele>414.2</ele>
        <time>2026-05-13T13:17:43Z</time>
      </trkpt>
      <trkpt lat="47.30791" lon="6.79509">
        <ele>414.2</ele>
        <time>2026-05-13T13:17:44Z</time>
      </trkpt>
      <trkpt lat="47.30799" lon="6.79525">
        <ele>414.2</ele>
        <time>2026-05-13T13:17:45Z</time>
      </trkpt>
      <trkpt lat="47.30809" lon="6.79553">
        <ele>414</ele>
        <time>2026-05-13T13:17:48Z</time>
      </trkpt>
      <trkpt lat="47.30829" lon="6.79617">
        <ele>413.8</ele>
        <time>2026-05-13T13:17:55Z</time>
      </trkpt>
      <trkpt lat="47.30846" lon="6.79673">
        <ele>413.8</ele>
        <time>2026-05-13T13:18:01Z</time>
      </trkpt>
      <trkpt lat="47.30856" lon="6.7973">
        <ele>413.6</ele>
        <time>2026-05-13T13:18:07Z</time>
      </trkpt>
      <trkpt lat="47.30856" lon="6.79761">
        <ele>413.4</ele>
        <time>2026-05-13T13:18:10Z</time>
      </trkpt>
      <trkpt lat="47.30855" lon="6.79771">
        <ele>413.4</ele>
        <time>2026-05-13T13:18:12Z</time>
      </trkpt>
      <trkpt lat="47.30853" lon="6.79789">
        <ele>413.2</ele>
        <time>2026-05-13T13:18:13Z</time>
      </trkpt>
      <trkpt lat="47.30848" lon="6.79815">
        <ele>413</ele>
        <time>2026-05-13T13:18:17Z</time>
      </trkpt>
      <trkpt lat="47.30838" lon="6.79856">
        <ele>412.6</ele>
        <time>2026-05-13T13:18:20Z</time>
      </trkpt>
      <trkpt lat="47.30831" lon="6.79885">
        <ele>412.2</ele>
        <time>2026-05-13T13:18:23Z</time>
      </trkpt>
      <trkpt lat="47.30828" lon="6.79903">
        <ele>411.8</ele>
        <time>2026-05-13T13:18:25Z</time>
      </trkpt>
      <trkpt lat="47.30821" lon="6.79934">
        <ele>411.6</ele>
        <time>2026-05-13T13:18:28Z</time>
      </trkpt>
      <trkpt lat="47.30814" lon="6.79993">
        <ele>411.4</ele>
        <time>2026-05-13T13:18:34Z</time>
      </trkpt>
      <trkpt lat="47.30812" lon="6.80071">
        <ele>411.2</ele>
        <time>2026-05-13T13:18:42Z</time>
      </trkpt>
      <trkpt lat="47.30821" lon="6.80148">
        <ele>411.2</ele>
        <time>2026-05-13T13:18:50Z</time>
      </trkpt>
      <trkpt lat="47.30835" lon="6.80195">
        <ele>411.2</ele>
        <time>2026-05-13T13:18:55Z</time>
      </trkpt>
      <trkpt lat="47.30861" lon="6.80253">
        <ele>411.2</ele>
        <time>2026-05-13T13:19:02Z</time>
      </trkpt>
      <trkpt lat="47.30879" lon="6.80282">
        <ele>411</ele>
        <time>2026-05-13T13:19:06Z</time>
      </trkpt>
      <trkpt lat="47.3089" lon="6.80293">
        <ele>410.8</ele>
        <time>2026-05-13T13:19:08Z</time>
      </trkpt>
      <trkpt lat="47.30919" lon="6.80314">
        <ele>410.6</ele>
        <time>2026-05-13T13:19:13Z</time>
      </trkpt>
      <trkpt lat="47.30925" lon="6.80317">
        <ele>410.6</ele>
        <time>2026-05-13T13:19:14Z</time>
      </trkpt>
      <trkpt lat="47.30945" lon="6.80325">
        <ele>410.4</ele>
        <time>2026-05-13T13:19:17Z</time>
      </trkpt>
      <trkpt lat="47.30977" lon="6.80334">
        <ele>410.2</ele>
        <time>2026-05-13T13:19:22Z</time>
      </trkpt>
      <trkpt lat="47.31019" lon="6.80346">
        <ele>410.2</ele>
        <time>2026-05-13T13:19:28Z</time>
      </trkpt>
      <trkpt lat="47.31066" lon="6.80372">
        <ele>410.6</ele>
        <time>2026-05-13T13:19:35Z</time>
      </trkpt>
      <trkpt lat="47.31089" lon="6.80394">
        <ele>410.6</ele>
        <time>2026-05-13T13:19:39Z</time>
      </trkpt>
      <trkpt lat="47.31094" lon="6.80402">
        <ele>410.4</ele>
        <time>2026-05-13T13:19:40Z</time>
      </trkpt>
      <trkpt lat="47.31118" lon="6.80451">
        <ele>410</ele>
        <time>2026-05-13T13:19:46Z</time>
      </trkpt>
      <trkpt lat="47.31136" lon="6.80501">
        <ele>409.2</ele>
        <time>2026-05-13T13:19:52Z</time>
      </trkpt>
      <trkpt lat="47.31145" lon="6.80526">
        <ele>409</ele>
        <time>2026-05-13T13:19:55Z</time>
      </trkpt>
      <trkpt lat="47.31166" lon="6.80605">
        <ele>408.8</ele>
        <time>2026-05-13T13:20:04Z</time>
      </trkpt>
      <trkpt lat="47.31176" lon="6.80673">
        <ele>408.6</ele>
        <time>2026-05-13T13:20:11Z</time>
      </trkpt>
      <trkpt lat="47.31176" lon="6.80731">
        <ele>408.6</ele>
        <time>2026-05-13T13:20:17Z</time>
      </trkpt>
      <trkpt lat="47.31166" lon="6.80811">
        <ele>408.4</ele>
        <time>2026-05-13T13:20:25Z</time>
      </trkpt>
      <trkpt lat="47.31166" lon="6.80821">
        <ele>408.2</ele>
        <time>2026-05-13T13:20:26Z</time>
      </trkpt>
      <trkpt lat="47.31166" lon="6.80842">
        <ele>408.4</ele>
        <time>2026-05-13T13:20:28Z</time>
      </trkpt>
      <trkpt lat="47.31166" lon="6.80886">
        <ele>408.2</ele>
        <time>2026-05-13T13:20:32Z</time>
      </trkpt>
      <trkpt lat="47.3117" lon="6.80907">
        <ele>408.2</ele>
        <time>2026-05-13T13:20:34Z</time>
      </trkpt>
      <trkpt lat="47.31174" lon="6.80916">
        <ele>408.2</ele>
        <time>2026-05-13T13:20:35Z</time>
      </trkpt>
      <trkpt lat="47.31178" lon="6.80923">
        <ele>408</ele>
        <time>2026-05-13T13:20:36Z</time>
      </trkpt>
      <trkpt lat="47.3119" lon="6.80939">
        <ele>407.8</ele>
        <time>2026-05-13T13:20:38Z</time>
      </trkpt>
      <trkpt lat="47.31198" lon="6.80946">
        <ele>407.6</ele>
        <time>2026-05-13T13:20:39Z</time>
      </trkpt>
      <trkpt lat="47.31219" lon="6.80963">
        <ele>407</ele>
        <time>2026-05-13T13:20:42Z</time>
      </trkpt>
      <trkpt lat="47.31248" lon="6.80987">
        <ele>406.4</ele>
        <time>2026-05-13T13:20:46Z</time>
      </trkpt>
      <trkpt lat="47.31269" lon="6.81005">
        <ele>406</ele>
        <time>2026-05-13T13:20:49Z</time>
      </trkpt>
      <trkpt lat="47.31292" lon="6.81016">
        <ele>405.8</ele>
        <time>2026-05-13T13:20:52Z</time>
      </trkpt>
      <trkpt lat="47.31307" lon="6.81018">
        <ele>405.6</ele>
        <time>2026-05-13T13:20:54Z</time>
      </trkpt>
      <trkpt lat="47.3133" lon="6.81015">
        <ele>405.6</ele>
        <time>2026-05-13T13:20:57Z</time>
      </trkpt>
      <trkpt lat="47.31376" lon="6.81007">
        <ele>405.6</ele>
        <time>2026-05-13T13:21:03Z</time>
      </trkpt>
      <trkpt lat="47.31424" lon="6.80999">
        <ele>405.6</ele>
        <time>2026-05-13T13:21:10Z</time>
      </trkpt>
      <trkpt lat="47.3147" lon="6.80992">
        <ele>406</ele>
        <time>2026-05-13T13:21:17Z</time>
      </trkpt>
      <trkpt lat="47.31512" lon="6.80991">
        <ele>406.8</ele>
        <time>2026-05-13T13:21:24Z</time>
      </trkpt>
      <trkpt lat="47.3153" lon="6.80991">
        <ele>407.2</ele>
        <time>2026-05-13T13:21:27Z</time>
      </trkpt>
      <trkpt lat="47.31565" lon="6.80993">
        <ele>407.8</ele>
        <time>2026-05-13T13:21:33Z</time>
      </trkpt>
      <trkpt lat="47.31605" lon="6.80996">
        <ele>407</ele>
        <time>2026-05-13T13:21:40Z</time>
      </trkpt>
      <trkpt lat="47.31636" lon="6.81002">
        <ele>406.6</ele>
        <time>2026-05-13T13:21:45Z</time>
      </trkpt>
      <trkpt lat="47.31642" lon="6.81005">
        <ele>406.4</ele>
        <time>2026-05-13T13:21:46Z</time>
      </trkpt>
      <trkpt lat="47.31647" lon="6.81008">
        <ele>406.2</ele>
        <time>2026-05-13T13:21:47Z</time>
      </trkpt>
      <trkpt lat="47.31653" lon="6.81012">
        <ele>406</ele>
        <time>2026-05-13T13:21:48Z</time>
      </trkpt>
      <trkpt lat="47.31657" lon="6.81019">
        <ele>405.8</ele>
        <time>2026-05-13T13:21:49Z</time>
      </trkpt>
      <trkpt lat="47.31667" lon="6.81025">
        <ele>405.6</ele>
        <time>2026-05-13T13:21:51Z</time>
      </trkpt>
      <trkpt lat="47.31674" lon="6.81027">
        <ele>405.2</ele>
        <time>2026-05-13T13:21:52Z</time>
      </trkpt>
      <trkpt lat="47.3168" lon="6.81029">
        <ele>404.8</ele>
        <time>2026-05-13T13:21:53Z</time>
      </trkpt>
      <trkpt lat="47.31704" lon="6.81036">
        <ele>403.8</ele>
        <time>2026-05-13T13:21:57Z</time>
      </trkpt>
      <trkpt lat="47.31713" lon="6.81044">
        <ele>403.8</ele>
        <time>2026-05-13T13:21:59Z</time>
      </trkpt>
      <trkpt lat="47.31719" lon="6.81054">
        <ele>403.8</ele>
        <time>2026-05-13T13:22:01Z</time>
      </trkpt>
      <trkpt lat="47.31722" lon="6.81067">
        <ele>404</ele>
        <time>2026-05-13T13:22:03Z</time>
      </trkpt>
      <trkpt lat="47.31721" lon="6.8108">
        <ele>404.4</ele>
        <time>2026-05-13T13:22:05Z</time>
      </trkpt>
      <trkpt lat="47.3172" lon="6.8109">
        <ele>405.2</ele>
        <time>2026-05-13T13:22:07Z</time>
      </trkpt>
      <trkpt lat="47.31717" lon="6.81107">
        <ele>406.4</ele>
        <time>2026-05-13T13:22:11Z</time>
      </trkpt>
      <trkpt lat="47.31715" lon="6.81116">
        <ele>406.6</ele>
        <time>2026-05-13T13:22:12Z</time>
      </trkpt>
      <trkpt lat="47.31711" lon="6.81135">
        <ele>407.2</ele>
        <time>2026-05-13T13:22:16Z</time>
      </trkpt>
      <trkpt lat="47.3171" lon="6.81138">
        <ele>407.4</ele>
        <time>2026-05-13T13:22:17Z</time>
      </trkpt>
      <trkpt lat="47.31711" lon="6.81147">
        <ele>408.2</ele>
        <time>2026-05-13T13:22:21Z</time>
      </trkpt>
      <trkpt lat="47.31712" lon="6.8115">
        <ele>408.2</ele>
        <time>2026-05-13T13:22:22Z</time>
      </trkpt>
      <trkpt lat="47.31716" lon="6.81153">
        <ele>408.6</ele>
        <time>2026-05-13T13:22:24Z</time>
      </trkpt>
      <trkpt lat="47.31719" lon="6.81153">
        <ele>408.6</ele>
        <time>2026-05-13T13:22:25Z</time>
      </trkpt>
      <trkpt lat="47.31741" lon="6.81163">
        <ele>408.8</ele>
        <time>2026-05-13T13:22:32Z</time>
      </trkpt>
      <trkpt lat="47.31765" lon="6.81179">
        <ele>408.8</ele>
        <time>2026-05-13T13:22:39Z</time>
      </trkpt>
      <trkpt lat="47.31775" lon="6.81195">
        <ele>408.8</ele>
        <time>2026-05-13T13:22:43Z</time>
      </trkpt>
      <trkpt lat="47.31784" lon="6.81208">
        <ele>408.8</ele>
        <time>2026-05-13T13:22:46Z</time>
      </trkpt>
      <trkpt lat="47.31794" lon="6.81228">
        <ele>408.4</ele>
        <time>2026-05-13T13:22:52Z</time>
      </trkpt>
      <trkpt lat="47.31798" lon="6.81231">
        <ele>408.2</ele>
        <time>2026-05-13T13:22:56Z</time>
      </trkpt>
      <trkpt lat="47.31798" lon="6.81232">
        <ele>408.2</ele>
        <time>2026-05-13T13:22:59Z</time>
      </trkpt>
      <trkpt lat="47.31806" lon="6.81248">
        <ele>409.4</ele>
        <time>2026-05-13T13:33:29Z</time>
      </trkpt>
      <trkpt lat="47.31806" lon="6.81252">
        <ele>409.4</ele>
        <time>2026-05-13T13:33:30Z</time>
      </trkpt>
      <trkpt lat="47.318" lon="6.81273">
        <ele>409.4</ele>
        <time>2026-05-13T13:33:35Z</time>
      </trkpt>
      <trkpt lat="47.31797" lon="6.81295">
        <ele>409.4</ele>
        <time>2026-05-13T13:33:40Z</time>
      </trkpt>
      <trkpt lat="47.31791" lon="6.81305">
        <ele>409.6</ele>
        <time>2026-05-13T13:33:44Z</time>
      </trkpt>
      <trkpt lat="47.31789" lon="6.81306">
        <ele>409.8</ele>
        <time>2026-05-13T13:33:45Z</time>
      </trkpt>
      <trkpt lat="47.31786" lon="6.81312">
        <ele>410</ele>
        <time>2026-05-13T13:33:47Z</time>
      </trkpt>
      <trkpt lat="47.31786" lon="6.81323">
        <ele>410.4</ele>
        <time>2026-05-13T13:33:50Z</time>
      </trkpt>
      <trkpt lat="47.31787" lon="6.81327">
        <ele>410.6</ele>
        <time>2026-05-13T13:33:51Z</time>
      </trkpt>
      <trkpt lat="47.31782" lon="6.81351">
        <ele>411.2</ele>
        <time>2026-05-13T13:33:57Z</time>
      </trkpt>
      <trkpt lat="47.3178" lon="6.81363">
        <ele>411.4</ele>
        <time>2026-05-13T13:34:00Z</time>
      </trkpt>
      <trkpt lat="47.31781" lon="6.81385">
        <ele>412.8</ele>
        <time>2026-05-13T13:34:05Z</time>
      </trkpt>
      <trkpt lat="47.31784" lon="6.81402">
        <ele>413.8</ele>
        <time>2026-05-13T13:34:09Z</time>
      </trkpt>
      <trkpt lat="47.31785" lon="6.8141">
        <ele>414.8</ele>
        <time>2026-05-13T13:34:11Z</time>
      </trkpt>
      <trkpt lat="47.31785" lon="6.81414">
        <ele>415</ele>
        <time>2026-05-13T13:34:12Z</time>
      </trkpt>
      <trkpt lat="47.31786" lon="6.81439">
        <ele>416</ele>
        <time>2026-05-13T13:34:18Z</time>
      </trkpt>
      <trkpt lat="47.31786" lon="6.81443">
        <ele>416.2</ele>
        <time>2026-05-13T13:34:19Z</time>
      </trkpt>
      <trkpt lat="47.31788" lon="6.81469">
        <ele>416.6</ele>
        <time>2026-05-13T13:34:25Z</time>
      </trkpt>
      <trkpt lat="47.31792" lon="6.81501">
        <ele>417.2</ele>
        <time>2026-05-13T13:34:32Z</time>
      </trkpt>
      <trkpt lat="47.31797" lon="6.81535">
        <ele>418</ele>
        <time>2026-05-13T13:34:39Z</time>
      </trkpt>
      <trkpt lat="47.31799" lon="6.81573">
        <ele>418.2</ele>
        <time>2026-05-13T13:34:46Z</time>
      </trkpt>
      <trkpt lat="47.31799" lon="6.81579">
        <ele>418.2</ele>
        <time>2026-05-13T13:34:47Z</time>
      </trkpt>
      <trkpt lat="47.318" lon="6.81626">
        <ele>418</ele>
        <time>2026-05-13T13:34:55Z</time>
      </trkpt>
      <trkpt lat="47.31803" lon="6.81663">
        <ele>417.6</ele>
        <time>2026-05-13T13:35:01Z</time>
      </trkpt>
      <trkpt lat="47.31804" lon="6.81676">
        <ele>417.2</ele>
        <time>2026-05-13T13:35:03Z</time>
      </trkpt>
      <trkpt lat="47.31809" lon="6.81733">
        <ele>417.4</ele>
        <time>2026-05-13T13:35:12Z</time>
      </trkpt>
      <trkpt lat="47.31811" lon="6.81766">
        <ele>417.6</ele>
        <time>2026-05-13T13:35:17Z</time>
      </trkpt>
      <trkpt lat="47.31812" lon="6.8178">
        <ele>417.6</ele>
        <time>2026-05-13T13:35:19Z</time>
      </trkpt>
      <trkpt lat="47.31818" lon="6.81821">
        <ele>417.6</ele>
        <time>2026-05-13T13:35:25Z</time>
      </trkpt>
      <trkpt lat="47.31832" lon="6.81868">
        <ele>417.8</ele>
        <time>2026-05-13T13:35:32Z</time>
      </trkpt>
      <trkpt lat="47.31849" lon="6.81902">
        <ele>418.8</ele>
        <time>2026-05-13T13:35:38Z</time>
      </trkpt>
      <trkpt lat="47.31852" lon="6.81907">
        <ele>418.8</ele>
        <time>2026-05-13T13:35:39Z</time>
      </trkpt>
      <trkpt lat="47.31854" lon="6.81912">
        <ele>418.8</ele>
        <time>2026-05-13T13:35:40Z</time>
      </trkpt>
      <trkpt lat="47.31872" lon="6.81943">
        <ele>419.2</ele>
        <time>2026-05-13T13:35:46Z</time>
      </trkpt>
      <trkpt lat="47.31875" lon="6.81947">
        <ele>419.2</ele>
        <time>2026-05-13T13:35:47Z</time>
      </trkpt>
      <trkpt lat="47.31886" lon="6.81965">
        <ele>419.8</ele>
        <time>2026-05-13T13:35:51Z</time>
      </trkpt>
      <trkpt lat="47.31888" lon="6.81969">
        <ele>420</ele>
        <time>2026-05-13T13:35:52Z</time>
      </trkpt>
      <trkpt lat="47.31901" lon="6.81992">
        <ele>420.8</ele>
        <time>2026-05-13T13:35:57Z</time>
      </trkpt>
      <trkpt lat="47.31916" lon="6.82018">
        <ele>422</ele>
        <time>2026-05-13T13:36:03Z</time>
      </trkpt>
      <trkpt lat="47.31919" lon="6.82021">
        <ele>422.4</ele>
        <time>2026-05-13T13:36:04Z</time>
      </trkpt>
      <trkpt lat="47.31933" lon="6.82045">
        <ele>423.2</ele>
        <time>2026-05-13T13:36:09Z</time>
      </trkpt>
      <trkpt lat="47.31939" lon="6.82054">
        <ele>423.4</ele>
        <time>2026-05-13T13:36:11Z</time>
      </trkpt>
      <trkpt lat="47.31954" lon="6.82079">
        <ele>424.2</ele>
        <time>2026-05-13T13:36:16Z</time>
      </trkpt>
      <trkpt lat="47.31959" lon="6.82089">
        <ele>424.6</ele>
        <time>2026-05-13T13:36:18Z</time>
      </trkpt>
      <trkpt lat="47.31972" lon="6.82115">
        <ele>425.2</ele>
        <time>2026-05-13T13:36:23Z</time>
      </trkpt>
      <trkpt lat="47.31984" lon="6.82136">
        <ele>425.6</ele>
        <time>2026-05-13T13:36:27Z</time>
      </trkpt>
      <trkpt lat="47.31998" lon="6.82165">
        <ele>426.4</ele>
        <time>2026-05-13T13:36:32Z</time>
      </trkpt>
      <trkpt lat="47.32007" lon="6.82182">
        <ele>426.6</ele>
        <time>2026-05-13T13:36:35Z</time>
      </trkpt>
      <trkpt lat="47.32035" lon="6.82232">
        <ele>427.2</ele>
        <time>2026-05-13T13:36:44Z</time>
      </trkpt>
      <trkpt lat="47.32045" lon="6.82254">
        <ele>427.4</ele>
        <time>2026-05-13T13:36:48Z</time>
      </trkpt>
      <trkpt lat="47.32054" lon="6.82276">
        <ele>427.8</ele>
        <time>2026-05-13T13:36:52Z</time>
      </trkpt>
      <trkpt lat="47.3206" lon="6.82298">
        <ele>428.4</ele>
        <time>2026-05-13T13:36:56Z</time>
      </trkpt>
      <trkpt lat="47.32066" lon="6.82321">
        <ele>430</ele>
        <time>2026-05-13T13:37:00Z</time>
      </trkpt>
      <trkpt lat="47.32067" lon="6.82325">
        <ele>430.2</ele>
        <time>2026-05-13T13:37:01Z</time>
      </trkpt>
      <trkpt lat="47.3207" lon="6.82345">
        <ele>431.2</ele>
        <time>2026-05-13T13:37:05Z</time>
      </trkpt>
      <trkpt lat="47.32071" lon="6.8235">
        <ele>431.4</ele>
        <time>2026-05-13T13:37:06Z</time>
      </trkpt>
      <trkpt lat="47.32074" lon="6.82379">
        <ele>432.4</ele>
        <time>2026-05-13T13:37:12Z</time>
      </trkpt>
      <trkpt lat="47.32076" lon="6.82392">
        <ele>432.8</ele>
        <time>2026-05-13T13:37:15Z</time>
      </trkpt>
      <trkpt lat="47.32078" lon="6.82401">
        <ele>433.6</ele>
        <time>2026-05-13T13:37:17Z</time>
      </trkpt>
      <trkpt lat="47.32087" lon="6.82439">
        <ele>434.4</ele>
        <time>2026-05-13T13:37:25Z</time>
      </trkpt>
      <trkpt lat="47.32088" lon="6.82443">
        <ele>434.8</ele>
        <time>2026-05-13T13:37:26Z</time>
      </trkpt>
      <trkpt lat="47.32093" lon="6.82464">
        <ele>435.8</ele>
        <time>2026-05-13T13:37:31Z</time>
      </trkpt>
      <trkpt lat="47.32096" lon="6.82472">
        <ele>436.2</ele>
        <time>2026-05-13T13:37:33Z</time>
      </trkpt>
      <trkpt lat="47.321" lon="6.82486">
        <ele>437</ele>
        <time>2026-05-13T13:37:36Z</time>
      </trkpt>
      <trkpt lat="47.32104" lon="6.82503">
        <ele>437.2</ele>
        <time>2026-05-13T13:37:40Z</time>
      </trkpt>
      <trkpt lat="47.32113" lon="6.82525">
        <ele>437.8</ele>
        <time>2026-05-13T13:37:45Z</time>
      </trkpt>
      <trkpt lat="47.32115" lon="6.8253">
        <ele>438</ele>
        <time>2026-05-13T13:37:46Z</time>
      </trkpt>
      <trkpt lat="47.32127" lon="6.82567">
        <ele>439.2</ele>
        <time>2026-05-13T13:37:53Z</time>
      </trkpt>
      <trkpt lat="47.3213" lon="6.82576">
        <ele>439.4</ele>
        <time>2026-05-13T13:37:55Z</time>
      </trkpt>
      <trkpt lat="47.32138" lon="6.82599">
        <ele>440.4</ele>
        <time>2026-05-13T13:38:00Z</time>
      </trkpt>
      <trkpt lat="47.32144" lon="6.82618">
        <ele>441</ele>
        <time>2026-05-13T13:38:04Z</time>
      </trkpt>
      <trkpt lat="47.32149" lon="6.82632">
        <ele>441.4</ele>
        <time>2026-05-13T13:38:07Z</time>
      </trkpt>
      <trkpt lat="47.32152" lon="6.82641">
        <ele>441.6</ele>
        <time>2026-05-13T13:38:09Z</time>
      </trkpt>
      <trkpt lat="47.32165" lon="6.82677">
        <ele>442.8</ele>
        <time>2026-05-13T13:38:17Z</time>
      </trkpt>
      <trkpt lat="47.32176" lon="6.82702">
        <ele>443.8</ele>
        <time>2026-05-13T13:38:23Z</time>
      </trkpt>
      <trkpt lat="47.32186" lon="6.82726">
        <ele>445</ele>
        <time>2026-05-13T13:38:29Z</time>
      </trkpt>
      <trkpt lat="47.32188" lon="6.8273">
        <ele>445.2</ele>
        <time>2026-05-13T13:38:30Z</time>
      </trkpt>
      <trkpt lat="47.32198" lon="6.82757">
        <ele>446.2</ele>
        <time>2026-05-13T13:38:37Z</time>
      </trkpt>
      <trkpt lat="47.32199" lon="6.8276">
        <ele>446.4</ele>
        <time>2026-05-13T13:38:38Z</time>
      </trkpt>
      <trkpt lat="47.32207" lon="6.82778">
        <ele>447.4</ele>
        <time>2026-05-13T13:38:43Z</time>
      </trkpt>
      <trkpt lat="47.32213" lon="6.82793">
        <ele>448.4</ele>
        <time>2026-05-13T13:38:47Z</time>
      </trkpt>
      <trkpt lat="47.32214" lon="6.82797">
        <ele>448.8</ele>
        <time>2026-05-13T13:38:48Z</time>
      </trkpt>
      <trkpt lat="47.32223" lon="6.82815">
        <ele>449.8</ele>
        <time>2026-05-13T13:38:53Z</time>
      </trkpt>
      <trkpt lat="47.32228" lon="6.82827">
        <ele>450.4</ele>
        <time>2026-05-13T13:38:56Z</time>
      </trkpt>
      <trkpt lat="47.32232" lon="6.82835">
        <ele>451</ele>
        <time>2026-05-13T13:38:58Z</time>
      </trkpt>
      <trkpt lat="47.32246" lon="6.82867">
        <ele>451.8</ele>
        <time>2026-05-13T13:39:06Z</time>
      </trkpt>
      <trkpt lat="47.32249" lon="6.82875">
        <ele>452</ele>
        <time>2026-05-13T13:39:08Z</time>
      </trkpt>
      <trkpt lat="47.32264" lon="6.82909">
        <ele>452.8</ele>
        <time>2026-05-13T13:39:16Z</time>
      </trkpt>
      <trkpt lat="47.32271" lon="6.82923">
        <ele>453.2</ele>
        <time>2026-05-13T13:39:19Z</time>
      </trkpt>
      <trkpt lat="47.32277" lon="6.82937">
        <ele>453.4</ele>
        <time>2026-05-13T13:39:22Z</time>
      </trkpt>
      <trkpt lat="47.32298" lon="6.82977">
        <ele>454</ele>
        <time>2026-05-13T13:39:30Z</time>
      </trkpt>
      <trkpt lat="47.32321" lon="6.83013">
        <ele>453.6</ele>
        <time>2026-05-13T13:39:37Z</time>
      </trkpt>
      <trkpt lat="47.32345" lon="6.83037">
        <ele>453.6</ele>
        <time>2026-05-13T13:39:42Z</time>
      </trkpt>
      <trkpt lat="47.32353" lon="6.83052">
        <ele>453.4</ele>
        <time>2026-05-13T13:39:44Z</time>
      </trkpt>
      <trkpt lat="47.32359" lon="6.83068">
        <ele>453</ele>
        <time>2026-05-13T13:39:46Z</time>
      </trkpt>
      <trkpt lat="47.32373" lon="6.83114">
        <ele>452.4</ele>
        <time>2026-05-13T13:39:51Z</time>
      </trkpt>
      <trkpt lat="47.32375" lon="6.83123">
        <ele>452.2</ele>
        <time>2026-05-13T13:39:52Z</time>
      </trkpt>
      <trkpt lat="47.32378" lon="6.83132">
        <ele>452.2</ele>
        <time>2026-05-13T13:39:53Z</time>
      </trkpt>
      <trkpt lat="47.32386" lon="6.8316">
        <ele>452</ele>
        <time>2026-05-13T13:39:56Z</time>
      </trkpt>
      <trkpt lat="47.32398" lon="6.83195">
        <ele>451.6</ele>
        <time>2026-05-13T13:40:00Z</time>
      </trkpt>
      <trkpt lat="47.32402" lon="6.83202">
        <ele>451.6</ele>
        <time>2026-05-13T13:40:01Z</time>
      </trkpt>
      <trkpt lat="47.32423" lon="6.8323">
        <ele>451.2</ele>
        <time>2026-05-13T13:40:05Z</time>
      </trkpt>
      <trkpt lat="47.32434" lon="6.83243">
        <ele>451</ele>
        <time>2026-05-13T13:40:07Z</time>
      </trkpt>
      <trkpt lat="47.32455" lon="6.83265">
        <ele>450.4</ele>
        <time>2026-05-13T13:40:11Z</time>
      </trkpt>
      <trkpt lat="47.3246" lon="6.83272">
        <ele>450.4</ele>
        <time>2026-05-13T13:40:12Z</time>
      </trkpt>
      <trkpt lat="47.32463" lon="6.83281">
        <ele>450.4</ele>
        <time>2026-05-13T13:40:13Z</time>
      </trkpt>
      <trkpt lat="47.32467" lon="6.83289">
        <ele>450.2</ele>
        <time>2026-05-13T13:40:14Z</time>
      </trkpt>
      <trkpt lat="47.3247" lon="6.83299">
        <ele>450</ele>
        <time>2026-05-13T13:40:15Z</time>
      </trkpt>
      <trkpt lat="47.3247" lon="6.8331">
        <ele>450</ele>
        <time>2026-05-13T13:40:16Z</time>
      </trkpt>
      <trkpt lat="47.32467" lon="6.83333">
        <ele>449.8</ele>
        <time>2026-05-13T13:40:18Z</time>
      </trkpt>
      <trkpt lat="47.3247" lon="6.83366">
        <ele>449.2</ele>
        <time>2026-05-13T13:40:21Z</time>
      </trkpt>
      <trkpt lat="47.3247" lon="6.83377">
        <ele>449</ele>
        <time>2026-05-13T13:40:22Z</time>
      </trkpt>
      <trkpt lat="47.32468" lon="6.83399">
        <ele>448.6</ele>
        <time>2026-05-13T13:40:24Z</time>
      </trkpt>
      <trkpt lat="47.32469" lon="6.83432">
        <ele>448.4</ele>
        <time>2026-05-13T13:40:27Z</time>
      </trkpt>
      <trkpt lat="47.3247" lon="6.83452">
        <ele>448</ele>
        <time>2026-05-13T13:40:29Z</time>
      </trkpt>
      <trkpt lat="47.32471" lon="6.8348">
        <ele>447.6</ele>
        <time>2026-05-13T13:40:32Z</time>
      </trkpt>
      <trkpt lat="47.32473" lon="6.83499">
        <ele>447.4</ele>
        <time>2026-05-13T13:40:34Z</time>
      </trkpt>
      <trkpt lat="47.32474" lon="6.83519">
        <ele>447</ele>
        <time>2026-05-13T13:40:36Z</time>
      </trkpt>
      <trkpt lat="47.32474" lon="6.83529">
        <ele>447</ele>
        <time>2026-05-13T13:40:37Z</time>
      </trkpt>
      <trkpt lat="47.32473" lon="6.83549">
        <ele>446.6</ele>
        <time>2026-05-13T13:40:39Z</time>
      </trkpt>
      <trkpt lat="47.32471" lon="6.83569">
        <ele>446</ele>
        <time>2026-05-13T13:40:41Z</time>
      </trkpt>
      <trkpt lat="47.32471" lon="6.8359">
        <ele>445.6</ele>
        <time>2026-05-13T13:40:43Z</time>
      </trkpt>
      <trkpt lat="47.32471" lon="6.83631">
        <ele>445.2</ele>
        <time>2026-05-13T13:40:47Z</time>
      </trkpt>
      <trkpt lat="47.3247" lon="6.83642">
        <ele>445.2</ele>
        <time>2026-05-13T13:40:48Z</time>
      </trkpt>
      <trkpt lat="47.32463" lon="6.83684">
        <ele>444.8</ele>
        <time>2026-05-13T13:40:52Z</time>
      </trkpt>
      <trkpt lat="47.32456" lon="6.83724">
        <ele>444.8</ele>
        <time>2026-05-13T13:40:56Z</time>
      </trkpt>
      <trkpt lat="47.32455" lon="6.83734">
        <ele>444.6</ele>
        <time>2026-05-13T13:40:57Z</time>
      </trkpt>
      <trkpt lat="47.32455" lon="6.83744">
        <ele>444.6</ele>
        <time>2026-05-13T13:40:58Z</time>
      </trkpt>
      <trkpt lat="47.32456" lon="6.83799">
        <ele>443.8</ele>
        <time>2026-05-13T13:41:03Z</time>
      </trkpt>
      <trkpt lat="47.32456" lon="6.83823">
        <ele>443</ele>
        <time>2026-05-13T13:41:05Z</time>
      </trkpt>
      <trkpt lat="47.32456" lon="6.83832">
        <ele>442.8</ele>
        <time>2026-05-13T13:41:06Z</time>
      </trkpt>
      <trkpt lat="47.32458" lon="6.83877">
        <ele>441.4</ele>
        <time>2026-05-13T13:41:10Z</time>
      </trkpt>
      <trkpt lat="47.32457" lon="6.839">
        <ele>440.6</ele>
        <time>2026-05-13T13:41:12Z</time>
      </trkpt>
      <trkpt lat="47.32453" lon="6.83921">
        <ele>440.2</ele>
        <time>2026-05-13T13:41:14Z</time>
      </trkpt>
      <trkpt lat="47.32446" lon="6.83942">
        <ele>439.6</ele>
        <time>2026-05-13T13:41:16Z</time>
      </trkpt>
      <trkpt lat="47.32434" lon="6.83972">
        <ele>438.8</ele>
        <time>2026-05-13T13:41:19Z</time>
      </trkpt>
      <trkpt lat="47.32426" lon="6.84004">
        <ele>438.4</ele>
        <time>2026-05-13T13:41:22Z</time>
      </trkpt>
      <trkpt lat="47.32424" lon="6.84016">
        <ele>438.4</ele>
        <time>2026-05-13T13:41:23Z</time>
      </trkpt>
      <trkpt lat="47.32423" lon="6.84028">
        <ele>438</ele>
        <time>2026-05-13T13:41:24Z</time>
      </trkpt>
      <trkpt lat="47.32423" lon="6.84053">
        <ele>437.4</ele>
        <time>2026-05-13T13:41:26Z</time>
      </trkpt>
      <trkpt lat="47.32426" lon="6.84079">
        <ele>437</ele>
        <time>2026-05-13T13:41:28Z</time>
      </trkpt>
      <trkpt lat="47.32427" lon="6.8409">
        <ele>436.6</ele>
        <time>2026-05-13T13:41:29Z</time>
      </trkpt>
      <trkpt lat="47.32428" lon="6.84103">
        <ele>436.6</ele>
        <time>2026-05-13T13:41:30Z</time>
      </trkpt>
      <trkpt lat="47.32427" lon="6.84126">
        <ele>436.2</ele>
        <time>2026-05-13T13:41:32Z</time>
      </trkpt>
      <trkpt lat="47.32422" lon="6.84163">
        <ele>435.8</ele>
        <time>2026-05-13T13:41:35Z</time>
      </trkpt>
      <trkpt lat="47.3242" lon="6.84175">
        <ele>435.6</ele>
        <time>2026-05-13T13:41:36Z</time>
      </trkpt>
      <trkpt lat="47.32417" lon="6.84187">
        <ele>435.4</ele>
        <time>2026-05-13T13:41:37Z</time>
      </trkpt>
      <trkpt lat="47.32409" lon="6.84233">
        <ele>434.2</ele>
        <time>2026-05-13T13:41:41Z</time>
      </trkpt>
      <trkpt lat="47.32406" lon="6.84259">
        <ele>434</ele>
        <time>2026-05-13T13:41:43Z</time>
      </trkpt>
      <trkpt lat="47.32405" lon="6.84271">
        <ele>433.8</ele>
        <time>2026-05-13T13:41:44Z</time>
      </trkpt>
      <trkpt lat="47.32401" lon="6.84298">
        <ele>433.2</ele>
        <time>2026-05-13T13:41:46Z</time>
      </trkpt>
      <trkpt lat="47.32398" lon="6.84311">
        <ele>433</ele>
        <time>2026-05-13T13:41:47Z</time>
      </trkpt>
      <trkpt lat="47.32383" lon="6.84387">
        <ele>431.6</ele>
        <time>2026-05-13T13:41:53Z</time>
      </trkpt>
      <trkpt lat="47.3238" lon="6.844">
        <ele>431.6</ele>
        <time>2026-05-13T13:41:54Z</time>
      </trkpt>
      <trkpt lat="47.32368" lon="6.84447">
        <ele>430.6</ele>
        <time>2026-05-13T13:41:58Z</time>
      </trkpt>
      <trkpt lat="47.32363" lon="6.84458">
        <ele>430.4</ele>
        <time>2026-05-13T13:41:59Z</time>
      </trkpt>
      <trkpt lat="47.32351" lon="6.8448">
        <ele>430</ele>
        <time>2026-05-13T13:42:01Z</time>
      </trkpt>
      <trkpt lat="47.32337" lon="6.845">
        <ele>429.8</ele>
        <time>2026-05-13T13:42:03Z</time>
      </trkpt>
      <trkpt lat="47.3233" lon="6.84509">
        <ele>429.4</ele>
        <time>2026-05-13T13:42:04Z</time>
      </trkpt>
      <trkpt lat="47.32323" lon="6.84517">
        <ele>429</ele>
        <time>2026-05-13T13:42:05Z</time>
      </trkpt>
      <trkpt lat="47.32312" lon="6.84536">
        <ele>428.2</ele>
        <time>2026-05-13T13:42:07Z</time>
      </trkpt>
      <trkpt lat="47.32302" lon="6.84559">
        <ele>427.6</ele>
        <time>2026-05-13T13:42:09Z</time>
      </trkpt>
      <trkpt lat="47.32293" lon="6.8458">
        <ele>427.2</ele>
        <time>2026-05-13T13:42:11Z</time>
      </trkpt>
      <trkpt lat="47.32287" lon="6.84603">
        <ele>426.8</ele>
        <time>2026-05-13T13:42:13Z</time>
      </trkpt>
      <trkpt lat="47.32285" lon="6.84615">
        <ele>426.6</ele>
        <time>2026-05-13T13:42:14Z</time>
      </trkpt>
      <trkpt lat="47.32284" lon="6.84627">
        <ele>426.4</ele>
        <time>2026-05-13T13:42:15Z</time>
      </trkpt>
      <trkpt lat="47.32284" lon="6.84639">
        <ele>426.2</ele>
        <time>2026-05-13T13:42:16Z</time>
      </trkpt>
      <trkpt lat="47.32283" lon="6.84675">
        <ele>425.6</ele>
        <time>2026-05-13T13:42:19Z</time>
      </trkpt>
      <trkpt lat="47.32281" lon="6.84698">
        <ele>425.2</ele>
        <time>2026-05-13T13:42:21Z</time>
      </trkpt>
      <trkpt lat="47.32273" lon="6.84733">
        <ele>424.6</ele>
        <time>2026-05-13T13:42:24Z</time>
      </trkpt>
      <trkpt lat="47.32263" lon="6.84765">
        <ele>424</ele>
        <time>2026-05-13T13:42:27Z</time>
      </trkpt>
      <trkpt lat="47.3225" lon="6.84809">
        <ele>423.2</ele>
        <time>2026-05-13T13:42:31Z</time>
      </trkpt>
      <trkpt lat="47.32246" lon="6.8482">
        <ele>423</ele>
        <time>2026-05-13T13:42:32Z</time>
      </trkpt>
      <trkpt lat="47.32243" lon="6.84831">
        <ele>422.8</ele>
        <time>2026-05-13T13:42:33Z</time>
      </trkpt>
      <trkpt lat="47.32232" lon="6.8485">
        <ele>422.2</ele>
        <time>2026-05-13T13:42:35Z</time>
      </trkpt>
      <trkpt lat="47.32225" lon="6.84856">
        <ele>422</ele>
        <time>2026-05-13T13:42:36Z</time>
      </trkpt>
      <trkpt lat="47.32218" lon="6.84861">
        <ele>421.8</ele>
        <time>2026-05-13T13:42:37Z</time>
      </trkpt>
      <trkpt lat="47.32211" lon="6.84865">
        <ele>421.6</ele>
        <time>2026-05-13T13:42:38Z</time>
      </trkpt>
      <trkpt lat="47.32189" lon="6.84881">
        <ele>421</ele>
        <time>2026-05-13T13:42:41Z</time>
      </trkpt>
      <trkpt lat="47.32182" lon="6.84888">
        <ele>420.8</ele>
        <time>2026-05-13T13:42:42Z</time>
      </trkpt>
      <trkpt lat="47.32177" lon="6.84897">
        <ele>420.8</ele>
        <time>2026-05-13T13:42:43Z</time>
      </trkpt>
      <trkpt lat="47.32168" lon="6.8492">
        <ele>420.6</ele>
        <time>2026-05-13T13:42:45Z</time>
      </trkpt>
      <trkpt lat="47.32166" lon="6.84932">
        <ele>420.2</ele>
        <time>2026-05-13T13:42:46Z</time>
      </trkpt>
      <trkpt lat="47.32161" lon="6.84968">
        <ele>419.8</ele>
        <time>2026-05-13T13:42:49Z</time>
      </trkpt>
      <trkpt lat="47.32157" lon="6.84991">
        <ele>419.4</ele>
        <time>2026-05-13T13:42:51Z</time>
      </trkpt>
      <trkpt lat="47.32156" lon="6.85037">
        <ele>418.8</ele>
        <time>2026-05-13T13:42:55Z</time>
      </trkpt>
      <trkpt lat="47.32156" lon="6.85048">
        <ele>418.8</ele>
        <time>2026-05-13T13:42:56Z</time>
      </trkpt>
      <trkpt lat="47.3216" lon="6.85077">
        <ele>418.6</ele>
        <time>2026-05-13T13:42:59Z</time>
      </trkpt>
      <trkpt lat="47.32162" lon="6.85086">
        <ele>418.4</ele>
        <time>2026-05-13T13:43:00Z</time>
      </trkpt>
      <trkpt lat="47.32164" lon="6.85094">
        <ele>418.4</ele>
        <time>2026-05-13T13:43:01Z</time>
      </trkpt>
      <trkpt lat="47.32168" lon="6.85119">
        <ele>418.4</ele>
        <time>2026-05-13T13:43:04Z</time>
      </trkpt>
      <trkpt lat="47.3217" lon="6.85128">
        <ele>418.4</ele>
        <time>2026-05-13T13:43:05Z</time>
      </trkpt>
      <trkpt lat="47.32181" lon="6.85158">
        <ele>418.6</ele>
        <time>2026-05-13T13:43:09Z</time>
      </trkpt>
      <trkpt lat="47.32187" lon="6.85172">
        <ele>419</ele>
        <time>2026-05-13T13:43:11Z</time>
      </trkpt>
      <trkpt lat="47.32203" lon="6.85207">
        <ele>419.4</ele>
        <time>2026-05-13T13:43:16Z</time>
      </trkpt>
      <trkpt lat="47.32232" lon="6.85249">
        <ele>420</ele>
        <time>2026-05-13T13:43:23Z</time>
      </trkpt>
      <trkpt lat="47.32245" lon="6.85267">
        <ele>420</ele>
        <time>2026-05-13T13:43:26Z</time>
      </trkpt>
      <trkpt lat="47.32274" lon="6.85311">
        <ele>419.6</ele>
        <time>2026-05-13T13:43:33Z</time>
      </trkpt>
      <trkpt lat="47.32309" lon="6.85373">
        <ele>419.2</ele>
        <time>2026-05-13T13:43:42Z</time>
      </trkpt>
      <trkpt lat="47.32313" lon="6.8538">
        <ele>419.2</ele>
        <time>2026-05-13T13:43:43Z</time>
      </trkpt>
      <trkpt lat="47.32344" lon="6.85441">
        <ele>420</ele>
        <time>2026-05-13T13:43:52Z</time>
      </trkpt>
      <trkpt lat="47.3237" lon="6.85511">
        <ele>420.4</ele>
        <time>2026-05-13T13:44:01Z</time>
      </trkpt>
      <trkpt lat="47.32391" lon="6.85575">
        <ele>420.4</ele>
        <time>2026-05-13T13:44:09Z</time>
      </trkpt>
      <trkpt lat="47.32403" lon="6.85607">
        <ele>420</ele>
        <time>2026-05-13T13:44:13Z</time>
      </trkpt>
      <trkpt lat="47.32433" lon="6.8567">
        <ele>420</ele>
        <time>2026-05-13T13:44:21Z</time>
      </trkpt>
      <trkpt lat="47.32442" lon="6.85685">
        <ele>420</ele>
        <time>2026-05-13T13:44:23Z</time>
      </trkpt>
      <trkpt lat="47.32454" lon="6.85706">
        <ele>420</ele>
        <time>2026-05-13T13:44:26Z</time>
      </trkpt>
      <trkpt lat="47.32492" lon="6.85766">
        <ele>420</ele>
        <time>2026-05-13T13:44:35Z</time>
      </trkpt>
      <trkpt lat="47.32528" lon="6.85826">
        <ele>420.6</ele>
        <time>2026-05-13T13:44:44Z</time>
      </trkpt>
      <trkpt lat="47.32536" lon="6.85839">
        <ele>420.8</ele>
        <time>2026-05-13T13:44:46Z</time>
      </trkpt>
      <trkpt lat="47.32569" lon="6.85887">
        <ele>420.8</ele>
        <time>2026-05-13T13:44:54Z</time>
      </trkpt>
      <trkpt lat="47.32572" lon="6.85893">
        <ele>420.8</ele>
        <time>2026-05-13T13:44:55Z</time>
      </trkpt>
      <trkpt lat="47.32578" lon="6.85908">
        <ele>420.6</ele>
        <time>2026-05-13T13:44:57Z</time>
      </trkpt>
      <trkpt lat="47.3258" lon="6.85916">
        <ele>420.4</ele>
        <time>2026-05-13T13:44:58Z</time>
      </trkpt>
      <trkpt lat="47.32591" lon="6.85961">
        <ele>419.8</ele>
        <time>2026-05-13T13:45:03Z</time>
      </trkpt>
      <trkpt lat="47.32592" lon="6.85971">
        <ele>419.6</ele>
        <time>2026-05-13T13:45:04Z</time>
      </trkpt>
      <trkpt lat="47.32592" lon="6.85982">
        <ele>419.6</ele>
        <time>2026-05-13T13:45:05Z</time>
      </trkpt>
      <trkpt lat="47.3259" lon="6.8601">
        <ele>419.2</ele>
        <time>2026-05-13T13:45:08Z</time>
      </trkpt>
      <trkpt lat="47.32588" lon="6.86021">
        <ele>419.2</ele>
        <time>2026-05-13T13:45:09Z</time>
      </trkpt>
      <trkpt lat="47.32577" lon="6.86054">
        <ele>419</ele>
        <time>2026-05-13T13:45:13Z</time>
      </trkpt>
      <trkpt lat="47.3255" lon="6.86123">
        <ele>419.2</ele>
        <time>2026-05-13T13:45:21Z</time>
      </trkpt>
      <trkpt lat="47.32543" lon="6.8614">
        <ele>419.2</ele>
        <time>2026-05-13T13:45:23Z</time>
      </trkpt>
      <trkpt lat="47.32517" lon="6.86218">
        <ele>419.6</ele>
        <time>2026-05-13T13:45:32Z</time>
      </trkpt>
      <trkpt lat="47.32514" lon="6.86227">
        <ele>419.6</ele>
        <time>2026-05-13T13:45:33Z</time>
      </trkpt>
      <trkpt lat="47.32499" lon="6.86299">
        <ele>420.2</ele>
        <time>2026-05-13T13:45:41Z</time>
      </trkpt>
      <trkpt lat="47.32487" lon="6.86376">
        <ele>420.4</ele>
        <time>2026-05-13T13:45:49Z</time>
      </trkpt>
      <trkpt lat="47.3248" lon="6.86422">
        <ele>421.2</ele>
        <time>2026-05-13T13:45:54Z</time>
      </trkpt>
      <trkpt lat="47.32478" lon="6.86433">
        <ele>421.4</ele>
        <time>2026-05-13T13:45:55Z</time>
      </trkpt>
      <trkpt lat="47.32472" lon="6.86468">
        <ele>422</ele>
        <time>2026-05-13T13:45:59Z</time>
      </trkpt>
      <trkpt lat="47.3247" lon="6.86478">
        <ele>422.2</ele>
        <time>2026-05-13T13:46:00Z</time>
      </trkpt>
      <trkpt lat="47.32468" lon="6.86486">
        <ele>422.4</ele>
        <time>2026-05-13T13:46:01Z</time>
      </trkpt>
      <trkpt lat="47.32459" lon="6.86533">
        <ele>423.2</ele>
        <time>2026-05-13T13:46:07Z</time>
      </trkpt>
      <trkpt lat="47.32446" lon="6.86578">
        <ele>424</ele>
        <time>2026-05-13T13:46:13Z</time>
      </trkpt>
      <trkpt lat="47.32444" lon="6.86587">
        <ele>424</ele>
        <time>2026-05-13T13:46:14Z</time>
      </trkpt>
      <trkpt lat="47.32435" lon="6.86623">
        <ele>424.4</ele>
        <time>2026-05-13T13:46:19Z</time>
      </trkpt>
      <trkpt lat="47.32433" lon="6.86631">
        <ele>424.4</ele>
        <time>2026-05-13T13:46:20Z</time>
      </trkpt>
      <trkpt lat="47.32425" lon="6.86686">
        <ele>424.8</ele>
        <time>2026-05-13T13:46:27Z</time>
      </trkpt>
      <trkpt lat="47.32425" lon="6.86692">
        <ele>424.8</ele>
        <time>2026-05-13T13:46:28Z</time>
      </trkpt>
      <trkpt lat="47.32426" lon="6.8672">
        <ele>425.2</ele>
        <time>2026-05-13T13:46:32Z</time>
      </trkpt>
      <trkpt lat="47.32428" lon="6.86742">
        <ele>425.4</ele>
        <time>2026-05-13T13:46:35Z</time>
      </trkpt>
      <trkpt lat="47.32431" lon="6.86765">
        <ele>425.8</ele>
        <time>2026-05-13T13:46:38Z</time>
      </trkpt>
      <trkpt lat="47.32436" lon="6.86794">
        <ele>426.2</ele>
        <time>2026-05-13T13:46:42Z</time>
      </trkpt>
      <trkpt lat="47.32447" lon="6.86854">
        <ele>426.8</ele>
        <time>2026-05-13T13:46:50Z</time>
      </trkpt>
      <trkpt lat="47.32459" lon="6.86918">
        <ele>427</ele>
        <time>2026-05-13T13:46:58Z</time>
      </trkpt>
      <trkpt lat="47.32473" lon="6.86977">
        <ele>426.2</ele>
        <time>2026-05-13T13:47:05Z</time>
      </trkpt>
      <trkpt lat="47.32487" lon="6.87048">
        <ele>426</ele>
        <time>2026-05-13T13:47:14Z</time>
      </trkpt>
      <trkpt lat="47.32496" lon="6.8709">
        <ele>426.6</ele>
        <time>2026-05-13T13:47:20Z</time>
      </trkpt>
      <trkpt lat="47.32499" lon="6.87105">
        <ele>426.8</ele>
        <time>2026-05-13T13:47:22Z</time>
      </trkpt>
      <trkpt lat="47.32502" lon="6.87117">
        <ele>427</ele>
        <time>2026-05-13T13:47:24Z</time>
      </trkpt>
      <trkpt lat="47.32507" lon="6.87132">
        <ele>427.2</ele>
        <time>2026-05-13T13:47:26Z</time>
      </trkpt>
      <trkpt lat="47.32509" lon="6.87138">
        <ele>427.2</ele>
        <time>2026-05-13T13:47:27Z</time>
      </trkpt>
      <trkpt lat="47.32524" lon="6.87168">
        <ele>427.8</ele>
        <time>2026-05-13T13:47:32Z</time>
      </trkpt>
      <trkpt lat="47.32538" lon="6.87192">
        <ele>428</ele>
        <time>2026-05-13T13:47:36Z</time>
      </trkpt>
      <trkpt lat="47.32549" lon="6.8721">
        <ele>428</ele>
        <time>2026-05-13T13:47:39Z</time>
      </trkpt>
      <trkpt lat="47.32558" lon="6.87221">
        <ele>428</ele>
        <time>2026-05-13T13:47:41Z</time>
      </trkpt>
      <trkpt lat="47.32573" lon="6.87234">
        <ele>428</ele>
        <time>2026-05-13T13:47:44Z</time>
      </trkpt>
      <trkpt lat="47.32592" lon="6.8724">
        <ele>428</ele>
        <time>2026-05-13T13:47:47Z</time>
      </trkpt>
      <trkpt lat="47.32598" lon="6.87239">
        <ele>427.8</ele>
        <time>2026-05-13T13:47:48Z</time>
      </trkpt>
      <trkpt lat="47.32629" lon="6.87232">
        <ele>427.4</ele>
        <time>2026-05-13T13:47:53Z</time>
      </trkpt>
      <trkpt lat="47.32635" lon="6.87233">
        <ele>427.4</ele>
        <time>2026-05-13T13:47:54Z</time>
      </trkpt>
      <trkpt lat="47.32642" lon="6.87234">
        <ele>427.2</ele>
        <time>2026-05-13T13:47:55Z</time>
      </trkpt>
      <trkpt lat="47.32655" lon="6.87239">
        <ele>427</ele>
        <time>2026-05-13T13:47:57Z</time>
      </trkpt>
      <trkpt lat="47.32668" lon="6.87246">
        <ele>426.8</ele>
        <time>2026-05-13T13:47:59Z</time>
      </trkpt>
      <trkpt lat="47.32686" lon="6.87257">
        <ele>426.2</ele>
        <time>2026-05-13T13:48:02Z</time>
      </trkpt>
      <trkpt lat="47.32699" lon="6.87262">
        <ele>426</ele>
        <time>2026-05-13T13:48:04Z</time>
      </trkpt>
      <trkpt lat="47.32705" lon="6.87263">
        <ele>426</ele>
        <time>2026-05-13T13:48:05Z</time>
      </trkpt>
      <trkpt lat="47.32737" lon="6.8727">
        <ele>425.4</ele>
        <time>2026-05-13T13:48:10Z</time>
      </trkpt>
      <trkpt lat="47.32777" lon="6.87279">
        <ele>425</ele>
        <time>2026-05-13T13:48:17Z</time>
      </trkpt>
      <trkpt lat="47.32783" lon="6.87278">
        <ele>424.8</ele>
        <time>2026-05-13T13:48:18Z</time>
      </trkpt>
      <trkpt lat="47.32795" lon="6.87277">
        <ele>424.6</ele>
        <time>2026-05-13T13:48:20Z</time>
      </trkpt>
      <trkpt lat="47.328" lon="6.87276">
        <ele>424.6</ele>
        <time>2026-05-13T13:48:21Z</time>
      </trkpt>
      <trkpt lat="47.32816" lon="6.8727">
        <ele>423.8</ele>
        <time>2026-05-13T13:48:24Z</time>
      </trkpt>
      <trkpt lat="47.32821" lon="6.87267">
        <ele>423.8</ele>
        <time>2026-05-13T13:48:25Z</time>
      </trkpt>
      <trkpt lat="47.32826" lon="6.87263">
        <ele>423.6</ele>
        <time>2026-05-13T13:48:26Z</time>
      </trkpt>
      <trkpt lat="47.32858" lon="6.8724">
        <ele>423.4</ele>
        <time>2026-05-13T13:48:33Z</time>
      </trkpt>
      <trkpt lat="47.32867" lon="6.87234">
        <ele>423.4</ele>
        <time>2026-05-13T13:48:35Z</time>
      </trkpt>
      <trkpt lat="47.32887" lon="6.87219">
        <ele>423</ele>
        <time>2026-05-13T13:48:39Z</time>
      </trkpt>
      <trkpt lat="47.32918" lon="6.87191">
        <ele>423</ele>
        <time>2026-05-13T13:48:46Z</time>
      </trkpt>
      <trkpt lat="47.32947" lon="6.87162">
        <ele>423.2</ele>
        <time>2026-05-13T13:48:52Z</time>
      </trkpt>
      <trkpt lat="47.32959" lon="6.87151">
        <ele>423.6</ele>
        <time>2026-05-13T13:48:55Z</time>
      </trkpt>
      <trkpt lat="47.32976" lon="6.87137">
        <ele>423.8</ele>
        <time>2026-05-13T13:48:59Z</time>
      </trkpt>
      <trkpt lat="47.32985" lon="6.87131">
        <ele>424</ele>
        <time>2026-05-13T13:49:01Z</time>
      </trkpt>
      <trkpt lat="47.32997" lon="6.8712">
        <ele>424.2</ele>
        <time>2026-05-13T13:49:04Z</time>
      </trkpt>
      <trkpt lat="47.33005" lon="6.87111">
        <ele>424.2</ele>
        <time>2026-05-13T13:49:06Z</time>
      </trkpt>
      <trkpt lat="47.33012" lon="6.87099">
        <ele>424</ele>
        <time>2026-05-13T13:49:09Z</time>
      </trkpt>
      <trkpt lat="47.33042" lon="6.87066">
        <ele>423.6</ele>
        <time>2026-05-13T13:49:15Z</time>
      </trkpt>
      <trkpt lat="47.33074" lon="6.87036">
        <ele>422.8</ele>
        <time>2026-05-13T13:49:22Z</time>
      </trkpt>
      <trkpt lat="47.331" lon="6.87012">
        <ele>422.4</ele>
        <time>2026-05-13T13:49:27Z</time>
      </trkpt>
      <trkpt lat="47.3311" lon="6.87005">
        <ele>422.4</ele>
        <time>2026-05-13T13:49:29Z</time>
      </trkpt>
      <trkpt lat="47.3314" lon="6.86979">
        <ele>422.2</ele>
        <time>2026-05-13T13:49:36Z</time>
      </trkpt>
      <trkpt lat="47.33159" lon="6.8696">
        <ele>422.2</ele>
        <time>2026-05-13T13:49:41Z</time>
      </trkpt>
      <trkpt lat="47.33182" lon="6.86935">
        <ele>423.2</ele>
        <time>2026-05-13T13:49:47Z</time>
      </trkpt>
      <trkpt lat="47.33186" lon="6.8693">
        <ele>423.4</ele>
        <time>2026-05-13T13:49:48Z</time>
      </trkpt>
      <trkpt lat="47.332" lon="6.86914">
        <ele>424.6</ele>
        <time>2026-05-13T13:49:52Z</time>
      </trkpt>
      <trkpt lat="47.33207" lon="6.86906">
        <ele>425.4</ele>
        <time>2026-05-13T13:49:54Z</time>
      </trkpt>
      <trkpt lat="47.33212" lon="6.86899">
        <ele>425.6</ele>
        <time>2026-05-13T13:49:56Z</time>
      </trkpt>
      <trkpt lat="47.33222" lon="6.86888">
        <ele>426.6</ele>
        <time>2026-05-13T13:49:59Z</time>
      </trkpt>
      <trkpt lat="47.33225" lon="6.86885">
        <ele>426.8</ele>
        <time>2026-05-13T13:50:00Z</time>
      </trkpt>
      <trkpt lat="47.33243" lon="6.86871">
        <ele>428</ele>
        <time>2026-05-13T13:50:05Z</time>
      </trkpt>
      <trkpt lat="47.33253" lon="6.86863">
        <ele>429.2</ele>
        <time>2026-05-13T13:50:08Z</time>
      </trkpt>
      <trkpt lat="47.33265" lon="6.86857">
        <ele>429.8</ele>
        <time>2026-05-13T13:50:11Z</time>
      </trkpt>
      <trkpt lat="47.33272" lon="6.86855">
        <ele>430.2</ele>
        <time>2026-05-13T13:50:13Z</time>
      </trkpt>
      <trkpt lat="47.33289" lon="6.86852">
        <ele>431.4</ele>
        <time>2026-05-13T13:50:18Z</time>
      </trkpt>
      <trkpt lat="47.33304" lon="6.86853">
        <ele>432.6</ele>
        <time>2026-05-13T13:50:22Z</time>
      </trkpt>
      <trkpt lat="47.33311" lon="6.86853">
        <ele>433</ele>
        <time>2026-05-13T13:50:24Z</time>
      </trkpt>
      <trkpt lat="47.33323" lon="6.86855">
        <ele>434</ele>
        <time>2026-05-13T13:50:27Z</time>
      </trkpt>
      <trkpt lat="47.33341" lon="6.86857">
        <ele>434.6</ele>
        <time>2026-05-13T13:50:32Z</time>
      </trkpt>
      <trkpt lat="47.33358" lon="6.86857">
        <ele>435.2</ele>
        <time>2026-05-13T13:50:36Z</time>
      </trkpt>
      <trkpt lat="47.33374" lon="6.86858">
        <ele>435.6</ele>
        <time>2026-05-13T13:50:40Z</time>
      </trkpt>
      <trkpt lat="47.33378" lon="6.86858">
        <ele>435.6</ele>
        <time>2026-05-13T13:50:41Z</time>
      </trkpt>
      <trkpt lat="47.33401" lon="6.86862">
        <ele>436.2</ele>
        <time>2026-05-13T13:50:47Z</time>
      </trkpt>
      <trkpt lat="47.33425" lon="6.86861">
        <ele>436.4</ele>
        <time>2026-05-13T13:50:52Z</time>
      </trkpt>
      <trkpt lat="47.33431" lon="6.8686">
        <ele>436.4</ele>
        <time>2026-05-13T13:50:53Z</time>
      </trkpt>
      <trkpt lat="47.33445" lon="6.86861">
        <ele>436.4</ele>
        <time>2026-05-13T13:50:56Z</time>
      </trkpt>
      <trkpt lat="47.33449" lon="6.86862">
        <ele>436.4</ele>
        <time>2026-05-13T13:50:57Z</time>
      </trkpt>
      <trkpt lat="47.33464" lon="6.86866">
        <ele>436.2</ele>
        <time>2026-05-13T13:51:00Z</time>
      </trkpt>
      <trkpt lat="47.33475" lon="6.86869">
        <ele>435.8</ele>
        <time>2026-05-13T13:51:02Z</time>
      </trkpt>
      <trkpt lat="47.33486" lon="6.86871">
        <ele>435.6</ele>
        <time>2026-05-13T13:51:04Z</time>
      </trkpt>
      <trkpt lat="47.33493" lon="6.86877">
        <ele>435.6</ele>
        <time>2026-05-13T13:51:06Z</time>
      </trkpt>
      <trkpt lat="47.33511" lon="6.8689">
        <ele>435.6</ele>
        <time>2026-05-13T13:51:10Z</time>
      </trkpt>
      <trkpt lat="47.33522" lon="6.86902">
        <ele>435.4</ele>
        <time>2026-05-13T13:51:13Z</time>
      </trkpt>
      <trkpt lat="47.33525" lon="6.86906">
        <ele>435.4</ele>
        <time>2026-05-13T13:51:14Z</time>
      </trkpt>
      <trkpt lat="47.3354" lon="6.86927">
        <ele>435.4</ele>
        <time>2026-05-13T13:51:19Z</time>
      </trkpt>
      <trkpt lat="47.33545" lon="6.86937">
        <ele>435.6</ele>
        <time>2026-05-13T13:51:21Z</time>
      </trkpt>
      <trkpt lat="47.33567" lon="6.86973">
        <ele>435.8</ele>
        <time>2026-05-13T13:51:28Z</time>
      </trkpt>
      <trkpt lat="47.33595" lon="6.87019">
        <ele>435.8</ele>
        <time>2026-05-13T13:51:37Z</time>
      </trkpt>
      <trkpt lat="47.33624" lon="6.87069">
        <ele>436.6</ele>
        <time>2026-05-13T13:51:47Z</time>
      </trkpt>
      <trkpt lat="47.3363" lon="6.87079">
        <ele>436.6</ele>
        <time>2026-05-13T13:51:49Z</time>
      </trkpt>
      <trkpt lat="47.33653" lon="6.87116">
        <ele>437</ele>
        <time>2026-05-13T13:51:56Z</time>
      </trkpt>
      <trkpt lat="47.33685" lon="6.87157">
        <ele>437</ele>
        <time>2026-05-13T13:52:05Z</time>
      </trkpt>
      <trkpt lat="47.33714" lon="6.87193">
        <ele>437.6</ele>
        <time>2026-05-13T13:52:13Z</time>
      </trkpt>
      <trkpt lat="47.33724" lon="6.87211">
        <ele>437.8</ele>
        <time>2026-05-13T13:52:16Z</time>
      </trkpt>
      <trkpt lat="47.33727" lon="6.87216">
        <ele>438</ele>
        <time>2026-05-13T13:52:17Z</time>
      </trkpt>
      <trkpt lat="47.33732" lon="6.87229">
        <ele>438.2</ele>
        <time>2026-05-13T13:52:19Z</time>
      </trkpt>
      <trkpt lat="47.33738" lon="6.87251">
        <ele>438.2</ele>
        <time>2026-05-13T13:52:22Z</time>
      </trkpt>
      <trkpt lat="47.33741" lon="6.87266">
        <ele>438.4</ele>
        <time>2026-05-13T13:52:24Z</time>
      </trkpt>
      <trkpt lat="47.33741" lon="6.87274">
        <ele>438.4</ele>
        <time>2026-05-13T13:52:25Z</time>
      </trkpt>
      <trkpt lat="47.33742" lon="6.87282">
        <ele>438.4</ele>
        <time>2026-05-13T13:52:26Z</time>
      </trkpt>
      <trkpt lat="47.33743" lon="6.87326">
        <ele>438.2</ele>
        <time>2026-05-13T13:52:31Z</time>
      </trkpt>
      <trkpt lat="47.33741" lon="6.87386">
        <ele>438.2</ele>
        <time>2026-05-13T13:52:38Z</time>
      </trkpt>
      <trkpt lat="47.33742" lon="6.87394">
        <ele>438.2</ele>
        <time>2026-05-13T13:52:39Z</time>
      </trkpt>
      <trkpt lat="47.3375" lon="6.87433">
        <ele>438.2</ele>
        <time>2026-05-13T13:52:44Z</time>
      </trkpt>
      <trkpt lat="47.33752" lon="6.8744">
        <ele>438.2</ele>
        <time>2026-05-13T13:52:45Z</time>
      </trkpt>
      <trkpt lat="47.33778" lon="6.87495">
        <ele>438</ele>
        <time>2026-05-13T13:52:53Z</time>
      </trkpt>
      <trkpt lat="47.33812" lon="6.87563">
        <ele>437.8</ele>
        <time>2026-05-13T13:53:03Z</time>
      </trkpt>
      <trkpt lat="47.33834" lon="6.87603">
        <ele>437.6</ele>
        <time>2026-05-13T13:53:09Z</time>
      </trkpt>
      <trkpt lat="47.3386" lon="6.87651">
        <ele>437.2</ele>
        <time>2026-05-13T13:53:15Z</time>
      </trkpt>
      <trkpt lat="47.33869" lon="6.87668">
        <ele>437</ele>
        <time>2026-05-13T13:53:17Z</time>
      </trkpt>
      <trkpt lat="47.33887" lon="6.87701">
        <ele>436.4</ele>
        <time>2026-05-13T13:53:21Z</time>
      </trkpt>
      <trkpt lat="47.33902" lon="6.87726">
        <ele>436</ele>
        <time>2026-05-13T13:53:24Z</time>
      </trkpt>
      <trkpt lat="47.33928" lon="6.87765">
        <ele>435.4</ele>
        <time>2026-05-13T13:53:29Z</time>
      </trkpt>
      <trkpt lat="47.33961" lon="6.8782">
        <ele>435.2</ele>
        <time>2026-05-13T13:53:36Z</time>
      </trkpt>
      <trkpt lat="47.33992" lon="6.87876">
        <ele>435.4</ele>
        <time>2026-05-13T13:53:43Z</time>
      </trkpt>
      <trkpt lat="47.34024" lon="6.87936">
        <ele>435.8</ele>
        <time>2026-05-13T13:53:51Z</time>
      </trkpt>
      <trkpt lat="47.34061" lon="6.88001">
        <ele>435.8</ele>
        <time>2026-05-13T13:54:00Z</time>
      </trkpt>
      <trkpt lat="47.34065" lon="6.88008">
        <ele>435.8</ele>
        <time>2026-05-13T13:54:01Z</time>
      </trkpt>
      <trkpt lat="47.34101" lon="6.88066">
        <ele>435.8</ele>
        <time>2026-05-13T13:54:09Z</time>
      </trkpt>
      <trkpt lat="47.34131" lon="6.88116">
        <ele>435.4</ele>
        <time>2026-05-13T13:54:16Z</time>
      </trkpt>
      <trkpt lat="47.34159" lon="6.8816">
        <ele>435.8</ele>
        <time>2026-05-13T13:54:23Z</time>
      </trkpt>
      <trkpt lat="47.34162" lon="6.88165">
        <ele>435.8</ele>
        <time>2026-05-13T13:54:24Z</time>
      </trkpt>
      <trkpt lat="47.34167" lon="6.88174">
        <ele>436</ele>
        <time>2026-05-13T13:54:26Z</time>
      </trkpt>
      <trkpt lat="47.34187" lon="6.88206">
        <ele>436.8</ele>
        <time>2026-05-13T13:54:32Z</time>
      </trkpt>
      <trkpt lat="47.34199" lon="6.88223">
        <ele>437.2</ele>
        <time>2026-05-13T13:54:35Z</time>
      </trkpt>
      <trkpt lat="47.34207" lon="6.88235">
        <ele>437.6</ele>
        <time>2026-05-13T13:54:37Z</time>
      </trkpt>
      <trkpt lat="47.34218" lon="6.88251">
        <ele>437.8</ele>
        <time>2026-05-13T13:54:40Z</time>
      </trkpt>
      <trkpt lat="47.3423" lon="6.88268">
        <ele>438.2</ele>
        <time>2026-05-13T13:54:43Z</time>
      </trkpt>
      <trkpt lat="47.34234" lon="6.88271">
        <ele>438.6</ele>
        <time>2026-05-13T13:54:44Z</time>
      </trkpt>
      <trkpt lat="47.34238" lon="6.88276">
        <ele>438.6</ele>
        <time>2026-05-13T13:54:45Z</time>
      </trkpt>
      <trkpt lat="47.34242" lon="6.8828">
        <ele>438.8</ele>
        <time>2026-05-13T13:54:46Z</time>
      </trkpt>
      <trkpt lat="47.34246" lon="6.88284">
        <ele>438.8</ele>
        <time>2026-05-13T13:54:47Z</time>
      </trkpt>
      <trkpt lat="47.34254" lon="6.88294">
        <ele>439</ele>
        <time>2026-05-13T13:54:49Z</time>
      </trkpt>
      <trkpt lat="47.34257" lon="6.883">
        <ele>439</ele>
        <time>2026-05-13T13:54:50Z</time>
      </trkpt>
      <trkpt lat="47.3426" lon="6.88307">
        <ele>439</ele>
        <time>2026-05-13T13:54:51Z</time>
      </trkpt>
      <trkpt lat="47.34264" lon="6.88319">
        <ele>439.4</ele>
        <time>2026-05-13T13:54:53Z</time>
      </trkpt>
      <trkpt lat="47.34265" lon="6.88326">
        <ele>439.6</ele>
        <time>2026-05-13T13:54:54Z</time>
      </trkpt>
      <trkpt lat="47.34272" lon="6.88344">
        <ele>440.4</ele>
        <time>2026-05-13T13:54:57Z</time>
      </trkpt>
      <trkpt lat="47.34277" lon="6.88362">
        <ele>440.6</ele>
        <time>2026-05-13T13:55:00Z</time>
      </trkpt>
      <trkpt lat="47.34279" lon="6.88368">
        <ele>440.8</ele>
        <time>2026-05-13T13:55:01Z</time>
      </trkpt>
      <trkpt lat="47.34281" lon="6.88374">
        <ele>441</ele>
        <time>2026-05-13T13:55:02Z</time>
      </trkpt>
      <trkpt lat="47.34283" lon="6.8838">
        <ele>441.2</ele>
        <time>2026-05-13T13:55:03Z</time>
      </trkpt>
      <trkpt lat="47.34287" lon="6.88392">
        <ele>441.6</ele>
        <time>2026-05-13T13:55:05Z</time>
      </trkpt>
      <trkpt lat="47.34293" lon="6.88409">
        <ele>442</ele>
        <time>2026-05-13T13:55:08Z</time>
      </trkpt>
      <trkpt lat="47.34295" lon="6.88413">
        <ele>442</ele>
        <time>2026-05-13T13:55:09Z</time>
      </trkpt>
      <trkpt lat="47.34303" lon="6.88428">
        <ele>442.6</ele>
        <time>2026-05-13T13:55:12Z</time>
      </trkpt>
      <trkpt lat="47.34306" lon="6.8844">
        <ele>443</ele>
        <time>2026-05-13T13:55:14Z</time>
      </trkpt>
      <trkpt lat="47.34308" lon="6.88446">
        <ele>443.4</ele>
        <time>2026-05-13T13:55:15Z</time>
      </trkpt>
      <trkpt lat="47.34317" lon="6.88468">
        <ele>444.2</ele>
        <time>2026-05-13T13:55:20Z</time>
      </trkpt>
      <trkpt lat="47.34326" lon="6.88494">
        <ele>445.2</ele>
        <time>2026-05-13T13:55:25Z</time>
      </trkpt>
      <trkpt lat="47.34328" lon="6.88499">
        <ele>445.2</ele>
        <time>2026-05-13T13:55:26Z</time>
      </trkpt>
      <trkpt lat="47.34333" lon="6.88509">
        <ele>445.6</ele>
        <time>2026-05-13T13:55:28Z</time>
      </trkpt>
      <trkpt lat="47.34334" lon="6.88515">
        <ele>445.8</ele>
        <time>2026-05-13T13:55:29Z</time>
      </trkpt>
      <trkpt lat="47.34335" lon="6.88538">
        <ele>446.2</ele>
        <time>2026-05-13T13:55:32Z</time>
      </trkpt>
      <trkpt lat="47.34337" lon="6.88559">
        <ele>446.8</ele>
        <time>2026-05-13T13:55:35Z</time>
      </trkpt>
      <trkpt lat="47.34346" lon="6.88613">
        <ele>447.2</ele>
        <time>2026-05-13T13:55:42Z</time>
      </trkpt>
      <trkpt lat="47.34361" lon="6.88667">
        <ele>447</ele>
        <time>2026-05-13T13:55:50Z</time>
      </trkpt>
      <trkpt lat="47.34372" lon="6.88708">
        <ele>447</ele>
        <time>2026-05-13T13:55:56Z</time>
      </trkpt>
      <trkpt lat="47.34375" lon="6.88738">
        <ele>447</ele>
        <time>2026-05-13T13:56:00Z</time>
      </trkpt>
      <trkpt lat="47.34375" lon="6.88745">
        <ele>447.2</ele>
        <time>2026-05-13T13:56:01Z</time>
      </trkpt>
      <trkpt lat="47.34375" lon="6.88753">
        <ele>447.2</ele>
        <time>2026-05-13T13:56:02Z</time>
      </trkpt>
      <trkpt lat="47.34375" lon="6.88769">
        <ele>447.2</ele>
        <time>2026-05-13T13:56:04Z</time>
      </trkpt>
      <trkpt lat="47.34376" lon="6.88776">
        <ele>447.4</ele>
        <time>2026-05-13T13:56:05Z</time>
      </trkpt>
      <trkpt lat="47.34376" lon="6.88782">
        <ele>447.4</ele>
        <time>2026-05-13T13:56:06Z</time>
      </trkpt>
      <trkpt lat="47.34375" lon="6.88791">
        <ele>447.4</ele>
        <time>2026-05-13T13:56:07Z</time>
      </trkpt>
      <trkpt lat="47.34375" lon="6.88801">
        <ele>447.6</ele>
        <time>2026-05-13T13:56:08Z</time>
      </trkpt>
      <trkpt lat="47.34377" lon="6.88825">
        <ele>447.6</ele>
        <time>2026-05-13T13:56:11Z</time>
      </trkpt>
      <trkpt lat="47.34386" lon="6.88884">
        <ele>447.8</ele>
        <time>2026-05-13T13:56:18Z</time>
      </trkpt>
      <trkpt lat="47.34395" lon="6.88962">
        <ele>447.2</ele>
        <time>2026-05-13T13:56:27Z</time>
      </trkpt>
      <trkpt lat="47.34396" lon="6.89012">
        <ele>446.4</ele>
        <time>2026-05-13T13:56:32Z</time>
      </trkpt>
      <trkpt lat="47.34396" lon="6.89022">
        <ele>446.2</ele>
        <time>2026-05-13T13:56:33Z</time>
      </trkpt>
      <trkpt lat="47.34396" lon="6.89033">
        <ele>446</ele>
        <time>2026-05-13T13:56:34Z</time>
      </trkpt>
      <trkpt lat="47.34397" lon="6.89066">
        <ele>444.8</ele>
        <time>2026-05-13T13:56:37Z</time>
      </trkpt>
      <trkpt lat="47.34397" lon="6.89101">
        <ele>443.4</ele>
        <time>2026-05-13T13:56:40Z</time>
      </trkpt>
      <trkpt lat="47.34397" lon="6.89123">
        <ele>443</ele>
        <time>2026-05-13T13:56:42Z</time>
      </trkpt>
      <trkpt lat="47.34394" lon="6.89173">
        <ele>442.8</ele>
        <time>2026-05-13T13:56:47Z</time>
      </trkpt>
      <trkpt lat="47.34392" lon="6.89182">
        <ele>442.8</ele>
        <time>2026-05-13T13:56:48Z</time>
      </trkpt>
      <trkpt lat="47.34385" lon="6.89229">
        <ele>444</ele>
        <time>2026-05-13T13:56:54Z</time>
      </trkpt>
      <trkpt lat="47.34382" lon="6.8925">
        <ele>444.4</ele>
        <time>2026-05-13T13:56:57Z</time>
      </trkpt>
      <trkpt lat="47.34378" lon="6.89269">
        <ele>445.2</ele>
        <time>2026-05-13T13:57:00Z</time>
      </trkpt>
      <trkpt lat="47.34376" lon="6.89275">
        <ele>445.6</ele>
        <time>2026-05-13T13:57:01Z</time>
      </trkpt>
      <trkpt lat="47.34375" lon="6.89281">
        <ele>445.8</ele>
        <time>2026-05-13T13:57:02Z</time>
      </trkpt>
      <trkpt lat="47.34372" lon="6.89298">
        <ele>446.2</ele>
        <time>2026-05-13T13:57:05Z</time>
      </trkpt>
      <trkpt lat="47.3437" lon="6.89303">
        <ele>446.6</ele>
        <time>2026-05-13T13:57:06Z</time>
      </trkpt>
      <trkpt lat="47.34363" lon="6.89332">
        <ele>447.8</ele>
        <time>2026-05-13T13:57:11Z</time>
      </trkpt>
      <trkpt lat="47.34356" lon="6.8936">
        <ele>449</ele>
        <time>2026-05-13T13:57:16Z</time>
      </trkpt>
      <trkpt lat="47.34354" lon="6.89366">
        <ele>449</ele>
        <time>2026-05-13T13:57:17Z</time>
      </trkpt>
      <trkpt lat="47.34338" lon="6.89411">
        <ele>450</ele>
        <time>2026-05-13T13:57:24Z</time>
      </trkpt>
      <trkpt lat="47.34336" lon="6.89418">
        <ele>450</ele>
        <time>2026-05-13T13:57:25Z</time>
      </trkpt>
      <trkpt lat="47.34333" lon="6.89448">
        <ele>450.2</ele>
        <time>2026-05-13T13:57:29Z</time>
      </trkpt>
      <trkpt lat="47.34333" lon="6.89456">
        <ele>450.2</ele>
        <time>2026-05-13T13:57:30Z</time>
      </trkpt>
      <trkpt lat="47.34338" lon="6.89508">
        <ele>450</ele>
        <time>2026-05-13T13:57:37Z</time>
      </trkpt>
      <trkpt lat="47.3434" lon="6.89524">
        <ele>450</ele>
        <time>2026-05-13T13:57:39Z</time>
      </trkpt>
      <trkpt lat="47.34343" lon="6.8954">
        <ele>450</ele>
        <time>2026-05-13T13:57:41Z</time>
      </trkpt>
      <trkpt lat="47.34346" lon="6.89556">
        <ele>450</ele>
        <time>2026-05-13T13:57:43Z</time>
      </trkpt>
      <trkpt lat="47.34355" lon="6.89611">
        <ele>450.4</ele>
        <time>2026-05-13T13:57:50Z</time>
      </trkpt>
      <trkpt lat="47.34368" lon="6.89678">
        <ele>450.6</ele>
        <time>2026-05-13T13:57:59Z</time>
      </trkpt>
      <trkpt lat="47.34387" lon="6.89756">
        <ele>450</ele>
        <time>2026-05-13T13:58:09Z</time>
      </trkpt>
      <trkpt lat="47.34388" lon="6.89764">
        <ele>450</ele>
        <time>2026-05-13T13:58:10Z</time>
      </trkpt>
      <trkpt lat="47.34402" lon="6.89816">
        <ele>449.2</ele>
        <time>2026-05-13T13:58:16Z</time>
      </trkpt>
      <trkpt lat="47.34404" lon="6.89824">
        <ele>449.2</ele>
        <time>2026-05-13T13:58:17Z</time>
      </trkpt>
      <trkpt lat="47.34421" lon="6.89883">
        <ele>448.4</ele>
        <time>2026-05-13T13:58:24Z</time>
      </trkpt>
      <trkpt lat="47.34445" lon="6.89936">
        <ele>448.6</ele>
        <time>2026-05-13T13:58:31Z</time>
      </trkpt>
      <trkpt lat="47.34472" lon="6.89983">
        <ele>448.6</ele>
        <time>2026-05-13T13:58:37Z</time>
      </trkpt>
      <trkpt lat="47.34478" lon="6.89991">
        <ele>448.4</ele>
        <time>2026-05-13T13:58:38Z</time>
      </trkpt>
      <trkpt lat="47.34483" lon="6.89999">
        <ele>448.2</ele>
        <time>2026-05-13T13:58:39Z</time>
      </trkpt>
      <trkpt lat="47.34498" lon="6.90025">
        <ele>447.2</ele>
        <time>2026-05-13T13:58:42Z</time>
      </trkpt>
      <trkpt lat="47.3452" lon="6.9006">
        <ele>446.2</ele>
        <time>2026-05-13T13:58:46Z</time>
      </trkpt>
      <trkpt lat="47.34554" lon="6.90115">
        <ele>445.2</ele>
        <time>2026-05-13T13:58:52Z</time>
      </trkpt>
      <trkpt lat="47.34583" lon="6.90165">
        <ele>444</ele>
        <time>2026-05-13T13:58:57Z</time>
      </trkpt>
      <trkpt lat="47.34589" lon="6.90174">
        <ele>443.8</ele>
        <time>2026-05-13T13:58:58Z</time>
      </trkpt>
      <trkpt lat="47.34613" lon="6.90216">
        <ele>443</ele>
        <time>2026-05-13T13:59:02Z</time>
      </trkpt>
      <trkpt lat="47.34629" lon="6.9025">
        <ele>442.2</ele>
        <time>2026-05-13T13:59:05Z</time>
      </trkpt>
      <trkpt lat="47.34638" lon="6.90273">
        <ele>441.8</ele>
        <time>2026-05-13T13:59:07Z</time>
      </trkpt>
      <trkpt lat="47.34652" lon="6.90316">
        <ele>441.4</ele>
        <time>2026-05-13T13:59:11Z</time>
      </trkpt>
      <trkpt lat="47.34659" lon="6.90362">
        <ele>441.4</ele>
        <time>2026-05-13T13:59:16Z</time>
      </trkpt>
      <trkpt lat="47.34668" lon="6.90412">
        <ele>442.4</ele>
        <time>2026-05-13T13:59:23Z</time>
      </trkpt>
      <trkpt lat="47.34672" lon="6.90432">
        <ele>443</ele>
        <time>2026-05-13T13:59:26Z</time>
      </trkpt>
      <trkpt lat="47.34677" lon="6.90461">
        <ele>443.6</ele>
        <time>2026-05-13T13:59:31Z</time>
      </trkpt>
      <trkpt lat="47.34678" lon="6.90466">
        <ele>443.8</ele>
        <time>2026-05-13T13:59:32Z</time>
      </trkpt>
      <trkpt lat="47.3468" lon="6.90484">
        <ele>444</ele>
        <time>2026-05-13T13:59:35Z</time>
      </trkpt>
      <trkpt lat="47.34684" lon="6.90513">
        <ele>444.8</ele>
        <time>2026-05-13T13:59:40Z</time>
      </trkpt>
      <trkpt lat="47.34684" lon="6.90519">
        <ele>445.2</ele>
        <time>2026-05-13T13:59:41Z</time>
      </trkpt>
      <trkpt lat="47.34682" lon="6.90552">
        <ele>446</ele>
        <time>2026-05-13T13:59:46Z</time>
      </trkpt>
      <trkpt lat="47.34681" lon="6.90573">
        <ele>446.4</ele>
        <time>2026-05-13T13:59:49Z</time>
      </trkpt>
      <trkpt lat="47.34677" lon="6.90608">
        <ele>446.8</ele>
        <time>2026-05-13T13:59:54Z</time>
      </trkpt>
      <trkpt lat="47.3467" lon="6.90658">
        <ele>446.8</ele>
        <time>2026-05-13T14:00:00Z</time>
      </trkpt>
      <trkpt lat="47.34665" lon="6.90711">
        <ele>446.4</ele>
        <time>2026-05-13T14:00:05Z</time>
      </trkpt>
      <trkpt lat="47.34665" lon="6.90746">
        <ele>445.4</ele>
        <time>2026-05-13T14:00:08Z</time>
      </trkpt>
      <trkpt lat="47.34667" lon="6.90769">
        <ele>445</ele>
        <time>2026-05-13T14:00:10Z</time>
      </trkpt>
      <trkpt lat="47.3467" lon="6.90803">
        <ele>444.4</ele>
        <time>2026-05-13T14:00:13Z</time>
      </trkpt>
      <trkpt lat="47.34676" lon="6.90871">
        <ele>443.2</ele>
        <time>2026-05-13T14:00:19Z</time>
      </trkpt>
      <trkpt lat="47.34674" lon="6.90917">
        <ele>443.2</ele>
        <time>2026-05-13T14:00:24Z</time>
      </trkpt>
      <trkpt lat="47.34666" lon="6.90973">
        <ele>444</ele>
        <time>2026-05-13T14:00:31Z</time>
      </trkpt>
      <trkpt lat="47.34661" lon="6.91006">
        <ele>444.4</ele>
        <time>2026-05-13T14:00:35Z</time>
      </trkpt>
      <trkpt lat="47.34656" lon="6.91034">
        <ele>444.4</ele>
        <time>2026-05-13T14:00:38Z</time>
      </trkpt>
      <trkpt lat="47.34649" lon="6.91093">
        <ele>444.4</ele>
        <time>2026-05-13T14:00:45Z</time>
      </trkpt>
      <trkpt lat="47.3465" lon="6.91137">
        <ele>445.4</ele>
        <time>2026-05-13T14:00:51Z</time>
      </trkpt>
      <trkpt lat="47.34652" lon="6.91151">
        <ele>445.6</ele>
        <time>2026-05-13T14:00:53Z</time>
      </trkpt>
      <trkpt lat="47.34659" lon="6.91191">
        <ele>446.2</ele>
        <time>2026-05-13T14:00:59Z</time>
      </trkpt>
      <trkpt lat="47.34671" lon="6.91248">
        <ele>447</ele>
        <time>2026-05-13T14:01:07Z</time>
      </trkpt>
      <trkpt lat="47.34673" lon="6.91256">
        <ele>447</ele>
        <time>2026-05-13T14:01:08Z</time>
      </trkpt>
      <trkpt lat="47.34686" lon="6.91313">
        <ele>447</ele>
        <time>2026-05-13T14:01:15Z</time>
      </trkpt>
      <trkpt lat="47.34703" lon="6.91389">
        <ele>446</ele>
        <time>2026-05-13T14:01:23Z</time>
      </trkpt>
      <trkpt lat="47.34705" lon="6.91399">
        <ele>445.8</ele>
        <time>2026-05-13T14:01:24Z</time>
      </trkpt>
      <trkpt lat="47.34716" lon="6.91444">
        <ele>444.8</ele>
        <time>2026-05-13T14:01:28Z</time>
      </trkpt>
      <trkpt lat="47.34724" lon="6.91482">
        <ele>443.8</ele>
        <time>2026-05-13T14:01:31Z</time>
      </trkpt>
      <trkpt lat="47.34732" lon="6.91523">
        <ele>443</ele>
        <time>2026-05-13T14:01:34Z</time>
      </trkpt>
      <trkpt lat="47.34735" lon="6.91537">
        <ele>442.4</ele>
        <time>2026-05-13T14:01:35Z</time>
      </trkpt>
      <trkpt lat="47.3474" lon="6.91577">
        <ele>441.4</ele>
        <time>2026-05-13T14:01:38Z</time>
      </trkpt>
      <trkpt lat="47.34743" lon="6.91603">
        <ele>440.4</ele>
        <time>2026-05-13T14:01:40Z</time>
      </trkpt>
      <trkpt lat="47.34743" lon="6.91613">
        <ele>440</ele>
        <time>2026-05-13T14:01:41Z</time>
      </trkpt>
      <trkpt lat="47.34746" lon="6.91675">
        <ele>439.4</ele>
        <time>2026-05-13T14:01:46Z</time>
      </trkpt>
      <trkpt lat="47.34745" lon="6.91749">
        <ele>439.2</ele>
        <time>2026-05-13T14:01:53Z</time>
      </trkpt>
      <trkpt lat="47.34737" lon="6.91834">
        <ele>439</ele>
        <time>2026-05-13T14:02:01Z</time>
      </trkpt>
      <trkpt lat="47.34723" lon="6.91893">
        <ele>438.6</ele>
        <time>2026-05-13T14:02:07Z</time>
      </trkpt>
      <trkpt lat="47.34697" lon="6.91965">
        <ele>438.6</ele>
        <time>2026-05-13T14:02:15Z</time>
      </trkpt>
      <trkpt lat="47.34694" lon="6.91973">
        <ele>438.6</ele>
        <time>2026-05-13T14:02:16Z</time>
      </trkpt>
      <trkpt lat="47.34663" lon="6.92039">
        <ele>438.8</ele>
        <time>2026-05-13T14:02:24Z</time>
      </trkpt>
      <trkpt lat="47.34659" lon="6.92047">
        <ele>438.8</ele>
        <time>2026-05-13T14:02:25Z</time>
      </trkpt>
      <trkpt lat="47.34624" lon="6.92116">
        <ele>439.2</ele>
        <time>2026-05-13T14:02:34Z</time>
      </trkpt>
      <trkpt lat="47.34613" lon="6.92139">
        <ele>439.4</ele>
        <time>2026-05-13T14:02:37Z</time>
      </trkpt>
      <trkpt lat="47.34594" lon="6.92183">
        <ele>439.8</ele>
        <time>2026-05-13T14:02:43Z</time>
      </trkpt>
      <trkpt lat="47.34592" lon="6.92199">
        <ele>439.8</ele>
        <time>2026-05-13T14:02:45Z</time>
      </trkpt>
      <trkpt lat="47.34594" lon="6.92208">
        <ele>439.8</ele>
        <time>2026-05-13T14:02:46Z</time>
      </trkpt>
      <trkpt lat="47.34597" lon="6.92216">
        <ele>440</ele>
        <time>2026-05-13T14:02:47Z</time>
      </trkpt>
      <trkpt lat="47.34607" lon="6.92229">
        <ele>440</ele>
        <time>2026-05-13T14:02:49Z</time>
      </trkpt>
      <trkpt lat="47.34643" lon="6.92267">
        <ele>439.2</ele>
        <time>2026-05-13T14:02:55Z</time>
      </trkpt>
      <trkpt lat="47.34659" lon="6.92284">
        <ele>438</ele>
        <time>2026-05-13T14:02:58Z</time>
      </trkpt>
      <trkpt lat="47.34687" lon="6.92313">
        <ele>437.4</ele>
        <time>2026-05-13T14:03:03Z</time>
      </trkpt>
      <trkpt lat="47.34698" lon="6.92324">
        <ele>437</ele>
        <time>2026-05-13T14:03:05Z</time>
      </trkpt>
      <trkpt lat="47.34723" lon="6.92349">
        <ele>436.6</ele>
        <time>2026-05-13T14:03:10Z</time>
      </trkpt>
      <trkpt lat="47.34742" lon="6.92367">
        <ele>436.6</ele>
        <time>2026-05-13T14:03:15Z</time>
      </trkpt>
      <trkpt lat="47.34756" lon="6.9238">
        <ele>437.2</ele>
        <time>2026-05-13T14:03:20Z</time>
      </trkpt>
      <trkpt lat="47.34757" lon="6.92391">
        <ele>437.8</ele>
        <time>2026-05-13T14:03:24Z</time>
      </trkpt>
      <trkpt lat="47.34756" lon="6.92393">
        <ele>438.4</ele>
        <time>2026-05-13T14:03:26Z</time>
      </trkpt>
      <trkpt lat="47.34756" lon="6.92393">
        <ele>438.6</ele>
        <time>2026-05-13T14:03:27Z</time>
      </trkpt>
      <trkpt lat="47.34758" lon="6.92397">
        <ele>438.4</ele>
        <time>2026-05-13T14:11:25Z</time>
      </trkpt>
      <trkpt lat="47.34764" lon="6.92383">
        <ele>438.6</ele>
        <time>2026-05-13T14:11:30Z</time>
      </trkpt>
      <trkpt lat="47.34772" lon="6.92385">
        <ele>438.6</ele>
        <time>2026-05-13T14:11:34Z</time>
      </trkpt>
      <trkpt lat="47.34785" lon="6.9239">
        <ele>439.2</ele>
        <time>2026-05-13T14:11:40Z</time>
      </trkpt>
      <trkpt lat="47.3479" lon="6.92393">
        <ele>439.8</ele>
        <time>2026-05-13T14:11:43Z</time>
      </trkpt>
      <trkpt lat="47.34796" lon="6.92398">
        <ele>440.4</ele>
        <time>2026-05-13T14:11:47Z</time>
      </trkpt>
      <trkpt lat="47.348" lon="6.92402">
        <ele>440.8</ele>
        <time>2026-05-13T14:11:50Z</time>
      </trkpt>
      <trkpt lat="47.34808" lon="6.92406">
        <ele>442</ele>
        <time>2026-05-13T14:11:55Z</time>
      </trkpt>
      <trkpt lat="47.3481" lon="6.92407">
        <ele>442.2</ele>
        <time>2026-05-13T14:11:56Z</time>
      </trkpt>
      <trkpt lat="47.3482" lon="6.92413">
        <ele>443.2</ele>
        <time>2026-05-13T14:12:01Z</time>
      </trkpt>
      <trkpt lat="47.34826" lon="6.92413">
        <ele>443.8</ele>
        <time>2026-05-13T14:12:04Z</time>
      </trkpt>
      <trkpt lat="47.34831" lon="6.92411">
        <ele>444.2</ele>
        <time>2026-05-13T14:12:06Z</time>
      </trkpt>
      <trkpt lat="47.34839" lon="6.92406">
        <ele>445</ele>
        <time>2026-05-13T14:12:10Z</time>
      </trkpt>
      <trkpt lat="47.34841" lon="6.92403">
        <ele>445.2</ele>
        <time>2026-05-13T14:12:11Z</time>
      </trkpt>
      <trkpt lat="47.34855" lon="6.92381">
        <ele>446.4</ele>
        <time>2026-05-13T14:12:19Z</time>
      </trkpt>
      <trkpt lat="47.34864" lon="6.92368">
        <ele>447</ele>
        <time>2026-05-13T14:12:24Z</time>
      </trkpt>
      <trkpt lat="47.34865" lon="6.92365">
        <ele>447</ele>
        <time>2026-05-13T14:12:25Z</time>
      </trkpt>
      <trkpt lat="47.34875" lon="6.92353">
        <ele>447.6</ele>
        <time>2026-05-13T14:12:30Z</time>
      </trkpt>
      <trkpt lat="47.34888" lon="6.92335">
        <ele>448.2</ele>
        <time>2026-05-13T14:12:37Z</time>
      </trkpt>
      <trkpt lat="47.349" lon="6.92332">
        <ele>448.8</ele>
        <time>2026-05-13T14:12:42Z</time>
      </trkpt>
      <trkpt lat="47.34904" lon="6.92331">
        <ele>449.2</ele>
        <time>2026-05-13T14:12:44Z</time>
      </trkpt>
      <trkpt lat="47.34909" lon="6.92327">
        <ele>449.8</ele>
        <time>2026-05-13T14:12:47Z</time>
      </trkpt>
      <trkpt lat="47.34915" lon="6.92325">
        <ele>450.2</ele>
        <time>2026-05-13T14:12:50Z</time>
      </trkpt>
      <trkpt lat="47.3492" lon="6.92323">
        <ele>451</ele>
        <time>2026-05-13T14:12:53Z</time>
      </trkpt>
      <trkpt lat="47.34929" lon="6.92317">
        <ele>451.8</ele>
        <time>2026-05-13T14:12:58Z</time>
      </trkpt>
      <trkpt lat="47.34933" lon="6.92312">
        <ele>452.2</ele>
        <time>2026-05-13T14:13:00Z</time>
      </trkpt>
      <trkpt lat="47.34943" lon="6.92301">
        <ele>453.2</ele>
        <time>2026-05-13T14:13:06Z</time>
      </trkpt>
      <trkpt lat="47.34953" lon="6.9229">
        <ele>454.2</ele>
        <time>2026-05-13T14:13:12Z</time>
      </trkpt>
      <trkpt lat="47.34955" lon="6.92284">
        <ele>454.6</ele>
        <time>2026-05-13T14:13:14Z</time>
      </trkpt>
      <trkpt lat="47.34958" lon="6.92273">
        <ele>455.6</ele>
        <time>2026-05-13T14:13:18Z</time>
      </trkpt>
      <trkpt lat="47.34961" lon="6.92263">
        <ele>456.8</ele>
        <time>2026-05-13T14:13:22Z</time>
      </trkpt>
      <trkpt lat="47.34963" lon="6.92253">
        <ele>458.2</ele>
        <time>2026-05-13T14:13:26Z</time>
      </trkpt>
      <trkpt lat="47.34965" lon="6.92245">
        <ele>459.2</ele>
        <time>2026-05-13T14:13:29Z</time>
      </trkpt>
      <trkpt lat="47.34965" lon="6.92242">
        <ele>459.4</ele>
        <time>2026-05-13T14:13:30Z</time>
      </trkpt>
      <trkpt lat="47.34964" lon="6.92233">
        <ele>460.6</ele>
        <time>2026-05-13T14:13:34Z</time>
      </trkpt>
      <trkpt lat="47.34964" lon="6.92224">
        <ele>461.6</ele>
        <time>2026-05-13T14:13:37Z</time>
      </trkpt>
      <trkpt lat="47.34963" lon="6.9222">
        <ele>462</ele>
        <time>2026-05-13T14:13:38Z</time>
      </trkpt>
      <trkpt lat="47.34963" lon="6.9221">
        <ele>463.2</ele>
        <time>2026-05-13T14:13:41Z</time>
      </trkpt>
      <trkpt lat="47.34963" lon="6.92203">
        <ele>463.6</ele>
        <time>2026-05-13T14:13:43Z</time>
      </trkpt>
      <trkpt lat="47.34963" lon="6.92174">
        <ele>463.8</ele>
        <time>2026-05-13T14:13:50Z</time>
      </trkpt>
      <trkpt lat="47.34967" lon="6.92141">
        <ele>463.8</ele>
        <time>2026-05-13T14:13:57Z</time>
      </trkpt>
      <trkpt lat="47.34974" lon="6.92107">
        <ele>464.2</ele>
        <time>2026-05-13T14:14:03Z</time>
      </trkpt>
      <trkpt lat="47.34987" lon="6.92068">
        <ele>463.8</ele>
        <time>2026-05-13T14:14:09Z</time>
      </trkpt>
      <trkpt lat="47.34991" lon="6.92057">
        <ele>463.8</ele>
        <time>2026-05-13T14:14:11Z</time>
      </trkpt>
      <trkpt lat="47.34998" lon="6.92044">
        <ele>463.6</ele>
        <time>2026-05-13T14:14:14Z</time>
      </trkpt>
      <trkpt lat="47.35008" lon="6.92022">
        <ele>463.6</ele>
        <time>2026-05-13T14:14:19Z</time>
      </trkpt>
      <trkpt lat="47.35023" lon="6.91987">
        <ele>463.4</ele>
        <time>2026-05-13T14:14:27Z</time>
      </trkpt>
      <trkpt lat="47.35032" lon="6.91956">
        <ele>463.6</ele>
        <time>2026-05-13T14:14:34Z</time>
      </trkpt>
      <trkpt lat="47.35037" lon="6.91934">
        <ele>464</ele>
        <time>2026-05-13T14:14:40Z</time>
      </trkpt>
      <trkpt lat="47.35041" lon="6.91913">
        <ele>464.6</ele>
        <time>2026-05-13T14:14:45Z</time>
      </trkpt>
      <trkpt lat="47.35042" lon="6.9191">
        <ele>464.8</ele>
        <time>2026-05-13T14:14:46Z</time>
      </trkpt>
      <trkpt lat="47.35045" lon="6.91891">
        <ele>465.8</ele>
        <time>2026-05-13T14:14:51Z</time>
      </trkpt>
      <trkpt lat="47.35046" lon="6.91887">
        <ele>466.4</ele>
        <time>2026-05-13T14:14:52Z</time>
      </trkpt>
      <trkpt lat="47.35049" lon="6.91875">
        <ele>467.2</ele>
        <time>2026-05-13T14:14:56Z</time>
      </trkpt>
      <trkpt lat="47.3505" lon="6.91869">
        <ele>467.6</ele>
        <time>2026-05-13T14:14:58Z</time>
      </trkpt>
      <trkpt lat="47.35051" lon="6.91858">
        <ele>468.2</ele>
        <time>2026-05-13T14:15:02Z</time>
      </trkpt>
      <trkpt lat="47.3505" lon="6.91855">
        <ele>468.4</ele>
        <time>2026-05-13T14:15:03Z</time>
      </trkpt>
      <trkpt lat="47.35051" lon="6.9184">
        <ele>469.4</ele>
        <time>2026-05-13T14:15:08Z</time>
      </trkpt>
      <trkpt lat="47.35052" lon="6.91831">
        <ele>470.2</ele>
        <time>2026-05-13T14:15:11Z</time>
      </trkpt>
      <trkpt lat="47.35052" lon="6.91827">
        <ele>470.6</ele>
        <time>2026-05-13T14:15:12Z</time>
      </trkpt>
      <trkpt lat="47.3505" lon="6.91807">
        <ele>471.6</ele>
        <time>2026-05-13T14:15:18Z</time>
      </trkpt>
      <trkpt lat="47.35049" lon="6.91803">
        <ele>471.6</ele>
        <time>2026-05-13T14:15:19Z</time>
      </trkpt>
      <trkpt lat="47.35048" lon="6.91783">
        <ele>472.6</ele>
        <time>2026-05-13T14:15:25Z</time>
      </trkpt>
      <trkpt lat="47.35048" lon="6.91781">
        <ele>473</ele>
        <time>2026-05-13T14:15:26Z</time>
      </trkpt>
      <trkpt lat="47.35046" lon="6.91772">
        <ele>474</ele>
        <time>2026-05-13T14:15:29Z</time>
      </trkpt>
      <trkpt lat="47.35045" lon="6.91757">
        <ele>475.2</ele>
        <time>2026-05-13T14:15:34Z</time>
      </trkpt>
      <trkpt lat="47.35044" lon="6.91746">
        <ele>476.6</ele>
        <time>2026-05-13T14:15:38Z</time>
      </trkpt>
      <trkpt lat="47.35043" lon="6.91737">
        <ele>477.6</ele>
        <time>2026-05-13T14:15:41Z</time>
      </trkpt>
      <trkpt lat="47.35042" lon="6.91734">
        <ele>477.8</ele>
        <time>2026-05-13T14:15:42Z</time>
      </trkpt>
      <trkpt lat="47.3504" lon="6.91722">
        <ele>478.8</ele>
        <time>2026-05-13T14:15:46Z</time>
      </trkpt>
      <trkpt lat="47.35035" lon="6.91709">
        <ele>479.6</ele>
        <time>2026-05-13T14:15:51Z</time>
      </trkpt>
      <trkpt lat="47.35034" lon="6.91706">
        <ele>480.2</ele>
        <time>2026-05-13T14:15:53Z</time>
      </trkpt>
      <trkpt lat="47.35032" lon="6.91702">
        <ele>480.4</ele>
        <time>2026-05-13T14:15:55Z</time>
      </trkpt>
      <trkpt lat="47.35031" lon="6.91698">
        <ele>480.8</ele>
        <time>2026-05-13T14:15:57Z</time>
      </trkpt>
      <trkpt lat="47.35028" lon="6.91695">
        <ele>481.2</ele>
        <time>2026-05-13T14:15:59Z</time>
      </trkpt>
      <trkpt lat="47.35024" lon="6.91687">
        <ele>482.2</ele>
        <time>2026-05-13T14:16:03Z</time>
      </trkpt>
      <trkpt lat="47.35021" lon="6.91681">
        <ele>482.6</ele>
        <time>2026-05-13T14:16:06Z</time>
      </trkpt>
      <trkpt lat="47.3502" lon="6.91679">
        <ele>483.2</ele>
        <time>2026-05-13T14:16:07Z</time>
      </trkpt>
      <trkpt lat="47.35016" lon="6.9167">
        <ele>484.4</ele>
        <time>2026-05-13T14:16:11Z</time>
      </trkpt>
      <trkpt lat="47.35015" lon="6.91668">
        <ele>484.6</ele>
        <time>2026-05-13T14:16:12Z</time>
      </trkpt>
      <trkpt lat="47.35014" lon="6.91655">
        <ele>485.8</ele>
        <time>2026-05-13T14:16:16Z</time>
      </trkpt>
      <trkpt lat="47.35013" lon="6.91646">
        <ele>486.8</ele>
        <time>2026-05-13T14:16:19Z</time>
      </trkpt>
      <trkpt lat="47.35015" lon="6.91633">
        <ele>488</ele>
        <time>2026-05-13T14:16:23Z</time>
      </trkpt>
      <trkpt lat="47.3502" lon="6.91622">
        <ele>489.4</ele>
        <time>2026-05-13T14:16:27Z</time>
      </trkpt>
      <trkpt lat="47.35024" lon="6.91612">
        <ele>490.8</ele>
        <time>2026-05-13T14:16:31Z</time>
      </trkpt>
      <trkpt lat="47.35025" lon="6.91609">
        <ele>491</ele>
        <time>2026-05-13T14:16:32Z</time>
      </trkpt>
      <trkpt lat="47.35026" lon="6.91607">
        <ele>491.4</ele>
        <time>2026-05-13T14:16:33Z</time>
      </trkpt>
      <trkpt lat="47.35028" lon="6.91602">
        <ele>491.8</ele>
        <time>2026-05-13T14:16:35Z</time>
      </trkpt>
      <trkpt lat="47.35035" lon="6.91591">
        <ele>493</ele>
        <time>2026-05-13T14:16:40Z</time>
      </trkpt>
      <trkpt lat="47.35046" lon="6.91581">
        <ele>494</ele>
        <time>2026-05-13T14:16:47Z</time>
      </trkpt>
      <trkpt lat="47.35056" lon="6.91576">
        <ele>495.2</ele>
        <time>2026-05-13T14:16:53Z</time>
      </trkpt>
      <trkpt lat="47.35061" lon="6.91574">
        <ele>496.2</ele>
        <time>2026-05-13T14:16:56Z</time>
      </trkpt>
      <trkpt lat="47.35066" lon="6.91568">
        <ele>497.2</ele>
        <time>2026-05-13T14:17:00Z</time>
      </trkpt>
      <trkpt lat="47.3507" lon="6.91563">
        <ele>498.4</ele>
        <time>2026-05-13T14:17:03Z</time>
      </trkpt>
      <trkpt lat="47.35073" lon="6.9156">
        <ele>499.4</ele>
        <time>2026-05-13T14:17:05Z</time>
      </trkpt>
      <trkpt lat="47.35079" lon="6.91555">
        <ele>500.4</ele>
        <time>2026-05-13T14:17:09Z</time>
      </trkpt>
      <trkpt lat="47.35081" lon="6.91554">
        <ele>500.8</ele>
        <time>2026-05-13T14:17:10Z</time>
      </trkpt>
      <trkpt lat="47.35085" lon="6.91546">
        <ele>501.8</ele>
        <time>2026-05-13T14:17:14Z</time>
      </trkpt>
      <trkpt lat="47.35088" lon="6.91538">
        <ele>503</ele>
        <time>2026-05-13T14:17:17Z</time>
      </trkpt>
      <trkpt lat="47.35089" lon="6.91535">
        <ele>503</ele>
        <time>2026-05-13T14:17:18Z</time>
      </trkpt>
      <trkpt lat="47.3509" lon="6.91529">
        <ele>503.6</ele>
        <time>2026-05-13T14:17:20Z</time>
      </trkpt>
      <trkpt lat="47.35094" lon="6.91523">
        <ele>504.4</ele>
        <time>2026-05-13T14:17:23Z</time>
      </trkpt>
      <trkpt lat="47.35096" lon="6.91517">
        <ele>504.8</ele>
        <time>2026-05-13T14:17:25Z</time>
      </trkpt>
      <trkpt lat="47.35096" lon="6.91515">
        <ele>504.8</ele>
        <time>2026-05-13T14:17:26Z</time>
      </trkpt>
      <trkpt lat="47.35102" lon="6.91498">
        <ele>505.6</ele>
        <time>2026-05-13T14:17:32Z</time>
      </trkpt>
      <trkpt lat="47.35104" lon="6.91492">
        <ele>505.8</ele>
        <time>2026-05-13T14:17:34Z</time>
      </trkpt>
      <trkpt lat="47.35112" lon="6.91476">
        <ele>506</ele>
        <time>2026-05-13T14:17:40Z</time>
      </trkpt>
      <trkpt lat="47.35113" lon="6.91468">
        <ele>506.8</ele>
        <time>2026-05-13T14:17:43Z</time>
      </trkpt>
      <trkpt lat="47.35116" lon="6.91459">
        <ele>507.6</ele>
        <time>2026-05-13T14:17:46Z</time>
      </trkpt>
      <trkpt lat="47.35119" lon="6.91453">
        <ele>508</ele>
        <time>2026-05-13T14:17:48Z</time>
      </trkpt>
      <trkpt lat="47.35123" lon="6.91439">
        <ele>508.8</ele>
        <time>2026-05-13T14:17:53Z</time>
      </trkpt>
      <trkpt lat="47.35124" lon="6.91436">
        <ele>509</ele>
        <time>2026-05-13T14:17:54Z</time>
      </trkpt>
      <trkpt lat="47.35124" lon="6.91424">
        <ele>510</ele>
        <time>2026-05-13T14:17:59Z</time>
      </trkpt>
      <trkpt lat="47.35125" lon="6.91422">
        <ele>510.6</ele>
        <time>2026-05-13T14:18:00Z</time>
      </trkpt>
      <trkpt lat="47.35129" lon="6.91416">
        <ele>511.2</ele>
        <time>2026-05-13T14:18:02Z</time>
      </trkpt>
      <trkpt lat="47.3513" lon="6.91414">
        <ele>511.2</ele>
        <time>2026-05-13T14:18:03Z</time>
      </trkpt>
      <trkpt lat="47.35131" lon="6.91411">
        <ele>511.6</ele>
        <time>2026-05-13T14:18:04Z</time>
      </trkpt>
      <trkpt lat="47.35133" lon="6.91407">
        <ele>512</ele>
        <time>2026-05-13T14:18:06Z</time>
      </trkpt>
      <trkpt lat="47.35135" lon="6.91405">
        <ele>512.2</ele>
        <time>2026-05-13T14:18:07Z</time>
      </trkpt>
      <trkpt lat="47.35135" lon="6.91403">
        <ele>512.4</ele>
        <time>2026-05-13T14:18:08Z</time>
      </trkpt>
      <trkpt lat="47.35139" lon="6.91384">
        <ele>513.4</ele>
        <time>2026-05-13T14:18:14Z</time>
      </trkpt>
      <trkpt lat="47.3514" lon="6.91382">
        <ele>513.6</ele>
        <time>2026-05-13T14:18:15Z</time>
      </trkpt>
      <trkpt lat="47.35142" lon="6.91377">
        <ele>514</ele>
        <time>2026-05-13T14:18:17Z</time>
      </trkpt>
      <trkpt lat="47.35143" lon="6.91372">
        <ele>514.2</ele>
        <time>2026-05-13T14:18:19Z</time>
      </trkpt>
      <trkpt lat="47.35146" lon="6.91366">
        <ele>514.6</ele>
        <time>2026-05-13T14:18:21Z</time>
      </trkpt>
      <trkpt lat="47.35148" lon="6.91351">
        <ele>515.8</ele>
        <time>2026-05-13T14:18:26Z</time>
      </trkpt>
      <trkpt lat="47.35151" lon="6.91338">
        <ele>517.2</ele>
        <time>2026-05-13T14:18:30Z</time>
      </trkpt>
      <trkpt lat="47.35152" lon="6.91332">
        <ele>517.6</ele>
        <time>2026-05-13T14:18:32Z</time>
      </trkpt>
      <trkpt lat="47.35155" lon="6.91314">
        <ele>518.4</ele>
        <time>2026-05-13T14:18:38Z</time>
      </trkpt>
      <trkpt lat="47.35156" lon="6.91312">
        <ele>518.6</ele>
        <time>2026-05-13T14:18:39Z</time>
      </trkpt>
      <trkpt lat="47.35157" lon="6.91304">
        <ele>519.4</ele>
        <time>2026-05-13T14:18:42Z</time>
      </trkpt>
      <trkpt lat="47.35159" lon="6.91292">
        <ele>520.2</ele>
        <time>2026-05-13T14:18:46Z</time>
      </trkpt>
      <trkpt lat="47.35159" lon="6.91288">
        <ele>520.4</ele>
        <time>2026-05-13T14:18:47Z</time>
      </trkpt>
      <trkpt lat="47.35159" lon="6.91277">
        <ele>521.4</ele>
        <time>2026-05-13T14:18:50Z</time>
      </trkpt>
      <trkpt lat="47.35161" lon="6.91267">
        <ele>522.6</ele>
        <time>2026-05-13T14:18:53Z</time>
      </trkpt>
      <trkpt lat="47.35163" lon="6.91249">
        <ele>523.8</ele>
        <time>2026-05-13T14:18:58Z</time>
      </trkpt>
      <trkpt lat="47.35163" lon="6.91243">
        <ele>524.2</ele>
        <time>2026-05-13T14:19:00Z</time>
      </trkpt>
      <trkpt lat="47.35165" lon="6.91237">
        <ele>524.6</ele>
        <time>2026-05-13T14:19:02Z</time>
      </trkpt>
      <trkpt lat="47.35167" lon="6.91233">
        <ele>524.8</ele>
        <time>2026-05-13T14:19:03Z</time>
      </trkpt>
      <trkpt lat="47.35166" lon="6.91222">
        <ele>526</ele>
        <time>2026-05-13T14:19:06Z</time>
      </trkpt>
      <trkpt lat="47.35167" lon="6.91206">
        <ele>527.2</ele>
        <time>2026-05-13T14:19:11Z</time>
      </trkpt>
      <trkpt lat="47.35168" lon="6.912">
        <ele>527.6</ele>
        <time>2026-05-13T14:19:13Z</time>
      </trkpt>
      <trkpt lat="47.3517" lon="6.91192">
        <ele>528.2</ele>
        <time>2026-05-13T14:19:16Z</time>
      </trkpt>
      <trkpt lat="47.35171" lon="6.91189">
        <ele>528.6</ele>
        <time>2026-05-13T14:19:17Z</time>
      </trkpt>
      <trkpt lat="47.35171" lon="6.91186">
        <ele>528.8</ele>
        <time>2026-05-13T14:19:18Z</time>
      </trkpt>
      <trkpt lat="47.35175" lon="6.91176">
        <ele>529.4</ele>
        <time>2026-05-13T14:19:23Z</time>
      </trkpt>
      <trkpt lat="47.35177" lon="6.9117">
        <ele>530</ele>
        <time>2026-05-13T14:19:25Z</time>
      </trkpt>
      <trkpt lat="47.3518" lon="6.91157">
        <ele>530.4</ele>
        <time>2026-05-13T14:19:29Z</time>
      </trkpt>
      <trkpt lat="47.35183" lon="6.91147">
        <ele>531.2</ele>
        <time>2026-05-13T14:19:32Z</time>
      </trkpt>
      <trkpt lat="47.35185" lon="6.91144">
        <ele>531.4</ele>
        <time>2026-05-13T14:19:33Z</time>
      </trkpt>
      <trkpt lat="47.35186" lon="6.91138">
        <ele>531.8</ele>
        <time>2026-05-13T14:19:35Z</time>
      </trkpt>
      <trkpt lat="47.35189" lon="6.91124">
        <ele>532.4</ele>
        <time>2026-05-13T14:19:39Z</time>
      </trkpt>
      <trkpt lat="47.35192" lon="6.91118">
        <ele>532.8</ele>
        <time>2026-05-13T14:19:41Z</time>
      </trkpt>
      <trkpt lat="47.35197" lon="6.91107">
        <ele>533.4</ele>
        <time>2026-05-13T14:19:44Z</time>
      </trkpt>
      <trkpt lat="47.35204" lon="6.91097">
        <ele>533.6</ele>
        <time>2026-05-13T14:19:47Z</time>
      </trkpt>
      <trkpt lat="47.35209" lon="6.9109">
        <ele>534.4</ele>
        <time>2026-05-13T14:19:50Z</time>
      </trkpt>
      <trkpt lat="47.35214" lon="6.91079">
        <ele>535.6</ele>
        <time>2026-05-13T14:19:54Z</time>
      </trkpt>
      <trkpt lat="47.35215" lon="6.91078">
        <ele>535.8</ele>
        <time>2026-05-13T14:19:55Z</time>
      </trkpt>
      <trkpt lat="47.35224" lon="6.91071">
        <ele>537.2</ele>
        <time>2026-05-13T14:20:00Z</time>
      </trkpt>
      <trkpt lat="47.35225" lon="6.91069">
        <ele>537.6</ele>
        <time>2026-05-13T14:20:01Z</time>
      </trkpt>
      <trkpt lat="47.35227" lon="6.91068">
        <ele>538</ele>
        <time>2026-05-13T14:20:02Z</time>
      </trkpt>
      <trkpt lat="47.3523" lon="6.91065">
        <ele>538.4</ele>
        <time>2026-05-13T14:20:04Z</time>
      </trkpt>
      <trkpt lat="47.35235" lon="6.9106">
        <ele>539.2</ele>
        <time>2026-05-13T14:20:07Z</time>
      </trkpt>
      <trkpt lat="47.35238" lon="6.91056">
        <ele>539.4</ele>
        <time>2026-05-13T14:20:09Z</time>
      </trkpt>
      <trkpt lat="47.35241" lon="6.91054">
        <ele>539.6</ele>
        <time>2026-05-13T14:20:11Z</time>
      </trkpt>
      <trkpt lat="47.35247" lon="6.9105">
        <ele>540.6</ele>
        <time>2026-05-13T14:20:14Z</time>
      </trkpt>
      <trkpt lat="47.35249" lon="6.91048">
        <ele>540.6</ele>
        <time>2026-05-13T14:20:15Z</time>
      </trkpt>
      <trkpt lat="47.35255" lon="6.91045">
        <ele>541.4</ele>
        <time>2026-05-13T14:20:18Z</time>
      </trkpt>
      <trkpt lat="47.35259" lon="6.91043">
        <ele>541.8</ele>
        <time>2026-05-13T14:20:20Z</time>
      </trkpt>
      <trkpt lat="47.35266" lon="6.91038">
        <ele>542.8</ele>
        <time>2026-05-13T14:20:24Z</time>
      </trkpt>
      <trkpt lat="47.35269" lon="6.91034">
        <ele>543.2</ele>
        <time>2026-05-13T14:20:26Z</time>
      </trkpt>
      <trkpt lat="47.35275" lon="6.91018">
        <ele>544</ele>
        <time>2026-05-13T14:20:31Z</time>
      </trkpt>
      <trkpt lat="47.35275" lon="6.91015">
        <ele>544</ele>
        <time>2026-05-13T14:20:32Z</time>
      </trkpt>
      <trkpt lat="47.35273" lon="6.91007">
        <ele>544.2</ele>
        <time>2026-05-13T14:20:34Z</time>
      </trkpt>
      <trkpt lat="47.35272" lon="6.90999">
        <ele>544.6</ele>
        <time>2026-05-13T14:20:36Z</time>
      </trkpt>
      <trkpt lat="47.35271" lon="6.9099">
        <ele>545.2</ele>
        <time>2026-05-13T14:20:38Z</time>
      </trkpt>
      <trkpt lat="47.35274" lon="6.90977">
        <ele>546</ele>
        <time>2026-05-13T14:20:42Z</time>
      </trkpt>
      <trkpt lat="47.35275" lon="6.90974">
        <ele>546.2</ele>
        <time>2026-05-13T14:20:43Z</time>
      </trkpt>
      <trkpt lat="47.35277" lon="6.90971">
        <ele>546.4</ele>
        <time>2026-05-13T14:20:44Z</time>
      </trkpt>
      <trkpt lat="47.35279" lon="6.90952">
        <ele>547.2</ele>
        <time>2026-05-13T14:20:49Z</time>
      </trkpt>
      <trkpt lat="47.35279" lon="6.90949">
        <ele>547.6</ele>
        <time>2026-05-13T14:20:50Z</time>
      </trkpt>
      <trkpt lat="47.35281" lon="6.90933">
        <ele>548.6</ele>
        <time>2026-05-13T14:20:55Z</time>
      </trkpt>
      <trkpt lat="47.3528" lon="6.9093">
        <ele>549</ele>
        <time>2026-05-13T14:20:56Z</time>
      </trkpt>
      <trkpt lat="47.35281" lon="6.90918">
        <ele>549.8</ele>
        <time>2026-05-13T14:21:00Z</time>
      </trkpt>
      <trkpt lat="47.35281" lon="6.90914">
        <ele>550</ele>
        <time>2026-05-13T14:21:01Z</time>
      </trkpt>
      <trkpt lat="47.35281" lon="6.90911">
        <ele>550</ele>
        <time>2026-05-13T14:21:02Z</time>
      </trkpt>
      <trkpt lat="47.35282" lon="6.90901">
        <ele>551</ele>
        <time>2026-05-13T14:21:05Z</time>
      </trkpt>
      <trkpt lat="47.35282" lon="6.90898">
        <ele>551.2</ele>
        <time>2026-05-13T14:21:06Z</time>
      </trkpt>
      <trkpt lat="47.35285" lon="6.90889">
        <ele>551.6</ele>
        <time>2026-05-13T14:21:09Z</time>
      </trkpt>
      <trkpt lat="47.35287" lon="6.90887">
        <ele>551.8</ele>
        <time>2026-05-13T14:21:10Z</time>
      </trkpt>
      <trkpt lat="47.35289" lon="6.90884">
        <ele>552</ele>
        <time>2026-05-13T14:21:11Z</time>
      </trkpt>
      <trkpt lat="47.35292" lon="6.90884">
        <ele>552</ele>
        <time>2026-05-13T14:21:12Z</time>
      </trkpt>
      <trkpt lat="47.35295" lon="6.90884">
        <ele>552.4</ele>
        <time>2026-05-13T14:21:13Z</time>
      </trkpt>
      <trkpt lat="47.35299" lon="6.90889">
        <ele>552.8</ele>
        <time>2026-05-13T14:21:15Z</time>
      </trkpt>
      <trkpt lat="47.353" lon="6.90892">
        <ele>553</ele>
        <time>2026-05-13T14:21:16Z</time>
      </trkpt>
      <trkpt lat="47.35297" lon="6.90907">
        <ele>553.8</ele>
        <time>2026-05-13T14:21:21Z</time>
      </trkpt>
      <trkpt lat="47.35297" lon="6.90909">
        <ele>554</ele>
        <time>2026-05-13T14:21:22Z</time>
      </trkpt>
      <trkpt lat="47.35296" lon="6.90911">
        <ele>554.2</ele>
        <time>2026-05-13T14:21:23Z</time>
      </trkpt>
      <trkpt lat="47.35295" lon="6.90922">
        <ele>554.6</ele>
        <time>2026-05-13T14:21:27Z</time>
      </trkpt>
      <trkpt lat="47.35295" lon="6.90932">
        <ele>555.2</ele>
        <time>2026-05-13T14:21:30Z</time>
      </trkpt>
      <trkpt lat="47.35295" lon="6.9094">
        <ele>555.4</ele>
        <time>2026-05-13T14:21:32Z</time>
      </trkpt>
      <trkpt lat="47.35296" lon="6.90944">
        <ele>555.8</ele>
        <time>2026-05-13T14:21:33Z</time>
      </trkpt>
      <trkpt lat="47.35297" lon="6.90954">
        <ele>556.4</ele>
        <time>2026-05-13T14:21:36Z</time>
      </trkpt>
      <trkpt lat="47.35299" lon="6.90965">
        <ele>557.2</ele>
        <time>2026-05-13T14:21:39Z</time>
      </trkpt>
      <trkpt lat="47.35299" lon="6.90968">
        <ele>557.4</ele>
        <time>2026-05-13T14:21:40Z</time>
      </trkpt>
      <trkpt lat="47.353" lon="6.90971">
        <ele>557.6</ele>
        <time>2026-05-13T14:21:41Z</time>
      </trkpt>
      <trkpt lat="47.35301" lon="6.9098">
        <ele>558.2</ele>
        <time>2026-05-13T14:21:44Z</time>
      </trkpt>
      <trkpt lat="47.353" lon="6.90984">
        <ele>558.4</ele>
        <time>2026-05-13T14:21:45Z</time>
      </trkpt>
      <trkpt lat="47.353" lon="6.90987">
        <ele>558.6</ele>
        <time>2026-05-13T14:21:46Z</time>
      </trkpt>
      <trkpt lat="47.35301" lon="6.90991">
        <ele>558.6</ele>
        <time>2026-05-13T14:21:47Z</time>
      </trkpt>
      <trkpt lat="47.35302" lon="6.90997">
        <ele>559.2</ele>
        <time>2026-05-13T14:21:49Z</time>
      </trkpt>
      <trkpt lat="47.35305" lon="6.91011">
        <ele>559.8</ele>
        <time>2026-05-13T14:21:53Z</time>
      </trkpt>
      <trkpt lat="47.35307" lon="6.91027">
        <ele>560.6</ele>
        <time>2026-05-13T14:21:57Z</time>
      </trkpt>
      <trkpt lat="47.35307" lon="6.9103">
        <ele>561</ele>
        <time>2026-05-13T14:21:58Z</time>
      </trkpt>
      <trkpt lat="47.35309" lon="6.91046">
        <ele>562</ele>
        <time>2026-05-13T14:22:02Z</time>
      </trkpt>
      <trkpt lat="47.35308" lon="6.91053">
        <ele>562.4</ele>
        <time>2026-05-13T14:22:04Z</time>
      </trkpt>
      <trkpt lat="47.35305" lon="6.91063">
        <ele>563</ele>
        <time>2026-05-13T14:22:07Z</time>
      </trkpt>
      <trkpt lat="47.35299" lon="6.91073">
        <ele>564</ele>
        <time>2026-05-13T14:22:11Z</time>
      </trkpt>
      <trkpt lat="47.35295" lon="6.9108">
        <ele>565.2</ele>
        <time>2026-05-13T14:22:14Z</time>
      </trkpt>
      <trkpt lat="47.35291" lon="6.91087">
        <ele>566.2</ele>
        <time>2026-05-13T14:22:17Z</time>
      </trkpt>
      <trkpt lat="47.3529" lon="6.9109">
        <ele>566.4</ele>
        <time>2026-05-13T14:22:18Z</time>
      </trkpt>
      <trkpt lat="47.35286" lon="6.91097">
        <ele>567.2</ele>
        <time>2026-05-13T14:22:21Z</time>
      </trkpt>
      <trkpt lat="47.35284" lon="6.91099">
        <ele>567.6</ele>
        <time>2026-05-13T14:22:22Z</time>
      </trkpt>
      <trkpt lat="47.3528" lon="6.91113">
        <ele>568.6</ele>
        <time>2026-05-13T14:22:26Z</time>
      </trkpt>
      <trkpt lat="47.35277" lon="6.91123">
        <ele>569.4</ele>
        <time>2026-05-13T14:22:29Z</time>
      </trkpt>
      <trkpt lat="47.35277" lon="6.9114">
        <ele>570</ele>
        <time>2026-05-13T14:22:34Z</time>
      </trkpt>
      <trkpt lat="47.35278" lon="6.91146">
        <ele>570.2</ele>
        <time>2026-05-13T14:22:36Z</time>
      </trkpt>
      <trkpt lat="47.35278" lon="6.91157">
        <ele>571.4</ele>
        <time>2026-05-13T14:22:40Z</time>
      </trkpt>
      <trkpt lat="47.35279" lon="6.91162">
        <ele>571.8</ele>
        <time>2026-05-13T14:22:42Z</time>
      </trkpt>
      <trkpt lat="47.35281" lon="6.9117">
        <ele>572.4</ele>
        <time>2026-05-13T14:22:45Z</time>
      </trkpt>
      <trkpt lat="47.35287" lon="6.91191">
        <ele>573.2</ele>
        <time>2026-05-13T14:22:51Z</time>
      </trkpt>
      <trkpt lat="47.35291" lon="6.91205">
        <ele>573.6</ele>
        <time>2026-05-13T14:22:55Z</time>
      </trkpt>
      <trkpt lat="47.35293" lon="6.91216">
        <ele>573.8</ele>
        <time>2026-05-13T14:22:58Z</time>
      </trkpt>
      <trkpt lat="47.35298" lon="6.91235">
        <ele>574.6</ele>
        <time>2026-05-13T14:23:03Z</time>
      </trkpt>
      <trkpt lat="47.35299" lon="6.91246">
        <ele>575</ele>
        <time>2026-05-13T14:23:06Z</time>
      </trkpt>
      <trkpt lat="47.353" lon="6.91264">
        <ele>575.8</ele>
        <time>2026-05-13T14:23:11Z</time>
      </trkpt>
      <trkpt lat="47.353" lon="6.91267">
        <ele>576</ele>
        <time>2026-05-13T14:23:12Z</time>
      </trkpt>
      <trkpt lat="47.35302" lon="6.91278">
        <ele>577</ele>
        <time>2026-05-13T14:23:16Z</time>
      </trkpt>
      <trkpt lat="47.35303" lon="6.91281">
        <ele>577</ele>
        <time>2026-05-13T14:23:17Z</time>
      </trkpt>
      <trkpt lat="47.35304" lon="6.91292">
        <ele>578</ele>
        <time>2026-05-13T14:23:21Z</time>
      </trkpt>
      <trkpt lat="47.35307" lon="6.91309">
        <ele>579.4</ele>
        <time>2026-05-13T14:23:26Z</time>
      </trkpt>
      <trkpt lat="47.35311" lon="6.91335">
        <ele>580.4</ele>
        <time>2026-05-13T14:23:33Z</time>
      </trkpt>
      <trkpt lat="47.35311" lon="6.9136">
        <ele>581.4</ele>
        <time>2026-05-13T14:23:40Z</time>
      </trkpt>
      <trkpt lat="47.35313" lon="6.9137">
        <ele>581.6</ele>
        <time>2026-05-13T14:23:42Z</time>
      </trkpt>
      <trkpt lat="47.35312" lon="6.91388">
        <ele>582.2</ele>
        <time>2026-05-13T14:23:46Z</time>
      </trkpt>
      <trkpt lat="47.35314" lon="6.91398">
        <ele>582.8</ele>
        <time>2026-05-13T14:23:49Z</time>
      </trkpt>
      <trkpt lat="47.35312" lon="6.91421">
        <ele>583.6</ele>
        <time>2026-05-13T14:23:55Z</time>
      </trkpt>
      <trkpt lat="47.35311" lon="6.91424">
        <ele>583.8</ele>
        <time>2026-05-13T14:23:56Z</time>
      </trkpt>
      <trkpt lat="47.3531" lon="6.91451">
        <ele>585</ele>
        <time>2026-05-13T14:24:04Z</time>
      </trkpt>
      <trkpt lat="47.3531" lon="6.91455">
        <ele>585</ele>
        <time>2026-05-13T14:24:05Z</time>
      </trkpt>
      <trkpt lat="47.35309" lon="6.91471">
        <ele>586</ele>
        <time>2026-05-13T14:24:10Z</time>
      </trkpt>
      <trkpt lat="47.35309" lon="6.91487">
        <ele>587</ele>
        <time>2026-05-13T14:24:14Z</time>
      </trkpt>
      <trkpt lat="47.35308" lon="6.91491">
        <ele>587.2</ele>
        <time>2026-05-13T14:24:15Z</time>
      </trkpt>
      <trkpt lat="47.35308" lon="6.91495">
        <ele>587.2</ele>
        <time>2026-05-13T14:24:16Z</time>
      </trkpt>
      <trkpt lat="47.35308" lon="6.91514">
        <ele>588</ele>
        <time>2026-05-13T14:24:21Z</time>
      </trkpt>
      <trkpt lat="47.35307" lon="6.91526">
        <ele>588.6</ele>
        <time>2026-05-13T14:24:24Z</time>
      </trkpt>
      <trkpt lat="47.35306" lon="6.91537">
        <ele>589.6</ele>
        <time>2026-05-13T14:24:27Z</time>
      </trkpt>
      <trkpt lat="47.35305" lon="6.91553">
        <ele>590.6</ele>
        <time>2026-05-13T14:24:31Z</time>
      </trkpt>
      <trkpt lat="47.35305" lon="6.91557">
        <ele>590.8</ele>
        <time>2026-05-13T14:24:32Z</time>
      </trkpt>
      <trkpt lat="47.35302" lon="6.91602">
        <ele>591.6</ele>
        <time>2026-05-13T14:24:44Z</time>
      </trkpt>
      <trkpt lat="47.35301" lon="6.9162">
        <ele>592.6</ele>
        <time>2026-05-13T14:24:49Z</time>
      </trkpt>
      <trkpt lat="47.35299" lon="6.91631">
        <ele>593.2</ele>
        <time>2026-05-13T14:24:53Z</time>
      </trkpt>
      <trkpt lat="47.35296" lon="6.91644">
        <ele>593.8</ele>
        <time>2026-05-13T14:24:57Z</time>
      </trkpt>
      <trkpt lat="47.35294" lon="6.91656">
        <ele>594.8</ele>
        <time>2026-05-13T14:25:00Z</time>
      </trkpt>
      <trkpt lat="47.35294" lon="6.9166">
        <ele>595.6</ele>
        <time>2026-05-13T14:25:01Z</time>
      </trkpt>
      <trkpt lat="47.35292" lon="6.91668">
        <ele>596.2</ele>
        <time>2026-05-13T14:25:03Z</time>
      </trkpt>
      <trkpt lat="47.3529" lon="6.91688">
        <ele>597.2</ele>
        <time>2026-05-13T14:25:08Z</time>
      </trkpt>
      <trkpt lat="47.35289" lon="6.91696">
        <ele>597.4</ele>
        <time>2026-05-13T14:25:10Z</time>
      </trkpt>
      <trkpt lat="47.35288" lon="6.91707">
        <ele>598.2</ele>
        <time>2026-05-13T14:25:13Z</time>
      </trkpt>
      <trkpt lat="47.35288" lon="6.91724">
        <ele>599.4</ele>
        <time>2026-05-13T14:25:18Z</time>
      </trkpt>
      <trkpt lat="47.35284" lon="6.91755">
        <ele>600.4</ele>
        <time>2026-05-13T14:25:26Z</time>
      </trkpt>
      <trkpt lat="47.35282" lon="6.91784">
        <ele>601.4</ele>
        <time>2026-05-13T14:25:34Z</time>
      </trkpt>
      <trkpt lat="47.3528" lon="6.91792">
        <ele>601.4</ele>
        <time>2026-05-13T14:25:36Z</time>
      </trkpt>
      <trkpt lat="47.35278" lon="6.91811">
        <ele>602.4</ele>
        <time>2026-05-13T14:25:41Z</time>
      </trkpt>
      <trkpt lat="47.35277" lon="6.91819">
        <ele>602.6</ele>
        <time>2026-05-13T14:25:43Z</time>
      </trkpt>
      <trkpt lat="47.35273" lon="6.9184">
        <ele>603.2</ele>
        <time>2026-05-13T14:25:49Z</time>
      </trkpt>
      <trkpt lat="47.35274" lon="6.9185">
        <ele>603.8</ele>
        <time>2026-05-13T14:25:52Z</time>
      </trkpt>
      <trkpt lat="47.35276" lon="6.91859">
        <ele>604.2</ele>
        <time>2026-05-13T14:25:55Z</time>
      </trkpt>
      <trkpt lat="47.35281" lon="6.91865">
        <ele>604.8</ele>
        <time>2026-05-13T14:25:58Z</time>
      </trkpt>
      <trkpt lat="47.35286" lon="6.91866">
        <ele>605</ele>
        <time>2026-05-13T14:26:00Z</time>
      </trkpt>
      <trkpt lat="47.35292" lon="6.91863">
        <ele>606.2</ele>
        <time>2026-05-13T14:26:03Z</time>
      </trkpt>
      <trkpt lat="47.35297" lon="6.91856">
        <ele>606.8</ele>
        <time>2026-05-13T14:26:06Z</time>
      </trkpt>
      <trkpt lat="47.35301" lon="6.91836">
        <ele>607.4</ele>
        <time>2026-05-13T14:26:11Z</time>
      </trkpt>
      <trkpt lat="47.35302" lon="6.91828">
        <ele>607.6</ele>
        <time>2026-05-13T14:26:13Z</time>
      </trkpt>
      <trkpt lat="47.35305" lon="6.91811">
        <ele>608.4</ele>
        <time>2026-05-13T14:26:17Z</time>
      </trkpt>
      <trkpt lat="47.35308" lon="6.91795">
        <ele>609.2</ele>
        <time>2026-05-13T14:26:21Z</time>
      </trkpt>
      <trkpt lat="47.3531" lon="6.91787">
        <ele>609.4</ele>
        <time>2026-05-13T14:26:23Z</time>
      </trkpt>
      <trkpt lat="47.35316" lon="6.91767">
        <ele>610.6</ele>
        <time>2026-05-13T14:26:28Z</time>
      </trkpt>
      <trkpt lat="47.35316" lon="6.91763">
        <ele>610.8</ele>
        <time>2026-05-13T14:26:29Z</time>
      </trkpt>
      <trkpt lat="47.35322" lon="6.91743">
        <ele>612.2</ele>
        <time>2026-05-13T14:26:34Z</time>
      </trkpt>
      <trkpt lat="47.35323" lon="6.91739">
        <ele>612.4</ele>
        <time>2026-05-13T14:26:35Z</time>
      </trkpt>
      <trkpt lat="47.35329" lon="6.91721">
        <ele>613.2</ele>
        <time>2026-05-13T14:26:40Z</time>
      </trkpt>
      <trkpt lat="47.35332" lon="6.91714">
        <ele>613.4</ele>
        <time>2026-05-13T14:26:42Z</time>
      </trkpt>
      <trkpt lat="47.35344" lon="6.91683">
        <ele>613.8</ele>
        <time>2026-05-13T14:26:50Z</time>
      </trkpt>
      <trkpt lat="47.35347" lon="6.91676">
        <ele>614.2</ele>
        <time>2026-05-13T14:26:52Z</time>
      </trkpt>
      <trkpt lat="47.35357" lon="6.9165">
        <ele>615.2</ele>
        <time>2026-05-13T14:26:59Z</time>
      </trkpt>
      <trkpt lat="47.35368" lon="6.91624">
        <ele>615.4</ele>
        <time>2026-05-13T14:27:06Z</time>
      </trkpt>
      <trkpt lat="47.35379" lon="6.916">
        <ele>616.2</ele>
        <time>2026-05-13T14:27:13Z</time>
      </trkpt>
      <trkpt lat="47.35382" lon="6.91588">
        <ele>616.6</ele>
        <time>2026-05-13T14:27:16Z</time>
      </trkpt>
      <trkpt lat="47.3539" lon="6.91569">
        <ele>617.4</ele>
        <time>2026-05-13T14:27:21Z</time>
      </trkpt>
      <trkpt lat="47.35391" lon="6.91565">
        <ele>617.6</ele>
        <time>2026-05-13T14:27:22Z</time>
      </trkpt>
      <trkpt lat="47.35398" lon="6.91546">
        <ele>618.6</ele>
        <time>2026-05-13T14:27:27Z</time>
      </trkpt>
      <trkpt lat="47.35403" lon="6.91531">
        <ele>619.6</ele>
        <time>2026-05-13T14:27:31Z</time>
      </trkpt>
      <trkpt lat="47.35404" lon="6.91528">
        <ele>619.8</ele>
        <time>2026-05-13T14:27:32Z</time>
      </trkpt>
      <trkpt lat="47.35415" lon="6.91507">
        <ele>620.8</ele>
        <time>2026-05-13T14:27:38Z</time>
      </trkpt>
      <trkpt lat="47.35417" lon="6.91506">
        <ele>621</ele>
        <time>2026-05-13T14:27:39Z</time>
      </trkpt>
      <trkpt lat="47.35422" lon="6.91505">
        <ele>621.4</ele>
        <time>2026-05-13T14:27:41Z</time>
      </trkpt>
      <trkpt lat="47.35425" lon="6.9151">
        <ele>621.8</ele>
        <time>2026-05-13T14:27:43Z</time>
      </trkpt>
      <trkpt lat="47.35427" lon="6.91519">
        <ele>623</ele>
        <time>2026-05-13T14:27:46Z</time>
      </trkpt>
      <trkpt lat="47.35428" lon="6.91531">
        <ele>624</ele>
        <time>2026-05-13T14:27:49Z</time>
      </trkpt>
      <trkpt lat="47.35427" lon="6.91535">
        <ele>624.4</ele>
        <time>2026-05-13T14:27:50Z</time>
      </trkpt>
      <trkpt lat="47.35426" lon="6.91548">
        <ele>625.8</ele>
        <time>2026-05-13T14:27:53Z</time>
      </trkpt>
      <trkpt lat="47.35426" lon="6.91556">
        <ele>626</ele>
        <time>2026-05-13T14:27:55Z</time>
      </trkpt>
      <trkpt lat="47.35424" lon="6.9158">
        <ele>626.8</ele>
        <time>2026-05-13T14:28:01Z</time>
      </trkpt>
      <trkpt lat="47.35424" lon="6.91589">
        <ele>627</ele>
        <time>2026-05-13T14:28:03Z</time>
      </trkpt>
      <trkpt lat="47.35423" lon="6.91609">
        <ele>628</ele>
        <time>2026-05-13T14:28:08Z</time>
      </trkpt>
      <trkpt lat="47.35423" lon="6.91617">
        <ele>628.4</ele>
        <time>2026-05-13T14:28:10Z</time>
      </trkpt>
      <trkpt lat="47.35424" lon="6.91632">
        <ele>629</ele>
        <time>2026-05-13T14:28:14Z</time>
      </trkpt>
      <trkpt lat="47.35424" lon="6.91648">
        <ele>630.4</ele>
        <time>2026-05-13T14:28:18Z</time>
      </trkpt>
      <trkpt lat="47.35425" lon="6.91672">
        <ele>631.4</ele>
        <time>2026-05-13T14:28:24Z</time>
      </trkpt>
      <trkpt lat="47.35425" lon="6.91688">
        <ele>632.2</ele>
        <time>2026-05-13T14:28:28Z</time>
      </trkpt>
      <trkpt lat="47.35425" lon="6.91692">
        <ele>632.4</ele>
        <time>2026-05-13T14:28:29Z</time>
      </trkpt>
      <trkpt lat="47.35427" lon="6.91714">
        <ele>633.4</ele>
        <time>2026-05-13T14:28:35Z</time>
      </trkpt>
      <trkpt lat="47.35427" lon="6.91718">
        <ele>633.8</ele>
        <time>2026-05-13T14:28:36Z</time>
      </trkpt>
      <trkpt lat="47.35428" lon="6.91736">
        <ele>634.8</ele>
        <time>2026-05-13T14:28:41Z</time>
      </trkpt>
      <trkpt lat="47.35428" lon="6.91739">
        <ele>635</ele>
        <time>2026-05-13T14:28:42Z</time>
      </trkpt>
      <trkpt lat="47.35428" lon="6.91743">
        <ele>635.2</ele>
        <time>2026-05-13T14:28:43Z</time>
      </trkpt>
      <trkpt lat="47.35429" lon="6.91761">
        <ele>636</ele>
        <time>2026-05-13T14:28:48Z</time>
      </trkpt>
      <trkpt lat="47.35429" lon="6.91777">
        <ele>636.8</ele>
        <time>2026-05-13T14:28:52Z</time>
      </trkpt>
      <trkpt lat="47.3543" lon="6.91788">
        <ele>637.2</ele>
        <time>2026-05-13T14:28:55Z</time>
      </trkpt>
      <trkpt lat="47.3543" lon="6.9181">
        <ele>638.4</ele>
        <time>2026-05-13T14:29:01Z</time>
      </trkpt>
      <trkpt lat="47.3543" lon="6.91814">
        <ele>638.4</ele>
        <time>2026-05-13T14:29:02Z</time>
      </trkpt>
      <trkpt lat="47.35431" lon="6.91836">
        <ele>639.6</ele>
        <time>2026-05-13T14:29:08Z</time>
      </trkpt>
      <trkpt lat="47.35431" lon="6.9184">
        <ele>639.8</ele>
        <time>2026-05-13T14:29:09Z</time>
      </trkpt>
      <trkpt lat="47.35432" lon="6.91851">
        <ele>641</ele>
        <time>2026-05-13T14:29:12Z</time>
      </trkpt>
      <trkpt lat="47.35432" lon="6.91866">
        <ele>642</ele>
        <time>2026-05-13T14:29:16Z</time>
      </trkpt>
      <trkpt lat="47.35433" lon="6.9187">
        <ele>642.2</ele>
        <time>2026-05-13T14:29:17Z</time>
      </trkpt>
      <trkpt lat="47.35434" lon="6.91889">
        <ele>643.2</ele>
        <time>2026-05-13T14:29:22Z</time>
      </trkpt>
      <trkpt lat="47.35434" lon="6.91908">
        <ele>644.4</ele>
        <time>2026-05-13T14:29:27Z</time>
      </trkpt>
      <trkpt lat="47.35435" lon="6.91928">
        <ele>645</ele>
        <time>2026-05-13T14:29:32Z</time>
      </trkpt>
      <trkpt lat="47.35438" lon="6.9194">
        <ele>645.4</ele>
        <time>2026-05-13T14:29:35Z</time>
      </trkpt>
      <trkpt lat="47.3544" lon="6.91946">
        <ele>645.6</ele>
        <time>2026-05-13T14:29:37Z</time>
      </trkpt>
      <trkpt lat="47.35442" lon="6.91963">
        <ele>646.2</ele>
        <time>2026-05-13T14:29:42Z</time>
      </trkpt>
      <trkpt lat="47.35442" lon="6.91971">
        <ele>646.4</ele>
        <time>2026-05-13T14:29:44Z</time>
      </trkpt>
      <trkpt lat="47.3544" lon="6.91989">
        <ele>647.2</ele>
        <time>2026-05-13T14:29:48Z</time>
      </trkpt>
      <trkpt lat="47.3544" lon="6.91993">
        <ele>647.6</ele>
        <time>2026-05-13T14:29:49Z</time>
      </trkpt>
      <trkpt lat="47.35445" lon="6.92005">
        <ele>648.2</ele>
        <time>2026-05-13T14:29:53Z</time>
      </trkpt>
      <trkpt lat="47.35448" lon="6.92006">
        <ele>648.4</ele>
        <time>2026-05-13T14:29:54Z</time>
      </trkpt>
      <trkpt lat="47.3545" lon="6.92006">
        <ele>648.8</ele>
        <time>2026-05-13T14:29:55Z</time>
      </trkpt>
      <trkpt lat="47.35451" lon="6.92003">
        <ele>649</ele>
        <time>2026-05-13T14:29:56Z</time>
      </trkpt>
      <trkpt lat="47.35452" lon="6.92001">
        <ele>649.2</ele>
        <time>2026-05-13T14:29:57Z</time>
      </trkpt>
      <trkpt lat="47.35452" lon="6.91998">
        <ele>649.2</ele>
        <time>2026-05-13T14:29:58Z</time>
      </trkpt>
      <trkpt lat="47.35453" lon="6.91989">
        <ele>649.8</ele>
        <time>2026-05-13T14:30:01Z</time>
      </trkpt>
      <trkpt lat="47.35453" lon="6.91985">
        <ele>649.8</ele>
        <time>2026-05-13T14:30:02Z</time>
      </trkpt>
      <trkpt lat="47.35452" lon="6.9197">
        <ele>650.6</ele>
        <time>2026-05-13T14:30:06Z</time>
      </trkpt>
      <trkpt lat="47.35452" lon="6.91966">
        <ele>651</ele>
        <time>2026-05-13T14:30:07Z</time>
      </trkpt>
      <trkpt lat="47.35452" lon="6.91958">
        <ele>651.2</ele>
        <time>2026-05-13T14:30:09Z</time>
      </trkpt>
      <trkpt lat="47.35453" lon="6.91953">
        <ele>651.6</ele>
        <time>2026-05-13T14:30:11Z</time>
      </trkpt>
      <trkpt lat="47.35454" lon="6.91947">
        <ele>652</ele>
        <time>2026-05-13T14:30:13Z</time>
      </trkpt>
      <trkpt lat="47.35456" lon="6.91936">
        <ele>653</ele>
        <time>2026-05-13T14:30:17Z</time>
      </trkpt>
      <trkpt lat="47.35458" lon="6.91934">
        <ele>653.2</ele>
        <time>2026-05-13T14:30:18Z</time>
      </trkpt>
      <trkpt lat="47.3546" lon="6.91929">
        <ele>653.8</ele>
        <time>2026-05-13T14:30:20Z</time>
      </trkpt>
      <trkpt lat="47.35461" lon="6.91926">
        <ele>654</ele>
        <time>2026-05-13T14:30:21Z</time>
      </trkpt>
      <trkpt lat="47.35463" lon="6.91921">
        <ele>654</ele>
        <time>2026-05-13T14:30:23Z</time>
      </trkpt>
      <trkpt lat="47.35464" lon="6.91918">
        <ele>654.2</ele>
        <time>2026-05-13T14:30:24Z</time>
      </trkpt>
      <trkpt lat="47.35469" lon="6.91907">
        <ele>655.2</ele>
        <time>2026-05-13T14:30:28Z</time>
      </trkpt>
      <trkpt lat="47.35473" lon="6.91897">
        <ele>656.2</ele>
        <time>2026-05-13T14:30:31Z</time>
      </trkpt>
      <trkpt lat="47.35474" lon="6.91894">
        <ele>656.6</ele>
        <time>2026-05-13T14:30:32Z</time>
      </trkpt>
      <trkpt lat="47.35475" lon="6.91891">
        <ele>656.8</ele>
        <time>2026-05-13T14:30:33Z</time>
      </trkpt>
      <trkpt lat="47.35477" lon="6.91886">
        <ele>657.4</ele>
        <time>2026-05-13T14:30:35Z</time>
      </trkpt>
      <trkpt lat="47.3548" lon="6.91876">
        <ele>658.4</ele>
        <time>2026-05-13T14:30:38Z</time>
      </trkpt>
      <trkpt lat="47.35481" lon="6.91872">
        <ele>658.8</ele>
        <time>2026-05-13T14:30:39Z</time>
      </trkpt>
      <trkpt lat="47.35481" lon="6.91868">
        <ele>658.8</ele>
        <time>2026-05-13T14:30:40Z</time>
      </trkpt>
      <trkpt lat="47.35482" lon="6.91862">
        <ele>659.2</ele>
        <time>2026-05-13T14:30:42Z</time>
      </trkpt>
      <trkpt lat="47.35484" lon="6.91857">
        <ele>659.6</ele>
        <time>2026-05-13T14:30:43Z</time>
      </trkpt>
      <trkpt lat="47.35485" lon="6.91854">
        <ele>659.8</ele>
        <time>2026-05-13T14:30:44Z</time>
      </trkpt>
      <trkpt lat="47.35485" lon="6.9185">
        <ele>659.8</ele>
        <time>2026-05-13T14:30:45Z</time>
      </trkpt>
      <trkpt lat="47.35486" lon="6.91846">
        <ele>660.2</ele>
        <time>2026-05-13T14:30:46Z</time>
      </trkpt>
      <trkpt lat="47.35487" lon="6.91841">
        <ele>660.2</ele>
        <time>2026-05-13T14:30:47Z</time>
      </trkpt>
      <trkpt lat="47.35489" lon="6.91835">
        <ele>660.6</ele>
        <time>2026-05-13T14:30:48Z</time>
      </trkpt>
      <trkpt lat="47.3549" lon="6.91832">
        <ele>661</ele>
        <time>2026-05-13T14:30:49Z</time>
      </trkpt>
      <trkpt lat="47.3549" lon="6.91826">
        <ele>661.2</ele>
        <time>2026-05-13T14:30:51Z</time>
      </trkpt>
      <trkpt lat="47.35494" lon="6.91813">
        <ele>661.8</ele>
        <time>2026-05-13T14:30:55Z</time>
      </trkpt>
      <trkpt lat="47.35496" lon="6.9181">
        <ele>662</ele>
        <time>2026-05-13T14:30:56Z</time>
      </trkpt>
      <trkpt lat="47.35503" lon="6.91804">
        <ele>662.8</ele>
        <time>2026-05-13T14:31:01Z</time>
      </trkpt>
      <trkpt lat="47.35504" lon="6.91802">
        <ele>663.4</ele>
        <time>2026-05-13T14:31:03Z</time>
      </trkpt>
      <trkpt lat="47.35512" lon="6.91792">
        <ele>664.4</ele>
        <time>2026-05-13T14:31:06Z</time>
      </trkpt>
      <trkpt lat="47.35513" lon="6.91789">
        <ele>664.8</ele>
        <time>2026-05-13T14:31:07Z</time>
      </trkpt>
      <trkpt lat="47.35515" lon="6.91786">
        <ele>665.2</ele>
        <time>2026-05-13T14:31:09Z</time>
      </trkpt>
      <trkpt lat="47.35519" lon="6.91783">
        <ele>665.6</ele>
        <time>2026-05-13T14:31:11Z</time>
      </trkpt>
      <trkpt lat="47.35522" lon="6.91782">
        <ele>665.6</ele>
        <time>2026-05-13T14:31:12Z</time>
      </trkpt>
      <trkpt lat="47.35523" lon="6.91781">
        <ele>665.8</ele>
        <time>2026-05-13T14:31:13Z</time>
      </trkpt>
      <trkpt lat="47.35526" lon="6.91775">
        <ele>666.2</ele>
        <time>2026-05-13T14:31:15Z</time>
      </trkpt>
      <trkpt lat="47.3553" lon="6.91771">
        <ele>666.6</ele>
        <time>2026-05-13T14:31:17Z</time>
      </trkpt>
      <trkpt lat="47.35532" lon="6.91768">
        <ele>666.8</ele>
        <time>2026-05-13T14:31:18Z</time>
      </trkpt>
      <trkpt lat="47.35535" lon="6.91765">
        <ele>667</ele>
        <time>2026-05-13T14:31:19Z</time>
      </trkpt>
      <trkpt lat="47.35538" lon="6.91763">
        <ele>667</ele>
        <time>2026-05-13T14:31:20Z</time>
      </trkpt>
      <trkpt lat="47.35541" lon="6.9176">
        <ele>667.6</ele>
        <time>2026-05-13T14:31:22Z</time>
      </trkpt>
      <trkpt lat="47.35541" lon="6.91757">
        <ele>667.8</ele>
        <time>2026-05-13T14:31:23Z</time>
      </trkpt>
      <trkpt lat="47.35543" lon="6.91753">
        <ele>668</ele>
        <time>2026-05-13T14:31:25Z</time>
      </trkpt>
      <trkpt lat="47.35547" lon="6.91744">
        <ele>668.4</ele>
        <time>2026-05-13T14:31:27Z</time>
      </trkpt>
      <trkpt lat="47.35551" lon="6.91744">
        <ele>669</ele>
        <time>2026-05-13T14:31:28Z</time>
      </trkpt>
      <trkpt lat="47.35552" lon="6.91742">
        <ele>669</ele>
        <time>2026-05-13T14:31:29Z</time>
      </trkpt>
      <trkpt lat="47.35555" lon="6.9173">
        <ele>669.6</ele>
        <time>2026-05-13T14:31:33Z</time>
      </trkpt>
      <trkpt lat="47.35558" lon="6.91727">
        <ele>670</ele>
        <time>2026-05-13T14:31:35Z</time>
      </trkpt>
      <trkpt lat="47.3556" lon="6.91723">
        <ele>670.6</ele>
        <time>2026-05-13T14:31:37Z</time>
      </trkpt>
      <trkpt lat="47.35561" lon="6.91721">
        <ele>671</ele>
        <time>2026-05-13T14:31:38Z</time>
      </trkpt>
      <trkpt lat="47.35563" lon="6.91719">
        <ele>671.2</ele>
        <time>2026-05-13T14:31:39Z</time>
      </trkpt>
      <trkpt lat="47.35564" lon="6.91715">
        <ele>671.8</ele>
        <time>2026-05-13T14:31:40Z</time>
      </trkpt>
      <trkpt lat="47.35567" lon="6.91711">
        <ele>672.4</ele>
        <time>2026-05-13T14:31:42Z</time>
      </trkpt>
      <trkpt lat="47.35569" lon="6.91709">
        <ele>672.8</ele>
        <time>2026-05-13T14:31:43Z</time>
      </trkpt>
      <trkpt lat="47.3557" lon="6.91707">
        <ele>672.8</ele>
        <time>2026-05-13T14:31:44Z</time>
      </trkpt>
      <trkpt lat="47.35575" lon="6.91704">
        <ele>673.6</ele>
        <time>2026-05-13T14:31:46Z</time>
      </trkpt>
      <trkpt lat="47.35577" lon="6.91703">
        <ele>674</ele>
        <time>2026-05-13T14:31:47Z</time>
      </trkpt>
      <trkpt lat="47.35578" lon="6.91701">
        <ele>674.4</ele>
        <time>2026-05-13T14:31:48Z</time>
      </trkpt>
      <trkpt lat="47.3558" lon="6.91698">
        <ele>674.6</ele>
        <time>2026-05-13T14:31:49Z</time>
      </trkpt>
      <trkpt lat="47.35582" lon="6.91695">
        <ele>675</ele>
        <time>2026-05-13T14:31:50Z</time>
      </trkpt>
      <trkpt lat="47.35585" lon="6.91691">
        <ele>675.4</ele>
        <time>2026-05-13T14:31:52Z</time>
      </trkpt>
      <trkpt lat="47.35589" lon="6.91687">
        <ele>675.6</ele>
        <time>2026-05-13T14:31:54Z</time>
      </trkpt>
      <trkpt lat="47.35599" lon="6.91678">
        <ele>676.8</ele>
        <time>2026-05-13T14:31:59Z</time>
      </trkpt>
      <trkpt lat="47.35605" lon="6.9167">
        <ele>677.6</ele>
        <time>2026-05-13T14:32:03Z</time>
      </trkpt>
      <trkpt lat="47.35606" lon="6.91667">
        <ele>677.8</ele>
        <time>2026-05-13T14:32:04Z</time>
      </trkpt>
      <trkpt lat="47.35608" lon="6.9166">
        <ele>678.2</ele>
        <time>2026-05-13T14:32:06Z</time>
      </trkpt>
      <trkpt lat="47.3561" lon="6.91655">
        <ele>678.8</ele>
        <time>2026-05-13T14:32:08Z</time>
      </trkpt>
      <trkpt lat="47.35612" lon="6.91653">
        <ele>679</ele>
        <time>2026-05-13T14:32:09Z</time>
      </trkpt>
      <trkpt lat="47.35616" lon="6.9165">
        <ele>679.4</ele>
        <time>2026-05-13T14:32:11Z</time>
      </trkpt>
      <trkpt lat="47.35619" lon="6.91649">
        <ele>679.6</ele>
        <time>2026-05-13T14:32:12Z</time>
      </trkpt>
      <trkpt lat="47.35626" lon="6.91646">
        <ele>680.2</ele>
        <time>2026-05-13T14:32:15Z</time>
      </trkpt>
      <trkpt lat="47.35629" lon="6.9164">
        <ele>680.6</ele>
        <time>2026-05-13T14:32:17Z</time>
      </trkpt>
      <trkpt lat="47.35632" lon="6.91635">
        <ele>681</ele>
        <time>2026-05-13T14:32:19Z</time>
      </trkpt>
      <trkpt lat="47.35635" lon="6.91633">
        <ele>681.2</ele>
        <time>2026-05-13T14:32:20Z</time>
      </trkpt>
      <trkpt lat="47.35637" lon="6.9163">
        <ele>681.4</ele>
        <time>2026-05-13T14:32:21Z</time>
      </trkpt>
      <trkpt lat="47.35639" lon="6.91629">
        <ele>681.6</ele>
        <time>2026-05-13T14:32:22Z</time>
      </trkpt>
      <trkpt lat="47.35641" lon="6.91626">
        <ele>682.2</ele>
        <time>2026-05-13T14:32:23Z</time>
      </trkpt>
      <trkpt lat="47.35643" lon="6.91625">
        <ele>682.4</ele>
        <time>2026-05-13T14:32:24Z</time>
      </trkpt>
      <trkpt lat="47.35649" lon="6.91621">
        <ele>682.8</ele>
        <time>2026-05-13T14:32:27Z</time>
      </trkpt>
      <trkpt lat="47.35651" lon="6.91614">
        <ele>683.2</ele>
        <time>2026-05-13T14:32:29Z</time>
      </trkpt>
      <trkpt lat="47.35654" lon="6.91613">
        <ele>683.4</ele>
        <time>2026-05-13T14:32:30Z</time>
      </trkpt>
      <trkpt lat="47.35656" lon="6.91607">
        <ele>684</ele>
        <time>2026-05-13T14:32:32Z</time>
      </trkpt>
      <trkpt lat="47.35658" lon="6.91603">
        <ele>684.2</ele>
        <time>2026-05-13T14:32:33Z</time>
      </trkpt>
      <trkpt lat="47.35668" lon="6.91599">
        <ele>684.8</ele>
        <time>2026-05-13T14:32:37Z</time>
      </trkpt>
      <trkpt lat="47.35675" lon="6.91596">
        <ele>685.4</ele>
        <time>2026-05-13T14:32:40Z</time>
      </trkpt>
      <trkpt lat="47.35676" lon="6.91594">
        <ele>685.6</ele>
        <time>2026-05-13T14:32:41Z</time>
      </trkpt>
      <trkpt lat="47.35682" lon="6.91584">
        <ele>686.6</ele>
        <time>2026-05-13T14:32:45Z</time>
      </trkpt>
      <trkpt lat="47.35681" lon="6.91582">
        <ele>686.8</ele>
        <time>2026-05-13T14:32:46Z</time>
      </trkpt>
      <trkpt lat="47.35682" lon="6.91581">
        <ele>687</ele>
        <time>2026-05-13T14:32:47Z</time>
      </trkpt>
      <trkpt lat="47.35683" lon="6.91579">
        <ele>687</ele>
        <time>2026-05-13T14:32:48Z</time>
      </trkpt>
      <trkpt lat="47.35691" lon="6.91571">
        <ele>687.6</ele>
        <time>2026-05-13T14:32:51Z</time>
      </trkpt>
      <trkpt lat="47.35696" lon="6.91572">
        <ele>688.4</ele>
        <time>2026-05-13T14:32:54Z</time>
      </trkpt>
      <trkpt lat="47.35698" lon="6.9157">
        <ele>688.6</ele>
        <time>2026-05-13T14:32:55Z</time>
      </trkpt>
      <trkpt lat="47.35702" lon="6.91568">
        <ele>689</ele>
        <time>2026-05-13T14:32:56Z</time>
      </trkpt>
      <trkpt lat="47.35704" lon="6.91565">
        <ele>689.4</ele>
        <time>2026-05-13T14:32:57Z</time>
      </trkpt>
      <trkpt lat="47.35706" lon="6.91564">
        <ele>689.8</ele>
        <time>2026-05-13T14:32:58Z</time>
      </trkpt>
      <trkpt lat="47.35713" lon="6.91565">
        <ele>690.2</ele>
        <time>2026-05-13T14:33:00Z</time>
      </trkpt>
      <trkpt lat="47.35718" lon="6.91562">
        <ele>691.2</ele>
        <time>2026-05-13T14:33:02Z</time>
      </trkpt>
      <trkpt lat="47.3572" lon="6.91561">
        <ele>691.4</ele>
        <time>2026-05-13T14:33:03Z</time>
      </trkpt>
      <trkpt lat="47.35725" lon="6.91557">
        <ele>692.2</ele>
        <time>2026-05-13T14:33:06Z</time>
      </trkpt>
      <trkpt lat="47.35726" lon="6.91555">
        <ele>692.6</ele>
        <time>2026-05-13T14:33:07Z</time>
      </trkpt>
      <trkpt lat="47.3573" lon="6.91552">
        <ele>693</ele>
        <time>2026-05-13T14:33:09Z</time>
      </trkpt>
      <trkpt lat="47.35732" lon="6.91554">
        <ele>693.2</ele>
        <time>2026-05-13T14:33:10Z</time>
      </trkpt>
      <trkpt lat="47.35735" lon="6.91555">
        <ele>693.8</ele>
        <time>2026-05-13T14:33:11Z</time>
      </trkpt>
      <trkpt lat="47.35741" lon="6.91558">
        <ele>694.6</ele>
        <time>2026-05-13T14:33:14Z</time>
      </trkpt>
      <trkpt lat="47.35743" lon="6.91557">
        <ele>694.6</ele>
        <time>2026-05-13T14:33:15Z</time>
      </trkpt>
      <trkpt lat="47.35744" lon="6.91557">
        <ele>694.8</ele>
        <time>2026-05-13T14:33:16Z</time>
      </trkpt>
      <trkpt lat="47.35749" lon="6.91555">
        <ele>695</ele>
        <time>2026-05-13T14:33:18Z</time>
      </trkpt>
      <trkpt lat="47.35751" lon="6.91553">
        <ele>695.6</ele>
        <time>2026-05-13T14:33:19Z</time>
      </trkpt>
      <trkpt lat="47.35753" lon="6.91551">
        <ele>696</ele>
        <time>2026-05-13T14:33:21Z</time>
      </trkpt>
      <trkpt lat="47.35757" lon="6.91549">
        <ele>696.6</ele>
        <time>2026-05-13T14:33:23Z</time>
      </trkpt>
      <trkpt lat="47.35758" lon="6.91548">
        <ele>696.8</ele>
        <time>2026-05-13T14:33:24Z</time>
      </trkpt>
      <trkpt lat="47.3576" lon="6.91547">
        <ele>697</ele>
        <time>2026-05-13T14:33:25Z</time>
      </trkpt>
      <trkpt lat="47.35761" lon="6.91545">
        <ele>697.2</ele>
        <time>2026-05-13T14:33:26Z</time>
      </trkpt>
      <trkpt lat="47.35767" lon="6.91544">
        <ele>698.2</ele>
        <time>2026-05-13T14:33:29Z</time>
      </trkpt>
      <trkpt lat="47.35769" lon="6.91545">
        <ele>698.6</ele>
        <time>2026-05-13T14:33:30Z</time>
      </trkpt>
      <trkpt lat="47.35779" lon="6.91553">
        <ele>699.8</ele>
        <time>2026-05-13T14:33:35Z</time>
      </trkpt>
      <trkpt lat="47.3579" lon="6.91552">
        <ele>699.6</ele>
        <time>2026-05-13T14:33:43Z</time>
      </trkpt>
      <trkpt lat="47.3579" lon="6.91552">
        <ele>699.6</ele>
        <time>2026-05-13T14:33:44Z</time>
      </trkpt>
      <trkpt lat="47.35789" lon="6.91547">
        <ele>699.2</ele>
        <time>2026-05-13T14:34:06Z</time>
      </trkpt>
      <trkpt lat="47.35787" lon="6.91546">
        <ele>699.2</ele>
        <time>2026-05-13T14:34:08Z</time>
      </trkpt>
      <trkpt lat="47.35784" lon="6.91543">
        <ele>699.6</ele>
        <time>2026-05-13T14:34:14Z</time>
      </trkpt>
      <trkpt lat="47.35789" lon="6.91546">
        <ele>699.2</ele>
        <time>2026-05-13T14:40:16Z</time>
      </trkpt>
      <trkpt lat="47.35802" lon="6.91547">
        <ele>698.8</ele>
        <time>2026-05-13T14:40:21Z</time>
      </trkpt>
      <trkpt lat="47.35816" lon="6.91549">
        <ele>698.6</ele>
        <time>2026-05-13T14:40:25Z</time>
      </trkpt>
      <trkpt lat="47.3583" lon="6.91551">
        <ele>698.2</ele>
        <time>2026-05-13T14:40:28Z</time>
      </trkpt>
      <trkpt lat="47.35836" lon="6.9155">
        <ele>698.2</ele>
        <time>2026-05-13T14:40:29Z</time>
      </trkpt>
      <trkpt lat="47.35841" lon="6.91549">
        <ele>697.8</ele>
        <time>2026-05-13T14:40:30Z</time>
      </trkpt>
      <trkpt lat="47.35856" lon="6.91548">
        <ele>696.8</ele>
        <time>2026-05-13T14:40:33Z</time>
      </trkpt>
      <trkpt lat="47.35871" lon="6.91547">
        <ele>695.6</ele>
        <time>2026-05-13T14:40:36Z</time>
      </trkpt>
      <trkpt lat="47.35876" lon="6.91547">
        <ele>695</ele>
        <time>2026-05-13T14:40:37Z</time>
      </trkpt>
      <trkpt lat="47.3588" lon="6.91547">
        <ele>694.4</ele>
        <time>2026-05-13T14:40:38Z</time>
      </trkpt>
      <trkpt lat="47.35895" lon="6.91547">
        <ele>693.4</ele>
        <time>2026-05-13T14:40:41Z</time>
      </trkpt>
      <trkpt lat="47.35904" lon="6.91547">
        <ele>692.6</ele>
        <time>2026-05-13T14:40:43Z</time>
      </trkpt>
      <trkpt lat="47.35909" lon="6.91547">
        <ele>692.4</ele>
        <time>2026-05-13T14:40:44Z</time>
      </trkpt>
      <trkpt lat="47.35914" lon="6.91547">
        <ele>692</ele>
        <time>2026-05-13T14:40:45Z</time>
      </trkpt>
      <trkpt lat="47.35931" lon="6.91548">
        <ele>691</ele>
        <time>2026-05-13T14:40:48Z</time>
      </trkpt>
      <trkpt lat="47.35938" lon="6.91548">
        <ele>690.6</ele>
        <time>2026-05-13T14:40:49Z</time>
      </trkpt>
      <trkpt lat="47.35951" lon="6.91549">
        <ele>689.8</ele>
        <time>2026-05-13T14:40:51Z</time>
      </trkpt>
      <trkpt lat="47.35966" lon="6.91548">
        <ele>688.8</ele>
        <time>2026-05-13T14:40:53Z</time>
      </trkpt>
      <trkpt lat="47.35974" lon="6.91549">
        <ele>688</ele>
        <time>2026-05-13T14:40:54Z</time>
      </trkpt>
      <trkpt lat="47.35982" lon="6.91549">
        <ele>687.2</ele>
        <time>2026-05-13T14:40:55Z</time>
      </trkpt>
      <trkpt lat="47.35998" lon="6.91548">
        <ele>686</ele>
        <time>2026-05-13T14:40:57Z</time>
      </trkpt>
      <trkpt lat="47.36025" lon="6.91549">
        <ele>684.4</ele>
        <time>2026-05-13T14:41:00Z</time>
      </trkpt>
      <trkpt lat="47.36043" lon="6.91554">
        <ele>683.4</ele>
        <time>2026-05-13T14:41:02Z</time>
      </trkpt>
      <trkpt lat="47.36052" lon="6.91558">
        <ele>683.2</ele>
        <time>2026-05-13T14:41:03Z</time>
      </trkpt>
      <trkpt lat="47.36061" lon="6.91563">
        <ele>682.2</ele>
        <time>2026-05-13T14:41:04Z</time>
      </trkpt>
      <trkpt lat="47.36088" lon="6.91577">
        <ele>680.8</ele>
        <time>2026-05-13T14:41:07Z</time>
      </trkpt>
      <trkpt lat="47.36109" lon="6.91588">
        <ele>679.4</ele>
        <time>2026-05-13T14:41:09Z</time>
      </trkpt>
      <trkpt lat="47.36119" lon="6.91593">
        <ele>678.8</ele>
        <time>2026-05-13T14:41:10Z</time>
      </trkpt>
      <trkpt lat="47.36129" lon="6.91598">
        <ele>678</ele>
        <time>2026-05-13T14:41:11Z</time>
      </trkpt>
      <trkpt lat="47.36148" lon="6.91607">
        <ele>676.4</ele>
        <time>2026-05-13T14:41:13Z</time>
      </trkpt>
      <trkpt lat="47.36159" lon="6.91612">
        <ele>675.4</ele>
        <time>2026-05-13T14:41:14Z</time>
      </trkpt>
      <trkpt lat="47.3618" lon="6.91624">
        <ele>674.2</ele>
        <time>2026-05-13T14:41:16Z</time>
      </trkpt>
      <trkpt lat="47.36191" lon="6.91629">
        <ele>673</ele>
        <time>2026-05-13T14:41:17Z</time>
      </trkpt>
      <trkpt lat="47.36211" lon="6.91638">
        <ele>671.8</ele>
        <time>2026-05-13T14:41:19Z</time>
      </trkpt>
      <trkpt lat="47.36233" lon="6.91645">
        <ele>670.6</ele>
        <time>2026-05-13T14:41:21Z</time>
      </trkpt>
      <trkpt lat="47.36255" lon="6.91648">
        <ele>669</ele>
        <time>2026-05-13T14:41:23Z</time>
      </trkpt>
      <trkpt lat="47.36278" lon="6.9165">
        <ele>667.8</ele>
        <time>2026-05-13T14:41:25Z</time>
      </trkpt>
      <trkpt lat="47.363" lon="6.91654">
        <ele>666.4</ele>
        <time>2026-05-13T14:41:27Z</time>
      </trkpt>
      <trkpt lat="47.36312" lon="6.91656">
        <ele>665.4</ele>
        <time>2026-05-13T14:41:28Z</time>
      </trkpt>
      <trkpt lat="47.36326" lon="6.91658">
        <ele>664.2</ele>
        <time>2026-05-13T14:41:29Z</time>
      </trkpt>
      <trkpt lat="47.3635" lon="6.91664">
        <ele>662.4</ele>
        <time>2026-05-13T14:41:31Z</time>
      </trkpt>
      <trkpt lat="47.36362" lon="6.91667">
        <ele>661.6</ele>
        <time>2026-05-13T14:41:32Z</time>
      </trkpt>
      <trkpt lat="47.36374" lon="6.91671">
        <ele>660.2</ele>
        <time>2026-05-13T14:41:33Z</time>
      </trkpt>
      <trkpt lat="47.36386" lon="6.91674">
        <ele>658.4</ele>
        <time>2026-05-13T14:41:34Z</time>
      </trkpt>
      <trkpt lat="47.36409" lon="6.91681">
        <ele>655.8</ele>
        <time>2026-05-13T14:41:36Z</time>
      </trkpt>
      <trkpt lat="47.36432" lon="6.91685">
        <ele>653</ele>
        <time>2026-05-13T14:41:38Z</time>
      </trkpt>
      <trkpt lat="47.36442" lon="6.91685">
        <ele>652</ele>
        <time>2026-05-13T14:41:39Z</time>
      </trkpt>
      <trkpt lat="47.36453" lon="6.91684">
        <ele>650.6</ele>
        <time>2026-05-13T14:41:40Z</time>
      </trkpt>
      <trkpt lat="47.36464" lon="6.91681">
        <ele>649</ele>
        <time>2026-05-13T14:41:41Z</time>
      </trkpt>
      <trkpt lat="47.36477" lon="6.91676">
        <ele>648.2</ele>
        <time>2026-05-13T14:41:42Z</time>
      </trkpt>
      <trkpt lat="47.36488" lon="6.91672">
        <ele>646.6</ele>
        <time>2026-05-13T14:41:43Z</time>
      </trkpt>
      <trkpt lat="47.36511" lon="6.91662">
        <ele>644.2</ele>
        <time>2026-05-13T14:41:45Z</time>
      </trkpt>
      <trkpt lat="47.36523" lon="6.91656">
        <ele>642.8</ele>
        <time>2026-05-13T14:41:46Z</time>
      </trkpt>
      <trkpt lat="47.36545" lon="6.91642">
        <ele>640.8</ele>
        <time>2026-05-13T14:41:48Z</time>
      </trkpt>
      <trkpt lat="47.36566" lon="6.91624">
        <ele>639.4</ele>
        <time>2026-05-13T14:41:50Z</time>
      </trkpt>
      <trkpt lat="47.36587" lon="6.91608">
        <ele>638</ele>
        <time>2026-05-13T14:41:52Z</time>
      </trkpt>
      <trkpt lat="47.36597" lon="6.916">
        <ele>637</ele>
        <time>2026-05-13T14:41:53Z</time>
      </trkpt>
      <trkpt lat="47.36605" lon="6.91596">
        <ele>636.4</ele>
        <time>2026-05-13T14:41:54Z</time>
      </trkpt>
      <trkpt lat="47.36618" lon="6.9159">
        <ele>635.2</ele>
        <time>2026-05-13T14:41:55Z</time>
      </trkpt>
      <trkpt lat="47.36628" lon="6.91587">
        <ele>634.8</ele>
        <time>2026-05-13T14:41:56Z</time>
      </trkpt>
      <trkpt lat="47.36638" lon="6.91584">
        <ele>633.6</ele>
        <time>2026-05-13T14:41:57Z</time>
      </trkpt>
      <trkpt lat="47.36648" lon="6.91583">
        <ele>632</ele>
        <time>2026-05-13T14:41:58Z</time>
      </trkpt>
      <trkpt lat="47.36665" lon="6.91581">
        <ele>630.4</ele>
        <time>2026-05-13T14:42:00Z</time>
      </trkpt>
      <trkpt lat="47.36693" lon="6.91579">
        <ele>629.2</ele>
        <time>2026-05-13T14:42:03Z</time>
      </trkpt>
      <trkpt lat="47.367" lon="6.91578">
        <ele>629</ele>
        <time>2026-05-13T14:42:04Z</time>
      </trkpt>
      <trkpt lat="47.36742" lon="6.91581">
        <ele>628.4</ele>
        <time>2026-05-13T14:42:09Z</time>
      </trkpt>
      <trkpt lat="47.36789" lon="6.91593">
        <ele>628.2</ele>
        <time>2026-05-13T14:42:15Z</time>
      </trkpt>
      <trkpt lat="47.36796" lon="6.91595">
        <ele>628.4</ele>
        <time>2026-05-13T14:42:16Z</time>
      </trkpt>
      <trkpt lat="47.36833" lon="6.91605">
        <ele>627.4</ele>
        <time>2026-05-13T14:42:21Z</time>
      </trkpt>
      <trkpt lat="47.3684" lon="6.91606">
        <ele>627</ele>
        <time>2026-05-13T14:42:22Z</time>
      </trkpt>
      <trkpt lat="47.36847" lon="6.91607">
        <ele>626.8</ele>
        <time>2026-05-13T14:42:23Z</time>
      </trkpt>
      <trkpt lat="47.36854" lon="6.91608">
        <ele>626.8</ele>
        <time>2026-05-13T14:42:24Z</time>
      </trkpt>
      <trkpt lat="47.3687" lon="6.91609">
        <ele>626</ele>
        <time>2026-05-13T14:42:26Z</time>
      </trkpt>
      <trkpt lat="47.36879" lon="6.91609">
        <ele>625.6</ele>
        <time>2026-05-13T14:42:27Z</time>
      </trkpt>
      <trkpt lat="47.36899" lon="6.91614">
        <ele>625</ele>
        <time>2026-05-13T14:42:29Z</time>
      </trkpt>
      <trkpt lat="47.36919" lon="6.91622">
        <ele>624.4</ele>
        <time>2026-05-13T14:42:31Z</time>
      </trkpt>
      <trkpt lat="47.36929" lon="6.91627">
        <ele>623.8</ele>
        <time>2026-05-13T14:42:32Z</time>
      </trkpt>
      <trkpt lat="47.36949" lon="6.91635">
        <ele>622.6</ele>
        <time>2026-05-13T14:42:34Z</time>
      </trkpt>
      <trkpt lat="47.36969" lon="6.91646">
        <ele>621.2</ele>
        <time>2026-05-13T14:42:36Z</time>
      </trkpt>
      <trkpt lat="47.36978" lon="6.91652">
        <ele>620.8</ele>
        <time>2026-05-13T14:42:37Z</time>
      </trkpt>
      <trkpt lat="47.36986" lon="6.91659">
        <ele>620</ele>
        <time>2026-05-13T14:42:38Z</time>
      </trkpt>
      <trkpt lat="47.37002" lon="6.91674">
        <ele>619</ele>
        <time>2026-05-13T14:42:40Z</time>
      </trkpt>
      <trkpt lat="47.37008" lon="6.9168">
        <ele>618.4</ele>
        <time>2026-05-13T14:42:41Z</time>
      </trkpt>
      <trkpt lat="47.37031" lon="6.91702">
        <ele>617.8</ele>
        <time>2026-05-13T14:42:44Z</time>
      </trkpt>
      <trkpt lat="47.37052" lon="6.91719">
        <ele>617.8</ele>
        <time>2026-05-13T14:42:47Z</time>
      </trkpt>
      <trkpt lat="47.37085" lon="6.91738">
        <ele>618.2</ele>
        <time>2026-05-13T14:42:52Z</time>
      </trkpt>
      <trkpt lat="47.37121" lon="6.91753">
        <ele>618.4</ele>
        <time>2026-05-13T14:42:58Z</time>
      </trkpt>
      <trkpt lat="47.3716" lon="6.9177">
        <ele>618.4</ele>
        <time>2026-05-13T14:43:05Z</time>
      </trkpt>
      <trkpt lat="47.37194" lon="6.91785">
        <ele>618.2</ele>
        <time>2026-05-13T14:43:12Z</time>
      </trkpt>
      <trkpt lat="47.37223" lon="6.91796">
        <ele>618.4</ele>
        <time>2026-05-13T14:43:18Z</time>
      </trkpt>
      <trkpt lat="47.37242" lon="6.91805">
        <ele>618.8</ele>
        <time>2026-05-13T14:43:22Z</time>
      </trkpt>
      <trkpt lat="47.37251" lon="6.91808">
        <ele>619</ele>
        <time>2026-05-13T14:43:24Z</time>
      </trkpt>
      <trkpt lat="47.37295" lon="6.91818">
        <ele>619.4</ele>
        <time>2026-05-13T14:43:33Z</time>
      </trkpt>
      <trkpt lat="47.3732" lon="6.91816">
        <ele>619.4</ele>
        <time>2026-05-13T14:43:38Z</time>
      </trkpt>
      <trkpt lat="47.3733" lon="6.91813">
        <ele>619.6</ele>
        <time>2026-05-13T14:43:40Z</time>
      </trkpt>
      <trkpt lat="47.37359" lon="6.91806">
        <ele>619.8</ele>
        <time>2026-05-13T14:43:46Z</time>
      </trkpt>
      <trkpt lat="47.37381" lon="6.918">
        <ele>619.8</ele>
        <time>2026-05-13T14:43:51Z</time>
      </trkpt>
      <trkpt lat="47.37389" lon="6.91797">
        <ele>620.4</ele>
        <time>2026-05-13T14:43:53Z</time>
      </trkpt>
      <trkpt lat="47.37409" lon="6.91793">
        <ele>621.8</ele>
        <time>2026-05-13T14:43:58Z</time>
      </trkpt>
      <trkpt lat="47.37425" lon="6.91789">
        <ele>622.8</ele>
        <time>2026-05-13T14:44:02Z</time>
      </trkpt>
      <trkpt lat="47.37446" lon="6.91794">
        <ele>623.8</ele>
        <time>2026-05-13T14:44:08Z</time>
      </trkpt>
      <trkpt lat="47.37459" lon="6.9181">
        <ele>624.6</ele>
        <time>2026-05-13T14:44:13Z</time>
      </trkpt>
      <trkpt lat="47.37466" lon="6.9182">
        <ele>625</ele>
        <time>2026-05-13T14:44:16Z</time>
      </trkpt>
      <trkpt lat="47.37473" lon="6.91834">
        <ele>625.6</ele>
        <time>2026-05-13T14:44:20Z</time>
      </trkpt>
      <trkpt lat="47.37483" lon="6.9185">
        <ele>626</ele>
        <time>2026-05-13T14:44:25Z</time>
      </trkpt>
      <trkpt lat="47.37487" lon="6.91863">
        <ele>626.8</ele>
        <time>2026-05-13T14:44:28Z</time>
      </trkpt>
      <trkpt lat="47.37489" lon="6.91874">
        <ele>627.2</ele>
        <time>2026-05-13T14:44:30Z</time>
      </trkpt>
      <trkpt lat="47.37491" lon="6.91884">
        <ele>627.4</ele>
        <time>2026-05-13T14:44:32Z</time>
      </trkpt>
      <trkpt lat="47.37492" lon="6.91891">
        <ele>627.4</ele>
        <time>2026-05-13T14:44:33Z</time>
      </trkpt>
      <trkpt lat="47.37493" lon="6.91897">
        <ele>627.4</ele>
        <time>2026-05-13T14:44:34Z</time>
      </trkpt>
      <trkpt lat="47.37499" lon="6.91944">
        <ele>627.4</ele>
        <time>2026-05-13T14:44:42Z</time>
      </trkpt>
      <trkpt lat="47.37502" lon="6.91985">
        <ele>628.4</ele>
        <time>2026-05-13T14:44:49Z</time>
      </trkpt>
      <trkpt lat="47.37503" lon="6.91997">
        <ele>629</ele>
        <time>2026-05-13T14:44:51Z</time>
      </trkpt>
      <trkpt lat="47.37504" lon="6.92003">
        <ele>629.6</ele>
        <time>2026-05-13T14:44:52Z</time>
      </trkpt>
      <trkpt lat="47.37506" lon="6.92031">
        <ele>630.6</ele>
        <time>2026-05-13T14:44:57Z</time>
      </trkpt>
      <trkpt lat="47.37507" lon="6.92043">
        <ele>631</ele>
        <time>2026-05-13T14:44:59Z</time>
      </trkpt>
      <trkpt lat="47.37509" lon="6.9207">
        <ele>631.8</ele>
        <time>2026-05-13T14:45:04Z</time>
      </trkpt>
      <trkpt lat="47.37511" lon="6.9208">
        <ele>632</ele>
        <time>2026-05-13T14:45:06Z</time>
      </trkpt>
      <trkpt lat="47.37515" lon="6.92108">
        <ele>632.8</ele>
        <time>2026-05-13T14:45:11Z</time>
      </trkpt>
      <trkpt lat="47.37518" lon="6.92121">
        <ele>633</ele>
        <time>2026-05-13T14:45:13Z</time>
      </trkpt>
      <trkpt lat="47.37528" lon="6.92164">
        <ele>633</ele>
        <time>2026-05-13T14:45:18Z</time>
      </trkpt>
      <trkpt lat="47.37541" lon="6.92226">
        <ele>631.6</ele>
        <time>2026-05-13T14:45:24Z</time>
      </trkpt>
      <trkpt lat="47.37546" lon="6.92259">
        <ele>631</ele>
        <time>2026-05-13T14:45:27Z</time>
      </trkpt>
      <trkpt lat="47.37547" lon="6.9227">
        <ele>630.8</ele>
        <time>2026-05-13T14:45:28Z</time>
      </trkpt>
      <trkpt lat="47.3755" lon="6.92301">
        <ele>630.2</ele>
        <time>2026-05-13T14:45:31Z</time>
      </trkpt>
      <trkpt lat="47.37557" lon="6.92353">
        <ele>629.8</ele>
        <time>2026-05-13T14:45:37Z</time>
      </trkpt>
      <trkpt lat="47.37564" lon="6.92399">
        <ele>631</ele>
        <time>2026-05-13T14:45:43Z</time>
      </trkpt>
      <trkpt lat="47.37568" lon="6.92459">
        <ele>631.4</ele>
        <time>2026-05-13T14:45:50Z</time>
      </trkpt>
      <trkpt lat="47.37573" lon="6.92526">
        <ele>630.2</ele>
        <time>2026-05-13T14:45:56Z</time>
      </trkpt>
      <trkpt lat="47.37574" lon="6.9255">
        <ele>629.6</ele>
        <time>2026-05-13T14:45:58Z</time>
      </trkpt>
      <trkpt lat="47.37574" lon="6.92575">
        <ele>628.6</ele>
        <time>2026-05-13T14:46:00Z</time>
      </trkpt>
      <trkpt lat="47.37574" lon="6.92613">
        <ele>627.8</ele>
        <time>2026-05-13T14:46:03Z</time>
      </trkpt>
      <trkpt lat="47.37573" lon="6.92649">
        <ele>627</ele>
        <time>2026-05-13T14:46:06Z</time>
      </trkpt>
      <trkpt lat="47.37574" lon="6.92695">
        <ele>625.8</ele>
        <time>2026-05-13T14:46:10Z</time>
      </trkpt>
      <trkpt lat="47.37574" lon="6.92706">
        <ele>625.6</ele>
        <time>2026-05-13T14:46:11Z</time>
      </trkpt>
      <trkpt lat="47.3757" lon="6.92771">
        <ele>625.2</ele>
        <time>2026-05-13T14:46:17Z</time>
      </trkpt>
      <trkpt lat="47.3757" lon="6.92782">
        <ele>625</ele>
        <time>2026-05-13T14:46:18Z</time>
      </trkpt>
      <trkpt lat="47.37561" lon="6.92865">
        <ele>624.2</ele>
        <time>2026-05-13T14:46:26Z</time>
      </trkpt>
      <trkpt lat="47.37558" lon="6.92909">
        <ele>624.4</ele>
        <time>2026-05-13T14:46:31Z</time>
      </trkpt>
      <trkpt lat="47.37552" lon="6.92953">
        <ele>625.4</ele>
        <time>2026-05-13T14:46:37Z</time>
      </trkpt>
      <trkpt lat="47.3755" lon="6.92977">
        <ele>626</ele>
        <time>2026-05-13T14:46:40Z</time>
      </trkpt>
      <trkpt lat="47.37547" lon="6.93019">
        <ele>627</ele>
        <time>2026-05-13T14:46:45Z</time>
      </trkpt>
      <trkpt lat="47.37546" lon="6.93047">
        <ele>627</ele>
        <time>2026-05-13T14:46:48Z</time>
      </trkpt>
      <trkpt lat="47.37544" lon="6.93095">
        <ele>627.2</ele>
        <time>2026-05-13T14:46:53Z</time>
      </trkpt>
      <trkpt lat="47.37547" lon="6.93159">
        <ele>626.4</ele>
        <time>2026-05-13T14:46:59Z</time>
      </trkpt>
      <trkpt lat="47.37549" lon="6.93185">
        <ele>625.8</ele>
        <time>2026-05-13T14:47:01Z</time>
      </trkpt>
      <trkpt lat="47.37552" lon="6.93226">
        <ele>624.6</ele>
        <time>2026-05-13T14:47:04Z</time>
      </trkpt>
      <trkpt lat="47.37555" lon="6.9327">
        <ele>622.8</ele>
        <time>2026-05-13T14:47:07Z</time>
      </trkpt>
      <trkpt lat="47.37558" lon="6.93314">
        <ele>621.4</ele>
        <time>2026-05-13T14:47:10Z</time>
      </trkpt>
      <trkpt lat="47.37559" lon="6.93328">
        <ele>620.8</ele>
        <time>2026-05-13T14:47:11Z</time>
      </trkpt>
      <trkpt lat="47.37561" lon="6.93358">
        <ele>620</ele>
        <time>2026-05-13T14:47:13Z</time>
      </trkpt>
      <trkpt lat="47.37564" lon="6.93403">
        <ele>618.8</ele>
        <time>2026-05-13T14:47:16Z</time>
      </trkpt>
      <trkpt lat="47.37566" lon="6.93448">
        <ele>618</ele>
        <time>2026-05-13T14:47:19Z</time>
      </trkpt>
      <trkpt lat="47.37567" lon="6.93464">
        <ele>617.6</ele>
        <time>2026-05-13T14:47:20Z</time>
      </trkpt>
      <trkpt lat="47.37571" lon="6.93511">
        <ele>616.6</ele>
        <time>2026-05-13T14:47:23Z</time>
      </trkpt>
      <trkpt lat="47.37574" lon="6.9356">
        <ele>615.2</ele>
        <time>2026-05-13T14:47:26Z</time>
      </trkpt>
      <trkpt lat="47.37575" lon="6.93577">
        <ele>615.2</ele>
        <time>2026-05-13T14:47:27Z</time>
      </trkpt>
      <trkpt lat="47.37582" lon="6.93627">
        <ele>614</ele>
        <time>2026-05-13T14:47:30Z</time>
      </trkpt>
      <trkpt lat="47.37589" lon="6.93659">
        <ele>613.4</ele>
        <time>2026-05-13T14:47:32Z</time>
      </trkpt>
      <trkpt lat="47.37597" lon="6.93692">
        <ele>613</ele>
        <time>2026-05-13T14:47:34Z</time>
      </trkpt>
      <trkpt lat="47.37608" lon="6.9374">
        <ele>611.4</ele>
        <time>2026-05-13T14:47:37Z</time>
      </trkpt>
      <trkpt lat="47.3762" lon="6.93787">
        <ele>610.4</ele>
        <time>2026-05-13T14:47:40Z</time>
      </trkpt>
      <trkpt lat="47.37627" lon="6.93818">
        <ele>610</ele>
        <time>2026-05-13T14:47:42Z</time>
      </trkpt>
      <trkpt lat="47.37649" lon="6.93907">
        <ele>609.4</ele>
        <time>2026-05-13T14:47:48Z</time>
      </trkpt>
      <trkpt lat="47.37653" lon="6.93922">
        <ele>609.4</ele>
        <time>2026-05-13T14:47:49Z</time>
      </trkpt>
      <trkpt lat="47.3766" lon="6.93951">
        <ele>609.2</ele>
        <time>2026-05-13T14:47:51Z</time>
      </trkpt>
      <trkpt lat="47.37682" lon="6.94038">
        <ele>608.2</ele>
        <time>2026-05-13T14:47:57Z</time>
      </trkpt>
      <trkpt lat="47.37685" lon="6.94053">
        <ele>608</ele>
        <time>2026-05-13T14:47:58Z</time>
      </trkpt>
      <trkpt lat="47.37697" lon="6.94097">
        <ele>607.6</ele>
        <time>2026-05-13T14:48:01Z</time>
      </trkpt>
      <trkpt lat="47.37712" lon="6.94154">
        <ele>607</ele>
        <time>2026-05-13T14:48:05Z</time>
      </trkpt>
      <trkpt lat="47.37736" lon="6.94235">
        <ele>605.8</ele>
        <time>2026-05-13T14:48:11Z</time>
      </trkpt>
      <trkpt lat="47.3774" lon="6.94249">
        <ele>605.6</ele>
        <time>2026-05-13T14:48:12Z</time>
      </trkpt>
      <trkpt lat="47.37762" lon="6.94325">
        <ele>605.4</ele>
        <time>2026-05-13T14:48:18Z</time>
      </trkpt>
      <trkpt lat="47.3777" lon="6.94349">
        <ele>605.4</ele>
        <time>2026-05-13T14:48:20Z</time>
      </trkpt>
      <trkpt lat="47.37787" lon="6.94394">
        <ele>605.4</ele>
        <time>2026-05-13T14:48:24Z</time>
      </trkpt>
      <trkpt lat="47.37792" lon="6.94404">
        <ele>605.4</ele>
        <time>2026-05-13T14:48:25Z</time>
      </trkpt>
      <trkpt lat="47.37826" lon="6.94453">
        <ele>605.2</ele>
        <time>2026-05-13T14:48:31Z</time>
      </trkpt>
      <trkpt lat="47.37859" lon="6.94499">
        <ele>605</ele>
        <time>2026-05-13T14:48:38Z</time>
      </trkpt>
      <trkpt lat="47.37862" lon="6.94504">
        <ele>605</ele>
        <time>2026-05-13T14:48:39Z</time>
      </trkpt>
      <trkpt lat="47.37894" lon="6.94548">
        <ele>604.4</ele>
        <time>2026-05-13T14:48:46Z</time>
      </trkpt>
      <trkpt lat="47.37924" lon="6.9459">
        <ele>604</ele>
        <time>2026-05-13T14:48:53Z</time>
      </trkpt>
      <trkpt lat="47.37946" lon="6.94618">
        <ele>604</ele>
        <time>2026-05-13T14:48:58Z</time>
      </trkpt>
      <trkpt lat="47.3796" lon="6.94637">
        <ele>603.8</ele>
        <time>2026-05-13T14:49:01Z</time>
      </trkpt>
      <trkpt lat="47.3799" lon="6.94677">
        <ele>603.8</ele>
        <time>2026-05-13T14:49:08Z</time>
      </trkpt>
      <trkpt lat="47.38018" lon="6.94712">
        <ele>603.4</ele>
        <time>2026-05-13T14:49:14Z</time>
      </trkpt>
      <trkpt lat="47.38031" lon="6.94723">
        <ele>603</ele>
        <time>2026-05-13T14:49:16Z</time>
      </trkpt>
      <trkpt lat="47.3805" lon="6.94735">
        <ele>602.6</ele>
        <time>2026-05-13T14:49:19Z</time>
      </trkpt>
      <trkpt lat="47.38097" lon="6.94759">
        <ele>602.2</ele>
        <time>2026-05-13T14:49:25Z</time>
      </trkpt>
      <trkpt lat="47.38105" lon="6.94763">
        <ele>601.8</ele>
        <time>2026-05-13T14:49:26Z</time>
      </trkpt>
      <trkpt lat="47.38138" lon="6.94781">
        <ele>600.8</ele>
        <time>2026-05-13T14:49:30Z</time>
      </trkpt>
      <trkpt lat="47.38146" lon="6.94786">
        <ele>600.6</ele>
        <time>2026-05-13T14:49:31Z</time>
      </trkpt>
      <trkpt lat="47.38169" lon="6.94804">
        <ele>599.8</ele>
        <time>2026-05-13T14:49:34Z</time>
      </trkpt>
      <trkpt lat="47.38194" lon="6.94827">
        <ele>599</ele>
        <time>2026-05-13T14:49:37Z</time>
      </trkpt>
      <trkpt lat="47.38209" lon="6.94841">
        <ele>598.6</ele>
        <time>2026-05-13T14:49:39Z</time>
      </trkpt>
      <trkpt lat="47.38239" lon="6.94864">
        <ele>597.6</ele>
        <time>2026-05-13T14:49:43Z</time>
      </trkpt>
      <trkpt lat="47.38246" lon="6.94869">
        <ele>597.4</ele>
        <time>2026-05-13T14:49:44Z</time>
      </trkpt>
      <trkpt lat="47.38278" lon="6.94882">
        <ele>596.4</ele>
        <time>2026-05-13T14:49:48Z</time>
      </trkpt>
      <trkpt lat="47.38319" lon="6.94886">
        <ele>595.2</ele>
        <time>2026-05-13T14:49:53Z</time>
      </trkpt>
      <trkpt lat="47.38327" lon="6.94886">
        <ele>595</ele>
        <time>2026-05-13T14:49:54Z</time>
      </trkpt>
      <trkpt lat="47.38363" lon="6.94888">
        <ele>594.2</ele>
        <time>2026-05-13T14:49:58Z</time>
      </trkpt>
      <trkpt lat="47.384" lon="6.94888">
        <ele>592.4</ele>
        <time>2026-05-13T14:50:02Z</time>
      </trkpt>
      <trkpt lat="47.38431" lon="6.94888">
        <ele>591.2</ele>
        <time>2026-05-13T14:50:05Z</time>
      </trkpt>
      <trkpt lat="47.38452" lon="6.94886">
        <ele>590.2</ele>
        <time>2026-05-13T14:50:07Z</time>
      </trkpt>
      <trkpt lat="47.38473" lon="6.94885">
        <ele>589.4</ele>
        <time>2026-05-13T14:50:09Z</time>
      </trkpt>
      <trkpt lat="47.38484" lon="6.94884">
        <ele>588.8</ele>
        <time>2026-05-13T14:50:10Z</time>
      </trkpt>
      <trkpt lat="47.38516" lon="6.94881">
        <ele>587.6</ele>
        <time>2026-05-13T14:50:13Z</time>
      </trkpt>
      <trkpt lat="47.38539" lon="6.94879">
        <ele>585.8</ele>
        <time>2026-05-13T14:50:15Z</time>
      </trkpt>
      <trkpt lat="47.38574" lon="6.94874">
        <ele>584.6</ele>
        <time>2026-05-13T14:50:18Z</time>
      </trkpt>
      <trkpt lat="47.38586" lon="6.94869">
        <ele>584.2</ele>
        <time>2026-05-13T14:50:19Z</time>
      </trkpt>
      <trkpt lat="47.38595" lon="6.94862">
        <ele>583.6</ele>
        <time>2026-05-13T14:50:20Z</time>
      </trkpt>
      <trkpt lat="47.38617" lon="6.94853">
        <ele>582.2</ele>
        <time>2026-05-13T14:50:22Z</time>
      </trkpt>
      <trkpt lat="47.38627" lon="6.9485">
        <ele>582</ele>
        <time>2026-05-13T14:50:23Z</time>
      </trkpt>
      <trkpt lat="47.38638" lon="6.94847">
        <ele>581.2</ele>
        <time>2026-05-13T14:50:24Z</time>
      </trkpt>
      <trkpt lat="47.38648" lon="6.94847">
        <ele>581</ele>
        <time>2026-05-13T14:50:25Z</time>
      </trkpt>
      <trkpt lat="47.38671" lon="6.94849">
        <ele>579.6</ele>
        <time>2026-05-13T14:50:27Z</time>
      </trkpt>
      <trkpt lat="47.38706" lon="6.94853">
        <ele>578.4</ele>
        <time>2026-05-13T14:50:30Z</time>
      </trkpt>
      <trkpt lat="47.38728" lon="6.94862">
        <ele>577.8</ele>
        <time>2026-05-13T14:50:32Z</time>
      </trkpt>
      <trkpt lat="47.38738" lon="6.94865">
        <ele>576.6</ele>
        <time>2026-05-13T14:50:33Z</time>
      </trkpt>
      <trkpt lat="47.3877" lon="6.94883">
        <ele>575</ele>
        <time>2026-05-13T14:50:36Z</time>
      </trkpt>
      <trkpt lat="47.3878" lon="6.94888">
        <ele>574.4</ele>
        <time>2026-05-13T14:50:37Z</time>
      </trkpt>
      <trkpt lat="47.3879" lon="6.94893">
        <ele>573.4</ele>
        <time>2026-05-13T14:50:38Z</time>
      </trkpt>
      <trkpt lat="47.3881" lon="6.94904">
        <ele>572</ele>
        <time>2026-05-13T14:50:40Z</time>
      </trkpt>
      <trkpt lat="47.38821" lon="6.94909">
        <ele>570.8</ele>
        <time>2026-05-13T14:50:41Z</time>
      </trkpt>
      <trkpt lat="47.38833" lon="6.94914">
        <ele>570.4</ele>
        <time>2026-05-13T14:50:42Z</time>
      </trkpt>
      <trkpt lat="47.38844" lon="6.94919">
        <ele>569.8</ele>
        <time>2026-05-13T14:50:43Z</time>
      </trkpt>
      <trkpt lat="47.38865" lon="6.94934">
        <ele>568.6</ele>
        <time>2026-05-13T14:50:45Z</time>
      </trkpt>
      <trkpt lat="47.38875" lon="6.94942">
        <ele>568</ele>
        <time>2026-05-13T14:50:46Z</time>
      </trkpt>
      <trkpt lat="47.38885" lon="6.94952">
        <ele>567.6</ele>
        <time>2026-05-13T14:50:47Z</time>
      </trkpt>
      <trkpt lat="47.38896" lon="6.94963">
        <ele>567</ele>
        <time>2026-05-13T14:50:48Z</time>
      </trkpt>
      <trkpt lat="47.38905" lon="6.94974">
        <ele>566.6</ele>
        <time>2026-05-13T14:50:49Z</time>
      </trkpt>
      <trkpt lat="47.38913" lon="6.94987">
        <ele>565.8</ele>
        <time>2026-05-13T14:50:50Z</time>
      </trkpt>
      <trkpt lat="47.38928" lon="6.95012">
        <ele>564.6</ele>
        <time>2026-05-13T14:50:52Z</time>
      </trkpt>
      <trkpt lat="47.38941" lon="6.95041">
        <ele>563.4</ele>
        <time>2026-05-13T14:50:54Z</time>
      </trkpt>
      <trkpt lat="47.38947" lon="6.95056">
        <ele>562.4</ele>
        <time>2026-05-13T14:50:55Z</time>
      </trkpt>
      <trkpt lat="47.38952" lon="6.95072">
        <ele>561.2</ele>
        <time>2026-05-13T14:50:56Z</time>
      </trkpt>
      <trkpt lat="47.38956" lon="6.95089">
        <ele>560.6</ele>
        <time>2026-05-13T14:50:57Z</time>
      </trkpt>
      <trkpt lat="47.38959" lon="6.95105">
        <ele>559.8</ele>
        <time>2026-05-13T14:50:58Z</time>
      </trkpt>
      <trkpt lat="47.38964" lon="6.95138">
        <ele>558.6</ele>
        <time>2026-05-13T14:51:00Z</time>
      </trkpt>
      <trkpt lat="47.38972" lon="6.95186">
        <ele>557</ele>
        <time>2026-05-13T14:51:03Z</time>
      </trkpt>
      <trkpt lat="47.38981" lon="6.9524">
        <ele>556.2</ele>
        <time>2026-05-13T14:51:07Z</time>
      </trkpt>
      <trkpt lat="47.38983" lon="6.95252">
        <ele>555.2</ele>
        <time>2026-05-13T14:51:08Z</time>
      </trkpt>
      <trkpt lat="47.38987" lon="6.95277">
        <ele>554</ele>
        <time>2026-05-13T14:51:10Z</time>
      </trkpt>
      <trkpt lat="47.38997" lon="6.95338">
        <ele>553</ele>
        <time>2026-05-13T14:51:15Z</time>
      </trkpt>
      <trkpt lat="47.39008" lon="6.95398">
        <ele>552</ele>
        <time>2026-05-13T14:51:20Z</time>
      </trkpt>
      <trkpt lat="47.39014" lon="6.95429">
        <ele>551.4</ele>
        <time>2026-05-13T14:51:23Z</time>
      </trkpt>
      <trkpt lat="47.39016" lon="6.9544">
        <ele>551.2</ele>
        <time>2026-05-13T14:51:24Z</time>
      </trkpt>
      <trkpt lat="47.39023" lon="6.95485">
        <ele>551</ele>
        <time>2026-05-13T14:51:28Z</time>
      </trkpt>
      <trkpt lat="47.39025" lon="6.95496">
        <ele>551</ele>
        <time>2026-05-13T14:51:29Z</time>
      </trkpt>
      <trkpt lat="47.39036" lon="6.9556">
        <ele>550.2</ele>
        <time>2026-05-13T14:51:35Z</time>
      </trkpt>
      <trkpt lat="47.39039" lon="6.95582">
        <ele>550</ele>
        <time>2026-05-13T14:51:37Z</time>
      </trkpt>
      <trkpt lat="47.39042" lon="6.95625">
        <ele>549.8</ele>
        <time>2026-05-13T14:51:41Z</time>
      </trkpt>
      <trkpt lat="47.39044" lon="6.95705">
        <ele>549.2</ele>
        <time>2026-05-13T14:51:49Z</time>
      </trkpt>
      <trkpt lat="47.39045" lon="6.95714">
        <ele>549</ele>
        <time>2026-05-13T14:51:50Z</time>
      </trkpt>
      <trkpt lat="47.39051" lon="6.95728">
        <ele>549</ele>
        <time>2026-05-13T14:51:52Z</time>
      </trkpt>
      <trkpt lat="47.39065" lon="6.95738">
        <ele>549</ele>
        <time>2026-05-13T14:51:55Z</time>
      </trkpt>
      <trkpt lat="47.3907" lon="6.95741">
        <ele>549</ele>
        <time>2026-05-13T14:51:56Z</time>
      </trkpt>
      <trkpt lat="47.39078" lon="6.95742">
        <ele>549</ele>
        <time>2026-05-13T14:51:58Z</time>
      </trkpt>
      <trkpt lat="47.39096" lon="6.95746">
        <ele>549.4</ele>
        <time>2026-05-13T14:52:02Z</time>
      </trkpt>
      <trkpt lat="47.39109" lon="6.95747">
        <ele>550.2</ele>
        <time>2026-05-13T14:52:05Z</time>
      </trkpt>
      <trkpt lat="47.39129" lon="6.95748">
        <ele>551.2</ele>
        <time>2026-05-13T14:52:10Z</time>
      </trkpt>
      <trkpt lat="47.39167" lon="6.95753">
        <ele>552.2</ele>
        <time>2026-05-13T14:52:19Z</time>
      </trkpt>
      <trkpt lat="47.39171" lon="6.95753">
        <ele>552.2</ele>
        <time>2026-05-13T14:52:20Z</time>
      </trkpt>
      <trkpt lat="47.39175" lon="6.95753">
        <ele>552.4</ele>
        <time>2026-05-13T14:52:21Z</time>
      </trkpt>
      <trkpt lat="47.3919" lon="6.95755">
        <ele>553.2</ele>
        <time>2026-05-13T14:52:25Z</time>
      </trkpt>
      <trkpt lat="47.39197" lon="6.95757">
        <ele>553.4</ele>
        <time>2026-05-13T14:52:27Z</time>
      </trkpt>
      <trkpt lat="47.39217" lon="6.95766">
        <ele>554.6</ele>
        <time>2026-05-13T14:52:34Z</time>
      </trkpt>
      <trkpt lat="47.3923" lon="6.95772">
        <ele>555.2</ele>
        <time>2026-05-13T14:52:40Z</time>
      </trkpt>
      <trkpt lat="47.39233" lon="6.95774">
        <ele>555.4</ele>
        <time>2026-05-13T14:52:41Z</time>
      </trkpt>
      <trkpt lat="47.39235" lon="6.95775">
        <ele>555.6</ele>
        <time>2026-05-13T14:52:42Z</time>
      </trkpt>
      <trkpt lat="47.3924" lon="6.95782">
        <ele>556</ele>
        <time>2026-05-13T14:52:45Z</time>
      </trkpt>
      <trkpt lat="47.39243" lon="6.95789">
        <ele>556.8</ele>
        <time>2026-05-13T14:52:47Z</time>
      </trkpt>
      <trkpt lat="47.3925" lon="6.95806">
        <ele>557.8</ele>
        <time>2026-05-13T14:52:52Z</time>
      </trkpt>
      <trkpt lat="47.39251" lon="6.95809">
        <ele>558</ele>
        <time>2026-05-13T14:52:53Z</time>
      </trkpt>
      <trkpt lat="47.39254" lon="6.95819">
        <ele>558.8</ele>
        <time>2026-05-13T14:52:56Z</time>
      </trkpt>
      <trkpt lat="47.39261" lon="6.9584">
        <ele>560</ele>
        <time>2026-05-13T14:53:02Z</time>
      </trkpt>
      <trkpt lat="47.39264" lon="6.95855">
        <ele>561</ele>
        <time>2026-05-13T14:53:07Z</time>
      </trkpt>
      <trkpt lat="47.39267" lon="6.95867">
        <ele>562</ele>
        <time>2026-05-13T14:53:11Z</time>
      </trkpt>
      <trkpt lat="47.39269" lon="6.95877">
        <ele>562.6</ele>
        <time>2026-05-13T14:53:14Z</time>
      </trkpt>
      <trkpt lat="47.3927" lon="6.9588">
        <ele>563.2</ele>
        <time>2026-05-13T14:53:15Z</time>
      </trkpt>
      <trkpt lat="47.39275" lon="6.95899">
        <ele>564.4</ele>
        <time>2026-05-13T14:53:21Z</time>
      </trkpt>
      <trkpt lat="47.39278" lon="6.95905">
        <ele>564.8</ele>
        <time>2026-05-13T14:53:23Z</time>
      </trkpt>
      <trkpt lat="47.39281" lon="6.9591">
        <ele>565.4</ele>
        <time>2026-05-13T14:53:25Z</time>
      </trkpt>
      <trkpt lat="47.39288" lon="6.9592">
        <ele>566.8</ele>
        <time>2026-05-13T14:53:30Z</time>
      </trkpt>
      <trkpt lat="47.3929" lon="6.95922">
        <ele>566.8</ele>
        <time>2026-05-13T14:53:31Z</time>
      </trkpt>
      <trkpt lat="47.39296" lon="6.9593">
        <ele>568</ele>
        <time>2026-05-13T14:53:35Z</time>
      </trkpt>
      <trkpt lat="47.39299" lon="6.95934">
        <ele>568.6</ele>
        <time>2026-05-13T14:53:37Z</time>
      </trkpt>
      <trkpt lat="47.39303" lon="6.95939">
        <ele>569</ele>
        <time>2026-05-13T14:53:39Z</time>
      </trkpt>
      <trkpt lat="47.39312" lon="6.95949">
        <ele>570.2</ele>
        <time>2026-05-13T14:53:44Z</time>
      </trkpt>
      <trkpt lat="47.39314" lon="6.9595">
        <ele>570.4</ele>
        <time>2026-05-13T14:53:45Z</time>
      </trkpt>
      <trkpt lat="47.39324" lon="6.95961">
        <ele>571.4</ele>
        <time>2026-05-13T14:53:51Z</time>
      </trkpt>
      <trkpt lat="47.39331" lon="6.95968">
        <ele>572.4</ele>
        <time>2026-05-13T14:53:55Z</time>
      </trkpt>
      <trkpt lat="47.39333" lon="6.95969">
        <ele>572.4</ele>
        <time>2026-05-13T14:53:56Z</time>
      </trkpt>
      <trkpt lat="47.39345" lon="6.95981">
        <ele>573.6</ele>
        <time>2026-05-13T14:54:03Z</time>
      </trkpt>
      <trkpt lat="47.39346" lon="6.95983">
        <ele>573.6</ele>
        <time>2026-05-13T14:54:04Z</time>
      </trkpt>
      <trkpt lat="47.39362" lon="6.96">
        <ele>574.6</ele>
        <time>2026-05-13T14:54:13Z</time>
      </trkpt>
      <trkpt lat="47.39363" lon="6.96002">
        <ele>574.8</ele>
        <time>2026-05-13T14:54:14Z</time>
      </trkpt>
      <trkpt lat="47.39371" lon="6.96012">
        <ele>575.8</ele>
        <time>2026-05-13T14:54:19Z</time>
      </trkpt>
      <trkpt lat="47.39374" lon="6.96016">
        <ele>576.4</ele>
        <time>2026-05-13T14:54:21Z</time>
      </trkpt>
      <trkpt lat="47.39383" lon="6.96025">
        <ele>577</ele>
        <time>2026-05-13T14:54:25Z</time>
      </trkpt>
      <trkpt lat="47.39388" lon="6.96034">
        <ele>577.8</ele>
        <time>2026-05-13T14:54:28Z</time>
      </trkpt>
      <trkpt lat="47.39393" lon="6.96041">
        <ele>578.2</ele>
        <time>2026-05-13T14:54:31Z</time>
      </trkpt>
      <trkpt lat="47.39396" lon="6.96046">
        <ele>579.2</ele>
        <time>2026-05-13T14:54:33Z</time>
      </trkpt>
      <trkpt lat="47.39397" lon="6.96049">
        <ele>579.4</ele>
        <time>2026-05-13T14:54:34Z</time>
      </trkpt>
      <trkpt lat="47.39399" lon="6.96051">
        <ele>580</ele>
        <time>2026-05-13T14:54:35Z</time>
      </trkpt>
      <trkpt lat="47.39403" lon="6.96058">
        <ele>580.6</ele>
        <time>2026-05-13T14:54:38Z</time>
      </trkpt>
      <trkpt lat="47.39412" lon="6.96074">
        <ele>582</ele>
        <time>2026-05-13T14:54:44Z</time>
      </trkpt>
      <trkpt lat="47.39419" lon="6.96089">
        <ele>583.2</ele>
        <time>2026-05-13T14:54:49Z</time>
      </trkpt>
      <trkpt lat="47.39421" lon="6.96094">
        <ele>583.8</ele>
        <time>2026-05-13T14:54:51Z</time>
      </trkpt>
      <trkpt lat="47.39422" lon="6.96097">
        <ele>584.2</ele>
        <time>2026-05-13T14:54:52Z</time>
      </trkpt>
      <trkpt lat="47.39431" lon="6.96117">
        <ele>585.2</ele>
        <time>2026-05-13T14:54:59Z</time>
      </trkpt>
      <trkpt lat="47.39433" lon="6.96121">
        <ele>585.4</ele>
        <time>2026-05-13T14:55:00Z</time>
      </trkpt>
      <trkpt lat="47.39443" lon="6.9614">
        <ele>586.6</ele>
        <time>2026-05-13T14:55:07Z</time>
      </trkpt>
      <trkpt lat="47.3945" lon="6.96146">
        <ele>587</ele>
        <time>2026-05-13T14:55:10Z</time>
      </trkpt>
      <trkpt lat="47.39459" lon="6.9615">
        <ele>587.6</ele>
        <time>2026-05-13T14:55:14Z</time>
      </trkpt>
      <trkpt lat="47.39464" lon="6.96149">
        <ele>588</ele>
        <time>2026-05-13T14:55:16Z</time>
      </trkpt>
      <trkpt lat="47.39476" lon="6.96143">
        <ele>588.8</ele>
        <time>2026-05-13T14:55:21Z</time>
      </trkpt>
      <trkpt lat="47.39478" lon="6.96141">
        <ele>588.8</ele>
        <time>2026-05-13T14:55:22Z</time>
      </trkpt>
      <trkpt lat="47.39496" lon="6.96118">
        <ele>590</ele>
        <time>2026-05-13T14:55:31Z</time>
      </trkpt>
      <trkpt lat="47.395" lon="6.96109">
        <ele>590.8</ele>
        <time>2026-05-13T14:55:34Z</time>
      </trkpt>
      <trkpt lat="47.39502" lon="6.96106">
        <ele>591</ele>
        <time>2026-05-13T14:55:35Z</time>
      </trkpt>
      <trkpt lat="47.3951" lon="6.96092">
        <ele>592</ele>
        <time>2026-05-13T14:55:40Z</time>
      </trkpt>
      <trkpt lat="47.39512" lon="6.96089">
        <ele>592.2</ele>
        <time>2026-05-13T14:55:41Z</time>
      </trkpt>
      <trkpt lat="47.39522" lon="6.96072">
        <ele>593.4</ele>
        <time>2026-05-13T14:55:47Z</time>
      </trkpt>
      <trkpt lat="47.39528" lon="6.9606">
        <ele>593.8</ele>
        <time>2026-05-13T14:55:51Z</time>
      </trkpt>
      <trkpt lat="47.39534" lon="6.9605">
        <ele>594.4</ele>
        <time>2026-05-13T14:55:54Z</time>
      </trkpt>
      <trkpt lat="47.39539" lon="6.96041">
        <ele>595.8</ele>
        <time>2026-05-13T14:55:57Z</time>
      </trkpt>
      <trkpt lat="47.39546" lon="6.9603">
        <ele>596.4</ele>
        <time>2026-05-13T14:56:01Z</time>
      </trkpt>
      <trkpt lat="47.39551" lon="6.96022">
        <ele>596.8</ele>
        <time>2026-05-13T14:56:04Z</time>
      </trkpt>
      <trkpt lat="47.39565" lon="6.95999">
        <ele>597.8</ele>
        <time>2026-05-13T14:56:12Z</time>
      </trkpt>
      <trkpt lat="47.39567" lon="6.95995">
        <ele>597.8</ele>
        <time>2026-05-13T14:56:13Z</time>
      </trkpt>
      <trkpt lat="47.39573" lon="6.95986">
        <ele>598.4</ele>
        <time>2026-05-13T14:56:16Z</time>
      </trkpt>
      <trkpt lat="47.39581" lon="6.95971">
        <ele>599</ele>
        <time>2026-05-13T14:56:21Z</time>
      </trkpt>
      <trkpt lat="47.39583" lon="6.95968">
        <ele>599.4</ele>
        <time>2026-05-13T14:56:22Z</time>
      </trkpt>
      <trkpt lat="47.39588" lon="6.95961">
        <ele>600.2</ele>
        <time>2026-05-13T14:56:25Z</time>
      </trkpt>
      <trkpt lat="47.39596" lon="6.95949">
        <ele>601</ele>
        <time>2026-05-13T14:56:30Z</time>
      </trkpt>
      <trkpt lat="47.396" lon="6.95944">
        <ele>601.2</ele>
        <time>2026-05-13T14:56:32Z</time>
      </trkpt>
      <trkpt lat="47.39605" lon="6.95937">
        <ele>601.8</ele>
        <time>2026-05-13T14:56:35Z</time>
      </trkpt>
      <trkpt lat="47.39605" lon="6.95937">
        <ele>602.6</ele>
        <time>2026-05-13T14:56:38Z</time>
      </trkpt>
      <trkpt lat="47.39607" lon="6.9593">
        <ele>603.2</ele>
        <time>2026-05-13T14:56:48Z</time>
      </trkpt>
      <trkpt lat="47.39617" lon="6.95919">
        <ele>603.2</ele>
        <time>2026-05-13T14:56:52Z</time>
      </trkpt>
      <trkpt lat="47.39619" lon="6.95917">
        <ele>603.2</ele>
        <time>2026-05-13T14:56:53Z</time>
      </trkpt>
      <trkpt lat="47.39625" lon="6.95906">
        <ele>603.4</ele>
        <time>2026-05-13T14:56:56Z</time>
      </trkpt>
      <trkpt lat="47.39628" lon="6.95902">
        <ele>603.4</ele>
        <time>2026-05-13T14:56:57Z</time>
      </trkpt>
      <trkpt lat="47.39644" lon="6.95886">
        <ele>604.4</ele>
        <time>2026-05-13T14:57:02Z</time>
      </trkpt>
      <trkpt lat="47.39652" lon="6.95882">
        <ele>604.8</ele>
        <time>2026-05-13T14:57:04Z</time>
      </trkpt>
      <trkpt lat="47.39674" lon="6.95876">
        <ele>605.6</ele>
        <time>2026-05-13T14:57:09Z</time>
      </trkpt>
      <trkpt lat="47.39683" lon="6.95873">
        <ele>605.8</ele>
        <time>2026-05-13T14:57:11Z</time>
      </trkpt>
      <trkpt lat="47.39709" lon="6.95867">
        <ele>605.6</ele>
        <time>2026-05-13T14:57:17Z</time>
      </trkpt>
      <trkpt lat="47.39723" lon="6.95863">
        <ele>605.6</ele>
        <time>2026-05-13T14:57:21Z</time>
      </trkpt>
      <trkpt lat="47.39746" lon="6.95859">
        <ele>605.2</ele>
        <time>2026-05-13T14:57:26Z</time>
      </trkpt>
      <trkpt lat="47.39779" lon="6.95857">
        <ele>604.8</ele>
        <time>2026-05-13T14:57:31Z</time>
      </trkpt>
      <trkpt lat="47.39818" lon="6.95858">
        <ele>604.2</ele>
        <time>2026-05-13T14:57:36Z</time>
      </trkpt>
      <trkpt lat="47.39835" lon="6.95858">
        <ele>603.2</ele>
        <time>2026-05-13T14:57:38Z</time>
      </trkpt>
      <trkpt lat="47.39861" lon="6.95856">
        <ele>602.2</ele>
        <time>2026-05-13T14:57:41Z</time>
      </trkpt>
      <trkpt lat="47.3987" lon="6.95856">
        <ele>601.6</ele>
        <time>2026-05-13T14:57:42Z</time>
      </trkpt>
      <trkpt lat="47.39889" lon="6.95856">
        <ele>601</ele>
        <time>2026-05-13T14:57:44Z</time>
      </trkpt>
      <trkpt lat="47.39917" lon="6.95853">
        <ele>599.4</ele>
        <time>2026-05-13T14:57:47Z</time>
      </trkpt>
      <trkpt lat="47.39927" lon="6.95853">
        <ele>599.2</ele>
        <time>2026-05-13T14:57:48Z</time>
      </trkpt>
      <trkpt lat="47.39936" lon="6.95853">
        <ele>598.8</ele>
        <time>2026-05-13T14:57:49Z</time>
      </trkpt>
      <trkpt lat="47.39945" lon="6.95855">
        <ele>598.2</ele>
        <time>2026-05-13T14:57:50Z</time>
      </trkpt>
      <trkpt lat="47.39962" lon="6.95862">
        <ele>597.8</ele>
        <time>2026-05-13T14:57:52Z</time>
      </trkpt>
      <trkpt lat="47.39993" lon="6.95878">
        <ele>597.2</ele>
        <time>2026-05-13T14:57:56Z</time>
      </trkpt>
      <trkpt lat="47.40007" lon="6.95886">
        <ele>597.2</ele>
        <time>2026-05-13T14:57:58Z</time>
      </trkpt>
      <trkpt lat="47.40019" lon="6.95893">
        <ele>597.2</ele>
        <time>2026-05-13T14:58:00Z</time>
      </trkpt>
      <trkpt lat="47.4003" lon="6.95899">
        <ele>597.2</ele>
        <time>2026-05-13T14:58:02Z</time>
      </trkpt>
      <trkpt lat="47.40042" lon="6.95904">
        <ele>597.2</ele>
        <time>2026-05-13T14:58:04Z</time>
      </trkpt>
      <trkpt lat="47.40056" lon="6.95907">
        <ele>597.6</ele>
        <time>2026-05-13T14:58:06Z</time>
      </trkpt>
      <trkpt lat="47.40062" lon="6.95907">
        <ele>597.6</ele>
        <time>2026-05-13T14:58:07Z</time>
      </trkpt>
      <trkpt lat="47.40091" lon="6.95909">
        <ele>598.2</ele>
        <time>2026-05-13T14:58:11Z</time>
      </trkpt>
      <trkpt lat="47.40105" lon="6.95909">
        <ele>598.2</ele>
        <time>2026-05-13T14:58:13Z</time>
      </trkpt>
      <trkpt lat="47.40152" lon="6.95911">
        <ele>597.6</ele>
        <time>2026-05-13T14:58:20Z</time>
      </trkpt>
      <trkpt lat="47.40159" lon="6.95911">
        <ele>597.2</ele>
        <time>2026-05-13T14:58:21Z</time>
      </trkpt>
      <trkpt lat="47.40205" lon="6.95913">
        <ele>596.8</ele>
        <time>2026-05-13T14:58:28Z</time>
      </trkpt>
      <trkpt lat="47.40265" lon="6.95914">
        <ele>597</ele>
        <time>2026-05-13T14:58:37Z</time>
      </trkpt>
      <trkpt lat="47.40302" lon="6.95912">
        <ele>597.2</ele>
        <time>2026-05-13T14:58:43Z</time>
      </trkpt>
      <trkpt lat="47.4035" lon="6.95909">
        <ele>597.6</ele>
        <time>2026-05-13T14:58:51Z</time>
      </trkpt>
      <trkpt lat="47.40401" lon="6.95906">
        <ele>597.8</ele>
        <time>2026-05-13T14:59:00Z</time>
      </trkpt>
      <trkpt lat="47.40432" lon="6.95904">
        <ele>598.4</ele>
        <time>2026-05-13T14:59:06Z</time>
      </trkpt>
      <trkpt lat="47.40446" lon="6.95903">
        <ele>598.8</ele>
        <time>2026-05-13T14:59:09Z</time>
      </trkpt>
      <trkpt lat="47.4046" lon="6.95902">
        <ele>599.4</ele>
        <time>2026-05-13T14:59:12Z</time>
      </trkpt>
      <trkpt lat="47.40464" lon="6.959">
        <ele>599.6</ele>
        <time>2026-05-13T14:59:13Z</time>
      </trkpt>
      <trkpt lat="47.40471" lon="6.95896">
        <ele>600</ele>
        <time>2026-05-13T14:59:15Z</time>
      </trkpt>
      <trkpt lat="47.40482" lon="6.95891">
        <ele>600.8</ele>
        <time>2026-05-13T14:59:18Z</time>
      </trkpt>
      <trkpt lat="47.40489" lon="6.95887">
        <ele>601.2</ele>
        <time>2026-05-13T14:59:20Z</time>
      </trkpt>
      <trkpt lat="47.40492" lon="6.95886">
        <ele>601.6</ele>
        <time>2026-05-13T14:59:21Z</time>
      </trkpt>
      <trkpt lat="47.40495" lon="6.95884">
        <ele>601.8</ele>
        <time>2026-05-13T14:59:22Z</time>
      </trkpt>
      <trkpt lat="47.40505" lon="6.95879">
        <ele>602.8</ele>
        <time>2026-05-13T14:59:25Z</time>
      </trkpt>
      <trkpt lat="47.40521" lon="6.95871">
        <ele>604</ele>
        <time>2026-05-13T14:59:30Z</time>
      </trkpt>
      <trkpt lat="47.40539" lon="6.9586">
        <ele>605</ele>
        <time>2026-05-13T14:59:36Z</time>
      </trkpt>
      <trkpt lat="47.40554" lon="6.9585">
        <ele>605.8</ele>
        <time>2026-05-13T14:59:41Z</time>
      </trkpt>
      <trkpt lat="47.40559" lon="6.95846">
        <ele>606.2</ele>
        <time>2026-05-13T14:59:43Z</time>
      </trkpt>
      <trkpt lat="47.40578" lon="6.95833">
        <ele>607.6</ele>
        <time>2026-05-13T14:59:50Z</time>
      </trkpt>
      <trkpt lat="47.40597" lon="6.9582">
        <ele>608.6</ele>
        <time>2026-05-13T14:59:57Z</time>
      </trkpt>
      <trkpt lat="47.40603" lon="6.95815">
        <ele>609.2</ele>
        <time>2026-05-13T15:00:00Z</time>
      </trkpt>
      <trkpt lat="47.40607" lon="6.9581">
        <ele>609.8</ele>
        <time>2026-05-13T15:00:02Z</time>
      </trkpt>
      <trkpt lat="47.40621" lon="6.958">
        <ele>610.6</ele>
        <time>2026-05-13T15:00:08Z</time>
      </trkpt>
      <trkpt lat="47.40624" lon="6.95799">
        <ele>610.8</ele>
        <time>2026-05-13T15:00:09Z</time>
      </trkpt>
      <trkpt lat="47.40633" lon="6.95793">
        <ele>612</ele>
        <time>2026-05-13T15:00:13Z</time>
      </trkpt>
      <trkpt lat="47.40639" lon="6.95786">
        <ele>613</ele>
        <time>2026-05-13T15:00:16Z</time>
      </trkpt>
      <trkpt lat="47.40641" lon="6.95785">
        <ele>613</ele>
        <time>2026-05-13T15:00:17Z</time>
      </trkpt>
      <trkpt lat="47.40653" lon="6.95775">
        <ele>614.2</ele>
        <time>2026-05-13T15:00:22Z</time>
      </trkpt>
      <trkpt lat="47.4066" lon="6.9577">
        <ele>615.2</ele>
        <time>2026-05-13T15:00:25Z</time>
      </trkpt>
      <trkpt lat="47.40663" lon="6.95768">
        <ele>615.4</ele>
        <time>2026-05-13T15:00:26Z</time>
      </trkpt>
      <trkpt lat="47.40674" lon="6.95759">
        <ele>615.8</ele>
        <time>2026-05-13T15:00:31Z</time>
      </trkpt>
      <trkpt lat="47.40678" lon="6.95756">
        <ele>616.4</ele>
        <time>2026-05-13T15:00:33Z</time>
      </trkpt>
      <trkpt lat="47.40695" lon="6.95747">
        <ele>617.2</ele>
        <time>2026-05-13T15:00:39Z</time>
      </trkpt>
      <trkpt lat="47.407" lon="6.95743">
        <ele>617.6</ele>
        <time>2026-05-13T15:00:41Z</time>
      </trkpt>
      <trkpt lat="47.40705" lon="6.95738">
        <ele>617.8</ele>
        <time>2026-05-13T15:00:43Z</time>
      </trkpt>
      <trkpt lat="47.4071" lon="6.95734">
        <ele>618</ele>
        <time>2026-05-13T15:00:45Z</time>
      </trkpt>
      <trkpt lat="47.40719" lon="6.95729">
        <ele>618.8</ele>
        <time>2026-05-13T15:00:48Z</time>
      </trkpt>
      <trkpt lat="47.4073" lon="6.9572">
        <ele>619.6</ele>
        <time>2026-05-13T15:00:52Z</time>
      </trkpt>
      <trkpt lat="47.40741" lon="6.95715">
        <ele>620</ele>
        <time>2026-05-13T15:00:55Z</time>
      </trkpt>
      <trkpt lat="47.40752" lon="6.95708">
        <ele>620</ele>
        <time>2026-05-13T15:00:58Z</time>
      </trkpt>
      <trkpt lat="47.40777" lon="6.95692">
        <ele>619.6</ele>
        <time>2026-05-13T15:01:04Z</time>
      </trkpt>
      <trkpt lat="47.40807" lon="6.95672">
        <ele>618.8</ele>
        <time>2026-05-13T15:01:11Z</time>
      </trkpt>
      <trkpt lat="47.40812" lon="6.95669">
        <ele>618.6</ele>
        <time>2026-05-13T15:01:12Z</time>
      </trkpt>
      <trkpt lat="47.40834" lon="6.95655">
        <ele>617.6</ele>
        <time>2026-05-13T15:01:16Z</time>
      </trkpt>
      <trkpt lat="47.40847" lon="6.95647">
        <ele>617.2</ele>
        <time>2026-05-13T15:01:18Z</time>
      </trkpt>
      <trkpt lat="47.40868" lon="6.95632">
        <ele>616.4</ele>
        <time>2026-05-13T15:01:21Z</time>
      </trkpt>
      <trkpt lat="47.40876" lon="6.95627">
        <ele>616.2</ele>
        <time>2026-05-13T15:01:22Z</time>
      </trkpt>
      <trkpt lat="47.40892" lon="6.95617">
        <ele>615.4</ele>
        <time>2026-05-13T15:01:24Z</time>
      </trkpt>
      <trkpt lat="47.409" lon="6.95612">
        <ele>614.6</ele>
        <time>2026-05-13T15:01:25Z</time>
      </trkpt>
      <trkpt lat="47.40917" lon="6.95601">
        <ele>613.4</ele>
        <time>2026-05-13T15:01:27Z</time>
      </trkpt>
      <trkpt lat="47.40941" lon="6.95586">
        <ele>612.4</ele>
        <time>2026-05-13T15:01:30Z</time>
      </trkpt>
      <trkpt lat="47.40948" lon="6.95581">
        <ele>612</ele>
        <time>2026-05-13T15:01:31Z</time>
      </trkpt>
      <trkpt lat="47.40975" lon="6.95564">
        <ele>611.6</ele>
        <time>2026-05-13T15:01:35Z</time>
      </trkpt>
      <trkpt lat="47.41001" lon="6.95549">
        <ele>611.8</ele>
        <time>2026-05-13T15:01:40Z</time>
      </trkpt>
      <trkpt lat="47.41027" lon="6.95531">
        <ele>613.4</ele>
        <time>2026-05-13T15:01:46Z</time>
      </trkpt>
      <trkpt lat="47.41031" lon="6.95528">
        <ele>613.6</ele>
        <time>2026-05-13T15:01:47Z</time>
      </trkpt>
      <trkpt lat="47.41043" lon="6.9552">
        <ele>614.4</ele>
        <time>2026-05-13T15:01:50Z</time>
      </trkpt>
      <trkpt lat="47.4106" lon="6.9551">
        <ele>615.2</ele>
        <time>2026-05-13T15:01:54Z</time>
      </trkpt>
      <trkpt lat="47.41076" lon="6.955">
        <ele>615.4</ele>
        <time>2026-05-13T15:01:58Z</time>
      </trkpt>
      <trkpt lat="47.41092" lon="6.9549">
        <ele>615.8</ele>
        <time>2026-05-13T15:02:02Z</time>
      </trkpt>
      <trkpt lat="47.41108" lon="6.9548">
        <ele>616.4</ele>
        <time>2026-05-13T15:02:06Z</time>
      </trkpt>
      <trkpt lat="47.41112" lon="6.95477">
        <ele>616.6</ele>
        <time>2026-05-13T15:02:07Z</time>
      </trkpt>
      <trkpt lat="47.41117" lon="6.95474">
        <ele>616.8</ele>
        <time>2026-05-13T15:02:08Z</time>
      </trkpt>
      <trkpt lat="47.41121" lon="6.95471">
        <ele>617</ele>
        <time>2026-05-13T15:02:09Z</time>
      </trkpt>
      <trkpt lat="47.41155" lon="6.95448">
        <ele>617</ele>
        <time>2026-05-13T15:02:16Z</time>
      </trkpt>
      <trkpt lat="47.41191" lon="6.95426">
        <ele>616</ele>
        <time>2026-05-13T15:02:22Z</time>
      </trkpt>
      <trkpt lat="47.41217" lon="6.95409">
        <ele>615.4</ele>
        <time>2026-05-13T15:02:26Z</time>
      </trkpt>
      <trkpt lat="47.41244" lon="6.95391">
        <ele>614.4</ele>
        <time>2026-05-13T15:02:30Z</time>
      </trkpt>
      <trkpt lat="47.41286" lon="6.95364">
        <ele>613.4</ele>
        <time>2026-05-13T15:02:36Z</time>
      </trkpt>
      <trkpt lat="47.413" lon="6.95356">
        <ele>613.2</ele>
        <time>2026-05-13T15:02:38Z</time>
      </trkpt>
      <trkpt lat="47.41333" lon="6.95334">
        <ele>612.4</ele>
        <time>2026-05-13T15:02:43Z</time>
      </trkpt>
      <trkpt lat="47.41364" lon="6.95314">
        <ele>611.6</ele>
        <time>2026-05-13T15:02:48Z</time>
      </trkpt>
      <trkpt lat="47.41396" lon="6.95293">
        <ele>611.4</ele>
        <time>2026-05-13T15:02:54Z</time>
      </trkpt>
      <trkpt lat="47.41415" lon="6.95281">
        <ele>611.2</ele>
        <time>2026-05-13T15:02:58Z</time>
      </trkpt>
      <trkpt lat="47.41432" lon="6.95269">
        <ele>611.4</ele>
        <time>2026-05-13T15:03:02Z</time>
      </trkpt>
      <trkpt lat="47.4146" lon="6.95253">
        <ele>612.4</ele>
        <time>2026-05-13T15:03:08Z</time>
      </trkpt>
      <trkpt lat="47.41464" lon="6.9525">
        <ele>612.8</ele>
        <time>2026-05-13T15:03:09Z</time>
      </trkpt>
      <trkpt lat="47.41478" lon="6.9524">
        <ele>613</ele>
        <time>2026-05-13T15:03:12Z</time>
      </trkpt>
      <trkpt lat="47.41486" lon="6.9523">
        <ele>613.2</ele>
        <time>2026-05-13T15:03:14Z</time>
      </trkpt>
      <trkpt lat="47.41504" lon="6.95194">
        <ele>613.2</ele>
        <time>2026-05-13T15:03:20Z</time>
      </trkpt>
      <trkpt lat="47.41516" lon="6.95175">
        <ele>613.2</ele>
        <time>2026-05-13T15:03:23Z</time>
      </trkpt>
      <trkpt lat="47.41525" lon="6.95166">
        <ele>613.2</ele>
        <time>2026-05-13T15:03:25Z</time>
      </trkpt>
      <trkpt lat="47.41539" lon="6.95154">
        <ele>613.2</ele>
        <time>2026-05-13T15:03:28Z</time>
      </trkpt>
      <trkpt lat="47.41557" lon="6.95146">
        <ele>613.2</ele>
        <time>2026-05-13T15:03:31Z</time>
      </trkpt>
      <trkpt lat="47.41606" lon="6.95123">
        <ele>612.2</ele>
        <time>2026-05-13T15:03:39Z</time>
      </trkpt>
      <trkpt lat="47.41623" lon="6.95112">
        <ele>611.4</ele>
        <time>2026-05-13T15:03:42Z</time>
      </trkpt>
      <trkpt lat="47.41633" lon="6.95104">
        <ele>610.4</ele>
        <time>2026-05-13T15:03:44Z</time>
      </trkpt>
      <trkpt lat="47.41638" lon="6.95101">
        <ele>610.2</ele>
        <time>2026-05-13T15:03:45Z</time>
      </trkpt>
      <trkpt lat="47.41647" lon="6.95105">
        <ele>609.4</ele>
        <time>2026-05-13T15:03:47Z</time>
      </trkpt>
      <trkpt lat="47.41649" lon="6.95111">
        <ele>608.8</ele>
        <time>2026-05-13T15:03:48Z</time>
      </trkpt>
      <trkpt lat="47.41651" lon="6.95119">
        <ele>608.2</ele>
        <time>2026-05-13T15:03:49Z</time>
      </trkpt>
      <trkpt lat="47.41654" lon="6.95126">
        <ele>608</ele>
        <time>2026-05-13T15:03:50Z</time>
      </trkpt>
      <trkpt lat="47.41659" lon="6.95141">
        <ele>607.8</ele>
        <time>2026-05-13T15:03:52Z</time>
      </trkpt>
      <trkpt lat="47.41677" lon="6.95175">
        <ele>607.2</ele>
        <time>2026-05-13T15:03:57Z</time>
      </trkpt>
      <trkpt lat="47.41707" lon="6.95203">
        <ele>606.8</ele>
        <time>2026-05-13T15:04:03Z</time>
      </trkpt>
      <trkpt lat="47.41717" lon="6.95212">
        <ele>606.6</ele>
        <time>2026-05-13T15:04:05Z</time>
      </trkpt>
      <trkpt lat="47.41722" lon="6.95216">
        <ele>606.6</ele>
        <time>2026-05-13T15:04:06Z</time>
      </trkpt>
      <trkpt lat="47.41726" lon="6.95222">
        <ele>606.6</ele>
        <time>2026-05-13T15:04:07Z</time>
      </trkpt>
      <trkpt lat="47.41735" lon="6.95233">
        <ele>606.4</ele>
        <time>2026-05-13T15:04:09Z</time>
      </trkpt>
      <trkpt lat="47.4176" lon="6.95281">
        <ele>606.2</ele>
        <time>2026-05-13T15:04:16Z</time>
      </trkpt>
      <trkpt lat="47.4178" lon="6.95339">
        <ele>606.4</ele>
        <time>2026-05-13T15:04:23Z</time>
      </trkpt>
      <trkpt lat="47.41799" lon="6.95381">
        <ele>606.4</ele>
        <time>2026-05-13T15:04:29Z</time>
      </trkpt>
      <trkpt lat="47.41804" lon="6.95386">
        <ele>606.4</ele>
        <time>2026-05-13T15:04:30Z</time>
      </trkpt>
      <trkpt lat="47.41808" lon="6.95392">
        <ele>606.4</ele>
        <time>2026-05-13T15:04:31Z</time>
      </trkpt>
      <trkpt lat="47.41812" lon="6.95408">
        <ele>606.4</ele>
        <time>2026-05-13T15:04:33Z</time>
      </trkpt>
      <trkpt lat="47.41824" lon="6.95469">
        <ele>606.2</ele>
        <time>2026-05-13T15:04:40Z</time>
      </trkpt>
      <trkpt lat="47.41838" lon="6.95548">
        <ele>605.8</ele>
        <time>2026-05-13T15:04:48Z</time>
      </trkpt>
      <trkpt lat="47.41839" lon="6.95557">
        <ele>605.8</ele>
        <time>2026-05-13T15:04:49Z</time>
      </trkpt>
      <trkpt lat="47.41854" lon="6.95635">
        <ele>605.6</ele>
        <time>2026-05-13T15:04:57Z</time>
      </trkpt>
      <trkpt lat="47.41869" lon="6.95721">
        <ele>605</ele>
        <time>2026-05-13T15:05:06Z</time>
      </trkpt>
      <trkpt lat="47.4187" lon="6.9573">
        <ele>605</ele>
        <time>2026-05-13T15:05:07Z</time>
      </trkpt>
      <trkpt lat="47.41871" lon="6.9574">
        <ele>604.8</ele>
        <time>2026-05-13T15:05:08Z</time>
      </trkpt>
      <trkpt lat="47.41872" lon="6.95801">
        <ele>604.4</ele>
        <time>2026-05-13T15:05:14Z</time>
      </trkpt>
      <trkpt lat="47.4187" lon="6.95842">
        <ele>603.8</ele>
        <time>2026-05-13T15:05:18Z</time>
      </trkpt>
      <trkpt lat="47.41864" lon="6.95886">
        <ele>603.4</ele>
        <time>2026-05-13T15:05:22Z</time>
      </trkpt>
      <trkpt lat="47.4186" lon="6.95906">
        <ele>603.2</ele>
        <time>2026-05-13T15:05:24Z</time>
      </trkpt>
      <trkpt lat="47.41853" lon="6.95925">
        <ele>603</ele>
        <time>2026-05-13T15:05:26Z</time>
      </trkpt>
      <trkpt lat="47.41848" lon="6.95933">
        <ele>603</ele>
        <time>2026-05-13T15:05:27Z</time>
      </trkpt>
      <trkpt lat="47.41839" lon="6.95947">
        <ele>603</ele>
        <time>2026-05-13T15:05:29Z</time>
      </trkpt>
      <trkpt lat="47.41837" lon="6.95955">
        <ele>602.8</ele>
        <time>2026-05-13T15:05:30Z</time>
      </trkpt>
      <trkpt lat="47.41838" lon="6.95964">
        <ele>602.8</ele>
        <time>2026-05-13T15:05:31Z</time>
      </trkpt>
      <trkpt lat="47.41841" lon="6.95972">
        <ele>602.8</ele>
        <time>2026-05-13T15:05:32Z</time>
      </trkpt>
      <trkpt lat="47.41845" lon="6.95978">
        <ele>602.8</ele>
        <time>2026-05-13T15:05:33Z</time>
      </trkpt>
      <trkpt lat="47.41855" lon="6.95987">
        <ele>603</ele>
        <time>2026-05-13T15:05:35Z</time>
      </trkpt>
      <trkpt lat="47.41863" lon="6.96">
        <ele>603</ele>
        <time>2026-05-13T15:05:37Z</time>
      </trkpt>
      <trkpt lat="47.41868" lon="6.96015">
        <ele>603.2</ele>
        <time>2026-05-13T15:05:39Z</time>
      </trkpt>
      <trkpt lat="47.4187" lon="6.96023">
        <ele>603.2</ele>
        <time>2026-05-13T15:05:40Z</time>
      </trkpt>
      <trkpt lat="47.41872" lon="6.96041">
        <ele>603.4</ele>
        <time>2026-05-13T15:05:42Z</time>
      </trkpt>
      <trkpt lat="47.41872" lon="6.96051">
        <ele>603.4</ele>
        <time>2026-05-13T15:05:43Z</time>
      </trkpt>
      <trkpt lat="47.41868" lon="6.96126">
        <ele>604</ele>
        <time>2026-05-13T15:05:51Z</time>
      </trkpt>
      <trkpt lat="47.41865" lon="6.96198">
        <ele>604</ele>
        <time>2026-05-13T15:05:58Z</time>
      </trkpt>
      <trkpt lat="47.41862" lon="6.96276">
        <ele>603.6</ele>
        <time>2026-05-13T15:06:05Z</time>
      </trkpt>
      <trkpt lat="47.41864" lon="6.96341">
        <ele>602.8</ele>
        <time>2026-05-13T15:06:11Z</time>
      </trkpt>
      <trkpt lat="47.41875" lon="6.96393">
        <ele>602.4</ele>
        <time>2026-05-13T15:06:16Z</time>
      </trkpt>
      <trkpt lat="47.41902" lon="6.96469">
        <ele>602.4</ele>
        <time>2026-05-13T15:06:24Z</time>
      </trkpt>
      <trkpt lat="47.41908" lon="6.96489">
        <ele>602.4</ele>
        <time>2026-05-13T15:06:26Z</time>
      </trkpt>
      <trkpt lat="47.41934" lon="6.96567">
        <ele>602.6</ele>
        <time>2026-05-13T15:06:34Z</time>
      </trkpt>
      <trkpt lat="47.41939" lon="6.96586">
        <ele>602.6</ele>
        <time>2026-05-13T15:06:36Z</time>
      </trkpt>
      <trkpt lat="47.41958" lon="6.96661">
        <ele>602.8</ele>
        <time>2026-05-13T15:06:44Z</time>
      </trkpt>
      <trkpt lat="47.4196" lon="6.96671">
        <ele>602.8</ele>
        <time>2026-05-13T15:06:45Z</time>
      </trkpt>
      <trkpt lat="47.41976" lon="6.96748">
        <ele>603</ele>
        <time>2026-05-13T15:06:53Z</time>
      </trkpt>
      <trkpt lat="47.4198" lon="6.96768">
        <ele>603</ele>
        <time>2026-05-13T15:06:55Z</time>
      </trkpt>
      <trkpt lat="47.41996" lon="6.96854">
        <ele>603.4</ele>
        <time>2026-05-13T15:07:04Z</time>
      </trkpt>
      <trkpt lat="47.41998" lon="6.96864">
        <ele>603.4</ele>
        <time>2026-05-13T15:07:05Z</time>
      </trkpt>
      <trkpt lat="47.42005" lon="6.96903">
        <ele>603.8</ele>
        <time>2026-05-13T15:07:09Z</time>
      </trkpt>
      <trkpt lat="47.42012" lon="6.96941">
        <ele>604.2</ele>
        <time>2026-05-13T15:07:13Z</time>
      </trkpt>
      <trkpt lat="47.42026" lon="6.97019">
        <ele>604.8</ele>
        <time>2026-05-13T15:07:22Z</time>
      </trkpt>
      <trkpt lat="47.42027" lon="6.97027">
        <ele>604.8</ele>
        <time>2026-05-13T15:07:23Z</time>
      </trkpt>
      <trkpt lat="47.4203" lon="6.97042">
        <ele>605</ele>
        <time>2026-05-13T15:07:25Z</time>
      </trkpt>
      <trkpt lat="47.42036" lon="6.9708">
        <ele>606</ele>
        <time>2026-05-13T15:07:30Z</time>
      </trkpt>
      <trkpt lat="47.4204" lon="6.97115">
        <ele>607</ele>
        <time>2026-05-13T15:07:35Z</time>
      </trkpt>
      <trkpt lat="47.4204" lon="6.97127">
        <ele>607.2</ele>
        <time>2026-05-13T15:07:37Z</time>
      </trkpt>
      <trkpt lat="47.42041" lon="6.97158">
        <ele>608.2</ele>
        <time>2026-05-13T15:07:42Z</time>
      </trkpt>
      <trkpt lat="47.4204" lon="6.9717">
        <ele>608.6</ele>
        <time>2026-05-13T15:07:44Z</time>
      </trkpt>
      <trkpt lat="47.42038" lon="6.97192">
        <ele>609.6</ele>
        <time>2026-05-13T15:07:48Z</time>
      </trkpt>
      <trkpt lat="47.42035" lon="6.9722">
        <ele>610.6</ele>
        <time>2026-05-13T15:07:53Z</time>
      </trkpt>
      <trkpt lat="47.42028" lon="6.97259">
        <ele>611.8</ele>
        <time>2026-05-13T15:08:00Z</time>
      </trkpt>
      <trkpt lat="47.42026" lon="6.9727">
        <ele>612</ele>
        <time>2026-05-13T15:08:02Z</time>
      </trkpt>
      <trkpt lat="47.42024" lon="6.97281">
        <ele>612.8</ele>
        <time>2026-05-13T15:08:04Z</time>
      </trkpt>
      <trkpt lat="47.4202" lon="6.97318">
        <ele>613.8</ele>
        <time>2026-05-13T15:08:10Z</time>
      </trkpt>
      <trkpt lat="47.4202" lon="6.97325">
        <ele>614</ele>
        <time>2026-05-13T15:08:11Z</time>
      </trkpt>
      <trkpt lat="47.42019" lon="6.97359">
        <ele>614.8</ele>
        <time>2026-05-13T15:08:16Z</time>
      </trkpt>
      <trkpt lat="47.4202" lon="6.97389">
        <ele>615</ele>
        <time>2026-05-13T15:08:20Z</time>
      </trkpt>
      <trkpt lat="47.42026" lon="6.97444">
        <ele>615</ele>
        <time>2026-05-13T15:08:27Z</time>
      </trkpt>
      <trkpt lat="47.42037" lon="6.97503">
        <ele>614.2</ele>
        <time>2026-05-13T15:08:33Z</time>
      </trkpt>
      <trkpt lat="47.42048" lon="6.9753">
        <ele>613.6</ele>
        <time>2026-05-13T15:08:36Z</time>
      </trkpt>
      <trkpt lat="47.42058" lon="6.97548">
        <ele>613.4</ele>
        <time>2026-05-13T15:08:38Z</time>
      </trkpt>
      <trkpt lat="47.42097" lon="6.97602">
        <ele>613</ele>
        <time>2026-05-13T15:08:45Z</time>
      </trkpt>
      <trkpt lat="47.4213" lon="6.97649">
        <ele>612.8</ele>
        <time>2026-05-13T15:08:51Z</time>
      </trkpt>
      <trkpt lat="47.42137" lon="6.9766">
        <ele>612.6</ele>
        <time>2026-05-13T15:08:52Z</time>
      </trkpt>
      <trkpt lat="47.42154" lon="6.97686">
        <ele>612.2</ele>
        <time>2026-05-13T15:08:55Z</time>
      </trkpt>
      <trkpt lat="47.42161" lon="6.97695">
        <ele>612</ele>
        <time>2026-05-13T15:08:56Z</time>
      </trkpt>
      <trkpt lat="47.42174" lon="6.97715">
        <ele>611.6</ele>
        <time>2026-05-13T15:08:58Z</time>
      </trkpt>
      <trkpt lat="47.42201" lon="6.97753">
        <ele>611.6</ele>
        <time>2026-05-13T15:09:03Z</time>
      </trkpt>
      <trkpt lat="47.42228" lon="6.97794">
        <ele>612.8</ele>
        <time>2026-05-13T15:09:09Z</time>
      </trkpt>
      <trkpt lat="47.42233" lon="6.978">
        <ele>613.2</ele>
        <time>2026-05-13T15:09:10Z</time>
      </trkpt>
      <trkpt lat="47.42242" lon="6.97814">
        <ele>613.6</ele>
        <time>2026-05-13T15:09:12Z</time>
      </trkpt>
      <trkpt lat="47.42253" lon="6.9783">
        <ele>613.8</ele>
        <time>2026-05-13T15:09:15Z</time>
      </trkpt>
      <trkpt lat="47.42257" lon="6.97836">
        <ele>614</ele>
        <time>2026-05-13T15:09:16Z</time>
      </trkpt>
      <trkpt lat="47.42283" lon="6.97873">
        <ele>615</ele>
        <time>2026-05-13T15:09:22Z</time>
      </trkpt>
      <trkpt lat="47.42287" lon="6.97879">
        <ele>615.2</ele>
        <time>2026-05-13T15:09:23Z</time>
      </trkpt>
      <trkpt lat="47.42325" lon="6.97936">
        <ele>615.4</ele>
        <time>2026-05-13T15:09:31Z</time>
      </trkpt>
      <trkpt lat="47.42331" lon="6.97945">
        <ele>615.4</ele>
        <time>2026-05-13T15:09:32Z</time>
      </trkpt>
      <trkpt lat="47.4237" lon="6.98006">
        <ele>614.6</ele>
        <time>2026-05-13T15:09:40Z</time>
      </trkpt>
      <trkpt lat="47.42387" lon="6.98033">
        <ele>613.6</ele>
        <time>2026-05-13T15:09:43Z</time>
      </trkpt>
      <trkpt lat="47.4241" lon="6.98071">
        <ele>612.8</ele>
        <time>2026-05-13T15:09:47Z</time>
      </trkpt>
      <trkpt lat="47.42416" lon="6.98081">
        <ele>612.4</ele>
        <time>2026-05-13T15:09:48Z</time>
      </trkpt>
      <trkpt lat="47.42436" lon="6.98113">
        <ele>611.2</ele>
        <time>2026-05-13T15:09:51Z</time>
      </trkpt>
      <trkpt lat="47.42447" lon="6.98132">
        <ele>610.6</ele>
        <time>2026-05-13T15:09:53Z</time>
      </trkpt>
      <trkpt lat="47.42462" lon="6.98157">
        <ele>610</ele>
        <time>2026-05-13T15:09:55Z</time>
      </trkpt>
      <trkpt lat="47.42476" lon="6.98178">
        <ele>609</ele>
        <time>2026-05-13T15:09:57Z</time>
      </trkpt>
      <trkpt lat="47.42493" lon="6.98204">
        <ele>607.4</ele>
        <time>2026-05-13T15:09:59Z</time>
      </trkpt>
      <trkpt lat="47.42507" lon="6.98226">
        <ele>606</ele>
        <time>2026-05-13T15:10:01Z</time>
      </trkpt>
      <trkpt lat="47.42514" lon="6.98237">
        <ele>605</ele>
        <time>2026-05-13T15:10:02Z</time>
      </trkpt>
      <trkpt lat="47.42531" lon="6.98264">
        <ele>604</ele>
        <time>2026-05-13T15:10:04Z</time>
      </trkpt>
      <trkpt lat="47.42537" lon="6.98273">
        <ele>603</ele>
        <time>2026-05-13T15:10:05Z</time>
      </trkpt>
      <trkpt lat="47.42544" lon="6.98284">
        <ele>602.8</ele>
        <time>2026-05-13T15:10:06Z</time>
      </trkpt>
      <trkpt lat="47.42563" lon="6.98322">
        <ele>602.2</ele>
        <time>2026-05-13T15:10:09Z</time>
      </trkpt>
      <trkpt lat="47.42573" lon="6.98345">
        <ele>601.8</ele>
        <time>2026-05-13T15:10:11Z</time>
      </trkpt>
      <trkpt lat="47.42588" lon="6.98384">
        <ele>600.6</ele>
        <time>2026-05-13T15:10:14Z</time>
      </trkpt>
      <trkpt lat="47.42597" lon="6.9841">
        <ele>600.4</ele>
        <time>2026-05-13T15:10:16Z</time>
      </trkpt>
      <trkpt lat="47.42611" lon="6.9845">
        <ele>599.6</ele>
        <time>2026-05-13T15:10:19Z</time>
      </trkpt>
      <trkpt lat="47.42615" lon="6.98463">
        <ele>599.6</ele>
        <time>2026-05-13T15:10:20Z</time>
      </trkpt>
      <trkpt lat="47.42621" lon="6.98487">
        <ele>599.2</ele>
        <time>2026-05-13T15:10:22Z</time>
      </trkpt>
      <trkpt lat="47.42637" lon="6.98542">
        <ele>598.6</ele>
        <time>2026-05-13T15:10:26Z</time>
      </trkpt>
      <trkpt lat="47.42644" lon="6.98563">
        <ele>598.2</ele>
        <time>2026-05-13T15:10:28Z</time>
      </trkpt>
      <trkpt lat="47.42658" lon="6.98611">
        <ele>597.4</ele>
        <time>2026-05-13T15:10:32Z</time>
      </trkpt>
      <trkpt lat="47.42666" lon="6.98634">
        <ele>597.2</ele>
        <time>2026-05-13T15:10:34Z</time>
      </trkpt>
      <trkpt lat="47.42688" lon="6.98702">
        <ele>596.4</ele>
        <time>2026-05-13T15:10:40Z</time>
      </trkpt>
      <trkpt lat="47.42693" lon="6.98713">
        <ele>596</ele>
        <time>2026-05-13T15:10:41Z</time>
      </trkpt>
      <trkpt lat="47.4272" lon="6.98768">
        <ele>594.8</ele>
        <time>2026-05-13T15:10:46Z</time>
      </trkpt>
      <trkpt lat="47.4273" lon="6.98786">
        <ele>594.6</ele>
        <time>2026-05-13T15:10:48Z</time>
      </trkpt>
      <trkpt lat="47.42768" lon="6.98841">
        <ele>593.6</ele>
        <time>2026-05-13T15:10:54Z</time>
      </trkpt>
      <trkpt lat="47.42788" lon="6.98868">
        <ele>593</ele>
        <time>2026-05-13T15:10:57Z</time>
      </trkpt>
      <trkpt lat="47.42822" lon="6.98912">
        <ele>592.8</ele>
        <time>2026-05-13T15:11:03Z</time>
      </trkpt>
      <trkpt lat="47.4286" lon="6.98951">
        <ele>594.2</ele>
        <time>2026-05-13T15:11:10Z</time>
      </trkpt>
      <trkpt lat="47.4287" lon="6.9896">
        <ele>594.8</ele>
        <time>2026-05-13T15:11:12Z</time>
      </trkpt>
      <trkpt lat="47.4289" lon="6.98977">
        <ele>595</ele>
        <time>2026-05-13T15:11:16Z</time>
      </trkpt>
      <trkpt lat="47.42925" lon="6.9901">
        <ele>595.8</ele>
        <time>2026-05-13T15:11:23Z</time>
      </trkpt>
      <trkpt lat="47.4293" lon="6.99015">
        <ele>595.8</ele>
        <time>2026-05-13T15:11:24Z</time>
      </trkpt>
      <trkpt lat="47.42949" lon="6.9904">
        <ele>596</ele>
        <time>2026-05-13T15:11:28Z</time>
      </trkpt>
      <trkpt lat="47.42971" lon="6.99072">
        <ele>596.2</ele>
        <time>2026-05-13T15:11:33Z</time>
      </trkpt>
      <trkpt lat="47.42996" lon="6.99111">
        <ele>596.8</ele>
        <time>2026-05-13T15:11:39Z</time>
      </trkpt>
      <trkpt lat="47.43018" lon="6.99144">
        <ele>597</ele>
        <time>2026-05-13T15:11:44Z</time>
      </trkpt>
      <trkpt lat="47.43052" lon="6.99193">
        <ele>597</ele>
        <time>2026-05-13T15:11:51Z</time>
      </trkpt>
      <trkpt lat="47.43057" lon="6.99197">
        <ele>597</ele>
        <time>2026-05-13T15:11:52Z</time>
      </trkpt>
      <trkpt lat="47.43063" lon="6.99201">
        <ele>597</ele>
        <time>2026-05-13T15:11:53Z</time>
      </trkpt>
      <trkpt lat="47.43075" lon="6.99207">
        <ele>597</ele>
        <time>2026-05-13T15:11:55Z</time>
      </trkpt>
      <trkpt lat="47.43088" lon="6.9921">
        <ele>597.2</ele>
        <time>2026-05-13T15:11:57Z</time>
      </trkpt>
      <trkpt lat="47.43147" lon="6.99209">
        <ele>596.8</ele>
        <time>2026-05-13T15:12:06Z</time>
      </trkpt>
      <trkpt lat="47.43154" lon="6.99209">
        <ele>596.8</ele>
        <time>2026-05-13T15:12:07Z</time>
      </trkpt>
      <trkpt lat="47.43198" lon="6.99215">
        <ele>596.4</ele>
        <time>2026-05-13T15:12:13Z</time>
      </trkpt>
      <trkpt lat="47.43206" lon="6.9922">
        <ele>596.2</ele>
        <time>2026-05-13T15:12:14Z</time>
      </trkpt>
      <trkpt lat="47.43212" lon="6.99226">
        <ele>596.2</ele>
        <time>2026-05-13T15:12:15Z</time>
      </trkpt>
      <trkpt lat="47.43223" lon="6.99242">
        <ele>596</ele>
        <time>2026-05-13T15:12:17Z</time>
      </trkpt>
      <trkpt lat="47.43228" lon="6.99251">
        <ele>596</ele>
        <time>2026-05-13T15:12:18Z</time>
      </trkpt>
      <trkpt lat="47.43247" lon="6.993">
        <ele>595.6</ele>
        <time>2026-05-13T15:12:23Z</time>
      </trkpt>
      <trkpt lat="47.43273" lon="6.99379">
        <ele>595.8</ele>
        <time>2026-05-13T15:12:31Z</time>
      </trkpt>
      <trkpt lat="47.43291" lon="6.99454">
        <ele>596.8</ele>
        <time>2026-05-13T15:12:39Z</time>
      </trkpt>
      <trkpt lat="47.43293" lon="6.99463">
        <ele>597</ele>
        <time>2026-05-13T15:12:40Z</time>
      </trkpt>
      <trkpt lat="47.43309" lon="6.99531">
        <ele>598</ele>
        <time>2026-05-13T15:12:48Z</time>
      </trkpt>
      <trkpt lat="47.43327" lon="6.99607">
        <ele>598.8</ele>
        <time>2026-05-13T15:12:57Z</time>
      </trkpt>
      <trkpt lat="47.43331" lon="6.99624">
        <ele>598.8</ele>
        <time>2026-05-13T15:12:59Z</time>
      </trkpt>
      <trkpt lat="47.43351" lon="6.99701">
        <ele>598.6</ele>
        <time>2026-05-13T15:13:08Z</time>
      </trkpt>
      <trkpt lat="47.43354" lon="6.99709">
        <ele>598.6</ele>
        <time>2026-05-13T15:13:09Z</time>
      </trkpt>
      <trkpt lat="47.43376" lon="6.99784">
        <ele>599</ele>
        <time>2026-05-13T15:13:18Z</time>
      </trkpt>
      <trkpt lat="47.43379" lon="6.99791">
        <ele>599</ele>
        <time>2026-05-13T15:13:19Z</time>
      </trkpt>
      <trkpt lat="47.43391" lon="6.99829">
        <ele>599.4</ele>
        <time>2026-05-13T15:13:24Z</time>
      </trkpt>
      <trkpt lat="47.43407" lon="6.99874">
        <ele>600</ele>
        <time>2026-05-13T15:13:30Z</time>
      </trkpt>
      <trkpt lat="47.4342" lon="6.9991">
        <ele>600.4</ele>
        <time>2026-05-13T15:13:35Z</time>
      </trkpt>
      <trkpt lat="47.43434" lon="6.99947">
        <ele>600.8</ele>
        <time>2026-05-13T15:13:40Z</time>
      </trkpt>
      <trkpt lat="47.43462" lon="7.00017">
        <ele>601.4</ele>
        <time>2026-05-13T15:13:49Z</time>
      </trkpt>
      <trkpt lat="47.43466" lon="7.00024">
        <ele>601.4</ele>
        <time>2026-05-13T15:13:50Z</time>
      </trkpt>
      <trkpt lat="47.43499" lon="7.0009">
        <ele>602.2</ele>
        <time>2026-05-13T15:13:59Z</time>
      </trkpt>
      <trkpt lat="47.43512" lon="7.00109">
        <ele>602.6</ele>
        <time>2026-05-13T15:14:02Z</time>
      </trkpt>
      <trkpt lat="47.43545" lon="7.00157">
        <ele>603.2</ele>
        <time>2026-05-13T15:14:10Z</time>
      </trkpt>
      <trkpt lat="47.43563" lon="7.00184">
        <ele>603.8</ele>
        <time>2026-05-13T15:14:15Z</time>
      </trkpt>
      <trkpt lat="47.4357" lon="7.00196">
        <ele>604</ele>
        <time>2026-05-13T15:14:17Z</time>
      </trkpt>
      <trkpt lat="47.43582" lon="7.00218">
        <ele>604.8</ele>
        <time>2026-05-13T15:14:21Z</time>
      </trkpt>
      <trkpt lat="47.43592" lon="7.00231">
        <ele>605.2</ele>
        <time>2026-05-13T15:14:24Z</time>
      </trkpt>
      <trkpt lat="47.43604" lon="7.00249">
        <ele>606</ele>
        <time>2026-05-13T15:14:28Z</time>
      </trkpt>
      <trkpt lat="47.43613" lon="7.00261">
        <ele>607</ele>
        <time>2026-05-13T15:14:31Z</time>
      </trkpt>
      <trkpt lat="47.43616" lon="7.00265">
        <ele>607.4</ele>
        <time>2026-05-13T15:14:32Z</time>
      </trkpt>
      <trkpt lat="47.43623" lon="7.00271">
        <ele>608</ele>
        <time>2026-05-13T15:14:34Z</time>
      </trkpt>
      <trkpt lat="47.43639" lon="7.00284">
        <ele>608.6</ele>
        <time>2026-05-13T15:14:39Z</time>
      </trkpt>
      <trkpt lat="47.43648" lon="7.0029">
        <ele>609.4</ele>
        <time>2026-05-13T15:14:42Z</time>
      </trkpt>
      <trkpt lat="47.43654" lon="7.00293">
        <ele>610.6</ele>
        <time>2026-05-13T15:14:44Z</time>
      </trkpt>
      <trkpt lat="47.4366" lon="7.00297">
        <ele>611.2</ele>
        <time>2026-05-13T15:14:46Z</time>
      </trkpt>
      <trkpt lat="47.43669" lon="7.00304">
        <ele>611.8</ele>
        <time>2026-05-13T15:14:49Z</time>
      </trkpt>
      <trkpt lat="47.43687" lon="7.00317">
        <ele>612.6</ele>
        <time>2026-05-13T15:14:55Z</time>
      </trkpt>
      <trkpt lat="47.4369" lon="7.00319">
        <ele>612.8</ele>
        <time>2026-05-13T15:14:56Z</time>
      </trkpt>
      <trkpt lat="47.43708" lon="7.00325">
        <ele>614</ele>
        <time>2026-05-13T15:15:01Z</time>
      </trkpt>
      <trkpt lat="47.43715" lon="7.00327">
        <ele>614.6</ele>
        <time>2026-05-13T15:15:03Z</time>
      </trkpt>
      <trkpt lat="47.43722" lon="7.0033">
        <ele>615.2</ele>
        <time>2026-05-13T15:15:05Z</time>
      </trkpt>
      <trkpt lat="47.43744" lon="7.00343">
        <ele>615.8</ele>
        <time>2026-05-13T15:15:12Z</time>
      </trkpt>
      <trkpt lat="47.4376" lon="7.00356">
        <ele>616.2</ele>
        <time>2026-05-13T15:15:17Z</time>
      </trkpt>
      <trkpt lat="47.43766" lon="7.00361">
        <ele>616.6</ele>
        <time>2026-05-13T15:15:19Z</time>
      </trkpt>
      <trkpt lat="47.43779" lon="7.00373">
        <ele>617.2</ele>
        <time>2026-05-13T15:15:23Z</time>
      </trkpt>
      <trkpt lat="47.43795" lon="7.00391">
        <ele>618</ele>
        <time>2026-05-13T15:15:28Z</time>
      </trkpt>
      <trkpt lat="47.43801" lon="7.00399">
        <ele>618.4</ele>
        <time>2026-05-13T15:15:30Z</time>
      </trkpt>
      <trkpt lat="47.43827" lon="7.00435">
        <ele>618.8</ele>
        <time>2026-05-13T15:15:38Z</time>
      </trkpt>
      <trkpt lat="47.43858" lon="7.00472">
        <ele>619.2</ele>
        <time>2026-05-13T15:15:47Z</time>
      </trkpt>
      <trkpt lat="47.43882" lon="7.00501">
        <ele>619.6</ele>
        <time>2026-05-13T15:15:54Z</time>
      </trkpt>
      <trkpt lat="47.43885" lon="7.00506">
        <ele>619.6</ele>
        <time>2026-05-13T15:15:55Z</time>
      </trkpt>
      <trkpt lat="47.43901" lon="7.00528">
        <ele>620</ele>
        <time>2026-05-13T15:16:00Z</time>
      </trkpt>
      <trkpt lat="47.43908" lon="7.00534">
        <ele>620.4</ele>
        <time>2026-05-13T15:16:02Z</time>
      </trkpt>
      <trkpt lat="47.43911" lon="7.00536">
        <ele>620.6</ele>
        <time>2026-05-13T15:16:03Z</time>
      </trkpt>
      <trkpt lat="47.43916" lon="7.00538">
        <ele>620.6</ele>
        <time>2026-05-13T15:16:04Z</time>
      </trkpt>
      <trkpt lat="47.43934" lon="7.00541">
        <ele>620.8</ele>
        <time>2026-05-13T15:16:08Z</time>
      </trkpt>
      <trkpt lat="47.43971" lon="7.00539">
        <ele>620.6</ele>
        <time>2026-05-13T15:16:14Z</time>
      </trkpt>
      <trkpt lat="47.44014" lon="7.00546">
        <ele>619.6</ele>
        <time>2026-05-13T15:16:20Z</time>
      </trkpt>
      <trkpt lat="47.44064" lon="7.00568">
        <ele>619.2</ele>
        <time>2026-05-13T15:16:28Z</time>
      </trkpt>
      <trkpt lat="47.441" lon="7.00582">
        <ele>620</ele>
        <time>2026-05-13T15:16:34Z</time>
      </trkpt>
      <trkpt lat="47.44116" lon="7.00589">
        <ele>620.8</ele>
        <time>2026-05-13T15:16:37Z</time>
      </trkpt>
      <trkpt lat="47.44129" lon="7.00595">
        <ele>621.2</ele>
        <time>2026-05-13T15:16:40Z</time>
      </trkpt>
      <trkpt lat="47.44145" lon="7.00603">
        <ele>621.8</ele>
        <time>2026-05-13T15:16:43Z</time>
      </trkpt>
      <trkpt lat="47.44157" lon="7.00614">
        <ele>622.6</ele>
        <time>2026-05-13T15:16:46Z</time>
      </trkpt>
      <trkpt lat="47.44162" lon="7.00618">
        <ele>622.8</ele>
        <time>2026-05-13T15:16:47Z</time>
      </trkpt>
      <trkpt lat="47.44166" lon="7.00622">
        <ele>623</ele>
        <time>2026-05-13T15:16:48Z</time>
      </trkpt>
      <trkpt lat="47.44186" lon="7.0064">
        <ele>624</ele>
        <time>2026-05-13T15:16:53Z</time>
      </trkpt>
      <trkpt lat="47.44209" lon="7.00659">
        <ele>625.2</ele>
        <time>2026-05-13T15:16:58Z</time>
      </trkpt>
      <trkpt lat="47.44216" lon="7.00666">
        <ele>625.6</ele>
        <time>2026-05-13T15:17:00Z</time>
      </trkpt>
      <trkpt lat="47.44242" lon="7.00686">
        <ele>625.8</ele>
        <time>2026-05-13T15:17:06Z</time>
      </trkpt>
      <trkpt lat="47.44247" lon="7.00688">
        <ele>625.8</ele>
        <time>2026-05-13T15:17:07Z</time>
      </trkpt>
      <trkpt lat="47.44284" lon="7.00694">
        <ele>625</ele>
        <time>2026-05-13T15:17:13Z</time>
      </trkpt>
      <trkpt lat="47.4433" lon="7.00694">
        <ele>624.2</ele>
        <time>2026-05-13T15:17:19Z</time>
      </trkpt>
      <trkpt lat="47.44337" lon="7.00694">
        <ele>624.2</ele>
        <time>2026-05-13T15:17:20Z</time>
      </trkpt>
      <trkpt lat="47.44359" lon="7.00693">
        <ele>623.6</ele>
        <time>2026-05-13T15:17:23Z</time>
      </trkpt>
      <trkpt lat="47.44372" lon="7.00696">
        <ele>623.4</ele>
        <time>2026-05-13T15:17:25Z</time>
      </trkpt>
      <trkpt lat="47.44378" lon="7.00699">
        <ele>623.4</ele>
        <time>2026-05-13T15:17:26Z</time>
      </trkpt>
      <trkpt lat="47.4439" lon="7.00709">
        <ele>623.4</ele>
        <time>2026-05-13T15:17:28Z</time>
      </trkpt>
      <trkpt lat="47.444" lon="7.00729">
        <ele>623.2</ele>
        <time>2026-05-13T15:17:31Z</time>
      </trkpt>
      <trkpt lat="47.44403" lon="7.00736">
        <ele>623</ele>
        <time>2026-05-13T15:17:32Z</time>
      </trkpt>
      <trkpt lat="47.44424" lon="7.0078">
        <ele>623.8</ele>
        <time>2026-05-13T15:17:39Z</time>
      </trkpt>
      <trkpt lat="47.44431" lon="7.00791">
        <ele>624.4</ele>
        <time>2026-05-13T15:17:41Z</time>
      </trkpt>
      <trkpt lat="47.44449" lon="7.00816">
        <ele>625</ele>
        <time>2026-05-13T15:17:46Z</time>
      </trkpt>
      <trkpt lat="47.44461" lon="7.00829">
        <ele>625.4</ele>
        <time>2026-05-13T15:17:49Z</time>
      </trkpt>
      <trkpt lat="47.44485" lon="7.0085">
        <ele>626</ele>
        <time>2026-05-13T15:17:54Z</time>
      </trkpt>
      <trkpt lat="47.44505" lon="7.00868">
        <ele>626</ele>
        <time>2026-05-13T15:17:58Z</time>
      </trkpt>
      <trkpt lat="47.44516" lon="7.0088">
        <ele>626</ele>
        <time>2026-05-13T15:18:00Z</time>
      </trkpt>
      <trkpt lat="47.44527" lon="7.00892">
        <ele>626</ele>
        <time>2026-05-13T15:18:02Z</time>
      </trkpt>
      <trkpt lat="47.44541" lon="7.00901">
        <ele>625.6</ele>
        <time>2026-05-13T15:18:04Z</time>
      </trkpt>
      <trkpt lat="47.44571" lon="7.00924">
        <ele>624.2</ele>
        <time>2026-05-13T15:18:08Z</time>
      </trkpt>
      <trkpt lat="47.44579" lon="7.00931">
        <ele>624</ele>
        <time>2026-05-13T15:18:09Z</time>
      </trkpt>
      <trkpt lat="47.44605" lon="7.00956">
        <ele>622.6</ele>
        <time>2026-05-13T15:18:12Z</time>
      </trkpt>
      <trkpt lat="47.44613" lon="7.00967">
        <ele>621.6</ele>
        <time>2026-05-13T15:18:13Z</time>
      </trkpt>
      <trkpt lat="47.4462" lon="7.0098">
        <ele>621</ele>
        <time>2026-05-13T15:18:14Z</time>
      </trkpt>
      <trkpt lat="47.44625" lon="7.00994">
        <ele>620</ele>
        <time>2026-05-13T15:18:15Z</time>
      </trkpt>
      <trkpt lat="47.44629" lon="7.01009">
        <ele>619.4</ele>
        <time>2026-05-13T15:18:16Z</time>
      </trkpt>
      <trkpt lat="47.44633" lon="7.01023">
        <ele>618.4</ele>
        <time>2026-05-13T15:18:17Z</time>
      </trkpt>
      <trkpt lat="47.44648" lon="7.01049">
        <ele>616.4</ele>
        <time>2026-05-13T15:18:19Z</time>
      </trkpt>
      <trkpt lat="47.44657" lon="7.01059">
        <ele>615</ele>
        <time>2026-05-13T15:18:20Z</time>
      </trkpt>
      <trkpt lat="47.44667" lon="7.01066">
        <ele>614.2</ele>
        <time>2026-05-13T15:18:21Z</time>
      </trkpt>
      <trkpt lat="47.44679" lon="7.0107">
        <ele>612.8</ele>
        <time>2026-05-13T15:18:22Z</time>
      </trkpt>
      <trkpt lat="47.44704" lon="7.01073">
        <ele>611</ele>
        <time>2026-05-13T15:18:24Z</time>
      </trkpt>
      <trkpt lat="47.44717" lon="7.01074">
        <ele>609.8</ele>
        <time>2026-05-13T15:18:25Z</time>
      </trkpt>
      <trkpt lat="47.44742" lon="7.01077">
        <ele>608.2</ele>
        <time>2026-05-13T15:18:27Z</time>
      </trkpt>
      <trkpt lat="47.44767" lon="7.01081">
        <ele>606.6</ele>
        <time>2026-05-13T15:18:29Z</time>
      </trkpt>
      <trkpt lat="47.44791" lon="7.01084">
        <ele>605.6</ele>
        <time>2026-05-13T15:18:31Z</time>
      </trkpt>
      <trkpt lat="47.44829" lon="7.01088">
        <ele>603.8</ele>
        <time>2026-05-13T15:18:34Z</time>
      </trkpt>
      <trkpt lat="47.44841" lon="7.01089">
        <ele>602.8</ele>
        <time>2026-05-13T15:18:35Z</time>
      </trkpt>
      <trkpt lat="47.44856" lon="7.0109">
        <ele>602.4</ele>
        <time>2026-05-13T15:18:36Z</time>
      </trkpt>
      <trkpt lat="47.44869" lon="7.0109">
        <ele>601.4</ele>
        <time>2026-05-13T15:18:37Z</time>
      </trkpt>
      <trkpt lat="47.44891" lon="7.01087">
        <ele>600.4</ele>
        <time>2026-05-13T15:18:39Z</time>
      </trkpt>
      <trkpt lat="47.44919" lon="7.01083">
        <ele>599.2</ele>
        <time>2026-05-13T15:18:41Z</time>
      </trkpt>
      <trkpt lat="47.44941" lon="7.01079">
        <ele>598</ele>
        <time>2026-05-13T15:18:43Z</time>
      </trkpt>
      <trkpt lat="47.44968" lon="7.01075">
        <ele>596.6</ele>
        <time>2026-05-13T15:18:45Z</time>
      </trkpt>
      <trkpt lat="47.44981" lon="7.01073">
        <ele>595.6</ele>
        <time>2026-05-13T15:18:46Z</time>
      </trkpt>
      <trkpt lat="47.45002" lon="7.0107">
        <ele>594.2</ele>
        <time>2026-05-13T15:18:48Z</time>
      </trkpt>
      <trkpt lat="47.45025" lon="7.01067">
        <ele>593.2</ele>
        <time>2026-05-13T15:18:50Z</time>
      </trkpt>
      <trkpt lat="47.45048" lon="7.01063">
        <ele>591.2</ele>
        <time>2026-05-13T15:18:52Z</time>
      </trkpt>
      <trkpt lat="47.45095" lon="7.01056">
        <ele>589.6</ele>
        <time>2026-05-13T15:18:56Z</time>
      </trkpt>
      <trkpt lat="47.45115" lon="7.01054">
        <ele>589</ele>
        <time>2026-05-13T15:18:58Z</time>
      </trkpt>
      <trkpt lat="47.45127" lon="7.01054">
        <ele>588.4</ele>
        <time>2026-05-13T15:18:59Z</time>
      </trkpt>
      <trkpt lat="47.45149" lon="7.01056">
        <ele>587.2</ele>
        <time>2026-05-13T15:19:01Z</time>
      </trkpt>
      <trkpt lat="47.45168" lon="7.01059">
        <ele>586.8</ele>
        <time>2026-05-13T15:19:03Z</time>
      </trkpt>
      <trkpt lat="47.4523" lon="7.01075">
        <ele>586.6</ele>
        <time>2026-05-13T15:19:09Z</time>
      </trkpt>
      <trkpt lat="47.45248" lon="7.01079">
        <ele>586.4</ele>
        <time>2026-05-13T15:19:11Z</time>
      </trkpt>
      <trkpt lat="47.45306" lon="7.01094">
        <ele>586.2</ele>
        <time>2026-05-13T15:19:17Z</time>
      </trkpt>
      <trkpt lat="47.45325" lon="7.01102">
        <ele>586</ele>
        <time>2026-05-13T15:19:19Z</time>
      </trkpt>
      <trkpt lat="47.45341" lon="7.01114">
        <ele>585.2</ele>
        <time>2026-05-13T15:19:21Z</time>
      </trkpt>
      <trkpt lat="47.45348" lon="7.01118">
        <ele>585.2</ele>
        <time>2026-05-13T15:19:22Z</time>
      </trkpt>
      <trkpt lat="47.45359" lon="7.01121">
        <ele>585</ele>
        <time>2026-05-13T15:19:23Z</time>
      </trkpt>
      <trkpt lat="47.45379" lon="7.01124">
        <ele>583.8</ele>
        <time>2026-05-13T15:19:25Z</time>
      </trkpt>
      <trkpt lat="47.45409" lon="7.01141">
        <ele>582.2</ele>
        <time>2026-05-13T15:19:28Z</time>
      </trkpt>
      <trkpt lat="47.4542" lon="7.01148">
        <ele>581.8</ele>
        <time>2026-05-13T15:19:29Z</time>
      </trkpt>
      <trkpt lat="47.45428" lon="7.01154">
        <ele>581</ele>
        <time>2026-05-13T15:19:30Z</time>
      </trkpt>
      <trkpt lat="47.4545" lon="7.01171">
        <ele>579.8</ele>
        <time>2026-05-13T15:19:32Z</time>
      </trkpt>
      <trkpt lat="47.45477" lon="7.01195">
        <ele>578.6</ele>
        <time>2026-05-13T15:19:35Z</time>
      </trkpt>
      <trkpt lat="47.45486" lon="7.01203">
        <ele>578.2</ele>
        <time>2026-05-13T15:19:36Z</time>
      </trkpt>
      <trkpt lat="47.45497" lon="7.01214">
        <ele>577.4</ele>
        <time>2026-05-13T15:19:37Z</time>
      </trkpt>
      <trkpt lat="47.45514" lon="7.01233">
        <ele>576.2</ele>
        <time>2026-05-13T15:19:39Z</time>
      </trkpt>
      <trkpt lat="47.4553" lon="7.01254">
        <ele>575.4</ele>
        <time>2026-05-13T15:19:41Z</time>
      </trkpt>
      <trkpt lat="47.45537" lon="7.01265">
        <ele>574.8</ele>
        <time>2026-05-13T15:19:42Z</time>
      </trkpt>
      <trkpt lat="47.45557" lon="7.01298">
        <ele>573.8</ele>
        <time>2026-05-13T15:19:45Z</time>
      </trkpt>
      <trkpt lat="47.45563" lon="7.01311">
        <ele>573.6</ele>
        <time>2026-05-13T15:19:46Z</time>
      </trkpt>
      <trkpt lat="47.4559" lon="7.0138">
        <ele>572.8</ele>
        <time>2026-05-13T15:19:51Z</time>
      </trkpt>
      <trkpt lat="47.4562" lon="7.01442">
        <ele>571.8</ele>
        <time>2026-05-13T15:19:56Z</time>
      </trkpt>
      <trkpt lat="47.45627" lon="7.01453">
        <ele>571.6</ele>
        <time>2026-05-13T15:19:57Z</time>
      </trkpt>
      <trkpt lat="47.45661" lon="7.01502">
        <ele>571.2</ele>
        <time>2026-05-13T15:20:02Z</time>
      </trkpt>
      <trkpt lat="47.45703" lon="7.0156">
        <ele>571</ele>
        <time>2026-05-13T15:20:08Z</time>
      </trkpt>
      <trkpt lat="47.45717" lon="7.01578">
        <ele>571</ele>
        <time>2026-05-13T15:20:10Z</time>
      </trkpt>
      <trkpt lat="47.45744" lon="7.01614">
        <ele>570.8</ele>
        <time>2026-05-13T15:20:14Z</time>
      </trkpt>
      <trkpt lat="47.45768" lon="7.01647">
        <ele>570.6</ele>
        <time>2026-05-13T15:20:18Z</time>
      </trkpt>
      <trkpt lat="47.45809" lon="7.01702">
        <ele>570.2</ele>
        <time>2026-05-13T15:20:25Z</time>
      </trkpt>
      <trkpt lat="47.45828" lon="7.01731">
        <ele>569.4</ele>
        <time>2026-05-13T15:20:29Z</time>
      </trkpt>
      <trkpt lat="47.45837" lon="7.01746">
        <ele>568.8</ele>
        <time>2026-05-13T15:20:31Z</time>
      </trkpt>
      <trkpt lat="47.45846" lon="7.01764">
        <ele>568</ele>
        <time>2026-05-13T15:20:33Z</time>
      </trkpt>
      <trkpt lat="47.45851" lon="7.01772">
        <ele>567.4</ele>
        <time>2026-05-13T15:20:34Z</time>
      </trkpt>
      <trkpt lat="47.45862" lon="7.0179">
        <ele>566.8</ele>
        <time>2026-05-13T15:20:36Z</time>
      </trkpt>
      <trkpt lat="47.45892" lon="7.01832">
        <ele>565.4</ele>
        <time>2026-05-13T15:20:41Z</time>
      </trkpt>
      <trkpt lat="47.459" lon="7.01838">
        <ele>565</ele>
        <time>2026-05-13T15:20:42Z</time>
      </trkpt>
      <trkpt lat="47.45907" lon="7.01843">
        <ele>564.2</ele>
        <time>2026-05-13T15:20:43Z</time>
      </trkpt>
      <trkpt lat="47.45933" lon="7.01864">
        <ele>563.2</ele>
        <time>2026-05-13T15:20:47Z</time>
      </trkpt>
      <trkpt lat="47.45986" lon="7.01906">
        <ele>562.6</ele>
        <time>2026-05-13T15:20:55Z</time>
      </trkpt>
      <trkpt lat="47.46008" lon="7.01924">
        <ele>562</ele>
        <time>2026-05-13T15:20:58Z</time>
      </trkpt>
      <trkpt lat="47.46044" lon="7.01954">
        <ele>561</ele>
        <time>2026-05-13T15:21:03Z</time>
      </trkpt>
      <trkpt lat="47.46051" lon="7.0196">
        <ele>561</ele>
        <time>2026-05-13T15:21:04Z</time>
      </trkpt>
      <trkpt lat="47.46075" lon="7.01978">
        <ele>559.4</ele>
        <time>2026-05-13T15:21:07Z</time>
      </trkpt>
      <trkpt lat="47.46083" lon="7.01981">
        <ele>558.8</ele>
        <time>2026-05-13T15:21:08Z</time>
      </trkpt>
      <trkpt lat="47.46091" lon="7.01984">
        <ele>558.6</ele>
        <time>2026-05-13T15:21:09Z</time>
      </trkpt>
      <trkpt lat="47.46099" lon="7.01986">
        <ele>558</ele>
        <time>2026-05-13T15:21:10Z</time>
      </trkpt>
      <trkpt lat="47.46106" lon="7.01987">
        <ele>558</ele>
        <time>2026-05-13T15:21:11Z</time>
      </trkpt>
      <trkpt lat="47.46121" lon="7.01984">
        <ele>557.8</ele>
        <time>2026-05-13T15:21:13Z</time>
      </trkpt>
      <trkpt lat="47.46137" lon="7.01973">
        <ele>557.6</ele>
        <time>2026-05-13T15:21:16Z</time>
      </trkpt>
      <trkpt lat="47.4614" lon="7.01969">
        <ele>557.6</ele>
        <time>2026-05-13T15:21:17Z</time>
      </trkpt>
      <trkpt lat="47.46149" lon="7.01956">
        <ele>558.6</ele>
        <time>2026-05-13T15:21:21Z</time>
      </trkpt>
      <trkpt lat="47.46156" lon="7.01946">
        <ele>559.4</ele>
        <time>2026-05-13T15:21:24Z</time>
      </trkpt>
      <trkpt lat="47.46165" lon="7.01938">
        <ele>559.8</ele>
        <time>2026-05-13T15:21:27Z</time>
      </trkpt>
      <trkpt lat="47.46182" lon="7.01932">
        <ele>560.2</ele>
        <time>2026-05-13T15:21:31Z</time>
      </trkpt>
      <trkpt lat="47.46195" lon="7.0193">
        <ele>560.4</ele>
        <time>2026-05-13T15:21:34Z</time>
      </trkpt>
      <trkpt lat="47.46214" lon="7.01931">
        <ele>560.6</ele>
        <time>2026-05-13T15:21:38Z</time>
      </trkpt>
      <trkpt lat="47.46261" lon="7.0194">
        <ele>560.6</ele>
        <time>2026-05-13T15:21:47Z</time>
      </trkpt>
      <trkpt lat="47.46297" lon="7.01961">
        <ele>559.4</ele>
        <time>2026-05-13T15:21:54Z</time>
      </trkpt>
      <trkpt lat="47.46349" lon="7.02001">
        <ele>558.6</ele>
        <time>2026-05-13T15:22:04Z</time>
      </trkpt>
      <trkpt lat="47.46355" lon="7.02005">
        <ele>558.4</ele>
        <time>2026-05-13T15:22:05Z</time>
      </trkpt>
      <trkpt lat="47.46396" lon="7.02037">
        <ele>558.2</ele>
        <time>2026-05-13T15:22:12Z</time>
      </trkpt>
      <trkpt lat="47.46438" lon="7.02069">
        <ele>557.2</ele>
        <time>2026-05-13T15:22:18Z</time>
      </trkpt>
      <trkpt lat="47.46445" lon="7.02075">
        <ele>556.8</ele>
        <time>2026-05-13T15:22:19Z</time>
      </trkpt>
      <trkpt lat="47.4646" lon="7.02087">
        <ele>556</ele>
        <time>2026-05-13T15:22:21Z</time>
      </trkpt>
      <trkpt lat="47.46476" lon="7.02099">
        <ele>555.4</ele>
        <time>2026-05-13T15:22:23Z</time>
      </trkpt>
      <trkpt lat="47.46492" lon="7.02111">
        <ele>554.6</ele>
        <time>2026-05-13T15:22:25Z</time>
      </trkpt>
      <trkpt lat="47.46525" lon="7.02135">
        <ele>553.4</ele>
        <time>2026-05-13T15:22:29Z</time>
      </trkpt>
      <trkpt lat="47.4655" lon="7.02153">
        <ele>552.6</ele>
        <time>2026-05-13T15:22:32Z</time>
      </trkpt>
      <trkpt lat="47.46581" lon="7.02175">
        <ele>552.4</ele>
        <time>2026-05-13T15:22:36Z</time>
      </trkpt>
      <trkpt lat="47.46611" lon="7.02195">
        <ele>552</ele>
        <time>2026-05-13T15:22:40Z</time>
      </trkpt>
      <trkpt lat="47.46635" lon="7.02212">
        <ele>551.2</ele>
        <time>2026-05-13T15:22:43Z</time>
      </trkpt>
      <trkpt lat="47.46653" lon="7.02224">
        <ele>550.4</ele>
        <time>2026-05-13T15:22:45Z</time>
      </trkpt>
      <trkpt lat="47.46662" lon="7.0223">
        <ele>550</ele>
        <time>2026-05-13T15:22:46Z</time>
      </trkpt>
      <trkpt lat="47.46699" lon="7.02255">
        <ele>548.8</ele>
        <time>2026-05-13T15:22:50Z</time>
      </trkpt>
      <trkpt lat="47.46728" lon="7.02275">
        <ele>548</ele>
        <time>2026-05-13T15:22:53Z</time>
      </trkpt>
      <trkpt lat="47.46737" lon="7.02282">
        <ele>547.4</ele>
        <time>2026-05-13T15:22:54Z</time>
      </trkpt>
      <trkpt lat="47.46756" lon="7.02295">
        <ele>546.2</ele>
        <time>2026-05-13T15:22:56Z</time>
      </trkpt>
      <trkpt lat="47.46772" lon="7.02307">
        <ele>544.8</ele>
        <time>2026-05-13T15:22:58Z</time>
      </trkpt>
      <trkpt lat="47.46791" lon="7.02319">
        <ele>543.6</ele>
        <time>2026-05-13T15:23:00Z</time>
      </trkpt>
      <trkpt lat="47.4681" lon="7.02332">
        <ele>542</ele>
        <time>2026-05-13T15:23:02Z</time>
      </trkpt>
      <trkpt lat="47.4683" lon="7.02345">
        <ele>540.8</ele>
        <time>2026-05-13T15:23:04Z</time>
      </trkpt>
      <trkpt lat="47.4685" lon="7.02356">
        <ele>539.4</ele>
        <time>2026-05-13T15:23:06Z</time>
      </trkpt>
      <trkpt lat="47.46871" lon="7.02367">
        <ele>537.8</ele>
        <time>2026-05-13T15:23:08Z</time>
      </trkpt>
      <trkpt lat="47.46894" lon="7.0238">
        <ele>536.8</ele>
        <time>2026-05-13T15:23:10Z</time>
      </trkpt>
      <trkpt lat="47.46904" lon="7.02388">
        <ele>536</ele>
        <time>2026-05-13T15:23:11Z</time>
      </trkpt>
      <trkpt lat="47.4692" lon="7.02404">
        <ele>535</ele>
        <time>2026-05-13T15:23:13Z</time>
      </trkpt>
      <trkpt lat="47.46938" lon="7.02426">
        <ele>533.6</ele>
        <time>2026-05-13T15:23:15Z</time>
      </trkpt>
      <trkpt lat="47.46947" lon="7.02436">
        <ele>532.6</ele>
        <time>2026-05-13T15:23:16Z</time>
      </trkpt>
      <trkpt lat="47.46962" lon="7.02453">
        <ele>531.2</ele>
        <time>2026-05-13T15:23:18Z</time>
      </trkpt>
      <trkpt lat="47.46974" lon="7.02463">
        <ele>530.6</ele>
        <time>2026-05-13T15:23:19Z</time>
      </trkpt>
      <trkpt lat="47.46984" lon="7.02471">
        <ele>530.2</ele>
        <time>2026-05-13T15:23:20Z</time>
      </trkpt>
      <trkpt lat="47.46994" lon="7.02478">
        <ele>529.2</ele>
        <time>2026-05-13T15:23:21Z</time>
      </trkpt>
      <trkpt lat="47.47014" lon="7.02493">
        <ele>527.8</ele>
        <time>2026-05-13T15:23:23Z</time>
      </trkpt>
      <trkpt lat="47.47035" lon="7.02506">
        <ele>526.4</ele>
        <time>2026-05-13T15:23:25Z</time>
      </trkpt>
      <trkpt lat="47.47043" lon="7.02511">
        <ele>525.6</ele>
        <time>2026-05-13T15:23:26Z</time>
      </trkpt>
      <trkpt lat="47.47052" lon="7.02516">
        <ele>525.2</ele>
        <time>2026-05-13T15:23:27Z</time>
      </trkpt>
      <trkpt lat="47.47061" lon="7.0252">
        <ele>524.2</ele>
        <time>2026-05-13T15:23:28Z</time>
      </trkpt>
      <trkpt lat="47.4707" lon="7.02523">
        <ele>523.6</ele>
        <time>2026-05-13T15:23:29Z</time>
      </trkpt>
      <trkpt lat="47.47079" lon="7.02523">
        <ele>523</ele>
        <time>2026-05-13T15:23:30Z</time>
      </trkpt>
      <trkpt lat="47.47084" lon="7.02519">
        <ele>522.6</ele>
        <time>2026-05-13T15:23:31Z</time>
      </trkpt>
      <trkpt lat="47.47089" lon="7.02514">
        <ele>522.2</ele>
        <time>2026-05-13T15:23:32Z</time>
      </trkpt>
      <trkpt lat="47.47095" lon="7.02499">
        <ele>521.4</ele>
        <time>2026-05-13T15:23:34Z</time>
      </trkpt>
      <trkpt lat="47.47097" lon="7.02491">
        <ele>521.2</ele>
        <time>2026-05-13T15:23:35Z</time>
      </trkpt>
      <trkpt lat="47.47098" lon="7.02481">
        <ele>520.6</ele>
        <time>2026-05-13T15:23:36Z</time>
      </trkpt>
      <trkpt lat="47.47099" lon="7.02471">
        <ele>520.4</ele>
        <time>2026-05-13T15:23:37Z</time>
      </trkpt>
      <trkpt lat="47.47098" lon="7.02446">
        <ele>519.4</ele>
        <time>2026-05-13T15:23:39Z</time>
      </trkpt>
      <trkpt lat="47.47097" lon="7.02435">
        <ele>518.8</ele>
        <time>2026-05-13T15:23:40Z</time>
      </trkpt>
      <trkpt lat="47.47097" lon="7.02424">
        <ele>518.2</ele>
        <time>2026-05-13T15:23:41Z</time>
      </trkpt>
      <trkpt lat="47.47097" lon="7.02411">
        <ele>517.6</ele>
        <time>2026-05-13T15:23:42Z</time>
      </trkpt>
      <trkpt lat="47.47097" lon="7.02396">
        <ele>517</ele>
        <time>2026-05-13T15:23:43Z</time>
      </trkpt>
      <trkpt lat="47.47098" lon="7.02384">
        <ele>517</ele>
        <time>2026-05-13T15:23:44Z</time>
      </trkpt>
      <trkpt lat="47.47099" lon="7.02361">
        <ele>516.4</ele>
        <time>2026-05-13T15:23:46Z</time>
      </trkpt>
      <trkpt lat="47.47101" lon="7.02348">
        <ele>515.8</ele>
        <time>2026-05-13T15:23:47Z</time>
      </trkpt>
      <trkpt lat="47.47104" lon="7.02337">
        <ele>515</ele>
        <time>2026-05-13T15:23:48Z</time>
      </trkpt>
      <trkpt lat="47.47108" lon="7.02329">
        <ele>514.4</ele>
        <time>2026-05-13T15:23:49Z</time>
      </trkpt>
      <trkpt lat="47.47113" lon="7.02323">
        <ele>513.6</ele>
        <time>2026-05-13T15:23:50Z</time>
      </trkpt>
      <trkpt lat="47.47118" lon="7.02319">
        <ele>513.4</ele>
        <time>2026-05-13T15:23:51Z</time>
      </trkpt>
      <trkpt lat="47.4714" lon="7.02313">
        <ele>512.4</ele>
        <time>2026-05-13T15:23:54Z</time>
      </trkpt>
      <trkpt lat="47.47146" lon="7.02311">
        <ele>512.2</ele>
        <time>2026-05-13T15:23:55Z</time>
      </trkpt>
      <trkpt lat="47.47156" lon="7.02309">
        <ele>511.4</ele>
        <time>2026-05-13T15:23:56Z</time>
      </trkpt>
      <trkpt lat="47.47175" lon="7.02305">
        <ele>509.8</ele>
        <time>2026-05-13T15:23:58Z</time>
      </trkpt>
      <trkpt lat="47.47184" lon="7.02303">
        <ele>508.6</ele>
        <time>2026-05-13T15:23:59Z</time>
      </trkpt>
      <trkpt lat="47.47194" lon="7.02302">
        <ele>507.6</ele>
        <time>2026-05-13T15:24:00Z</time>
      </trkpt>
      <trkpt lat="47.47215" lon="7.02299">
        <ele>505.6</ele>
        <time>2026-05-13T15:24:02Z</time>
      </trkpt>
      <trkpt lat="47.47238" lon="7.02295">
        <ele>503.8</ele>
        <time>2026-05-13T15:24:04Z</time>
      </trkpt>
      <trkpt lat="47.47248" lon="7.02294">
        <ele>502</ele>
        <time>2026-05-13T15:24:05Z</time>
      </trkpt>
      <trkpt lat="47.47272" lon="7.02296">
        <ele>499.4</ele>
        <time>2026-05-13T15:24:07Z</time>
      </trkpt>
      <trkpt lat="47.4728" lon="7.02299">
        <ele>498.4</ele>
        <time>2026-05-13T15:24:08Z</time>
      </trkpt>
      <trkpt lat="47.47292" lon="7.02302">
        <ele>496.2</ele>
        <time>2026-05-13T15:24:09Z</time>
      </trkpt>
      <trkpt lat="47.47301" lon="7.02306">
        <ele>494.8</ele>
        <time>2026-05-13T15:24:10Z</time>
      </trkpt>
      <trkpt lat="47.47311" lon="7.02314">
        <ele>493</ele>
        <time>2026-05-13T15:24:11Z</time>
      </trkpt>
      <trkpt lat="47.47321" lon="7.02322">
        <ele>491.6</ele>
        <time>2026-05-13T15:24:12Z</time>
      </trkpt>
      <trkpt lat="47.47342" lon="7.02344">
        <ele>490.4</ele>
        <time>2026-05-13T15:24:14Z</time>
      </trkpt>
      <trkpt lat="47.47358" lon="7.02361">
        <ele>488.8</ele>
        <time>2026-05-13T15:24:16Z</time>
      </trkpt>
      <trkpt lat="47.47367" lon="7.0237">
        <ele>487.8</ele>
        <time>2026-05-13T15:24:17Z</time>
      </trkpt>
      <trkpt lat="47.47378" lon="7.02381">
        <ele>487.4</ele>
        <time>2026-05-13T15:24:18Z</time>
      </trkpt>
      <trkpt lat="47.47387" lon="7.0239">
        <ele>485.6</ele>
        <time>2026-05-13T15:24:19Z</time>
      </trkpt>
      <trkpt lat="47.47395" lon="7.02398">
        <ele>484.6</ele>
        <time>2026-05-13T15:24:20Z</time>
      </trkpt>
      <trkpt lat="47.47405" lon="7.02406">
        <ele>482.4</ele>
        <time>2026-05-13T15:24:21Z</time>
      </trkpt>
      <trkpt lat="47.47417" lon="7.02414">
        <ele>480</ele>
        <time>2026-05-13T15:24:22Z</time>
      </trkpt>
      <trkpt lat="47.47428" lon="7.0242">
        <ele>478.8</ele>
        <time>2026-05-13T15:24:23Z</time>
      </trkpt>
      <trkpt lat="47.47439" lon="7.02426">
        <ele>477</ele>
        <time>2026-05-13T15:24:24Z</time>
      </trkpt>
      <trkpt lat="47.47459" lon="7.02437">
        <ele>474</ele>
        <time>2026-05-13T15:24:26Z</time>
      </trkpt>
      <trkpt lat="47.47482" lon="7.02447">
        <ele>471.4</ele>
        <time>2026-05-13T15:24:28Z</time>
      </trkpt>
      <trkpt lat="47.47494" lon="7.02451">
        <ele>469.4</ele>
        <time>2026-05-13T15:24:29Z</time>
      </trkpt>
      <trkpt lat="47.47505" lon="7.02455">
        <ele>468.8</ele>
        <time>2026-05-13T15:24:30Z</time>
      </trkpt>
      <trkpt lat="47.47517" lon="7.02457">
        <ele>466.8</ele>
        <time>2026-05-13T15:24:31Z</time>
      </trkpt>
      <trkpt lat="47.47541" lon="7.0246">
        <ele>464.6</ele>
        <time>2026-05-13T15:24:33Z</time>
      </trkpt>
      <trkpt lat="47.47554" lon="7.0246">
        <ele>463</ele>
        <time>2026-05-13T15:24:34Z</time>
      </trkpt>
      <trkpt lat="47.47579" lon="7.02458">
        <ele>460.2</ele>
        <time>2026-05-13T15:24:36Z</time>
      </trkpt>
      <trkpt lat="47.47602" lon="7.02456">
        <ele>457.2</ele>
        <time>2026-05-13T15:24:38Z</time>
      </trkpt>
      <trkpt lat="47.47612" lon="7.02455">
        <ele>456.6</ele>
        <time>2026-05-13T15:24:39Z</time>
      </trkpt>
      <trkpt lat="47.47622" lon="7.02454">
        <ele>454.6</ele>
        <time>2026-05-13T15:24:40Z</time>
      </trkpt>
      <trkpt lat="47.47633" lon="7.02454">
        <ele>453</ele>
        <time>2026-05-13T15:24:41Z</time>
      </trkpt>
      <trkpt lat="47.47655" lon="7.0245">
        <ele>450.8</ele>
        <time>2026-05-13T15:24:43Z</time>
      </trkpt>
      <trkpt lat="47.47667" lon="7.0245">
        <ele>449.8</ele>
        <time>2026-05-13T15:24:44Z</time>
      </trkpt>
      <trkpt lat="47.47678" lon="7.0245">
        <ele>448.2</ele>
        <time>2026-05-13T15:24:45Z</time>
      </trkpt>
      <trkpt lat="47.4769" lon="7.02453">
        <ele>446.6</ele>
        <time>2026-05-13T15:24:46Z</time>
      </trkpt>
      <trkpt lat="47.47701" lon="7.02457">
        <ele>445.8</ele>
        <time>2026-05-13T15:24:47Z</time>
      </trkpt>
      <trkpt lat="47.47712" lon="7.02462">
        <ele>444.6</ele>
        <time>2026-05-13T15:24:48Z</time>
      </trkpt>
      <trkpt lat="47.47733" lon="7.02474">
        <ele>443</ele>
        <time>2026-05-13T15:24:50Z</time>
      </trkpt>
      <trkpt lat="47.47743" lon="7.02481">
        <ele>442</ele>
        <time>2026-05-13T15:24:51Z</time>
      </trkpt>
      <trkpt lat="47.47754" lon="7.02491">
        <ele>441.6</ele>
        <time>2026-05-13T15:24:52Z</time>
      </trkpt>
      <trkpt lat="47.47764" lon="7.025">
        <ele>440.8</ele>
        <time>2026-05-13T15:24:53Z</time>
      </trkpt>
      <trkpt lat="47.47789" lon="7.02527">
        <ele>439.8</ele>
        <time>2026-05-13T15:24:56Z</time>
      </trkpt>
      <trkpt lat="47.47799" lon="7.0254">
        <ele>439.2</ele>
        <time>2026-05-13T15:24:57Z</time>
      </trkpt>
      <trkpt lat="47.47812" lon="7.0256">
        <ele>438.6</ele>
        <time>2026-05-13T15:24:59Z</time>
      </trkpt>
      <trkpt lat="47.47836" lon="7.02597">
        <ele>437.4</ele>
        <time>2026-05-13T15:25:02Z</time>
      </trkpt>
      <trkpt lat="47.47843" lon="7.0261">
        <ele>437</ele>
        <time>2026-05-13T15:25:03Z</time>
      </trkpt>
      <trkpt lat="47.47861" lon="7.02645">
        <ele>436.4</ele>
        <time>2026-05-13T15:25:06Z</time>
      </trkpt>
      <trkpt lat="47.47886" lon="7.02693">
        <ele>435.8</ele>
        <time>2026-05-13T15:25:10Z</time>
      </trkpt>
      <trkpt lat="47.47912" lon="7.02733">
        <ele>435.2</ele>
        <time>2026-05-13T15:25:14Z</time>
      </trkpt>
      <trkpt lat="47.47928" lon="7.02759">
        <ele>434</ele>
        <time>2026-05-13T15:25:17Z</time>
      </trkpt>
      <trkpt lat="47.47939" lon="7.02777">
        <ele>433.6</ele>
        <time>2026-05-13T15:25:19Z</time>
      </trkpt>
      <trkpt lat="47.47957" lon="7.02804">
        <ele>432.6</ele>
        <time>2026-05-13T15:25:22Z</time>
      </trkpt>
      <trkpt lat="47.47961" lon="7.02813">
        <ele>432.2</ele>
        <time>2026-05-13T15:25:23Z</time>
      </trkpt>
      <trkpt lat="47.47964" lon="7.02823">
        <ele>431.4</ele>
        <time>2026-05-13T15:25:24Z</time>
      </trkpt>
      <trkpt lat="47.47964" lon="7.02833">
        <ele>430.2</ele>
        <time>2026-05-13T15:25:25Z</time>
      </trkpt>
      <trkpt lat="47.47962" lon="7.02854">
        <ele>429.2</ele>
        <time>2026-05-13T15:25:27Z</time>
      </trkpt>
      <trkpt lat="47.47962" lon="7.02875">
        <ele>427.6</ele>
        <time>2026-05-13T15:25:29Z</time>
      </trkpt>
      <trkpt lat="47.47963" lon="7.02884">
        <ele>427.4</ele>
        <time>2026-05-13T15:25:30Z</time>
      </trkpt>
      <trkpt lat="47.47967" lon="7.02902">
        <ele>426.2</ele>
        <time>2026-05-13T15:25:32Z</time>
      </trkpt>
      <trkpt lat="47.47972" lon="7.02925">
        <ele>425</ele>
        <time>2026-05-13T15:25:35Z</time>
      </trkpt>
      <trkpt lat="47.47974" lon="7.02932">
        <ele>424.8</ele>
        <time>2026-05-13T15:25:36Z</time>
      </trkpt>
      <trkpt lat="47.47977" lon="7.0295">
        <ele>424.6</ele>
        <time>2026-05-13T15:25:39Z</time>
      </trkpt>
      <trkpt lat="47.47978" lon="7.02959">
        <ele>424.6</ele>
        <time>2026-05-13T15:25:41Z</time>
      </trkpt>
      <trkpt lat="47.47976" lon="7.02965">
        <ele>424.6</ele>
        <time>2026-05-13T15:25:44Z</time>
      </trkpt>
      <trkpt lat="47.47977" lon="7.02966">
        <ele>424.6</ele>
        <time>2026-05-13T15:25:45Z</time>
      </trkpt>
      <trkpt lat="47.47977" lon="7.02966">
        <ele>424.6</ele>
        <time>2026-05-13T15:25:47Z</time>
      </trkpt>
      <trkpt lat="47.47978" lon="7.02979">
        <ele>424.2</ele>
        <time>2026-05-13T15:25:58Z</time>
      </trkpt>
      <trkpt lat="47.47978" lon="7.02982">
        <ele>424.2</ele>
        <time>2026-05-13T15:25:59Z</time>
      </trkpt>
      <trkpt lat="47.4798" lon="7.03011">
        <ele>424.2</ele>
        <time>2026-05-13T15:26:05Z</time>
      </trkpt>
      <trkpt lat="47.47981" lon="7.03025">
        <ele>424.2</ele>
        <time>2026-05-13T15:26:07Z</time>
      </trkpt>
      <trkpt lat="47.47984" lon="7.03046">
        <ele>424</ele>
        <time>2026-05-13T15:26:10Z</time>
      </trkpt>
      <trkpt lat="47.47992" lon="7.03073">
        <ele>423</ele>
        <time>2026-05-13T15:26:14Z</time>
      </trkpt>
      <trkpt lat="47.47996" lon="7.03083">
        <ele>422.8</ele>
        <time>2026-05-13T15:26:16Z</time>
      </trkpt>
      <trkpt lat="47.47999" lon="7.03091">
        <ele>422.4</ele>
        <time>2026-05-13T15:26:19Z</time>
      </trkpt>
      <trkpt lat="47.48" lon="7.03094">
        <ele>422.2</ele>
        <time>2026-05-13T15:26:21Z</time>
      </trkpt>
      <trkpt lat="47.48" lon="7.03096">
        <ele>422</ele>
        <time>2026-05-13T15:26:24Z</time>
      </trkpt>
      <trkpt lat="47.48" lon="7.03097">
        <ele>422</ele>
        <time>2026-05-13T15:26:25Z</time>
      </trkpt>
      <trkpt lat="47.48002" lon="7.031">
        <ele>421.8</ele>
        <time>2026-05-13T15:26:27Z</time>
      </trkpt>
      <trkpt lat="47.48004" lon="7.03101">
        <ele>421.6</ele>
        <time>2026-05-13T15:26:28Z</time>
      </trkpt>
      <trkpt lat="47.48006" lon="7.03101">
        <ele>421.6</ele>
        <time>2026-05-13T15:26:29Z</time>
      </trkpt>
      <trkpt lat="47.48018" lon="7.03099">
        <ele>421.8</ele>
        <time>2026-05-13T15:26:33Z</time>
      </trkpt>
      <trkpt lat="47.48029" lon="7.03102">
        <ele>422.4</ele>
        <time>2026-05-13T15:26:38Z</time>
      </trkpt>
      <trkpt lat="47.48032" lon="7.03102">
        <ele>423.2</ele>
        <time>2026-05-13T15:26:40Z</time>
      </trkpt>
      <trkpt lat="47.4804" lon="7.03103">
        <ele>424.2</ele>
        <time>2026-05-13T15:26:44Z</time>
      </trkpt>
      <trkpt lat="47.48043" lon="7.03102">
        <ele>424.6</ele>
        <time>2026-05-13T15:26:45Z</time>
      </trkpt>
      <trkpt lat="47.48048" lon="7.03101">
        <ele>425.4</ele>
        <time>2026-05-13T15:26:47Z</time>
      </trkpt>
      <trkpt lat="47.48049" lon="7.03102">
        <ele>425.6</ele>
        <time>2026-05-13T15:26:48Z</time>
      </trkpt>
      <trkpt lat="47.48056" lon="7.03103">
        <ele>426.4</ele>
        <time>2026-05-13T15:26:51Z</time>
      </trkpt>
      <trkpt lat="47.48058" lon="7.03103">
        <ele>427</ele>
        <time>2026-05-13T15:26:52Z</time>
      </trkpt>
      <trkpt lat="47.48067" lon="7.03102">
        <ele>428.2</ele>
        <time>2026-05-13T15:26:57Z</time>
      </trkpt>
      <trkpt lat="47.48076" lon="7.03103">
        <ele>428.8</ele>
        <time>2026-05-13T15:27:02Z</time>
      </trkpt>
      <trkpt lat="47.48078" lon="7.03103">
        <ele>428.8</ele>
        <time>2026-05-13T15:27:03Z</time>
      </trkpt>
      <trkpt lat="47.48084" lon="7.03104">
        <ele>429.2</ele>
        <time>2026-05-13T15:27:06Z</time>
      </trkpt>
      <trkpt lat="47.481" lon="7.03101">
        <ele>430</ele>
        <time>2026-05-13T15:27:13Z</time>
      </trkpt>
      <trkpt lat="47.48103" lon="7.03101">
        <ele>430.4</ele>
        <time>2026-05-13T15:27:14Z</time>
      </trkpt>
      <trkpt lat="47.48113" lon="7.03101">
        <ele>431.6</ele>
        <time>2026-05-13T15:27:18Z</time>
      </trkpt>
      <trkpt lat="47.48118" lon="7.03101">
        <ele>432</ele>
        <time>2026-05-13T15:27:20Z</time>
      </trkpt>
      <trkpt lat="47.4812" lon="7.03102">
        <ele>432.4</ele>
        <time>2026-05-13T15:27:21Z</time>
      </trkpt>
      <trkpt lat="47.48122" lon="7.03105">
        <ele>432.6</ele>
        <time>2026-05-13T15:27:22Z</time>
      </trkpt>
      <trkpt lat="47.48122" lon="7.03108">
        <ele>432.8</ele>
        <time>2026-05-13T15:27:23Z</time>
      </trkpt>
      <trkpt lat="47.48124" lon="7.03114">
        <ele>433.2</ele>
        <time>2026-05-13T15:27:25Z</time>
      </trkpt>
      <trkpt lat="47.48127" lon="7.03124">
        <ele>434</ele>
        <time>2026-05-13T15:27:28Z</time>
      </trkpt>
      <trkpt lat="47.48131" lon="7.03133">
        <ele>434.8</ele>
        <time>2026-05-13T15:27:31Z</time>
      </trkpt>
      <trkpt lat="47.48133" lon="7.03135">
        <ele>435.4</ele>
        <time>2026-05-13T15:27:32Z</time>
      </trkpt>
      <trkpt lat="47.48142" lon="7.03153">
        <ele>436.6</ele>
        <time>2026-05-13T15:27:38Z</time>
      </trkpt>
      <trkpt lat="47.48143" lon="7.03156">
        <ele>436.8</ele>
        <time>2026-05-13T15:27:39Z</time>
      </trkpt>
      <trkpt lat="47.48155" lon="7.03172">
        <ele>437.4</ele>
        <time>2026-05-13T15:27:45Z</time>
      </trkpt>
      <trkpt lat="47.48166" lon="7.0318">
        <ele>437.6</ele>
        <time>2026-05-13T15:27:49Z</time>
      </trkpt>
      <trkpt lat="47.48174" lon="7.03185">
        <ele>437.8</ele>
        <time>2026-05-13T15:27:52Z</time>
      </trkpt>
      <trkpt lat="47.48189" lon="7.03195">
        <ele>438</ele>
        <time>2026-05-13T15:27:58Z</time>
      </trkpt>
      <trkpt lat="47.48209" lon="7.03207">
        <ele>438.6</ele>
        <time>2026-05-13T15:28:06Z</time>
      </trkpt>
      <trkpt lat="47.48212" lon="7.03208">
        <ele>439</ele>
        <time>2026-05-13T15:28:07Z</time>
      </trkpt>
      <trkpt lat="47.48217" lon="7.03212">
        <ele>439.8</ele>
        <time>2026-05-13T15:28:09Z</time>
      </trkpt>
      <trkpt lat="47.48231" lon="7.03221">
        <ele>441</ele>
        <time>2026-05-13T15:28:14Z</time>
      </trkpt>
      <trkpt lat="47.48255" lon="7.03236">
        <ele>441.8</ele>
        <time>2026-05-13T15:28:22Z</time>
      </trkpt>
      <trkpt lat="47.48258" lon="7.03239">
        <ele>442</ele>
        <time>2026-05-13T15:28:23Z</time>
      </trkpt>
      <trkpt lat="47.48281" lon="7.03256">
        <ele>442.8</ele>
        <time>2026-05-13T15:28:30Z</time>
      </trkpt>
      <trkpt lat="47.4829" lon="7.03265">
        <ele>443</ele>
        <time>2026-05-13T15:28:33Z</time>
      </trkpt>
      <trkpt lat="47.48307" lon="7.03286">
        <ele>443.6</ele>
        <time>2026-05-13T15:28:39Z</time>
      </trkpt>
      <trkpt lat="47.48309" lon="7.0329">
        <ele>443.6</ele>
        <time>2026-05-13T15:28:40Z</time>
      </trkpt>
      <trkpt lat="47.48322" lon="7.03309">
        <ele>444.4</ele>
        <time>2026-05-13T15:28:45Z</time>
      </trkpt>
      <trkpt lat="47.48327" lon="7.03317">
        <ele>444.6</ele>
        <time>2026-05-13T15:28:47Z</time>
      </trkpt>
      <trkpt lat="47.48339" lon="7.03336">
        <ele>445.4</ele>
        <time>2026-05-13T15:28:52Z</time>
      </trkpt>
      <trkpt lat="47.4835" lon="7.03355">
        <ele>446</ele>
        <time>2026-05-13T15:28:57Z</time>
      </trkpt>
      <trkpt lat="47.48356" lon="7.03366">
        <ele>446.4</ele>
        <time>2026-05-13T15:29:00Z</time>
      </trkpt>
      <trkpt lat="47.48364" lon="7.03391">
        <ele>447.4</ele>
        <time>2026-05-13T15:29:06Z</time>
      </trkpt>
      <trkpt lat="47.48366" lon="7.03396">
        <ele>447.6</ele>
        <time>2026-05-13T15:29:07Z</time>
      </trkpt>
      <trkpt lat="47.48372" lon="7.03429">
        <ele>448.6</ele>
        <time>2026-05-13T15:29:14Z</time>
      </trkpt>
      <trkpt lat="47.48372" lon="7.03433">
        <ele>448.6</ele>
        <time>2026-05-13T15:29:15Z</time>
      </trkpt>
      <trkpt lat="47.48375" lon="7.03462">
        <ele>449.8</ele>
        <time>2026-05-13T15:29:21Z</time>
      </trkpt>
      <trkpt lat="47.48377" lon="7.0347">
        <ele>450.2</ele>
        <time>2026-05-13T15:29:23Z</time>
      </trkpt>
      <trkpt lat="47.48379" lon="7.03483">
        <ele>450.8</ele>
        <time>2026-05-13T15:29:26Z</time>
      </trkpt>
      <trkpt lat="47.48381" lon="7.035">
        <ele>451.8</ele>
        <time>2026-05-13T15:29:30Z</time>
      </trkpt>
      <trkpt lat="47.48382" lon="7.03504">
        <ele>452.2</ele>
        <time>2026-05-13T15:29:31Z</time>
      </trkpt>
      <trkpt lat="47.48384" lon="7.03518">
        <ele>453.2</ele>
        <time>2026-05-13T15:29:34Z</time>
      </trkpt>
      <trkpt lat="47.4839" lon="7.03546">
        <ele>454.2</ele>
        <time>2026-05-13T15:29:40Z</time>
      </trkpt>
      <trkpt lat="47.48392" lon="7.0356">
        <ele>455</ele>
        <time>2026-05-13T15:29:43Z</time>
      </trkpt>
      <trkpt lat="47.48393" lon="7.03565">
        <ele>455.4</ele>
        <time>2026-05-13T15:29:44Z</time>
      </trkpt>
      <trkpt lat="47.48401" lon="7.03597">
        <ele>456.6</ele>
        <time>2026-05-13T15:29:51Z</time>
      </trkpt>
      <trkpt lat="47.48404" lon="7.0361">
        <ele>457</ele>
        <time>2026-05-13T15:29:54Z</time>
      </trkpt>
      <trkpt lat="47.48409" lon="7.03633">
        <ele>457.6</ele>
        <time>2026-05-13T15:29:59Z</time>
      </trkpt>
      <trkpt lat="47.48415" lon="7.03654">
        <ele>458.8</ele>
        <time>2026-05-13T15:30:04Z</time>
      </trkpt>
      <trkpt lat="47.48419" lon="7.03667">
        <ele>460</ele>
        <time>2026-05-13T15:30:07Z</time>
      </trkpt>
      <trkpt lat="47.48427" lon="7.03688">
        <ele>460.6</ele>
        <time>2026-05-13T15:30:12Z</time>
      </trkpt>
      <trkpt lat="47.48433" lon="7.03701">
        <ele>461</ele>
        <time>2026-05-13T15:30:15Z</time>
      </trkpt>
      <trkpt lat="47.48449" lon="7.03728">
        <ele>462.2</ele>
        <time>2026-05-13T15:30:22Z</time>
      </trkpt>
      <trkpt lat="47.48468" lon="7.0376">
        <ele>463.4</ele>
        <time>2026-05-13T15:30:30Z</time>
      </trkpt>
      <trkpt lat="47.48475" lon="7.03772">
        <ele>464</ele>
        <time>2026-05-13T15:30:33Z</time>
      </trkpt>
      <trkpt lat="47.48481" lon="7.03784">
        <ele>464.4</ele>
        <time>2026-05-13T15:30:36Z</time>
      </trkpt>
      <trkpt lat="47.48492" lon="7.03804">
        <ele>465.2</ele>
        <time>2026-05-13T15:30:41Z</time>
      </trkpt>
      <trkpt lat="47.48494" lon="7.03808">
        <ele>465.6</ele>
        <time>2026-05-13T15:30:42Z</time>
      </trkpt>
      <trkpt lat="47.485" lon="7.03824">
        <ele>466.8</ele>
        <time>2026-05-13T15:30:46Z</time>
      </trkpt>
      <trkpt lat="47.48505" lon="7.03837">
        <ele>467.6</ele>
        <time>2026-05-13T15:30:49Z</time>
      </trkpt>
      <trkpt lat="47.48506" lon="7.03842">
        <ele>467.8</ele>
        <time>2026-05-13T15:30:50Z</time>
      </trkpt>
      <trkpt lat="47.48512" lon="7.03862">
        <ele>468.8</ele>
        <time>2026-05-13T15:30:54Z</time>
      </trkpt>
      <trkpt lat="47.48519" lon="7.0389">
        <ele>469.4</ele>
        <time>2026-05-13T15:31:00Z</time>
      </trkpt>
      <trkpt lat="47.48529" lon="7.03934">
        <ele>469.8</ele>
        <time>2026-05-13T15:31:09Z</time>
      </trkpt>
      <trkpt lat="47.4853" lon="7.03939">
        <ele>469.8</ele>
        <time>2026-05-13T15:31:10Z</time>
      </trkpt>
      <trkpt lat="47.48537" lon="7.03968">
        <ele>470.8</ele>
        <time>2026-05-13T15:31:16Z</time>
      </trkpt>
      <trkpt lat="47.48545" lon="7.03993">
        <ele>472</ele>
        <time>2026-05-13T15:31:21Z</time>
      </trkpt>
      <trkpt lat="47.48552" lon="7.04011">
        <ele>473.2</ele>
        <time>2026-05-13T15:31:25Z</time>
      </trkpt>
      <trkpt lat="47.48565" lon="7.04048">
        <ele>474.2</ele>
        <time>2026-05-13T15:31:32Z</time>
      </trkpt>
      <trkpt lat="47.48576" lon="7.04095">
        <ele>475</ele>
        <time>2026-05-13T15:31:39Z</time>
      </trkpt>
      <trkpt lat="47.48577" lon="7.04102">
        <ele>475.2</ele>
        <time>2026-05-13T15:31:40Z</time>
      </trkpt>
      <trkpt lat="47.48577" lon="7.04108">
        <ele>475.4</ele>
        <time>2026-05-13T15:31:41Z</time>
      </trkpt>
      <trkpt lat="47.48579" lon="7.04165">
        <ele>476.4</ele>
        <time>2026-05-13T15:31:49Z</time>
      </trkpt>
      <trkpt lat="47.48579" lon="7.04178">
        <ele>476.4</ele>
        <time>2026-05-13T15:31:51Z</time>
      </trkpt>
      <trkpt lat="47.48578" lon="7.04235">
        <ele>477.2</ele>
        <time>2026-05-13T15:31:59Z</time>
      </trkpt>
      <trkpt lat="47.48578" lon="7.04246">
        <ele>477.2</ele>
        <time>2026-05-13T15:32:01Z</time>
      </trkpt>
      <trkpt lat="47.48579" lon="7.0426">
        <ele>477.6</ele>
        <time>2026-05-13T15:32:03Z</time>
      </trkpt>
      <trkpt lat="47.48579" lon="7.04272">
        <ele>478</ele>
        <time>2026-05-13T15:32:05Z</time>
      </trkpt>
      <trkpt lat="47.48579" lon="7.04278">
        <ele>478.2</ele>
        <time>2026-05-13T15:32:06Z</time>
      </trkpt>
      <trkpt lat="47.48579" lon="7.043">
        <ele>478.6</ele>
        <time>2026-05-13T15:32:09Z</time>
      </trkpt>
      <trkpt lat="47.48579" lon="7.04325">
        <ele>479.4</ele>
        <time>2026-05-13T15:32:13Z</time>
      </trkpt>
      <trkpt lat="47.48578" lon="7.04338">
        <ele>479.8</ele>
        <time>2026-05-13T15:32:15Z</time>
      </trkpt>
      <trkpt lat="47.48575" lon="7.04377">
        <ele>480.8</ele>
        <time>2026-05-13T15:32:21Z</time>
      </trkpt>
      <trkpt lat="47.48574" lon="7.04391">
        <ele>481.6</ele>
        <time>2026-05-13T15:32:23Z</time>
      </trkpt>
      <trkpt lat="47.48574" lon="7.04416">
        <ele>482</ele>
        <time>2026-05-13T15:32:27Z</time>
      </trkpt>
      <trkpt lat="47.48575" lon="7.04456">
        <ele>482.8</ele>
        <time>2026-05-13T15:32:33Z</time>
      </trkpt>
      <trkpt lat="47.48575" lon="7.04461">
        <ele>483</ele>
        <time>2026-05-13T15:32:34Z</time>
      </trkpt>
      <trkpt lat="47.48577" lon="7.04483">
        <ele>483.6</ele>
        <time>2026-05-13T15:32:37Z</time>
      </trkpt>
      <trkpt lat="47.48579" lon="7.04494">
        <ele>484.2</ele>
        <time>2026-05-13T15:32:39Z</time>
      </trkpt>
      <trkpt lat="47.48581" lon="7.04506">
        <ele>484.4</ele>
        <time>2026-05-13T15:32:41Z</time>
      </trkpt>
      <trkpt lat="47.48589" lon="7.04532">
        <ele>485</ele>
        <time>2026-05-13T15:32:45Z</time>
      </trkpt>
      <trkpt lat="47.48591" lon="7.04537">
        <ele>485.2</ele>
        <time>2026-05-13T15:32:46Z</time>
      </trkpt>
      <trkpt lat="47.48596" lon="7.04547">
        <ele>485.6</ele>
        <time>2026-05-13T15:32:48Z</time>
      </trkpt>
      <trkpt lat="47.4861" lon="7.04582">
        <ele>486.4</ele>
        <time>2026-05-13T15:32:54Z</time>
      </trkpt>
      <trkpt lat="47.48614" lon="7.04595">
        <ele>486.6</ele>
        <time>2026-05-13T15:32:56Z</time>
      </trkpt>
      <trkpt lat="47.48628" lon="7.04652">
        <ele>487</ele>
        <time>2026-05-13T15:33:05Z</time>
      </trkpt>
      <trkpt lat="47.4864" lon="7.04705">
        <ele>486.6</ele>
        <time>2026-05-13T15:33:12Z</time>
      </trkpt>
      <trkpt lat="47.48654" lon="7.0476">
        <ele>485.6</ele>
        <time>2026-05-13T15:33:18Z</time>
      </trkpt>
      <trkpt lat="47.48655" lon="7.04771">
        <ele>485.4</ele>
        <time>2026-05-13T15:33:19Z</time>
      </trkpt>
      <trkpt lat="47.48661" lon="7.04816">
        <ele>484.4</ele>
        <time>2026-05-13T15:33:23Z</time>
      </trkpt>
      <trkpt lat="47.48662" lon="7.04829">
        <ele>484.2</ele>
        <time>2026-05-13T15:33:24Z</time>
      </trkpt>
      <trkpt lat="47.48666" lon="7.04883">
        <ele>483.2</ele>
        <time>2026-05-13T15:33:28Z</time>
      </trkpt>
      <trkpt lat="47.48667" lon="7.04901">
        <ele>483</ele>
        <time>2026-05-13T15:33:29Z</time>
      </trkpt>
      <trkpt lat="47.4867" lon="7.0493">
        <ele>481.8</ele>
        <time>2026-05-13T15:33:31Z</time>
      </trkpt>
      <trkpt lat="47.48673" lon="7.04965">
        <ele>480.4</ele>
        <time>2026-05-13T15:33:33Z</time>
      </trkpt>
      <trkpt lat="47.48675" lon="7.0501">
        <ele>479.2</ele>
        <time>2026-05-13T15:33:36Z</time>
      </trkpt>
      <trkpt lat="47.48675" lon="7.05045">
        <ele>478.2</ele>
        <time>2026-05-13T15:33:38Z</time>
      </trkpt>
      <trkpt lat="47.48673" lon="7.05091">
        <ele>476.8</ele>
        <time>2026-05-13T15:33:41Z</time>
      </trkpt>
      <trkpt lat="47.4867" lon="7.05139">
        <ele>475.6</ele>
        <time>2026-05-13T15:33:44Z</time>
      </trkpt>
      <trkpt lat="47.48668" lon="7.05214">
        <ele>475.2</ele>
        <time>2026-05-13T15:33:49Z</time>
      </trkpt>
      <trkpt lat="47.48666" lon="7.05242">
        <ele>474.8</ele>
        <time>2026-05-13T15:33:51Z</time>
      </trkpt>
      <trkpt lat="47.48664" lon="7.05321">
        <ele>474.2</ele>
        <time>2026-05-13T15:33:57Z</time>
      </trkpt>
      <trkpt lat="47.48657" lon="7.05403">
        <ele>473.8</ele>
        <time>2026-05-13T15:34:04Z</time>
      </trkpt>
      <trkpt lat="47.48651" lon="7.05455">
        <ele>473.4</ele>
        <time>2026-05-13T15:34:09Z</time>
      </trkpt>
      <trkpt lat="47.48651" lon="7.05467">
        <ele>473.6</ele>
        <time>2026-05-13T15:34:10Z</time>
      </trkpt>
      <trkpt lat="47.48661" lon="7.05525">
        <ele>473.8</ele>
        <time>2026-05-13T15:34:17Z</time>
      </trkpt>
      <trkpt lat="47.48675" lon="7.05597">
        <ele>474</ele>
        <time>2026-05-13T15:34:25Z</time>
      </trkpt>
      <trkpt lat="47.48684" lon="7.05655">
        <ele>473.6</ele>
        <time>2026-05-13T15:34:31Z</time>
      </trkpt>
      <trkpt lat="47.487" lon="7.05741">
        <ele>473</ele>
        <time>2026-05-13T15:34:39Z</time>
      </trkpt>
      <trkpt lat="47.48702" lon="7.05752">
        <ele>472.6</ele>
        <time>2026-05-13T15:34:40Z</time>
      </trkpt>
      <trkpt lat="47.48714" lon="7.05813">
        <ele>471.8</ele>
        <time>2026-05-13T15:34:45Z</time>
      </trkpt>
      <trkpt lat="47.48723" lon="7.05868">
        <ele>470.8</ele>
        <time>2026-05-13T15:34:49Z</time>
      </trkpt>
      <trkpt lat="47.48727" lon="7.05896">
        <ele>470</ele>
        <time>2026-05-13T15:34:51Z</time>
      </trkpt>
      <trkpt lat="47.48728" lon="7.05911">
        <ele>469</ele>
        <time>2026-05-13T15:34:52Z</time>
      </trkpt>
      <trkpt lat="47.48729" lon="7.0593">
        <ele>468.6</ele>
        <time>2026-05-13T15:34:53Z</time>
      </trkpt>
      <trkpt lat="47.48729" lon="7.05945">
        <ele>467.8</ele>
        <time>2026-05-13T15:34:54Z</time>
      </trkpt>
      <trkpt lat="47.48728" lon="7.05957">
        <ele>467.2</ele>
        <time>2026-05-13T15:34:55Z</time>
      </trkpt>
      <trkpt lat="47.48729" lon="7.05986">
        <ele>466.2</ele>
        <time>2026-05-13T15:34:57Z</time>
      </trkpt>
      <trkpt lat="47.48727" lon="7.06031">
        <ele>465</ele>
        <time>2026-05-13T15:35:00Z</time>
      </trkpt>
      <trkpt lat="47.48726" lon="7.06059">
        <ele>464.6</ele>
        <time>2026-05-13T15:35:02Z</time>
      </trkpt>
      <trkpt lat="47.48723" lon="7.06125">
        <ele>463.8</ele>
        <time>2026-05-13T15:35:07Z</time>
      </trkpt>
      <trkpt lat="47.48721" lon="7.06137">
        <ele>463.8</ele>
        <time>2026-05-13T15:35:08Z</time>
      </trkpt>
      <trkpt lat="47.48713" lon="7.06172">
        <ele>463.6</ele>
        <time>2026-05-13T15:35:11Z</time>
      </trkpt>
      <trkpt lat="47.48706" lon="7.06193">
        <ele>463.6</ele>
        <time>2026-05-13T15:35:13Z</time>
      </trkpt>
      <trkpt lat="47.48692" lon="7.06229">
        <ele>463.6</ele>
        <time>2026-05-13T15:35:17Z</time>
      </trkpt>
      <trkpt lat="47.4869" lon="7.06239">
        <ele>463.6</ele>
        <time>2026-05-13T15:35:18Z</time>
      </trkpt>
      <trkpt lat="47.4869" lon="7.06248">
        <ele>463.8</ele>
        <time>2026-05-13T15:35:19Z</time>
      </trkpt>
      <trkpt lat="47.48693" lon="7.06268">
        <ele>464.4</ele>
        <time>2026-05-13T15:35:21Z</time>
      </trkpt>
      <trkpt lat="47.48702" lon="7.06294">
        <ele>464.8</ele>
        <time>2026-05-13T15:35:24Z</time>
      </trkpt>
      <trkpt lat="47.48721" lon="7.06352">
        <ele>465.2</ele>
        <time>2026-05-13T15:35:30Z</time>
      </trkpt>
      <trkpt lat="47.48732" lon="7.06413">
        <ele>465</ele>
        <time>2026-05-13T15:35:36Z</time>
      </trkpt>
      <trkpt lat="47.48735" lon="7.06486">
        <ele>464.4</ele>
        <time>2026-05-13T15:35:43Z</time>
      </trkpt>
      <trkpt lat="47.48734" lon="7.06498">
        <ele>464.4</ele>
        <time>2026-05-13T15:35:44Z</time>
      </trkpt>
      <trkpt lat="47.48732" lon="7.06519">
        <ele>464.4</ele>
        <time>2026-05-13T15:35:46Z</time>
      </trkpt>
      <trkpt lat="47.48728" lon="7.06537">
        <ele>464.2</ele>
        <time>2026-05-13T15:35:48Z</time>
      </trkpt>
      <trkpt lat="47.48718" lon="7.06568">
        <ele>463.8</ele>
        <time>2026-05-13T15:35:51Z</time>
      </trkpt>
      <trkpt lat="47.48707" lon="7.06595">
        <ele>463.6</ele>
        <time>2026-05-13T15:35:54Z</time>
      </trkpt>
      <trkpt lat="47.48674" lon="7.0666">
        <ele>463.4</ele>
        <time>2026-05-13T15:36:02Z</time>
      </trkpt>
      <trkpt lat="47.4867" lon="7.0667">
        <ele>463.4</ele>
        <time>2026-05-13T15:36:03Z</time>
      </trkpt>
      <trkpt lat="47.48663" lon="7.06703">
        <ele>464</ele>
        <time>2026-05-13T15:36:07Z</time>
      </trkpt>
      <trkpt lat="47.48662" lon="7.06731">
        <ele>464.2</ele>
        <time>2026-05-13T15:36:11Z</time>
      </trkpt>
      <trkpt lat="47.48663" lon="7.06738">
        <ele>464.2</ele>
        <time>2026-05-13T15:36:12Z</time>
      </trkpt>
      <trkpt lat="47.48665" lon="7.06763">
        <ele>465</ele>
        <time>2026-05-13T15:36:17Z</time>
      </trkpt>
      <trkpt lat="47.48665" lon="7.06767">
        <ele>465.2</ele>
        <time>2026-05-13T15:36:18Z</time>
      </trkpt>
      <trkpt lat="47.48667" lon="7.06781">
        <ele>466.2</ele>
        <time>2026-05-13T15:36:21Z</time>
      </trkpt>
      <trkpt lat="47.48671" lon="7.0679">
        <ele>466.8</ele>
        <time>2026-05-13T15:36:23Z</time>
      </trkpt>
      <trkpt lat="47.48673" lon="7.06798">
        <ele>467.4</ele>
        <time>2026-05-13T15:36:25Z</time>
      </trkpt>
      <trkpt lat="47.48675" lon="7.06813">
        <ele>468.6</ele>
        <time>2026-05-13T15:36:29Z</time>
      </trkpt>
      <trkpt lat="47.48675" lon="7.06817">
        <ele>468.8</ele>
        <time>2026-05-13T15:36:30Z</time>
      </trkpt>
      <trkpt lat="47.48678" lon="7.06833">
        <ele>469.8</ele>
        <time>2026-05-13T15:36:34Z</time>
      </trkpt>
      <trkpt lat="47.48682" lon="7.06848">
        <ele>470.8</ele>
        <time>2026-05-13T15:36:38Z</time>
      </trkpt>
      <trkpt lat="47.48683" lon="7.06851">
        <ele>471</ele>
        <time>2026-05-13T15:36:39Z</time>
      </trkpt>
      <trkpt lat="47.48685" lon="7.06872">
        <ele>472.2</ele>
        <time>2026-05-13T15:36:44Z</time>
      </trkpt>
      <trkpt lat="47.48691" lon="7.06898">
        <ele>473.4</ele>
        <time>2026-05-13T15:36:50Z</time>
      </trkpt>
      <trkpt lat="47.48694" lon="7.06907">
        <ele>474</ele>
        <time>2026-05-13T15:36:52Z</time>
      </trkpt>
      <trkpt lat="47.48701" lon="7.06919">
        <ele>474.6</ele>
        <time>2026-05-13T15:36:55Z</time>
      </trkpt>
      <trkpt lat="47.48705" lon="7.06926">
        <ele>475</ele>
        <time>2026-05-13T15:36:57Z</time>
      </trkpt>
      <trkpt lat="47.48707" lon="7.06939">
        <ele>475.8</ele>
        <time>2026-05-13T15:37:00Z</time>
      </trkpt>
      <trkpt lat="47.48713" lon="7.06947">
        <ele>476</ele>
        <time>2026-05-13T15:37:02Z</time>
      </trkpt>
      <trkpt lat="47.48709" lon="7.06959">
        <ele>476.6</ele>
        <time>2026-05-13T15:37:05Z</time>
      </trkpt>
      <trkpt lat="47.48704" lon="7.06966">
        <ele>477.2</ele>
        <time>2026-05-13T15:37:07Z</time>
      </trkpt>
      <trkpt lat="47.48702" lon="7.06982">
        <ele>478</ele>
        <time>2026-05-13T15:37:10Z</time>
      </trkpt>
      <trkpt lat="47.487" lon="7.07004">
        <ele>478.8</ele>
        <time>2026-05-13T15:37:14Z</time>
      </trkpt>
      <trkpt lat="47.487" lon="7.07007">
        <ele>479</ele>
        <time>2026-05-13T15:37:15Z</time>
      </trkpt>
      <trkpt lat="47.48702" lon="7.0702">
        <ele>480</ele>
        <time>2026-05-13T15:37:19Z</time>
      </trkpt>
      <trkpt lat="47.48701" lon="7.07024">
        <ele>480.4</ele>
        <time>2026-05-13T15:37:20Z</time>
      </trkpt>
      <trkpt lat="47.48701" lon="7.07036">
        <ele>481.2</ele>
        <time>2026-05-13T15:37:24Z</time>
      </trkpt>
      <trkpt lat="47.48701" lon="7.07044">
        <ele>481.6</ele>
        <time>2026-05-13T15:37:27Z</time>
      </trkpt>
      <trkpt lat="47.487" lon="7.07052">
        <ele>482</ele>
        <time>2026-05-13T15:37:29Z</time>
      </trkpt>
      <trkpt lat="47.48698" lon="7.07071">
        <ele>483.2</ele>
        <time>2026-05-13T15:37:34Z</time>
      </trkpt>
      <trkpt lat="47.48697" lon="7.07088">
        <ele>484.4</ele>
        <time>2026-05-13T15:37:39Z</time>
      </trkpt>
      <trkpt lat="47.48696" lon="7.07091">
        <ele>484.4</ele>
        <time>2026-05-13T15:37:40Z</time>
      </trkpt>
      <trkpt lat="47.48695" lon="7.07108">
        <ele>485.4</ele>
        <time>2026-05-13T15:37:44Z</time>
      </trkpt>
      <trkpt lat="47.48694" lon="7.07132">
        <ele>486.4</ele>
        <time>2026-05-13T15:37:48Z</time>
      </trkpt>
      <trkpt lat="47.48694" lon="7.07136">
        <ele>486.6</ele>
        <time>2026-05-13T15:37:49Z</time>
      </trkpt>
      <trkpt lat="47.48693" lon="7.07164">
        <ele>487.8</ele>
        <time>2026-05-13T15:37:55Z</time>
      </trkpt>
      <trkpt lat="47.48693" lon="7.07173">
        <ele>488</ele>
        <time>2026-05-13T15:37:57Z</time>
      </trkpt>
      <trkpt lat="47.48693" lon="7.07193">
        <ele>488.8</ele>
        <time>2026-05-13T15:38:02Z</time>
      </trkpt>
      <trkpt lat="47.48691" lon="7.07218">
        <ele>490</ele>
        <time>2026-05-13T15:38:08Z</time>
      </trkpt>
      <trkpt lat="47.48689" lon="7.0725">
        <ele>491</ele>
        <time>2026-05-13T15:38:15Z</time>
      </trkpt>
      <trkpt lat="47.48689" lon="7.07258">
        <ele>491.2</ele>
        <time>2026-05-13T15:38:17Z</time>
      </trkpt>
      <trkpt lat="47.48686" lon="7.07305">
        <ele>492</ele>
        <time>2026-05-13T15:38:27Z</time>
      </trkpt>
      <trkpt lat="47.48686" lon="7.07317">
        <ele>492.2</ele>
        <time>2026-05-13T15:38:29Z</time>
      </trkpt>
      <trkpt lat="47.48685" lon="7.07348">
        <ele>492.8</ele>
        <time>2026-05-13T15:38:35Z</time>
      </trkpt>
      <trkpt lat="47.48684" lon="7.0738">
        <ele>493</ele>
        <time>2026-05-13T15:38:41Z</time>
      </trkpt>
      <trkpt lat="47.48683" lon="7.07398">
        <ele>493.4</ele>
        <time>2026-05-13T15:38:44Z</time>
      </trkpt>
      <trkpt lat="47.48682" lon="7.07415">
        <ele>493.6</ele>
        <time>2026-05-13T15:38:46Z</time>
      </trkpt>
      <trkpt lat="47.48682" lon="7.07423">
        <ele>493.6</ele>
        <time>2026-05-13T15:38:47Z</time>
      </trkpt>
      <trkpt lat="47.48682" lon="7.07451">
        <ele>493.6</ele>
        <time>2026-05-13T15:38:50Z</time>
      </trkpt>
      <trkpt lat="47.48681" lon="7.07469">
        <ele>493.6</ele>
        <time>2026-05-13T15:38:52Z</time>
      </trkpt>
      <trkpt lat="47.48681" lon="7.07482">
        <ele>493.6</ele>
        <time>2026-05-13T15:38:54Z</time>
      </trkpt>
      <trkpt lat="47.48682" lon="7.07517">
        <ele>493.2</ele>
        <time>2026-05-13T15:38:59Z</time>
      </trkpt>
      <trkpt lat="47.48675" lon="7.07567">
        <ele>492.4</ele>
        <time>2026-05-13T15:39:03Z</time>
      </trkpt>
      <trkpt lat="47.48676" lon="7.07579">
        <ele>492</ele>
        <time>2026-05-13T15:39:04Z</time>
      </trkpt>
      <trkpt lat="47.48679" lon="7.07606">
        <ele>491.2</ele>
        <time>2026-05-13T15:39:06Z</time>
      </trkpt>
      <trkpt lat="47.48678" lon="7.07622">
        <ele>491.2</ele>
        <time>2026-05-13T15:39:07Z</time>
      </trkpt>
      <trkpt lat="47.48677" lon="7.07642">
        <ele>491</ele>
        <time>2026-05-13T15:39:08Z</time>
      </trkpt>
      <trkpt lat="47.48673" lon="7.07658">
        <ele>490.4</ele>
        <time>2026-05-13T15:39:09Z</time>
      </trkpt>
      <trkpt lat="47.4867" lon="7.07676">
        <ele>490.2</ele>
        <time>2026-05-13T15:39:10Z</time>
      </trkpt>
      <trkpt lat="47.48668" lon="7.0771">
        <ele>489.4</ele>
        <time>2026-05-13T15:39:12Z</time>
      </trkpt>
      <trkpt lat="47.48665" lon="7.07743">
        <ele>488.6</ele>
        <time>2026-05-13T15:39:14Z</time>
      </trkpt>
      <trkpt lat="47.48665" lon="7.0776">
        <ele>488</ele>
        <time>2026-05-13T15:39:15Z</time>
      </trkpt>
      <trkpt lat="47.48666" lon="7.07777">
        <ele>487</ele>
        <time>2026-05-13T15:39:16Z</time>
      </trkpt>
      <trkpt lat="47.48668" lon="7.07827">
        <ele>485.6</ele>
        <time>2026-05-13T15:39:19Z</time>
      </trkpt>
      <trkpt lat="47.48663" lon="7.07861">
        <ele>484</ele>
        <time>2026-05-13T15:39:21Z</time>
      </trkpt>
      <trkpt lat="47.48661" lon="7.07891">
        <ele>482.6</ele>
        <time>2026-05-13T15:39:23Z</time>
      </trkpt>
      <trkpt lat="47.4866" lon="7.07922">
        <ele>481.6</ele>
        <time>2026-05-13T15:39:25Z</time>
      </trkpt>
      <trkpt lat="47.4866" lon="7.07952">
        <ele>480.2</ele>
        <time>2026-05-13T15:39:27Z</time>
      </trkpt>
      <trkpt lat="47.48659" lon="7.07968">
        <ele>479.8</ele>
        <time>2026-05-13T15:39:28Z</time>
      </trkpt>
      <trkpt lat="47.48659" lon="7.07999">
        <ele>478</ele>
        <time>2026-05-13T15:39:30Z</time>
      </trkpt>
      <trkpt lat="47.48659" lon="7.08025">
        <ele>476.2</ele>
        <time>2026-05-13T15:39:32Z</time>
      </trkpt>
      <trkpt lat="47.48658" lon="7.08053">
        <ele>475</ele>
        <time>2026-05-13T15:39:34Z</time>
      </trkpt>
      <trkpt lat="47.48656" lon="7.08096">
        <ele>473.8</ele>
        <time>2026-05-13T15:39:37Z</time>
      </trkpt>
      <trkpt lat="47.48656" lon="7.08112">
        <ele>472.6</ele>
        <time>2026-05-13T15:39:38Z</time>
      </trkpt>
      <trkpt lat="47.48658" lon="7.08143">
        <ele>471</ele>
        <time>2026-05-13T15:39:40Z</time>
      </trkpt>
      <trkpt lat="47.48661" lon="7.08177">
        <ele>470</ele>
        <time>2026-05-13T15:39:42Z</time>
      </trkpt>
      <trkpt lat="47.48663" lon="7.08199">
        <ele>469.4</ele>
        <time>2026-05-13T15:39:43Z</time>
      </trkpt>
      <trkpt lat="47.48666" lon="7.08235">
        <ele>467.6</ele>
        <time>2026-05-13T15:39:45Z</time>
      </trkpt>
      <trkpt lat="47.48669" lon="7.0827">
        <ele>466.4</ele>
        <time>2026-05-13T15:39:47Z</time>
      </trkpt>
      <trkpt lat="47.48672" lon="7.08287">
        <ele>465.6</ele>
        <time>2026-05-13T15:39:48Z</time>
      </trkpt>
      <trkpt lat="47.48676" lon="7.08304">
        <ele>464.8</ele>
        <time>2026-05-13T15:39:49Z</time>
      </trkpt>
      <trkpt lat="47.48683" lon="7.08318">
        <ele>464.2</ele>
        <time>2026-05-13T15:39:50Z</time>
      </trkpt>
      <trkpt lat="47.4869" lon="7.0833">
        <ele>463.8</ele>
        <time>2026-05-13T15:39:51Z</time>
      </trkpt>
      <trkpt lat="47.487" lon="7.08339">
        <ele>463</ele>
        <time>2026-05-13T15:39:52Z</time>
      </trkpt>
      <trkpt lat="47.48719" lon="7.0835">
        <ele>462</ele>
        <time>2026-05-13T15:39:54Z</time>
      </trkpt>
      <trkpt lat="47.48742" lon="7.08362">
        <ele>461</ele>
        <time>2026-05-13T15:39:56Z</time>
      </trkpt>
      <trkpt lat="47.48762" lon="7.08387">
        <ele>459.6</ele>
        <time>2026-05-13T15:39:58Z</time>
      </trkpt>
      <trkpt lat="47.48769" lon="7.084">
        <ele>458.4</ele>
        <time>2026-05-13T15:39:59Z</time>
      </trkpt>
      <trkpt lat="47.48781" lon="7.08427">
        <ele>456.8</ele>
        <time>2026-05-13T15:40:01Z</time>
      </trkpt>
      <trkpt lat="47.48793" lon="7.08453">
        <ele>455.4</ele>
        <time>2026-05-13T15:40:03Z</time>
      </trkpt>
      <trkpt lat="47.48814" lon="7.08501">
        <ele>454.4</ele>
        <time>2026-05-13T15:40:07Z</time>
      </trkpt>
      <trkpt lat="47.48822" lon="7.08525">
        <ele>453.8</ele>
        <time>2026-05-13T15:40:09Z</time>
      </trkpt>
      <trkpt lat="47.48825" lon="7.08538">
        <ele>453.8</ele>
        <time>2026-05-13T15:40:10Z</time>
      </trkpt>
      <trkpt lat="47.48827" lon="7.08563">
        <ele>453.8</ele>
        <time>2026-05-13T15:40:12Z</time>
      </trkpt>
      <trkpt lat="47.48826" lon="7.08639">
        <ele>453.6</ele>
        <time>2026-05-13T15:40:18Z</time>
      </trkpt>
      <trkpt lat="47.48825" lon="7.0869">
        <ele>453.2</ele>
        <time>2026-05-13T15:40:22Z</time>
      </trkpt>
      <trkpt lat="47.48822" lon="7.08741">
        <ele>452.4</ele>
        <time>2026-05-13T15:40:26Z</time>
      </trkpt>
      <trkpt lat="47.4882" lon="7.08787">
        <ele>452.2</ele>
        <time>2026-05-13T15:40:30Z</time>
      </trkpt>
      <trkpt lat="47.48821" lon="7.08795">
        <ele>452</ele>
        <time>2026-05-13T15:40:31Z</time>
      </trkpt>
      <trkpt lat="47.48824" lon="7.08799">
        <ele>451.8</ele>
        <time>2026-05-13T15:40:32Z</time>
      </trkpt>
      <trkpt lat="47.48829" lon="7.08799">
        <ele>451.8</ele>
        <time>2026-05-13T15:40:33Z</time>
      </trkpt>
      <trkpt lat="47.48833" lon="7.08795">
        <ele>451.6</ele>
        <time>2026-05-13T15:40:34Z</time>
      </trkpt>
      <trkpt lat="47.48841" lon="7.08784">
        <ele>451.2</ele>
        <time>2026-05-13T15:40:36Z</time>
      </trkpt>
      <trkpt lat="47.48846" lon="7.08778">
        <ele>451</ele>
        <time>2026-05-13T15:40:37Z</time>
      </trkpt>
      <trkpt lat="47.48854" lon="7.08766">
        <ele>450.6</ele>
        <time>2026-05-13T15:40:39Z</time>
      </trkpt>
      <trkpt lat="47.48867" lon="7.08746">
        <ele>450.2</ele>
        <time>2026-05-13T15:40:42Z</time>
      </trkpt>
      <trkpt lat="47.48876" lon="7.08731">
        <ele>450</ele>
        <time>2026-05-13T15:40:44Z</time>
      </trkpt>
      <trkpt lat="47.4889" lon="7.08701">
        <ele>449.8</ele>
        <time>2026-05-13T15:40:48Z</time>
      </trkpt>
      <trkpt lat="47.48909" lon="7.08646">
        <ele>449.6</ele>
        <time>2026-05-13T15:40:54Z</time>
      </trkpt>
      <trkpt lat="47.48923" lon="7.08572">
        <ele>449.2</ele>
        <time>2026-05-13T15:41:02Z</time>
      </trkpt>
      <trkpt lat="47.48931" lon="7.08516">
        <ele>449.2</ele>
        <time>2026-05-13T15:41:08Z</time>
      </trkpt>
      <trkpt lat="47.48935" lon="7.08499">
        <ele>449.2</ele>
        <time>2026-05-13T15:41:10Z</time>
      </trkpt>
      <trkpt lat="47.48948" lon="7.08449">
        <ele>449.2</ele>
        <time>2026-05-13T15:41:16Z</time>
      </trkpt>
      <trkpt lat="47.48964" lon="7.08408">
        <ele>449</ele>
        <time>2026-05-13T15:41:21Z</time>
      </trkpt>
      <trkpt lat="47.48971" lon="7.08392">
        <ele>448.8</ele>
        <time>2026-05-13T15:41:23Z</time>
      </trkpt>
      <trkpt lat="47.49004" lon="7.08331">
        <ele>447.8</ele>
        <time>2026-05-13T15:41:31Z</time>
      </trkpt>
      <trkpt lat="47.4904" lon="7.08287">
        <ele>447.8</ele>
        <time>2026-05-13T15:41:38Z</time>
      </trkpt>
      <trkpt lat="47.49074" lon="7.08248">
        <ele>447.8</ele>
        <time>2026-05-13T15:41:45Z</time>
      </trkpt>
      <trkpt lat="47.49108" lon="7.08211">
        <ele>448.4</ele>
        <time>2026-05-13T15:41:53Z</time>
      </trkpt>
      <trkpt lat="47.49127" lon="7.08192">
        <ele>448.6</ele>
        <time>2026-05-13T15:41:57Z</time>
      </trkpt>
      <trkpt lat="47.49131" lon="7.08188">
        <ele>448.8</ele>
        <time>2026-05-13T15:41:58Z</time>
      </trkpt>
      <trkpt lat="47.49153" lon="7.08165">
        <ele>449</ele>
        <time>2026-05-13T15:42:03Z</time>
      </trkpt>
      <trkpt lat="47.49166" lon="7.08152">
        <ele>449.4</ele>
        <time>2026-05-13T15:42:06Z</time>
      </trkpt>
      <trkpt lat="47.49174" lon="7.08146">
        <ele>449.6</ele>
        <time>2026-05-13T15:42:08Z</time>
      </trkpt>
      <trkpt lat="47.49188" lon="7.08134">
        <ele>449.8</ele>
        <time>2026-05-13T15:42:11Z</time>
      </trkpt>
      <trkpt lat="47.49193" lon="7.08131">
        <ele>450</ele>
        <time>2026-05-13T15:42:12Z</time>
      </trkpt>
      <trkpt lat="47.49221" lon="7.08112">
        <ele>450</ele>
        <time>2026-05-13T15:42:18Z</time>
      </trkpt>
      <trkpt lat="47.49226" lon="7.08108">
        <ele>450</ele>
        <time>2026-05-13T15:42:19Z</time>
      </trkpt>
      <trkpt lat="47.49255" lon="7.08092">
        <ele>449.8</ele>
        <time>2026-05-13T15:42:25Z</time>
      </trkpt>
      <trkpt lat="47.49259" lon="7.0809">
        <ele>449.6</ele>
        <time>2026-05-13T15:42:26Z</time>
      </trkpt>
      <trkpt lat="47.49275" lon="7.08084">
        <ele>449.2</ele>
        <time>2026-05-13T15:42:30Z</time>
      </trkpt>
      <trkpt lat="47.49286" lon="7.08081">
        <ele>449</ele>
        <time>2026-05-13T15:42:32Z</time>
      </trkpt>
      <trkpt lat="47.49298" lon="7.08077">
        <ele>448.8</ele>
        <time>2026-05-13T15:42:34Z</time>
      </trkpt>
      <trkpt lat="47.49315" lon="7.08072">
        <ele>448.2</ele>
        <time>2026-05-13T15:42:37Z</time>
      </trkpt>
      <trkpt lat="47.49321" lon="7.08071">
        <ele>448</ele>
        <time>2026-05-13T15:42:38Z</time>
      </trkpt>
      <trkpt lat="47.49326" lon="7.08069">
        <ele>448</ele>
        <time>2026-05-13T15:42:39Z</time>
      </trkpt>
      <trkpt lat="47.49347" lon="7.08055">
        <ele>447.8</ele>
        <time>2026-05-13T15:42:43Z</time>
      </trkpt>
      <trkpt lat="47.4936" lon="7.08046">
        <ele>447.6</ele>
        <time>2026-05-13T15:42:45Z</time>
      </trkpt>
      <trkpt lat="47.49377" lon="7.08034">
        <ele>447.6</ele>
        <time>2026-05-13T15:42:48Z</time>
      </trkpt>
      <trkpt lat="47.49382" lon="7.08031">
        <ele>447.6</ele>
        <time>2026-05-13T15:42:49Z</time>
      </trkpt>
      <trkpt lat="47.49409" lon="7.08011">
        <ele>447.8</ele>
        <time>2026-05-13T15:42:54Z</time>
      </trkpt>
      <trkpt lat="47.49414" lon="7.08007">
        <ele>447.8</ele>
        <time>2026-05-13T15:42:55Z</time>
      </trkpt>
      <trkpt lat="47.49446" lon="7.07982">
        <ele>448.4</ele>
        <time>2026-05-13T15:43:01Z</time>
      </trkpt>
      <trkpt lat="47.49456" lon="7.07976">
        <ele>448.8</ele>
        <time>2026-05-13T15:43:03Z</time>
      </trkpt>
      <trkpt lat="47.49478" lon="7.07962">
        <ele>449.4</ele>
        <time>2026-05-13T15:43:08Z</time>
      </trkpt>
      <trkpt lat="47.49483" lon="7.0796">
        <ele>449.6</ele>
        <time>2026-05-13T15:43:09Z</time>
      </trkpt>
      <trkpt lat="47.49522" lon="7.07941">
        <ele>449.6</ele>
        <time>2026-05-13T15:43:16Z</time>
      </trkpt>
      <trkpt lat="47.49573" lon="7.07923">
        <ele>448.6</ele>
        <time>2026-05-13T15:43:24Z</time>
      </trkpt>
      <trkpt lat="47.49616" lon="7.07902">
        <ele>448</ele>
        <time>2026-05-13T15:43:31Z</time>
      </trkpt>
      <trkpt lat="47.49641" lon="7.07889">
        <ele>447.6</ele>
        <time>2026-05-13T15:43:35Z</time>
      </trkpt>
      <trkpt lat="47.49652" lon="7.07883">
        <ele>447.2</ele>
        <time>2026-05-13T15:43:37Z</time>
      </trkpt>
      <trkpt lat="47.49664" lon="7.07876">
        <ele>446.6</ele>
        <time>2026-05-13T15:43:39Z</time>
      </trkpt>
      <trkpt lat="47.49692" lon="7.07862">
        <ele>445.6</ele>
        <time>2026-05-13T15:43:44Z</time>
      </trkpt>
      <trkpt lat="47.49727" lon="7.07846">
        <ele>444.4</ele>
        <time>2026-05-13T15:43:50Z</time>
      </trkpt>
      <trkpt lat="47.49744" lon="7.07842">
        <ele>444.2</ele>
        <time>2026-05-13T15:43:53Z</time>
      </trkpt>
      <trkpt lat="47.4976" lon="7.07843">
        <ele>444</ele>
        <time>2026-05-13T15:43:56Z</time>
      </trkpt>
      <trkpt lat="47.4978" lon="7.07845">
        <ele>443.8</ele>
        <time>2026-05-13T15:44:00Z</time>
      </trkpt>
      <trkpt lat="47.49785" lon="7.07845">
        <ele>443.6</ele>
        <time>2026-05-13T15:44:01Z</time>
      </trkpt>
      <trkpt lat="47.4979" lon="7.07844">
        <ele>443.4</ele>
        <time>2026-05-13T15:44:02Z</time>
      </trkpt>
      <trkpt lat="47.49795" lon="7.07845">
        <ele>443.2</ele>
        <time>2026-05-13T15:44:03Z</time>
      </trkpt>
      <trkpt lat="47.49801" lon="7.0785">
        <ele>442.8</ele>
        <time>2026-05-13T15:44:05Z</time>
      </trkpt>
      <trkpt lat="47.49804" lon="7.07854">
        <ele>442.4</ele>
        <time>2026-05-13T15:44:06Z</time>
      </trkpt>
      <trkpt lat="47.49805" lon="7.07859">
        <ele>442</ele>
        <time>2026-05-13T15:44:07Z</time>
      </trkpt>
      <trkpt lat="47.49806" lon="7.07866">
        <ele>442</ele>
        <time>2026-05-13T15:44:08Z</time>
      </trkpt>
      <trkpt lat="47.49812" lon="7.07889">
        <ele>441.8</ele>
        <time>2026-05-13T15:44:13Z</time>
      </trkpt>
      <trkpt lat="47.49818" lon="7.0791">
        <ele>443.4</ele>
        <time>2026-05-13T15:44:18Z</time>
      </trkpt>
      <trkpt lat="47.4982" lon="7.07918">
        <ele>444.4</ele>
        <time>2026-05-13T15:44:20Z</time>
      </trkpt>
      <trkpt lat="47.49824" lon="7.07928">
        <ele>445.4</ele>
        <time>2026-05-13T15:44:23Z</time>
      </trkpt>
      <trkpt lat="47.49827" lon="7.07939">
        <ele>446.4</ele>
        <time>2026-05-13T15:44:26Z</time>
      </trkpt>
      <trkpt lat="47.49829" lon="7.07943">
        <ele>446.6</ele>
        <time>2026-05-13T15:44:27Z</time>
      </trkpt>
      <trkpt lat="47.49834" lon="7.07955">
        <ele>447.6</ele>
        <time>2026-05-13T15:44:31Z</time>
      </trkpt>
      <trkpt lat="47.49836" lon="7.07959">
        <ele>447.6</ele>
        <time>2026-05-13T15:44:32Z</time>
      </trkpt>
      <trkpt lat="47.49844" lon="7.07975">
        <ele>448.6</ele>
        <time>2026-05-13T15:44:37Z</time>
      </trkpt>
      <trkpt lat="47.49848" lon="7.07986">
        <ele>449</ele>
        <time>2026-05-13T15:44:40Z</time>
      </trkpt>
      <trkpt lat="47.49854" lon="7.07998">
        <ele>449.6</ele>
        <time>2026-05-13T15:44:44Z</time>
      </trkpt>
      <trkpt lat="47.49856" lon="7.08004">
        <ele>450</ele>
        <time>2026-05-13T15:44:46Z</time>
      </trkpt>
      <trkpt lat="47.49862" lon="7.08021">
        <ele>450.8</ele>
        <time>2026-05-13T15:44:51Z</time>
      </trkpt>
      <trkpt lat="47.49866" lon="7.08029">
        <ele>451.6</ele>
        <time>2026-05-13T15:44:54Z</time>
      </trkpt>
      <trkpt lat="47.49869" lon="7.08033">
        <ele>452</ele>
        <time>2026-05-13T15:44:56Z</time>
      </trkpt>
      <trkpt lat="47.49875" lon="7.08046">
        <ele>453</ele>
        <time>2026-05-13T15:45:01Z</time>
      </trkpt>
      <trkpt lat="47.49877" lon="7.08049">
        <ele>453.2</ele>
        <time>2026-05-13T15:45:02Z</time>
      </trkpt>
      <trkpt lat="47.49882" lon="7.08062">
        <ele>454</ele>
        <time>2026-05-13T15:45:07Z</time>
      </trkpt>
      <trkpt lat="47.49883" lon="7.08064">
        <ele>454.2</ele>
        <time>2026-05-13T15:45:08Z</time>
      </trkpt>
      <trkpt lat="47.49885" lon="7.08067">
        <ele>454.4</ele>
        <time>2026-05-13T15:45:09Z</time>
      </trkpt>
      <trkpt lat="47.49892" lon="7.08081">
        <ele>455.4</ele>
        <time>2026-05-13T15:45:14Z</time>
      </trkpt>
      <trkpt lat="47.49895" lon="7.08089">
        <ele>456</ele>
        <time>2026-05-13T15:45:17Z</time>
      </trkpt>
      <trkpt lat="47.49898" lon="7.08095">
        <ele>456.6</ele>
        <time>2026-05-13T15:45:19Z</time>
      </trkpt>
      <trkpt lat="47.49903" lon="7.08108">
        <ele>457.6</ele>
        <time>2026-05-13T15:45:23Z</time>
      </trkpt>
      <trkpt lat="47.49911" lon="7.08129">
        <ele>458.6</ele>
        <time>2026-05-13T15:45:30Z</time>
      </trkpt>
      <trkpt lat="47.49912" lon="7.08132">
        <ele>458.8</ele>
        <time>2026-05-13T15:45:31Z</time>
      </trkpt>
      <trkpt lat="47.49917" lon="7.08144">
        <ele>460.2</ele>
        <time>2026-05-13T15:45:35Z</time>
      </trkpt>
      <trkpt lat="47.49918" lon="7.08146">
        <ele>460.4</ele>
        <time>2026-05-13T15:45:36Z</time>
      </trkpt>
      <trkpt lat="47.49923" lon="7.08159">
        <ele>461.2</ele>
        <time>2026-05-13T15:45:40Z</time>
      </trkpt>
      <trkpt lat="47.49928" lon="7.08169">
        <ele>462.2</ele>
        <time>2026-05-13T15:45:44Z</time>
      </trkpt>
      <trkpt lat="47.49929" lon="7.08171">
        <ele>462.6</ele>
        <time>2026-05-13T15:45:45Z</time>
      </trkpt>
      <trkpt lat="47.49938" lon="7.08194">
        <ele>463.6</ele>
        <time>2026-05-13T15:45:53Z</time>
      </trkpt>
      <trkpt lat="47.49946" lon="7.08214">
        <ele>464.8</ele>
        <time>2026-05-13T15:46:00Z</time>
      </trkpt>
      <trkpt lat="47.49948" lon="7.08218">
        <ele>465</ele>
        <time>2026-05-13T15:46:01Z</time>
      </trkpt>
      <trkpt lat="47.49953" lon="7.08232">
        <ele>466</ele>
        <time>2026-05-13T15:46:06Z</time>
      </trkpt>
      <trkpt lat="47.49958" lon="7.08244">
        <ele>466.6</ele>
        <time>2026-05-13T15:46:10Z</time>
      </trkpt>
      <trkpt lat="47.49961" lon="7.0825">
        <ele>467.2</ele>
        <time>2026-05-13T15:46:12Z</time>
      </trkpt>
      <trkpt lat="47.49968" lon="7.08267">
        <ele>468</ele>
        <time>2026-05-13T15:46:18Z</time>
      </trkpt>
      <trkpt lat="47.49969" lon="7.0827">
        <ele>468.2</ele>
        <time>2026-05-13T15:46:19Z</time>
      </trkpt>
      <trkpt lat="47.49975" lon="7.08284">
        <ele>469.4</ele>
        <time>2026-05-13T15:46:24Z</time>
      </trkpt>
      <trkpt lat="47.49976" lon="7.08287">
        <ele>469.6</ele>
        <time>2026-05-13T15:46:25Z</time>
      </trkpt>
      <trkpt lat="47.49984" lon="7.08308">
        <ele>470.6</ele>
        <time>2026-05-13T15:46:32Z</time>
      </trkpt>
      <trkpt lat="47.49986" lon="7.08314">
        <ele>471</ele>
        <time>2026-05-13T15:46:34Z</time>
      </trkpt>
      <trkpt lat="47.49991" lon="7.08326">
        <ele>471.6</ele>
        <time>2026-05-13T15:46:38Z</time>
      </trkpt>
      <trkpt lat="47.49996" lon="7.0834">
        <ele>473</ele>
        <time>2026-05-13T15:46:43Z</time>
      </trkpt>
      <trkpt lat="47.49999" lon="7.08347">
        <ele>473.4</ele>
        <time>2026-05-13T15:46:45Z</time>
      </trkpt>
      <trkpt lat="47.50003" lon="7.08356">
        <ele>474</ele>
        <time>2026-05-13T15:46:48Z</time>
      </trkpt>
      <trkpt lat="47.50011" lon="7.08375">
        <ele>474.8</ele>
        <time>2026-05-13T15:46:54Z</time>
      </trkpt>
      <trkpt lat="47.50012" lon="7.08378">
        <ele>475.2</ele>
        <time>2026-05-13T15:46:55Z</time>
      </trkpt>
      <trkpt lat="47.50018" lon="7.0839">
        <ele>476.6</ele>
        <time>2026-05-13T15:46:59Z</time>
      </trkpt>
      <trkpt lat="47.50022" lon="7.08395">
        <ele>477</ele>
        <time>2026-05-13T15:47:01Z</time>
      </trkpt>
      <trkpt lat="47.50033" lon="7.08404">
        <ele>477.6</ele>
        <time>2026-05-13T15:47:06Z</time>
      </trkpt>
      <trkpt lat="47.50038" lon="7.08407">
        <ele>477.8</ele>
        <time>2026-05-13T15:47:08Z</time>
      </trkpt>
      <trkpt lat="47.50055" lon="7.0841">
        <ele>478.8</ele>
        <time>2026-05-13T15:47:15Z</time>
      </trkpt>
      <trkpt lat="47.50076" lon="7.08412">
        <ele>479.8</ele>
        <time>2026-05-13T15:47:23Z</time>
      </trkpt>
      <trkpt lat="47.50079" lon="7.08412">
        <ele>480</ele>
        <time>2026-05-13T15:47:24Z</time>
      </trkpt>
      <trkpt lat="47.50098" lon="7.08414">
        <ele>480.6</ele>
        <time>2026-05-13T15:47:31Z</time>
      </trkpt>
      <trkpt lat="47.50104" lon="7.08413">
        <ele>481</ele>
        <time>2026-05-13T15:47:34Z</time>
      </trkpt>
      <trkpt lat="47.5011" lon="7.08415">
        <ele>481.8</ele>
        <time>2026-05-13T15:47:39Z</time>
      </trkpt>
      <trkpt lat="47.50111" lon="7.08415">
        <ele>482.2</ele>
        <time>2026-05-13T15:47:42Z</time>
      </trkpt>
      <trkpt lat="47.50113" lon="7.0842">
        <ele>484.4</ele>
        <time>2026-05-13T15:49:35Z</time>
      </trkpt>
      <trkpt lat="47.50113" lon="7.0842">
        <ele>484.4</ele>
        <time>2026-05-13T15:49:36Z</time>
      </trkpt>
      <trkpt lat="47.50121" lon="7.08438">
        <ele>484.4</ele>
        <time>2026-05-13T15:49:41Z</time>
      </trkpt>
      <trkpt lat="47.50129" lon="7.0846">
        <ele>484.8</ele>
        <time>2026-05-13T15:49:47Z</time>
      </trkpt>
      <trkpt lat="47.50137" lon="7.08485">
        <ele>485</ele>
        <time>2026-05-13T15:49:54Z</time>
      </trkpt>
      <trkpt lat="47.50151" lon="7.08502">
        <ele>485.2</ele>
        <time>2026-05-13T15:49:59Z</time>
      </trkpt>
      <trkpt lat="47.50159" lon="7.08506">
        <ele>485</ele>
        <time>2026-05-13T15:50:00Z</time>
      </trkpt>
      <trkpt lat="47.50176" lon="7.08511">
        <ele>484.8</ele>
        <time>2026-05-13T15:50:04Z</time>
      </trkpt>
      <trkpt lat="47.50191" lon="7.08517">
        <ele>484.2</ele>
        <time>2026-05-13T15:50:07Z</time>
      </trkpt>
      <trkpt lat="47.50191" lon="7.08517">
        <ele>484.2</ele>
        <time>2026-05-13T15:50:08Z</time>
      </trkpt>
      <trkpt lat="47.50205" lon="7.08527">
        <ele>483.8</ele>
        <time>2026-05-13T15:50:11Z</time>
      </trkpt>
      <trkpt lat="47.50218" lon="7.08545">
        <ele>483.8</ele>
        <time>2026-05-13T15:50:13Z</time>
      </trkpt>
      <trkpt lat="47.5023" lon="7.08582">
        <ele>484.2</ele>
        <time>2026-05-13T15:50:18Z</time>
      </trkpt>
      <trkpt lat="47.50244" lon="7.08629">
        <ele>484.6</ele>
        <time>2026-05-13T15:50:24Z</time>
      </trkpt>
      <trkpt lat="47.50257" lon="7.08671">
        <ele>484.4</ele>
        <time>2026-05-13T15:50:29Z</time>
      </trkpt>
      <trkpt lat="47.50269" lon="7.08695">
        <ele>484.2</ele>
        <time>2026-05-13T15:50:32Z</time>
      </trkpt>
      <trkpt lat="47.50288" lon="7.08727">
        <ele>484</ele>
        <time>2026-05-13T15:50:36Z</time>
      </trkpt>
      <trkpt lat="47.50295" lon="7.08746">
        <ele>483.6</ele>
        <time>2026-05-13T15:50:38Z</time>
      </trkpt>
      <trkpt lat="47.50303" lon="7.08791">
        <ele>482.4</ele>
        <time>2026-05-13T15:50:42Z</time>
      </trkpt>
      <trkpt lat="47.50304" lon="7.08802">
        <ele>481.8</ele>
        <time>2026-05-13T15:50:43Z</time>
      </trkpt>
      <trkpt lat="47.50306" lon="7.08826">
        <ele>481.4</ele>
        <time>2026-05-13T15:50:46Z</time>
      </trkpt>
      <trkpt lat="47.50311" lon="7.08889">
        <ele>480</ele>
        <time>2026-05-13T15:50:50Z</time>
      </trkpt>
      <trkpt lat="47.50315" lon="7.08951">
        <ele>479</ele>
        <time>2026-05-13T15:50:55Z</time>
      </trkpt>
      <trkpt lat="47.5032" lon="7.08989">
        <ele>478.8</ele>
        <time>2026-05-13T15:50:58Z</time>
      </trkpt>
      <trkpt lat="47.5033" lon="7.09038">
        <ele>478</ele>
        <time>2026-05-13T15:51:02Z</time>
      </trkpt>
      <trkpt lat="47.5034" lon="7.09075">
        <ele>477.4</ele>
        <time>2026-05-13T15:51:05Z</time>
      </trkpt>
      <trkpt lat="47.50346" lon="7.09098">
        <ele>477</ele>
        <time>2026-05-13T15:51:07Z</time>
      </trkpt>
      <trkpt lat="47.50355" lon="7.09134">
        <ele>475.8</ele>
        <time>2026-05-13T15:51:11Z</time>
      </trkpt>
      <trkpt lat="47.50362" lon="7.09158">
        <ele>475.6</ele>
        <time>2026-05-13T15:51:12Z</time>
      </trkpt>
      <trkpt lat="47.50374" lon="7.09209">
        <ele>474.8</ele>
        <time>2026-05-13T15:51:17Z</time>
      </trkpt>
      <trkpt lat="47.5039" lon="7.09271">
        <ele>473.8</ele>
        <time>2026-05-13T15:51:21Z</time>
      </trkpt>
      <trkpt lat="47.50394" lon="7.09283">
        <ele>473.6</ele>
        <time>2026-05-13T15:51:22Z</time>
      </trkpt>
      <trkpt lat="47.50416" lon="7.0934">
        <ele>472.8</ele>
        <time>2026-05-13T15:51:27Z</time>
      </trkpt>
      <trkpt lat="47.50425" lon="7.09362">
        <ele>472.6</ele>
        <time>2026-05-13T15:51:29Z</time>
      </trkpt>
      <trkpt lat="47.50452" lon="7.0943">
        <ele>471.8</ele>
        <time>2026-05-13T15:51:35Z</time>
      </trkpt>
      <trkpt lat="47.50457" lon="7.09441">
        <ele>471.4</ele>
        <time>2026-05-13T15:51:37Z</time>
      </trkpt>
      <trkpt lat="47.50477" lon="7.09503">
        <ele>470.6</ele>
        <time>2026-05-13T15:51:41Z</time>
      </trkpt>
      <trkpt lat="47.50479" lon="7.09516">
        <ele>470.4</ele>
        <time>2026-05-13T15:51:42Z</time>
      </trkpt>
      <trkpt lat="47.50482" lon="7.09529">
        <ele>470</ele>
        <time>2026-05-13T15:51:43Z</time>
      </trkpt>
      <trkpt lat="47.50495" lon="7.09596">
        <ele>469.2</ele>
        <time>2026-05-13T15:51:48Z</time>
      </trkpt>
      <trkpt lat="47.50505" lon="7.09646">
        <ele>468.8</ele>
        <time>2026-05-13T15:51:52Z</time>
      </trkpt>
      <trkpt lat="47.50511" lon="7.09696">
        <ele>468.8</ele>
        <time>2026-05-13T15:51:56Z</time>
      </trkpt>
      <trkpt lat="47.50523" lon="7.09781">
        <ele>468</ele>
        <time>2026-05-13T15:52:03Z</time>
      </trkpt>
      <trkpt lat="47.50525" lon="7.09793">
        <ele>467.8</ele>
        <time>2026-05-13T15:52:04Z</time>
      </trkpt>
      <trkpt lat="47.50538" lon="7.09849">
        <ele>467.2</ele>
        <time>2026-05-13T15:52:09Z</time>
      </trkpt>
      <trkpt lat="47.5054" lon="7.0986">
        <ele>467.2</ele>
        <time>2026-05-13T15:52:10Z</time>
      </trkpt>
      <trkpt lat="47.50542" lon="7.09872">
        <ele>467</ele>
        <time>2026-05-13T15:52:11Z</time>
      </trkpt>
      <trkpt lat="47.50543" lon="7.09883">
        <ele>466.6</ele>
        <time>2026-05-13T15:52:13Z</time>
      </trkpt>
      <trkpt lat="47.50548" lon="7.09918">
        <ele>466.4</ele>
        <time>2026-05-13T15:52:15Z</time>
      </trkpt>
      <trkpt lat="47.50561" lon="7.09981">
        <ele>465.8</ele>
        <time>2026-05-13T15:52:21Z</time>
      </trkpt>
      <trkpt lat="47.50566" lon="7.10001">
        <ele>465.6</ele>
        <time>2026-05-13T15:52:23Z</time>
      </trkpt>
      <trkpt lat="47.50575" lon="7.10028">
        <ele>465.4</ele>
        <time>2026-05-13T15:52:26Z</time>
      </trkpt>
      <trkpt lat="47.5058" lon="7.10046">
        <ele>465.2</ele>
        <time>2026-05-13T15:52:28Z</time>
      </trkpt>
      <trkpt lat="47.50589" lon="7.10085">
        <ele>465.2</ele>
        <time>2026-05-13T15:52:32Z</time>
      </trkpt>
      <trkpt lat="47.50601" lon="7.10167">
        <ele>465.4</ele>
        <time>2026-05-13T15:52:41Z</time>
      </trkpt>
      <trkpt lat="47.50614" lon="7.10236">
        <ele>466</ele>
        <time>2026-05-13T15:52:49Z</time>
      </trkpt>
      <trkpt lat="47.5063" lon="7.10283">
        <ele>467</ele>
        <time>2026-05-13T15:52:55Z</time>
      </trkpt>
      <trkpt lat="47.50635" lon="7.10298">
        <ele>467.2</ele>
        <time>2026-05-13T15:52:58Z</time>
      </trkpt>
      <trkpt lat="47.50646" lon="7.10346">
        <ele>467.6</ele>
        <time>2026-05-13T15:53:03Z</time>
      </trkpt>
      <trkpt lat="47.50647" lon="7.10355">
        <ele>467.6</ele>
        <time>2026-05-13T15:53:04Z</time>
      </trkpt>
      <trkpt lat="47.50657" lon="7.10436">
        <ele>468</ele>
        <time>2026-05-13T15:53:14Z</time>
      </trkpt>
      <trkpt lat="47.50664" lon="7.10487">
        <ele>468.2</ele>
        <time>2026-05-13T15:53:20Z</time>
      </trkpt>
      <trkpt lat="47.50666" lon="7.10496">
        <ele>468.2</ele>
        <time>2026-05-13T15:53:22Z</time>
      </trkpt>
      <trkpt lat="47.50671" lon="7.10526">
        <ele>468.2</ele>
        <time>2026-05-13T15:53:24Z</time>
      </trkpt>
      <trkpt lat="47.50676" lon="7.10547">
        <ele>468</ele>
        <time>2026-05-13T15:53:26Z</time>
      </trkpt>
      <trkpt lat="47.50681" lon="7.10598">
        <ele>467.4</ele>
        <time>2026-05-13T15:53:30Z</time>
      </trkpt>
      <trkpt lat="47.50683" lon="7.10611">
        <ele>467</ele>
        <time>2026-05-13T15:53:31Z</time>
      </trkpt>
      <trkpt lat="47.50687" lon="7.10649">
        <ele>466.2</ele>
        <time>2026-05-13T15:53:34Z</time>
      </trkpt>
      <trkpt lat="47.50688" lon="7.10661">
        <ele>465.4</ele>
        <time>2026-05-13T15:53:35Z</time>
      </trkpt>
      <trkpt lat="47.50688" lon="7.10661">
        <ele>465</ele>
        <time>2026-05-13T15:53:36Z</time>
      </trkpt>
      <trkpt lat="47.50688" lon="7.10685">
        <ele>464.2</ele>
        <time>2026-05-13T15:53:37Z</time>
      </trkpt>
      <trkpt lat="47.50686" lon="7.107">
        <ele>463.6</ele>
        <time>2026-05-13T15:53:38Z</time>
      </trkpt>
      <trkpt lat="47.50682" lon="7.1072">
        <ele>462.6</ele>
        <time>2026-05-13T15:53:40Z</time>
      </trkpt>
      <trkpt lat="47.50675" lon="7.10747">
        <ele>461.2</ele>
        <time>2026-05-13T15:53:43Z</time>
      </trkpt>
      <trkpt lat="47.50668" lon="7.10776">
        <ele>460.2</ele>
        <time>2026-05-13T15:53:48Z</time>
      </trkpt>
      <trkpt lat="47.50668" lon="7.10776">
        <ele>460</ele>
        <time>2026-05-13T15:53:49Z</time>
      </trkpt>
      <trkpt lat="47.50664" lon="7.10791">
        <ele>459.6</ele>
        <time>2026-05-13T15:53:53Z</time>
      </trkpt>
      <trkpt lat="47.50664" lon="7.10792">
        <ele>459</ele>
        <time>2026-05-13T15:53:57Z</time>
      </trkpt>
      <trkpt lat="47.50667" lon="7.10801">
        <ele>458.4</ele>
        <time>2026-05-13T15:57:24Z</time>
      </trkpt>
      <trkpt lat="47.50663" lon="7.10811">
        <ele>458</ele>
        <time>2026-05-13T15:57:28Z</time>
      </trkpt>
      <trkpt lat="47.50663" lon="7.10817">
        <ele>458</ele>
        <time>2026-05-13T15:57:30Z</time>
      </trkpt>
      <trkpt lat="47.5066" lon="7.10841">
        <ele>457.2</ele>
        <time>2026-05-13T15:57:35Z</time>
      </trkpt>
      <trkpt lat="47.50661" lon="7.10856">
        <ele>456.6</ele>
        <time>2026-05-13T15:57:37Z</time>
      </trkpt>
      <trkpt lat="47.50665" lon="7.10868">
        <ele>456.2</ele>
        <time>2026-05-13T15:57:39Z</time>
      </trkpt>
      <trkpt lat="47.5067" lon="7.10881">
        <ele>455.8</ele>
        <time>2026-05-13T15:57:41Z</time>
      </trkpt>
      <trkpt lat="47.5068" lon="7.10902">
        <ele>455</ele>
        <time>2026-05-13T15:57:44Z</time>
      </trkpt>
      <trkpt lat="47.50683" lon="7.10909">
        <ele>454.6</ele>
        <time>2026-05-13T15:57:45Z</time>
      </trkpt>
      <trkpt lat="47.50691" lon="7.10922">
        <ele>453.8</ele>
        <time>2026-05-13T15:57:47Z</time>
      </trkpt>
      <trkpt lat="47.50695" lon="7.10929">
        <ele>453.6</ele>
        <time>2026-05-13T15:57:48Z</time>
      </trkpt>
      <trkpt lat="47.50705" lon="7.10941">
        <ele>452.8</ele>
        <time>2026-05-13T15:57:50Z</time>
      </trkpt>
      <trkpt lat="47.5071" lon="7.10947">
        <ele>452.2</ele>
        <time>2026-05-13T15:57:51Z</time>
      </trkpt>
      <trkpt lat="47.50721" lon="7.10957">
        <ele>451.8</ele>
        <time>2026-05-13T15:57:53Z</time>
      </trkpt>
      <trkpt lat="47.50756" lon="7.1099">
        <ele>450.8</ele>
        <time>2026-05-13T15:58:00Z</time>
      </trkpt>
      <trkpt lat="47.50776" lon="7.11009">
        <ele>450.8</ele>
        <time>2026-05-13T15:58:05Z</time>
      </trkpt>
      <trkpt lat="47.50787" lon="7.11021">
        <ele>450.8</ele>
        <time>2026-05-13T15:58:08Z</time>
      </trkpt>
      <trkpt lat="47.50794" lon="7.11027">
        <ele>451</ele>
        <time>2026-05-13T15:58:10Z</time>
      </trkpt>
      <trkpt lat="47.50797" lon="7.1103">
        <ele>451</ele>
        <time>2026-05-13T15:58:11Z</time>
      </trkpt>
      <trkpt lat="47.50806" lon="7.1104">
        <ele>451.2</ele>
        <time>2026-05-13T15:58:14Z</time>
      </trkpt>
      <trkpt lat="47.50821" lon="7.11053">
        <ele>452</ele>
        <time>2026-05-13T15:58:19Z</time>
      </trkpt>
      <trkpt lat="47.50823" lon="7.11071">
        <ele>452.8</ele>
        <time>2026-05-13T15:58:23Z</time>
      </trkpt>
      <trkpt lat="47.50826" lon="7.11086">
        <ele>453.2</ele>
        <time>2026-05-13T15:58:26Z</time>
      </trkpt>
      <trkpt lat="47.5083" lon="7.111">
        <ele>453.6</ele>
        <time>2026-05-13T15:58:29Z</time>
      </trkpt>
      <trkpt lat="47.50834" lon="7.11117">
        <ele>454.4</ele>
        <time>2026-05-13T15:58:33Z</time>
      </trkpt>
      <trkpt lat="47.50837" lon="7.1113">
        <ele>455.2</ele>
        <time>2026-05-13T15:58:36Z</time>
      </trkpt>
      <trkpt lat="47.50838" lon="7.11138">
        <ele>455.6</ele>
        <time>2026-05-13T15:58:38Z</time>
      </trkpt>
      <trkpt lat="47.50843" lon="7.11158">
        <ele>456.6</ele>
        <time>2026-05-13T15:58:43Z</time>
      </trkpt>
      <trkpt lat="47.50849" lon="7.11181">
        <ele>457.8</ele>
        <time>2026-05-13T15:58:49Z</time>
      </trkpt>
      <trkpt lat="47.50854" lon="7.11199">
        <ele>459.2</ele>
        <time>2026-05-13T15:58:54Z</time>
      </trkpt>
      <trkpt lat="47.50856" lon="7.11209">
        <ele>460</ele>
        <time>2026-05-13T15:58:58Z</time>
      </trkpt>
      <trkpt lat="47.50858" lon="7.11219">
        <ele>460.2</ele>
        <time>2026-05-13T15:59:00Z</time>
      </trkpt>
      <trkpt lat="47.50863" lon="7.11235">
        <ele>461.2</ele>
        <time>2026-05-13T15:59:06Z</time>
      </trkpt>
      <trkpt lat="47.50869" lon="7.1125">
        <ele>462.4</ele>
        <time>2026-05-13T15:59:11Z</time>
      </trkpt>
      <trkpt lat="47.50872" lon="7.11256">
        <ele>462.6</ele>
        <time>2026-05-13T15:59:13Z</time>
      </trkpt>
      <trkpt lat="47.50878" lon="7.11261">
        <ele>463.4</ele>
        <time>2026-05-13T15:59:16Z</time>
      </trkpt>
      <trkpt lat="47.50883" lon="7.11264">
        <ele>463.8</ele>
        <time>2026-05-13T15:59:18Z</time>
      </trkpt>
      <trkpt lat="47.50889" lon="7.11268">
        <ele>464.4</ele>
        <time>2026-05-13T15:59:21Z</time>
      </trkpt>
      <trkpt lat="47.509" lon="7.11277">
        <ele>465.6</ele>
        <time>2026-05-13T15:59:26Z</time>
      </trkpt>
      <trkpt lat="47.50909" lon="7.11289">
        <ele>466.6</ele>
        <time>2026-05-13T15:59:31Z</time>
      </trkpt>
      <trkpt lat="47.50911" lon="7.11292">
        <ele>466.8</ele>
        <time>2026-05-13T15:59:32Z</time>
      </trkpt>
      <trkpt lat="47.50919" lon="7.113">
        <ele>467.8</ele>
        <time>2026-05-13T15:59:36Z</time>
      </trkpt>
      <trkpt lat="47.50919" lon="7.113">
        <ele>467.8</ele>
        <time>2026-05-13T15:59:37Z</time>
      </trkpt>
      <trkpt lat="47.50923" lon="7.11296">
        <ele>468.2</ele>
        <time>2026-05-13T15:59:38Z</time>
      </trkpt>
      <trkpt lat="47.5093" lon="7.1129">
        <ele>468.8</ele>
        <time>2026-05-13T15:59:41Z</time>
      </trkpt>
      <trkpt lat="47.50946" lon="7.1129">
        <ele>469.8</ele>
        <time>2026-05-13T15:59:47Z</time>
      </trkpt>
      <trkpt lat="47.5096" lon="7.11292">
        <ele>471</ele>
        <time>2026-05-13T15:59:52Z</time>
      </trkpt>
      <trkpt lat="47.50968" lon="7.11294">
        <ele>471.8</ele>
        <time>2026-05-13T15:59:55Z</time>
      </trkpt>
      <trkpt lat="47.5097" lon="7.11295">
        <ele>472</ele>
        <time>2026-05-13T15:59:56Z</time>
      </trkpt>
      <trkpt lat="47.50991" lon="7.11298">
        <ele>472.8</ele>
        <time>2026-05-13T16:00:03Z</time>
      </trkpt>
      <trkpt lat="47.50994" lon="7.11299">
        <ele>473</ele>
        <time>2026-05-13T16:00:04Z</time>
      </trkpt>
      <trkpt lat="47.51007" lon="7.11302">
        <ele>474.4</ele>
        <time>2026-05-13T16:00:09Z</time>
      </trkpt>
      <trkpt lat="47.5101" lon="7.11303">
        <ele>474.4</ele>
        <time>2026-05-13T16:00:10Z</time>
      </trkpt>
      <trkpt lat="47.51015" lon="7.11305">
        <ele>475</ele>
        <time>2026-05-13T16:00:13Z</time>
      </trkpt>
      <trkpt lat="47.51023" lon="7.11307">
        <ele>475.4</ele>
        <time>2026-05-13T16:00:15Z</time>
      </trkpt>
      <trkpt lat="47.51037" lon="7.11309">
        <ele>475.8</ele>
        <time>2026-05-13T16:00:20Z</time>
      </trkpt>
      <trkpt lat="47.51054" lon="7.11312">
        <ele>476.2</ele>
        <time>2026-05-13T16:00:26Z</time>
      </trkpt>
      <trkpt lat="47.51073" lon="7.11315">
        <ele>476.2</ele>
        <time>2026-05-13T16:00:31Z</time>
      </trkpt>
      <trkpt lat="47.51084" lon="7.11319">
        <ele>476.2</ele>
        <time>2026-05-13T16:00:34Z</time>
      </trkpt>
      <trkpt lat="47.51115" lon="7.1133">
        <ele>475.4</ele>
        <time>2026-05-13T16:00:42Z</time>
      </trkpt>
      <trkpt lat="47.51145" lon="7.11347">
        <ele>475.4</ele>
        <time>2026-05-13T16:00:50Z</time>
      </trkpt>
      <trkpt lat="47.51155" lon="7.11354">
        <ele>476</ele>
        <time>2026-05-13T16:00:54Z</time>
      </trkpt>
      <trkpt lat="47.51156" lon="7.11354">
        <ele>476.2</ele>
        <time>2026-05-13T16:00:57Z</time>
      </trkpt>
      <trkpt lat="47.51158" lon="7.11355">
        <ele>476.2</ele>
        <time>2026-05-13T16:01:13Z</time>
      </trkpt>
      <trkpt lat="47.51171" lon="7.11363">
        <ele>476</ele>
        <time>2026-05-13T16:01:17Z</time>
      </trkpt>
      <trkpt lat="47.51193" lon="7.11376">
        <ele>476</ele>
        <time>2026-05-13T16:01:22Z</time>
      </trkpt>
      <trkpt lat="47.51227" lon="7.11397">
        <ele>476</ele>
        <time>2026-05-13T16:01:28Z</time>
      </trkpt>
      <trkpt lat="47.51278" lon="7.1143">
        <ele>475</ele>
        <time>2026-05-13T16:01:37Z</time>
      </trkpt>
      <trkpt lat="47.51284" lon="7.11433">
        <ele>474.8</ele>
        <time>2026-05-13T16:01:38Z</time>
      </trkpt>
      <trkpt lat="47.51292" lon="7.11438">
        <ele>474.6</ele>
        <time>2026-05-13T16:01:39Z</time>
      </trkpt>
      <trkpt lat="47.51334" lon="7.11457">
        <ele>473.8</ele>
        <time>2026-05-13T16:01:46Z</time>
      </trkpt>
      <trkpt lat="47.51351" lon="7.11463">
        <ele>473.6</ele>
        <time>2026-05-13T16:01:49Z</time>
      </trkpt>
      <trkpt lat="47.51374" lon="7.11472">
        <ele>473.2</ele>
        <time>2026-05-13T16:01:53Z</time>
      </trkpt>
      <trkpt lat="47.51405" lon="7.11491">
        <ele>472.6</ele>
        <time>2026-05-13T16:01:58Z</time>
      </trkpt>
      <trkpt lat="47.51411" lon="7.11496">
        <ele>472.2</ele>
        <time>2026-05-13T16:01:59Z</time>
      </trkpt>
      <trkpt lat="47.51432" lon="7.11511">
        <ele>471.2</ele>
        <time>2026-05-13T16:02:02Z</time>
      </trkpt>
      <trkpt lat="47.5146" lon="7.11531">
        <ele>470.2</ele>
        <time>2026-05-13T16:02:06Z</time>
      </trkpt>
      <trkpt lat="47.51504" lon="7.11562">
        <ele>469</ele>
        <time>2026-05-13T16:02:12Z</time>
      </trkpt>
      <trkpt lat="47.51518" lon="7.11572">
        <ele>468.8</ele>
        <time>2026-05-13T16:02:14Z</time>
      </trkpt>
      <trkpt lat="47.51569" lon="7.11604">
        <ele>468.2</ele>
        <time>2026-05-13T16:02:21Z</time>
      </trkpt>
      <trkpt lat="47.51583" lon="7.11612">
        <ele>468</ele>
        <time>2026-05-13T16:02:23Z</time>
      </trkpt>
      <trkpt lat="47.5159" lon="7.11616">
        <ele>468</ele>
        <time>2026-05-13T16:02:24Z</time>
      </trkpt>
      <trkpt lat="47.51641" lon="7.11649">
        <ele>467.2</ele>
        <time>2026-05-13T16:02:31Z</time>
      </trkpt>
      <trkpt lat="47.51663" lon="7.11665">
        <ele>466.8</ele>
        <time>2026-05-13T16:02:34Z</time>
      </trkpt>
      <trkpt lat="47.5171" lon="7.11694">
        <ele>465.6</ele>
        <time>2026-05-13T16:02:40Z</time>
      </trkpt>
      <trkpt lat="47.51763" lon="7.11723">
        <ele>465.4</ele>
        <time>2026-05-13T16:02:47Z</time>
      </trkpt>
      <trkpt lat="47.5177" lon="7.11727">
        <ele>465.4</ele>
        <time>2026-05-13T16:02:48Z</time>
      </trkpt>
      <trkpt lat="47.51826" lon="7.11751">
        <ele>466</ele>
        <time>2026-05-13T16:02:56Z</time>
      </trkpt>
      <trkpt lat="47.51873" lon="7.1177">
        <ele>466.8</ele>
        <time>2026-05-13T16:03:03Z</time>
      </trkpt>
      <trkpt lat="47.51899" lon="7.11781">
        <ele>467</ele>
        <time>2026-05-13T16:03:07Z</time>
      </trkpt>
      <trkpt lat="47.51916" lon="7.11787">
        <ele>467.2</ele>
        <time>2026-05-13T16:03:10Z</time>
      </trkpt>
      <trkpt lat="47.51974" lon="7.11814">
        <ele>468</ele>
        <time>2026-05-13T16:03:19Z</time>
      </trkpt>
      <trkpt lat="47.52031" lon="7.11839">
        <ele>467.8</ele>
        <time>2026-05-13T16:03:27Z</time>
      </trkpt>
      <trkpt lat="47.52086" lon="7.11863">
        <ele>467.2</ele>
        <time>2026-05-13T16:03:35Z</time>
      </trkpt>
      <trkpt lat="47.52093" lon="7.11866">
        <ele>467.2</ele>
        <time>2026-05-13T16:03:36Z</time>
      </trkpt>
      <trkpt lat="47.52106" lon="7.11871">
        <ele>467</ele>
        <time>2026-05-13T16:03:38Z</time>
      </trkpt>
      <trkpt lat="47.52164" lon="7.11902">
        <ele>466.6</ele>
        <time>2026-05-13T16:03:46Z</time>
      </trkpt>
      <trkpt lat="47.52169" lon="7.11905">
        <ele>466.6</ele>
        <time>2026-05-13T16:03:47Z</time>
      </trkpt>
      <trkpt lat="47.52224" lon="7.11935">
        <ele>466.8</ele>
        <time>2026-05-13T16:03:55Z</time>
      </trkpt>
      <trkpt lat="47.5223" lon="7.11937">
        <ele>466.8</ele>
        <time>2026-05-13T16:03:56Z</time>
      </trkpt>
      <trkpt lat="47.52288" lon="7.11963">
        <ele>466.6</ele>
        <time>2026-05-13T16:04:04Z</time>
      </trkpt>
      <trkpt lat="47.52294" lon="7.11966">
        <ele>466.6</ele>
        <time>2026-05-13T16:04:05Z</time>
      </trkpt>
      <trkpt lat="47.52346" lon="7.11989">
        <ele>466.2</ele>
        <time>2026-05-13T16:04:12Z</time>
      </trkpt>
      <trkpt lat="47.52366" lon="7.11998">
        <ele>466.4</ele>
        <time>2026-05-13T16:04:15Z</time>
      </trkpt>
      <trkpt lat="47.52373" lon="7.12001">
        <ele>466.4</ele>
        <time>2026-05-13T16:04:16Z</time>
      </trkpt>
      <trkpt lat="47.52429" lon="7.12022">
        <ele>466</ele>
        <time>2026-05-13T16:04:24Z</time>
      </trkpt>
      <trkpt lat="47.52436" lon="7.12025">
        <ele>465.8</ele>
        <time>2026-05-13T16:04:25Z</time>
      </trkpt>
      <trkpt lat="47.52468" lon="7.12038">
        <ele>465.4</ele>
        <time>2026-05-13T16:04:30Z</time>
      </trkpt>
      <trkpt lat="47.52486" lon="7.12045">
        <ele>465.4</ele>
        <time>2026-05-13T16:04:33Z</time>
      </trkpt>
      <trkpt lat="47.52514" lon="7.12056">
        <ele>465.6</ele>
        <time>2026-05-13T16:04:39Z</time>
      </trkpt>
      <trkpt lat="47.52525" lon="7.1206">
        <ele>466</ele>
        <time>2026-05-13T16:04:43Z</time>
      </trkpt>
      <trkpt lat="47.52528" lon="7.12062">
        <ele>466</ele>
        <time>2026-05-13T16:04:48Z</time>
      </trkpt>
      <trkpt lat="47.52532" lon="7.12064">
        <ele>465.8</ele>
        <time>2026-05-13T16:04:52Z</time>
      </trkpt>
      <trkpt lat="47.52533" lon="7.12069">
        <ele>465.6</ele>
        <time>2026-05-13T16:04:54Z</time>
      </trkpt>
      <trkpt lat="47.52533" lon="7.12073">
        <ele>465.6</ele>
        <time>2026-05-13T16:04:55Z</time>
      </trkpt>
      <trkpt lat="47.52535" lon="7.12107">
        <ele>465.6</ele>
        <time>2026-05-13T16:05:01Z</time>
      </trkpt>
      <trkpt lat="47.52539" lon="7.12156">
        <ele>465.2</ele>
        <time>2026-05-13T16:05:07Z</time>
      </trkpt>
      <trkpt lat="47.5254" lon="7.12166">
        <ele>465</ele>
        <time>2026-05-13T16:05:08Z</time>
      </trkpt>
      <trkpt lat="47.52545" lon="7.12215">
        <ele>464.8</ele>
        <time>2026-05-13T16:05:13Z</time>
      </trkpt>
      <trkpt lat="47.52549" lon="7.12237">
        <ele>464.4</ele>
        <time>2026-05-13T16:05:15Z</time>
      </trkpt>
      <trkpt lat="47.52556" lon="7.12282">
        <ele>464</ele>
        <time>2026-05-13T16:05:19Z</time>
      </trkpt>
      <trkpt lat="47.52572" lon="7.12336">
        <ele>463.4</ele>
        <time>2026-05-13T16:05:24Z</time>
      </trkpt>
      <trkpt lat="47.52588" lon="7.12385">
        <ele>462.6</ele>
        <time>2026-05-13T16:05:28Z</time>
      </trkpt>
      <trkpt lat="47.52591" lon="7.12398">
        <ele>462.2</ele>
        <time>2026-05-13T16:05:29Z</time>
      </trkpt>
      <trkpt lat="47.52606" lon="7.12439">
        <ele>461.2</ele>
        <time>2026-05-13T16:05:33Z</time>
      </trkpt>
      <trkpt lat="47.52617" lon="7.1247">
        <ele>460.4</ele>
        <time>2026-05-13T16:05:36Z</time>
      </trkpt>
      <trkpt lat="47.52629" lon="7.12498">
        <ele>460</ele>
        <time>2026-05-13T16:05:39Z</time>
      </trkpt>
      <trkpt lat="47.52644" lon="7.12535">
        <ele>459.4</ele>
        <time>2026-05-13T16:05:43Z</time>
      </trkpt>
      <trkpt lat="47.52654" lon="7.12563">
        <ele>459</ele>
        <time>2026-05-13T16:05:46Z</time>
      </trkpt>
      <trkpt lat="47.52664" lon="7.12592">
        <ele>459</ele>
        <time>2026-05-13T16:05:49Z</time>
      </trkpt>
      <trkpt lat="47.52688" lon="7.12668">
        <ele>459.2</ele>
        <time>2026-05-13T16:05:57Z</time>
      </trkpt>
      <trkpt lat="47.52701" lon="7.12711">
        <ele>459.6</ele>
        <time>2026-05-13T16:06:02Z</time>
      </trkpt>
      <trkpt lat="47.52715" lon="7.12758">
        <ele>460.4</ele>
        <time>2026-05-13T16:06:08Z</time>
      </trkpt>
      <trkpt lat="47.52725" lon="7.12792">
        <ele>461.6</ele>
        <time>2026-05-13T16:06:13Z</time>
      </trkpt>
      <trkpt lat="47.52726" lon="7.12797">
        <ele>461.6</ele>
        <time>2026-05-13T16:06:14Z</time>
      </trkpt>
      <trkpt lat="47.52733" lon="7.12817">
        <ele>462.4</ele>
        <time>2026-05-13T16:06:17Z</time>
      </trkpt>
      <trkpt lat="47.52735" lon="7.12823">
        <ele>462.6</ele>
        <time>2026-05-13T16:06:18Z</time>
      </trkpt>
      <trkpt lat="47.52739" lon="7.12835">
        <ele>463.2</ele>
        <time>2026-05-13T16:06:20Z</time>
      </trkpt>
      <trkpt lat="47.52752" lon="7.12869">
        <ele>463.8</ele>
        <time>2026-05-13T16:06:25Z</time>
      </trkpt>
      <trkpt lat="47.52755" lon="7.12876">
        <ele>464</ele>
        <time>2026-05-13T16:06:26Z</time>
      </trkpt>
      <trkpt lat="47.52763" lon="7.12894">
        <ele>464.2</ele>
        <time>2026-05-13T16:06:29Z</time>
      </trkpt>
      <trkpt lat="47.52789" lon="7.12949">
        <ele>465</ele>
        <time>2026-05-13T16:06:37Z</time>
      </trkpt>
      <trkpt lat="47.52792" lon="7.12955">
        <ele>465</ele>
        <time>2026-05-13T16:06:38Z</time>
      </trkpt>
      <trkpt lat="47.52821" lon="7.13018">
        <ele>465</ele>
        <time>2026-05-13T16:06:46Z</time>
      </trkpt>
      <trkpt lat="47.52841" lon="7.1307">
        <ele>463.8</ele>
        <time>2026-05-13T16:06:52Z</time>
      </trkpt>
      <trkpt lat="47.52845" lon="7.13079">
        <ele>463.6</ele>
        <time>2026-05-13T16:06:53Z</time>
      </trkpt>
      <trkpt lat="47.52872" lon="7.13151">
        <ele>463</ele>
        <time>2026-05-13T16:07:01Z</time>
      </trkpt>
      <trkpt lat="47.52879" lon="7.13171">
        <ele>463</ele>
        <time>2026-05-13T16:07:03Z</time>
      </trkpt>
      <trkpt lat="47.529" lon="7.13226">
        <ele>462.8</ele>
        <time>2026-05-13T16:07:09Z</time>
      </trkpt>
      <trkpt lat="47.52915" lon="7.13258">
        <ele>462.8</ele>
        <time>2026-05-13T16:07:13Z</time>
      </trkpt>
      <trkpt lat="47.52948" lon="7.13327">
        <ele>462.6</ele>
        <time>2026-05-13T16:07:21Z</time>
      </trkpt>
      <trkpt lat="47.52979" lon="7.13395">
        <ele>461.8</ele>
        <time>2026-05-13T16:07:28Z</time>
      </trkpt>
      <trkpt lat="47.5301" lon="7.13468">
        <ele>460.6</ele>
        <time>2026-05-13T16:07:35Z</time>
      </trkpt>
      <trkpt lat="47.53028" lon="7.13524">
        <ele>459.6</ele>
        <time>2026-05-13T16:07:40Z</time>
      </trkpt>
      <trkpt lat="47.53033" lon="7.13535">
        <ele>459.2</ele>
        <time>2026-05-13T16:07:41Z</time>
      </trkpt>
      <trkpt lat="47.5304" lon="7.13553">
        <ele>458.4</ele>
        <time>2026-05-13T16:07:44Z</time>
      </trkpt>
      <trkpt lat="47.53042" lon="7.13557">
        <ele>458.2</ele>
        <time>2026-05-13T16:07:45Z</time>
      </trkpt>
      <trkpt lat="47.53044" lon="7.1356">
        <ele>457.8</ele>
        <time>2026-05-13T16:07:47Z</time>
      </trkpt>
      <trkpt lat="47.53044" lon="7.13561">
        <ele>457.8</ele>
        <time>2026-05-13T16:07:48Z</time>
      </trkpt>
      <trkpt lat="47.53045" lon="7.13561">
        <ele>457.4</ele>
        <time>2026-05-13T16:07:50Z</time>
      </trkpt>
      <trkpt lat="47.53043" lon="7.13567">
        <ele>456.4</ele>
        <time>2026-05-13T16:08:31Z</time>
      </trkpt>
      <trkpt lat="47.53043" lon="7.13571">
        <ele>456.4</ele>
        <time>2026-05-13T16:08:32Z</time>
      </trkpt>
      <trkpt lat="47.53046" lon="7.13591">
        <ele>456.8</ele>
        <time>2026-05-13T16:08:36Z</time>
      </trkpt>
      <trkpt lat="47.5305" lon="7.13631">
        <ele>456.4</ele>
        <time>2026-05-13T16:08:41Z</time>
      </trkpt>
      <trkpt lat="47.53049" lon="7.13668">
        <ele>456.2</ele>
        <time>2026-05-13T16:08:45Z</time>
      </trkpt>
      <trkpt lat="47.53048" lon="7.13677">
        <ele>456.2</ele>
        <time>2026-05-13T16:08:46Z</time>
      </trkpt>
      <trkpt lat="47.53041" lon="7.13711">
        <ele>456.6</ele>
        <time>2026-05-13T16:08:50Z</time>
      </trkpt>
      <trkpt lat="47.53039" lon="7.13722">
        <ele>456.6</ele>
        <time>2026-05-13T16:08:51Z</time>
      </trkpt>
      <trkpt lat="47.53037" lon="7.1374">
        <ele>456.8</ele>
        <time>2026-05-13T16:08:53Z</time>
      </trkpt>
      <trkpt lat="47.53035" lon="7.13755">
        <ele>457.2</ele>
        <time>2026-05-13T16:08:55Z</time>
      </trkpt>
      <trkpt lat="47.53029" lon="7.1378">
        <ele>457.6</ele>
        <time>2026-05-13T16:08:58Z</time>
      </trkpt>
      <trkpt lat="47.53022" lon="7.13811">
        <ele>458</ele>
        <time>2026-05-13T16:09:01Z</time>
      </trkpt>
      <trkpt lat="47.5302" lon="7.13829">
        <ele>458.4</ele>
        <time>2026-05-13T16:09:03Z</time>
      </trkpt>
      <trkpt lat="47.53021" lon="7.13849">
        <ele>458.6</ele>
        <time>2026-05-13T16:09:05Z</time>
      </trkpt>
      <trkpt lat="47.53024" lon="7.13881">
        <ele>458.8</ele>
        <time>2026-05-13T16:09:09Z</time>
      </trkpt>
      <trkpt lat="47.53024" lon="7.1391">
        <ele>459.4</ele>
        <time>2026-05-13T16:09:12Z</time>
      </trkpt>
      <trkpt lat="47.53028" lon="7.13944">
        <ele>459.6</ele>
        <time>2026-05-13T16:09:16Z</time>
      </trkpt>
      <trkpt lat="47.53033" lon="7.13958">
        <ele>459.6</ele>
        <time>2026-05-13T16:09:18Z</time>
      </trkpt>
      <trkpt lat="47.53035" lon="7.13975">
        <ele>459.8</ele>
        <time>2026-05-13T16:09:20Z</time>
      </trkpt>
      <trkpt lat="47.53033" lon="7.1399">
        <ele>460</ele>
        <time>2026-05-13T16:09:22Z</time>
      </trkpt>
      <trkpt lat="47.53036" lon="7.14014">
        <ele>460.4</ele>
        <time>2026-05-13T16:09:25Z</time>
      </trkpt>
      <trkpt lat="47.53037" lon="7.14027">
        <ele>460.6</ele>
        <time>2026-05-13T16:09:27Z</time>
      </trkpt>
      <trkpt lat="47.53036" lon="7.14082">
        <ele>461.4</ele>
        <time>2026-05-13T16:09:34Z</time>
      </trkpt>
      <trkpt lat="47.53034" lon="7.14096">
        <ele>461.6</ele>
        <time>2026-05-13T16:09:36Z</time>
      </trkpt>
      <trkpt lat="47.53033" lon="7.14104">
        <ele>461.6</ele>
        <time>2026-05-13T16:09:37Z</time>
      </trkpt>
      <trkpt lat="47.53033" lon="7.14115">
        <ele>461.8</ele>
        <time>2026-05-13T16:09:38Z</time>
      </trkpt>
      <trkpt lat="47.53033" lon="7.14156">
        <ele>462</ele>
        <time>2026-05-13T16:09:43Z</time>
      </trkpt>
      <trkpt lat="47.53032" lon="7.14164">
        <ele>462.2</ele>
        <time>2026-05-13T16:09:44Z</time>
      </trkpt>
      <trkpt lat="47.53033" lon="7.14205">
        <ele>462.4</ele>
        <time>2026-05-13T16:09:49Z</time>
      </trkpt>
      <trkpt lat="47.53032" lon="7.14212">
        <ele>462.2</ele>
        <time>2026-05-13T16:09:50Z</time>
      </trkpt>
      <trkpt lat="47.53031" lon="7.1423">
        <ele>462.4</ele>
        <time>2026-05-13T16:09:52Z</time>
      </trkpt>
      <trkpt lat="47.53031" lon="7.14239">
        <ele>462.4</ele>
        <time>2026-05-13T16:09:53Z</time>
      </trkpt>
      <trkpt lat="47.53029" lon="7.14254">
        <ele>462.6</ele>
        <time>2026-05-13T16:09:55Z</time>
      </trkpt>
      <trkpt lat="47.53028" lon="7.14315">
        <ele>462.6</ele>
        <time>2026-05-13T16:10:02Z</time>
      </trkpt>
      <trkpt lat="47.53026" lon="7.14332">
        <ele>462.8</ele>
        <time>2026-05-13T16:10:04Z</time>
      </trkpt>
      <trkpt lat="47.53025" lon="7.14362">
        <ele>462.8</ele>
        <time>2026-05-13T16:10:08Z</time>
      </trkpt>
      <trkpt lat="47.53025" lon="7.14389">
        <ele>463</ele>
        <time>2026-05-13T16:10:11Z</time>
      </trkpt>
      <trkpt lat="47.53023" lon="7.14404">
        <ele>463.4</ele>
        <time>2026-05-13T16:10:13Z</time>
      </trkpt>
      <trkpt lat="47.53022" lon="7.14423">
        <ele>463.6</ele>
        <time>2026-05-13T16:10:15Z</time>
      </trkpt>
      <trkpt lat="47.53022" lon="7.14431">
        <ele>463.6</ele>
        <time>2026-05-13T16:10:16Z</time>
      </trkpt>
      <trkpt lat="47.53023" lon="7.14446">
        <ele>463.8</ele>
        <time>2026-05-13T16:10:18Z</time>
      </trkpt>
      <trkpt lat="47.53024" lon="7.14471">
        <ele>464</ele>
        <time>2026-05-13T16:10:21Z</time>
      </trkpt>
      <trkpt lat="47.53019" lon="7.14519">
        <ele>464.6</ele>
        <time>2026-05-13T16:10:27Z</time>
      </trkpt>
      <trkpt lat="47.53018" lon="7.14527">
        <ele>464.8</ele>
        <time>2026-05-13T16:10:28Z</time>
      </trkpt>
      <trkpt lat="47.53013" lon="7.14567">
        <ele>465</ele>
        <time>2026-05-13T16:10:33Z</time>
      </trkpt>
      <trkpt lat="47.53012" lon="7.14576">
        <ele>465.2</ele>
        <time>2026-05-13T16:10:34Z</time>
      </trkpt>
      <trkpt lat="47.53011" lon="7.14587">
        <ele>465.2</ele>
        <time>2026-05-13T16:10:36Z</time>
      </trkpt>
      <trkpt lat="47.5301" lon="7.14599">
        <ele>465.2</ele>
        <time>2026-05-13T16:10:38Z</time>
      </trkpt>
      <trkpt lat="47.5301" lon="7.14608">
        <ele>465.2</ele>
        <time>2026-05-13T16:10:39Z</time>
      </trkpt>
      <trkpt lat="47.53008" lon="7.1464">
        <ele>465.2</ele>
        <time>2026-05-13T16:10:43Z</time>
      </trkpt>
      <trkpt lat="47.53007" lon="7.14657">
        <ele>465.4</ele>
        <time>2026-05-13T16:10:46Z</time>
      </trkpt>
      <trkpt lat="47.53004" lon="7.14671">
        <ele>465.8</ele>
        <time>2026-05-13T16:10:48Z</time>
      </trkpt>
      <trkpt lat="47.53002" lon="7.14691">
        <ele>466.8</ele>
        <time>2026-05-13T16:10:52Z</time>
      </trkpt>
      <trkpt lat="47.53001" lon="7.14711">
        <ele>467.4</ele>
        <time>2026-05-13T16:10:55Z</time>
      </trkpt>
      <trkpt lat="47.53001" lon="7.14717">
        <ele>467.6</ele>
        <time>2026-05-13T16:10:56Z</time>
      </trkpt>
      <trkpt lat="47.53001" lon="7.14749">
        <ele>469</ele>
        <time>2026-05-13T16:11:01Z</time>
      </trkpt>
      <trkpt lat="47.53001" lon="7.14777">
        <ele>470.4</ele>
        <time>2026-05-13T16:11:06Z</time>
      </trkpt>
      <trkpt lat="47.53002" lon="7.14784">
        <ele>470.4</ele>
        <time>2026-05-13T16:11:07Z</time>
      </trkpt>
      <trkpt lat="47.53004" lon="7.14812">
        <ele>471.4</ele>
        <time>2026-05-13T16:11:11Z</time>
      </trkpt>
      <trkpt lat="47.53003" lon="7.1482">
        <ele>471.4</ele>
        <time>2026-05-13T16:11:12Z</time>
      </trkpt>
      <trkpt lat="47.53002" lon="7.14828">
        <ele>471.8</ele>
        <time>2026-05-13T16:11:13Z</time>
      </trkpt>
      <trkpt lat="47.53001" lon="7.14849">
        <ele>472.6</ele>
        <time>2026-05-13T16:11:16Z</time>
      </trkpt>
      <trkpt lat="47.53002" lon="7.14863">
        <ele>473</ele>
        <time>2026-05-13T16:11:18Z</time>
      </trkpt>
      <trkpt lat="47.53002" lon="7.14869">
        <ele>473</ele>
        <time>2026-05-13T16:11:19Z</time>
      </trkpt>
      <trkpt lat="47.53002" lon="7.14876">
        <ele>473.2</ele>
        <time>2026-05-13T16:11:20Z</time>
      </trkpt>
      <trkpt lat="47.53003" lon="7.14889">
        <ele>473.6</ele>
        <time>2026-05-13T16:11:22Z</time>
      </trkpt>
      <trkpt lat="47.53002" lon="7.14901">
        <ele>474.2</ele>
        <time>2026-05-13T16:11:24Z</time>
      </trkpt>
      <trkpt lat="47.53003" lon="7.14915">
        <ele>474.8</ele>
        <time>2026-05-13T16:11:26Z</time>
      </trkpt>
      <trkpt lat="47.53005" lon="7.14955">
        <ele>475.8</ele>
        <time>2026-05-13T16:11:32Z</time>
      </trkpt>
      <trkpt lat="47.53006" lon="7.14967">
        <ele>476</ele>
        <time>2026-05-13T16:11:34Z</time>
      </trkpt>
      <trkpt lat="47.5301" lon="7.14993">
        <ele>476.8</ele>
        <time>2026-05-13T16:11:38Z</time>
      </trkpt>
      <trkpt lat="47.53015" lon="7.15021">
        <ele>477.4</ele>
        <time>2026-05-13T16:11:42Z</time>
      </trkpt>
      <trkpt lat="47.53028" lon="7.15076">
        <ele>477.8</ele>
        <time>2026-05-13T16:11:50Z</time>
      </trkpt>
      <trkpt lat="47.53045" lon="7.15124">
        <ele>477.6</ele>
        <time>2026-05-13T16:11:57Z</time>
      </trkpt>
      <trkpt lat="47.53069" lon="7.15197">
        <ele>476.6</ele>
        <time>2026-05-13T16:12:06Z</time>
      </trkpt>
      <trkpt lat="47.53085" lon="7.1525">
        <ele>476.2</ele>
        <time>2026-05-13T16:12:12Z</time>
      </trkpt>
      <trkpt lat="47.53095" lon="7.15281">
        <ele>475.8</ele>
        <time>2026-05-13T16:12:15Z</time>
      </trkpt>
      <trkpt lat="47.53111" lon="7.15324">
        <ele>475</ele>
        <time>2026-05-13T16:12:19Z</time>
      </trkpt>
      <trkpt lat="47.53114" lon="7.15332">
        <ele>474.8</ele>
        <time>2026-05-13T16:12:20Z</time>
      </trkpt>
      <trkpt lat="47.53132" lon="7.15375">
        <ele>474</ele>
        <time>2026-05-13T16:12:24Z</time>
      </trkpt>
      <trkpt lat="47.53145" lon="7.15402">
        <ele>473.6</ele>
        <time>2026-05-13T16:12:27Z</time>
      </trkpt>
      <trkpt lat="47.53176" lon="7.1546">
        <ele>473</ele>
        <time>2026-05-13T16:12:33Z</time>
      </trkpt>
      <trkpt lat="47.53203" lon="7.15505">
        <ele>472.2</ele>
        <time>2026-05-13T16:12:38Z</time>
      </trkpt>
      <trkpt lat="47.53219" lon="7.15531">
        <ele>471.6</ele>
        <time>2026-05-13T16:12:41Z</time>
      </trkpt>
      <trkpt lat="47.53256" lon="7.15594">
        <ele>470.8</ele>
        <time>2026-05-13T16:12:48Z</time>
      </trkpt>
      <trkpt lat="47.53265" lon="7.15618">
        <ele>470.8</ele>
        <time>2026-05-13T16:12:50Z</time>
      </trkpt>
      <trkpt lat="47.53268" lon="7.15629">
        <ele>470.6</ele>
        <time>2026-05-13T16:12:51Z</time>
      </trkpt>
      <trkpt lat="47.5327" lon="7.1564">
        <ele>470.6</ele>
        <time>2026-05-13T16:12:52Z</time>
      </trkpt>
      <trkpt lat="47.53277" lon="7.15698">
        <ele>470</ele>
        <time>2026-05-13T16:12:57Z</time>
      </trkpt>
      <trkpt lat="47.5328" lon="7.15709">
        <ele>469.8</ele>
        <time>2026-05-13T16:12:58Z</time>
      </trkpt>
      <trkpt lat="47.53304" lon="7.15789">
        <ele>470.4</ele>
        <time>2026-05-13T16:13:06Z</time>
      </trkpt>
      <trkpt lat="47.53306" lon="7.15797">
        <ele>470.6</ele>
        <time>2026-05-13T16:13:07Z</time>
      </trkpt>
      <trkpt lat="47.53308" lon="7.15806">
        <ele>470.8</ele>
        <time>2026-05-13T16:13:08Z</time>
      </trkpt>
      <trkpt lat="47.53313" lon="7.15825">
        <ele>471.2</ele>
        <time>2026-05-13T16:13:10Z</time>
      </trkpt>
      <trkpt lat="47.53313" lon="7.15834">
        <ele>471.4</ele>
        <time>2026-05-13T16:13:11Z</time>
      </trkpt>
      <trkpt lat="47.53314" lon="7.15841">
        <ele>471.6</ele>
        <time>2026-05-13T16:13:12Z</time>
      </trkpt>
      <trkpt lat="47.53317" lon="7.15871">
        <ele>472.8</ele>
        <time>2026-05-13T16:13:16Z</time>
      </trkpt>
      <trkpt lat="47.53318" lon="7.15878">
        <ele>473</ele>
        <time>2026-05-13T16:13:17Z</time>
      </trkpt>
      <trkpt lat="47.5332" lon="7.15897">
        <ele>474</ele>
        <time>2026-05-13T16:13:20Z</time>
      </trkpt>
      <trkpt lat="47.53321" lon="7.15903">
        <ele>474.2</ele>
        <time>2026-05-13T16:13:21Z</time>
      </trkpt>
      <trkpt lat="47.53322" lon="7.15925">
        <ele>475.4</ele>
        <time>2026-05-13T16:13:24Z</time>
      </trkpt>
      <trkpt lat="47.53323" lon="7.15946">
        <ele>476.6</ele>
        <time>2026-05-13T16:13:27Z</time>
      </trkpt>
      <trkpt lat="47.53325" lon="7.15951">
        <ele>476.8</ele>
        <time>2026-05-13T16:13:28Z</time>
      </trkpt>
      <trkpt lat="47.53326" lon="7.15975">
        <ele>477.4</ele>
        <time>2026-05-13T16:13:31Z</time>
      </trkpt>
      <trkpt lat="47.53327" lon="7.15987">
        <ele>477.6</ele>
        <time>2026-05-13T16:13:32Z</time>
      </trkpt>
      <trkpt lat="47.53331" lon="7.16024">
        <ele>478</ele>
        <time>2026-05-13T16:13:36Z</time>
      </trkpt>
      <trkpt lat="47.53341" lon="7.16096">
        <ele>477.4</ele>
        <time>2026-05-13T16:13:42Z</time>
      </trkpt>
      <trkpt lat="47.53347" lon="7.1613">
        <ele>476.6</ele>
        <time>2026-05-13T16:13:45Z</time>
      </trkpt>
      <trkpt lat="47.53356" lon="7.16177">
        <ele>475.6</ele>
        <time>2026-05-13T16:13:49Z</time>
      </trkpt>
      <trkpt lat="47.53361" lon="7.16214">
        <ele>475.2</ele>
        <time>2026-05-13T16:13:52Z</time>
      </trkpt>
      <trkpt lat="47.53366" lon="7.16246">
        <ele>474.6</ele>
        <time>2026-05-13T16:13:55Z</time>
      </trkpt>
      <trkpt lat="47.53378" lon="7.16305">
        <ele>473.8</ele>
        <time>2026-05-13T16:14:00Z</time>
      </trkpt>
      <trkpt lat="47.53383" lon="7.16337">
        <ele>473.4</ele>
        <time>2026-05-13T16:14:03Z</time>
      </trkpt>
      <trkpt lat="47.53398" lon="7.16409">
        <ele>472.4</ele>
        <time>2026-05-13T16:14:09Z</time>
      </trkpt>
      <trkpt lat="47.53401" lon="7.16425">
        <ele>472.2</ele>
        <time>2026-05-13T16:14:10Z</time>
      </trkpt>
      <trkpt lat="47.53409" lon="7.16462">
        <ele>471</ele>
        <time>2026-05-13T16:14:13Z</time>
      </trkpt>
      <trkpt lat="47.53413" lon="7.16489">
        <ele>470.4</ele>
        <time>2026-05-13T16:14:15Z</time>
      </trkpt>
      <trkpt lat="47.53417" lon="7.16517">
        <ele>470</ele>
        <time>2026-05-13T16:14:17Z</time>
      </trkpt>
      <trkpt lat="47.53424" lon="7.16573">
        <ele>469.2</ele>
        <time>2026-05-13T16:14:21Z</time>
      </trkpt>
      <trkpt lat="47.53424" lon="7.16584">
        <ele>469</ele>
        <time>2026-05-13T16:14:22Z</time>
      </trkpt>
      <trkpt lat="47.53426" lon="7.16626">
        <ele>468.2</ele>
        <time>2026-05-13T16:14:25Z</time>
      </trkpt>
      <trkpt lat="47.53428" lon="7.16648">
        <ele>467.8</ele>
        <time>2026-05-13T16:14:27Z</time>
      </trkpt>
      <trkpt lat="47.53439" lon="7.1671">
        <ele>467</ele>
        <time>2026-05-13T16:14:32Z</time>
      </trkpt>
      <trkpt lat="47.53444" lon="7.16733">
        <ele>466.8</ele>
        <time>2026-05-13T16:14:34Z</time>
      </trkpt>
      <trkpt lat="47.5346" lon="7.168">
        <ele>466.8</ele>
        <time>2026-05-13T16:14:40Z</time>
      </trkpt>
      <trkpt lat="47.53471" lon="7.16863">
        <ele>466</ele>
        <time>2026-05-13T16:14:45Z</time>
      </trkpt>
      <trkpt lat="47.53476" lon="7.16887">
        <ele>465.8</ele>
        <time>2026-05-13T16:14:47Z</time>
      </trkpt>
      <trkpt lat="47.53493" lon="7.16973">
        <ele>464.6</ele>
        <time>2026-05-13T16:14:53Z</time>
      </trkpt>
      <trkpt lat="47.53497" lon="7.16999">
        <ele>463.6</ele>
        <time>2026-05-13T16:14:55Z</time>
      </trkpt>
      <trkpt lat="47.53504" lon="7.17031">
        <ele>462.4</ele>
        <time>2026-05-13T16:14:57Z</time>
      </trkpt>
      <trkpt lat="47.5351" lon="7.17061">
        <ele>461</ele>
        <time>2026-05-13T16:14:59Z</time>
      </trkpt>
      <trkpt lat="47.53512" lon="7.17073">
        <ele>460.6</ele>
        <time>2026-05-13T16:15:00Z</time>
      </trkpt>
      <trkpt lat="47.53518" lon="7.17106">
        <ele>459.6</ele>
        <time>2026-05-13T16:15:02Z</time>
      </trkpt>
      <trkpt lat="47.53524" lon="7.17136">
        <ele>458.4</ele>
        <time>2026-05-13T16:15:04Z</time>
      </trkpt>
      <trkpt lat="47.53532" lon="7.17195">
        <ele>457</ele>
        <time>2026-05-13T16:15:08Z</time>
      </trkpt>
      <trkpt lat="47.53537" lon="7.17222">
        <ele>455.8</ele>
        <time>2026-05-13T16:15:10Z</time>
      </trkpt>
      <trkpt lat="47.5354" lon="7.17247">
        <ele>454.8</ele>
        <time>2026-05-13T16:15:12Z</time>
      </trkpt>
      <trkpt lat="47.53544" lon="7.1727">
        <ele>453.2</ele>
        <time>2026-05-13T16:15:14Z</time>
      </trkpt>
      <trkpt lat="47.53548" lon="7.17289">
        <ele>452</ele>
        <time>2026-05-13T16:15:16Z</time>
      </trkpt>
      <trkpt lat="47.53553" lon="7.17295">
        <ele>451.6</ele>
        <time>2026-05-13T16:15:17Z</time>
      </trkpt>
      <trkpt lat="47.53558" lon="7.17298">
        <ele>450.8</ele>
        <time>2026-05-13T16:15:18Z</time>
      </trkpt>
      <trkpt lat="47.53569" lon="7.17299">
        <ele>449.8</ele>
        <time>2026-05-13T16:15:20Z</time>
      </trkpt>
      <trkpt lat="47.53597" lon="7.17302">
        <ele>448.8</ele>
        <time>2026-05-13T16:15:25Z</time>
      </trkpt>
      <trkpt lat="47.53602" lon="7.17303">
        <ele>448.8</ele>
        <time>2026-05-13T16:15:26Z</time>
      </trkpt>
      <trkpt lat="47.53608" lon="7.17303">
        <ele>448.8</ele>
        <time>2026-05-13T16:15:27Z</time>
      </trkpt>
      <trkpt lat="47.53619" lon="7.17302">
        <ele>448.8</ele>
        <time>2026-05-13T16:15:29Z</time>
      </trkpt>
      <trkpt lat="47.53625" lon="7.17299">
        <ele>448.8</ele>
        <time>2026-05-13T16:15:30Z</time>
      </trkpt>
      <trkpt lat="47.53635" lon="7.17292">
        <ele>448.6</ele>
        <time>2026-05-13T16:15:32Z</time>
      </trkpt>
      <trkpt lat="47.53651" lon="7.17276">
        <ele>448</ele>
        <time>2026-05-13T16:15:35Z</time>
      </trkpt>
      <trkpt lat="47.53669" lon="7.17256">
        <ele>446.4</ele>
        <time>2026-05-13T16:15:38Z</time>
      </trkpt>
      <trkpt lat="47.53675" lon="7.17253">
        <ele>446.2</ele>
        <time>2026-05-13T16:15:39Z</time>
      </trkpt>
      <trkpt lat="47.5368" lon="7.17252">
        <ele>445.4</ele>
        <time>2026-05-13T16:15:40Z</time>
      </trkpt>
      <trkpt lat="47.53685" lon="7.17253">
        <ele>445.2</ele>
        <time>2026-05-13T16:15:41Z</time>
      </trkpt>
      <trkpt lat="47.53694" lon="7.17258">
        <ele>444</ele>
        <time>2026-05-13T16:15:43Z</time>
      </trkpt>
      <trkpt lat="47.53698" lon="7.17262">
        <ele>443.8</ele>
        <time>2026-05-13T16:15:44Z</time>
      </trkpt>
      <trkpt lat="47.53708" lon="7.17274">
        <ele>442.8</ele>
        <time>2026-05-13T16:15:46Z</time>
      </trkpt>
      <trkpt lat="47.53721" lon="7.17288">
        <ele>442.4</ele>
        <time>2026-05-13T16:15:48Z</time>
      </trkpt>
      <trkpt lat="47.53734" lon="7.17302">
        <ele>441</ele>
        <time>2026-05-13T16:15:50Z</time>
      </trkpt>
      <trkpt lat="47.53747" lon="7.17314">
        <ele>439.6</ele>
        <time>2026-05-13T16:15:52Z</time>
      </trkpt>
      <trkpt lat="47.53753" lon="7.17319">
        <ele>438</ele>
        <time>2026-05-13T16:15:53Z</time>
      </trkpt>
      <trkpt lat="47.5376" lon="7.17324">
        <ele>437.4</ele>
        <time>2026-05-13T16:15:54Z</time>
      </trkpt>
      <trkpt lat="47.53766" lon="7.17328">
        <ele>436.4</ele>
        <time>2026-05-13T16:15:55Z</time>
      </trkpt>
      <trkpt lat="47.53779" lon="7.17338">
        <ele>434.8</ele>
        <time>2026-05-13T16:15:57Z</time>
      </trkpt>
      <trkpt lat="47.53786" lon="7.17343">
        <ele>434.2</ele>
        <time>2026-05-13T16:15:58Z</time>
      </trkpt>
      <trkpt lat="47.53792" lon="7.17348">
        <ele>432.6</ele>
        <time>2026-05-13T16:15:59Z</time>
      </trkpt>
      <trkpt lat="47.53799" lon="7.17352">
        <ele>431.4</ele>
        <time>2026-05-13T16:16:00Z</time>
      </trkpt>
      <trkpt lat="47.53811" lon="7.17359">
        <ele>430.2</ele>
        <time>2026-05-13T16:16:02Z</time>
      </trkpt>
      <trkpt lat="47.5382" lon="7.17364">
        <ele>428.6</ele>
        <time>2026-05-13T16:16:04Z</time>
      </trkpt>
      <trkpt lat="47.53825" lon="7.17367">
        <ele>427.4</ele>
        <time>2026-05-13T16:16:05Z</time>
      </trkpt>
      <trkpt lat="47.53835" lon="7.17373">
        <ele>426.2</ele>
        <time>2026-05-13T16:16:07Z</time>
      </trkpt>
      <trkpt lat="47.53849" lon="7.17382">
        <ele>424.8</ele>
        <time>2026-05-13T16:16:10Z</time>
      </trkpt>
      <trkpt lat="47.53852" lon="7.17384">
        <ele>423.4</ele>
        <time>2026-05-13T16:16:12Z</time>
      </trkpt>
      <trkpt lat="47.53852" lon="7.17384">
        <ele>423</ele>
        <time>2026-05-13T16:16:13Z</time>
      </trkpt>
      <trkpt lat="47.53852" lon="7.17384">
        <ele>422.2</ele>
        <time>2026-05-13T16:16:14Z</time>
      </trkpt>
      <trkpt lat="47.53854" lon="7.17389">
        <ele>421.2</ele>
        <time>2026-05-13T16:16:16Z</time>
      </trkpt>
      <trkpt lat="47.53858" lon="7.17394">
        <ele>420.4</ele>
        <time>2026-05-13T16:16:18Z</time>
      </trkpt>
      <trkpt lat="47.5387" lon="7.174">
        <ele>419.8</ele>
        <time>2026-05-13T16:16:21Z</time>
      </trkpt>
      <trkpt lat="47.53875" lon="7.17403">
        <ele>419.4</ele>
        <time>2026-05-13T16:16:22Z</time>
      </trkpt>
      <trkpt lat="47.53895" lon="7.17418">
        <ele>418.8</ele>
        <time>2026-05-13T16:16:26Z</time>
      </trkpt>
      <trkpt lat="47.539" lon="7.17425">
        <ele>418.6</ele>
        <time>2026-05-13T16:16:27Z</time>
      </trkpt>
      <trkpt lat="47.53903" lon="7.17433">
        <ele>418.4</ele>
        <time>2026-05-13T16:16:28Z</time>
      </trkpt>
      <trkpt lat="47.53916" lon="7.17464">
        <ele>417.8</ele>
        <time>2026-05-13T16:16:32Z</time>
      </trkpt>
      <trkpt lat="47.53919" lon="7.17472">
        <ele>417.6</ele>
        <time>2026-05-13T16:16:33Z</time>
      </trkpt>
      <trkpt lat="47.53939" lon="7.17514">
        <ele>417.2</ele>
        <time>2026-05-13T16:16:39Z</time>
      </trkpt>
      <trkpt lat="47.5397" lon="7.1756">
        <ele>417.6</ele>
        <time>2026-05-13T16:16:47Z</time>
      </trkpt>
      <trkpt lat="47.54005" lon="7.17608">
        <ele>418.6</ele>
        <time>2026-05-13T16:16:56Z</time>
      </trkpt>
      <trkpt lat="47.54008" lon="7.17613">
        <ele>418.8</ele>
        <time>2026-05-13T16:16:57Z</time>
      </trkpt>
      <trkpt lat="47.54026" lon="7.17639">
        <ele>419.8</ele>
        <time>2026-05-13T16:17:02Z</time>
      </trkpt>
      <trkpt lat="47.54035" lon="7.17653">
        <ele>420.4</ele>
        <time>2026-05-13T16:17:05Z</time>
      </trkpt>
      <trkpt lat="47.54044" lon="7.17666">
        <ele>421.2</ele>
        <time>2026-05-13T16:17:08Z</time>
      </trkpt>
      <trkpt lat="47.54045" lon="7.17671">
        <ele>421.4</ele>
        <time>2026-05-13T16:17:09Z</time>
      </trkpt>
      <trkpt lat="47.54044" lon="7.17682">
        <ele>422.4</ele>
        <time>2026-05-13T16:17:12Z</time>
      </trkpt>
      <trkpt lat="47.54043" lon="7.17684">
        <ele>422.4</ele>
        <time>2026-05-13T16:17:13Z</time>
      </trkpt>
      <trkpt lat="47.54043" lon="7.17685">
        <ele>422.8</ele>
        <time>2026-05-13T16:17:16Z</time>
      </trkpt>
      <trkpt lat="47.54043" lon="7.17688">
        <ele>422.8</ele>
        <time>2026-05-13T16:20:38Z</time>
      </trkpt>
      <trkpt lat="47.54042" lon="7.17691">
        <ele>422.8</ele>
        <time>2026-05-13T16:20:39Z</time>
      </trkpt>
      <trkpt lat="47.54039" lon="7.17714">
        <ele>422.6</ele>
        <time>2026-05-13T16:20:44Z</time>
      </trkpt>
      <trkpt lat="47.54037" lon="7.17738">
        <ele>422.6</ele>
        <time>2026-05-13T16:20:48Z</time>
      </trkpt>
      <trkpt lat="47.54036" lon="7.17745">
        <ele>422.8</ele>
        <time>2026-05-13T16:20:49Z</time>
      </trkpt>
      <trkpt lat="47.5402" lon="7.1779">
        <ele>423.8</ele>
        <time>2026-05-13T16:20:56Z</time>
      </trkpt>
      <trkpt lat="47.54004" lon="7.17835">
        <ele>425.2</ele>
        <time>2026-05-13T16:21:03Z</time>
      </trkpt>
      <trkpt lat="47.54001" lon="7.17842">
        <ele>425.4</ele>
        <time>2026-05-13T16:21:04Z</time>
      </trkpt>
      <trkpt lat="47.53999" lon="7.17848">
        <ele>425.8</ele>
        <time>2026-05-13T16:21:05Z</time>
      </trkpt>
      <trkpt lat="47.53994" lon="7.17861">
        <ele>426.4</ele>
        <time>2026-05-13T16:21:08Z</time>
      </trkpt>
      <trkpt lat="47.53982" lon="7.17884">
        <ele>427.4</ele>
        <time>2026-05-13T16:21:13Z</time>
      </trkpt>
      <trkpt lat="47.53974" lon="7.17899">
        <ele>428.2</ele>
        <time>2026-05-13T16:21:16Z</time>
      </trkpt>
      <trkpt lat="47.53971" lon="7.17904">
        <ele>428.4</ele>
        <time>2026-05-13T16:21:17Z</time>
      </trkpt>
      <trkpt lat="47.5396" lon="7.17921">
        <ele>429.2</ele>
        <time>2026-05-13T16:21:21Z</time>
      </trkpt>
      <trkpt lat="47.53949" lon="7.17941">
        <ele>429.6</ele>
        <time>2026-05-13T16:21:26Z</time>
      </trkpt>
      <trkpt lat="47.53946" lon="7.17945">
        <ele>429.8</ele>
        <time>2026-05-13T16:21:27Z</time>
      </trkpt>
      <trkpt lat="47.53926" lon="7.17977">
        <ele>430.6</ele>
        <time>2026-05-13T16:21:33Z</time>
      </trkpt>
      <trkpt lat="47.53916" lon="7.17999">
        <ele>431</ele>
        <time>2026-05-13T16:21:37Z</time>
      </trkpt>
      <trkpt lat="47.53911" lon="7.18028">
        <ele>431.4</ele>
        <time>2026-05-13T16:21:43Z</time>
      </trkpt>
      <trkpt lat="47.53915" lon="7.18044">
        <ele>431.4</ele>
        <time>2026-05-13T16:21:48Z</time>
      </trkpt>
      <trkpt lat="47.53918" lon="7.18049">
        <ele>431.4</ele>
        <time>2026-05-13T16:21:52Z</time>
      </trkpt>
      <trkpt lat="47.53919" lon="7.18049">
        <ele>431.4</ele>
        <time>2026-05-13T16:21:54Z</time>
      </trkpt>
      <trkpt lat="47.53916" lon="7.18036">
        <ele>431.2</ele>
        <time>2026-05-13T16:22:26Z</time>
      </trkpt>
      <trkpt lat="47.53913" lon="7.18034">
        <ele>431.2</ele>
        <time>2026-05-13T16:22:28Z</time>
      </trkpt>
      <trkpt lat="47.53912" lon="7.18037">
        <ele>431.4</ele>
        <time>2026-05-13T16:22:30Z</time>
      </trkpt>
      <trkpt lat="47.53914" lon="7.18037">
        <ele>431.4</ele>
        <time>2026-05-13T16:22:32Z</time>
      </trkpt>
      <trkpt lat="47.53922" lon="7.18026">
        <ele>431.4</ele>
        <time>2026-05-13T16:22:38Z</time>
      </trkpt>
      <trkpt lat="47.53927" lon="7.18023">
        <ele>431.8</ele>
        <time>2026-05-13T16:22:44Z</time>
      </trkpt>
      <trkpt lat="47.53928" lon="7.18022">
        <ele>431.8</ele>
        <time>2026-05-13T16:22:45Z</time>
      </trkpt>
      <trkpt lat="47.53934" lon="7.18016">
        <ele>432.2</ele>
        <time>2026-05-13T16:22:50Z</time>
      </trkpt>
      <trkpt lat="47.53938" lon="7.18009">
        <ele>432.2</ele>
        <time>2026-05-13T16:22:54Z</time>
      </trkpt>
      <trkpt lat="47.5394" lon="7.18004">
        <ele>432.4</ele>
        <time>2026-05-13T16:22:56Z</time>
      </trkpt>
      <trkpt lat="47.53941" lon="7.18001">
        <ele>432.4</ele>
        <time>2026-05-13T16:22:57Z</time>
      </trkpt>
      <trkpt lat="47.53952" lon="7.17981">
        <ele>432.4</ele>
        <time>2026-05-13T16:23:02Z</time>
      </trkpt>
      <trkpt lat="47.53963" lon="7.17955">
        <ele>432.6</ele>
        <time>2026-05-13T16:23:08Z</time>
      </trkpt>
      <trkpt lat="47.53967" lon="7.17959">
        <ele>432.6</ele>
        <time>2026-05-13T16:23:11Z</time>
      </trkpt>
      <trkpt lat="47.53971" lon="7.17965">
        <ele>432.6</ele>
        <time>2026-05-13T16:23:14Z</time>
      </trkpt>
      <trkpt lat="47.53971" lon="7.17967">
        <ele>432.6</ele>
        <time>2026-05-13T16:23:15Z</time>
      </trkpt>
      <trkpt lat="47.53971" lon="7.1797">
        <ele>432.6</ele>
        <time>2026-05-13T16:23:18Z</time>
      </trkpt>
    </trkseg>
  </trk>
</gpx>